<?xml version='1.0' encoding='UTF-8'?>
<gpx version="1.1" creator="https://www.komoot.de" xmlns="http://www.topografix.com/GPX/1/1" xmlns:xsi="http://www.w3.org/2001/XMLSchema-instance" xsi:schemaLocation="http://www.topografix.com/GPX/1/1 http://www.topografix.com/GPX/1/1/gpx.xsd">
  <metadata>
    <name>Radtour 26, Jedenspeigen-Papstkapelle, Runde über Ladendorf</name>
    <author>
      <link href="https://www.komoot.de">
        <text>komoot</text>
        <type>text/html</type>
      </link>
    </author>
  </metadata>
  <trk>
    <name>Radtour 26, Jedenspeigen-Papstkapelle, Runde über Ladendorf</name>
    <trkseg>
      <trkpt lat="48.584035" lon="16.649028">
        <ele>243.979747</ele>
        <time>2020-07-01T03:54:08.001Z</time>
      </trkpt>
      <trkpt lat="48.584125" lon="16.648934">
        <ele>243.979747</ele>
        <time>2020-07-01T03:54:10.978Z</time>
      </trkpt>
      <trkpt lat="48.584231" lon="16.648837">
        <ele>243.979747</ele>
        <time>2020-07-01T03:54:13.990Z</time>
      </trkpt>
      <trkpt lat="48.584343" lon="16.648741">
        <ele>243.979747</ele>
        <time>2020-07-01T03:54:16.974Z</time>
      </trkpt>
      <trkpt lat="48.584410" lon="16.648650">
        <ele>243.979747</ele>
        <time>2020-07-01T03:54:18.973Z</time>
      </trkpt>
      <trkpt lat="48.584356" lon="16.648479">
        <ele>243.979747</ele>
        <time>2020-07-01T03:54:22.977Z</time>
      </trkpt>
      <trkpt lat="48.584293" lon="16.648343">
        <ele>243.979747</ele>
        <time>2020-07-01T03:54:25.992Z</time>
      </trkpt>
      <trkpt lat="48.584223" lon="16.648182">
        <ele>243.979747</ele>
        <time>2020-07-01T03:54:28.965Z</time>
      </trkpt>
      <trkpt lat="48.584141" lon="16.648030">
        <ele>243.888429</ele>
        <time>2020-07-01T03:54:31.982Z</time>
      </trkpt>
      <trkpt lat="48.584053" lon="16.647883">
        <ele>243.623337</ele>
        <time>2020-07-01T03:54:34.968Z</time>
      </trkpt>
      <trkpt lat="48.583992" lon="16.647775">
        <ele>243.433450</ele>
        <time>2020-07-01T03:54:36.986Z</time>
      </trkpt>
      <trkpt lat="48.583933" lon="16.647661">
        <ele>243.239910</ele>
        <time>2020-07-01T03:54:38.986Z</time>
      </trkpt>
      <trkpt lat="48.583871" lon="16.647546">
        <ele>243.041540</ele>
        <time>2020-07-01T03:54:40.987Z</time>
      </trkpt>
      <trkpt lat="48.583803" lon="16.647435">
        <ele>242.839251</ele>
        <time>2020-07-01T03:54:42.982Z</time>
      </trkpt>
      <trkpt lat="48.583741" lon="16.647329">
        <ele>242.650057</ele>
        <time>2020-07-01T03:54:44.982Z</time>
      </trkpt>
      <trkpt lat="48.583677" lon="16.647185">
        <ele>242.418089</ele>
        <time>2020-07-01T03:54:47.006Z</time>
      </trkpt>
      <trkpt lat="48.583616" lon="16.647055">
        <ele>242.204972</ele>
        <time>2020-07-01T03:54:48.973Z</time>
      </trkpt>
      <trkpt lat="48.583558" lon="16.646935">
        <ele>242.006250</ele>
        <time>2020-07-01T03:54:50.988Z</time>
      </trkpt>
      <trkpt lat="48.583490" lon="16.646809">
        <ele>241.788816</ele>
        <time>2020-07-01T03:54:52.995Z</time>
      </trkpt>
      <trkpt lat="48.583428" lon="16.646686">
        <ele>241.582043</ele>
        <time>2020-07-01T03:54:54.989Z</time>
      </trkpt>
      <trkpt lat="48.583369" lon="16.646563">
        <ele>241.378887</ele>
        <time>2020-07-01T03:54:56.998Z</time>
      </trkpt>
      <trkpt lat="48.583309" lon="16.646441">
        <ele>241.175614</ele>
        <time>2020-07-01T03:54:58.974Z</time>
      </trkpt>
      <trkpt lat="48.583257" lon="16.646313">
        <ele>240.974761</ele>
        <time>2020-07-01T03:55:01.029Z</time>
      </trkpt>
      <trkpt lat="48.583207" lon="16.646184">
        <ele>240.774842</ele>
        <time>2020-07-01T03:55:03.007Z</time>
      </trkpt>
      <trkpt lat="48.583151" lon="16.646059">
        <ele>240.572977</ele>
        <time>2020-07-01T03:55:04.969Z</time>
      </trkpt>
      <trkpt lat="48.583101" lon="16.645939">
        <ele>240.383343</ele>
        <time>2020-07-01T03:55:06.997Z</time>
      </trkpt>
      <trkpt lat="48.583060" lon="16.645818">
        <ele>240.133166</ele>
        <time>2020-07-01T03:55:09.007Z</time>
      </trkpt>
      <trkpt lat="48.582996" lon="16.645644">
        <ele>239.739282</ele>
        <time>2020-07-01T03:55:11.979Z</time>
      </trkpt>
      <trkpt lat="48.582949" lon="16.645522">
        <ele>239.459964</ele>
        <time>2020-07-01T03:55:14.999Z</time>
      </trkpt>
      <trkpt lat="48.582952" lon="16.645364">
        <ele>239.147238</ele>
        <time>2020-07-01T03:55:19.981Z</time>
      </trkpt>
      <trkpt lat="48.583048" lon="16.645326">
        <ele>238.850450</ele>
        <time>2020-07-01T03:55:22.981Z</time>
      </trkpt>
      <trkpt lat="48.583128" lon="16.645261">
        <ele>238.578822</ele>
        <time>2020-07-01T03:55:25.990Z</time>
      </trkpt>
      <trkpt lat="48.583045" lon="16.645111">
        <ele>238.191925</ele>
        <time>2020-07-01T03:55:28.996Z</time>
      </trkpt>
      <trkpt lat="48.582973" lon="16.644968">
        <ele>237.836382</ele>
        <time>2020-07-01T03:55:31.005Z</time>
      </trkpt>
      <trkpt lat="48.582916" lon="16.644807">
        <ele>237.475102</ele>
        <time>2020-07-01T03:55:33.006Z</time>
      </trkpt>
      <trkpt lat="48.582860" lon="16.644653">
        <ele>237.127422</ele>
        <time>2020-07-01T03:55:34.973Z</time>
      </trkpt>
      <trkpt lat="48.582803" lon="16.644503">
        <ele>236.785176</ele>
        <time>2020-07-01T03:55:36.983Z</time>
      </trkpt>
      <trkpt lat="48.582747" lon="16.644350">
        <ele>236.439227</ele>
        <time>2020-07-01T03:55:39.000Z</time>
      </trkpt>
      <trkpt lat="48.582694" lon="16.644209">
        <ele>236.118376</ele>
        <time>2020-07-01T03:55:40.984Z</time>
      </trkpt>
      <trkpt lat="48.582637" lon="16.644064">
        <ele>235.784670</ele>
        <time>2020-07-01T03:55:42.983Z</time>
      </trkpt>
      <trkpt lat="48.582586" lon="16.643921">
        <ele>235.463253</ele>
        <time>2020-07-01T03:55:44.978Z</time>
      </trkpt>
      <trkpt lat="48.582531" lon="16.643787">
        <ele>235.151255</ele>
        <time>2020-07-01T03:55:47.010Z</time>
      </trkpt>
      <trkpt lat="48.582477" lon="16.643648">
        <ele>234.909036</ele>
        <time>2020-07-01T03:55:49.001Z</time>
      </trkpt>
      <trkpt lat="48.582427" lon="16.643507">
        <ele>234.775606</ele>
        <time>2020-07-01T03:55:50.999Z</time>
      </trkpt>
      <trkpt lat="48.582375" lon="16.643371">
        <ele>234.644593</ele>
        <time>2020-07-01T03:55:52.984Z</time>
      </trkpt>
      <trkpt lat="48.582322" lon="16.643230">
        <ele>234.509335</ele>
        <time>2020-07-01T03:55:55.000Z</time>
      </trkpt>
      <trkpt lat="48.582271" lon="16.643089">
        <ele>234.375304</ele>
        <time>2020-07-01T03:55:57.005Z</time>
      </trkpt>
      <trkpt lat="48.582218" lon="16.642948">
        <ele>234.240046</ele>
        <time>2020-07-01T03:55:59.004Z</time>
      </trkpt>
      <trkpt lat="48.582161" lon="16.642806">
        <ele>234.101514</ele>
        <time>2020-07-01T03:56:00.979Z</time>
      </trkpt>
      <trkpt lat="48.582103" lon="16.642667">
        <ele>233.964446</ele>
        <time>2020-07-01T03:56:02.966Z</time>
      </trkpt>
      <trkpt lat="48.582043" lon="16.642526">
        <ele>233.824617</ele>
        <time>2020-07-01T03:56:04.980Z</time>
      </trkpt>
      <trkpt lat="48.581990" lon="16.642370">
        <ele>233.678350</ele>
        <time>2020-07-01T03:56:07.008Z</time>
      </trkpt>
      <trkpt lat="48.581956" lon="16.642225">
        <ele>233.550040</ele>
        <time>2020-07-01T03:56:09.009Z</time>
      </trkpt>
      <trkpt lat="48.581905" lon="16.642111">
        <ele>233.435258</ele>
        <time>2020-07-01T03:56:10.967Z</time>
      </trkpt>
      <trkpt lat="48.581852" lon="16.641981">
        <ele>233.307895</ele>
        <time>2020-07-01T03:56:12.972Z</time>
      </trkpt>
      <trkpt lat="48.581801" lon="16.641838">
        <ele>233.172398</ele>
        <time>2020-07-01T03:56:14.968Z</time>
      </trkpt>
      <trkpt lat="48.581753" lon="16.641697">
        <ele>233.040139</ele>
        <time>2020-07-01T03:56:16.978Z</time>
      </trkpt>
      <trkpt lat="48.581707" lon="16.641557">
        <ele>232.909762</ele>
        <time>2020-07-01T03:56:18.983Z</time>
      </trkpt>
      <trkpt lat="48.581661" lon="16.641419">
        <ele>232.780877</ele>
        <time>2020-07-01T03:56:20.987Z</time>
      </trkpt>
      <trkpt lat="48.581609" lon="16.641292">
        <ele>232.678074</ele>
        <time>2020-07-01T03:56:23.005Z</time>
      </trkpt>
      <trkpt lat="48.581558" lon="16.641160">
        <ele>232.618309</ele>
        <time>2020-07-01T03:56:24.973Z</time>
      </trkpt>
      <trkpt lat="48.581509" lon="16.641030">
        <ele>232.559812</ele>
        <time>2020-07-01T03:56:26.991Z</time>
      </trkpt>
      <trkpt lat="48.581461" lon="16.640897">
        <ele>232.500578</ele>
        <time>2020-07-01T03:56:29.002Z</time>
      </trkpt>
      <trkpt lat="48.581412" lon="16.640757">
        <ele>232.438654</ele>
        <time>2020-07-01T03:56:30.974Z</time>
      </trkpt>
      <trkpt lat="48.581364" lon="16.640617">
        <ele>232.377003</ele>
        <time>2020-07-01T03:56:32.984Z</time>
      </trkpt>
      <trkpt lat="48.581312" lon="16.640483">
        <ele>232.316265</ele>
        <time>2020-07-01T03:56:35.004Z</time>
      </trkpt>
      <trkpt lat="48.581259" lon="16.640345">
        <ele>232.253878</ele>
        <time>2020-07-01T03:56:36.984Z</time>
      </trkpt>
      <trkpt lat="48.581202" lon="16.640201">
        <ele>232.188269</ele>
        <time>2020-07-01T03:56:38.969Z</time>
      </trkpt>
      <trkpt lat="48.581150" lon="16.640060">
        <ele>232.125154</ele>
        <time>2020-07-01T03:56:40.967Z</time>
      </trkpt>
      <trkpt lat="48.581098" lon="16.639923">
        <ele>232.063401</ele>
        <time>2020-07-01T03:56:42.999Z</time>
      </trkpt>
      <trkpt lat="48.581047" lon="16.639786">
        <ele>232.001940</ele>
        <time>2020-07-01T03:56:45.004Z</time>
      </trkpt>
      <trkpt lat="48.580993" lon="16.639653">
        <ele>231.940928</ele>
        <time>2020-07-01T03:56:46.973Z</time>
      </trkpt>
      <trkpt lat="48.580936" lon="16.639522">
        <ele>231.879625</ele>
        <time>2020-07-01T03:56:48.973Z</time>
      </trkpt>
      <trkpt lat="48.580884" lon="16.639387">
        <ele>231.818548</ele>
        <time>2020-07-01T03:56:50.994Z</time>
      </trkpt>
      <trkpt lat="48.580831" lon="16.639254">
        <ele>231.757844</ele>
        <time>2020-07-01T03:56:52.980Z</time>
      </trkpt>
      <trkpt lat="48.580778" lon="16.639122">
        <ele>231.697473</ele>
        <time>2020-07-01T03:56:54.977Z</time>
      </trkpt>
      <trkpt lat="48.580730" lon="16.638990">
        <ele>231.638582</ele>
        <time>2020-07-01T03:56:56.976Z</time>
      </trkpt>
      <trkpt lat="48.580679" lon="16.638859">
        <ele>231.571633</ele>
        <time>2020-07-01T03:56:58.964Z</time>
      </trkpt>
      <trkpt lat="48.580618" lon="16.638734">
        <ele>231.502622</ele>
        <time>2020-07-01T03:57:00.995Z</time>
      </trkpt>
      <trkpt lat="48.580541" lon="16.638663">
        <ele>231.442049</ele>
        <time>2020-07-01T03:57:02.970Z</time>
      </trkpt>
      <trkpt lat="48.580457" lon="16.638566">
        <ele>231.371059</ele>
        <time>2020-07-01T03:57:05.996Z</time>
      </trkpt>
      <trkpt lat="48.580408" lon="16.638417">
        <ele>231.297132</ele>
        <time>2020-07-01T03:57:08.966Z</time>
      </trkpt>
      <trkpt lat="48.580356" lon="16.638227">
        <ele>231.205778</ele>
        <time>2020-07-01T03:57:12.007Z</time>
      </trkpt>
      <trkpt lat="48.580316" lon="16.638088">
        <ele>231.138432</ele>
        <time>2020-07-01T03:57:13.966Z</time>
      </trkpt>
      <trkpt lat="48.580273" lon="16.637953">
        <ele>231.071862</ele>
        <time>2020-07-01T03:57:15.976Z</time>
      </trkpt>
      <trkpt lat="48.580226" lon="16.637819">
        <ele>231.004477</ele>
        <time>2020-07-01T03:57:18.007Z</time>
      </trkpt>
      <trkpt lat="48.580176" lon="16.637682">
        <ele>230.934961</ele>
        <time>2020-07-01T03:57:20.007Z</time>
      </trkpt>
      <trkpt lat="48.580128" lon="16.637546">
        <ele>230.866476</ele>
        <time>2020-07-01T03:57:22.009Z</time>
      </trkpt>
      <trkpt lat="48.580081" lon="16.637402">
        <ele>230.795135</ele>
        <time>2020-07-01T03:57:24.004Z</time>
      </trkpt>
      <trkpt lat="48.580036" lon="16.637262">
        <ele>230.725981</ele>
        <time>2020-07-01T03:57:26.019Z</time>
      </trkpt>
      <trkpt lat="48.579995" lon="16.637122">
        <ele>230.657958</ele>
        <time>2020-07-01T03:57:27.990Z</time>
      </trkpt>
      <trkpt lat="48.579951" lon="16.636988">
        <ele>230.591493</ele>
        <time>2020-07-01T03:57:29.982Z</time>
      </trkpt>
      <trkpt lat="48.579893" lon="16.636864">
        <ele>230.524021</ele>
        <time>2020-07-01T03:57:31.981Z</time>
      </trkpt>
      <trkpt lat="48.579830" lon="16.636743">
        <ele>230.455609</ele>
        <time>2020-07-01T03:57:33.996Z</time>
      </trkpt>
      <trkpt lat="48.579765" lon="16.636624">
        <ele>230.406228</ele>
        <time>2020-07-01T03:57:35.971Z</time>
      </trkpt>
      <trkpt lat="48.579701" lon="16.636513">
        <ele>230.372713</ele>
        <time>2020-07-01T03:57:37.998Z</time>
      </trkpt>
      <trkpt lat="48.579634" lon="16.636397">
        <ele>230.337661</ele>
        <time>2020-07-01T03:57:39.996Z</time>
      </trkpt>
      <trkpt lat="48.579567" lon="16.636282">
        <ele>230.302780</ele>
        <time>2020-07-01T03:57:42.008Z</time>
      </trkpt>
      <trkpt lat="48.579495" lon="16.636167">
        <ele>230.266740</ele>
        <time>2020-07-01T03:57:43.991Z</time>
      </trkpt>
      <trkpt lat="48.579423" lon="16.636053">
        <ele>230.230864</ele>
        <time>2020-07-01T03:57:45.982Z</time>
      </trkpt>
      <trkpt lat="48.579347" lon="16.635943">
        <ele>230.194660</ele>
        <time>2020-07-01T03:57:47.982Z</time>
      </trkpt>
      <trkpt lat="48.579267" lon="16.635838">
        <ele>230.158206</ele>
        <time>2020-07-01T03:57:49.975Z</time>
      </trkpt>
      <trkpt lat="48.579192" lon="16.635738">
        <ele>230.123796</ele>
        <time>2020-07-01T03:57:51.981Z</time>
      </trkpt>
      <trkpt lat="48.579117" lon="16.635638">
        <ele>230.089386</ele>
        <time>2020-07-01T03:57:54.051Z</time>
      </trkpt>
      <trkpt lat="48.579044" lon="16.635530">
        <ele>230.054240</ele>
        <time>2020-07-01T03:57:56.006Z</time>
      </trkpt>
      <trkpt lat="48.578972" lon="16.635414">
        <ele>230.018033</ele>
        <time>2020-07-01T03:57:57.989Z</time>
      </trkpt>
      <trkpt lat="48.578902" lon="16.635297">
        <ele>229.982126</ele>
        <time>2020-07-01T03:58:00.011Z</time>
      </trkpt>
      <trkpt lat="48.578830" lon="16.635183">
        <ele>229.946250</ele>
        <time>2020-07-01T03:58:02.003Z</time>
      </trkpt>
      <trkpt lat="48.578756" lon="16.635070">
        <ele>229.910057</ele>
        <time>2020-07-01T03:58:03.987Z</time>
      </trkpt>
      <trkpt lat="48.578680" lon="16.634955">
        <ele>229.873057</ele>
        <time>2020-07-01T03:58:05.993Z</time>
      </trkpt>
      <trkpt lat="48.578608" lon="16.634846">
        <ele>229.837995</ele>
        <time>2020-07-01T03:58:07.978Z</time>
      </trkpt>
      <trkpt lat="48.578536" lon="16.634737">
        <ele>229.806058</ele>
        <time>2020-07-01T03:58:09.963Z</time>
      </trkpt>
      <trkpt lat="48.578462" lon="16.634624">
        <ele>229.794482</ele>
        <time>2020-07-01T03:58:11.976Z</time>
      </trkpt>
      <trkpt lat="48.578388" lon="16.634510">
        <ele>229.782855</ele>
        <time>2020-07-01T03:58:13.984Z</time>
      </trkpt>
      <trkpt lat="48.578313" lon="16.634396">
        <ele>229.771150</ele>
        <time>2020-07-01T03:58:15.975Z</time>
      </trkpt>
      <trkpt lat="48.578234" lon="16.634285">
        <ele>229.759280</ele>
        <time>2020-07-01T03:58:17.989Z</time>
      </trkpt>
      <trkpt lat="48.578163" lon="16.634170">
        <ele>229.747828</ele>
        <time>2020-07-01T03:58:19.984Z</time>
      </trkpt>
      <trkpt lat="48.578099" lon="16.634038">
        <ele>229.735913</ele>
        <time>2020-07-01T03:58:21.964Z</time>
      </trkpt>
      <trkpt lat="48.578028" lon="16.633908">
        <ele>229.723640</ele>
        <time>2020-07-01T03:58:23.996Z</time>
      </trkpt>
      <trkpt lat="48.577951" lon="16.633791">
        <ele>229.711625</ele>
        <time>2020-07-01T03:58:25.967Z</time>
      </trkpt>
      <trkpt lat="48.577871" lon="16.633670">
        <ele>229.699170</ele>
        <time>2020-07-01T03:58:27.981Z</time>
      </trkpt>
      <trkpt lat="48.577789" lon="16.633551">
        <ele>229.686661</ele>
        <time>2020-07-01T03:58:30.030Z</time>
      </trkpt>
      <trkpt lat="48.577709" lon="16.633437">
        <ele>229.674561</ele>
        <time>2020-07-01T03:58:32.005Z</time>
      </trkpt>
      <trkpt lat="48.577631" lon="16.633322">
        <ele>229.662570</ele>
        <time>2020-07-01T03:58:34.009Z</time>
      </trkpt>
      <trkpt lat="48.577555" lon="16.633194">
        <ele>229.650048</ele>
        <time>2020-07-01T03:58:35.989Z</time>
      </trkpt>
      <trkpt lat="48.577479" lon="16.633070">
        <ele>229.637742</ele>
        <time>2020-07-01T03:58:37.996Z</time>
      </trkpt>
      <trkpt lat="48.577401" lon="16.632950">
        <ele>229.625494</ele>
        <time>2020-07-01T03:58:39.978Z</time>
      </trkpt>
      <trkpt lat="48.577320" lon="16.632835">
        <ele>229.613264</ele>
        <time>2020-07-01T03:58:42.003Z</time>
      </trkpt>
      <trkpt lat="48.577239" lon="16.632721">
        <ele>229.616958</ele>
        <time>2020-07-01T03:58:43.978Z</time>
      </trkpt>
      <trkpt lat="48.577162" lon="16.632604">
        <ele>229.627355</ele>
        <time>2020-07-01T03:58:45.979Z</time>
      </trkpt>
      <trkpt lat="48.577084" lon="16.632492">
        <ele>229.637601</ele>
        <time>2020-07-01T03:58:48.005Z</time>
      </trkpt>
      <trkpt lat="48.577007" lon="16.632381">
        <ele>229.647734</ele>
        <time>2020-07-01T03:58:49.979Z</time>
      </trkpt>
      <trkpt lat="48.576933" lon="16.632263">
        <ele>229.657978</ele>
        <time>2020-07-01T03:58:51.981Z</time>
      </trkpt>
      <trkpt lat="48.576861" lon="16.632144">
        <ele>229.668138</ele>
        <time>2020-07-01T03:58:53.998Z</time>
      </trkpt>
      <trkpt lat="48.576789" lon="16.632019">
        <ele>229.678581</ele>
        <time>2020-07-01T03:58:55.978Z</time>
      </trkpt>
      <trkpt lat="48.576722" lon="16.631894">
        <ele>229.688717</ele>
        <time>2020-07-01T03:58:57.960Z</time>
      </trkpt>
      <trkpt lat="48.576663" lon="16.631769">
        <ele>229.698391</ele>
        <time>2020-07-01T03:58:59.979Z</time>
      </trkpt>
      <trkpt lat="48.576603" lon="16.631666">
        <ele>229.707038</ele>
        <time>2020-07-01T03:59:01.976Z</time>
      </trkpt>
      <trkpt lat="48.576484" lon="16.631707">
        <ele>229.718661</ele>
        <time>2020-07-01T03:59:04.965Z</time>
      </trkpt>
      <trkpt lat="48.576412" lon="16.631804">
        <ele>229.727846</ele>
        <time>2020-07-01T03:59:06.979Z</time>
      </trkpt>
      <trkpt lat="48.576333" lon="16.631909">
        <ele>229.737864</ele>
        <time>2020-07-01T03:59:08.980Z</time>
      </trkpt>
      <trkpt lat="48.576254" lon="16.632006">
        <ele>229.747557</ele>
        <time>2020-07-01T03:59:10.980Z</time>
      </trkpt>
      <trkpt lat="48.576168" lon="16.632104">
        <ele>229.757814</ele>
        <time>2020-07-01T03:59:12.998Z</time>
      </trkpt>
      <trkpt lat="48.576089" lon="16.632202">
        <ele>229.767547</ele>
        <time>2020-07-01T03:59:14.975Z</time>
      </trkpt>
      <trkpt lat="48.576005" lon="16.632310">
        <ele>229.778049</ele>
        <time>2020-07-01T03:59:16.996Z</time>
      </trkpt>
      <trkpt lat="48.575920" lon="16.632417">
        <ele>229.800399</ele>
        <time>2020-07-01T03:59:18.980Z</time>
      </trkpt>
      <trkpt lat="48.575838" lon="16.632520">
        <ele>229.826127</ele>
        <time>2020-07-01T03:59:20.996Z</time>
      </trkpt>
      <trkpt lat="48.575757" lon="16.632623">
        <ele>229.851671</ele>
        <time>2020-07-01T03:59:23.008Z</time>
      </trkpt>
      <trkpt lat="48.575675" lon="16.632726">
        <ele>229.877399</ele>
        <time>2020-07-01T03:59:24.995Z</time>
      </trkpt>
      <trkpt lat="48.575591" lon="16.632824">
        <ele>229.903005</ele>
        <time>2020-07-01T03:59:27.006Z</time>
      </trkpt>
      <trkpt lat="48.575511" lon="16.632928">
        <ele>229.928468</ele>
        <time>2020-07-01T03:59:28.997Z</time>
      </trkpt>
      <trkpt lat="48.575437" lon="16.633024">
        <ele>229.952001</ele>
        <time>2020-07-01T03:59:31.002Z</time>
      </trkpt>
      <trkpt lat="48.575364" lon="16.633119">
        <ele>229.975246</ele>
        <time>2020-07-01T03:59:32.994Z</time>
      </trkpt>
      <trkpt lat="48.575290" lon="16.633207">
        <ele>229.997968</ele>
        <time>2020-07-01T03:59:34.998Z</time>
      </trkpt>
      <trkpt lat="48.575166" lon="16.633227">
        <ele>230.028060</ele>
        <time>2020-07-01T03:59:37.996Z</time>
      </trkpt>
      <trkpt lat="48.575111" lon="16.633101">
        <ele>230.052160</ele>
        <time>2020-07-01T03:59:39.982Z</time>
      </trkpt>
      <trkpt lat="48.575063" lon="16.632970">
        <ele>230.076068</ele>
        <time>2020-07-01T03:59:41.972Z</time>
      </trkpt>
      <trkpt lat="48.575015" lon="16.632835">
        <ele>230.100537</ele>
        <time>2020-07-01T03:59:44.010Z</time>
      </trkpt>
      <trkpt lat="48.574968" lon="16.632696">
        <ele>230.125460</ele>
        <time>2020-07-01T03:59:46.033Z</time>
      </trkpt>
      <trkpt lat="48.574921" lon="16.632557">
        <ele>230.150383</ele>
        <time>2020-07-01T03:59:48.051Z</time>
      </trkpt>
      <trkpt lat="48.574883" lon="16.632416">
        <ele>230.174690</ele>
        <time>2020-07-01T03:59:49.978Z</time>
      </trkpt>
      <trkpt lat="48.574845" lon="16.632275">
        <ele>230.198998</ele>
        <time>2020-07-01T03:59:51.978Z</time>
      </trkpt>
      <trkpt lat="48.574816" lon="16.632130">
        <ele>230.219383</ele>
        <time>2020-07-01T03:59:53.989Z</time>
      </trkpt>
      <trkpt lat="48.574866" lon="16.632006">
        <ele>230.231923</ele>
        <time>2020-07-01T03:59:55.985Z</time>
      </trkpt>
      <trkpt lat="48.574955" lon="16.631923">
        <ele>230.245573</ele>
        <time>2020-07-01T03:59:57.969Z</time>
      </trkpt>
      <trkpt lat="48.575040" lon="16.631847">
        <ele>230.258463</ele>
        <time>2020-07-01T03:59:59.996Z</time>
      </trkpt>
      <trkpt lat="48.575082" lon="16.631727">
        <ele>230.270186</ele>
        <time>2020-07-01T04:00:01.978Z</time>
      </trkpt>
      <trkpt lat="48.575038" lon="16.631596">
        <ele>230.282873</ele>
        <time>2020-07-01T04:00:03.983Z</time>
      </trkpt>
      <trkpt lat="48.574990" lon="16.631472">
        <ele>230.295279</ele>
        <time>2020-07-01T04:00:05.966Z</time>
      </trkpt>
      <trkpt lat="48.574940" lon="16.631329">
        <ele>230.309246</ele>
        <time>2020-07-01T04:00:08.022Z</time>
      </trkpt>
      <trkpt lat="48.574887" lon="16.631187">
        <ele>230.323326</ele>
        <time>2020-07-01T04:00:09.997Z</time>
      </trkpt>
      <trkpt lat="48.574834" lon="16.631046">
        <ele>230.337330</ele>
        <time>2020-07-01T04:00:11.990Z</time>
      </trkpt>
      <trkpt lat="48.574789" lon="16.630907">
        <ele>230.350693</ele>
        <time>2020-07-01T04:00:13.989Z</time>
      </trkpt>
      <trkpt lat="48.574744" lon="16.630768">
        <ele>230.364056</ele>
        <time>2020-07-01T04:00:16.001Z</time>
      </trkpt>
      <trkpt lat="48.574700" lon="16.630635">
        <ele>230.376898</ele>
        <time>2020-07-01T04:00:17.974Z</time>
      </trkpt>
      <trkpt lat="48.574669" lon="16.630488">
        <ele>230.390221</ele>
        <time>2020-07-01T04:00:19.974Z</time>
      </trkpt>
      <trkpt lat="48.574649" lon="16.630334">
        <ele>230.403774</ele>
        <time>2020-07-01T04:00:21.966Z</time>
      </trkpt>
      <trkpt lat="48.574634" lon="16.630178">
        <ele>230.417387</ele>
        <time>2020-07-01T04:00:23.993Z</time>
      </trkpt>
      <trkpt lat="48.574615" lon="16.630016">
        <ele>230.431595</ele>
        <time>2020-07-01T04:00:25.994Z</time>
      </trkpt>
      <trkpt lat="48.574598" lon="16.629858">
        <ele>230.445419</ele>
        <time>2020-07-01T04:00:27.982Z</time>
      </trkpt>
      <trkpt lat="48.574585" lon="16.629694">
        <ele>230.454671</ele>
        <time>2020-07-01T04:00:29.972Z</time>
      </trkpt>
      <trkpt lat="48.574572" lon="16.629528">
        <ele>230.461886</ele>
        <time>2020-07-01T04:00:31.974Z</time>
      </trkpt>
      <trkpt lat="48.574558" lon="16.629363">
        <ele>230.469065</ele>
        <time>2020-07-01T04:00:33.999Z</time>
      </trkpt>
      <trkpt lat="48.574544" lon="16.629196">
        <ele>230.476331</ele>
        <time>2020-07-01T04:00:35.982Z</time>
      </trkpt>
      <trkpt lat="48.574524" lon="16.629033">
        <ele>230.483486</ele>
        <time>2020-07-01T04:00:38.000Z</time>
      </trkpt>
      <trkpt lat="48.574503" lon="16.628874">
        <ele>230.490484</ele>
        <time>2020-07-01T04:00:39.989Z</time>
      </trkpt>
      <trkpt lat="48.574483" lon="16.628716">
        <ele>230.497428</ele>
        <time>2020-07-01T04:00:41.990Z</time>
      </trkpt>
      <trkpt lat="48.574465" lon="16.628555">
        <ele>230.504475</ele>
        <time>2020-07-01T04:00:43.970Z</time>
      </trkpt>
      <trkpt lat="48.574451" lon="16.628397">
        <ele>230.511355</ele>
        <time>2020-07-01T04:00:45.984Z</time>
      </trkpt>
      <trkpt lat="48.574439" lon="16.628234">
        <ele>230.518434</ele>
        <time>2020-07-01T04:00:47.980Z</time>
      </trkpt>
      <trkpt lat="48.574422" lon="16.628071">
        <ele>230.525556</ele>
        <time>2020-07-01T04:00:49.999Z</time>
      </trkpt>
      <trkpt lat="48.574405" lon="16.627913">
        <ele>230.532465</ele>
        <time>2020-07-01T04:00:52.003Z</time>
      </trkpt>
      <trkpt lat="48.574385" lon="16.627761">
        <ele>230.539154</ele>
        <time>2020-07-01T04:00:53.997Z</time>
      </trkpt>
      <trkpt lat="48.574351" lon="16.627621">
        <ele>230.545591</ele>
        <time>2020-07-01T04:00:55.996Z</time>
      </trkpt>
      <trkpt lat="48.574316" lon="16.627495">
        <ele>230.551489</ele>
        <time>2020-07-01T04:00:57.974Z</time>
      </trkpt>
      <trkpt lat="48.574256" lon="16.627324">
        <ele>230.559844</ele>
        <time>2020-07-01T04:01:01.001Z</time>
      </trkpt>
      <trkpt lat="48.574154" lon="16.627309">
        <ele>230.566529</ele>
        <time>2020-07-01T04:01:02.972Z</time>
      </trkpt>
      <trkpt lat="48.574048" lon="16.627362">
        <ele>230.589615</ele>
        <time>2020-07-01T04:01:04.981Z</time>
      </trkpt>
      <trkpt lat="48.573936" lon="16.627388">
        <ele>230.614141</ele>
        <time>2020-07-01T04:01:06.968Z</time>
      </trkpt>
      <trkpt lat="48.573829" lon="16.627337">
        <ele>230.638424</ele>
        <time>2020-07-01T04:01:08.965Z</time>
      </trkpt>
      <trkpt lat="48.573736" lon="16.627246">
        <ele>230.662403</ele>
        <time>2020-07-01T04:01:10.981Z</time>
      </trkpt>
      <trkpt lat="48.573647" lon="16.627151">
        <ele>230.685986</ele>
        <time>2020-07-01T04:01:12.980Z</time>
      </trkpt>
      <trkpt lat="48.573567" lon="16.627039">
        <ele>230.709588</ele>
        <time>2020-07-01T04:01:14.961Z</time>
      </trkpt>
      <trkpt lat="48.573488" lon="16.626936">
        <ele>230.732170</ele>
        <time>2020-07-01T04:01:16.976Z</time>
      </trkpt>
      <trkpt lat="48.573421" lon="16.626819">
        <ele>230.754330</ele>
        <time>2020-07-01T04:01:18.976Z</time>
      </trkpt>
      <trkpt lat="48.573388" lon="16.626692">
        <ele>230.773869</ele>
        <time>2020-07-01T04:01:20.967Z</time>
      </trkpt>
      <trkpt lat="48.573410" lon="16.626550">
        <ele>230.794755</ele>
        <time>2020-07-01T04:01:22.971Z</time>
      </trkpt>
      <trkpt lat="48.573375" lon="16.626411">
        <ele>230.816054</ele>
        <time>2020-07-01T04:01:24.969Z</time>
      </trkpt>
      <trkpt lat="48.573340" lon="16.626250">
        <ele>230.840323</ele>
        <time>2020-07-01T04:01:26.988Z</time>
      </trkpt>
      <trkpt lat="48.573314" lon="16.626097">
        <ele>230.862945</ele>
        <time>2020-07-01T04:01:28.980Z</time>
      </trkpt>
      <trkpt lat="48.573294" lon="16.625943">
        <ele>230.885420</ele>
        <time>2020-07-01T04:01:30.969Z</time>
      </trkpt>
      <trkpt lat="48.573275" lon="16.625789">
        <ele>230.907855</ele>
        <time>2020-07-01T04:01:32.992Z</time>
      </trkpt>
      <trkpt lat="48.573257" lon="16.625629">
        <ele>230.931097</ele>
        <time>2020-07-01T04:01:34.971Z</time>
      </trkpt>
      <trkpt lat="48.573144" lon="16.625552">
        <ele>230.958602</ele>
        <time>2020-07-01T04:01:37.957Z</time>
      </trkpt>
      <trkpt lat="48.573043" lon="16.625551">
        <ele>230.989504</ele>
        <time>2020-07-01T04:01:39.964Z</time>
      </trkpt>
      <trkpt lat="48.573003" lon="16.625415">
        <ele>231.019634</ele>
        <time>2020-07-01T04:01:41.972Z</time>
      </trkpt>
      <trkpt lat="48.572988" lon="16.625263">
        <ele>231.050746</ele>
        <time>2020-07-01T04:01:43.983Z</time>
      </trkpt>
      <trkpt lat="48.572971" lon="16.625114">
        <ele>231.081355</ele>
        <time>2020-07-01T04:01:45.995Z</time>
      </trkpt>
      <trkpt lat="48.572955" lon="16.624966">
        <ele>231.111714</ele>
        <time>2020-07-01T04:01:48.000Z</time>
      </trkpt>
      <trkpt lat="48.572938" lon="16.624811">
        <ele>231.143520</ele>
        <time>2020-07-01T04:01:49.995Z</time>
      </trkpt>
      <trkpt lat="48.572918" lon="16.624653">
        <ele>231.176087</ele>
        <time>2020-07-01T04:01:52.000Z</time>
      </trkpt>
      <trkpt lat="48.572891" lon="16.624496">
        <ele>231.208926</ele>
        <time>2020-07-01T04:01:53.990Z</time>
      </trkpt>
      <trkpt lat="48.572863" lon="16.624330">
        <ele>231.243606</ele>
        <time>2020-07-01T04:01:55.992Z</time>
      </trkpt>
      <trkpt lat="48.572836" lon="16.624163">
        <ele>231.278409</ele>
        <time>2020-07-01T04:01:57.962Z</time>
      </trkpt>
      <trkpt lat="48.572811" lon="16.623997">
        <ele>231.312874</ele>
        <time>2020-07-01T04:02:00.003Z</time>
      </trkpt>
      <trkpt lat="48.572785" lon="16.623833">
        <ele>231.347015</ele>
        <time>2020-07-01T04:02:02.000Z</time>
      </trkpt>
      <trkpt lat="48.572758" lon="16.623664">
        <ele>231.382211</ele>
        <time>2020-07-01T04:02:04.008Z</time>
      </trkpt>
      <trkpt lat="48.572731" lon="16.623503">
        <ele>231.415835</ele>
        <time>2020-07-01T04:02:06.008Z</time>
      </trkpt>
      <trkpt lat="48.572700" lon="16.623350">
        <ele>231.448229</ele>
        <time>2020-07-01T04:02:08.018Z</time>
      </trkpt>
      <trkpt lat="48.572670" lon="16.623196">
        <ele>231.480728</ele>
        <time>2020-07-01T04:02:10.013Z</time>
      </trkpt>
      <trkpt lat="48.572641" lon="16.623043">
        <ele>231.516212</ele>
        <time>2020-07-01T04:02:12.001Z</time>
      </trkpt>
      <trkpt lat="48.572615" lon="16.622896">
        <ele>231.562862</ele>
        <time>2020-07-01T04:02:13.975Z</time>
      </trkpt>
      <trkpt lat="48.572594" lon="16.622763">
        <ele>231.604783</ele>
        <time>2020-07-01T04:02:15.972Z</time>
      </trkpt>
      <trkpt lat="48.572563" lon="16.622575">
        <ele>231.664183</ele>
        <time>2020-07-01T04:02:19.029Z</time>
      </trkpt>
      <trkpt lat="48.572533" lon="16.622400">
        <ele>231.719607</ele>
        <time>2020-07-01T04:02:21.986Z</time>
      </trkpt>
      <trkpt lat="48.572418" lon="16.622376">
        <ele>231.773398</ele>
        <time>2020-07-01T04:02:25.980Z</time>
      </trkpt>
      <trkpt lat="48.572311" lon="16.622419">
        <ele>231.824699</ele>
        <time>2020-07-01T04:02:28.970Z</time>
      </trkpt>
      <trkpt lat="48.572172" lon="16.622473">
        <ele>231.891198</ele>
        <time>2020-07-01T04:02:31.994Z</time>
      </trkpt>
      <trkpt lat="48.572060" lon="16.622444">
        <ele>231.943850</ele>
        <time>2020-07-01T04:02:33.962Z</time>
      </trkpt>
      <trkpt lat="48.571990" lon="16.622281">
        <ele>232.003426</ele>
        <time>2020-07-01T04:02:35.973Z</time>
      </trkpt>
      <trkpt lat="48.571957" lon="16.622103">
        <ele>232.060101</ele>
        <time>2020-07-01T04:02:37.973Z</time>
      </trkpt>
      <trkpt lat="48.571922" lon="16.621934">
        <ele>232.114393</ele>
        <time>2020-07-01T04:02:39.965Z</time>
      </trkpt>
      <trkpt lat="48.571876" lon="16.621774">
        <ele>232.167878</ele>
        <time>2020-07-01T04:02:41.978Z</time>
      </trkpt>
      <trkpt lat="48.571829" lon="16.621612">
        <ele>232.222110</ele>
        <time>2020-07-01T04:02:43.975Z</time>
      </trkpt>
      <trkpt lat="48.571782" lon="16.621458">
        <ele>232.274105</ele>
        <time>2020-07-01T04:02:46.001Z</time>
      </trkpt>
      <trkpt lat="48.571737" lon="16.621306">
        <ele>232.325158</ele>
        <time>2020-07-01T04:02:47.973Z</time>
      </trkpt>
      <trkpt lat="48.571712" lon="16.621143">
        <ele>232.353047</ele>
        <time>2020-07-01T04:02:49.977Z</time>
      </trkpt>
      <trkpt lat="48.571687" lon="16.620980">
        <ele>232.371402</ele>
        <time>2020-07-01T04:02:51.983Z</time>
      </trkpt>
      <trkpt lat="48.571659" lon="16.620824">
        <ele>232.389133</ele>
        <time>2020-07-01T04:02:53.992Z</time>
      </trkpt>
      <trkpt lat="48.571626" lon="16.620666">
        <ele>232.407309</ele>
        <time>2020-07-01T04:02:55.984Z</time>
      </trkpt>
      <trkpt lat="48.571582" lon="16.620515">
        <ele>232.425409</ele>
        <time>2020-07-01T04:02:57.989Z</time>
      </trkpt>
      <trkpt lat="48.571535" lon="16.620367">
        <ele>232.443417</ele>
        <time>2020-07-01T04:02:59.962Z</time>
      </trkpt>
      <trkpt lat="48.571482" lon="16.620221">
        <ele>232.461685</ele>
        <time>2020-07-01T04:03:01.968Z</time>
      </trkpt>
      <trkpt lat="48.571430" lon="16.620078">
        <ele>232.479585</ele>
        <time>2020-07-01T04:03:03.982Z</time>
      </trkpt>
      <trkpt lat="48.571381" lon="16.619934">
        <ele>232.497349</ele>
        <time>2020-07-01T04:03:05.987Z</time>
      </trkpt>
      <trkpt lat="48.571333" lon="16.619784">
        <ele>232.515627</ele>
        <time>2020-07-01T04:03:08.008Z</time>
      </trkpt>
      <trkpt lat="48.571287" lon="16.619632">
        <ele>232.533963</ele>
        <time>2020-07-01T04:03:10.008Z</time>
      </trkpt>
      <trkpt lat="48.571244" lon="16.619479">
        <ele>232.552198</ele>
        <time>2020-07-01T04:03:12.020Z</time>
      </trkpt>
      <trkpt lat="48.571204" lon="16.619328">
        <ele>232.570041</ele>
        <time>2020-07-01T04:03:14.013Z</time>
      </trkpt>
      <trkpt lat="48.571160" lon="16.619177">
        <ele>232.588141</ele>
        <time>2020-07-01T04:03:15.967Z</time>
      </trkpt>
      <trkpt lat="48.571119" lon="16.619025">
        <ele>232.606148</ele>
        <time>2020-07-01T04:03:17.982Z</time>
      </trkpt>
      <trkpt lat="48.571089" lon="16.618865">
        <ele>232.624391</ele>
        <time>2020-07-01T04:03:19.981Z</time>
      </trkpt>
      <trkpt lat="48.571077" lon="16.618706">
        <ele>232.643068</ele>
        <time>2020-07-01T04:03:21.965Z</time>
      </trkpt>
      <trkpt lat="48.571077" lon="16.618541">
        <ele>232.666582</ele>
        <time>2020-07-01T04:03:23.987Z</time>
      </trkpt>
      <trkpt lat="48.571081" lon="16.618380">
        <ele>232.689543</ele>
        <time>2020-07-01T04:03:25.993Z</time>
      </trkpt>
      <trkpt lat="48.571077" lon="16.618220">
        <ele>232.712361</ele>
        <time>2020-07-01T04:03:28.010Z</time>
      </trkpt>
      <trkpt lat="48.571079" lon="16.618052">
        <ele>232.736307</ele>
        <time>2020-07-01T04:03:29.993Z</time>
      </trkpt>
      <trkpt lat="48.571088" lon="16.617886">
        <ele>232.760043</ele>
        <time>2020-07-01T04:03:31.973Z</time>
      </trkpt>
      <trkpt lat="48.571098" lon="16.617724">
        <ele>232.783231</ele>
        <time>2020-07-01T04:03:33.989Z</time>
      </trkpt>
      <trkpt lat="48.571108" lon="16.617563">
        <ele>232.806276</ele>
        <time>2020-07-01T04:03:35.970Z</time>
      </trkpt>
      <trkpt lat="48.571128" lon="16.617403">
        <ele>232.829481</ele>
        <time>2020-07-01T04:03:37.969Z</time>
      </trkpt>
      <trkpt lat="48.571150" lon="16.617238">
        <ele>232.853468</ele>
        <time>2020-07-01T04:03:39.963Z</time>
      </trkpt>
      <trkpt lat="48.571164" lon="16.617079">
        <ele>232.876327</ele>
        <time>2020-07-01T04:03:41.967Z</time>
      </trkpt>
      <trkpt lat="48.571154" lon="16.616935">
        <ele>232.896962</ele>
        <time>2020-07-01T04:03:43.979Z</time>
      </trkpt>
      <trkpt lat="48.571144" lon="16.616799">
        <ele>232.916463</ele>
        <time>2020-07-01T04:03:46.022Z</time>
      </trkpt>
      <trkpt lat="48.571130" lon="16.616652">
        <ele>232.937628</ele>
        <time>2020-07-01T04:03:48.013Z</time>
      </trkpt>
      <trkpt lat="48.571106" lon="16.616503">
        <ele>232.959482</ele>
        <time>2020-07-01T04:03:49.997Z</time>
      </trkpt>
      <trkpt lat="48.571074" lon="16.616360">
        <ele>232.980996</ele>
        <time>2020-07-01T04:03:51.970Z</time>
      </trkpt>
      <trkpt lat="48.571017" lon="16.616246">
        <ele>233.001359</ele>
        <time>2020-07-01T04:03:53.963Z</time>
      </trkpt>
      <trkpt lat="48.570921" lon="16.616228">
        <ele>233.022193</ele>
        <time>2020-07-01T04:03:55.981Z</time>
      </trkpt>
      <trkpt lat="48.570906" lon="16.616079">
        <ele>233.038046</ele>
        <time>2020-07-01T04:03:59.971Z</time>
      </trkpt>
      <trkpt lat="48.570994" lon="16.615950">
        <ele>233.056237</ele>
        <time>2020-07-01T04:04:03.005Z</time>
      </trkpt>
      <trkpt lat="48.570981" lon="16.615765">
        <ele>233.074504</ele>
        <time>2020-07-01T04:04:05.979Z</time>
      </trkpt>
      <trkpt lat="48.570948" lon="16.615620">
        <ele>233.089559</ele>
        <time>2020-07-01T04:04:07.966Z</time>
      </trkpt>
      <trkpt lat="48.570920" lon="16.615470">
        <ele>233.104862</ele>
        <time>2020-07-01T04:04:10.004Z</time>
      </trkpt>
      <trkpt lat="48.570893" lon="16.615315">
        <ele>233.120599</ele>
        <time>2020-07-01T04:04:11.980Z</time>
      </trkpt>
      <trkpt lat="48.570862" lon="16.615160">
        <ele>233.136498</ele>
        <time>2020-07-01T04:04:13.965Z</time>
      </trkpt>
      <trkpt lat="48.570826" lon="16.615014">
        <ele>233.151796</ele>
        <time>2020-07-01T04:04:16.000Z</time>
      </trkpt>
      <trkpt lat="48.570796" lon="16.614858">
        <ele>233.167747</ele>
        <time>2020-07-01T04:04:17.988Z</time>
      </trkpt>
      <trkpt lat="48.570766" lon="16.614706">
        <ele>233.183321</ele>
        <time>2020-07-01T04:04:19.976Z</time>
      </trkpt>
      <trkpt lat="48.570736" lon="16.614556">
        <ele>233.198707</ele>
        <time>2020-07-01T04:04:21.981Z</time>
      </trkpt>
      <trkpt lat="48.570703" lon="16.614403">
        <ele>233.214507</ele>
        <time>2020-07-01T04:04:23.959Z</time>
      </trkpt>
      <trkpt lat="48.570662" lon="16.614255">
        <ele>233.230261</ele>
        <time>2020-07-01T04:04:25.978Z</time>
      </trkpt>
      <trkpt lat="48.570612" lon="16.614108">
        <ele>233.246489</ele>
        <time>2020-07-01T04:04:27.966Z</time>
      </trkpt>
      <trkpt lat="48.570563" lon="16.613958">
        <ele>233.262914</ele>
        <time>2020-07-01T04:04:29.987Z</time>
      </trkpt>
      <trkpt lat="48.570517" lon="16.613806">
        <ele>233.279325</ele>
        <time>2020-07-01T04:04:31.965Z</time>
      </trkpt>
      <trkpt lat="48.570463" lon="16.613665">
        <ele>233.294639</ele>
        <time>2020-07-01T04:04:33.996Z</time>
      </trkpt>
      <trkpt lat="48.570408" lon="16.613531">
        <ele>233.306409</ele>
        <time>2020-07-01T04:04:35.974Z</time>
      </trkpt>
      <trkpt lat="48.570357" lon="16.613393">
        <ele>233.318207</ele>
        <time>2020-07-01T04:04:38.003Z</time>
      </trkpt>
      <trkpt lat="48.570302" lon="16.613258">
        <ele>233.330040</ele>
        <time>2020-07-01T04:04:39.952Z</time>
      </trkpt>
      <trkpt lat="48.570253" lon="16.613117">
        <ele>233.341927</ele>
        <time>2020-07-01T04:04:42.003Z</time>
      </trkpt>
      <trkpt lat="48.570200" lon="16.612977">
        <ele>233.353966</ele>
        <time>2020-07-01T04:04:43.978Z</time>
      </trkpt>
      <trkpt lat="48.570145" lon="16.612839">
        <ele>233.365991</ele>
        <time>2020-07-01T04:04:45.980Z</time>
      </trkpt>
      <trkpt lat="48.570085" lon="16.612711">
        <ele>233.377699</ele>
        <time>2020-07-01T04:04:48.004Z</time>
      </trkpt>
      <trkpt lat="48.570023" lon="16.612582">
        <ele>233.389600</ele>
        <time>2020-07-01T04:04:49.996Z</time>
      </trkpt>
      <trkpt lat="48.569956" lon="16.612459">
        <ele>233.401491</ele>
        <time>2020-07-01T04:04:51.991Z</time>
      </trkpt>
      <trkpt lat="48.569889" lon="16.612337">
        <ele>233.413325</ele>
        <time>2020-07-01T04:04:53.984Z</time>
      </trkpt>
      <trkpt lat="48.569821" lon="16.612216">
        <ele>233.425174</ele>
        <time>2020-07-01T04:04:56.006Z</time>
      </trkpt>
      <trkpt lat="48.569753" lon="16.612093">
        <ele>233.437138</ele>
        <time>2020-07-01T04:04:57.991Z</time>
      </trkpt>
      <trkpt lat="48.569685" lon="16.611968">
        <ele>233.449216</ele>
        <time>2020-07-01T04:04:59.981Z</time>
      </trkpt>
      <trkpt lat="48.569620" lon="16.611849">
        <ele>233.460734</ele>
        <time>2020-07-01T04:05:01.994Z</time>
      </trkpt>
      <trkpt lat="48.569553" lon="16.611731">
        <ele>233.472339</ele>
        <time>2020-07-01T04:05:03.968Z</time>
      </trkpt>
      <trkpt lat="48.569480" lon="16.611621">
        <ele>233.483968</ele>
        <time>2020-07-01T04:05:05.966Z</time>
      </trkpt>
      <trkpt lat="48.569400" lon="16.611513">
        <ele>233.496848</ele>
        <time>2020-07-01T04:05:08.008Z</time>
      </trkpt>
      <trkpt lat="48.569317" lon="16.611405">
        <ele>233.522899</ele>
        <time>2020-07-01T04:05:09.981Z</time>
      </trkpt>
      <trkpt lat="48.569237" lon="16.611301">
        <ele>233.547998</ele>
        <time>2020-07-01T04:05:11.987Z</time>
      </trkpt>
      <trkpt lat="48.569158" lon="16.611193">
        <ele>233.573335</ele>
        <time>2020-07-01T04:05:14.011Z</time>
      </trkpt>
      <trkpt lat="48.569080" lon="16.611080">
        <ele>233.599035</ele>
        <time>2020-07-01T04:05:15.982Z</time>
      </trkpt>
      <trkpt lat="48.569004" lon="16.610971">
        <ele>233.623956</ele>
        <time>2020-07-01T04:05:17.995Z</time>
      </trkpt>
      <trkpt lat="48.568928" lon="16.610864">
        <ele>233.648661</ele>
        <time>2020-07-01T04:05:19.995Z</time>
      </trkpt>
      <trkpt lat="48.568853" lon="16.610759">
        <ele>233.672978</ele>
        <time>2020-07-01T04:05:21.971Z</time>
      </trkpt>
      <trkpt lat="48.568772" lon="16.610656">
        <ele>233.698156</ele>
        <time>2020-07-01T04:05:23.975Z</time>
      </trkpt>
      <trkpt lat="48.568688" lon="16.610557">
        <ele>233.723493</ele>
        <time>2020-07-01T04:05:25.974Z</time>
      </trkpt>
      <trkpt lat="48.568604" lon="16.610458">
        <ele>233.748829</ele>
        <time>2020-07-01T04:05:27.962Z</time>
      </trkpt>
      <trkpt lat="48.568521" lon="16.610359">
        <ele>233.773978</ele>
        <time>2020-07-01T04:05:29.983Z</time>
      </trkpt>
      <trkpt lat="48.568437" lon="16.610256">
        <ele>233.799707</ele>
        <time>2020-07-01T04:05:31.985Z</time>
      </trkpt>
      <trkpt lat="48.568358" lon="16.610151">
        <ele>233.824730</ele>
        <time>2020-07-01T04:05:34.024Z</time>
      </trkpt>
      <trkpt lat="48.568282" lon="16.610045">
        <ele>233.849328</ele>
        <time>2020-07-01T04:05:35.975Z</time>
      </trkpt>
      <trkpt lat="48.568206" lon="16.609943">
        <ele>233.873504</ele>
        <time>2020-07-01T04:05:37.988Z</time>
      </trkpt>
      <trkpt lat="48.568127" lon="16.609848">
        <ele>233.897517</ele>
        <time>2020-07-01T04:05:39.990Z</time>
      </trkpt>
      <trkpt lat="48.568048" lon="16.609751">
        <ele>233.921727</ele>
        <time>2020-07-01T04:05:41.976Z</time>
      </trkpt>
      <trkpt lat="48.567965" lon="16.609651">
        <ele>233.937467</ele>
        <time>2020-07-01T04:05:43.999Z</time>
      </trkpt>
      <trkpt lat="48.567879" lon="16.609550">
        <ele>233.953028</ele>
        <time>2020-07-01T04:05:45.979Z</time>
      </trkpt>
      <trkpt lat="48.567796" lon="16.609447">
        <ele>233.968372</ele>
        <time>2020-07-01T04:05:47.988Z</time>
      </trkpt>
      <trkpt lat="48.567710" lon="16.609347">
        <ele>233.983876</ele>
        <time>2020-07-01T04:05:49.977Z</time>
      </trkpt>
      <trkpt lat="48.567626" lon="16.609236">
        <ele>233.999819</ele>
        <time>2020-07-01T04:05:51.973Z</time>
      </trkpt>
      <trkpt lat="48.567546" lon="16.609126">
        <ele>234.015272</ele>
        <time>2020-07-01T04:05:53.985Z</time>
      </trkpt>
      <trkpt lat="48.567466" lon="16.609016">
        <ele>234.030725</ele>
        <time>2020-07-01T04:05:55.969Z</time>
      </trkpt>
      <trkpt lat="48.567384" lon="16.608912">
        <ele>234.046020</ele>
        <time>2020-07-01T04:05:57.964Z</time>
      </trkpt>
      <trkpt lat="48.567302" lon="16.608821">
        <ele>234.060555</ele>
        <time>2020-07-01T04:05:59.975Z</time>
      </trkpt>
      <trkpt lat="48.567221" lon="16.608723">
        <ele>234.075380</ele>
        <time>2020-07-01T04:06:01.988Z</time>
      </trkpt>
      <trkpt lat="48.567136" lon="16.608624">
        <ele>234.090713</ele>
        <time>2020-07-01T04:06:04.003Z</time>
      </trkpt>
      <trkpt lat="48.567066" lon="16.608492">
        <ele>234.106706</ele>
        <time>2020-07-01T04:06:05.959Z</time>
      </trkpt>
      <trkpt lat="48.567067" lon="16.608337">
        <ele>234.121361</ele>
        <time>2020-07-01T04:06:08.967Z</time>
      </trkpt>
      <trkpt lat="48.567141" lon="16.608226">
        <ele>234.136258</ele>
        <time>2020-07-01T04:06:11.963Z</time>
      </trkpt>
      <trkpt lat="48.567165" lon="16.608076">
        <ele>234.150848</ele>
        <time>2020-07-01T04:06:15.976Z</time>
      </trkpt>
      <trkpt lat="48.567067" lon="16.608017">
        <ele>234.165920</ele>
        <time>2020-07-01T04:06:17.972Z</time>
      </trkpt>
      <trkpt lat="48.566954" lon="16.607886">
        <ele>234.214230</ele>
        <time>2020-07-01T04:06:19.971Z</time>
      </trkpt>
      <trkpt lat="48.566854" lon="16.607746">
        <ele>234.322589</ele>
        <time>2020-07-01T04:06:21.958Z</time>
      </trkpt>
      <trkpt lat="48.566763" lon="16.607620">
        <ele>234.420696</ele>
        <time>2020-07-01T04:06:23.988Z</time>
      </trkpt>
      <trkpt lat="48.566677" lon="16.607500">
        <ele>234.513742</ele>
        <time>2020-07-01T04:06:25.969Z</time>
      </trkpt>
      <trkpt lat="48.566593" lon="16.607382">
        <ele>234.604907</ele>
        <time>2020-07-01T04:06:27.980Z</time>
      </trkpt>
      <trkpt lat="48.566518" lon="16.607259">
        <ele>234.692886</ele>
        <time>2020-07-01T04:06:29.972Z</time>
      </trkpt>
      <trkpt lat="48.566456" lon="16.607144">
        <ele>234.770913</ele>
        <time>2020-07-01T04:06:31.963Z</time>
      </trkpt>
      <trkpt lat="48.566400" lon="16.607025">
        <ele>234.847723</ele>
        <time>2020-07-01T04:06:34.999Z</time>
      </trkpt>
      <trkpt lat="48.566328" lon="16.606913">
        <ele>234.929860</ele>
        <time>2020-07-01T04:06:37.965Z</time>
      </trkpt>
      <trkpt lat="48.566238" lon="16.606788">
        <ele>235.027027</ele>
        <time>2020-07-01T04:06:40.968Z</time>
      </trkpt>
      <trkpt lat="48.566173" lon="16.606694">
        <ele>235.098542</ele>
        <time>2020-07-01T04:06:42.998Z</time>
      </trkpt>
      <trkpt lat="48.566107" lon="16.606576">
        <ele>235.179814</ele>
        <time>2020-07-01T04:06:44.993Z</time>
      </trkpt>
      <trkpt lat="48.566037" lon="16.606454">
        <ele>235.264752</ele>
        <time>2020-07-01T04:06:46.999Z</time>
      </trkpt>
      <trkpt lat="48.565987" lon="16.606323">
        <ele>235.344302</ele>
        <time>2020-07-01T04:06:48.987Z</time>
      </trkpt>
      <trkpt lat="48.565940" lon="16.606203">
        <ele>235.417652</ele>
        <time>2020-07-01T04:06:50.966Z</time>
      </trkpt>
      <trkpt lat="48.565896" lon="16.606069">
        <ele>235.496339</ele>
        <time>2020-07-01T04:06:52.982Z</time>
      </trkpt>
      <trkpt lat="48.565853" lon="16.605918">
        <ele>235.582811</ele>
        <time>2020-07-01T04:06:54.976Z</time>
      </trkpt>
      <trkpt lat="48.565811" lon="16.605762">
        <ele>235.685557</ele>
        <time>2020-07-01T04:06:57.004Z</time>
      </trkpt>
      <trkpt lat="48.565768" lon="16.605596">
        <ele>235.800897</ele>
        <time>2020-07-01T04:06:58.969Z</time>
      </trkpt>
      <trkpt lat="48.565731" lon="16.605433">
        <ele>235.912393</ele>
        <time>2020-07-01T04:07:00.967Z</time>
      </trkpt>
      <trkpt lat="48.565701" lon="16.605279">
        <ele>236.016262</ele>
        <time>2020-07-01T04:07:02.996Z</time>
      </trkpt>
      <trkpt lat="48.565669" lon="16.605133">
        <ele>236.115773</ele>
        <time>2020-07-01T04:07:04.988Z</time>
      </trkpt>
      <trkpt lat="48.565636" lon="16.604987">
        <ele>236.215596</ele>
        <time>2020-07-01T04:07:06.974Z</time>
      </trkpt>
      <trkpt lat="48.565605" lon="16.604839">
        <ele>236.316037</ele>
        <time>2020-07-01T04:07:08.986Z</time>
      </trkpt>
      <trkpt lat="48.565578" lon="16.604687">
        <ele>236.417866</ele>
        <time>2020-07-01T04:07:10.975Z</time>
      </trkpt>
      <trkpt lat="48.565549" lon="16.604522">
        <ele>236.528326</ele>
        <time>2020-07-01T04:07:12.957Z</time>
      </trkpt>
      <trkpt lat="48.565515" lon="16.604373">
        <ele>236.630302</ele>
        <time>2020-07-01T04:07:14.956Z</time>
      </trkpt>
      <trkpt lat="48.565477" lon="16.604210">
        <ele>236.742120</ele>
        <time>2020-07-01T04:07:16.970Z</time>
      </trkpt>
      <trkpt lat="48.565439" lon="16.604040">
        <ele>236.858219</ele>
        <time>2020-07-01T04:07:18.986Z</time>
      </trkpt>
      <trkpt lat="48.565401" lon="16.603877">
        <ele>236.970037</ele>
        <time>2020-07-01T04:07:20.981Z</time>
      </trkpt>
      <trkpt lat="48.565363" lon="16.603732">
        <ele>237.070944</ele>
        <time>2020-07-01T04:07:22.986Z</time>
      </trkpt>
      <trkpt lat="48.565330" lon="16.603586">
        <ele>237.170768</ele>
        <time>2020-07-01T04:07:25.014Z</time>
      </trkpt>
      <trkpt lat="48.565299" lon="16.603440">
        <ele>237.269977</ele>
        <time>2020-07-01T04:07:26.989Z</time>
      </trkpt>
      <trkpt lat="48.565268" lon="16.603293">
        <ele>237.369096</ele>
        <time>2020-07-01T04:07:28.969Z</time>
      </trkpt>
      <trkpt lat="48.565240" lon="16.603146">
        <ele>237.416642</ele>
        <time>2020-07-01T04:07:30.974Z</time>
      </trkpt>
      <trkpt lat="48.565206" lon="16.603001">
        <ele>237.464457</ele>
        <time>2020-07-01T04:07:32.976Z</time>
      </trkpt>
      <trkpt lat="48.565173" lon="16.602853">
        <ele>237.513000</ele>
        <time>2020-07-01T04:07:34.994Z</time>
      </trkpt>
      <trkpt lat="48.565143" lon="16.602701">
        <ele>237.562301</ele>
        <time>2020-07-01T04:07:36.971Z</time>
      </trkpt>
      <trkpt lat="48.565110" lon="16.602550">
        <ele>237.611729</ele>
        <time>2020-07-01T04:07:38.970Z</time>
      </trkpt>
      <trkpt lat="48.565075" lon="16.602396">
        <ele>237.662340</ele>
        <time>2020-07-01T04:07:40.962Z</time>
      </trkpt>
      <trkpt lat="48.565038" lon="16.602246">
        <ele>237.712097</ele>
        <time>2020-07-01T04:07:42.969Z</time>
      </trkpt>
      <trkpt lat="48.565002" lon="16.602093">
        <ele>237.762570</ele>
        <time>2020-07-01T04:07:44.963Z</time>
      </trkpt>
      <trkpt lat="48.564964" lon="16.601943">
        <ele>237.812493</ele>
        <time>2020-07-01T04:07:47.013Z</time>
      </trkpt>
      <trkpt lat="48.564929" lon="16.601791">
        <ele>237.862517</ele>
        <time>2020-07-01T04:07:48.990Z</time>
      </trkpt>
      <trkpt lat="48.564903" lon="16.601632">
        <ele>237.913424</ele>
        <time>2020-07-01T04:07:50.967Z</time>
      </trkpt>
      <trkpt lat="48.564874" lon="16.601478">
        <ele>237.963192</ele>
        <time>2020-07-01T04:07:52.960Z</time>
      </trkpt>
      <trkpt lat="48.564842" lon="16.601326">
        <ele>238.012770</ele>
        <time>2020-07-01T04:07:54.993Z</time>
      </trkpt>
      <trkpt lat="48.564809" lon="16.601178">
        <ele>238.061313</ele>
        <time>2020-07-01T04:07:57.002Z</time>
      </trkpt>
      <trkpt lat="48.564773" lon="16.601030">
        <ele>238.110325</ele>
        <time>2020-07-01T04:07:58.989Z</time>
      </trkpt>
      <trkpt lat="48.564737" lon="16.600879">
        <ele>238.160212</ele>
        <time>2020-07-01T04:08:00.994Z</time>
      </trkpt>
      <trkpt lat="48.564701" lon="16.600724">
        <ele>238.211271</ele>
        <time>2020-07-01T04:08:02.976Z</time>
      </trkpt>
      <trkpt lat="48.564668" lon="16.600560">
        <ele>238.227569</ele>
        <time>2020-07-01T04:08:05.009Z</time>
      </trkpt>
      <trkpt lat="48.564639" lon="16.600404">
        <ele>238.241633</ele>
        <time>2020-07-01T04:08:07.002Z</time>
      </trkpt>
      <trkpt lat="48.564608" lon="16.600253">
        <ele>238.255354</ele>
        <time>2020-07-01T04:08:09.003Z</time>
      </trkpt>
      <trkpt lat="48.564574" lon="16.600104">
        <ele>238.269034</ele>
        <time>2020-07-01T04:08:10.981Z</time>
      </trkpt>
      <trkpt lat="48.564540" lon="16.599953">
        <ele>238.282877</ele>
        <time>2020-07-01T04:08:13.007Z</time>
      </trkpt>
      <trkpt lat="48.564501" lon="16.599801">
        <ele>238.297026</ele>
        <time>2020-07-01T04:08:14.999Z</time>
      </trkpt>
      <trkpt lat="48.564457" lon="16.599649">
        <ele>238.311425</ele>
        <time>2020-07-01T04:08:16.993Z</time>
      </trkpt>
      <trkpt lat="48.564420" lon="16.599501">
        <ele>238.325157</ele>
        <time>2020-07-01T04:08:18.983Z</time>
      </trkpt>
      <trkpt lat="48.564381" lon="16.599349">
        <ele>238.339306</ele>
        <time>2020-07-01T04:08:20.989Z</time>
      </trkpt>
      <trkpt lat="48.564346" lon="16.599196">
        <ele>238.353356</ele>
        <time>2020-07-01T04:08:22.976Z</time>
      </trkpt>
      <trkpt lat="48.564313" lon="16.599036">
        <ele>238.367902</ele>
        <time>2020-07-01T04:08:24.991Z</time>
      </trkpt>
      <trkpt lat="48.564281" lon="16.598876">
        <ele>238.382409</ele>
        <time>2020-07-01T04:08:26.994Z</time>
      </trkpt>
      <trkpt lat="48.564250" lon="16.598724">
        <ele>238.396213</ele>
        <time>2020-07-01T04:08:29.005Z</time>
      </trkpt>
      <trkpt lat="48.564227" lon="16.598573">
        <ele>238.409662</ele>
        <time>2020-07-01T04:08:30.971Z</time>
      </trkpt>
      <trkpt lat="48.564205" lon="16.598420">
        <ele>238.423251</ele>
        <time>2020-07-01T04:08:32.976Z</time>
      </trkpt>
      <trkpt lat="48.564178" lon="16.598264">
        <ele>238.437246</ele>
        <time>2020-07-01T04:08:34.996Z</time>
      </trkpt>
      <trkpt lat="48.564150" lon="16.598104">
        <ele>238.452538</ele>
        <time>2020-07-01T04:08:36.967Z</time>
      </trkpt>
      <trkpt lat="48.564116" lon="16.597943">
        <ele>238.472707</ele>
        <time>2020-07-01T04:08:38.991Z</time>
      </trkpt>
      <trkpt lat="48.564084" lon="16.597774">
        <ele>238.493686</ele>
        <time>2020-07-01T04:08:40.994Z</time>
      </trkpt>
      <trkpt lat="48.564057" lon="16.597613">
        <ele>238.513508</ele>
        <time>2020-07-01T04:08:42.979Z</time>
      </trkpt>
      <trkpt lat="48.564030" lon="16.597457">
        <ele>238.532752</ele>
        <time>2020-07-01T04:08:44.959Z</time>
      </trkpt>
      <trkpt lat="48.564005" lon="16.597296">
        <ele>238.552488</ele>
        <time>2020-07-01T04:08:46.977Z</time>
      </trkpt>
      <trkpt lat="48.563975" lon="16.597130">
        <ele>238.573025</ele>
        <time>2020-07-01T04:08:48.988Z</time>
      </trkpt>
      <trkpt lat="48.563940" lon="16.596970">
        <ele>238.593137</ele>
        <time>2020-07-01T04:08:50.976Z</time>
      </trkpt>
      <trkpt lat="48.563909" lon="16.596839">
        <ele>238.609740</ele>
        <time>2020-07-01T04:08:53.015Z</time>
      </trkpt>
      <trkpt lat="48.563878" lon="16.596695">
        <ele>238.627812</ele>
        <time>2020-07-01T04:08:55.972Z</time>
      </trkpt>
      <trkpt lat="48.563853" lon="16.596549">
        <ele>238.645811</ele>
        <time>2020-07-01T04:08:58.981Z</time>
      </trkpt>
      <trkpt lat="48.563823" lon="16.596363">
        <ele>238.668659</ele>
        <time>2020-07-01T04:09:01.992Z</time>
      </trkpt>
      <trkpt lat="48.563800" lon="16.596217">
        <ele>238.686570</ele>
        <time>2020-07-01T04:09:03.965Z</time>
      </trkpt>
      <trkpt lat="48.563773" lon="16.596051">
        <ele>238.706971</ele>
        <time>2020-07-01T04:09:05.989Z</time>
      </trkpt>
      <trkpt lat="48.563742" lon="16.595875">
        <ele>238.728707</ele>
        <time>2020-07-01T04:09:08.004Z</time>
      </trkpt>
      <trkpt lat="48.563709" lon="16.595707">
        <ele>238.749622</ele>
        <time>2020-07-01T04:09:09.998Z</time>
      </trkpt>
      <trkpt lat="48.563683" lon="16.595539">
        <ele>238.770213</ele>
        <time>2020-07-01T04:09:12.000Z</time>
      </trkpt>
      <trkpt lat="48.563656" lon="16.595372">
        <ele>238.807815</ele>
        <time>2020-07-01T04:09:14.001Z</time>
      </trkpt>
      <trkpt lat="48.563628" lon="16.595207">
        <ele>238.848301</ele>
        <time>2020-07-01T04:09:16.013Z</time>
      </trkpt>
      <trkpt lat="48.563595" lon="16.595048">
        <ele>238.887908</ele>
        <time>2020-07-01T04:09:17.977Z</time>
      </trkpt>
      <trkpt lat="48.563579" lon="16.594889">
        <ele>238.926134</ele>
        <time>2020-07-01T04:09:19.978Z</time>
      </trkpt>
      <trkpt lat="48.563551" lon="16.594733">
        <ele>238.964552</ele>
        <time>2020-07-01T04:09:22.019Z</time>
      </trkpt>
      <trkpt lat="48.563517" lon="16.594579">
        <ele>239.003139</ele>
        <time>2020-07-01T04:09:23.981Z</time>
      </trkpt>
      <trkpt lat="48.563485" lon="16.594427">
        <ele>239.041051</ele>
        <time>2020-07-01T04:09:25.971Z</time>
      </trkpt>
      <trkpt lat="48.563456" lon="16.594258">
        <ele>239.082548</ele>
        <time>2020-07-01T04:09:27.959Z</time>
      </trkpt>
      <trkpt lat="48.563426" lon="16.594100">
        <ele>239.121617</ele>
        <time>2020-07-01T04:09:29.984Z</time>
      </trkpt>
      <trkpt lat="48.563397" lon="16.593945">
        <ele>239.159902</ele>
        <time>2020-07-01T04:09:32.009Z</time>
      </trkpt>
      <trkpt lat="48.563366" lon="16.593788">
        <ele>239.198844</ele>
        <time>2020-07-01T04:09:33.960Z</time>
      </trkpt>
      <trkpt lat="48.563336" lon="16.593643">
        <ele>239.234953</ele>
        <time>2020-07-01T04:09:35.964Z</time>
      </trkpt>
      <trkpt lat="48.563301" lon="16.593489">
        <ele>239.273655</ele>
        <time>2020-07-01T04:09:37.968Z</time>
      </trkpt>
      <trkpt lat="48.563264" lon="16.593338">
        <ele>239.311926</ele>
        <time>2020-07-01T04:09:39.978Z</time>
      </trkpt>
      <trkpt lat="48.563225" lon="16.593188">
        <ele>239.350232</ele>
        <time>2020-07-01T04:09:41.967Z</time>
      </trkpt>
      <trkpt lat="48.563191" lon="16.593038">
        <ele>239.387918</ele>
        <time>2020-07-01T04:09:43.987Z</time>
      </trkpt>
      <trkpt lat="48.563158" lon="16.592885">
        <ele>239.426261</ele>
        <time>2020-07-01T04:09:46.002Z</time>
      </trkpt>
      <trkpt lat="48.563123" lon="16.592731">
        <ele>239.465514</ele>
        <time>2020-07-01T04:09:47.997Z</time>
      </trkpt>
      <trkpt lat="48.563093" lon="16.592582">
        <ele>239.503058</ele>
        <time>2020-07-01T04:09:49.971Z</time>
      </trkpt>
      <trkpt lat="48.563064" lon="16.592428">
        <ele>239.541656</ele>
        <time>2020-07-01T04:09:51.971Z</time>
      </trkpt>
      <trkpt lat="48.563035" lon="16.592270">
        <ele>239.581182</ele>
        <time>2020-07-01T04:09:53.979Z</time>
      </trkpt>
      <trkpt lat="48.563006" lon="16.592120">
        <ele>239.618853</ele>
        <time>2020-07-01T04:09:55.990Z</time>
      </trkpt>
      <trkpt lat="48.562974" lon="16.591967">
        <ele>239.657534</ele>
        <time>2020-07-01T04:09:57.978Z</time>
      </trkpt>
      <trkpt lat="48.562939" lon="16.591824">
        <ele>239.694289</ele>
        <time>2020-07-01T04:09:59.965Z</time>
      </trkpt>
      <trkpt lat="48.562915" lon="16.591680">
        <ele>239.730086</ele>
        <time>2020-07-01T04:10:01.981Z</time>
      </trkpt>
      <trkpt lat="48.562887" lon="16.591536">
        <ele>239.766267</ele>
        <time>2020-07-01T04:10:03.991Z</time>
      </trkpt>
      <trkpt lat="48.562851" lon="16.591408">
        <ele>239.799794</ele>
        <time>2020-07-01T04:10:05.978Z</time>
      </trkpt>
      <trkpt lat="48.562822" lon="16.591279">
        <ele>239.832637</ele>
        <time>2020-07-01T04:10:07.961Z</time>
      </trkpt>
      <trkpt lat="48.562804" lon="16.591139">
        <ele>239.867018</ele>
        <time>2020-07-01T04:10:09.976Z</time>
      </trkpt>
      <trkpt lat="48.562778" lon="16.591001">
        <ele>239.901607</ele>
        <time>2020-07-01T04:10:11.987Z</time>
      </trkpt>
      <trkpt lat="48.562747" lon="16.590869">
        <ele>239.935372</ele>
        <time>2020-07-01T04:10:14.004Z</time>
      </trkpt>
      <trkpt lat="48.562714" lon="16.590738">
        <ele>239.969162</ele>
        <time>2020-07-01T04:10:15.986Z</time>
      </trkpt>
      <trkpt lat="48.562684" lon="16.590598">
        <ele>240.004636</ele>
        <time>2020-07-01T04:10:17.992Z</time>
      </trkpt>
      <trkpt lat="48.562655" lon="16.590461">
        <ele>240.039311</ele>
        <time>2020-07-01T04:10:19.989Z</time>
      </trkpt>
      <trkpt lat="48.562627" lon="16.590321">
        <ele>240.074568</ele>
        <time>2020-07-01T04:10:21.988Z</time>
      </trkpt>
      <trkpt lat="48.562591" lon="16.590172">
        <ele>240.108604</ele>
        <time>2020-07-01T04:10:23.961Z</time>
      </trkpt>
      <trkpt lat="48.562557" lon="16.590031">
        <ele>240.140796</ele>
        <time>2020-07-01T04:10:25.990Z</time>
      </trkpt>
      <trkpt lat="48.562523" lon="16.589892">
        <ele>240.172585</ele>
        <time>2020-07-01T04:10:28.001Z</time>
      </trkpt>
      <trkpt lat="48.562495" lon="16.589750">
        <ele>240.204370</ele>
        <time>2020-07-01T04:10:29.996Z</time>
      </trkpt>
      <trkpt lat="48.562470" lon="16.589614">
        <ele>240.234649</ele>
        <time>2020-07-01T04:10:31.973Z</time>
      </trkpt>
      <trkpt lat="48.562447" lon="16.589479">
        <ele>240.264553</ele>
        <time>2020-07-01T04:10:33.988Z</time>
      </trkpt>
      <trkpt lat="48.562419" lon="16.589345">
        <ele>240.294697</ele>
        <time>2020-07-01T04:10:35.971Z</time>
      </trkpt>
      <trkpt lat="48.562391" lon="16.589210">
        <ele>240.325045</ele>
        <time>2020-07-01T04:10:38.002Z</time>
      </trkpt>
      <trkpt lat="48.562358" lon="16.589072">
        <ele>240.356522</ele>
        <time>2020-07-01T04:10:39.977Z</time>
      </trkpt>
      <trkpt lat="48.562323" lon="16.588938">
        <ele>240.387425</ele>
        <time>2020-07-01T04:10:41.986Z</time>
      </trkpt>
      <trkpt lat="48.562289" lon="16.588808">
        <ele>240.417410</ele>
        <time>2020-07-01T04:10:44.006Z</time>
      </trkpt>
      <trkpt lat="48.562251" lon="16.588684">
        <ele>240.446724</ele>
        <time>2020-07-01T04:10:45.996Z</time>
      </trkpt>
      <trkpt lat="48.562216" lon="16.588554">
        <ele>240.476830</ele>
        <time>2020-07-01T04:10:47.984Z</time>
      </trkpt>
      <trkpt lat="48.562181" lon="16.588423">
        <ele>240.507136</ele>
        <time>2020-07-01T04:10:49.978Z</time>
      </trkpt>
      <trkpt lat="48.562147" lon="16.588290">
        <ele>240.537721</ele>
        <time>2020-07-01T04:10:52.009Z</time>
      </trkpt>
      <trkpt lat="48.562117" lon="16.588152">
        <ele>240.568881</ele>
        <time>2020-07-01T04:10:53.976Z</time>
      </trkpt>
      <trkpt lat="48.562089" lon="16.588012">
        <ele>240.600255</ele>
        <time>2020-07-01T04:10:55.998Z</time>
      </trkpt>
      <trkpt lat="48.562060" lon="16.587872">
        <ele>240.631724</ele>
        <time>2020-07-01T04:10:57.978Z</time>
      </trkpt>
      <trkpt lat="48.562034" lon="16.587730">
        <ele>240.667171</ele>
        <time>2020-07-01T04:10:59.988Z</time>
      </trkpt>
      <trkpt lat="48.562016" lon="16.587595">
        <ele>240.716771</ele>
        <time>2020-07-01T04:11:01.989Z</time>
      </trkpt>
      <trkpt lat="48.561990" lon="16.587460">
        <ele>240.767412</ele>
        <time>2020-07-01T04:11:03.994Z</time>
      </trkpt>
      <trkpt lat="48.561962" lon="16.587321">
        <ele>240.819744</ele>
        <time>2020-07-01T04:11:05.981Z</time>
      </trkpt>
      <trkpt lat="48.561936" lon="16.587184">
        <ele>240.871076</ele>
        <time>2020-07-01T04:11:08.003Z</time>
      </trkpt>
      <trkpt lat="48.561897" lon="16.587057">
        <ele>240.921502</ele>
        <time>2020-07-01T04:11:09.959Z</time>
      </trkpt>
      <trkpt lat="48.561846" lon="16.586926">
        <ele>240.976243</ele>
        <time>2020-07-01T04:11:11.987Z</time>
      </trkpt>
      <trkpt lat="48.561807" lon="16.586767">
        <ele>241.037318</ele>
        <time>2020-07-01T04:11:13.983Z</time>
      </trkpt>
      <trkpt lat="48.561763" lon="16.586578">
        <ele>241.109480</ele>
        <time>2020-07-01T04:11:15.979Z</time>
      </trkpt>
      <trkpt lat="48.561733" lon="16.586394">
        <ele>241.177733</ele>
        <time>2020-07-01T04:11:17.991Z</time>
      </trkpt>
      <trkpt lat="48.561701" lon="16.586238">
        <ele>241.236558</ele>
        <time>2020-07-01T04:11:19.974Z</time>
      </trkpt>
      <trkpt lat="48.561672" lon="16.586095">
        <ele>241.290427</ele>
        <time>2020-07-01T04:11:21.993Z</time>
      </trkpt>
      <trkpt lat="48.561659" lon="16.585925">
        <ele>241.352064</ele>
        <time>2020-07-01T04:11:24.971Z</time>
      </trkpt>
      <trkpt lat="48.561629" lon="16.585749">
        <ele>241.417523</ele>
        <time>2020-07-01T04:11:27.963Z</time>
      </trkpt>
      <trkpt lat="48.561585" lon="16.585571">
        <ele>241.485961</ele>
        <time>2020-07-01T04:11:30.968Z</time>
      </trkpt>
      <trkpt lat="48.561541" lon="16.585379">
        <ele>241.559143</ele>
        <time>2020-07-01T04:11:33.984Z</time>
      </trkpt>
      <trkpt lat="48.561514" lon="16.585242">
        <ele>241.610628</ele>
        <time>2020-07-01T04:11:35.993Z</time>
      </trkpt>
      <trkpt lat="48.561478" lon="16.585034">
        <ele>241.688997</ele>
        <time>2020-07-01T04:11:38.976Z</time>
      </trkpt>
      <trkpt lat="48.561448" lon="16.584893">
        <ele>241.743307</ele>
        <time>2020-07-01T04:11:40.967Z</time>
      </trkpt>
      <trkpt lat="48.561416" lon="16.584760">
        <ele>241.795200</ele>
        <time>2020-07-01T04:11:42.966Z</time>
      </trkpt>
      <trkpt lat="48.561371" lon="16.584571">
        <ele>241.868854</ele>
        <time>2020-07-01T04:11:46.003Z</time>
      </trkpt>
      <trkpt lat="48.561346" lon="16.584415">
        <ele>241.927711</ele>
        <time>2020-07-01T04:11:47.976Z</time>
      </trkpt>
      <trkpt lat="48.561326" lon="16.584263">
        <ele>241.984539</ele>
        <time>2020-07-01T04:11:49.975Z</time>
      </trkpt>
      <trkpt lat="48.561302" lon="16.584110">
        <ele>242.042198</ele>
        <time>2020-07-01T04:11:51.987Z</time>
      </trkpt>
      <trkpt lat="48.561281" lon="16.583959">
        <ele>242.098778</ele>
        <time>2020-07-01T04:11:53.972Z</time>
      </trkpt>
      <trkpt lat="48.561268" lon="16.583812">
        <ele>242.153161</ele>
        <time>2020-07-01T04:11:56.000Z</time>
      </trkpt>
      <trkpt lat="48.561260" lon="16.583661">
        <ele>242.208709</ele>
        <time>2020-07-01T04:11:57.977Z</time>
      </trkpt>
      <trkpt lat="48.561260" lon="16.583502">
        <ele>242.267014</ele>
        <time>2020-07-01T04:11:59.974Z</time>
      </trkpt>
      <trkpt lat="48.561260" lon="16.583352">
        <ele>242.322018</ele>
        <time>2020-07-01T04:12:01.986Z</time>
      </trkpt>
      <trkpt lat="48.561260" lon="16.583204">
        <ele>242.376289</ele>
        <time>2020-07-01T04:12:04.020Z</time>
      </trkpt>
      <trkpt lat="48.561254" lon="16.583058">
        <ele>242.429929</ele>
        <time>2020-07-01T04:12:05.966Z</time>
      </trkpt>
      <trkpt lat="48.561246" lon="16.582914">
        <ele>242.482919</ele>
        <time>2020-07-01T04:12:07.979Z</time>
      </trkpt>
      <trkpt lat="48.561240" lon="16.582772">
        <ele>242.535096</ele>
        <time>2020-07-01T04:12:10.006Z</time>
      </trkpt>
      <trkpt lat="48.561234" lon="16.582621">
        <ele>242.590566</ele>
        <time>2020-07-01T04:12:12.008Z</time>
      </trkpt>
      <trkpt lat="48.561229" lon="16.582476">
        <ele>242.638216</ele>
        <time>2020-07-01T04:12:14.010Z</time>
      </trkpt>
      <trkpt lat="48.561221" lon="16.582324">
        <ele>242.664889</ele>
        <time>2020-07-01T04:12:15.991Z</time>
      </trkpt>
      <trkpt lat="48.561213" lon="16.582177">
        <ele>242.690691</ele>
        <time>2020-07-01T04:12:17.985Z</time>
      </trkpt>
      <trkpt lat="48.561197" lon="16.582036">
        <ele>242.715716</ele>
        <time>2020-07-01T04:12:19.976Z</time>
      </trkpt>
      <trkpt lat="48.561182" lon="16.581894">
        <ele>242.740870</ele>
        <time>2020-07-01T04:12:21.989Z</time>
      </trkpt>
      <trkpt lat="48.561181" lon="16.581752">
        <ele>242.765712</ele>
        <time>2020-07-01T04:12:23.977Z</time>
      </trkpt>
      <trkpt lat="48.561204" lon="16.581586">
        <ele>242.795380</ele>
        <time>2020-07-01T04:12:26.984Z</time>
      </trkpt>
      <trkpt lat="48.561189" lon="16.581435">
        <ele>242.822090</ele>
        <time>2020-07-01T04:12:29.971Z</time>
      </trkpt>
      <trkpt lat="48.561183" lon="16.581264">
        <ele>242.852046</ele>
        <time>2020-07-01T04:12:32.979Z</time>
      </trkpt>
      <trkpt lat="48.561163" lon="16.581129">
        <ele>242.876246</ele>
        <time>2020-07-01T04:12:34.979Z</time>
      </trkpt>
      <trkpt lat="48.561141" lon="16.580990">
        <ele>242.901247</ele>
        <time>2020-07-01T04:12:36.981Z</time>
      </trkpt>
      <trkpt lat="48.561120" lon="16.580842">
        <ele>242.927725</ele>
        <time>2020-07-01T04:12:38.957Z</time>
      </trkpt>
      <trkpt lat="48.561101" lon="16.580687">
        <ele>242.955300</ele>
        <time>2020-07-01T04:12:40.968Z</time>
      </trkpt>
      <trkpt lat="48.561077" lon="16.580532">
        <ele>242.983147</ele>
        <time>2020-07-01T04:12:42.965Z</time>
      </trkpt>
      <trkpt lat="48.561055" lon="16.580365">
        <ele>243.012933</ele>
        <time>2020-07-01T04:12:45.005Z</time>
      </trkpt>
      <trkpt lat="48.561032" lon="16.580208">
        <ele>243.041062</ele>
        <time>2020-07-01T04:12:46.975Z</time>
      </trkpt>
      <trkpt lat="48.561011" lon="16.580046">
        <ele>243.069940</ele>
        <time>2020-07-01T04:12:48.981Z</time>
      </trkpt>
      <trkpt lat="48.560991" lon="16.579888">
        <ele>243.098080</ele>
        <time>2020-07-01T04:12:50.977Z</time>
      </trkpt>
      <trkpt lat="48.560978" lon="16.579724">
        <ele>243.108432</ele>
        <time>2020-07-01T04:12:52.955Z</time>
      </trkpt>
      <trkpt lat="48.560966" lon="16.579562">
        <ele>243.108286</ele>
        <time>2020-07-01T04:12:54.962Z</time>
      </trkpt>
      <trkpt lat="48.560950" lon="16.579408">
        <ele>243.108146</ele>
        <time>2020-07-01T04:12:56.987Z</time>
      </trkpt>
      <trkpt lat="48.560932" lon="16.579252">
        <ele>243.108005</ele>
        <time>2020-07-01T04:12:58.961Z</time>
      </trkpt>
      <trkpt lat="48.560914" lon="16.579096">
        <ele>243.107863</ele>
        <time>2020-07-01T04:13:00.987Z</time>
      </trkpt>
      <trkpt lat="48.560894" lon="16.578942">
        <ele>243.107722</ele>
        <time>2020-07-01T04:13:02.965Z</time>
      </trkpt>
      <trkpt lat="48.560874" lon="16.578798">
        <ele>243.107590</ele>
        <time>2020-07-01T04:13:04.961Z</time>
      </trkpt>
      <trkpt lat="48.560853" lon="16.578643">
        <ele>243.107449</ele>
        <time>2020-07-01T04:13:06.988Z</time>
      </trkpt>
      <trkpt lat="48.560831" lon="16.578487">
        <ele>243.107306</ele>
        <time>2020-07-01T04:13:08.977Z</time>
      </trkpt>
      <trkpt lat="48.560810" lon="16.578336">
        <ele>243.107168</ele>
        <time>2020-07-01T04:13:10.991Z</time>
      </trkpt>
      <trkpt lat="48.560792" lon="16.578186">
        <ele>243.107031</ele>
        <time>2020-07-01T04:13:12.960Z</time>
      </trkpt>
      <trkpt lat="48.560774" lon="16.578042">
        <ele>243.106900</ele>
        <time>2020-07-01T04:13:15.007Z</time>
      </trkpt>
      <trkpt lat="48.560745" lon="16.577875">
        <ele>243.106745</ele>
        <time>2020-07-01T04:13:16.995Z</time>
      </trkpt>
      <trkpt lat="48.560719" lon="16.577712">
        <ele>243.106595</ele>
        <time>2020-07-01T04:13:18.997Z</time>
      </trkpt>
      <trkpt lat="48.560700" lon="16.577559">
        <ele>243.106456</ele>
        <time>2020-07-01T04:13:20.998Z</time>
      </trkpt>
      <trkpt lat="48.560675" lon="16.577404">
        <ele>243.106313</ele>
        <time>2020-07-01T04:13:22.959Z</time>
      </trkpt>
      <trkpt lat="48.560648" lon="16.577261">
        <ele>243.106180</ele>
        <time>2020-07-01T04:13:24.976Z</time>
      </trkpt>
      <trkpt lat="48.560624" lon="16.577122">
        <ele>243.100219</ele>
        <time>2020-07-01T04:13:26.971Z</time>
      </trkpt>
      <trkpt lat="48.560601" lon="16.576934">
        <ele>243.075974</ele>
        <time>2020-07-01T04:13:29.001Z</time>
      </trkpt>
      <trkpt lat="48.560574" lon="16.576726">
        <ele>243.049094</ele>
        <time>2020-07-01T04:13:30.984Z</time>
      </trkpt>
      <trkpt lat="48.560553" lon="16.576517">
        <ele>243.022286</ele>
        <time>2020-07-01T04:13:32.991Z</time>
      </trkpt>
      <trkpt lat="48.560560" lon="16.576348">
        <ele>243.000812</ele>
        <time>2020-07-01T04:13:34.962Z</time>
      </trkpt>
      <trkpt lat="48.560581" lon="16.576161">
        <ele>242.976759</ele>
        <time>2020-07-01T04:13:38.007Z</time>
      </trkpt>
      <trkpt lat="48.560563" lon="16.575977">
        <ele>242.953172</ele>
        <time>2020-07-01T04:13:41.012Z</time>
      </trkpt>
      <trkpt lat="48.560540" lon="16.575842">
        <ele>242.935494</ele>
        <time>2020-07-01T04:13:42.980Z</time>
      </trkpt>
      <trkpt lat="48.560524" lon="16.575699">
        <ele>242.917102</ele>
        <time>2020-07-01T04:13:44.990Z</time>
      </trkpt>
      <trkpt lat="48.560508" lon="16.575559">
        <ele>242.899085</ele>
        <time>2020-07-01T04:13:46.984Z</time>
      </trkpt>
      <trkpt lat="48.560491" lon="16.575419">
        <ele>242.881035</ele>
        <time>2020-07-01T04:13:48.994Z</time>
      </trkpt>
      <trkpt lat="48.560469" lon="16.575285">
        <ele>242.863527</ele>
        <time>2020-07-01T04:13:51.024Z</time>
      </trkpt>
      <trkpt lat="48.560445" lon="16.575153">
        <ele>242.846167</ele>
        <time>2020-07-01T04:13:52.982Z</time>
      </trkpt>
      <trkpt lat="48.560425" lon="16.575016">
        <ele>242.828376</ele>
        <time>2020-07-01T04:13:54.967Z</time>
      </trkpt>
      <trkpt lat="48.560411" lon="16.574876">
        <ele>242.810420</ele>
        <time>2020-07-01T04:13:56.980Z</time>
      </trkpt>
      <trkpt lat="48.560393" lon="16.574731">
        <ele>242.791712</ele>
        <time>2020-07-01T04:13:58.977Z</time>
      </trkpt>
      <trkpt lat="48.560375" lon="16.574584">
        <ele>242.772753</ele>
        <time>2020-07-01T04:14:00.994Z</time>
      </trkpt>
      <trkpt lat="48.560354" lon="16.574438">
        <ele>242.767738</ele>
        <time>2020-07-01T04:14:03.012Z</time>
      </trkpt>
      <trkpt lat="48.560338" lon="16.574285">
        <ele>242.783891</ele>
        <time>2020-07-01T04:14:05.329Z</time>
      </trkpt>
      <trkpt lat="48.560326" lon="16.574131">
        <ele>242.800062</ele>
        <time>2020-07-01T04:14:06.964Z</time>
      </trkpt>
      <trkpt lat="48.560313" lon="16.573982">
        <ele>242.815736</ele>
        <time>2020-07-01T04:14:08.984Z</time>
      </trkpt>
      <trkpt lat="48.560289" lon="16.573834">
        <ele>242.831627</ele>
        <time>2020-07-01T04:14:10.985Z</time>
      </trkpt>
      <trkpt lat="48.560270" lon="16.573683">
        <ele>242.847656</ele>
        <time>2020-07-01T04:14:13.000Z</time>
      </trkpt>
      <trkpt lat="48.560252" lon="16.573536">
        <ele>242.863246</ele>
        <time>2020-07-01T04:14:14.966Z</time>
      </trkpt>
      <trkpt lat="48.560228" lon="16.573381">
        <ele>242.879847</ele>
        <time>2020-07-01T04:14:16.983Z</time>
      </trkpt>
      <trkpt lat="48.560209" lon="16.573222">
        <ele>242.896697</ele>
        <time>2020-07-01T04:14:18.992Z</time>
      </trkpt>
      <trkpt lat="48.560191" lon="16.573065">
        <ele>242.913314</ele>
        <time>2020-07-01T04:14:20.959Z</time>
      </trkpt>
      <trkpt lat="48.560176" lon="16.572906">
        <ele>242.930063</ele>
        <time>2020-07-01T04:14:22.989Z</time>
      </trkpt>
      <trkpt lat="48.560152" lon="16.572751">
        <ele>242.946664</ele>
        <time>2020-07-01T04:14:24.987Z</time>
      </trkpt>
      <trkpt lat="48.560139" lon="16.572596">
        <ele>242.962958</ele>
        <time>2020-07-01T04:14:26.991Z</time>
      </trkpt>
      <trkpt lat="48.560118" lon="16.572444">
        <ele>242.979151</ele>
        <time>2020-07-01T04:14:28.991Z</time>
      </trkpt>
      <trkpt lat="48.560101" lon="16.572289">
        <ele>242.995536</ele>
        <time>2020-07-01T04:14:30.984Z</time>
      </trkpt>
      <trkpt lat="48.560078" lon="16.572139">
        <ele>243.011593</ele>
        <time>2020-07-01T04:14:32.997Z</time>
      </trkpt>
      <trkpt lat="48.560058" lon="16.571985">
        <ele>243.027960</ele>
        <time>2020-07-01T04:14:35.017Z</time>
      </trkpt>
      <trkpt lat="48.560048" lon="16.571832">
        <ele>243.043993</ele>
        <time>2020-07-01T04:14:37.124Z</time>
      </trkpt>
      <trkpt lat="48.560039" lon="16.571684">
        <ele>243.055777</ele>
        <time>2020-07-01T04:14:38.962Z</time>
      </trkpt>
      <trkpt lat="48.560023" lon="16.571544">
        <ele>243.066828</ele>
        <time>2020-07-01T04:14:40.991Z</time>
      </trkpt>
      <trkpt lat="48.560004" lon="16.571365">
        <ele>243.080930</ele>
        <time>2020-07-01T04:14:43.996Z</time>
      </trkpt>
      <trkpt lat="48.559989" lon="16.571229">
        <ele>243.091655</ele>
        <time>2020-07-01T04:14:45.967Z</time>
      </trkpt>
      <trkpt lat="48.559965" lon="16.571065">
        <ele>243.104721</ele>
        <time>2020-07-01T04:14:47.983Z</time>
      </trkpt>
      <trkpt lat="48.559940" lon="16.570906">
        <ele>243.117433</ele>
        <time>2020-07-01T04:14:50.002Z</time>
      </trkpt>
      <trkpt lat="48.559918" lon="16.570741">
        <ele>243.130526</ele>
        <time>2020-07-01T04:14:51.961Z</time>
      </trkpt>
      <trkpt lat="48.559902" lon="16.570576">
        <ele>243.143498</ele>
        <time>2020-07-01T04:14:53.959Z</time>
      </trkpt>
      <trkpt lat="48.559884" lon="16.570423">
        <ele>243.155586</ele>
        <time>2020-07-01T04:14:56.006Z</time>
      </trkpt>
      <trkpt lat="48.559859" lon="16.570257">
        <ele>243.168829</ele>
        <time>2020-07-01T04:14:57.961Z</time>
      </trkpt>
      <trkpt lat="48.559833" lon="16.570103">
        <ele>243.181192</ele>
        <time>2020-07-01T04:14:59.964Z</time>
      </trkpt>
      <trkpt lat="48.559802" lon="16.569947">
        <ele>243.193862</ele>
        <time>2020-07-01T04:15:01.960Z</time>
      </trkpt>
      <trkpt lat="48.559774" lon="16.569793">
        <ele>243.206286</ele>
        <time>2020-07-01T04:15:03.972Z</time>
      </trkpt>
      <trkpt lat="48.559739" lon="16.569650">
        <ele>243.218146</ele>
        <time>2020-07-01T04:15:05.986Z</time>
      </trkpt>
      <trkpt lat="48.559696" lon="16.569508">
        <ele>243.230293</ele>
        <time>2020-07-01T04:15:07.966Z</time>
      </trkpt>
      <trkpt lat="48.559664" lon="16.569352">
        <ele>243.242997</ele>
        <time>2020-07-01T04:15:10.002Z</time>
      </trkpt>
      <trkpt lat="48.559620" lon="16.569212">
        <ele>243.255053</ele>
        <time>2020-07-01T04:15:11.963Z</time>
      </trkpt>
      <trkpt lat="48.559574" lon="16.569060">
        <ele>243.243196</ele>
        <time>2020-07-01T04:15:13.973Z</time>
      </trkpt>
      <trkpt lat="48.559526" lon="16.568912">
        <ele>243.228974</ele>
        <time>2020-07-01T04:15:15.967Z</time>
      </trkpt>
      <trkpt lat="48.559477" lon="16.568765">
        <ele>243.214772</ele>
        <time>2020-07-01T04:15:18.000Z</time>
      </trkpt>
      <trkpt lat="48.559425" lon="16.568615">
        <ele>243.200160</ele>
        <time>2020-07-01T04:15:19.974Z</time>
      </trkpt>
      <trkpt lat="48.559367" lon="16.568473">
        <ele>243.185762</ele>
        <time>2020-07-01T04:15:21.978Z</time>
      </trkpt>
      <trkpt lat="48.559314" lon="16.568324">
        <ele>243.171165</ele>
        <time>2020-07-01T04:15:23.995Z</time>
      </trkpt>
      <trkpt lat="48.559266" lon="16.568173">
        <ele>243.156710</ele>
        <time>2020-07-01T04:15:25.998Z</time>
      </trkpt>
      <trkpt lat="48.559213" lon="16.568027">
        <ele>243.142341</ele>
        <time>2020-07-01T04:15:27.972Z</time>
      </trkpt>
      <trkpt lat="48.559162" lon="16.567889">
        <ele>243.128703</ele>
        <time>2020-07-01T04:15:29.966Z</time>
      </trkpt>
      <trkpt lat="48.559117" lon="16.567747">
        <ele>243.115117</ele>
        <time>2020-07-01T04:15:31.984Z</time>
      </trkpt>
      <trkpt lat="48.559066" lon="16.567612">
        <ele>243.101704</ele>
        <time>2020-07-01T04:15:33.961Z</time>
      </trkpt>
      <trkpt lat="48.559013" lon="16.567477">
        <ele>243.088159</ele>
        <time>2020-07-01T04:15:36.010Z</time>
      </trkpt>
      <trkpt lat="48.558966" lon="16.567325">
        <ele>243.073682</ele>
        <time>2020-07-01T04:15:37.986Z</time>
      </trkpt>
      <trkpt lat="48.558923" lon="16.567173">
        <ele>243.059418</ele>
        <time>2020-07-01T04:15:39.986Z</time>
      </trkpt>
      <trkpt lat="48.558870" lon="16.567037">
        <ele>243.045799</ele>
        <time>2020-07-01T04:15:42.009Z</time>
      </trkpt>
      <trkpt lat="48.558818" lon="16.566895">
        <ele>243.031796</ele>
        <time>2020-07-01T04:15:43.990Z</time>
      </trkpt>
      <trkpt lat="48.558766" lon="16.566748">
        <ele>243.025687</ele>
        <time>2020-07-01T04:15:45.976Z</time>
      </trkpt>
      <trkpt lat="48.558719" lon="16.566600">
        <ele>243.038451</ele>
        <time>2020-07-01T04:15:48.000Z</time>
      </trkpt>
      <trkpt lat="48.558676" lon="16.566459">
        <ele>243.050521</ele>
        <time>2020-07-01T04:15:49.977Z</time>
      </trkpt>
      <trkpt lat="48.558628" lon="16.566325">
        <ele>243.062368</ele>
        <time>2020-07-01T04:15:51.974Z</time>
      </trkpt>
      <trkpt lat="48.558571" lon="16.566173">
        <ele>243.075952</ele>
        <time>2020-07-01T04:15:53.999Z</time>
      </trkpt>
      <trkpt lat="48.558530" lon="16.566030">
        <ele>243.088069</ele>
        <time>2020-07-01T04:15:56.002Z</time>
      </trkpt>
      <trkpt lat="48.558482" lon="16.565905">
        <ele>243.099305</ele>
        <time>2020-07-01T04:15:58.011Z</time>
      </trkpt>
      <trkpt lat="48.558429" lon="16.565763">
        <ele>243.111980</ele>
        <time>2020-07-01T04:16:00.000Z</time>
      </trkpt>
      <trkpt lat="48.558377" lon="16.565625">
        <ele>243.124327</ele>
        <time>2020-07-01T04:16:01.979Z</time>
      </trkpt>
      <trkpt lat="48.558329" lon="16.565485">
        <ele>243.136586</ele>
        <time>2020-07-01T04:16:03.980Z</time>
      </trkpt>
      <trkpt lat="48.558279" lon="16.565340">
        <ele>243.149299</ele>
        <time>2020-07-01T04:16:05.981Z</time>
      </trkpt>
      <trkpt lat="48.558231" lon="16.565194">
        <ele>243.161974</ele>
        <time>2020-07-01T04:16:07.980Z</time>
      </trkpt>
      <trkpt lat="48.558183" lon="16.565054">
        <ele>243.174233</ele>
        <time>2020-07-01T04:16:10.010Z</time>
      </trkpt>
      <trkpt lat="48.558132" lon="16.564915">
        <ele>243.186590</ele>
        <time>2020-07-01T04:16:11.963Z</time>
      </trkpt>
      <trkpt lat="48.558078" lon="16.564779">
        <ele>243.198921</ele>
        <time>2020-07-01T04:16:13.973Z</time>
      </trkpt>
      <trkpt lat="48.558028" lon="16.564634">
        <ele>243.211634</ele>
        <time>2020-07-01T04:16:15.990Z</time>
      </trkpt>
      <trkpt lat="48.557983" lon="16.564494">
        <ele>243.223735</ele>
        <time>2020-07-01T04:16:18.021Z</time>
      </trkpt>
      <trkpt lat="48.557930" lon="16.564350">
        <ele>243.240653</ele>
        <time>2020-07-01T04:16:20.014Z</time>
      </trkpt>
      <trkpt lat="48.557880" lon="16.564205">
        <ele>243.268353</ele>
        <time>2020-07-01T04:16:21.981Z</time>
      </trkpt>
      <trkpt lat="48.557832" lon="16.564061">
        <ele>243.295669</ele>
        <time>2020-07-01T04:16:24.008Z</time>
      </trkpt>
      <trkpt lat="48.557787" lon="16.563914">
        <ele>243.323108</ele>
        <time>2020-07-01T04:16:25.970Z</time>
      </trkpt>
      <trkpt lat="48.557739" lon="16.563771">
        <ele>243.350273</ele>
        <time>2020-07-01T04:16:27.995Z</time>
      </trkpt>
      <trkpt lat="48.557690" lon="16.563633">
        <ele>243.376805</ele>
        <time>2020-07-01T04:16:29.962Z</time>
      </trkpt>
      <trkpt lat="48.557642" lon="16.563494">
        <ele>243.403367</ele>
        <time>2020-07-01T04:16:31.978Z</time>
      </trkpt>
      <trkpt lat="48.557591" lon="16.563356">
        <ele>243.430144</ele>
        <time>2020-07-01T04:16:33.964Z</time>
      </trkpt>
      <trkpt lat="48.557518" lon="16.563246">
        <ele>243.456535</ele>
        <time>2020-07-01T04:16:35.962Z</time>
      </trkpt>
      <trkpt lat="48.557444" lon="16.563112">
        <ele>243.486102</ele>
        <time>2020-07-01T04:16:37.961Z</time>
      </trkpt>
      <trkpt lat="48.557374" lon="16.562935">
        <ele>243.521035</ele>
        <time>2020-07-01T04:16:39.965Z</time>
      </trkpt>
      <trkpt lat="48.557298" lon="16.562742">
        <ele>243.559083</ele>
        <time>2020-07-01T04:16:41.970Z</time>
      </trkpt>
      <trkpt lat="48.557239" lon="16.562573">
        <ele>243.591454</ele>
        <time>2020-07-01T04:16:44.001Z</time>
      </trkpt>
      <trkpt lat="48.557210" lon="16.562428">
        <ele>243.617117</ele>
        <time>2020-07-01T04:16:45.968Z</time>
      </trkpt>
      <trkpt lat="48.557188" lon="16.562264">
        <ele>243.645467</ele>
        <time>2020-07-01T04:16:48.984Z</time>
      </trkpt>
      <trkpt lat="48.557185" lon="16.562111">
        <ele>243.671400</ele>
        <time>2020-07-01T04:16:51.955Z</time>
      </trkpt>
      <trkpt lat="48.557136" lon="16.561954">
        <ele>243.696379</ele>
        <time>2020-07-01T04:16:54.992Z</time>
      </trkpt>
      <trkpt lat="48.557068" lon="16.561785">
        <ele>243.709673</ele>
        <time>2020-07-01T04:16:57.989Z</time>
      </trkpt>
      <trkpt lat="48.557001" lon="16.561607">
        <ele>243.723436</ele>
        <time>2020-07-01T04:17:00.993Z</time>
      </trkpt>
      <trkpt lat="48.556960" lon="16.561481">
        <ele>243.732873</ele>
        <time>2020-07-01T04:17:02.999Z</time>
      </trkpt>
      <trkpt lat="48.556901" lon="16.561299">
        <ele>243.746495</ele>
        <time>2020-07-01T04:17:06.003Z</time>
      </trkpt>
      <trkpt lat="48.556861" lon="16.561172">
        <ele>243.755948</ele>
        <time>2020-07-01T04:17:07.975Z</time>
      </trkpt>
      <trkpt lat="48.556841" lon="16.561036">
        <ele>243.765312</ele>
        <time>2020-07-01T04:17:09.998Z</time>
      </trkpt>
      <trkpt lat="48.556819" lon="16.560897">
        <ele>243.774918</ele>
        <time>2020-07-01T04:17:11.987Z</time>
      </trkpt>
      <trkpt lat="48.556791" lon="16.560757">
        <ele>243.784748</ele>
        <time>2020-07-01T04:17:13.972Z</time>
      </trkpt>
      <trkpt lat="48.556763" lon="16.560616">
        <ele>243.794643</ele>
        <time>2020-07-01T04:17:16.003Z</time>
      </trkpt>
      <trkpt lat="48.556739" lon="16.560474">
        <ele>243.804493</ele>
        <time>2020-07-01T04:17:18.011Z</time>
      </trkpt>
      <trkpt lat="48.556714" lon="16.560329">
        <ele>243.814565</ele>
        <time>2020-07-01T04:17:20.021Z</time>
      </trkpt>
      <trkpt lat="48.556688" lon="16.560183">
        <ele>243.824727</ele>
        <time>2020-07-01T04:17:21.998Z</time>
      </trkpt>
      <trkpt lat="48.556654" lon="16.560038">
        <ele>243.835067</ele>
        <time>2020-07-01T04:17:23.983Z</time>
      </trkpt>
      <trkpt lat="48.556617" lon="16.559894">
        <ele>243.845449</ele>
        <time>2020-07-01T04:17:25.972Z</time>
      </trkpt>
      <trkpt lat="48.556586" lon="16.559745">
        <ele>243.855947</ele>
        <time>2020-07-01T04:17:27.976Z</time>
      </trkpt>
      <trkpt lat="48.556566" lon="16.559592">
        <ele>243.866430</ele>
        <time>2020-07-01T04:17:30.004Z</time>
      </trkpt>
      <trkpt lat="48.556547" lon="16.559443">
        <ele>243.878436</ele>
        <time>2020-07-01T04:17:32.003Z</time>
      </trkpt>
      <trkpt lat="48.556525" lon="16.559292">
        <ele>243.925753</ele>
        <time>2020-07-01T04:17:33.978Z</time>
      </trkpt>
      <trkpt lat="48.556503" lon="16.559142">
        <ele>243.972772</ele>
        <time>2020-07-01T04:17:35.976Z</time>
      </trkpt>
      <trkpt lat="48.556476" lon="16.558994">
        <ele>244.019753</ele>
        <time>2020-07-01T04:17:37.978Z</time>
      </trkpt>
      <trkpt lat="48.556448" lon="16.558843">
        <ele>244.067743</ele>
        <time>2020-07-01T04:17:39.993Z</time>
      </trkpt>
      <trkpt lat="48.556419" lon="16.558687">
        <ele>244.117332</ele>
        <time>2020-07-01T04:17:41.995Z</time>
      </trkpt>
      <trkpt lat="48.556384" lon="16.558526">
        <ele>244.169192</ele>
        <time>2020-07-01T04:17:44.003Z</time>
      </trkpt>
      <trkpt lat="48.556337" lon="16.558359">
        <ele>244.224728</ele>
        <time>2020-07-01T04:17:45.989Z</time>
      </trkpt>
      <trkpt lat="48.556285" lon="16.558177">
        <ele>244.285394</ele>
        <time>2020-07-01T04:17:47.983Z</time>
      </trkpt>
      <trkpt lat="48.556238" lon="16.557987">
        <ele>244.347468</ele>
        <time>2020-07-01T04:17:49.996Z</time>
      </trkpt>
      <trkpt lat="48.556219" lon="16.557811">
        <ele>244.402042</ele>
        <time>2020-07-01T04:17:51.968Z</time>
      </trkpt>
      <trkpt lat="48.556211" lon="16.557664">
        <ele>244.447181</ele>
        <time>2020-07-01T04:17:53.973Z</time>
      </trkpt>
      <trkpt lat="48.556199" lon="16.557492">
        <ele>244.500110</ele>
        <time>2020-07-01T04:17:57.020Z</time>
      </trkpt>
      <trkpt lat="48.556179" lon="16.557321">
        <ele>244.553253</ele>
        <time>2020-07-01T04:18:00.993Z</time>
      </trkpt>
      <trkpt lat="48.556147" lon="16.557143">
        <ele>244.609700</ele>
        <time>2020-07-01T04:18:04.989Z</time>
      </trkpt>
      <trkpt lat="48.556115" lon="16.557012">
        <ele>244.652434</ele>
        <time>2020-07-01T04:18:06.991Z</time>
      </trkpt>
      <trkpt lat="48.556086" lon="16.556878">
        <ele>244.695579</ele>
        <time>2020-07-01T04:18:08.990Z</time>
      </trkpt>
      <trkpt lat="48.556075" lon="16.556733">
        <ele>244.742305</ele>
        <time>2020-07-01T04:18:10.976Z</time>
      </trkpt>
      <trkpt lat="48.556091" lon="16.556551">
        <ele>244.802057</ele>
        <time>2020-07-01T04:18:13.009Z</time>
      </trkpt>
      <trkpt lat="48.556118" lon="16.556364">
        <ele>244.864347</ele>
        <time>2020-07-01T04:18:14.962Z</time>
      </trkpt>
      <trkpt lat="48.556149" lon="16.556186">
        <ele>244.924248</ele>
        <time>2020-07-01T04:18:16.998Z</time>
      </trkpt>
      <trkpt lat="48.556189" lon="16.556019">
        <ele>244.982047</ele>
        <time>2020-07-01T04:18:18.964Z</time>
      </trkpt>
      <trkpt lat="48.556237" lon="16.555855">
        <ele>245.040406</ele>
        <time>2020-07-01T04:18:20.993Z</time>
      </trkpt>
      <trkpt lat="48.556292" lon="16.555700">
        <ele>245.097642</ele>
        <time>2020-07-01T04:18:22.974Z</time>
      </trkpt>
      <trkpt lat="48.556360" lon="16.555539">
        <ele>245.159798</ele>
        <time>2020-07-01T04:18:24.976Z</time>
      </trkpt>
      <trkpt lat="48.556431" lon="16.555395">
        <ele>245.218236</ele>
        <time>2020-07-01T04:18:26.971Z</time>
      </trkpt>
      <trkpt lat="48.556506" lon="16.555260">
        <ele>245.275596</ele>
        <time>2020-07-01T04:18:28.999Z</time>
      </trkpt>
      <trkpt lat="48.556583" lon="16.555137">
        <ele>245.330694</ele>
        <time>2020-07-01T04:18:30.960Z</time>
      </trkpt>
      <trkpt lat="48.556660" lon="16.555017">
        <ele>245.385087</ele>
        <time>2020-07-01T04:18:32.970Z</time>
      </trkpt>
      <trkpt lat="48.556738" lon="16.554897">
        <ele>245.439823</ele>
        <time>2020-07-01T04:18:34.969Z</time>
      </trkpt>
      <trkpt lat="48.556824" lon="16.554778">
        <ele>245.497164</ele>
        <time>2020-07-01T04:18:36.970Z</time>
      </trkpt>
      <trkpt lat="48.556908" lon="16.554662">
        <ele>245.553120</ele>
        <time>2020-07-01T04:18:38.979Z</time>
      </trkpt>
      <trkpt lat="48.556991" lon="16.554548">
        <ele>245.610697</ele>
        <time>2020-07-01T04:18:41.006Z</time>
      </trkpt>
      <trkpt lat="48.557073" lon="16.554432">
        <ele>245.674228</ele>
        <time>2020-07-01T04:18:43.005Z</time>
      </trkpt>
      <trkpt lat="48.557151" lon="16.554313">
        <ele>245.736920</ele>
        <time>2020-07-01T04:18:45.221Z</time>
      </trkpt>
      <trkpt lat="48.557236" lon="16.554203">
        <ele>245.800216</ele>
        <time>2020-07-01T04:18:46.987Z</time>
      </trkpt>
      <trkpt lat="48.557318" lon="16.554087">
        <ele>245.863747</ele>
        <time>2020-07-01T04:18:48.990Z</time>
      </trkpt>
      <trkpt lat="48.557399" lon="16.553969">
        <ele>245.927383</ele>
        <time>2020-07-01T04:18:50.997Z</time>
      </trkpt>
      <trkpt lat="48.557480" lon="16.553852">
        <ele>245.990760</ele>
        <time>2020-07-01T04:18:52.974Z</time>
      </trkpt>
      <trkpt lat="48.557562" lon="16.553730">
        <ele>246.055846</ele>
        <time>2020-07-01T04:18:54.980Z</time>
      </trkpt>
      <trkpt lat="48.557640" lon="16.553610">
        <ele>246.118804</ele>
        <time>2020-07-01T04:18:56.990Z</time>
      </trkpt>
      <trkpt lat="48.557722" lon="16.553492">
        <ele>246.182849</ele>
        <time>2020-07-01T04:18:58.994Z</time>
      </trkpt>
      <trkpt lat="48.557807" lon="16.553376">
        <ele>246.247628</ele>
        <time>2020-07-01T04:19:00.975Z</time>
      </trkpt>
      <trkpt lat="48.557890" lon="16.553257">
        <ele>246.312340</ele>
        <time>2020-07-01T04:19:02.996Z</time>
      </trkpt>
      <trkpt lat="48.557974" lon="16.553139">
        <ele>246.377208</ele>
        <time>2020-07-01T04:19:04.965Z</time>
      </trkpt>
      <trkpt lat="48.558055" lon="16.553024">
        <ele>246.440070</ele>
        <time>2020-07-01T04:19:07.003Z</time>
      </trkpt>
      <trkpt lat="48.558137" lon="16.552908">
        <ele>246.503600</ele>
        <time>2020-07-01T04:19:08.999Z</time>
      </trkpt>
      <trkpt lat="48.558218" lon="16.552791">
        <ele>246.566977</ele>
        <time>2020-07-01T04:19:10.969Z</time>
      </trkpt>
      <trkpt lat="48.558295" lon="16.552674">
        <ele>246.618365</ele>
        <time>2020-07-01T04:19:13.010Z</time>
      </trkpt>
      <trkpt lat="48.558372" lon="16.552561">
        <ele>246.646554</ele>
        <time>2020-07-01T04:19:15.005Z</time>
      </trkpt>
      <trkpt lat="48.558450" lon="16.552445">
        <ele>246.675294</ele>
        <time>2020-07-01T04:19:16.975Z</time>
      </trkpt>
      <trkpt lat="48.558519" lon="16.552319">
        <ele>246.703718</ele>
        <time>2020-07-01T04:19:18.990Z</time>
      </trkpt>
      <trkpt lat="48.558488" lon="16.552170">
        <ele>246.730864</ele>
        <time>2020-07-01T04:19:22.969Z</time>
      </trkpt>
      <trkpt lat="48.558389" lon="16.552049">
        <ele>246.764302</ele>
        <time>2020-07-01T04:19:25.961Z</time>
      </trkpt>
      <trkpt lat="48.558284" lon="16.551959">
        <ele>246.796003</ele>
        <time>2020-07-01T04:19:27.976Z</time>
      </trkpt>
      <trkpt lat="48.558169" lon="16.551862">
        <ele>246.830589</ele>
        <time>2020-07-01T04:19:29.964Z</time>
      </trkpt>
      <trkpt lat="48.558065" lon="16.551762">
        <ele>246.862961</ele>
        <time>2020-07-01T04:19:31.998Z</time>
      </trkpt>
      <trkpt lat="48.557963" lon="16.551669">
        <ele>246.894246</ele>
        <time>2020-07-01T04:19:33.979Z</time>
      </trkpt>
      <trkpt lat="48.557871" lon="16.551577">
        <ele>246.923217</ele>
        <time>2020-07-01T04:19:35.986Z</time>
      </trkpt>
      <trkpt lat="48.557769" lon="16.551485">
        <ele>246.954412</ele>
        <time>2020-07-01T04:19:37.968Z</time>
      </trkpt>
      <trkpt lat="48.557659" lon="16.551393">
        <ele>246.987429</ele>
        <time>2020-07-01T04:19:39.966Z</time>
      </trkpt>
      <trkpt lat="48.557548" lon="16.551318">
        <ele>247.019360</ele>
        <time>2020-07-01T04:19:41.967Z</time>
      </trkpt>
      <trkpt lat="48.557464" lon="16.551205">
        <ele>247.048894</ele>
        <time>2020-07-01T04:19:43.963Z</time>
      </trkpt>
      <trkpt lat="48.557474" lon="16.551060">
        <ele>247.074233</ele>
        <time>2020-07-01T04:19:45.971Z</time>
      </trkpt>
      <trkpt lat="48.557552" lon="16.550959">
        <ele>247.088363</ele>
        <time>2020-07-01T04:19:47.962Z</time>
      </trkpt>
      <trkpt lat="48.557625" lon="16.550847">
        <ele>247.097694</ele>
        <time>2020-07-01T04:19:49.983Z</time>
      </trkpt>
      <trkpt lat="48.557696" lon="16.550736">
        <ele>247.106858</ele>
        <time>2020-07-01T04:19:52.000Z</time>
      </trkpt>
      <trkpt lat="48.557769" lon="16.550628">
        <ele>247.116022</ele>
        <time>2020-07-01T04:19:53.986Z</time>
      </trkpt>
      <trkpt lat="48.557842" lon="16.550515">
        <ele>247.125397</ele>
        <time>2020-07-01T04:19:56.021Z</time>
      </trkpt>
      <trkpt lat="48.557918" lon="16.550406">
        <ele>247.134796</ele>
        <time>2020-07-01T04:19:57.962Z</time>
      </trkpt>
      <trkpt lat="48.557990" lon="16.550290">
        <ele>247.144236</ele>
        <time>2020-07-01T04:19:59.983Z</time>
      </trkpt>
      <trkpt lat="48.558049" lon="16.550174">
        <ele>247.152921</ele>
        <time>2020-07-01T04:20:01.965Z</time>
      </trkpt>
      <trkpt lat="48.558100" lon="16.550051">
        <ele>247.161538</ele>
        <time>2020-07-01T04:20:03.963Z</time>
      </trkpt>
      <trkpt lat="48.558134" lon="16.549901">
        <ele>247.170950</ele>
        <time>2020-07-01T04:20:05.980Z</time>
      </trkpt>
      <trkpt lat="48.558134" lon="16.549743">
        <ele>247.180330</ele>
        <time>2020-07-01T04:20:07.965Z</time>
      </trkpt>
      <trkpt lat="48.558084" lon="16.549616">
        <ele>247.189102</ele>
        <time>2020-07-01T04:20:09.983Z</time>
      </trkpt>
      <trkpt lat="48.558075" lon="16.549453">
        <ele>247.198812</ele>
        <time>2020-07-01T04:20:12.984Z</time>
      </trkpt>
      <trkpt lat="48.558146" lon="16.549359">
        <ele>247.207280</ele>
        <time>2020-07-01T04:20:15.978Z</time>
      </trkpt>
      <trkpt lat="48.558241" lon="16.549326">
        <ele>247.216023</ele>
        <time>2020-07-01T04:20:18.977Z</time>
      </trkpt>
      <trkpt lat="48.558353" lon="16.549286">
        <ele>247.226346</ele>
        <time>2020-07-01T04:20:22.997Z</time>
      </trkpt>
      <trkpt lat="48.558463" lon="16.549255">
        <ele>247.236382</ele>
        <time>2020-07-01T04:20:26.975Z</time>
      </trkpt>
      <trkpt lat="48.558567" lon="16.549196">
        <ele>247.296763</ele>
        <time>2020-07-01T04:20:31.009Z</time>
      </trkpt>
      <trkpt lat="48.558655" lon="16.549096">
        <ele>247.456663</ele>
        <time>2020-07-01T04:20:34.978Z</time>
      </trkpt>
      <trkpt lat="48.558717" lon="16.548945">
        <ele>247.627451</ele>
        <time>2020-07-01T04:20:38.987Z</time>
      </trkpt>
      <trkpt lat="48.558778" lon="16.548820">
        <ele>247.776717</ele>
        <time>2020-07-01T04:20:42.962Z</time>
      </trkpt>
      <trkpt lat="48.558846" lon="16.548702">
        <ele>247.927094</ele>
        <time>2020-07-01T04:20:47.987Z</time>
      </trkpt>
      <trkpt lat="48.558911" lon="16.548580">
        <ele>248.077622</ele>
        <time>2020-07-01T04:20:52.976Z</time>
      </trkpt>
      <trkpt lat="48.558972" lon="16.548448">
        <ele>248.232354</ele>
        <time>2020-07-01T04:20:57.969Z</time>
      </trkpt>
      <trkpt lat="48.559024" lon="16.548337">
        <ele>248.363058</ele>
        <time>2020-07-01T04:21:01.993Z</time>
      </trkpt>
      <trkpt lat="48.559078" lon="16.548208">
        <ele>248.509759</ele>
        <time>2020-07-01T04:21:06.997Z</time>
      </trkpt>
      <trkpt lat="48.559147" lon="16.548110">
        <ele>248.647278</ele>
        <time>2020-07-01T04:21:11.966Z</time>
      </trkpt>
      <trkpt lat="48.559234" lon="16.548015">
        <ele>248.803157</ele>
        <time>2020-07-01T04:21:16.990Z</time>
      </trkpt>
      <trkpt lat="48.559315" lon="16.547905">
        <ele>248.961311</ele>
        <time>2020-07-01T04:21:21.996Z</time>
      </trkpt>
      <trkpt lat="48.559358" lon="16.547785">
        <ele>249.092463</ele>
        <time>2020-07-01T04:21:26.019Z</time>
      </trkpt>
      <trkpt lat="48.559361" lon="16.547639">
        <ele>249.232852</ele>
        <time>2020-07-01T04:21:30.970Z</time>
      </trkpt>
      <trkpt lat="48.559262" lon="16.547586">
        <ele>249.385374</ele>
        <time>2020-07-01T04:21:35.977Z</time>
      </trkpt>
      <trkpt lat="48.559181" lon="16.547654">
        <ele>249.519937</ele>
        <time>2020-07-01T04:21:42.982Z</time>
      </trkpt>
      <trkpt lat="48.559102" lon="16.547732">
        <ele>249.656980</ele>
        <time>2020-07-01T04:21:47.987Z</time>
      </trkpt>
      <trkpt lat="48.559012" lon="16.547779">
        <ele>249.795261</ele>
        <time>2020-07-01T04:21:52.970Z</time>
      </trkpt>
      <trkpt lat="48.558918" lon="16.547830">
        <ele>249.998592</ele>
        <time>2020-07-01T04:21:58.006Z</time>
      </trkpt>
      <trkpt lat="48.558823" lon="16.547868">
        <ele>250.238774</ele>
        <time>2020-07-01T04:22:02.962Z</time>
      </trkpt>
      <trkpt lat="48.558727" lon="16.547895">
        <ele>250.477432</ele>
        <time>2020-07-01T04:22:07.975Z</time>
      </trkpt>
      <trkpt lat="48.558628" lon="16.547936">
        <ele>250.728317</ele>
        <time>2020-07-01T04:22:12.971Z</time>
      </trkpt>
      <trkpt lat="48.558537" lon="16.548005">
        <ele>250.977160</ele>
        <time>2020-07-01T04:22:16.996Z</time>
      </trkpt>
      <trkpt lat="48.558453" lon="16.548071">
        <ele>251.208560</ele>
        <time>2020-07-01T04:22:19.974Z</time>
      </trkpt>
      <trkpt lat="48.558352" lon="16.548144">
        <ele>251.482198</ele>
        <time>2020-07-01T04:22:22.971Z</time>
      </trkpt>
      <trkpt lat="48.558234" lon="16.548227">
        <ele>251.800316</ele>
        <time>2020-07-01T04:22:25.984Z</time>
      </trkpt>
      <trkpt lat="48.558136" lon="16.548241">
        <ele>252.040900</ele>
        <time>2020-07-01T04:22:27.969Z</time>
      </trkpt>
      <trkpt lat="48.558035" lon="16.548253">
        <ele>252.288510</ele>
        <time>2020-07-01T04:22:29.995Z</time>
      </trkpt>
      <trkpt lat="48.557937" lon="16.548336">
        <ele>252.563090</ele>
        <time>2020-07-01T04:22:31.970Z</time>
      </trkpt>
      <trkpt lat="48.557832" lon="16.548441">
        <ele>252.870832</ele>
        <time>2020-07-01T04:22:33.963Z</time>
      </trkpt>
      <trkpt lat="48.557712" lon="16.548552">
        <ele>253.214716</ele>
        <time>2020-07-01T04:22:35.975Z</time>
      </trkpt>
      <trkpt lat="48.557578" lon="16.548664">
        <ele>253.588990</ele>
        <time>2020-07-01T04:22:37.991Z</time>
      </trkpt>
      <trkpt lat="48.557424" lon="16.548779">
        <ele>254.008835</ele>
        <time>2020-07-01T04:22:39.994Z</time>
      </trkpt>
      <trkpt lat="48.557342" lon="16.548837">
        <ele>254.230121</ele>
        <time>2020-07-01T04:22:40.983Z</time>
      </trkpt>
      <trkpt lat="48.557179" lon="16.548825">
        <ele>254.312224</ele>
        <time>2020-07-01T04:22:42.987Z</time>
      </trkpt>
      <trkpt lat="48.557018" lon="16.548727">
        <ele>254.381024</ele>
        <time>2020-07-01T04:22:44.976Z</time>
      </trkpt>
      <trkpt lat="48.556856" lon="16.548628">
        <ele>254.450289</ele>
        <time>2020-07-01T04:22:46.960Z</time>
      </trkpt>
      <trkpt lat="48.556702" lon="16.548506">
        <ele>254.519212</ele>
        <time>2020-07-01T04:22:48.994Z</time>
      </trkpt>
      <trkpt lat="48.556555" lon="16.548367">
        <ele>254.587949</ele>
        <time>2020-07-01T04:22:51.002Z</time>
      </trkpt>
      <trkpt lat="48.556410" lon="16.548221">
        <ele>254.657017</ele>
        <time>2020-07-01T04:22:53.001Z</time>
      </trkpt>
      <trkpt lat="48.556261" lon="16.548086">
        <ele>254.725881</ele>
        <time>2020-07-01T04:22:54.995Z</time>
      </trkpt>
      <trkpt lat="48.556116" lon="16.547939">
        <ele>254.795095</ele>
        <time>2020-07-01T04:22:56.964Z</time>
      </trkpt>
      <trkpt lat="48.555971" lon="16.547788">
        <ele>254.864899</ele>
        <time>2020-07-01T04:22:58.989Z</time>
      </trkpt>
      <trkpt lat="48.555822" lon="16.547645">
        <ele>254.934866</ele>
        <time>2020-07-01T04:23:00.971Z</time>
      </trkpt>
      <trkpt lat="48.555670" lon="16.547501">
        <ele>255.027400</ele>
        <time>2020-07-01T04:23:02.999Z</time>
      </trkpt>
      <trkpt lat="48.555519" lon="16.547358">
        <ele>255.133943</ele>
        <time>2020-07-01T04:23:04.996Z</time>
      </trkpt>
      <trkpt lat="48.555373" lon="16.547215">
        <ele>255.237966</ele>
        <time>2020-07-01T04:23:06.962Z</time>
      </trkpt>
      <trkpt lat="48.555233" lon="16.547067">
        <ele>255.340119</ele>
        <time>2020-07-01T04:23:08.984Z</time>
      </trkpt>
      <trkpt lat="48.555098" lon="16.546921">
        <ele>255.439375</ele>
        <time>2020-07-01T04:23:10.994Z</time>
      </trkpt>
      <trkpt lat="48.554963" lon="16.546786">
        <ele>255.536162</ele>
        <time>2020-07-01T04:23:12.983Z</time>
      </trkpt>
      <trkpt lat="48.554822" lon="16.546661">
        <ele>255.633899</ele>
        <time>2020-07-01T04:23:14.990Z</time>
      </trkpt>
      <trkpt lat="48.554686" lon="16.546540">
        <ele>255.728256</ele>
        <time>2020-07-01T04:23:16.962Z</time>
      </trkpt>
      <trkpt lat="48.554554" lon="16.546424">
        <ele>255.819551</ele>
        <time>2020-07-01T04:23:19.009Z</time>
      </trkpt>
      <trkpt lat="48.554445" lon="16.546279">
        <ele>255.906377</ele>
        <time>2020-07-01T04:23:20.989Z</time>
      </trkpt>
      <trkpt lat="48.554399" lon="16.546088">
        <ele>255.986807</ele>
        <time>2020-07-01T04:23:22.998Z</time>
      </trkpt>
      <trkpt lat="48.554426" lon="16.545890">
        <ele>256.080623</ele>
        <time>2020-07-01T04:23:24.972Z</time>
      </trkpt>
      <trkpt lat="48.554435" lon="16.545708">
        <ele>256.188924</ele>
        <time>2020-07-01T04:23:26.980Z</time>
      </trkpt>
      <trkpt lat="48.554426" lon="16.545527">
        <ele>256.296634</ele>
        <time>2020-07-01T04:23:28.990Z</time>
      </trkpt>
      <trkpt lat="48.554413" lon="16.545354">
        <ele>256.399953</ele>
        <time>2020-07-01T04:23:30.973Z</time>
      </trkpt>
      <trkpt lat="48.554396" lon="16.545206">
        <ele>256.489090</ele>
        <time>2020-07-01T04:23:33.000Z</time>
      </trkpt>
      <trkpt lat="48.554376" lon="16.545068">
        <ele>256.572920</ele>
        <time>2020-07-01T04:23:34.981Z</time>
      </trkpt>
      <trkpt lat="48.554340" lon="16.544885">
        <ele>256.686208</ele>
        <time>2020-07-01T04:23:37.991Z</time>
      </trkpt>
      <trkpt lat="48.554300" lon="16.544712">
        <ele>256.794951</ele>
        <time>2020-07-01T04:23:41.000Z</time>
      </trkpt>
      <trkpt lat="48.554255" lon="16.544543">
        <ele>256.903047</ele>
        <time>2020-07-01T04:23:43.962Z</time>
      </trkpt>
      <trkpt lat="48.554206" lon="16.544372">
        <ele>257.013621</ele>
        <time>2020-07-01T04:23:46.976Z</time>
      </trkpt>
      <trkpt lat="48.554147" lon="16.544200">
        <ele>257.128579</ele>
        <time>2020-07-01T04:23:49.983Z</time>
      </trkpt>
      <trkpt lat="48.554074" lon="16.544032">
        <ele>257.247834</ele>
        <time>2020-07-01T04:23:52.970Z</time>
      </trkpt>
      <trkpt lat="48.554024" lon="16.543914">
        <ele>257.330976</ele>
        <time>2020-07-01T04:23:54.980Z</time>
      </trkpt>
      <trkpt lat="48.553971" lon="16.543792">
        <ele>257.417572</ele>
        <time>2020-07-01T04:23:56.980Z</time>
      </trkpt>
      <trkpt lat="48.553909" lon="16.543675">
        <ele>257.506510</ele>
        <time>2020-07-01T04:23:58.993Z</time>
      </trkpt>
      <trkpt lat="48.553833" lon="16.543559">
        <ele>257.603364</ele>
        <time>2020-07-01T04:24:00.993Z</time>
      </trkpt>
      <trkpt lat="48.553751" lon="16.543437">
        <ele>257.630517</ele>
        <time>2020-07-01T04:24:03.021Z</time>
      </trkpt>
      <trkpt lat="48.553662" lon="16.543309">
        <ele>257.588119</ele>
        <time>2020-07-01T04:24:05.002Z</time>
      </trkpt>
      <trkpt lat="48.553561" lon="16.543182">
        <ele>257.542779</ele>
        <time>2020-07-01T04:24:06.985Z</time>
      </trkpt>
      <trkpt lat="48.553454" lon="16.543040">
        <ele>257.493639</ele>
        <time>2020-07-01T04:24:08.999Z</time>
      </trkpt>
      <trkpt lat="48.553338" lon="16.542893">
        <ele>257.441398</ele>
        <time>2020-07-01T04:24:10.990Z</time>
      </trkpt>
      <trkpt lat="48.553214" lon="16.542740">
        <ele>257.386157</ele>
        <time>2020-07-01T04:24:12.978Z</time>
      </trkpt>
      <trkpt lat="48.553088" lon="16.542574">
        <ele>257.328473</ele>
        <time>2020-07-01T04:24:14.982Z</time>
      </trkpt>
      <trkpt lat="48.552960" lon="16.542398">
        <ele>257.268755</ele>
        <time>2020-07-01T04:24:16.987Z</time>
      </trkpt>
      <trkpt lat="48.552832" lon="16.542210">
        <ele>257.207159</ele>
        <time>2020-07-01T04:24:18.963Z</time>
      </trkpt>
      <trkpt lat="48.552770" lon="16.542108">
        <ele>257.175531</ele>
        <time>2020-07-01T04:24:19.988Z</time>
      </trkpt>
      <trkpt lat="48.552711" lon="16.542006">
        <ele>257.144593</ele>
        <time>2020-07-01T04:24:20.991Z</time>
      </trkpt>
      <trkpt lat="48.552599" lon="16.541798">
        <ele>257.083355</ele>
        <time>2020-07-01T04:24:22.972Z</time>
      </trkpt>
      <trkpt lat="48.552493" lon="16.541594">
        <ele>257.034277</ele>
        <time>2020-07-01T04:24:25.001Z</time>
      </trkpt>
      <trkpt lat="48.552393" lon="16.541390">
        <ele>257.061325</ele>
        <time>2020-07-01T04:24:26.982Z</time>
      </trkpt>
      <trkpt lat="48.552305" lon="16.541198">
        <ele>257.086209</ele>
        <time>2020-07-01T04:24:28.991Z</time>
      </trkpt>
      <trkpt lat="48.552227" lon="16.541014">
        <ele>257.109491</ele>
        <time>2020-07-01T04:24:30.993Z</time>
      </trkpt>
      <trkpt lat="48.552158" lon="16.540854">
        <ele>257.129838</ele>
        <time>2020-07-01T04:24:32.992Z</time>
      </trkpt>
      <trkpt lat="48.552090" lon="16.540711">
        <ele>257.148600</ele>
        <time>2020-07-01T04:24:34.993Z</time>
      </trkpt>
      <trkpt lat="48.552031" lon="16.540573">
        <ele>257.166105</ele>
        <time>2020-07-01T04:24:36.971Z</time>
      </trkpt>
      <trkpt lat="48.551978" lon="16.540449">
        <ele>257.181832</ele>
        <time>2020-07-01T04:24:39.000Z</time>
      </trkpt>
      <trkpt lat="48.551910" lon="16.540281">
        <ele>257.202815</ele>
        <time>2020-07-01T04:24:41.994Z</time>
      </trkpt>
      <trkpt lat="48.551851" lon="16.540124">
        <ele>257.222052</ele>
        <time>2020-07-01T04:24:44.975Z</time>
      </trkpt>
      <trkpt lat="48.551791" lon="16.539971">
        <ele>257.241001</ele>
        <time>2020-07-01T04:24:47.981Z</time>
      </trkpt>
      <trkpt lat="48.551733" lon="16.539818">
        <ele>257.259788</ele>
        <time>2020-07-01T04:24:51.009Z</time>
      </trkpt>
      <trkpt lat="48.551666" lon="16.539665">
        <ele>257.279335</ele>
        <time>2020-07-01T04:24:53.980Z</time>
      </trkpt>
      <trkpt lat="48.551593" lon="16.539506">
        <ele>257.299954</ele>
        <time>2020-07-01T04:24:56.988Z</time>
      </trkpt>
      <trkpt lat="48.551518" lon="16.539340">
        <ele>257.321523</ele>
        <time>2020-07-01T04:24:59.989Z</time>
      </trkpt>
      <trkpt lat="48.551467" lon="16.539214">
        <ele>257.340308</ele>
        <time>2020-07-01T04:25:01.969Z</time>
      </trkpt>
      <trkpt lat="48.551417" lon="16.539089">
        <ele>257.358885</ele>
        <time>2020-07-01T04:25:04.009Z</time>
      </trkpt>
      <trkpt lat="48.551358" lon="16.538963">
        <ele>257.378517</ele>
        <time>2020-07-01T04:25:05.983Z</time>
      </trkpt>
      <trkpt lat="48.551301" lon="16.538831">
        <ele>257.398564</ele>
        <time>2020-07-01T04:25:07.979Z</time>
      </trkpt>
      <trkpt lat="48.551242" lon="16.538696">
        <ele>257.419140</ele>
        <time>2020-07-01T04:25:09.988Z</time>
      </trkpt>
      <trkpt lat="48.551181" lon="16.538555">
        <ele>257.440566</ele>
        <time>2020-07-01T04:25:11.971Z</time>
      </trkpt>
      <trkpt lat="48.551121" lon="16.538415">
        <ele>257.461780</ele>
        <time>2020-07-01T04:25:13.975Z</time>
      </trkpt>
      <trkpt lat="48.551059" lon="16.538274">
        <ele>257.483311</ele>
        <time>2020-07-01T04:25:15.981Z</time>
      </trkpt>
      <trkpt lat="48.550997" lon="16.538129">
        <ele>257.505268</ele>
        <time>2020-07-01T04:25:17.973Z</time>
      </trkpt>
      <trkpt lat="48.550932" lon="16.537980">
        <ele>257.527966</ele>
        <time>2020-07-01T04:25:20.000Z</time>
      </trkpt>
      <trkpt lat="48.550863" lon="16.537830">
        <ele>257.551201</ele>
        <time>2020-07-01T04:25:22.015Z</time>
      </trkpt>
      <trkpt lat="48.550795" lon="16.537680">
        <ele>257.574326</ele>
        <time>2020-07-01T04:25:23.987Z</time>
      </trkpt>
      <trkpt lat="48.550726" lon="16.537524">
        <ele>257.598191</ele>
        <time>2020-07-01T04:25:25.987Z</time>
      </trkpt>
      <trkpt lat="48.550655" lon="16.537369">
        <ele>257.622167</ele>
        <time>2020-07-01T04:25:27.992Z</time>
      </trkpt>
      <trkpt lat="48.550579" lon="16.537207">
        <ele>257.647424</ele>
        <time>2020-07-01T04:25:29.990Z</time>
      </trkpt>
      <trkpt lat="48.550499" lon="16.537057">
        <ele>257.668373</ele>
        <time>2020-07-01T04:25:31.972Z</time>
      </trkpt>
      <trkpt lat="48.550417" lon="16.536916">
        <ele>257.677433</ele>
        <time>2020-07-01T04:25:33.966Z</time>
      </trkpt>
      <trkpt lat="48.550334" lon="16.536777">
        <ele>257.686469</ele>
        <time>2020-07-01T04:25:36.000Z</time>
      </trkpt>
      <trkpt lat="48.550248" lon="16.536645">
        <ele>257.695409</ele>
        <time>2020-07-01T04:25:37.985Z</time>
      </trkpt>
      <trkpt lat="48.550162" lon="16.536518">
        <ele>257.704179</ele>
        <time>2020-07-01T04:25:40.002Z</time>
      </trkpt>
      <trkpt lat="48.550077" lon="16.536391">
        <ele>257.712898</ele>
        <time>2020-07-01T04:25:41.985Z</time>
      </trkpt>
      <trkpt lat="48.549991" lon="16.536274">
        <ele>257.721337</ele>
        <time>2020-07-01T04:25:43.976Z</time>
      </trkpt>
      <trkpt lat="48.549900" lon="16.536171">
        <ele>257.729629</ele>
        <time>2020-07-01T04:25:45.997Z</time>
      </trkpt>
      <trkpt lat="48.549806" lon="16.536060">
        <ele>257.738330</ele>
        <time>2020-07-01T04:25:47.990Z</time>
      </trkpt>
      <trkpt lat="48.549696" lon="16.535941">
        <ele>257.748196</ele>
        <time>2020-07-01T04:25:49.996Z</time>
      </trkpt>
      <trkpt lat="48.549571" lon="16.535822">
        <ele>257.758971</ele>
        <time>2020-07-01T04:25:52.002Z</time>
      </trkpt>
      <trkpt lat="48.549468" lon="16.535654">
        <ele>257.770025</ele>
        <time>2020-07-01T04:25:53.968Z</time>
      </trkpt>
      <trkpt lat="48.549424" lon="16.535443">
        <ele>257.780704</ele>
        <time>2020-07-01T04:25:55.967Z</time>
      </trkpt>
      <trkpt lat="48.549407" lon="16.535238">
        <ele>257.790677</ele>
        <time>2020-07-01T04:25:57.971Z</time>
      </trkpt>
      <trkpt lat="48.549383" lon="16.535055">
        <ele>257.774887</ele>
        <time>2020-07-01T04:25:59.966Z</time>
      </trkpt>
      <trkpt lat="48.549325" lon="16.534950">
        <ele>257.710953</ele>
        <time>2020-07-01T04:26:01.969Z</time>
      </trkpt>
      <trkpt lat="48.549232" lon="16.535022">
        <ele>257.637149</ele>
        <time>2020-07-01T04:26:03.975Z</time>
      </trkpt>
      <trkpt lat="48.549115" lon="16.535110">
        <ele>257.544843</ele>
        <time>2020-07-01T04:26:06.002Z</time>
      </trkpt>
      <trkpt lat="48.548992" lon="16.535214">
        <ele>257.445293</ele>
        <time>2020-07-01T04:26:07.981Z</time>
      </trkpt>
      <trkpt lat="48.548857" lon="16.535325">
        <ele>257.336742</ele>
        <time>2020-07-01T04:26:09.977Z</time>
      </trkpt>
      <trkpt lat="48.548703" lon="16.535355">
        <ele>257.227080</ele>
        <time>2020-07-01T04:26:11.980Z</time>
      </trkpt>
      <trkpt lat="48.548552" lon="16.535294">
        <ele>257.116690</ele>
        <time>2020-07-01T04:26:13.995Z</time>
      </trkpt>
      <trkpt lat="48.548406" lon="16.535201">
        <ele>257.004786</ele>
        <time>2020-07-01T04:26:15.999Z</time>
      </trkpt>
      <trkpt lat="48.548259" lon="16.535112">
        <ele>256.892940</ele>
        <time>2020-07-01T04:26:17.997Z</time>
      </trkpt>
      <trkpt lat="48.548105" lon="16.535063">
        <ele>256.781792</ele>
        <time>2020-07-01T04:26:19.987Z</time>
      </trkpt>
      <trkpt lat="48.547948" lon="16.535029">
        <ele>256.669778</ele>
        <time>2020-07-01T04:26:21.981Z</time>
      </trkpt>
      <trkpt lat="48.547830" lon="16.534897">
        <ele>256.566079</ele>
        <time>2020-07-01T04:26:23.972Z</time>
      </trkpt>
      <trkpt lat="48.547779" lon="16.534675">
        <ele>256.509543</ele>
        <time>2020-07-01T04:26:25.986Z</time>
      </trkpt>
      <trkpt lat="48.547730" lon="16.534461">
        <ele>256.483341</ele>
        <time>2020-07-01T04:26:27.964Z</time>
      </trkpt>
      <trkpt lat="48.547683" lon="16.534256">
        <ele>256.458237</ele>
        <time>2020-07-01T04:26:29.974Z</time>
      </trkpt>
      <trkpt lat="48.547640" lon="16.534060">
        <ele>256.434344</ele>
        <time>2020-07-01T04:26:31.980Z</time>
      </trkpt>
      <trkpt lat="48.547594" lon="16.533873">
        <ele>256.411260</ele>
        <time>2020-07-01T04:26:34.002Z</time>
      </trkpt>
      <trkpt lat="48.547544" lon="16.533691">
        <ele>256.388459</ele>
        <time>2020-07-01T04:26:35.998Z</time>
      </trkpt>
      <trkpt lat="48.547494" lon="16.533516">
        <ele>256.366403</ele>
        <time>2020-07-01T04:26:37.983Z</time>
      </trkpt>
      <trkpt lat="48.547445" lon="16.533347">
        <ele>256.345054</ele>
        <time>2020-07-01T04:26:40.002Z</time>
      </trkpt>
      <trkpt lat="48.547396" lon="16.533181">
        <ele>256.324023</ele>
        <time>2020-07-01T04:26:41.978Z</time>
      </trkpt>
      <trkpt lat="48.547345" lon="16.533018">
        <ele>256.303161</ele>
        <time>2020-07-01T04:26:43.981Z</time>
      </trkpt>
      <trkpt lat="48.547294" lon="16.532853">
        <ele>256.282089</ele>
        <time>2020-07-01T04:26:46.002Z</time>
      </trkpt>
      <trkpt lat="48.547246" lon="16.532688">
        <ele>256.261234</ele>
        <time>2020-07-01T04:26:47.980Z</time>
      </trkpt>
      <trkpt lat="48.547200" lon="16.532527">
        <ele>256.240943</ele>
        <time>2020-07-01T04:26:49.995Z</time>
      </trkpt>
      <trkpt lat="48.547153" lon="16.532367">
        <ele>256.220688</ele>
        <time>2020-07-01T04:26:51.992Z</time>
      </trkpt>
      <trkpt lat="48.547110" lon="16.532209">
        <ele>256.190222</ele>
        <time>2020-07-01T04:26:53.973Z</time>
      </trkpt>
      <trkpt lat="48.547068" lon="16.532050">
        <ele>256.152405</ele>
        <time>2020-07-01T04:26:56.004Z</time>
      </trkpt>
      <trkpt lat="48.547027" lon="16.531890">
        <ele>256.114504</ele>
        <time>2020-07-01T04:26:58.003Z</time>
      </trkpt>
      <trkpt lat="48.546982" lon="16.531737">
        <ele>256.077520</ele>
        <time>2020-07-01T04:26:59.984Z</time>
      </trkpt>
      <trkpt lat="48.546938" lon="16.531584">
        <ele>256.040670</ele>
        <time>2020-07-01T04:27:02.003Z</time>
      </trkpt>
      <trkpt lat="48.546896" lon="16.531430">
        <ele>256.003876</ele>
        <time>2020-07-01T04:27:03.980Z</time>
      </trkpt>
      <trkpt lat="48.546853" lon="16.531274">
        <ele>255.966547</ele>
        <time>2020-07-01T04:27:05.982Z</time>
      </trkpt>
      <trkpt lat="48.546807" lon="16.531119">
        <ele>255.929023</ele>
        <time>2020-07-01T04:27:07.978Z</time>
      </trkpt>
      <trkpt lat="48.546763" lon="16.530964">
        <ele>255.891767</ele>
        <time>2020-07-01T04:27:09.982Z</time>
      </trkpt>
      <trkpt lat="48.546723" lon="16.530804">
        <ele>255.853985</ele>
        <time>2020-07-01T04:27:11.986Z</time>
      </trkpt>
      <trkpt lat="48.546686" lon="16.530649">
        <ele>255.817586</ele>
        <time>2020-07-01T04:27:13.973Z</time>
      </trkpt>
      <trkpt lat="48.546650" lon="16.530488">
        <ele>255.780046</ele>
        <time>2020-07-01T04:27:15.999Z</time>
      </trkpt>
      <trkpt lat="48.546617" lon="16.530327">
        <ele>255.742814</ele>
        <time>2020-07-01T04:27:17.985Z</time>
      </trkpt>
      <trkpt lat="48.546588" lon="16.530167">
        <ele>255.706167</ele>
        <time>2020-07-01T04:27:19.986Z</time>
      </trkpt>
      <trkpt lat="48.546561" lon="16.530011">
        <ele>255.670547</ele>
        <time>2020-07-01T04:27:21.980Z</time>
      </trkpt>
      <trkpt lat="48.546535" lon="16.529860">
        <ele>255.636080</ele>
        <time>2020-07-01T04:27:23.975Z</time>
      </trkpt>
      <trkpt lat="48.546513" lon="16.529707">
        <ele>255.604710</ele>
        <time>2020-07-01T04:27:25.982Z</time>
      </trkpt>
      <trkpt lat="48.546491" lon="16.529549">
        <ele>255.579476</ele>
        <time>2020-07-01T04:27:27.971Z</time>
      </trkpt>
      <trkpt lat="48.546473" lon="16.529396">
        <ele>255.555188</ele>
        <time>2020-07-01T04:27:29.988Z</time>
      </trkpt>
      <trkpt lat="48.546447" lon="16.529248">
        <ele>255.531257</ele>
        <time>2020-07-01T04:27:31.965Z</time>
      </trkpt>
      <trkpt lat="48.546421" lon="16.529085">
        <ele>255.505052</ele>
        <time>2020-07-01T04:27:33.999Z</time>
      </trkpt>
      <trkpt lat="48.546403" lon="16.528922">
        <ele>255.479224</ele>
        <time>2020-07-01T04:27:35.982Z</time>
      </trkpt>
      <trkpt lat="48.546391" lon="16.528761">
        <ele>255.453902</ele>
        <time>2020-07-01T04:27:37.963Z</time>
      </trkpt>
      <trkpt lat="48.546380" lon="16.528593">
        <ele>255.427517</ele>
        <time>2020-07-01T04:27:39.988Z</time>
      </trkpt>
      <trkpt lat="48.546377" lon="16.528429">
        <ele>255.401875</ele>
        <time>2020-07-01T04:27:41.977Z</time>
      </trkpt>
      <trkpt lat="48.546376" lon="16.528268">
        <ele>255.376711</ele>
        <time>2020-07-01T04:27:43.971Z</time>
      </trkpt>
      <trkpt lat="48.546383" lon="16.528107">
        <ele>255.351494</ele>
        <time>2020-07-01T04:27:45.976Z</time>
      </trkpt>
      <trkpt lat="48.546391" lon="16.527944">
        <ele>255.325948</ele>
        <time>2020-07-01T04:27:47.993Z</time>
      </trkpt>
      <trkpt lat="48.546400" lon="16.527787">
        <ele>255.301318</ele>
        <time>2020-07-01T04:27:50.016Z</time>
      </trkpt>
      <trkpt lat="48.546409" lon="16.527632">
        <ele>255.277000</ele>
        <time>2020-07-01T04:27:51.982Z</time>
      </trkpt>
      <trkpt lat="48.546419" lon="16.527477">
        <ele>255.252660</ele>
        <time>2020-07-01T04:27:53.990Z</time>
      </trkpt>
      <trkpt lat="48.546426" lon="16.527320">
        <ele>255.228066</ele>
        <time>2020-07-01T04:27:55.996Z</time>
      </trkpt>
      <trkpt lat="48.546427" lon="16.527160">
        <ele>255.203058</ele>
        <time>2020-07-01T04:27:58.015Z</time>
      </trkpt>
      <trkpt lat="48.546434" lon="16.526998">
        <ele>255.180563</ele>
        <time>2020-07-01T04:27:59.996Z</time>
      </trkpt>
      <trkpt lat="48.546442" lon="16.526837">
        <ele>255.162468</ele>
        <time>2020-07-01T04:28:01.987Z</time>
      </trkpt>
      <trkpt lat="48.546452" lon="16.526687">
        <ele>255.145572</ele>
        <time>2020-07-01T04:28:03.989Z</time>
      </trkpt>
      <trkpt lat="48.546461" lon="16.526536">
        <ele>255.128580</ele>
        <time>2020-07-01T04:28:05.975Z</time>
      </trkpt>
      <trkpt lat="48.546469" lon="16.526381">
        <ele>255.111156</ele>
        <time>2020-07-01T04:28:07.987Z</time>
      </trkpt>
      <trkpt lat="48.546472" lon="16.526225">
        <ele>255.093665</ele>
        <time>2020-07-01T04:28:09.978Z</time>
      </trkpt>
      <trkpt lat="48.546476" lon="16.526070">
        <ele>255.076280</ele>
        <time>2020-07-01T04:28:11.974Z</time>
      </trkpt>
      <trkpt lat="48.546473" lon="16.525916">
        <ele>255.059013</ele>
        <time>2020-07-01T04:28:14.016Z</time>
      </trkpt>
      <trkpt lat="48.546474" lon="16.525764">
        <ele>255.041977</ele>
        <time>2020-07-01T04:28:15.975Z</time>
      </trkpt>
      <trkpt lat="48.546482" lon="16.525613">
        <ele>255.025000</ele>
        <time>2020-07-01T04:28:17.988Z</time>
      </trkpt>
      <trkpt lat="48.546487" lon="16.525461">
        <ele>255.007944</ele>
        <time>2020-07-01T04:28:20.019Z</time>
      </trkpt>
      <trkpt lat="48.546494" lon="16.525312">
        <ele>254.991203</ele>
        <time>2020-07-01T04:28:21.968Z</time>
      </trkpt>
      <trkpt lat="48.546499" lon="16.525162">
        <ele>254.974370</ele>
        <time>2020-07-01T04:28:23.990Z</time>
      </trkpt>
      <trkpt lat="48.546502" lon="16.525014">
        <ele>254.957776</ele>
        <time>2020-07-01T04:28:26.004Z</time>
      </trkpt>
      <trkpt lat="48.546505" lon="16.524869">
        <ele>254.941517</ele>
        <time>2020-07-01T04:28:27.986Z</time>
      </trkpt>
      <trkpt lat="48.546504" lon="16.524723">
        <ele>254.925153</ele>
        <time>2020-07-01T04:28:30.003Z</time>
      </trkpt>
      <trkpt lat="48.546505" lon="16.524580">
        <ele>254.909126</ele>
        <time>2020-07-01T04:28:32.001Z</time>
      </trkpt>
      <trkpt lat="48.546503" lon="16.524442">
        <ele>254.893656</ele>
        <time>2020-07-01T04:28:33.985Z</time>
      </trkpt>
      <trkpt lat="48.546493" lon="16.524288">
        <ele>254.877458</ele>
        <time>2020-07-01T04:28:35.979Z</time>
      </trkpt>
      <trkpt lat="48.546468" lon="16.524129">
        <ele>254.862117</ele>
        <time>2020-07-01T04:28:37.984Z</time>
      </trkpt>
      <trkpt lat="48.546436" lon="16.523967">
        <ele>254.846247</ele>
        <time>2020-07-01T04:28:39.986Z</time>
      </trkpt>
      <trkpt lat="48.546395" lon="16.523813">
        <ele>254.830665</ele>
        <time>2020-07-01T04:28:41.974Z</time>
      </trkpt>
      <trkpt lat="48.546343" lon="16.523674">
        <ele>254.815678</ele>
        <time>2020-07-01T04:28:43.985Z</time>
      </trkpt>
      <trkpt lat="48.546284" lon="16.523551">
        <ele>254.801419</ele>
        <time>2020-07-01T04:28:45.970Z</time>
      </trkpt>
      <trkpt lat="48.546218" lon="16.523431">
        <ele>254.786774</ele>
        <time>2020-07-01T04:28:47.984Z</time>
      </trkpt>
      <trkpt lat="48.546141" lon="16.523325">
        <ele>254.772001</ele>
        <time>2020-07-01T04:28:49.984Z</time>
      </trkpt>
      <trkpt lat="48.546067" lon="16.523232">
        <ele>254.758351</ele>
        <time>2020-07-01T04:28:51.973Z</time>
      </trkpt>
      <trkpt lat="48.545985" lon="16.523128">
        <ele>254.743169</ele>
        <time>2020-07-01T04:28:53.981Z</time>
      </trkpt>
      <trkpt lat="48.545908" lon="16.523032">
        <ele>254.729011</ele>
        <time>2020-07-01T04:28:55.961Z</time>
      </trkpt>
      <trkpt lat="48.545824" lon="16.522931">
        <ele>254.713788</ele>
        <time>2020-07-01T04:28:57.981Z</time>
      </trkpt>
      <trkpt lat="48.545744" lon="16.522835">
        <ele>254.699300</ele>
        <time>2020-07-01T04:28:59.999Z</time>
      </trkpt>
      <trkpt lat="48.545660" lon="16.522739">
        <ele>254.684364</ele>
        <time>2020-07-01T04:29:01.979Z</time>
      </trkpt>
      <trkpt lat="48.545571" lon="16.522645">
        <ele>254.668964</ele>
        <time>2020-07-01T04:29:03.985Z</time>
      </trkpt>
      <trkpt lat="48.545482" lon="16.522554">
        <ele>254.653725</ele>
        <time>2020-07-01T04:29:05.990Z</time>
      </trkpt>
      <trkpt lat="48.545387" lon="16.522465">
        <ele>254.637874</ele>
        <time>2020-07-01T04:29:08.011Z</time>
      </trkpt>
      <trkpt lat="48.545297" lon="16.522371">
        <ele>254.621966</ele>
        <time>2020-07-01T04:29:09.995Z</time>
      </trkpt>
      <trkpt lat="48.545215" lon="16.522271">
        <ele>254.606040</ele>
        <time>2020-07-01T04:29:11.986Z</time>
      </trkpt>
      <trkpt lat="48.545130" lon="16.522181">
        <ele>254.590353</ele>
        <time>2020-07-01T04:29:13.981Z</time>
      </trkpt>
      <trkpt lat="48.545046" lon="16.522088">
        <ele>254.574613</ele>
        <time>2020-07-01T04:29:15.982Z</time>
      </trkpt>
      <trkpt lat="48.544966" lon="16.521993">
        <ele>254.559235</ele>
        <time>2020-07-01T04:29:17.975Z</time>
      </trkpt>
      <trkpt lat="48.544882" lon="16.521901">
        <ele>254.543555</ele>
        <time>2020-07-01T04:29:20.012Z</time>
      </trkpt>
      <trkpt lat="48.544796" lon="16.521806">
        <ele>254.527453</ele>
        <time>2020-07-01T04:29:22.005Z</time>
      </trkpt>
      <trkpt lat="48.544709" lon="16.521704">
        <ele>254.510810</ele>
        <time>2020-07-01T04:29:23.982Z</time>
      </trkpt>
      <trkpt lat="48.544621" lon="16.521603">
        <ele>254.494108</ele>
        <time>2020-07-01T04:29:25.996Z</time>
      </trkpt>
      <trkpt lat="48.544535" lon="16.521502">
        <ele>254.477645</ele>
        <time>2020-07-01T04:29:27.987Z</time>
      </trkpt>
      <trkpt lat="48.544448" lon="16.521402">
        <ele>254.461123</ele>
        <time>2020-07-01T04:29:29.991Z</time>
      </trkpt>
      <trkpt lat="48.544366" lon="16.521289">
        <ele>254.444349</ele>
        <time>2020-07-01T04:29:31.980Z</time>
      </trkpt>
      <trkpt lat="48.544286" lon="16.521183">
        <ele>254.428267</ele>
        <time>2020-07-01T04:29:33.997Z</time>
      </trkpt>
      <trkpt lat="48.544210" lon="16.521072">
        <ele>254.412290</ele>
        <time>2020-07-01T04:29:35.985Z</time>
      </trkpt>
      <trkpt lat="48.544119" lon="16.520949">
        <ele>254.393836</ele>
        <time>2020-07-01T04:29:37.979Z</time>
      </trkpt>
      <trkpt lat="48.544044" lon="16.520847">
        <ele>254.378584</ele>
        <time>2020-07-01T04:29:40.009Z</time>
      </trkpt>
      <trkpt lat="48.543962" lon="16.520738">
        <ele>254.362077</ele>
        <time>2020-07-01T04:29:41.979Z</time>
      </trkpt>
      <trkpt lat="48.543885" lon="16.520642">
        <ele>254.351753</ele>
        <time>2020-07-01T04:29:43.969Z</time>
      </trkpt>
      <trkpt lat="48.543807" lon="16.520547">
        <ele>254.344200</ele>
        <time>2020-07-01T04:29:45.969Z</time>
      </trkpt>
      <trkpt lat="48.543728" lon="16.520449">
        <ele>254.336493</ele>
        <time>2020-07-01T04:29:47.973Z</time>
      </trkpt>
      <trkpt lat="48.543643" lon="16.520354">
        <ele>254.328522</ele>
        <time>2020-07-01T04:29:49.992Z</time>
      </trkpt>
      <trkpt lat="48.543562" lon="16.520254">
        <ele>254.320636</ele>
        <time>2020-07-01T04:29:51.982Z</time>
      </trkpt>
      <trkpt lat="48.543483" lon="16.520150">
        <ele>254.312736</ele>
        <time>2020-07-01T04:29:53.991Z</time>
      </trkpt>
      <trkpt lat="48.543404" lon="16.520035">
        <ele>254.304465</ele>
        <time>2020-07-01T04:29:55.987Z</time>
      </trkpt>
      <trkpt lat="48.543328" lon="16.519910">
        <ele>254.295995</ele>
        <time>2020-07-01T04:29:57.965Z</time>
      </trkpt>
      <trkpt lat="48.543258" lon="16.519784">
        <ele>254.287785</ele>
        <time>2020-07-01T04:29:59.984Z</time>
      </trkpt>
      <trkpt lat="48.543189" lon="16.519659">
        <ele>254.279663</ele>
        <time>2020-07-01T04:30:01.991Z</time>
      </trkpt>
      <trkpt lat="48.543119" lon="16.519531">
        <ele>254.271377</ele>
        <time>2020-07-01T04:30:03.986Z</time>
      </trkpt>
      <trkpt lat="48.543052" lon="16.519404">
        <ele>254.263272</ele>
        <time>2020-07-01T04:30:05.997Z</time>
      </trkpt>
      <trkpt lat="48.542989" lon="16.519276">
        <ele>254.255312</ele>
        <time>2020-07-01T04:30:08.002Z</time>
      </trkpt>
      <trkpt lat="48.542925" lon="16.519127">
        <ele>254.246447</ele>
        <time>2020-07-01T04:30:09.984Z</time>
      </trkpt>
      <trkpt lat="48.542876" lon="16.518987">
        <ele>254.238544</ele>
        <time>2020-07-01T04:30:11.992Z</time>
      </trkpt>
      <trkpt lat="48.542827" lon="16.518844">
        <ele>254.230507</ele>
        <time>2020-07-01T04:30:13.989Z</time>
      </trkpt>
      <trkpt lat="48.542777" lon="16.518704">
        <ele>254.222568</ele>
        <time>2020-07-01T04:30:16.004Z</time>
      </trkpt>
      <trkpt lat="48.542725" lon="16.518565">
        <ele>254.222148</ele>
        <time>2020-07-01T04:30:17.998Z</time>
      </trkpt>
      <trkpt lat="48.542672" lon="16.518421">
        <ele>254.223768</ele>
        <time>2020-07-01T04:30:19.989Z</time>
      </trkpt>
      <trkpt lat="48.542618" lon="16.518279">
        <ele>254.225378</ele>
        <time>2020-07-01T04:30:21.990Z</time>
      </trkpt>
      <trkpt lat="48.542561" lon="16.518140">
        <ele>254.226987</ele>
        <time>2020-07-01T04:30:23.999Z</time>
      </trkpt>
      <trkpt lat="48.542509" lon="16.518003">
        <ele>254.228540</ele>
        <time>2020-07-01T04:30:25.988Z</time>
      </trkpt>
      <trkpt lat="48.542460" lon="16.517859">
        <ele>254.230132</ele>
        <time>2020-07-01T04:30:27.964Z</time>
      </trkpt>
      <trkpt lat="48.542412" lon="16.517714">
        <ele>254.231726</ele>
        <time>2020-07-01T04:30:29.982Z</time>
      </trkpt>
      <trkpt lat="48.542363" lon="16.517574">
        <ele>254.233284</ele>
        <time>2020-07-01T04:30:32.013Z</time>
      </trkpt>
      <trkpt lat="48.542309" lon="16.517435">
        <ele>254.234869</ele>
        <time>2020-07-01T04:30:33.994Z</time>
      </trkpt>
      <trkpt lat="48.542253" lon="16.517290">
        <ele>254.236520</ele>
        <time>2020-07-01T04:30:35.980Z</time>
      </trkpt>
      <trkpt lat="48.542199" lon="16.517149">
        <ele>254.238122</ele>
        <time>2020-07-01T04:30:38.010Z</time>
      </trkpt>
      <trkpt lat="48.542149" lon="16.517007">
        <ele>254.239704</ele>
        <time>2020-07-01T04:30:39.989Z</time>
      </trkpt>
      <trkpt lat="48.542100" lon="16.516860">
        <ele>254.241323</ele>
        <time>2020-07-01T04:30:41.975Z</time>
      </trkpt>
      <trkpt lat="48.542056" lon="16.516717">
        <ele>254.242874</ele>
        <time>2020-07-01T04:30:44.012Z</time>
      </trkpt>
      <trkpt lat="48.542013" lon="16.516574">
        <ele>254.244418</ele>
        <time>2020-07-01T04:30:45.998Z</time>
      </trkpt>
      <trkpt lat="48.541964" lon="16.516429">
        <ele>254.246019</ele>
        <time>2020-07-01T04:30:47.977Z</time>
      </trkpt>
      <trkpt lat="48.541915" lon="16.516287">
        <ele>254.247594</ele>
        <time>2020-07-01T04:30:50.008Z</time>
      </trkpt>
      <trkpt lat="48.541863" lon="16.516139">
        <ele>254.249816</ele>
        <time>2020-07-01T04:30:51.975Z</time>
      </trkpt>
      <trkpt lat="48.541813" lon="16.515994">
        <ele>254.251994</ele>
        <time>2020-07-01T04:30:53.971Z</time>
      </trkpt>
      <trkpt lat="48.541769" lon="16.515840">
        <ele>254.254229</ele>
        <time>2020-07-01T04:30:55.995Z</time>
      </trkpt>
      <trkpt lat="48.541724" lon="16.515685">
        <ele>254.256484</ele>
        <time>2020-07-01T04:30:57.994Z</time>
      </trkpt>
      <trkpt lat="48.541679" lon="16.515537">
        <ele>254.258654</ele>
        <time>2020-07-01T04:30:59.997Z</time>
      </trkpt>
      <trkpt lat="48.541632" lon="16.515390">
        <ele>254.260828</ele>
        <time>2020-07-01T04:31:01.980Z</time>
      </trkpt>
      <trkpt lat="48.541584" lon="16.515244">
        <ele>254.263000</ele>
        <time>2020-07-01T04:31:03.978Z</time>
      </trkpt>
      <trkpt lat="48.541535" lon="16.515102">
        <ele>254.265134</ele>
        <time>2020-07-01T04:31:05.980Z</time>
      </trkpt>
      <trkpt lat="48.541486" lon="16.514960">
        <ele>254.267267</ele>
        <time>2020-07-01T04:31:07.998Z</time>
      </trkpt>
      <trkpt lat="48.541440" lon="16.514814">
        <ele>254.269421</ele>
        <time>2020-07-01T04:31:09.985Z</time>
      </trkpt>
      <trkpt lat="48.541396" lon="16.514670">
        <ele>254.271535</ele>
        <time>2020-07-01T04:31:11.962Z</time>
      </trkpt>
      <trkpt lat="48.541352" lon="16.514526">
        <ele>254.273648</ele>
        <time>2020-07-01T04:31:13.972Z</time>
      </trkpt>
      <trkpt lat="48.541310" lon="16.514386">
        <ele>254.275695</ele>
        <time>2020-07-01T04:31:16.000Z</time>
      </trkpt>
      <trkpt lat="48.541269" lon="16.514243">
        <ele>254.277772</ele>
        <time>2020-07-01T04:31:17.975Z</time>
      </trkpt>
      <trkpt lat="48.541223" lon="16.514097">
        <ele>254.279926</ele>
        <time>2020-07-01T04:31:19.989Z</time>
      </trkpt>
      <trkpt lat="48.541175" lon="16.513951">
        <ele>254.282098</ele>
        <time>2020-07-01T04:31:21.973Z</time>
      </trkpt>
      <trkpt lat="48.541125" lon="16.513802">
        <ele>254.286700</ele>
        <time>2020-07-01T04:31:23.984Z</time>
      </trkpt>
      <trkpt lat="48.541075" lon="16.513652">
        <ele>254.299493</ele>
        <time>2020-07-01T04:31:25.973Z</time>
      </trkpt>
      <trkpt lat="48.541026" lon="16.513497">
        <ele>254.312577</ele>
        <time>2020-07-01T04:31:27.972Z</time>
      </trkpt>
      <trkpt lat="48.540984" lon="16.513356">
        <ele>254.324355</ele>
        <time>2020-07-01T04:31:29.965Z</time>
      </trkpt>
      <trkpt lat="48.540938" lon="16.513227">
        <ele>254.335516</ele>
        <time>2020-07-01T04:31:31.967Z</time>
      </trkpt>
      <trkpt lat="48.540828" lon="16.513225">
        <ele>254.348173</ele>
        <time>2020-07-01T04:31:34.994Z</time>
      </trkpt>
      <trkpt lat="48.540713" lon="16.513221">
        <ele>254.361407</ele>
        <time>2020-07-01T04:31:37.990Z</time>
      </trkpt>
      <trkpt lat="48.540653" lon="16.513040">
        <ele>254.376827</ele>
        <time>2020-07-01T04:31:40.973Z</time>
      </trkpt>
      <trkpt lat="48.540611" lon="16.512915">
        <ele>254.387505</ele>
        <time>2020-07-01T04:31:42.994Z</time>
      </trkpt>
      <trkpt lat="48.540566" lon="16.512777">
        <ele>254.399223</ele>
        <time>2020-07-01T04:31:44.988Z</time>
      </trkpt>
      <trkpt lat="48.540526" lon="16.512638">
        <ele>254.410768</ele>
        <time>2020-07-01T04:31:46.973Z</time>
      </trkpt>
      <trkpt lat="48.540483" lon="16.512512">
        <ele>254.421566</ele>
        <time>2020-07-01T04:31:48.971Z</time>
      </trkpt>
      <trkpt lat="48.540430" lon="16.512380">
        <ele>254.433326</ele>
        <time>2020-07-01T04:31:50.993Z</time>
      </trkpt>
      <trkpt lat="48.540379" lon="16.512253">
        <ele>254.444641</ele>
        <time>2020-07-01T04:31:52.984Z</time>
      </trkpt>
      <trkpt lat="48.540336" lon="16.512117">
        <ele>254.456122</ele>
        <time>2020-07-01T04:31:54.976Z</time>
      </trkpt>
      <trkpt lat="48.540294" lon="16.511983">
        <ele>254.467415</ele>
        <time>2020-07-01T04:31:56.983Z</time>
      </trkpt>
      <trkpt lat="48.540250" lon="16.511857">
        <ele>254.478267</ele>
        <time>2020-07-01T04:31:58.971Z</time>
      </trkpt>
      <trkpt lat="48.540206" lon="16.511726">
        <ele>254.489456</ele>
        <time>2020-07-01T04:32:00.973Z</time>
      </trkpt>
      <trkpt lat="48.540159" lon="16.511591">
        <ele>254.512660</ele>
        <time>2020-07-01T04:32:02.980Z</time>
      </trkpt>
      <trkpt lat="48.540110" lon="16.511456">
        <ele>254.537560</ele>
        <time>2020-07-01T04:32:05.021Z</time>
      </trkpt>
      <trkpt lat="48.540062" lon="16.511320">
        <ele>254.562485</ele>
        <time>2020-07-01T04:32:07.001Z</time>
      </trkpt>
      <trkpt lat="48.540018" lon="16.511184">
        <ele>254.586967</ele>
        <time>2020-07-01T04:32:09.026Z</time>
      </trkpt>
      <trkpt lat="48.539971" lon="16.511053">
        <ele>254.611064</ele>
        <time>2020-07-01T04:32:10.986Z</time>
      </trkpt>
      <trkpt lat="48.539921" lon="16.510921">
        <ele>254.635660</ele>
        <time>2020-07-01T04:32:12.998Z</time>
      </trkpt>
      <trkpt lat="48.539865" lon="16.510787">
        <ele>254.661288</ele>
        <time>2020-07-01T04:32:14.999Z</time>
      </trkpt>
      <trkpt lat="48.539813" lon="16.510648">
        <ele>254.687110</ele>
        <time>2020-07-01T04:32:16.993Z</time>
      </trkpt>
      <trkpt lat="48.539764" lon="16.510501">
        <ele>254.713728</ele>
        <time>2020-07-01T04:32:18.970Z</time>
      </trkpt>
      <trkpt lat="48.539717" lon="16.510359">
        <ele>254.739403</ele>
        <time>2020-07-01T04:32:20.983Z</time>
      </trkpt>
      <trkpt lat="48.539667" lon="16.510220">
        <ele>254.764988</ele>
        <time>2020-07-01T04:32:23.011Z</time>
      </trkpt>
      <trkpt lat="48.539614" lon="16.510082">
        <ele>254.790790</ele>
        <time>2020-07-01T04:32:24.984Z</time>
      </trkpt>
      <trkpt lat="48.539561" lon="16.509944">
        <ele>254.816593</ele>
        <time>2020-07-01T04:32:26.988Z</time>
      </trkpt>
      <trkpt lat="48.539519" lon="16.509811">
        <ele>254.840425</ele>
        <time>2020-07-01T04:32:28.966Z</time>
      </trkpt>
      <trkpt lat="48.539476" lon="16.509670">
        <ele>254.865532</ele>
        <time>2020-07-01T04:32:30.975Z</time>
      </trkpt>
      <trkpt lat="48.539432" lon="16.509531">
        <ele>254.890451</ele>
        <time>2020-07-01T04:32:32.980Z</time>
      </trkpt>
      <trkpt lat="48.539388" lon="16.509395">
        <ele>254.914932</ele>
        <time>2020-07-01T04:32:34.970Z</time>
      </trkpt>
      <trkpt lat="48.539341" lon="16.509261">
        <ele>254.935782</ele>
        <time>2020-07-01T04:32:36.973Z</time>
      </trkpt>
      <trkpt lat="48.539288" lon="16.509122">
        <ele>254.951512</ele>
        <time>2020-07-01T04:32:38.991Z</time>
      </trkpt>
      <trkpt lat="48.539232" lon="16.508985">
        <ele>254.967300</ele>
        <time>2020-07-01T04:32:40.988Z</time>
      </trkpt>
      <trkpt lat="48.539180" lon="16.508846">
        <ele>254.982957</ele>
        <time>2020-07-01T04:32:42.976Z</time>
      </trkpt>
      <trkpt lat="48.539131" lon="16.508699">
        <ele>254.999096</ele>
        <time>2020-07-01T04:32:44.987Z</time>
      </trkpt>
      <trkpt lat="48.539091" lon="16.508550">
        <ele>255.014863</ele>
        <time>2020-07-01T04:32:46.977Z</time>
      </trkpt>
      <trkpt lat="48.539053" lon="16.508396">
        <ele>255.030979</ele>
        <time>2020-07-01T04:32:48.997Z</time>
      </trkpt>
      <trkpt lat="48.539015" lon="16.508248">
        <ele>255.046546</ele>
        <time>2020-07-01T04:32:50.962Z</time>
      </trkpt>
      <trkpt lat="48.538975" lon="16.508099">
        <ele>255.062312</ele>
        <time>2020-07-01T04:32:52.999Z</time>
      </trkpt>
      <trkpt lat="48.538937" lon="16.507950">
        <ele>255.077971</ele>
        <time>2020-07-01T04:32:54.991Z</time>
      </trkpt>
      <trkpt lat="48.538900" lon="16.507801">
        <ele>255.093576</ele>
        <time>2020-07-01T04:32:56.994Z</time>
      </trkpt>
      <trkpt lat="48.538869" lon="16.507659">
        <ele>255.108238</ele>
        <time>2020-07-01T04:32:59.003Z</time>
      </trkpt>
      <trkpt lat="48.538841" lon="16.507510">
        <ele>255.123427</ele>
        <time>2020-07-01T04:33:00.983Z</time>
      </trkpt>
      <trkpt lat="48.538810" lon="16.507363">
        <ele>255.138556</ele>
        <time>2020-07-01T04:33:03.005Z</time>
      </trkpt>
      <trkpt lat="48.538785" lon="16.507217">
        <ele>255.153345</ele>
        <time>2020-07-01T04:33:04.997Z</time>
      </trkpt>
      <trkpt lat="48.538749" lon="16.507074">
        <ele>255.168347</ele>
        <time>2020-07-01T04:33:06.988Z</time>
      </trkpt>
      <trkpt lat="48.538706" lon="16.506927">
        <ele>255.184107</ele>
        <time>2020-07-01T04:33:09.000Z</time>
      </trkpt>
      <trkpt lat="48.538671" lon="16.506782">
        <ele>255.198077</ele>
        <time>2020-07-01T04:33:10.990Z</time>
      </trkpt>
      <trkpt lat="48.538638" lon="16.506626">
        <ele>255.207275</ele>
        <time>2020-07-01T04:33:12.980Z</time>
      </trkpt>
      <trkpt lat="48.538608" lon="16.506467">
        <ele>255.216560</ele>
        <time>2020-07-01T04:33:14.997Z</time>
      </trkpt>
      <trkpt lat="48.538583" lon="16.506316">
        <ele>255.225302</ele>
        <time>2020-07-01T04:33:17.022Z</time>
      </trkpt>
      <trkpt lat="48.538545" lon="16.506173">
        <ele>255.233957</ele>
        <time>2020-07-01T04:33:18.968Z</time>
      </trkpt>
      <trkpt lat="48.538511" lon="16.506025">
        <ele>255.242755</ele>
        <time>2020-07-01T04:33:21.015Z</time>
      </trkpt>
      <trkpt lat="48.538473" lon="16.505875">
        <ele>255.251775</ele>
        <time>2020-07-01T04:33:22.977Z</time>
      </trkpt>
      <trkpt lat="48.538435" lon="16.505726">
        <ele>255.260743</ele>
        <time>2020-07-01T04:33:25.016Z</time>
      </trkpt>
      <trkpt lat="48.538398" lon="16.505576">
        <ele>255.269733</ele>
        <time>2020-07-01T04:33:27.024Z</time>
      </trkpt>
      <trkpt lat="48.538367" lon="16.505431">
        <ele>255.278291</ele>
        <time>2020-07-01T04:33:29.004Z</time>
      </trkpt>
      <trkpt lat="48.538335" lon="16.505286">
        <ele>255.286876</ele>
        <time>2020-07-01T04:33:31.003Z</time>
      </trkpt>
      <trkpt lat="48.538296" lon="16.505132">
        <ele>255.296136</ele>
        <time>2020-07-01T04:33:32.995Z</time>
      </trkpt>
      <trkpt lat="48.538253" lon="16.504983">
        <ele>255.305265</ele>
        <time>2020-07-01T04:33:34.986Z</time>
      </trkpt>
      <trkpt lat="48.538219" lon="16.504835">
        <ele>255.314063</ele>
        <time>2020-07-01T04:33:37.022Z</time>
      </trkpt>
      <trkpt lat="48.538187" lon="16.504686">
        <ele>255.322861</ele>
        <time>2020-07-01T04:33:38.985Z</time>
      </trkpt>
      <trkpt lat="48.538157" lon="16.504533">
        <ele>255.331823</ele>
        <time>2020-07-01T04:33:40.975Z</time>
      </trkpt>
      <trkpt lat="48.538129" lon="16.504380">
        <ele>255.340739</ele>
        <time>2020-07-01T04:33:42.981Z</time>
      </trkpt>
      <trkpt lat="48.538096" lon="16.504227">
        <ele>255.350146</ele>
        <time>2020-07-01T04:33:44.975Z</time>
      </trkpt>
      <trkpt lat="48.538062" lon="16.504082">
        <ele>255.363411</ele>
        <time>2020-07-01T04:33:46.967Z</time>
      </trkpt>
      <trkpt lat="48.538012" lon="16.503945">
        <ele>255.376902</ele>
        <time>2020-07-01T04:33:48.981Z</time>
      </trkpt>
      <trkpt lat="48.537964" lon="16.503813">
        <ele>255.389889</ele>
        <time>2020-07-01T04:33:50.964Z</time>
      </trkpt>
      <trkpt lat="48.537920" lon="16.503671">
        <ele>255.403410</ele>
        <time>2020-07-01T04:33:53.009Z</time>
      </trkpt>
      <trkpt lat="48.537878" lon="16.503519">
        <ele>255.417613</ele>
        <time>2020-07-01T04:33:54.961Z</time>
      </trkpt>
      <trkpt lat="48.537841" lon="16.503358">
        <ele>255.432310</ele>
        <time>2020-07-01T04:33:56.989Z</time>
      </trkpt>
      <trkpt lat="48.537807" lon="16.503202">
        <ele>255.446474</ele>
        <time>2020-07-01T04:33:58.984Z</time>
      </trkpt>
      <trkpt lat="48.537770" lon="16.503046">
        <ele>255.460764</ele>
        <time>2020-07-01T04:34:01.011Z</time>
      </trkpt>
      <trkpt lat="48.537725" lon="16.502891">
        <ele>255.475360</ele>
        <time>2020-07-01T04:34:02.986Z</time>
      </trkpt>
      <trkpt lat="48.537680" lon="16.502743">
        <ele>255.489404</ele>
        <time>2020-07-01T04:34:04.985Z</time>
      </trkpt>
      <trkpt lat="48.537639" lon="16.502595">
        <ele>255.503240</ele>
        <time>2020-07-01T04:34:06.974Z</time>
      </trkpt>
      <trkpt lat="48.537600" lon="16.502446">
        <ele>255.517057</ele>
        <time>2020-07-01T04:34:09.001Z</time>
      </trkpt>
      <trkpt lat="48.537562" lon="16.502296">
        <ele>255.530907</ele>
        <time>2020-07-01T04:34:10.991Z</time>
      </trkpt>
      <trkpt lat="48.537521" lon="16.502145">
        <ele>255.544982</ele>
        <time>2020-07-01T04:34:12.996Z</time>
      </trkpt>
      <trkpt lat="48.537481" lon="16.502002">
        <ele>255.558369</ele>
        <time>2020-07-01T04:34:14.988Z</time>
      </trkpt>
      <trkpt lat="48.537446" lon="16.501865">
        <ele>255.571033</ele>
        <time>2020-07-01T04:34:16.990Z</time>
      </trkpt>
      <trkpt lat="48.537407" lon="16.501726">
        <ele>255.583615</ele>
        <time>2020-07-01T04:34:18.997Z</time>
      </trkpt>
      <trkpt lat="48.537365" lon="16.501584">
        <ele>255.588651</ele>
        <time>2020-07-01T04:34:20.994Z</time>
      </trkpt>
      <trkpt lat="48.537325" lon="16.501458">
        <ele>255.593176</ele>
        <time>2020-07-01T04:34:22.993Z</time>
      </trkpt>
      <trkpt lat="48.537286" lon="16.501334">
        <ele>255.597622</ele>
        <time>2020-07-01T04:34:25.007Z</time>
      </trkpt>
      <trkpt lat="48.537250" lon="16.501199">
        <ele>255.602335</ele>
        <time>2020-07-01T04:34:26.978Z</time>
      </trkpt>
      <trkpt lat="48.537214" lon="16.501054">
        <ele>255.607350</ele>
        <time>2020-07-01T04:34:28.985Z</time>
      </trkpt>
      <trkpt lat="48.537170" lon="16.500903">
        <ele>255.612692</ele>
        <time>2020-07-01T04:34:30.991Z</time>
      </trkpt>
      <trkpt lat="48.537124" lon="16.500757">
        <ele>255.617928</ele>
        <time>2020-07-01T04:34:33.019Z</time>
      </trkpt>
      <trkpt lat="48.537076" lon="16.500608">
        <ele>255.623294</ele>
        <time>2020-07-01T04:34:34.989Z</time>
      </trkpt>
      <trkpt lat="48.537035" lon="16.500452">
        <ele>255.628729</ele>
        <time>2020-07-01T04:34:36.997Z</time>
      </trkpt>
      <trkpt lat="48.536995" lon="16.500298">
        <ele>255.634086</ele>
        <time>2020-07-01T04:34:39.013Z</time>
      </trkpt>
      <trkpt lat="48.536953" lon="16.500147">
        <ele>255.639390</ele>
        <time>2020-07-01T04:34:41.001Z</time>
      </trkpt>
      <trkpt lat="48.536910" lon="16.499997">
        <ele>255.644684</ele>
        <time>2020-07-01T04:34:43.021Z</time>
      </trkpt>
      <trkpt lat="48.536857" lon="16.499843">
        <ele>255.650304</ele>
        <time>2020-07-01T04:34:45.001Z</time>
      </trkpt>
      <trkpt lat="48.536805" lon="16.499687">
        <ele>255.655960</ele>
        <time>2020-07-01T04:34:46.991Z</time>
      </trkpt>
      <trkpt lat="48.536755" lon="16.499534">
        <ele>255.661485</ele>
        <time>2020-07-01T04:34:48.969Z</time>
      </trkpt>
      <trkpt lat="48.536706" lon="16.499380">
        <ele>255.667018</ele>
        <time>2020-07-01T04:34:50.964Z</time>
      </trkpt>
      <trkpt lat="48.536660" lon="16.499228">
        <ele>255.674621</ele>
        <time>2020-07-01T04:34:52.966Z</time>
      </trkpt>
      <trkpt lat="48.536572" lon="16.499094">
        <ele>255.692786</ele>
        <time>2020-07-01T04:34:55.961Z</time>
      </trkpt>
      <trkpt lat="48.536487" lon="16.499045">
        <ele>255.706010</ele>
        <time>2020-07-01T04:34:57.967Z</time>
      </trkpt>
      <trkpt lat="48.536396" lon="16.498998">
        <ele>255.719989</ele>
        <time>2020-07-01T04:34:59.975Z</time>
      </trkpt>
      <trkpt lat="48.536298" lon="16.498931">
        <ele>255.735626</ele>
        <time>2020-07-01T04:35:01.971Z</time>
      </trkpt>
      <trkpt lat="48.536222" lon="16.498809">
        <ele>255.751747</ele>
        <time>2020-07-01T04:35:03.970Z</time>
      </trkpt>
      <trkpt lat="48.536164" lon="16.498687">
        <ele>255.766202</ele>
        <time>2020-07-01T04:35:05.975Z</time>
      </trkpt>
      <trkpt lat="48.536113" lon="16.498567">
        <ele>255.779926</ele>
        <time>2020-07-01T04:35:07.990Z</time>
      </trkpt>
      <trkpt lat="48.536062" lon="16.498446">
        <ele>255.793731</ele>
        <time>2020-07-01T04:35:09.987Z</time>
      </trkpt>
      <trkpt lat="48.536015" lon="16.498307">
        <ele>255.808752</ele>
        <time>2020-07-01T04:35:11.970Z</time>
      </trkpt>
      <trkpt lat="48.535973" lon="16.498161">
        <ele>255.824073</ele>
        <time>2020-07-01T04:35:13.965Z</time>
      </trkpt>
      <trkpt lat="48.535932" lon="16.498015">
        <ele>255.839337</ele>
        <time>2020-07-01T04:35:15.989Z</time>
      </trkpt>
      <trkpt lat="48.535894" lon="16.497874">
        <ele>255.853988</ele>
        <time>2020-07-01T04:35:17.973Z</time>
      </trkpt>
      <trkpt lat="48.535853" lon="16.497733">
        <ele>255.868810</ele>
        <time>2020-07-01T04:35:19.984Z</time>
      </trkpt>
      <trkpt lat="48.535814" lon="16.497599">
        <ele>255.882898</ele>
        <time>2020-07-01T04:35:21.986Z</time>
      </trkpt>
      <trkpt lat="48.535785" lon="16.497458">
        <ele>255.897108</ele>
        <time>2020-07-01T04:35:23.984Z</time>
      </trkpt>
      <trkpt lat="48.535754" lon="16.497326">
        <ele>255.910588</ele>
        <time>2020-07-01T04:35:25.993Z</time>
      </trkpt>
      <trkpt lat="48.535716" lon="16.497197">
        <ele>255.924177</ele>
        <time>2020-07-01T04:35:27.987Z</time>
      </trkpt>
      <trkpt lat="48.535680" lon="16.497061">
        <ele>255.937470</ele>
        <time>2020-07-01T04:35:29.984Z</time>
      </trkpt>
      <trkpt lat="48.535646" lon="16.496919">
        <ele>255.949887</ele>
        <time>2020-07-01T04:35:32.003Z</time>
      </trkpt>
      <trkpt lat="48.535609" lon="16.496774">
        <ele>255.962665</ele>
        <time>2020-07-01T04:35:33.967Z</time>
      </trkpt>
      <trkpt lat="48.535574" lon="16.496626">
        <ele>255.975587</ele>
        <time>2020-07-01T04:35:35.990Z</time>
      </trkpt>
      <trkpt lat="48.535541" lon="16.496464">
        <ele>255.989525</ele>
        <time>2020-07-01T04:35:37.992Z</time>
      </trkpt>
      <trkpt lat="48.535512" lon="16.496314">
        <ele>256.002374</ele>
        <time>2020-07-01T04:35:39.996Z</time>
      </trkpt>
      <trkpt lat="48.535481" lon="16.496166">
        <ele>256.015138</ele>
        <time>2020-07-01T04:35:41.971Z</time>
      </trkpt>
      <trkpt lat="48.535449" lon="16.496017">
        <ele>256.028019</ele>
        <time>2020-07-01T04:35:43.990Z</time>
      </trkpt>
      <trkpt lat="48.535414" lon="16.495857">
        <ele>256.041875</ele>
        <time>2020-07-01T04:35:45.996Z</time>
      </trkpt>
      <trkpt lat="48.535378" lon="16.495706">
        <ele>256.055072</ele>
        <time>2020-07-01T04:35:47.975Z</time>
      </trkpt>
      <trkpt lat="48.535335" lon="16.495560">
        <ele>256.068211</ele>
        <time>2020-07-01T04:35:50.000Z</time>
      </trkpt>
      <trkpt lat="48.535286" lon="16.495419">
        <ele>256.081306</ele>
        <time>2020-07-01T04:35:51.982Z</time>
      </trkpt>
      <trkpt lat="48.535231" lon="16.495282">
        <ele>256.094480</ele>
        <time>2020-07-01T04:35:53.980Z</time>
      </trkpt>
      <trkpt lat="48.535174" lon="16.495150">
        <ele>256.107438</ele>
        <time>2020-07-01T04:35:55.982Z</time>
      </trkpt>
      <trkpt lat="48.535119" lon="16.495031">
        <ele>256.119372</ele>
        <time>2020-07-01T04:35:57.982Z</time>
      </trkpt>
      <trkpt lat="48.535057" lon="16.494904">
        <ele>256.132346</ele>
        <time>2020-07-01T04:35:59.987Z</time>
      </trkpt>
      <trkpt lat="48.534993" lon="16.494772">
        <ele>256.145799</ele>
        <time>2020-07-01T04:36:01.999Z</time>
      </trkpt>
      <trkpt lat="48.534930" lon="16.494639">
        <ele>256.158629</ele>
        <time>2020-07-01T04:36:03.993Z</time>
      </trkpt>
      <trkpt lat="48.534873" lon="16.494512">
        <ele>256.168754</ele>
        <time>2020-07-01T04:36:05.969Z</time>
      </trkpt>
      <trkpt lat="48.534818" lon="16.494389">
        <ele>256.178548</ele>
        <time>2020-07-01T04:36:08.008Z</time>
      </trkpt>
      <trkpt lat="48.534759" lon="16.494258">
        <ele>256.189003</ele>
        <time>2020-07-01T04:36:09.982Z</time>
      </trkpt>
      <trkpt lat="48.534703" lon="16.494129">
        <ele>256.199182</ele>
        <time>2020-07-01T04:36:12.027Z</time>
      </trkpt>
      <trkpt lat="48.534647" lon="16.494003">
        <ele>256.209196</ele>
        <time>2020-07-01T04:36:13.977Z</time>
      </trkpt>
      <trkpt lat="48.534585" lon="16.493881">
        <ele>256.219344</ele>
        <time>2020-07-01T04:36:15.983Z</time>
      </trkpt>
      <trkpt lat="48.534524" lon="16.493762">
        <ele>256.229275</ele>
        <time>2020-07-01T04:36:17.995Z</time>
      </trkpt>
      <trkpt lat="48.534463" lon="16.493642">
        <ele>256.239259</ele>
        <time>2020-07-01T04:36:19.968Z</time>
      </trkpt>
      <trkpt lat="48.534400" lon="16.493523">
        <ele>256.249313</ele>
        <time>2020-07-01T04:36:21.988Z</time>
      </trkpt>
      <trkpt lat="48.534341" lon="16.493405">
        <ele>256.259070</ele>
        <time>2020-07-01T04:36:24.007Z</time>
      </trkpt>
      <trkpt lat="48.534279" lon="16.493274">
        <ele>256.269696</ele>
        <time>2020-07-01T04:36:25.975Z</time>
      </trkpt>
      <trkpt lat="48.534221" lon="16.493146">
        <ele>256.279932</ele>
        <time>2020-07-01T04:36:27.971Z</time>
      </trkpt>
      <trkpt lat="48.534159" lon="16.493019">
        <ele>256.290344</ele>
        <time>2020-07-01T04:36:29.963Z</time>
      </trkpt>
      <trkpt lat="48.534099" lon="16.492904">
        <ele>256.300006</ele>
        <time>2020-07-01T04:36:31.968Z</time>
      </trkpt>
      <trkpt lat="48.534036" lon="16.492792">
        <ele>256.309703</ele>
        <time>2020-07-01T04:36:33.990Z</time>
      </trkpt>
      <trkpt lat="48.533969" lon="16.492676">
        <ele>256.319861</ele>
        <time>2020-07-01T04:36:36.001Z</time>
      </trkpt>
      <trkpt lat="48.533908" lon="16.492556">
        <ele>256.329844</ele>
        <time>2020-07-01T04:36:37.985Z</time>
      </trkpt>
      <trkpt lat="48.533852" lon="16.492441">
        <ele>256.340310</ele>
        <time>2020-07-01T04:36:39.978Z</time>
      </trkpt>
      <trkpt lat="48.533797" lon="16.492266">
        <ele>256.356525</ele>
        <time>2020-07-01T04:36:42.980Z</time>
      </trkpt>
      <trkpt lat="48.533780" lon="16.492129">
        <ele>256.368193</ele>
        <time>2020-07-01T04:36:44.965Z</time>
      </trkpt>
      <trkpt lat="48.533757" lon="16.491992">
        <ele>256.380024</ele>
        <time>2020-07-01T04:36:46.988Z</time>
      </trkpt>
      <trkpt lat="48.533739" lon="16.491842">
        <ele>256.392785</ele>
        <time>2020-07-01T04:36:48.976Z</time>
      </trkpt>
      <trkpt lat="48.533725" lon="16.491685">
        <ele>256.406046</ele>
        <time>2020-07-01T04:36:50.965Z</time>
      </trkpt>
      <trkpt lat="48.533735" lon="16.491532">
        <ele>256.418916</ele>
        <time>2020-07-01T04:36:52.980Z</time>
      </trkpt>
      <trkpt lat="48.533761" lon="16.491390">
        <ele>256.431249</ele>
        <time>2020-07-01T04:36:54.960Z</time>
      </trkpt>
      <trkpt lat="48.533808" lon="16.491274">
        <ele>256.442633</ele>
        <time>2020-07-01T04:36:56.985Z</time>
      </trkpt>
      <trkpt lat="48.533864" lon="16.491164">
        <ele>256.454248</ele>
        <time>2020-07-01T04:36:58.992Z</time>
      </trkpt>
      <trkpt lat="48.533929" lon="16.491069">
        <ele>256.465683</ele>
        <time>2020-07-01T04:37:00.986Z</time>
      </trkpt>
      <trkpt lat="48.534002" lon="16.490988">
        <ele>256.477134</ele>
        <time>2020-07-01T04:37:02.999Z</time>
      </trkpt>
      <trkpt lat="48.534108" lon="16.490875">
        <ele>256.493537</ele>
        <time>2020-07-01T04:37:06.008Z</time>
      </trkpt>
      <trkpt lat="48.534184" lon="16.490797">
        <ele>256.505153</ele>
        <time>2020-07-01T04:37:07.999Z</time>
      </trkpt>
      <trkpt lat="48.534262" lon="16.490720">
        <ele>256.516933</ele>
        <time>2020-07-01T04:37:09.968Z</time>
      </trkpt>
      <trkpt lat="48.534343" lon="16.490642">
        <ele>256.529077</ele>
        <time>2020-07-01T04:37:11.981Z</time>
      </trkpt>
      <trkpt lat="48.534418" lon="16.490555">
        <ele>256.541033</ele>
        <time>2020-07-01T04:37:14.002Z</time>
      </trkpt>
      <trkpt lat="48.534492" lon="16.490467">
        <ele>256.552940</ele>
        <time>2020-07-01T04:37:16.000Z</time>
      </trkpt>
      <trkpt lat="48.534597" lon="16.490340">
        <ele>256.567389</ele>
        <time>2020-07-01T04:37:18.993Z</time>
      </trkpt>
      <trkpt lat="48.534705" lon="16.490225">
        <ele>256.578160</ele>
        <time>2020-07-01T04:37:21.984Z</time>
      </trkpt>
      <trkpt lat="48.534786" lon="16.490068">
        <ele>256.588902</ele>
        <time>2020-07-01T04:37:24.998Z</time>
      </trkpt>
      <trkpt lat="48.534848" lon="16.489961">
        <ele>256.596576</ele>
        <time>2020-07-01T04:37:26.982Z</time>
      </trkpt>
      <trkpt lat="48.534933" lon="16.489845">
        <ele>256.605914</ele>
        <time>2020-07-01T04:37:28.987Z</time>
      </trkpt>
      <trkpt lat="48.535016" lon="16.489728">
        <ele>256.615168</ele>
        <time>2020-07-01T04:37:31.014Z</time>
      </trkpt>
      <trkpt lat="48.535099" lon="16.489598">
        <ele>256.624915</ele>
        <time>2020-07-01T04:37:32.991Z</time>
      </trkpt>
      <trkpt lat="48.535182" lon="16.489459">
        <ele>256.635017</ele>
        <time>2020-07-01T04:37:34.979Z</time>
      </trkpt>
      <trkpt lat="48.535265" lon="16.489338">
        <ele>256.644420</ele>
        <time>2020-07-01T04:37:36.979Z</time>
      </trkpt>
      <trkpt lat="48.535350" lon="16.489207">
        <ele>256.654319</ele>
        <time>2020-07-01T04:37:39.006Z</time>
      </trkpt>
      <trkpt lat="48.535414" lon="16.489059">
        <ele>256.663859</ele>
        <time>2020-07-01T04:37:41.020Z</time>
      </trkpt>
      <trkpt lat="48.535467" lon="16.488894">
        <ele>256.673757</ele>
        <time>2020-07-01T04:37:43.010Z</time>
      </trkpt>
      <trkpt lat="48.535498" lon="16.488725">
        <ele>256.683222</ele>
        <time>2020-07-01T04:37:44.978Z</time>
      </trkpt>
      <trkpt lat="48.535510" lon="16.488552">
        <ele>256.692610</ele>
        <time>2020-07-01T04:37:47.005Z</time>
      </trkpt>
      <trkpt lat="48.535504" lon="16.488396">
        <ele>256.701043</ele>
        <time>2020-07-01T04:37:48.960Z</time>
      </trkpt>
      <trkpt lat="48.535494" lon="16.488236">
        <ele>256.710729</ele>
        <time>2020-07-01T04:37:50.985Z</time>
      </trkpt>
      <trkpt lat="48.535474" lon="16.488079">
        <ele>256.743349</ele>
        <time>2020-07-01T04:37:53.008Z</time>
      </trkpt>
      <trkpt lat="48.535439" lon="16.487921">
        <ele>256.777341</ele>
        <time>2020-07-01T04:37:54.970Z</time>
      </trkpt>
      <trkpt lat="48.535413" lon="16.487783">
        <ele>256.806615</ele>
        <time>2020-07-01T04:37:56.990Z</time>
      </trkpt>
      <trkpt lat="48.535389" lon="16.487650">
        <ele>256.834740</ele>
        <time>2020-07-01T04:37:58.986Z</time>
      </trkpt>
      <trkpt lat="48.535367" lon="16.487511">
        <ele>256.863899</ele>
        <time>2020-07-01T04:38:00.993Z</time>
      </trkpt>
      <trkpt lat="48.535338" lon="16.487360">
        <ele>256.895976</ele>
        <time>2020-07-01T04:38:02.987Z</time>
      </trkpt>
      <trkpt lat="48.535308" lon="16.487199">
        <ele>256.930101</ele>
        <time>2020-07-01T04:38:04.979Z</time>
      </trkpt>
      <trkpt lat="48.535277" lon="16.487033">
        <ele>256.965291</ele>
        <time>2020-07-01T04:38:06.980Z</time>
      </trkpt>
      <trkpt lat="48.535246" lon="16.486858">
        <ele>257.002251</ele>
        <time>2020-07-01T04:38:08.993Z</time>
      </trkpt>
      <trkpt lat="48.535222" lon="16.486679">
        <ele>257.039513</ele>
        <time>2020-07-01T04:38:10.964Z</time>
      </trkpt>
      <trkpt lat="48.535198" lon="16.486500">
        <ele>257.076775</ele>
        <time>2020-07-01T04:38:12.968Z</time>
      </trkpt>
      <trkpt lat="48.535171" lon="16.486315">
        <ele>257.115427</ele>
        <time>2020-07-01T04:38:14.991Z</time>
      </trkpt>
      <trkpt lat="48.535138" lon="16.486126">
        <ele>257.155306</ele>
        <time>2020-07-01T04:38:16.987Z</time>
      </trkpt>
      <trkpt lat="48.535104" lon="16.485942">
        <ele>257.194282</ele>
        <time>2020-07-01T04:38:18.992Z</time>
      </trkpt>
      <trkpt lat="48.535079" lon="16.485756">
        <ele>257.233005</ele>
        <time>2020-07-01T04:38:20.988Z</time>
      </trkpt>
      <trkpt lat="48.535056" lon="16.485568">
        <ele>257.285035</ele>
        <time>2020-07-01T04:38:22.994Z</time>
      </trkpt>
      <trkpt lat="48.535033" lon="16.485381">
        <ele>257.383643</ele>
        <time>2020-07-01T04:38:24.992Z</time>
      </trkpt>
      <trkpt lat="48.535007" lon="16.485203">
        <ele>257.478147</ele>
        <time>2020-07-01T04:38:26.986Z</time>
      </trkpt>
      <trkpt lat="48.534983" lon="16.485043">
        <ele>257.563201</ele>
        <time>2020-07-01T04:38:28.974Z</time>
      </trkpt>
      <trkpt lat="48.534957" lon="16.484890">
        <ele>257.645094</ele>
        <time>2020-07-01T04:38:30.983Z</time>
      </trkpt>
      <trkpt lat="48.534927" lon="16.484757">
        <ele>257.717940</ele>
        <time>2020-07-01T04:38:32.965Z</time>
      </trkpt>
      <trkpt lat="48.534823" lon="16.484740">
        <ele>257.799844</ele>
        <time>2020-07-01T04:38:35.975Z</time>
      </trkpt>
      <trkpt lat="48.534693" lon="16.484740">
        <ele>257.901630</ele>
        <time>2020-07-01T04:38:39.010Z</time>
      </trkpt>
      <trkpt lat="48.534598" lon="16.484732">
        <ele>257.976127</ele>
        <time>2020-07-01T04:38:40.987Z</time>
      </trkpt>
      <trkpt lat="48.534465" lon="16.484716">
        <ele>258.080592</ele>
        <time>2020-07-01T04:38:44.004Z</time>
      </trkpt>
      <trkpt lat="48.534369" lon="16.484709">
        <ele>258.155845</ele>
        <time>2020-07-01T04:38:45.980Z</time>
      </trkpt>
      <trkpt lat="48.534273" lon="16.484693">
        <ele>258.231466</ele>
        <time>2020-07-01T04:38:48.001Z</time>
      </trkpt>
      <trkpt lat="48.534180" lon="16.484681">
        <ele>258.304547</ele>
        <time>2020-07-01T04:38:49.983Z</time>
      </trkpt>
      <trkpt lat="48.534084" lon="16.484636">
        <ele>258.383250</ele>
        <time>2020-07-01T04:38:52.980Z</time>
      </trkpt>
      <trkpt lat="48.533975" lon="16.484576">
        <ele>258.474086</ele>
        <time>2020-07-01T04:38:56.980Z</time>
      </trkpt>
      <trkpt lat="48.533853" lon="16.484500">
        <ele>258.577416</ele>
        <time>2020-07-01T04:38:59.970Z</time>
      </trkpt>
      <trkpt lat="48.533780" lon="16.484422">
        <ele>258.647433</ele>
        <time>2020-07-01T04:39:01.972Z</time>
      </trkpt>
      <trkpt lat="48.533680" lon="16.484304">
        <ele>258.644583</ele>
        <time>2020-07-01T04:39:04.983Z</time>
      </trkpt>
      <trkpt lat="48.533578" lon="16.484192">
        <ele>258.608674</ele>
        <time>2020-07-01T04:39:07.981Z</time>
      </trkpt>
      <trkpt lat="48.533493" lon="16.484094">
        <ele>258.578224</ele>
        <time>2020-07-01T04:39:11.988Z</time>
      </trkpt>
      <trkpt lat="48.533389" lon="16.484122">
        <ele>258.548144</ele>
        <time>2020-07-01T04:39:16.977Z</time>
      </trkpt>
      <trkpt lat="48.533286" lon="16.484181">
        <ele>258.516778</ele>
        <time>2020-07-01T04:39:19.964Z</time>
      </trkpt>
      <trkpt lat="48.533161" lon="16.484166">
        <ele>258.481073</ele>
        <time>2020-07-01T04:39:22.977Z</time>
      </trkpt>
      <trkpt lat="48.533036" lon="16.484125">
        <ele>258.444651</ele>
        <time>2020-07-01T04:39:26.003Z</time>
      </trkpt>
      <trkpt lat="48.532907" lon="16.484087">
        <ele>258.407227</ele>
        <time>2020-07-01T04:39:28.987Z</time>
      </trkpt>
      <trkpt lat="48.532783" lon="16.484054">
        <ele>258.371376</ele>
        <time>2020-07-01T04:39:31.970Z</time>
      </trkpt>
      <trkpt lat="48.532655" lon="16.484021">
        <ele>258.334402</ele>
        <time>2020-07-01T04:39:34.981Z</time>
      </trkpt>
      <trkpt lat="48.532533" lon="16.484013">
        <ele>258.299631</ele>
        <time>2020-07-01T04:39:37.968Z</time>
      </trkpt>
      <trkpt lat="48.532435" lon="16.483988">
        <ele>258.271331</ele>
        <time>2020-07-01T04:39:40.968Z</time>
      </trkpt>
      <trkpt lat="48.532390" lon="16.483836">
        <ele>258.239938</ele>
        <time>2020-07-01T04:39:44.971Z</time>
      </trkpt>
      <trkpt lat="48.532332" lon="16.483693">
        <ele>258.208319</ele>
        <time>2020-07-01T04:39:47.965Z</time>
      </trkpt>
      <trkpt lat="48.532255" lon="16.483536">
        <ele>258.171481</ele>
        <time>2020-07-01T04:39:50.998Z</time>
      </trkpt>
      <trkpt lat="48.532197" lon="16.483431">
        <ele>258.157407</ele>
        <time>2020-07-01T04:39:52.965Z</time>
      </trkpt>
      <trkpt lat="48.532142" lon="16.483317">
        <ele>258.153052</ele>
        <time>2020-07-01T04:39:54.983Z</time>
      </trkpt>
      <trkpt lat="48.532090" lon="16.483197">
        <ele>258.148624</ele>
        <time>2020-07-01T04:39:56.999Z</time>
      </trkpt>
      <trkpt lat="48.532037" lon="16.483085">
        <ele>258.144374</ele>
        <time>2020-07-01T04:39:58.971Z</time>
      </trkpt>
      <trkpt lat="48.531940" lon="16.482956">
        <ele>258.138348</ele>
        <time>2020-07-01T04:40:01.973Z</time>
      </trkpt>
      <trkpt lat="48.531856" lon="16.482886">
        <ele>258.133875</ele>
        <time>2020-07-01T04:40:03.980Z</time>
      </trkpt>
      <trkpt lat="48.531763" lon="16.482819">
        <ele>258.129071</ele>
        <time>2020-07-01T04:40:05.997Z</time>
      </trkpt>
      <trkpt lat="48.531668" lon="16.482756">
        <ele>258.124233</ele>
        <time>2020-07-01T04:40:08.005Z</time>
      </trkpt>
      <trkpt lat="48.531569" lon="16.482738">
        <ele>258.119584</ele>
        <time>2020-07-01T04:40:09.980Z</time>
      </trkpt>
      <trkpt lat="48.531467" lon="16.482729">
        <ele>258.114821</ele>
        <time>2020-07-01T04:40:11.975Z</time>
      </trkpt>
      <trkpt lat="48.531362" lon="16.482710">
        <ele>258.109890</ele>
        <time>2020-07-01T04:40:13.980Z</time>
      </trkpt>
      <trkpt lat="48.531258" lon="16.482695">
        <ele>258.105019</ele>
        <time>2020-07-01T04:40:15.991Z</time>
      </trkpt>
      <trkpt lat="48.531158" lon="16.482692">
        <ele>258.100356</ele>
        <time>2020-07-01T04:40:17.975Z</time>
      </trkpt>
      <trkpt lat="48.531054" lon="16.482697">
        <ele>258.095505</ele>
        <time>2020-07-01T04:40:19.983Z</time>
      </trkpt>
      <trkpt lat="48.530954" lon="16.482696">
        <ele>258.090842</ele>
        <time>2020-07-01T04:40:21.974Z</time>
      </trkpt>
      <trkpt lat="48.530855" lon="16.482691">
        <ele>258.086224</ele>
        <time>2020-07-01T04:40:23.969Z</time>
      </trkpt>
      <trkpt lat="48.530756" lon="16.482683">
        <ele>258.081602</ele>
        <time>2020-07-01T04:40:26.003Z</time>
      </trkpt>
      <trkpt lat="48.530660" lon="16.482670">
        <ele>258.077108</ele>
        <time>2020-07-01T04:40:27.968Z</time>
      </trkpt>
      <trkpt lat="48.530570" lon="16.482665">
        <ele>258.082360</ele>
        <time>2020-07-01T04:40:29.976Z</time>
      </trkpt>
      <trkpt lat="48.530447" lon="16.482651">
        <ele>258.095150</ele>
        <time>2020-07-01T04:40:32.968Z</time>
      </trkpt>
      <trkpt lat="48.530327" lon="16.482636">
        <ele>258.107636</ele>
        <time>2020-07-01T04:40:36.009Z</time>
      </trkpt>
      <trkpt lat="48.530205" lon="16.482625">
        <ele>258.120309</ele>
        <time>2020-07-01T04:40:38.969Z</time>
      </trkpt>
      <trkpt lat="48.530084" lon="16.482603">
        <ele>258.132946</ele>
        <time>2020-07-01T04:40:41.981Z</time>
      </trkpt>
      <trkpt lat="48.529954" lon="16.482581">
        <ele>258.146511</ele>
        <time>2020-07-01T04:40:44.998Z</time>
      </trkpt>
      <trkpt lat="48.529829" lon="16.482577">
        <ele>258.159475</ele>
        <time>2020-07-01T04:40:47.980Z</time>
      </trkpt>
      <trkpt lat="48.529709" lon="16.482602">
        <ele>258.172036</ele>
        <time>2020-07-01T04:40:50.991Z</time>
      </trkpt>
      <trkpt lat="48.529580" lon="16.482682">
        <ele>258.186497</ele>
        <time>2020-07-01T04:40:53.969Z</time>
      </trkpt>
      <trkpt lat="48.529494" lon="16.482737">
        <ele>258.196181</ele>
        <time>2020-07-01T04:40:55.987Z</time>
      </trkpt>
      <trkpt lat="48.529403" lon="16.482788">
        <ele>258.206246</ele>
        <time>2020-07-01T04:40:57.982Z</time>
      </trkpt>
      <trkpt lat="48.529311" lon="16.482837">
        <ele>258.216362</ele>
        <time>2020-07-01T04:40:59.977Z</time>
      </trkpt>
      <trkpt lat="48.529218" lon="16.482890">
        <ele>258.226670</ele>
        <time>2020-07-01T04:41:01.985Z</time>
      </trkpt>
      <trkpt lat="48.529124" lon="16.482952">
        <ele>258.237306</ele>
        <time>2020-07-01T04:41:04.008Z</time>
      </trkpt>
      <trkpt lat="48.529032" lon="16.483014">
        <ele>258.247753</ele>
        <time>2020-07-01T04:41:05.980Z</time>
      </trkpt>
      <trkpt lat="48.528932" lon="16.483067">
        <ele>258.258742</ele>
        <time>2020-07-01T04:41:07.997Z</time>
      </trkpt>
      <trkpt lat="48.528836" lon="16.483116">
        <ele>258.275912</ele>
        <time>2020-07-01T04:41:09.967Z</time>
      </trkpt>
      <trkpt lat="48.528740" lon="16.483170">
        <ele>258.296787</ele>
        <time>2020-07-01T04:41:11.994Z</time>
      </trkpt>
      <trkpt lat="48.528645" lon="16.483226">
        <ele>258.317568</ele>
        <time>2020-07-01T04:41:14.006Z</time>
      </trkpt>
      <trkpt lat="48.528551" lon="16.483285">
        <ele>258.338311</ele>
        <time>2020-07-01T04:41:15.986Z</time>
      </trkpt>
      <trkpt lat="48.528457" lon="16.483341">
        <ele>258.358901</ele>
        <time>2020-07-01T04:41:17.988Z</time>
      </trkpt>
      <trkpt lat="48.528362" lon="16.483392">
        <ele>258.379446</ele>
        <time>2020-07-01T04:41:20.002Z</time>
      </trkpt>
      <trkpt lat="48.528266" lon="16.483443">
        <ele>258.400183</ele>
        <time>2020-07-01T04:41:21.987Z</time>
      </trkpt>
      <trkpt lat="48.528170" lon="16.483496">
        <ele>258.421011</ele>
        <time>2020-07-01T04:41:23.973Z</time>
      </trkpt>
      <trkpt lat="48.528074" lon="16.483555">
        <ele>258.442131</ele>
        <time>2020-07-01T04:41:26.005Z</time>
      </trkpt>
      <trkpt lat="48.527976" lon="16.483612">
        <ele>258.463531</ele>
        <time>2020-07-01T04:41:28.001Z</time>
      </trkpt>
      <trkpt lat="48.527884" lon="16.483666">
        <ele>258.483644</ele>
        <time>2020-07-01T04:41:29.976Z</time>
      </trkpt>
      <trkpt lat="48.527785" lon="16.483724">
        <ele>258.505282</ele>
        <time>2020-07-01T04:41:31.967Z</time>
      </trkpt>
      <trkpt lat="48.527687" lon="16.483776">
        <ele>258.526448</ele>
        <time>2020-07-01T04:41:33.976Z</time>
      </trkpt>
      <trkpt lat="48.527590" lon="16.483827">
        <ele>258.547378</ele>
        <time>2020-07-01T04:41:35.996Z</time>
      </trkpt>
      <trkpt lat="48.527494" lon="16.483881">
        <ele>258.568252</ele>
        <time>2020-07-01T04:41:37.991Z</time>
      </trkpt>
      <trkpt lat="48.527402" lon="16.483939">
        <ele>258.588567</ele>
        <time>2020-07-01T04:41:39.987Z</time>
      </trkpt>
      <trkpt lat="48.527311" lon="16.483998">
        <ele>258.608747</ele>
        <time>2020-07-01T04:41:41.988Z</time>
      </trkpt>
      <trkpt lat="48.527221" lon="16.484054">
        <ele>258.628582</ele>
        <time>2020-07-01T04:41:43.975Z</time>
      </trkpt>
      <trkpt lat="48.527133" lon="16.484108">
        <ele>258.715189</ele>
        <time>2020-07-01T04:41:46.007Z</time>
      </trkpt>
      <trkpt lat="48.527040" lon="16.484175">
        <ele>258.810169</ele>
        <time>2020-07-01T04:41:47.995Z</time>
      </trkpt>
      <trkpt lat="48.526948" lon="16.484234">
        <ele>258.902302</ele>
        <time>2020-07-01T04:41:49.973Z</time>
      </trkpt>
      <trkpt lat="48.526853" lon="16.484289">
        <ele>258.996084</ele>
        <time>2020-07-01T04:41:52.012Z</time>
      </trkpt>
      <trkpt lat="48.526758" lon="16.484345">
        <ele>259.090086</ele>
        <time>2020-07-01T04:41:53.995Z</time>
      </trkpt>
      <trkpt lat="48.526665" lon="16.484392">
        <ele>259.180483</ele>
        <time>2020-07-01T04:41:55.981Z</time>
      </trkpt>
      <trkpt lat="48.526571" lon="16.484446">
        <ele>259.273187</ele>
        <time>2020-07-01T04:41:57.985Z</time>
      </trkpt>
      <trkpt lat="48.526481" lon="16.484493">
        <ele>259.360966</ele>
        <time>2020-07-01T04:41:59.997Z</time>
      </trkpt>
      <trkpt lat="48.526394" lon="16.484542">
        <ele>259.446555</ele>
        <time>2020-07-01T04:42:01.969Z</time>
      </trkpt>
      <trkpt lat="48.526307" lon="16.484590">
        <ele>259.531933</ele>
        <time>2020-07-01T04:42:03.990Z</time>
      </trkpt>
      <trkpt lat="48.526223" lon="16.484644">
        <ele>259.616086</ele>
        <time>2020-07-01T04:42:05.976Z</time>
      </trkpt>
      <trkpt lat="48.526136" lon="16.484691">
        <ele>259.701256</ele>
        <time>2020-07-01T04:42:07.980Z</time>
      </trkpt>
      <trkpt lat="48.526050" lon="16.484734">
        <ele>259.784760</ele>
        <time>2020-07-01T04:42:09.971Z</time>
      </trkpt>
      <trkpt lat="48.525962" lon="16.484785">
        <ele>259.871644</ele>
        <time>2020-07-01T04:42:11.963Z</time>
      </trkpt>
      <trkpt lat="48.525876" lon="16.484832">
        <ele>259.955947</ele>
        <time>2020-07-01T04:42:13.986Z</time>
      </trkpt>
      <trkpt lat="48.525753" lon="16.484901">
        <ele>260.076894</ele>
        <time>2020-07-01T04:42:16.999Z</time>
      </trkpt>
      <trkpt lat="48.525637" lon="16.484961">
        <ele>260.189917</ele>
        <time>2020-07-01T04:42:19.979Z</time>
      </trkpt>
      <trkpt lat="48.525527" lon="16.485016">
        <ele>260.294447</ele>
        <time>2020-07-01T04:42:22.986Z</time>
      </trkpt>
      <trkpt lat="48.525418" lon="16.485074">
        <ele>260.376650</ele>
        <time>2020-07-01T04:42:25.961Z</time>
      </trkpt>
      <trkpt lat="48.525311" lon="16.485139">
        <ele>260.458685</ele>
        <time>2020-07-01T04:42:28.978Z</time>
      </trkpt>
      <trkpt lat="48.525201" lon="16.485194">
        <ele>260.541103</ele>
        <time>2020-07-01T04:42:31.995Z</time>
      </trkpt>
      <trkpt lat="48.525082" lon="16.485268">
        <ele>260.632642</ele>
        <time>2020-07-01T04:42:34.985Z</time>
      </trkpt>
      <trkpt lat="48.524997" lon="16.485333">
        <ele>260.700412</ele>
        <time>2020-07-01T04:42:36.979Z</time>
      </trkpt>
      <trkpt lat="48.524908" lon="16.485397">
        <ele>260.770528</ele>
        <time>2020-07-01T04:42:38.997Z</time>
      </trkpt>
      <trkpt lat="48.524813" lon="16.485458">
        <ele>260.843955</ele>
        <time>2020-07-01T04:42:40.992Z</time>
      </trkpt>
      <trkpt lat="48.524706" lon="16.485515">
        <ele>260.924659</ele>
        <time>2020-07-01T04:42:42.980Z</time>
      </trkpt>
      <trkpt lat="48.524597" lon="16.485573">
        <ele>261.006862</ele>
        <time>2020-07-01T04:42:45.003Z</time>
      </trkpt>
      <trkpt lat="48.524488" lon="16.485634">
        <ele>261.089545</ele>
        <time>2020-07-01T04:42:46.959Z</time>
      </trkpt>
      <trkpt lat="48.524379" lon="16.485700">
        <ele>261.173076</ele>
        <time>2020-07-01T04:42:48.983Z</time>
      </trkpt>
      <trkpt lat="48.524269" lon="16.485746">
        <ele>261.254261</ele>
        <time>2020-07-01T04:42:50.985Z</time>
      </trkpt>
      <trkpt lat="48.524156" lon="16.485786">
        <ele>261.336814</ele>
        <time>2020-07-01T04:42:52.983Z</time>
      </trkpt>
      <trkpt lat="48.524042" lon="16.485822">
        <ele>261.419654</ele>
        <time>2020-07-01T04:42:54.994Z</time>
      </trkpt>
      <trkpt lat="48.523931" lon="16.485849">
        <ele>261.499624</ele>
        <time>2020-07-01T04:42:56.989Z</time>
      </trkpt>
      <trkpt lat="48.523823" lon="16.485878">
        <ele>261.578749</ele>
        <time>2020-07-01T04:42:59.002Z</time>
      </trkpt>
      <trkpt lat="48.523717" lon="16.485916">
        <ele>261.663627</ele>
        <time>2020-07-01T04:43:01.001Z</time>
      </trkpt>
      <trkpt lat="48.523612" lon="16.485959">
        <ele>261.748385</ele>
        <time>2020-07-01T04:43:02.998Z</time>
      </trkpt>
      <trkpt lat="48.523510" lon="16.485999">
        <ele>261.830487</ele>
        <time>2020-07-01T04:43:04.992Z</time>
      </trkpt>
      <trkpt lat="48.523412" lon="16.486034">
        <ele>261.908944</ele>
        <time>2020-07-01T04:43:06.980Z</time>
      </trkpt>
      <trkpt lat="48.523316" lon="16.486061">
        <ele>261.985021</ele>
        <time>2020-07-01T04:43:09.008Z</time>
      </trkpt>
      <trkpt lat="48.523226" lon="16.486085">
        <ele>262.056223</ele>
        <time>2020-07-01T04:43:11.032Z</time>
      </trkpt>
      <trkpt lat="48.523113" lon="16.486127">
        <ele>262.146887</ele>
        <time>2020-07-01T04:43:14.008Z</time>
      </trkpt>
      <trkpt lat="48.522995" lon="16.486168">
        <ele>262.241221</ele>
        <time>2020-07-01T04:43:16.993Z</time>
      </trkpt>
      <trkpt lat="48.522887" lon="16.486204">
        <ele>262.327387</ele>
        <time>2020-07-01T04:43:19.986Z</time>
      </trkpt>
      <trkpt lat="48.522778" lon="16.486244">
        <ele>262.414778</ele>
        <time>2020-07-01T04:43:22.967Z</time>
      </trkpt>
      <trkpt lat="48.522668" lon="16.486281">
        <ele>262.502577</ele>
        <time>2020-07-01T04:43:25.996Z</time>
      </trkpt>
      <trkpt lat="48.522565" lon="16.486322">
        <ele>262.585564</ele>
        <time>2020-07-01T04:43:28.964Z</time>
      </trkpt>
      <trkpt lat="48.522465" lon="16.486354">
        <ele>262.665202</ele>
        <time>2020-07-01T04:43:31.966Z</time>
      </trkpt>
      <trkpt lat="48.522345" lon="16.486381">
        <ele>262.759724</ele>
        <time>2020-07-01T04:43:34.992Z</time>
      </trkpt>
      <trkpt lat="48.522220" lon="16.486432">
        <ele>262.860601</ele>
        <time>2020-07-01T04:43:37.980Z</time>
      </trkpt>
      <trkpt lat="48.522127" lon="16.486469">
        <ele>262.935528</ele>
        <time>2020-07-01T04:43:39.973Z</time>
      </trkpt>
      <trkpt lat="48.522032" lon="16.486496">
        <ele>263.022892</ele>
        <time>2020-07-01T04:43:41.980Z</time>
      </trkpt>
      <trkpt lat="48.521943" lon="16.486516">
        <ele>263.112424</ele>
        <time>2020-07-01T04:43:43.991Z</time>
      </trkpt>
      <trkpt lat="48.521853" lon="16.486552">
        <ele>263.205065</ele>
        <time>2020-07-01T04:43:45.987Z</time>
      </trkpt>
      <trkpt lat="48.521760" lon="16.486587">
        <ele>263.300434</ele>
        <time>2020-07-01T04:43:47.973Z</time>
      </trkpt>
      <trkpt lat="48.521664" lon="16.486621">
        <ele>263.398549</ele>
        <time>2020-07-01T04:43:49.991Z</time>
      </trkpt>
      <trkpt lat="48.521572" lon="16.486647">
        <ele>263.491680</ele>
        <time>2020-07-01T04:43:51.986Z</time>
      </trkpt>
      <trkpt lat="48.521445" lon="16.486685">
        <ele>263.620505</ele>
        <time>2020-07-01T04:43:54.973Z</time>
      </trkpt>
      <trkpt lat="48.521326" lon="16.486718">
        <ele>263.740893</ele>
        <time>2020-07-01T04:43:57.987Z</time>
      </trkpt>
      <trkpt lat="48.521207" lon="16.486757">
        <ele>263.862058</ele>
        <time>2020-07-01T04:44:00.982Z</time>
      </trkpt>
      <trkpt lat="48.521086" lon="16.486798">
        <ele>263.985450</ele>
        <time>2020-07-01T04:44:04.004Z</time>
      </trkpt>
      <trkpt lat="48.520954" lon="16.486846">
        <ele>264.120549</ele>
        <time>2020-07-01T04:44:06.977Z</time>
      </trkpt>
      <trkpt lat="48.520863" lon="16.486882">
        <ele>264.214152</ele>
        <time>2020-07-01T04:44:08.983Z</time>
      </trkpt>
      <trkpt lat="48.520770" lon="16.486910">
        <ele>264.308511</ele>
        <time>2020-07-01T04:44:10.958Z</time>
      </trkpt>
      <trkpt lat="48.520638" lon="16.486947">
        <ele>264.442098</ele>
        <time>2020-07-01T04:44:14.005Z</time>
      </trkpt>
      <trkpt lat="48.520508" lon="16.486986">
        <ele>264.573980</ele>
        <time>2020-07-01T04:44:16.985Z</time>
      </trkpt>
      <trkpt lat="48.520380" lon="16.487041">
        <ele>264.706400</ele>
        <time>2020-07-01T04:44:20.002Z</time>
      </trkpt>
      <trkpt lat="48.520255" lon="16.487094">
        <ele>264.823964</ele>
        <time>2020-07-01T04:44:22.987Z</time>
      </trkpt>
      <trkpt lat="48.520125" lon="16.487142">
        <ele>264.937421</ele>
        <time>2020-07-01T04:44:25.983Z</time>
      </trkpt>
      <trkpt lat="48.520035" lon="16.487172">
        <ele>265.015556</ele>
        <time>2020-07-01T04:44:27.969Z</time>
      </trkpt>
      <trkpt lat="48.519908" lon="16.487217">
        <ele>265.126147</ele>
        <time>2020-07-01T04:44:30.980Z</time>
      </trkpt>
      <trkpt lat="48.519787" lon="16.487259">
        <ele>265.231401</ele>
        <time>2020-07-01T04:44:34.009Z</time>
      </trkpt>
      <trkpt lat="48.519658" lon="16.487301">
        <ele>265.343276</ele>
        <time>2020-07-01T04:44:36.997Z</time>
      </trkpt>
      <trkpt lat="48.519564" lon="16.487325">
        <ele>265.424096</ele>
        <time>2020-07-01T04:44:38.989Z</time>
      </trkpt>
      <trkpt lat="48.519473" lon="16.487349">
        <ele>265.502411</ele>
        <time>2020-07-01T04:44:40.982Z</time>
      </trkpt>
      <trkpt lat="48.519379" lon="16.487378">
        <ele>265.583746</ele>
        <time>2020-07-01T04:44:43.000Z</time>
      </trkpt>
      <trkpt lat="48.519281" lon="16.487410">
        <ele>265.668747</ele>
        <time>2020-07-01T04:44:44.988Z</time>
      </trkpt>
      <trkpt lat="48.519179" lon="16.487451">
        <ele>265.758231</ele>
        <time>2020-07-01T04:44:46.983Z</time>
      </trkpt>
      <trkpt lat="48.519073" lon="16.487492">
        <ele>265.850995</ele>
        <time>2020-07-01T04:44:48.991Z</time>
      </trkpt>
      <trkpt lat="48.518963" lon="16.487531">
        <ele>265.946786</ele>
        <time>2020-07-01T04:44:50.992Z</time>
      </trkpt>
      <trkpt lat="48.518847" lon="16.487566">
        <ele>266.047070</ele>
        <time>2020-07-01T04:44:52.964Z</time>
      </trkpt>
      <trkpt lat="48.518735" lon="16.487593">
        <ele>266.143221</ele>
        <time>2020-07-01T04:44:54.997Z</time>
      </trkpt>
      <trkpt lat="48.518633" lon="16.487623">
        <ele>266.231318</ele>
        <time>2020-07-01T04:44:56.972Z</time>
      </trkpt>
      <trkpt lat="48.518539" lon="16.487648">
        <ele>266.296770</ele>
        <time>2020-07-01T04:44:58.981Z</time>
      </trkpt>
      <trkpt lat="48.518446" lon="16.487670">
        <ele>266.335948</ele>
        <time>2020-07-01T04:45:00.975Z</time>
      </trkpt>
      <trkpt lat="48.518316" lon="16.487708">
        <ele>266.391059</ele>
        <time>2020-07-01T04:45:03.984Z</time>
      </trkpt>
      <trkpt lat="48.518189" lon="16.487743">
        <ele>266.444790</ele>
        <time>2020-07-01T04:45:06.990Z</time>
      </trkpt>
      <trkpt lat="48.518070" lon="16.487800">
        <ele>266.496750</ele>
        <time>2020-07-01T04:45:09.966Z</time>
      </trkpt>
      <trkpt lat="48.517938" lon="16.487835">
        <ele>266.552529</ele>
        <time>2020-07-01T04:45:13.004Z</time>
      </trkpt>
      <trkpt lat="48.517843" lon="16.487865">
        <ele>266.592924</ele>
        <time>2020-07-01T04:45:14.979Z</time>
      </trkpt>
      <trkpt lat="48.517742" lon="16.487900">
        <ele>266.636053</ele>
        <time>2020-07-01T04:45:16.974Z</time>
      </trkpt>
      <trkpt lat="48.517632" lon="16.487931">
        <ele>266.682626</ele>
        <time>2020-07-01T04:45:19.011Z</time>
      </trkpt>
      <trkpt lat="48.517505" lon="16.487965">
        <ele>266.736308</ele>
        <time>2020-07-01T04:45:20.982Z</time>
      </trkpt>
      <trkpt lat="48.517380" lon="16.488010">
        <ele>266.789791</ele>
        <time>2020-07-01T04:45:22.993Z</time>
      </trkpt>
      <trkpt lat="48.517254" lon="16.488046">
        <ele>266.843163</ele>
        <time>2020-07-01T04:45:24.986Z</time>
      </trkpt>
      <trkpt lat="48.517123" lon="16.488079">
        <ele>266.898439</ele>
        <time>2020-07-01T04:45:26.983Z</time>
      </trkpt>
      <trkpt lat="48.516983" lon="16.488124">
        <ele>266.958012</ele>
        <time>2020-07-01T04:45:28.983Z</time>
      </trkpt>
      <trkpt lat="48.516842" lon="16.488172">
        <ele>267.018170</ele>
        <time>2020-07-01T04:45:31.008Z</time>
      </trkpt>
      <trkpt lat="48.516699" lon="16.488224">
        <ele>267.029673</ele>
        <time>2020-07-01T04:45:32.973Z</time>
      </trkpt>
      <trkpt lat="48.516555" lon="16.488277">
        <ele>267.028698</ele>
        <time>2020-07-01T04:45:34.993Z</time>
      </trkpt>
      <trkpt lat="48.516415" lon="16.488323">
        <ele>267.027755</ele>
        <time>2020-07-01T04:45:36.972Z</time>
      </trkpt>
      <trkpt lat="48.516279" lon="16.488374">
        <ele>267.026833</ele>
        <time>2020-07-01T04:45:38.987Z</time>
      </trkpt>
      <trkpt lat="48.516145" lon="16.488419">
        <ele>267.025929</ele>
        <time>2020-07-01T04:45:40.976Z</time>
      </trkpt>
      <trkpt lat="48.516011" lon="16.488465">
        <ele>267.025025</ele>
        <time>2020-07-01T04:45:42.995Z</time>
      </trkpt>
      <trkpt lat="48.515879" lon="16.488511">
        <ele>267.024134</ele>
        <time>2020-07-01T04:45:45.004Z</time>
      </trkpt>
      <trkpt lat="48.515746" lon="16.488557">
        <ele>267.023236</ele>
        <time>2020-07-01T04:45:46.995Z</time>
      </trkpt>
      <trkpt lat="48.515616" lon="16.488600">
        <ele>267.022360</ele>
        <time>2020-07-01T04:45:49.001Z</time>
      </trkpt>
      <trkpt lat="48.515487" lon="16.488641">
        <ele>267.021492</ele>
        <time>2020-07-01T04:45:50.977Z</time>
      </trkpt>
      <trkpt lat="48.515359" lon="16.488685">
        <ele>267.020628</ele>
        <time>2020-07-01T04:45:52.988Z</time>
      </trkpt>
      <trkpt lat="48.515237" lon="16.488733">
        <ele>267.019799</ele>
        <time>2020-07-01T04:45:54.978Z</time>
      </trkpt>
      <trkpt lat="48.515120" lon="16.488786">
        <ele>267.018995</ele>
        <time>2020-07-01T04:45:56.968Z</time>
      </trkpt>
      <trkpt lat="48.515002" lon="16.488831">
        <ele>267.096828</ele>
        <time>2020-07-01T04:45:58.980Z</time>
      </trkpt>
      <trkpt lat="48.514886" lon="16.488863">
        <ele>267.242505</ele>
        <time>2020-07-01T04:46:00.971Z</time>
      </trkpt>
      <trkpt lat="48.514775" lon="16.488895">
        <ele>267.382111</ele>
        <time>2020-07-01T04:46:03.000Z</time>
      </trkpt>
      <trkpt lat="48.514667" lon="16.488931">
        <ele>267.518746</ele>
        <time>2020-07-01T04:46:04.987Z</time>
      </trkpt>
      <trkpt lat="48.514565" lon="16.488969">
        <ele>267.648535</ele>
        <time>2020-07-01T04:46:06.976Z</time>
      </trkpt>
      <trkpt lat="48.514466" lon="16.488998">
        <ele>267.773120</ele>
        <time>2020-07-01T04:46:08.980Z</time>
      </trkpt>
      <trkpt lat="48.514370" lon="16.489025">
        <ele>267.893757</ele>
        <time>2020-07-01T04:46:10.970Z</time>
      </trkpt>
      <trkpt lat="48.514281" lon="16.489076">
        <ele>268.011361</ele>
        <time>2020-07-01T04:46:13.020Z</time>
      </trkpt>
      <trkpt lat="48.514186" lon="16.489098">
        <ele>268.130095</ele>
        <time>2020-07-01T04:46:14.971Z</time>
      </trkpt>
      <trkpt lat="48.514096" lon="16.489119">
        <ele>268.242600</ele>
        <time>2020-07-01T04:46:17.000Z</time>
      </trkpt>
      <trkpt lat="48.513967" lon="16.489152">
        <ele>268.404236</ele>
        <time>2020-07-01T04:46:19.998Z</time>
      </trkpt>
      <trkpt lat="48.513850" lon="16.489186">
        <ele>268.551430</ele>
        <time>2020-07-01T04:46:22.999Z</time>
      </trkpt>
      <trkpt lat="48.513754" lon="16.489215">
        <ele>268.672378</ele>
        <time>2020-07-01T04:46:25.990Z</time>
      </trkpt>
      <trkpt lat="48.513665" lon="16.489241">
        <ele>268.784367</ele>
        <time>2020-07-01T04:46:28.974Z</time>
      </trkpt>
      <trkpt lat="48.513562" lon="16.489276">
        <ele>268.914795</ele>
        <time>2020-07-01T04:46:32.971Z</time>
      </trkpt>
      <trkpt lat="48.513471" lon="16.489306">
        <ele>269.029864</ele>
        <time>2020-07-01T04:46:36.987Z</time>
      </trkpt>
      <trkpt lat="48.513375" lon="16.489361">
        <ele>269.156715</ele>
        <time>2020-07-01T04:46:40.960Z</time>
      </trkpt>
      <trkpt lat="48.513279" lon="16.489411">
        <ele>269.329792</ele>
        <time>2020-07-01T04:46:44.983Z</time>
      </trkpt>
      <trkpt lat="48.513165" lon="16.489462">
        <ele>269.645024</ele>
        <time>2020-07-01T04:46:49.958Z</time>
      </trkpt>
      <trkpt lat="48.513052" lon="16.489482">
        <ele>269.946664</ele>
        <time>2020-07-01T04:46:53.993Z</time>
      </trkpt>
      <trkpt lat="48.512961" lon="16.489517">
        <ele>270.195633</ele>
        <time>2020-07-01T04:46:56.980Z</time>
      </trkpt>
      <trkpt lat="48.512846" lon="16.489561">
        <ele>270.510164</ele>
        <time>2020-07-01T04:47:00.997Z</time>
      </trkpt>
      <trkpt lat="48.512752" lon="16.489596">
        <ele>270.766848</ele>
        <time>2020-07-01T04:47:04.023Z</time>
      </trkpt>
      <trkpt lat="48.512654" lon="16.489627">
        <ele>271.032311</ele>
        <time>2020-07-01T04:47:07.004Z</time>
      </trkpt>
      <trkpt lat="48.512556" lon="16.489663">
        <ele>271.299713</ele>
        <time>2020-07-01T04:47:09.992Z</time>
      </trkpt>
      <trkpt lat="48.512460" lon="16.489698">
        <ele>271.561548</ele>
        <time>2020-07-01T04:47:12.981Z</time>
      </trkpt>
      <trkpt lat="48.512353" lon="16.489725">
        <ele>271.849165</ele>
        <time>2020-07-01T04:47:15.969Z</time>
      </trkpt>
      <trkpt lat="48.512250" lon="16.489759">
        <ele>272.128693</ele>
        <time>2020-07-01T04:47:18.971Z</time>
      </trkpt>
      <trkpt lat="48.512142" lon="16.489799">
        <ele>272.423517</ele>
        <time>2020-07-01T04:47:22.014Z</time>
      </trkpt>
      <trkpt lat="48.512027" lon="16.489838">
        <ele>272.736007</ele>
        <time>2020-07-01T04:47:24.983Z</time>
      </trkpt>
      <trkpt lat="48.511906" lon="16.489880">
        <ele>273.065177</ele>
        <time>2020-07-01T04:47:27.985Z</time>
      </trkpt>
      <trkpt lat="48.511781" lon="16.489925">
        <ele>273.405873</ele>
        <time>2020-07-01T04:47:30.976Z</time>
      </trkpt>
      <trkpt lat="48.511656" lon="16.489967">
        <ele>273.745386</ele>
        <time>2020-07-01T04:47:33.974Z</time>
      </trkpt>
      <trkpt lat="48.511566" lon="16.489997">
        <ele>273.989744</ele>
        <time>2020-07-01T04:47:36.003Z</time>
      </trkpt>
      <trkpt lat="48.511474" lon="16.490027">
        <ele>274.087811</ele>
        <time>2020-07-01T04:47:37.979Z</time>
      </trkpt>
      <trkpt lat="48.511380" lon="16.490055">
        <ele>274.174587</ele>
        <time>2020-07-01T04:47:39.976Z</time>
      </trkpt>
      <trkpt lat="48.511283" lon="16.490092">
        <ele>274.265199</ele>
        <time>2020-07-01T04:47:42.001Z</time>
      </trkpt>
      <trkpt lat="48.511176" lon="16.490129">
        <ele>274.364617</ele>
        <time>2020-07-01T04:47:43.999Z</time>
      </trkpt>
      <trkpt lat="48.511071" lon="16.490164">
        <ele>274.462004</ele>
        <time>2020-07-01T04:47:45.993Z</time>
      </trkpt>
      <trkpt lat="48.510971" lon="16.490203">
        <ele>274.555545</ele>
        <time>2020-07-01T04:47:47.981Z</time>
      </trkpt>
      <trkpt lat="48.510880" lon="16.490254">
        <ele>274.643459</ele>
        <time>2020-07-01T04:47:50.002Z</time>
      </trkpt>
      <trkpt lat="48.510763" lon="16.490330">
        <ele>274.758818</ele>
        <time>2020-07-01T04:47:52.973Z</time>
      </trkpt>
      <trkpt lat="48.510658" lon="16.490410">
        <ele>274.865342</ele>
        <time>2020-07-01T04:47:55.996Z</time>
      </trkpt>
      <trkpt lat="48.510555" lon="16.490527">
        <ele>274.982089</ele>
        <time>2020-07-01T04:47:58.982Z</time>
      </trkpt>
      <trkpt lat="48.510482" lon="16.490627">
        <ele>275.071370</ele>
        <time>2020-07-01T04:48:01.021Z</time>
      </trkpt>
      <trkpt lat="48.510392" lon="16.490723">
        <ele>275.171179</ele>
        <time>2020-07-01T04:48:02.997Z</time>
      </trkpt>
      <trkpt lat="48.510298" lon="16.490823">
        <ele>275.275331</ele>
        <time>2020-07-01T04:48:04.983Z</time>
      </trkpt>
      <trkpt lat="48.510197" lon="16.490942">
        <ele>275.391371</ele>
        <time>2020-07-01T04:48:07.001Z</time>
      </trkpt>
      <trkpt lat="48.510094" lon="16.491066">
        <ele>275.510692</ele>
        <time>2020-07-01T04:48:09.022Z</time>
      </trkpt>
      <trkpt lat="48.509992" lon="16.491189">
        <ele>275.628930</ele>
        <time>2020-07-01T04:48:11.019Z</time>
      </trkpt>
      <trkpt lat="48.509882" lon="16.491321">
        <ele>275.602065</ele>
        <time>2020-07-01T04:48:12.970Z</time>
      </trkpt>
      <trkpt lat="48.509769" lon="16.491466">
        <ele>275.560915</ele>
        <time>2020-07-01T04:48:14.962Z</time>
      </trkpt>
      <trkpt lat="48.509649" lon="16.491618">
        <ele>275.517451</ele>
        <time>2020-07-01T04:48:16.985Z</time>
      </trkpt>
      <trkpt lat="48.509521" lon="16.491776">
        <ele>275.471575</ele>
        <time>2020-07-01T04:48:18.994Z</time>
      </trkpt>
      <trkpt lat="48.509391" lon="16.491939">
        <ele>275.424685</ele>
        <time>2020-07-01T04:48:20.994Z</time>
      </trkpt>
      <trkpt lat="48.509261" lon="16.492097">
        <ele>275.378378</ele>
        <time>2020-07-01T04:48:22.989Z</time>
      </trkpt>
      <trkpt lat="48.509129" lon="16.492248">
        <ele>275.332425</ele>
        <time>2020-07-01T04:48:24.989Z</time>
      </trkpt>
      <trkpt lat="48.509001" lon="16.492406">
        <ele>275.286548</ele>
        <time>2020-07-01T04:48:27.002Z</time>
      </trkpt>
      <trkpt lat="48.508870" lon="16.492569">
        <ele>275.239445</ele>
        <time>2020-07-01T04:48:28.993Z</time>
      </trkpt>
      <trkpt lat="48.508735" lon="16.492741">
        <ele>275.190429</ele>
        <time>2020-07-01T04:48:30.965Z</time>
      </trkpt>
      <trkpt lat="48.508600" lon="16.492908">
        <ele>275.142002</ele>
        <time>2020-07-01T04:48:32.976Z</time>
      </trkpt>
      <trkpt lat="48.508470" lon="16.493063">
        <ele>275.092256</ele>
        <time>2020-07-01T04:48:35.012Z</time>
      </trkpt>
      <trkpt lat="48.508352" lon="16.493214">
        <ele>275.045571</ele>
        <time>2020-07-01T04:48:36.994Z</time>
      </trkpt>
      <trkpt lat="48.508236" lon="16.493348">
        <ele>275.001489</ele>
        <time>2020-07-01T04:48:39.004Z</time>
      </trkpt>
      <trkpt lat="48.508127" lon="16.493476">
        <ele>274.959813</ele>
        <time>2020-07-01T04:48:40.997Z</time>
      </trkpt>
      <trkpt lat="48.508028" lon="16.493603">
        <ele>274.920605</ele>
        <time>2020-07-01T04:48:42.961Z</time>
      </trkpt>
      <trkpt lat="48.507935" lon="16.493726">
        <ele>274.883290</ele>
        <time>2020-07-01T04:48:45.014Z</time>
      </trkpt>
      <trkpt lat="48.507845" lon="16.493834">
        <ele>274.848593</ele>
        <time>2020-07-01T04:48:47.016Z</time>
      </trkpt>
      <trkpt lat="48.507759" lon="16.493935">
        <ele>274.815709</ele>
        <time>2020-07-01T04:48:48.971Z</time>
      </trkpt>
      <trkpt lat="48.507680" lon="16.494030">
        <ele>274.785228</ele>
        <time>2020-07-01T04:48:50.986Z</time>
      </trkpt>
      <trkpt lat="48.507604" lon="16.494123">
        <ele>274.755702</ele>
        <time>2020-07-01T04:48:52.968Z</time>
      </trkpt>
      <trkpt lat="48.507508" lon="16.494258">
        <ele>274.716107</ele>
        <time>2020-07-01T04:48:56.003Z</time>
      </trkpt>
      <trkpt lat="48.507417" lon="16.494376">
        <ele>274.679903</ele>
        <time>2020-07-01T04:48:58.987Z</time>
      </trkpt>
      <trkpt lat="48.507322" lon="16.494497">
        <ele>274.642391</ele>
        <time>2020-07-01T04:49:01.982Z</time>
      </trkpt>
      <trkpt lat="48.507247" lon="16.494587">
        <ele>274.613476</ele>
        <time>2020-07-01T04:49:03.967Z</time>
      </trkpt>
      <trkpt lat="48.507175" lon="16.494690">
        <ele>274.573297</ele>
        <time>2020-07-01T04:49:05.982Z</time>
      </trkpt>
      <trkpt lat="48.507100" lon="16.494809">
        <ele>274.514277</ele>
        <time>2020-07-01T04:49:07.982Z</time>
      </trkpt>
      <trkpt lat="48.507063" lon="16.494966">
        <ele>274.454396</ele>
        <time>2020-07-01T04:49:09.986Z</time>
      </trkpt>
      <trkpt lat="48.507037" lon="16.495122">
        <ele>274.396592</ele>
        <time>2020-07-01T04:49:11.970Z</time>
      </trkpt>
      <trkpt lat="48.507021" lon="16.495280">
        <ele>274.339155</ele>
        <time>2020-07-01T04:49:13.994Z</time>
      </trkpt>
      <trkpt lat="48.507051" lon="16.495431">
        <ele>274.282506</ele>
        <time>2020-07-01T04:49:15.975Z</time>
      </trkpt>
      <trkpt lat="48.507081" lon="16.495575">
        <ele>274.228262</ele>
        <time>2020-07-01T04:49:17.984Z</time>
      </trkpt>
      <trkpt lat="48.507060" lon="16.495714">
        <ele>274.177031</ele>
        <time>2020-07-01T04:49:20.008Z</time>
      </trkpt>
      <trkpt lat="48.507029" lon="16.495844">
        <ele>274.127382</ele>
        <time>2020-07-01T04:49:21.990Z</time>
      </trkpt>
      <trkpt lat="48.506995" lon="16.495978">
        <ele>274.075819</ele>
        <time>2020-07-01T04:49:23.978Z</time>
      </trkpt>
      <trkpt lat="48.506960" lon="16.496117">
        <ele>274.022383</ele>
        <time>2020-07-01T04:49:25.980Z</time>
      </trkpt>
      <trkpt lat="48.506924" lon="16.496261">
        <ele>273.967076</ele>
        <time>2020-07-01T04:49:27.993Z</time>
      </trkpt>
      <trkpt lat="48.506890" lon="16.496396">
        <ele>273.915177</ele>
        <time>2020-07-01T04:49:29.993Z</time>
      </trkpt>
      <trkpt lat="48.506855" lon="16.496531">
        <ele>273.863083</ele>
        <time>2020-07-01T04:49:31.980Z</time>
      </trkpt>
      <trkpt lat="48.506818" lon="16.496660">
        <ele>273.812569</ele>
        <time>2020-07-01T04:49:33.978Z</time>
      </trkpt>
      <trkpt lat="48.506786" lon="16.496796">
        <ele>273.760707</ele>
        <time>2020-07-01T04:49:35.999Z</time>
      </trkpt>
      <trkpt lat="48.506757" lon="16.496933">
        <ele>273.709024</ele>
        <time>2020-07-01T04:49:38.010Z</time>
      </trkpt>
      <trkpt lat="48.506728" lon="16.497072">
        <ele>273.656657</ele>
        <time>2020-07-01T04:49:39.991Z</time>
      </trkpt>
      <trkpt lat="48.506702" lon="16.497211">
        <ele>273.615446</ele>
        <time>2020-07-01T04:49:41.995Z</time>
      </trkpt>
      <trkpt lat="48.506667" lon="16.497343">
        <ele>273.598351</ele>
        <time>2020-07-01T04:49:44.000Z</time>
      </trkpt>
      <trkpt lat="48.506631" lon="16.497474">
        <ele>273.581299</ele>
        <time>2020-07-01T04:49:46.001Z</time>
      </trkpt>
      <trkpt lat="48.506595" lon="16.497604">
        <ele>273.564359</ele>
        <time>2020-07-01T04:49:47.976Z</time>
      </trkpt>
      <trkpt lat="48.506556" lon="16.497735">
        <ele>273.547091</ele>
        <time>2020-07-01T04:49:49.978Z</time>
      </trkpt>
      <trkpt lat="48.506495" lon="16.497843">
        <ele>273.530028</ele>
        <time>2020-07-01T04:49:51.966Z</time>
      </trkpt>
      <trkpt lat="48.506435" lon="16.497951">
        <ele>273.513082</ele>
        <time>2020-07-01T04:49:53.965Z</time>
      </trkpt>
      <trkpt lat="48.506381" lon="16.498062">
        <ele>273.496524</ele>
        <time>2020-07-01T04:49:55.983Z</time>
      </trkpt>
      <trkpt lat="48.506328" lon="16.498179">
        <ele>273.479483</ele>
        <time>2020-07-01T04:49:58.011Z</time>
      </trkpt>
      <trkpt lat="48.506273" lon="16.498292">
        <ele>273.462625</ele>
        <time>2020-07-01T04:49:59.986Z</time>
      </trkpt>
      <trkpt lat="48.506218" lon="16.498402">
        <ele>273.446055</ele>
        <time>2020-07-01T04:50:02.011Z</time>
      </trkpt>
      <trkpt lat="48.506163" lon="16.498511">
        <ele>273.429582</ele>
        <time>2020-07-01T04:50:04.022Z</time>
      </trkpt>
      <trkpt lat="48.506105" lon="16.498621">
        <ele>273.412679</ele>
        <time>2020-07-01T04:50:05.985Z</time>
      </trkpt>
      <trkpt lat="48.506043" lon="16.498722">
        <ele>273.396124</ele>
        <time>2020-07-01T04:50:07.984Z</time>
      </trkpt>
      <trkpt lat="48.505945" lon="16.498849">
        <ele>273.372684</ele>
        <time>2020-07-01T04:50:10.974Z</time>
      </trkpt>
      <trkpt lat="48.505837" lon="16.498969">
        <ele>273.348346</ele>
        <time>2020-07-01T04:50:13.982Z</time>
      </trkpt>
      <trkpt lat="48.505757" lon="16.499042">
        <ele>273.331381</ele>
        <time>2020-07-01T04:50:15.979Z</time>
      </trkpt>
      <trkpt lat="48.505670" lon="16.499121">
        <ele>273.312956</ele>
        <time>2020-07-01T04:50:17.976Z</time>
      </trkpt>
      <trkpt lat="48.505588" lon="16.499185">
        <ele>273.296203</ele>
        <time>2020-07-01T04:50:19.977Z</time>
      </trkpt>
      <trkpt lat="48.505505" lon="16.499236">
        <ele>273.338070</ele>
        <time>2020-07-01T04:50:21.999Z</time>
      </trkpt>
      <trkpt lat="48.505417" lon="16.499299">
        <ele>273.391386</ele>
        <time>2020-07-01T04:50:23.969Z</time>
      </trkpt>
      <trkpt lat="48.505331" lon="16.499358">
        <ele>273.443098</ele>
        <time>2020-07-01T04:50:25.969Z</time>
      </trkpt>
      <trkpt lat="48.505247" lon="16.499419">
        <ele>273.494126</ele>
        <time>2020-07-01T04:50:27.973Z</time>
      </trkpt>
      <trkpt lat="48.505124" lon="16.499500">
        <ele>273.567587</ele>
        <time>2020-07-01T04:50:30.990Z</time>
      </trkpt>
      <trkpt lat="48.505002" lon="16.499582">
        <ele>273.640693</ele>
        <time>2020-07-01T04:50:34.008Z</time>
      </trkpt>
      <trkpt lat="48.504919" lon="16.499646">
        <ele>273.691714</ele>
        <time>2020-07-01T04:50:35.987Z</time>
      </trkpt>
      <trkpt lat="48.504838" lon="16.499715">
        <ele>273.742628</ele>
        <time>2020-07-01T04:50:37.986Z</time>
      </trkpt>
      <trkpt lat="48.504721" lon="16.499812">
        <ele>273.815701</ele>
        <time>2020-07-01T04:50:40.989Z</time>
      </trkpt>
      <trkpt lat="48.504611" lon="16.499903">
        <ele>273.884368</ele>
        <time>2020-07-01T04:50:43.979Z</time>
      </trkpt>
      <trkpt lat="48.504502" lon="16.500001">
        <ele>273.953819</ele>
        <time>2020-07-01T04:50:47.001Z</time>
      </trkpt>
      <trkpt lat="48.504424" lon="16.500075">
        <ele>274.004252</ele>
        <time>2020-07-01T04:50:48.995Z</time>
      </trkpt>
      <trkpt lat="48.504347" lon="16.500150">
        <ele>274.054417</ele>
        <time>2020-07-01T04:50:50.968Z</time>
      </trkpt>
      <trkpt lat="48.504238" lon="16.500251">
        <ele>274.124432</ele>
        <time>2020-07-01T04:50:53.975Z</time>
      </trkpt>
      <trkpt lat="48.504132" lon="16.500366">
        <ele>274.195893</ele>
        <time>2020-07-01T04:50:57.010Z</time>
      </trkpt>
      <trkpt lat="48.504029" lon="16.500486">
        <ele>274.267120</ele>
        <time>2020-07-01T04:50:59.971Z</time>
      </trkpt>
      <trkpt lat="48.503926" lon="16.500603">
        <ele>274.303259</ele>
        <time>2020-07-01T04:51:02.969Z</time>
      </trkpt>
      <trkpt lat="48.503823" lon="16.500727">
        <ele>274.333069</ele>
        <time>2020-07-01T04:51:05.972Z</time>
      </trkpt>
      <trkpt lat="48.503722" lon="16.500843">
        <ele>274.361786</ele>
        <time>2020-07-01T04:51:08.976Z</time>
      </trkpt>
      <trkpt lat="48.503621" lon="16.500962">
        <ele>274.390777</ele>
        <time>2020-07-01T04:51:11.959Z</time>
      </trkpt>
      <trkpt lat="48.503524" lon="16.501083">
        <ele>274.419251</ele>
        <time>2020-07-01T04:51:14.977Z</time>
      </trkpt>
      <trkpt lat="48.503427" lon="16.501197">
        <ele>274.447067</ele>
        <time>2020-07-01T04:51:17.971Z</time>
      </trkpt>
      <trkpt lat="48.503331" lon="16.501316">
        <ele>274.475176</ele>
        <time>2020-07-01T04:51:20.989Z</time>
      </trkpt>
      <trkpt lat="48.503233" lon="16.501429">
        <ele>274.503080</ele>
        <time>2020-07-01T04:51:23.995Z</time>
      </trkpt>
      <trkpt lat="48.503134" lon="16.501546">
        <ele>274.531530</ele>
        <time>2020-07-01T04:51:26.963Z</time>
      </trkpt>
      <trkpt lat="48.503043" lon="16.501664">
        <ele>274.558676</ele>
        <time>2020-07-01T04:51:29.970Z</time>
      </trkpt>
      <trkpt lat="48.502957" lon="16.501773">
        <ele>274.584086</ele>
        <time>2020-07-01T04:51:32.976Z</time>
      </trkpt>
      <trkpt lat="48.502857" lon="16.501890">
        <ele>274.612714</ele>
        <time>2020-07-01T04:51:35.971Z</time>
      </trkpt>
      <trkpt lat="48.502766" lon="16.501992">
        <ele>274.638361</ele>
        <time>2020-07-01T04:51:38.980Z</time>
      </trkpt>
      <trkpt lat="48.502673" lon="16.502099">
        <ele>274.664821</ele>
        <time>2020-07-01T04:51:41.971Z</time>
      </trkpt>
      <trkpt lat="48.502578" lon="16.502197">
        <ele>274.706093</ele>
        <time>2020-07-01T04:51:44.967Z</time>
      </trkpt>
      <trkpt lat="48.502499" lon="16.502308">
        <ele>274.806596</ele>
        <time>2020-07-01T04:51:47.970Z</time>
      </trkpt>
      <trkpt lat="48.502520" lon="16.502479">
        <ele>274.913892</ele>
        <time>2020-07-01T04:51:51.043Z</time>
      </trkpt>
      <trkpt lat="48.502600" lon="16.502621">
        <ele>275.028887</ele>
        <time>2020-07-01T04:51:53.978Z</time>
      </trkpt>
      <trkpt lat="48.502688" lon="16.502756">
        <ele>275.145724</ele>
        <time>2020-07-01T04:51:57.001Z</time>
      </trkpt>
      <trkpt lat="48.502771" lon="16.502899">
        <ele>275.263012</ele>
        <time>2020-07-01T04:52:00.007Z</time>
      </trkpt>
      <trkpt lat="48.502852" lon="16.503032">
        <ele>275.374463</ele>
        <time>2020-07-01T04:52:02.988Z</time>
      </trkpt>
      <trkpt lat="48.502932" lon="16.503157">
        <ele>275.481682</ele>
        <time>2020-07-01T04:52:05.996Z</time>
      </trkpt>
      <trkpt lat="48.503021" lon="16.503280">
        <ele>275.594048</ele>
        <time>2020-07-01T04:52:09.001Z</time>
      </trkpt>
      <trkpt lat="48.503109" lon="16.503416">
        <ele>275.711326</ele>
        <time>2020-07-01T04:52:12.002Z</time>
      </trkpt>
      <trkpt lat="48.503186" lon="16.503535">
        <ele>275.813944</ele>
        <time>2020-07-01T04:52:14.995Z</time>
      </trkpt>
      <trkpt lat="48.503250" lon="16.503633">
        <ele>275.898836</ele>
        <time>2020-07-01T04:52:17.981Z</time>
      </trkpt>
      <trkpt lat="48.503330" lon="16.503751">
        <ele>276.002993</ele>
        <time>2020-07-01T04:52:21.964Z</time>
      </trkpt>
      <trkpt lat="48.503399" lon="16.503861">
        <ele>276.096445</ele>
        <time>2020-07-01T04:52:25.988Z</time>
      </trkpt>
      <trkpt lat="48.503468" lon="16.503974">
        <ele>276.191249</ele>
        <time>2020-07-01T04:52:29.980Z</time>
      </trkpt>
      <trkpt lat="48.503529" lon="16.504078">
        <ele>276.276940</ele>
        <time>2020-07-01T04:52:34.995Z</time>
      </trkpt>
      <trkpt lat="48.503595" lon="16.504170">
        <ele>276.360595</ele>
        <time>2020-07-01T04:52:39.964Z</time>
      </trkpt>
      <trkpt lat="48.503667" lon="16.504277">
        <ele>276.733797</ele>
        <time>2020-07-01T04:52:45.961Z</time>
      </trkpt>
      <trkpt lat="48.503737" lon="16.504381">
        <ele>277.096989</ele>
        <time>2020-07-01T04:52:51.997Z</time>
      </trkpt>
      <trkpt lat="48.503802" lon="16.504474">
        <ele>277.428158</ele>
        <time>2020-07-01T04:52:57.984Z</time>
      </trkpt>
      <trkpt lat="48.503877" lon="16.504578">
        <ele>277.804748</ele>
        <time>2020-07-01T04:53:04.995Z</time>
      </trkpt>
      <trkpt lat="48.503948" lon="16.504682">
        <ele>278.170583</ele>
        <time>2020-07-01T04:53:11.983Z</time>
      </trkpt>
      <trkpt lat="48.504018" lon="16.504795">
        <ele>278.549567</ele>
        <time>2020-07-01T04:53:19.009Z</time>
      </trkpt>
      <trkpt lat="48.504086" lon="16.504899">
        <ele>278.907525</ele>
        <time>2020-07-01T04:53:25.000Z</time>
      </trkpt>
      <trkpt lat="48.504154" lon="16.504994">
        <ele>279.250139</ele>
        <time>2020-07-01T04:53:29.987Z</time>
      </trkpt>
      <trkpt lat="48.504226" lon="16.505098">
        <ele>279.618635</ele>
        <time>2020-07-01T04:53:33.983Z</time>
      </trkpt>
      <trkpt lat="48.504286" lon="16.505199">
        <ele>279.950963</ele>
        <time>2020-07-01T04:53:36.996Z</time>
      </trkpt>
      <trkpt lat="48.504378" lon="16.505325">
        <ele>280.410312</ele>
        <time>2020-07-01T04:53:39.977Z</time>
      </trkpt>
      <trkpt lat="48.504455" lon="16.505436">
        <ele>280.804021</ele>
        <time>2020-07-01T04:53:42.007Z</time>
      </trkpt>
      <trkpt lat="48.504526" lon="16.505554">
        <ele>281.194517</ele>
        <time>2020-07-01T04:53:44.000Z</time>
      </trkpt>
      <trkpt lat="48.504622" lon="16.505688">
        <ele>281.678010</ele>
        <time>2020-07-01T04:53:46.031Z</time>
      </trkpt>
      <trkpt lat="48.504744" lon="16.505875">
        <ele>282.320943</ele>
        <time>2020-07-01T04:53:47.971Z</time>
      </trkpt>
      <trkpt lat="48.504808" lon="16.505974">
        <ele>282.659796</ele>
        <time>2020-07-01T04:53:48.981Z</time>
      </trkpt>
      <trkpt lat="48.504930" lon="16.506158">
        <ele>283.118883</ele>
        <time>2020-07-01T04:53:50.969Z</time>
      </trkpt>
      <trkpt lat="48.505052" lon="16.506330">
        <ele>283.350951</ele>
        <time>2020-07-01T04:53:53.004Z</time>
      </trkpt>
      <trkpt lat="48.505174" lon="16.506483">
        <ele>283.571444</ele>
        <time>2020-07-01T04:53:54.998Z</time>
      </trkpt>
      <trkpt lat="48.505292" lon="16.506614">
        <ele>283.775068</ele>
        <time>2020-07-01T04:53:56.966Z</time>
      </trkpt>
      <trkpt lat="48.505406" lon="16.506734">
        <ele>283.968271</ele>
        <time>2020-07-01T04:53:58.972Z</time>
      </trkpt>
      <trkpt lat="48.505516" lon="16.506840">
        <ele>284.149687</ele>
        <time>2020-07-01T04:54:00.988Z</time>
      </trkpt>
      <trkpt lat="48.505608" lon="16.506944">
        <ele>284.309468</ele>
        <time>2020-07-01T04:54:02.986Z</time>
      </trkpt>
      <trkpt lat="48.505688" lon="16.507044">
        <ele>284.453860</ele>
        <time>2020-07-01T04:54:04.989Z</time>
      </trkpt>
      <trkpt lat="48.505756" lon="16.507142">
        <ele>284.584556</ele>
        <time>2020-07-01T04:54:07.986Z</time>
      </trkpt>
      <trkpt lat="48.505825" lon="16.507246">
        <ele>284.720108</ele>
        <time>2020-07-01T04:54:13.997Z</time>
      </trkpt>
      <trkpt lat="48.505871" lon="16.507378">
        <ele>284.857470</ele>
        <time>2020-07-01T04:54:19.986Z</time>
      </trkpt>
      <trkpt lat="48.505871" lon="16.507531">
        <ele>284.998381</ele>
        <time>2020-07-01T04:54:24.964Z</time>
      </trkpt>
      <trkpt lat="48.505769" lon="16.507562">
        <ele>285.143016</ele>
        <time>2020-07-01T04:54:29.986Z</time>
      </trkpt>
      <trkpt lat="48.505649" lon="16.507583">
        <ele>285.310943</ele>
        <time>2020-07-01T04:54:34.003Z</time>
      </trkpt>
      <trkpt lat="48.505536" lon="16.507604">
        <ele>285.469209</ele>
        <time>2020-07-01T04:54:36.992Z</time>
      </trkpt>
      <trkpt lat="48.505407" lon="16.507631">
        <ele>285.627945</ele>
        <time>2020-07-01T04:54:40.005Z</time>
      </trkpt>
      <trkpt lat="48.505308" lon="16.507658">
        <ele>285.745309</ele>
        <time>2020-07-01T04:54:41.975Z</time>
      </trkpt>
      <trkpt lat="48.505201" lon="16.507685">
        <ele>285.871868</ele>
        <time>2020-07-01T04:54:43.974Z</time>
      </trkpt>
      <trkpt lat="48.505090" lon="16.507705">
        <ele>286.002280</ele>
        <time>2020-07-01T04:54:45.990Z</time>
      </trkpt>
      <trkpt lat="48.504983" lon="16.507720">
        <ele>286.127643</ele>
        <time>2020-07-01T04:54:47.986Z</time>
      </trkpt>
      <trkpt lat="48.504876" lon="16.507736">
        <ele>286.253081</ele>
        <time>2020-07-01T04:54:49.973Z</time>
      </trkpt>
      <trkpt lat="48.504767" lon="16.507737">
        <ele>286.380243</ele>
        <time>2020-07-01T04:54:51.970Z</time>
      </trkpt>
      <trkpt lat="48.504657" lon="16.507749">
        <ele>286.508903</ele>
        <time>2020-07-01T04:54:54.019Z</time>
      </trkpt>
      <trkpt lat="48.504549" lon="16.507756">
        <ele>286.635012</ele>
        <time>2020-07-01T04:54:55.981Z</time>
      </trkpt>
      <trkpt lat="48.504446" lon="16.507799">
        <ele>286.759684</ele>
        <time>2020-07-01T04:54:57.956Z</time>
      </trkpt>
      <trkpt lat="48.504381" lon="16.507899">
        <ele>286.867964</ele>
        <time>2020-07-01T04:54:59.966Z</time>
      </trkpt>
      <trkpt lat="48.504330" lon="16.508071">
        <ele>287.013617</ele>
        <time>2020-07-01T04:55:02.993Z</time>
      </trkpt>
      <trkpt lat="48.504300" lon="16.508210">
        <ele>287.126613</ele>
        <time>2020-07-01T04:55:05.977Z</time>
      </trkpt>
      <trkpt lat="48.504264" lon="16.508361">
        <ele>287.250654</ele>
        <time>2020-07-01T04:55:09.967Z</time>
      </trkpt>
      <trkpt lat="48.504225" lon="16.508492">
        <ele>287.361662</ele>
        <time>2020-07-01T04:55:13.976Z</time>
      </trkpt>
      <trkpt lat="48.504183" lon="16.508643">
        <ele>287.488245</ele>
        <time>2020-07-01T04:55:18.976Z</time>
      </trkpt>
      <trkpt lat="48.504143" lon="16.508789">
        <ele>287.610756</ele>
        <time>2020-07-01T04:55:23.997Z</time>
      </trkpt>
      <trkpt lat="48.504099" lon="16.508914">
        <ele>287.801407</ele>
        <time>2020-07-01T04:55:27.991Z</time>
      </trkpt>
      <trkpt lat="48.504048" lon="16.509043">
        <ele>288.003741</ele>
        <time>2020-07-01T04:55:31.992Z</time>
      </trkpt>
      <trkpt lat="48.504008" lon="16.509165">
        <ele>288.187084</ele>
        <time>2020-07-01T04:55:35.985Z</time>
      </trkpt>
      <trkpt lat="48.503968" lon="16.509313">
        <ele>288.402376</ele>
        <time>2020-07-01T04:55:40.988Z</time>
      </trkpt>
      <trkpt lat="48.503932" lon="16.509445">
        <ele>288.594643</ele>
        <time>2020-07-01T04:55:45.993Z</time>
      </trkpt>
      <trkpt lat="48.503895" lon="16.509570">
        <ele>288.779047</ele>
        <time>2020-07-01T04:55:50.992Z</time>
      </trkpt>
      <trkpt lat="48.503867" lon="16.509712">
        <ele>288.978601</ele>
        <time>2020-07-01T04:55:55.952Z</time>
      </trkpt>
      <trkpt lat="48.503846" lon="16.509860">
        <ele>289.182466</ele>
        <time>2020-07-01T04:56:01.020Z</time>
      </trkpt>
      <trkpt lat="48.503810" lon="16.509991">
        <ele>289.373489</ele>
        <time>2020-07-01T04:56:05.968Z</time>
      </trkpt>
      <trkpt lat="48.503774" lon="16.510142">
        <ele>289.589642</ele>
        <time>2020-07-01T04:56:11.987Z</time>
      </trkpt>
      <trkpt lat="48.503751" lon="16.510287">
        <ele>289.790466</ele>
        <time>2020-07-01T04:56:17.969Z</time>
      </trkpt>
      <trkpt lat="48.503720" lon="16.510432">
        <ele>289.995687</ele>
        <time>2020-07-01T04:56:23.984Z</time>
      </trkpt>
      <trkpt lat="48.503697" lon="16.510575">
        <ele>290.193892</ele>
        <time>2020-07-01T04:56:29.969Z</time>
      </trkpt>
      <trkpt lat="48.503669" lon="16.510726">
        <ele>290.405094</ele>
        <time>2020-07-01T04:56:36.001Z</time>
      </trkpt>
      <trkpt lat="48.503649" lon="16.510869">
        <ele>290.601950</ele>
        <time>2020-07-01T04:56:40.990Z</time>
      </trkpt>
      <trkpt lat="48.503628" lon="16.511019">
        <ele>290.808451</ele>
        <time>2020-07-01T04:56:45.951Z</time>
      </trkpt>
      <trkpt lat="48.503620" lon="16.511160">
        <ele>290.999064</ele>
        <time>2020-07-01T04:56:51.964Z</time>
      </trkpt>
      <trkpt lat="48.503565" lon="16.511310">
        <ele>291.229978</ele>
        <time>2020-07-01T04:56:55.977Z</time>
      </trkpt>
      <trkpt lat="48.503510" lon="16.511475">
        <ele>291.555933</ele>
        <time>2020-07-01T04:56:58.989Z</time>
      </trkpt>
      <trkpt lat="48.503451" lon="16.511634">
        <ele>291.890539</ele>
        <time>2020-07-01T04:57:01.967Z</time>
      </trkpt>
      <trkpt lat="48.503401" lon="16.511771">
        <ele>292.177722</ele>
        <time>2020-07-01T04:57:04.960Z</time>
      </trkpt>
      <trkpt lat="48.503353" lon="16.511931">
        <ele>292.500210</ele>
        <time>2020-07-01T04:57:08.975Z</time>
      </trkpt>
      <trkpt lat="48.503306" lon="16.512098">
        <ele>292.833355</ele>
        <time>2020-07-01T04:57:12.973Z</time>
      </trkpt>
      <trkpt lat="48.503260" lon="16.512227">
        <ele>293.102338</ele>
        <time>2020-07-01T04:57:15.960Z</time>
      </trkpt>
      <trkpt lat="48.503195" lon="16.512328">
        <ele>293.360864</ele>
        <time>2020-07-01T04:57:18.970Z</time>
      </trkpt>
      <trkpt lat="48.503050" lon="16.512255">
        <ele>293.784449</ele>
        <time>2020-07-01T04:57:21.974Z</time>
      </trkpt>
      <trkpt lat="48.502929" lon="16.512161">
        <ele>294.161574</ele>
        <time>2020-07-01T04:57:23.964Z</time>
      </trkpt>
      <trkpt lat="48.502815" lon="16.512122">
        <ele>294.485501</ele>
        <time>2020-07-01T04:57:25.969Z</time>
      </trkpt>
      <trkpt lat="48.502720" lon="16.512192">
        <ele>294.778461</ele>
        <time>2020-07-01T04:57:28.971Z</time>
      </trkpt>
      <trkpt lat="48.502661" lon="16.512336">
        <ele>295.089333</ele>
        <time>2020-07-01T04:57:32.955Z</time>
      </trkpt>
      <trkpt lat="48.502614" lon="16.512466">
        <ele>295.361252</ele>
        <time>2020-07-01T04:57:37.009Z</time>
      </trkpt>
      <trkpt lat="48.502574" lon="16.512611">
        <ele>295.649645</ele>
        <time>2020-07-01T04:57:42.962Z</time>
      </trkpt>
      <trkpt lat="48.502470" lon="16.512982">
        <ele>296.483533</ele>
        <time>2020-07-01T04:58:40.986Z</time>
      </trkpt>
      <trkpt lat="48.502411" lon="16.513134">
        <ele>297.026726</ele>
        <time>2020-07-01T04:58:44.976Z</time>
      </trkpt>
      <trkpt lat="48.502358" lon="16.513300">
        <ele>297.594911</ele>
        <time>2020-07-01T04:58:49.020Z</time>
      </trkpt>
      <trkpt lat="48.502306" lon="16.513462">
        <ele>298.149967</ele>
        <time>2020-07-01T04:58:52.971Z</time>
      </trkpt>
      <trkpt lat="48.502256" lon="16.513613">
        <ele>298.670479</ele>
        <time>2020-07-01T04:58:56.984Z</time>
      </trkpt>
      <trkpt lat="48.502204" lon="16.513775">
        <ele>299.225536</ele>
        <time>2020-07-01T04:59:00.959Z</time>
      </trkpt>
      <trkpt lat="48.502159" lon="16.513895">
        <ele>299.650707</ele>
        <time>2020-07-01T04:59:04.004Z</time>
      </trkpt>
      <trkpt lat="48.502112" lon="16.514042">
        <ele>300.153995</ele>
        <time>2020-07-01T04:59:07.994Z</time>
      </trkpt>
      <trkpt lat="48.502060" lon="16.514195">
        <ele>300.684216</ele>
        <time>2020-07-01T04:59:12.010Z</time>
      </trkpt>
      <trkpt lat="48.502018" lon="16.514339">
        <ele>301.169357</ele>
        <time>2020-07-01T04:59:15.985Z</time>
      </trkpt>
      <trkpt lat="48.501971" lon="16.514490">
        <ele>301.683782</ele>
        <time>2020-07-01T04:59:19.962Z</time>
      </trkpt>
      <trkpt lat="48.501930" lon="16.514628">
        <ele>302.150127</ele>
        <time>2020-07-01T04:59:24.012Z</time>
      </trkpt>
      <trkpt lat="48.501889" lon="16.514749">
        <ele>302.569190</ele>
        <time>2020-07-01T04:59:27.989Z</time>
      </trkpt>
      <trkpt lat="48.501836" lon="16.514896">
        <ele>303.085228</ele>
        <time>2020-07-01T04:59:32.979Z</time>
      </trkpt>
      <trkpt lat="48.501789" lon="16.515037">
        <ele>303.571922</ele>
        <time>2020-07-01T04:59:37.956Z</time>
      </trkpt>
      <trkpt lat="48.501741" lon="16.515182">
        <ele>304.071728</ele>
        <time>2020-07-01T04:59:42.992Z</time>
      </trkpt>
      <trkpt lat="48.501691" lon="16.515323">
        <ele>304.564856</ele>
        <time>2020-07-01T04:59:47.005Z</time>
      </trkpt>
      <trkpt lat="48.501661" lon="16.515453">
        <ele>305.271488</ele>
        <time>2020-07-01T04:59:51.000Z</time>
      </trkpt>
      <trkpt lat="48.501620" lon="16.515604">
        <ele>306.160103</ele>
        <time>2020-07-01T04:59:56.000Z</time>
      </trkpt>
      <trkpt lat="48.501584" lon="16.515743">
        <ele>306.972781</ele>
        <time>2020-07-01T04:59:59.988Z</time>
      </trkpt>
      <trkpt lat="48.501544" lon="16.515870">
        <ele>307.738501</ele>
        <time>2020-07-01T05:00:03.981Z</time>
      </trkpt>
      <trkpt lat="48.501508" lon="16.516012">
        <ele>308.566416</ele>
        <time>2020-07-01T05:00:07.978Z</time>
      </trkpt>
      <trkpt lat="48.501467" lon="16.516147">
        <ele>309.375088</ele>
        <time>2020-07-01T05:00:12.006Z</time>
      </trkpt>
      <trkpt lat="48.501429" lon="16.516283">
        <ele>310.178817</ele>
        <time>2020-07-01T05:00:15.961Z</time>
      </trkpt>
      <trkpt lat="48.501392" lon="16.516414">
        <ele>310.954272</ele>
        <time>2020-07-01T05:00:19.968Z</time>
      </trkpt>
      <trkpt lat="48.501359" lon="16.516541">
        <ele>311.697116</ele>
        <time>2020-07-01T05:00:24.980Z</time>
      </trkpt>
      <trkpt lat="48.501326" lon="16.516686">
        <ele>312.531981</ele>
        <time>2020-07-01T05:00:30.973Z</time>
      </trkpt>
      <trkpt lat="48.501285" lon="16.516811">
        <ele>313.291492</ele>
        <time>2020-07-01T05:00:36.981Z</time>
      </trkpt>
      <trkpt lat="48.501227" lon="16.516946">
        <ele>314.167634</ele>
        <time>2020-07-01T05:00:42.972Z</time>
      </trkpt>
      <trkpt lat="48.501158" lon="16.517060">
        <ele>315.008422</ele>
        <time>2020-07-01T05:00:49.971Z</time>
      </trkpt>
      <trkpt lat="48.501100" lon="16.517186">
        <ele>315.843870</ele>
        <time>2020-07-01T05:00:55.975Z</time>
      </trkpt>
      <trkpt lat="48.501056" lon="16.517312">
        <ele>316.619452</ele>
        <time>2020-07-01T05:01:01.978Z</time>
      </trkpt>
      <trkpt lat="48.501003" lon="16.517435">
        <ele>317.418413</ele>
        <time>2020-07-01T05:01:08.967Z</time>
      </trkpt>
      <trkpt lat="48.500953" lon="16.517570">
        <ele>318.260599</ele>
        <time>2020-07-01T05:01:15.975Z</time>
      </trkpt>
      <trkpt lat="48.500912" lon="16.517708">
        <ele>319.084157</ele>
        <time>2020-07-01T05:01:22.986Z</time>
      </trkpt>
      <trkpt lat="48.500865" lon="16.517834">
        <ele>319.916512</ele>
        <time>2020-07-01T05:01:30.968Z</time>
      </trkpt>
      <trkpt lat="48.500822" lon="16.517958">
        <ele>320.751732</ele>
        <time>2020-07-01T05:01:37.093Z</time>
      </trkpt>
      <trkpt lat="48.500778" lon="16.518085">
        <ele>321.606992</ele>
        <time>2020-07-01T05:01:42.975Z</time>
      </trkpt>
      <trkpt lat="48.500726" lon="16.518206">
        <ele>322.467674</ele>
        <time>2020-07-01T05:01:48.990Z</time>
      </trkpt>
      <trkpt lat="48.500679" lon="16.518348">
        <ele>323.414944</ele>
        <time>2020-07-01T05:01:55.985Z</time>
      </trkpt>
      <trkpt lat="48.500639" lon="16.518473">
        <ele>324.243356</ele>
        <time>2020-07-01T05:02:00.987Z</time>
      </trkpt>
      <trkpt lat="48.500594" lon="16.518605">
        <ele>325.129253</ele>
        <time>2020-07-01T05:02:05.987Z</time>
      </trkpt>
      <trkpt lat="48.500547" lon="16.518737">
        <ele>326.023535</ele>
        <time>2020-07-01T05:02:11.009Z</time>
      </trkpt>
      <trkpt lat="48.500480" lon="16.518834">
        <ele>326.859737</ele>
        <time>2020-07-01T05:02:15.984Z</time>
      </trkpt>
      <trkpt lat="48.500409" lon="16.518945">
        <ele>327.780456</ele>
        <time>2020-07-01T05:02:20.970Z</time>
      </trkpt>
      <trkpt lat="48.500333" lon="16.519135">
        <ele>329.104932</ele>
        <time>2020-07-01T05:04:26.983Z</time>
      </trkpt>
      <trkpt lat="48.500232" lon="16.519141">
        <ele>330.015292</ele>
        <time>2020-07-01T05:04:30.954Z</time>
      </trkpt>
      <trkpt lat="48.500141" lon="16.519183">
        <ele>330.872353</ele>
        <time>2020-07-01T05:04:33.991Z</time>
      </trkpt>
      <trkpt lat="48.500038" lon="16.519295">
        <ele>332.015739</ele>
        <time>2020-07-01T05:04:37.029Z</time>
      </trkpt>
      <trkpt lat="48.499920" lon="16.519344">
        <ele>333.118002</ele>
        <time>2020-07-01T05:04:39.985Z</time>
      </trkpt>
      <trkpt lat="48.499796" lon="16.519377">
        <ele>334.252039</ele>
        <time>2020-07-01T05:04:42.999Z</time>
      </trkpt>
      <trkpt lat="48.499702" lon="16.519525">
        <ele>335.475510</ele>
        <time>2020-07-01T05:04:45.998Z</time>
      </trkpt>
      <trkpt lat="48.499629" lon="16.519648">
        <ele>335.629595</ele>
        <time>2020-07-01T05:04:47.971Z</time>
      </trkpt>
      <trkpt lat="48.499543" lon="16.519797">
        <ele>335.667331</ele>
        <time>2020-07-01T05:04:50.000Z</time>
      </trkpt>
      <trkpt lat="48.499459" lon="16.519947">
        <ele>335.704836</ele>
        <time>2020-07-01T05:04:51.998Z</time>
      </trkpt>
      <trkpt lat="48.499370" lon="16.520150">
        <ele>335.751320</ele>
        <time>2020-07-01T05:04:54.002Z</time>
      </trkpt>
      <trkpt lat="48.499299" lon="16.520369">
        <ele>335.797881</ele>
        <time>2020-07-01T05:04:55.992Z</time>
      </trkpt>
      <trkpt lat="48.499238" lon="16.520577">
        <ele>335.841319</ele>
        <time>2020-07-01T05:04:57.985Z</time>
      </trkpt>
      <trkpt lat="48.499167" lon="16.520802">
        <ele>335.888911</ele>
        <time>2020-07-01T05:04:59.967Z</time>
      </trkpt>
      <trkpt lat="48.499096" lon="16.521048">
        <ele>335.940153</ele>
        <time>2020-07-01T05:05:01.975Z</time>
      </trkpt>
      <trkpt lat="48.499066" lon="16.521180">
        <ele>335.966803</ele>
        <time>2020-07-01T05:05:02.990Z</time>
      </trkpt>
      <trkpt lat="48.499036" lon="16.521310">
        <ele>335.993092</ele>
        <time>2020-07-01T05:05:03.967Z</time>
      </trkpt>
      <trkpt lat="48.499006" lon="16.521438">
        <ele>336.019021</ele>
        <time>2020-07-01T05:05:04.983Z</time>
      </trkpt>
      <trkpt lat="48.498970" lon="16.521571">
        <ele>336.046457</ele>
        <time>2020-07-01T05:05:05.964Z</time>
      </trkpt>
      <trkpt lat="48.498933" lon="16.521710">
        <ele>336.075064</ele>
        <time>2020-07-01T05:05:07.011Z</time>
      </trkpt>
      <trkpt lat="48.498889" lon="16.521842">
        <ele>336.103282</ele>
        <time>2020-07-01T05:05:07.989Z</time>
      </trkpt>
      <trkpt lat="48.498844" lon="16.521966">
        <ele>336.096906</ele>
        <time>2020-07-01T05:05:08.996Z</time>
      </trkpt>
      <trkpt lat="48.498794" lon="16.522101">
        <ele>336.025813</ele>
        <time>2020-07-01T05:05:09.974Z</time>
      </trkpt>
      <trkpt lat="48.498765" lon="16.522253">
        <ele>335.953103</ele>
        <time>2020-07-01T05:05:10.975Z</time>
      </trkpt>
      <trkpt lat="48.498765" lon="16.522414">
        <ele>335.879094</ele>
        <time>2020-07-01T05:05:11.972Z</time>
      </trkpt>
      <trkpt lat="48.498755" lon="16.522564">
        <ele>335.809794</ele>
        <time>2020-07-01T05:05:12.961Z</time>
      </trkpt>
      <trkpt lat="48.498744" lon="16.522700">
        <ele>335.746813</ele>
        <time>2020-07-01T05:05:14.007Z</time>
      </trkpt>
      <trkpt lat="48.498719" lon="16.522831">
        <ele>335.684147</ele>
        <time>2020-07-01T05:05:14.998Z</time>
      </trkpt>
      <trkpt lat="48.498685" lon="16.522964">
        <ele>335.618617</ele>
        <time>2020-07-01T05:05:15.982Z</time>
      </trkpt>
      <trkpt lat="48.498651" lon="16.523106">
        <ele>335.549212</ele>
        <time>2020-07-01T05:05:17.002Z</time>
      </trkpt>
      <trkpt lat="48.498608" lon="16.523250">
        <ele>335.476607</ele>
        <time>2020-07-01T05:05:17.992Z</time>
      </trkpt>
      <trkpt lat="48.498565" lon="16.523398">
        <ele>335.402321</ele>
        <time>2020-07-01T05:05:18.982Z</time>
      </trkpt>
      <trkpt lat="48.498525" lon="16.523552">
        <ele>335.326286</ele>
        <time>2020-07-01T05:05:19.970Z</time>
      </trkpt>
      <trkpt lat="48.498484" lon="16.523710">
        <ele>335.248285</ele>
        <time>2020-07-01T05:05:20.977Z</time>
      </trkpt>
      <trkpt lat="48.498445" lon="16.523874">
        <ele>335.168189</ele>
        <time>2020-07-01T05:05:21.971Z</time>
      </trkpt>
      <trkpt lat="48.498413" lon="16.524045">
        <ele>335.086508</ele>
        <time>2020-07-01T05:05:22.986Z</time>
      </trkpt>
      <trkpt lat="48.498385" lon="16.524222">
        <ele>335.002858</ele>
        <time>2020-07-01T05:05:23.980Z</time>
      </trkpt>
      <trkpt lat="48.498356" lon="16.524403">
        <ele>334.917257</ele>
        <time>2020-07-01T05:05:25.000Z</time>
      </trkpt>
      <trkpt lat="48.498329" lon="16.524587">
        <ele>334.816457</ele>
        <time>2020-07-01T05:05:25.975Z</time>
      </trkpt>
      <trkpt lat="48.498297" lon="16.524771">
        <ele>334.699586</ele>
        <time>2020-07-01T05:05:26.991Z</time>
      </trkpt>
      <trkpt lat="48.498262" lon="16.524955">
        <ele>334.581979</ele>
        <time>2020-07-01T05:05:27.972Z</time>
      </trkpt>
      <trkpt lat="48.498225" lon="16.525139">
        <ele>334.463847</ele>
        <time>2020-07-01T05:05:29.010Z</time>
      </trkpt>
      <trkpt lat="48.498183" lon="16.525320">
        <ele>334.346027</ele>
        <time>2020-07-01T05:05:29.967Z</time>
      </trkpt>
      <trkpt lat="48.498140" lon="16.525501">
        <ele>334.227898</ele>
        <time>2020-07-01T05:05:30.987Z</time>
      </trkpt>
      <trkpt lat="48.498099" lon="16.525679">
        <ele>334.112123</ele>
        <time>2020-07-01T05:05:31.957Z</time>
      </trkpt>
      <trkpt lat="48.498057" lon="16.525844">
        <ele>334.003532</ele>
        <time>2020-07-01T05:05:32.983Z</time>
      </trkpt>
      <trkpt lat="48.498016" lon="16.526002">
        <ele>333.899285</ele>
        <time>2020-07-01T05:05:33.991Z</time>
      </trkpt>
      <trkpt lat="48.497976" lon="16.526161">
        <ele>333.794799</ele>
        <time>2020-07-01T05:05:34.975Z</time>
      </trkpt>
      <trkpt lat="48.497938" lon="16.526313">
        <ele>333.694991</ele>
        <time>2020-07-01T05:05:35.961Z</time>
      </trkpt>
      <trkpt lat="48.497906" lon="16.526453">
        <ele>333.604007</ele>
        <time>2020-07-01T05:05:36.982Z</time>
      </trkpt>
      <trkpt lat="48.497876" lon="16.526594">
        <ele>333.513027</ele>
        <time>2020-07-01T05:05:37.968Z</time>
      </trkpt>
      <trkpt lat="48.497843" lon="16.526737">
        <ele>333.419998</ele>
        <time>2020-07-01T05:05:38.993Z</time>
      </trkpt>
      <trkpt lat="48.497813" lon="16.526875">
        <ele>333.330770</ele>
        <time>2020-07-01T05:05:39.998Z</time>
      </trkpt>
      <trkpt lat="48.497781" lon="16.527012">
        <ele>333.241526</ele>
        <time>2020-07-01T05:05:40.984Z</time>
      </trkpt>
      <trkpt lat="48.497742" lon="16.527147">
        <ele>332.905709</ele>
        <time>2020-07-01T05:05:42.012Z</time>
      </trkpt>
      <trkpt lat="48.497702" lon="16.527279">
        <ele>332.412192</ele>
        <time>2020-07-01T05:05:42.964Z</time>
      </trkpt>
      <trkpt lat="48.497658" lon="16.527410">
        <ele>331.912828</ele>
        <time>2020-07-01T05:05:43.962Z</time>
      </trkpt>
      <trkpt lat="48.497607" lon="16.527547">
        <ele>331.378541</ele>
        <time>2020-07-01T05:05:44.988Z</time>
      </trkpt>
      <trkpt lat="48.497563" lon="16.527683">
        <ele>330.863955</ele>
        <time>2020-07-01T05:05:45.971Z</time>
      </trkpt>
      <trkpt lat="48.497500" lon="16.527789">
        <ele>330.379814</ele>
        <time>2020-07-01T05:05:46.961Z</time>
      </trkpt>
      <trkpt lat="48.497387" lon="16.527987">
        <ele>329.491325</ele>
        <time>2020-07-01T05:05:48.999Z</time>
      </trkpt>
      <trkpt lat="48.497323" lon="16.528093">
        <ele>329.003742</ele>
        <time>2020-07-01T05:05:49.982Z</time>
      </trkpt>
      <trkpt lat="48.497268" lon="16.528227">
        <ele>328.467804</ele>
        <time>2020-07-01T05:05:50.959Z</time>
      </trkpt>
      <trkpt lat="48.497201" lon="16.528339">
        <ele>327.954767</ele>
        <time>2020-07-01T05:05:51.961Z</time>
      </trkpt>
      <trkpt lat="48.497156" lon="16.528468">
        <ele>327.459086</ele>
        <time>2020-07-01T05:05:52.973Z</time>
      </trkpt>
      <trkpt lat="48.497114" lon="16.528610">
        <ele>326.930353</ele>
        <time>2020-07-01T05:05:53.975Z</time>
      </trkpt>
      <trkpt lat="48.497068" lon="16.528764">
        <ele>326.355992</ele>
        <time>2020-07-01T05:05:54.978Z</time>
      </trkpt>
      <trkpt lat="48.497022" lon="16.528930">
        <ele>325.744203</ele>
        <time>2020-07-01T05:05:55.962Z</time>
      </trkpt>
      <trkpt lat="48.496972" lon="16.529096">
        <ele>325.124207</ele>
        <time>2020-07-01T05:05:56.978Z</time>
      </trkpt>
      <trkpt lat="48.496921" lon="16.529255">
        <ele>324.523578</ele>
        <time>2020-07-01T05:05:57.995Z</time>
      </trkpt>
      <trkpt lat="48.496873" lon="16.529404">
        <ele>323.975934</ele>
        <time>2020-07-01T05:05:59.003Z</time>
      </trkpt>
      <trkpt lat="48.496839" lon="16.529562">
        <ele>323.967080</ele>
        <time>2020-07-01T05:05:59.980Z</time>
      </trkpt>
      <trkpt lat="48.496801" lon="16.529716">
        <ele>323.958321</ele>
        <time>2020-07-01T05:06:00.989Z</time>
      </trkpt>
      <trkpt lat="48.496761" lon="16.529870">
        <ele>323.949506</ele>
        <time>2020-07-01T05:06:01.967Z</time>
      </trkpt>
      <trkpt lat="48.496736" lon="16.530034">
        <ele>323.940536</ele>
        <time>2020-07-01T05:06:02.961Z</time>
      </trkpt>
      <trkpt lat="48.496725" lon="16.530205">
        <ele>323.931380</ele>
        <time>2020-07-01T05:06:03.964Z</time>
      </trkpt>
      <trkpt lat="48.496679" lon="16.530357">
        <ele>323.922473</ele>
        <time>2020-07-01T05:06:04.989Z</time>
      </trkpt>
      <trkpt lat="48.496620" lon="16.530499">
        <ele>323.913540</ele>
        <time>2020-07-01T05:06:05.985Z</time>
      </trkpt>
      <trkpt lat="48.496561" lon="16.530639">
        <ele>323.904697</ele>
        <time>2020-07-01T05:06:06.988Z</time>
      </trkpt>
      <trkpt lat="48.496502" lon="16.530780">
        <ele>323.895809</ele>
        <time>2020-07-01T05:06:07.965Z</time>
      </trkpt>
      <trkpt lat="48.496469" lon="16.530941">
        <ele>323.886827</ele>
        <time>2020-07-01T05:06:08.988Z</time>
      </trkpt>
      <trkpt lat="48.496429" lon="16.531096">
        <ele>323.877962</ele>
        <time>2020-07-01T05:06:09.991Z</time>
      </trkpt>
      <trkpt lat="48.496385" lon="16.531245">
        <ele>323.869267</ele>
        <time>2020-07-01T05:06:11.030Z</time>
      </trkpt>
      <trkpt lat="48.496340" lon="16.531391">
        <ele>323.860685</ele>
        <time>2020-07-01T05:06:12.000Z</time>
      </trkpt>
      <trkpt lat="48.496291" lon="16.531533">
        <ele>323.852152</ele>
        <time>2020-07-01T05:06:12.988Z</time>
      </trkpt>
      <trkpt lat="48.496242" lon="16.531672">
        <ele>323.843761</ele>
        <time>2020-07-01T05:06:13.980Z</time>
      </trkpt>
      <trkpt lat="48.496195" lon="16.531808">
        <ele>323.835586</ele>
        <time>2020-07-01T05:06:14.974Z</time>
      </trkpt>
      <trkpt lat="48.496148" lon="16.531941">
        <ele>323.811555</ele>
        <time>2020-07-01T05:06:16.004Z</time>
      </trkpt>
      <trkpt lat="48.496103" lon="16.532074">
        <ele>323.771495</ele>
        <time>2020-07-01T05:06:16.989Z</time>
      </trkpt>
      <trkpt lat="48.496057" lon="16.532203">
        <ele>323.732197</ele>
        <time>2020-07-01T05:06:17.982Z</time>
      </trkpt>
      <trkpt lat="48.496012" lon="16.532330">
        <ele>323.693563</ele>
        <time>2020-07-01T05:06:19.000Z</time>
      </trkpt>
      <trkpt lat="48.495968" lon="16.532455">
        <ele>323.655593</ele>
        <time>2020-07-01T05:06:19.996Z</time>
      </trkpt>
      <trkpt lat="48.495923" lon="16.532578">
        <ele>323.617902</ele>
        <time>2020-07-01T05:06:20.979Z</time>
      </trkpt>
      <trkpt lat="48.495881" lon="16.532701">
        <ele>323.580782</ele>
        <time>2020-07-01T05:06:21.990Z</time>
      </trkpt>
      <trkpt lat="48.495838" lon="16.532826">
        <ele>323.543000</ele>
        <time>2020-07-01T05:06:22.967Z</time>
      </trkpt>
      <trkpt lat="48.495793" lon="16.532950">
        <ele>323.505074</ele>
        <time>2020-07-01T05:06:23.976Z</time>
      </trkpt>
      <trkpt lat="48.495749" lon="16.533073">
        <ele>323.467576</ele>
        <time>2020-07-01T05:06:24.990Z</time>
      </trkpt>
      <trkpt lat="48.495708" lon="16.533197">
        <ele>323.430401</ele>
        <time>2020-07-01T05:06:25.985Z</time>
      </trkpt>
      <trkpt lat="48.495676" lon="16.533324">
        <ele>323.393951</ele>
        <time>2020-07-01T05:06:26.993Z</time>
      </trkpt>
      <trkpt lat="48.495640" lon="16.533579">
        <ele>323.324009</ele>
        <time>2020-07-01T05:06:28.972Z</time>
      </trkpt>
      <trkpt lat="48.495610" lon="16.533825">
        <ele>323.256907</ele>
        <time>2020-07-01T05:06:30.970Z</time>
      </trkpt>
      <trkpt lat="48.495562" lon="16.534062">
        <ele>323.190425</ele>
        <time>2020-07-01T05:06:32.980Z</time>
      </trkpt>
      <trkpt lat="48.495465" lon="16.534259">
        <ele>323.124585</ele>
        <time>2020-07-01T05:06:34.990Z</time>
      </trkpt>
      <trkpt lat="48.495366" lon="16.534452">
        <ele>322.999990</ele>
        <time>2020-07-01T05:06:36.965Z</time>
      </trkpt>
      <trkpt lat="48.495254" lon="16.534624">
        <ele>322.848926</ele>
        <time>2020-07-01T05:06:38.998Z</time>
      </trkpt>
      <trkpt lat="48.495161" lon="16.534813">
        <ele>322.701454</ele>
        <time>2020-07-01T05:06:40.969Z</time>
      </trkpt>
      <trkpt lat="48.495051" lon="16.534976">
        <ele>322.555713</ele>
        <time>2020-07-01T05:06:42.988Z</time>
      </trkpt>
      <trkpt lat="48.494946" lon="16.535144">
        <ele>322.411043</ele>
        <time>2020-07-01T05:06:44.965Z</time>
      </trkpt>
      <trkpt lat="48.494856" lon="16.535317">
        <ele>322.273259</ele>
        <time>2020-07-01T05:06:47.007Z</time>
      </trkpt>
      <trkpt lat="48.494782" lon="16.535482">
        <ele>322.148446</ele>
        <time>2020-07-01T05:06:48.974Z</time>
      </trkpt>
      <trkpt lat="48.494719" lon="16.535651">
        <ele>322.026972</ele>
        <time>2020-07-01T05:06:50.978Z</time>
      </trkpt>
      <trkpt lat="48.494665" lon="16.535826">
        <ele>321.906038</ele>
        <time>2020-07-01T05:06:52.968Z</time>
      </trkpt>
      <trkpt lat="48.494618" lon="16.536010">
        <ele>321.782502</ele>
        <time>2020-07-01T05:06:54.990Z</time>
      </trkpt>
      <trkpt lat="48.494576" lon="16.536198">
        <ele>321.658214</ele>
        <time>2020-07-01T05:06:57.003Z</time>
      </trkpt>
      <trkpt lat="48.494538" lon="16.536389">
        <ele>321.533283</ele>
        <time>2020-07-01T05:06:58.982Z</time>
      </trkpt>
      <trkpt lat="48.494502" lon="16.536582">
        <ele>321.407677</ele>
        <time>2020-07-01T05:07:00.996Z</time>
      </trkpt>
      <trkpt lat="48.494477" lon="16.536780">
        <ele>321.138345</ele>
        <time>2020-07-01T05:07:02.982Z</time>
      </trkpt>
      <trkpt lat="48.494461" lon="16.536985">
        <ele>320.856973</ele>
        <time>2020-07-01T05:07:04.998Z</time>
      </trkpt>
      <trkpt lat="48.494442" lon="16.537191">
        <ele>320.573462</ele>
        <time>2020-07-01T05:07:07.022Z</time>
      </trkpt>
      <trkpt lat="48.494426" lon="16.537400">
        <ele>320.286674</ele>
        <time>2020-07-01T05:07:08.980Z</time>
      </trkpt>
      <trkpt lat="48.494406" lon="16.537605">
        <ele>320.004221</ele>
        <time>2020-07-01T05:07:10.979Z</time>
      </trkpt>
      <trkpt lat="48.494381" lon="16.537806">
        <ele>319.725448</ele>
        <time>2020-07-01T05:07:12.996Z</time>
      </trkpt>
      <trkpt lat="48.494350" lon="16.538004">
        <ele>319.448118</ele>
        <time>2020-07-01T05:07:15.008Z</time>
      </trkpt>
      <trkpt lat="48.494312" lon="16.538206">
        <ele>319.161887</ele>
        <time>2020-07-01T05:07:16.997Z</time>
      </trkpt>
      <trkpt lat="48.494263" lon="16.538401">
        <ele>318.877609</ele>
        <time>2020-07-01T05:07:18.984Z</time>
      </trkpt>
      <trkpt lat="48.494215" lon="16.538595">
        <ele>318.595331</ele>
        <time>2020-07-01T05:07:21.018Z</time>
      </trkpt>
      <trkpt lat="48.494165" lon="16.538790">
        <ele>318.310317</ele>
        <time>2020-07-01T05:07:22.999Z</time>
      </trkpt>
      <trkpt lat="48.494076" lon="16.538954">
        <ele>318.021369</ele>
        <time>2020-07-01T05:07:25.019Z</time>
      </trkpt>
      <trkpt lat="48.494015" lon="16.539140">
        <ele>317.738477</ele>
        <time>2020-07-01T05:07:26.979Z</time>
      </trkpt>
      <trkpt lat="48.493947" lon="16.539319">
        <ele>317.325381</ele>
        <time>2020-07-01T05:07:28.995Z</time>
      </trkpt>
      <trkpt lat="48.493855" lon="16.539471">
        <ele>316.894445</ele>
        <time>2020-07-01T05:07:31.003Z</time>
      </trkpt>
      <trkpt lat="48.493762" lon="16.539619">
        <ele>316.467486</ele>
        <time>2020-07-01T05:07:32.976Z</time>
      </trkpt>
      <trkpt lat="48.493660" lon="16.539751">
        <ele>316.043018</ele>
        <time>2020-07-01T05:07:34.958Z</time>
      </trkpt>
      <trkpt lat="48.493557" lon="16.539879">
        <ele>315.621518</ele>
        <time>2020-07-01T05:07:36.992Z</time>
      </trkpt>
      <trkpt lat="48.493452" lon="16.540003">
        <ele>315.200334</ele>
        <time>2020-07-01T05:07:38.994Z</time>
      </trkpt>
      <trkpt lat="48.493347" lon="16.540122">
        <ele>314.785519</ele>
        <time>2020-07-01T05:07:40.987Z</time>
      </trkpt>
      <trkpt lat="48.493235" lon="16.540232">
        <ele>314.363385</ele>
        <time>2020-07-01T05:07:42.979Z</time>
      </trkpt>
      <trkpt lat="48.493123" lon="16.540341">
        <ele>313.942389</ele>
        <time>2020-07-01T05:07:44.982Z</time>
      </trkpt>
      <trkpt lat="48.493011" lon="16.540449">
        <ele>313.522524</ele>
        <time>2020-07-01T05:07:46.986Z</time>
      </trkpt>
      <trkpt lat="48.492898" lon="16.540544">
        <ele>313.113908</ele>
        <time>2020-07-01T05:07:48.957Z</time>
      </trkpt>
      <trkpt lat="48.492786" lon="16.540642">
        <ele>312.704934</ele>
        <time>2020-07-01T05:07:50.975Z</time>
      </trkpt>
      <trkpt lat="48.492671" lon="16.540739">
        <ele>312.288761</ele>
        <time>2020-07-01T05:07:52.990Z</time>
      </trkpt>
      <trkpt lat="48.492553" lon="16.540825">
        <ele>311.896644</ele>
        <time>2020-07-01T05:07:54.958Z</time>
      </trkpt>
      <trkpt lat="48.492435" lon="16.540910">
        <ele>311.545014</ele>
        <time>2020-07-01T05:07:57.019Z</time>
      </trkpt>
      <trkpt lat="48.492317" lon="16.540994">
        <ele>311.194147</ele>
        <time>2020-07-01T05:07:58.970Z</time>
      </trkpt>
      <trkpt lat="48.492203" lon="16.541080">
        <ele>310.851399</ele>
        <time>2020-07-01T05:08:00.971Z</time>
      </trkpt>
      <trkpt lat="48.492087" lon="16.541159">
        <ele>310.509150</ele>
        <time>2020-07-01T05:08:02.979Z</time>
      </trkpt>
      <trkpt lat="48.491970" lon="16.541239">
        <ele>310.163716</ele>
        <time>2020-07-01T05:08:04.979Z</time>
      </trkpt>
      <trkpt lat="48.491854" lon="16.541322">
        <ele>309.818473</ele>
        <time>2020-07-01T05:08:06.958Z</time>
      </trkpt>
      <trkpt lat="48.491739" lon="16.541411">
        <ele>309.470910</ele>
        <time>2020-07-01T05:08:08.980Z</time>
      </trkpt>
      <trkpt lat="48.491629" lon="16.541505">
        <ele>309.130952</ele>
        <time>2020-07-01T05:08:10.965Z</time>
      </trkpt>
      <trkpt lat="48.491522" lon="16.541605">
        <ele>308.792485</ele>
        <time>2020-07-01T05:08:12.972Z</time>
      </trkpt>
      <trkpt lat="48.491416" lon="16.541708">
        <ele>308.453436</ele>
        <time>2020-07-01T05:08:14.981Z</time>
      </trkpt>
      <trkpt lat="48.491316" lon="16.541830">
        <ele>308.107611</ele>
        <time>2020-07-01T05:08:17.009Z</time>
      </trkpt>
      <trkpt lat="48.491220" lon="16.541956">
        <ele>307.765447</ele>
        <time>2020-07-01T05:08:18.981Z</time>
      </trkpt>
      <trkpt lat="48.491136" lon="16.542073">
        <ele>307.458024</ele>
        <time>2020-07-01T05:08:20.997Z</time>
      </trkpt>
      <trkpt lat="48.491052" lon="16.542189">
        <ele>307.137517</ele>
        <time>2020-07-01T05:08:22.961Z</time>
      </trkpt>
      <trkpt lat="48.490988" lon="16.542326">
        <ele>306.709116</ele>
        <time>2020-07-01T05:08:24.980Z</time>
      </trkpt>
      <trkpt lat="48.490924" lon="16.542472">
        <ele>306.261717</ele>
        <time>2020-07-01T05:08:26.972Z</time>
      </trkpt>
      <trkpt lat="48.490861" lon="16.542621">
        <ele>305.809989</ele>
        <time>2020-07-01T05:08:28.991Z</time>
      </trkpt>
      <trkpt lat="48.490795" lon="16.542771">
        <ele>305.349806</ele>
        <time>2020-07-01T05:08:31.006Z</time>
      </trkpt>
      <trkpt lat="48.490731" lon="16.542916">
        <ele>304.904536</ele>
        <time>2020-07-01T05:08:32.988Z</time>
      </trkpt>
      <trkpt lat="48.490668" lon="16.543059">
        <ele>304.465657</ele>
        <time>2020-07-01T05:08:34.999Z</time>
      </trkpt>
      <trkpt lat="48.490602" lon="16.543208">
        <ele>304.007600</ele>
        <time>2020-07-01T05:08:36.992Z</time>
      </trkpt>
      <trkpt lat="48.490570" lon="16.543368">
        <ele>303.580442</ele>
        <time>2020-07-01T05:08:38.996Z</time>
      </trkpt>
      <trkpt lat="48.490614" lon="16.543514">
        <ele>303.170513</ele>
        <time>2020-07-01T05:08:40.967Z</time>
      </trkpt>
      <trkpt lat="48.490694" lon="16.543658">
        <ele>302.690257</ele>
        <time>2020-07-01T05:08:42.991Z</time>
      </trkpt>
      <trkpt lat="48.490690" lon="16.543859">
        <ele>302.176292</ele>
        <time>2020-07-01T05:08:44.973Z</time>
      </trkpt>
      <trkpt lat="48.490644" lon="16.544061">
        <ele>301.630375</ele>
        <time>2020-07-01T05:08:46.977Z</time>
      </trkpt>
      <trkpt lat="48.490599" lon="16.544246">
        <ele>301.126693</ele>
        <time>2020-07-01T05:08:49.001Z</time>
      </trkpt>
      <trkpt lat="48.490552" lon="16.544431">
        <ele>300.620302</ele>
        <time>2020-07-01T05:08:50.983Z</time>
      </trkpt>
      <trkpt lat="48.490497" lon="16.544608">
        <ele>300.147418</ele>
        <time>2020-07-01T05:08:53.012Z</time>
      </trkpt>
      <trkpt lat="48.490434" lon="16.544777">
        <ele>299.755832</ele>
        <time>2020-07-01T05:08:54.982Z</time>
      </trkpt>
      <trkpt lat="48.490364" lon="16.544946">
        <ele>299.353359</ele>
        <time>2020-07-01T05:08:56.995Z</time>
      </trkpt>
      <trkpt lat="48.490291" lon="16.545111">
        <ele>298.952711</ele>
        <time>2020-07-01T05:08:58.989Z</time>
      </trkpt>
      <trkpt lat="48.490217" lon="16.545275">
        <ele>298.552032</ele>
        <time>2020-07-01T05:09:00.957Z</time>
      </trkpt>
      <trkpt lat="48.490116" lon="16.545414">
        <ele>298.135472</ele>
        <time>2020-07-01T05:09:02.979Z</time>
      </trkpt>
      <trkpt lat="48.490050" lon="16.545586">
        <ele>297.734091</ele>
        <time>2020-07-01T05:09:04.999Z</time>
      </trkpt>
      <trkpt lat="48.489983" lon="16.545749">
        <ele>297.346734</ele>
        <time>2020-07-01T05:09:06.980Z</time>
      </trkpt>
      <trkpt lat="48.489913" lon="16.545907">
        <ele>296.962916</ele>
        <time>2020-07-01T05:09:09.012Z</time>
      </trkpt>
      <trkpt lat="48.489842" lon="16.546069">
        <ele>296.570684</ele>
        <time>2020-07-01T05:09:10.971Z</time>
      </trkpt>
      <trkpt lat="48.489736" lon="16.546190">
        <ele>296.165657</ele>
        <time>2020-07-01T05:09:12.980Z</time>
      </trkpt>
      <trkpt lat="48.489630" lon="16.546310">
        <ele>295.761846</ele>
        <time>2020-07-01T05:09:14.983Z</time>
      </trkpt>
      <trkpt lat="48.489548" lon="16.546463">
        <ele>295.364464</ele>
        <time>2020-07-01T05:09:16.980Z</time>
      </trkpt>
      <trkpt lat="48.489476" lon="16.546622">
        <ele>294.975558</ele>
        <time>2020-07-01T05:09:18.999Z</time>
      </trkpt>
      <trkpt lat="48.489392" lon="16.546771">
        <ele>294.646214</ele>
        <time>2020-07-01T05:09:20.989Z</time>
      </trkpt>
      <trkpt lat="48.489337" lon="16.546950">
        <ele>294.387883</ele>
        <time>2020-07-01T05:09:22.985Z</time>
      </trkpt>
      <trkpt lat="48.489278" lon="16.547123">
        <ele>294.133140</ele>
        <time>2020-07-01T05:09:25.014Z</time>
      </trkpt>
      <trkpt lat="48.489209" lon="16.547288">
        <ele>293.877690</ele>
        <time>2020-07-01T05:09:27.006Z</time>
      </trkpt>
      <trkpt lat="48.489136" lon="16.547449">
        <ele>293.622278</ele>
        <time>2020-07-01T05:09:28.978Z</time>
      </trkpt>
      <trkpt lat="48.489064" lon="16.547608">
        <ele>293.370141</ele>
        <time>2020-07-01T05:09:30.969Z</time>
      </trkpt>
      <trkpt lat="48.488999" lon="16.547774">
        <ele>293.117693</ele>
        <time>2020-07-01T05:09:32.964Z</time>
      </trkpt>
      <trkpt lat="48.488942" lon="16.547945">
        <ele>292.867074</ele>
        <time>2020-07-01T05:09:34.987Z</time>
      </trkpt>
      <trkpt lat="48.488853" lon="16.548091">
        <ele>292.607348</ele>
        <time>2020-07-01T05:09:36.976Z</time>
      </trkpt>
      <trkpt lat="48.488777" lon="16.548240">
        <ele>292.361170</ele>
        <time>2020-07-01T05:09:38.978Z</time>
      </trkpt>
      <trkpt lat="48.488718" lon="16.548403">
        <ele>292.117993</ele>
        <time>2020-07-01T05:09:40.958Z</time>
      </trkpt>
      <trkpt lat="48.488671" lon="16.548580">
        <ele>291.868331</ele>
        <time>2020-07-01T05:09:42.955Z</time>
      </trkpt>
      <trkpt lat="48.488600" lon="16.548733">
        <ele>291.623778</ele>
        <time>2020-07-01T05:09:44.987Z</time>
      </trkpt>
      <trkpt lat="48.488548" lon="16.548906">
        <ele>291.375056</ele>
        <time>2020-07-01T05:09:46.968Z</time>
      </trkpt>
      <trkpt lat="48.488484" lon="16.549065">
        <ele>291.146815</ele>
        <time>2020-07-01T05:09:48.980Z</time>
      </trkpt>
      <trkpt lat="48.488418" lon="16.549222">
        <ele>290.948604</ele>
        <time>2020-07-01T05:09:50.960Z</time>
      </trkpt>
      <trkpt lat="48.488356" lon="16.549388">
        <ele>290.745462</ele>
        <time>2020-07-01T05:09:52.968Z</time>
      </trkpt>
      <trkpt lat="48.488285" lon="16.549548">
        <ele>290.540179</ele>
        <time>2020-07-01T05:09:55.001Z</time>
      </trkpt>
      <trkpt lat="48.488199" lon="16.549698">
        <ele>290.328729</ele>
        <time>2020-07-01T05:09:56.987Z</time>
      </trkpt>
      <trkpt lat="48.488133" lon="16.549870">
        <ele>290.116840</ele>
        <time>2020-07-01T05:09:58.988Z</time>
      </trkpt>
      <trkpt lat="48.488052" lon="16.550028">
        <ele>289.903881</ele>
        <time>2020-07-01T05:10:00.998Z</time>
      </trkpt>
      <trkpt lat="48.487979" lon="16.550185">
        <ele>289.699417</ele>
        <time>2020-07-01T05:10:02.956Z</time>
      </trkpt>
      <trkpt lat="48.487905" lon="16.550331">
        <ele>289.503464</ele>
        <time>2020-07-01T05:10:04.984Z</time>
      </trkpt>
      <trkpt lat="48.487842" lon="16.550477">
        <ele>289.317727</ele>
        <time>2020-07-01T05:10:06.995Z</time>
      </trkpt>
      <trkpt lat="48.487763" lon="16.550585">
        <ele>289.146244</ele>
        <time>2020-07-01T05:10:08.961Z</time>
      </trkpt>
      <trkpt lat="48.487702" lon="16.550712">
        <ele>288.979029</ele>
        <time>2020-07-01T05:10:10.996Z</time>
      </trkpt>
      <trkpt lat="48.487672" lon="16.550866">
        <ele>288.807899</ele>
        <time>2020-07-01T05:10:12.971Z</time>
      </trkpt>
      <trkpt lat="48.487659" lon="16.551025">
        <ele>288.637099</ele>
        <time>2020-07-01T05:10:14.972Z</time>
      </trkpt>
      <trkpt lat="48.487671" lon="16.551189">
        <ele>288.461191</ele>
        <time>2020-07-01T05:10:16.976Z</time>
      </trkpt>
      <trkpt lat="48.487679" lon="16.551353">
        <ele>288.191273</ele>
        <time>2020-07-01T05:10:18.984Z</time>
      </trkpt>
      <trkpt lat="48.487678" lon="16.551512">
        <ele>287.562089</ele>
        <time>2020-07-01T05:10:20.979Z</time>
      </trkpt>
      <trkpt lat="48.487662" lon="16.551674">
        <ele>286.913983</ele>
        <time>2020-07-01T05:10:22.956Z</time>
      </trkpt>
      <trkpt lat="48.487638" lon="16.551834">
        <ele>286.264859</ele>
        <time>2020-07-01T05:10:24.981Z</time>
      </trkpt>
      <trkpt lat="48.487606" lon="16.551988">
        <ele>285.626241</ele>
        <time>2020-07-01T05:10:26.979Z</time>
      </trkpt>
      <trkpt lat="48.487566" lon="16.552139">
        <ele>284.982783</ele>
        <time>2020-07-01T05:10:28.977Z</time>
      </trkpt>
      <trkpt lat="48.487516" lon="16.552300">
        <ele>284.279243</ele>
        <time>2020-07-01T05:10:30.979Z</time>
      </trkpt>
      <trkpt lat="48.487467" lon="16.552446">
        <ele>283.631680</ele>
        <time>2020-07-01T05:10:32.984Z</time>
      </trkpt>
      <trkpt lat="48.487418" lon="16.552599">
        <ele>282.959288</ele>
        <time>2020-07-01T05:10:34.976Z</time>
      </trkpt>
      <trkpt lat="48.487366" lon="16.552751">
        <ele>282.282431</ele>
        <time>2020-07-01T05:10:36.971Z</time>
      </trkpt>
      <trkpt lat="48.487315" lon="16.552897">
        <ele>281.629386</ele>
        <time>2020-07-01T05:10:38.990Z</time>
      </trkpt>
      <trkpt lat="48.487267" lon="16.553055">
        <ele>280.941634</ele>
        <time>2020-07-01T05:10:40.977Z</time>
      </trkpt>
      <trkpt lat="48.487210" lon="16.553204">
        <ele>280.260881</ele>
        <time>2020-07-01T05:10:43.007Z</time>
      </trkpt>
      <trkpt lat="48.487155" lon="16.553349">
        <ele>279.599801</ele>
        <time>2020-07-01T05:10:44.987Z</time>
      </trkpt>
      <trkpt lat="48.487105" lon="16.553493">
        <ele>278.956536</ele>
        <time>2020-07-01T05:10:46.990Z</time>
      </trkpt>
      <trkpt lat="48.487056" lon="16.553648">
        <ele>278.277006</ele>
        <time>2020-07-01T05:10:48.963Z</time>
      </trkpt>
      <trkpt lat="48.487010" lon="16.553784">
        <ele>277.672829</ele>
        <time>2020-07-01T05:10:50.964Z</time>
      </trkpt>
      <trkpt lat="48.486966" lon="16.553940">
        <ele>277.089158</ele>
        <time>2020-07-01T05:10:52.978Z</time>
      </trkpt>
      <trkpt lat="48.486912" lon="16.554093">
        <ele>276.506275</ele>
        <time>2020-07-01T05:10:54.955Z</time>
      </trkpt>
      <trkpt lat="48.486866" lon="16.554240">
        <ele>275.959642</ele>
        <time>2020-07-01T05:10:56.984Z</time>
      </trkpt>
      <trkpt lat="48.486823" lon="16.554399">
        <ele>275.382185</ele>
        <time>2020-07-01T05:10:58.977Z</time>
      </trkpt>
      <trkpt lat="48.486774" lon="16.554551">
        <ele>274.813811</ele>
        <time>2020-07-01T05:11:00.957Z</time>
      </trkpt>
      <trkpt lat="48.486725" lon="16.554704">
        <ele>274.242411</ele>
        <time>2020-07-01T05:11:02.961Z</time>
      </trkpt>
      <trkpt lat="48.486682" lon="16.554862">
        <ele>273.668064</ele>
        <time>2020-07-01T05:11:04.968Z</time>
      </trkpt>
      <trkpt lat="48.486638" lon="16.555014">
        <ele>273.110318</ele>
        <time>2020-07-01T05:11:06.981Z</time>
      </trkpt>
      <trkpt lat="48.486596" lon="16.555169">
        <ele>272.547229</ele>
        <time>2020-07-01T05:11:08.985Z</time>
      </trkpt>
      <trkpt lat="48.486556" lon="16.555310">
        <ele>272.031488</ele>
        <time>2020-07-01T05:11:10.997Z</time>
      </trkpt>
      <trkpt lat="48.486501" lon="16.555456">
        <ele>271.466779</ele>
        <time>2020-07-01T05:11:12.979Z</time>
      </trkpt>
      <trkpt lat="48.486448" lon="16.555609">
        <ele>270.886259</ele>
        <time>2020-07-01T05:11:14.983Z</time>
      </trkpt>
      <trkpt lat="48.486402" lon="16.555760">
        <ele>270.327429</ele>
        <time>2020-07-01T05:11:16.964Z</time>
      </trkpt>
      <trkpt lat="48.486357" lon="16.555907">
        <ele>269.782939</ele>
        <time>2020-07-01T05:11:18.976Z</time>
      </trkpt>
      <trkpt lat="48.486311" lon="16.556056">
        <ele>269.230212</ele>
        <time>2020-07-01T05:11:20.953Z</time>
      </trkpt>
      <trkpt lat="48.486267" lon="16.556200">
        <ele>268.697006</ele>
        <time>2020-07-01T05:11:22.962Z</time>
      </trkpt>
      <trkpt lat="48.486216" lon="16.556341">
        <ele>268.364802</ele>
        <time>2020-07-01T05:11:24.990Z</time>
      </trkpt>
      <trkpt lat="48.486167" lon="16.556486">
        <ele>268.196558</ele>
        <time>2020-07-01T05:11:27.011Z</time>
      </trkpt>
      <trkpt lat="48.486111" lon="16.556638">
        <ele>268.016793</ele>
        <time>2020-07-01T05:11:28.960Z</time>
      </trkpt>
      <trkpt lat="48.486053" lon="16.556782">
        <ele>267.842609</ele>
        <time>2020-07-01T05:11:31.007Z</time>
      </trkpt>
      <trkpt lat="48.485996" lon="16.556928">
        <ele>267.667453</ele>
        <time>2020-07-01T05:11:32.973Z</time>
      </trkpt>
      <trkpt lat="48.485937" lon="16.557075">
        <ele>267.489809</ele>
        <time>2020-07-01T05:11:34.973Z</time>
      </trkpt>
      <trkpt lat="48.485879" lon="16.557220">
        <ele>267.314741</ele>
        <time>2020-07-01T05:11:36.955Z</time>
      </trkpt>
      <trkpt lat="48.485822" lon="16.557357">
        <ele>267.147534</ele>
        <time>2020-07-01T05:11:39.004Z</time>
      </trkpt>
      <trkpt lat="48.485764" lon="16.557497">
        <ele>266.976870</ele>
        <time>2020-07-01T05:11:40.976Z</time>
      </trkpt>
      <trkpt lat="48.485709" lon="16.557631">
        <ele>266.813944</ele>
        <time>2020-07-01T05:11:42.964Z</time>
      </trkpt>
      <trkpt lat="48.485642" lon="16.557770">
        <ele>266.636280</ele>
        <time>2020-07-01T05:11:44.978Z</time>
      </trkpt>
      <trkpt lat="48.485575" lon="16.557907">
        <ele>266.460283</ele>
        <time>2020-07-01T05:11:46.970Z</time>
      </trkpt>
      <trkpt lat="48.485507" lon="16.558044">
        <ele>266.283356</ele>
        <time>2020-07-01T05:11:48.959Z</time>
      </trkpt>
      <trkpt lat="48.485441" lon="16.558177">
        <ele>266.111609</ele>
        <time>2020-07-01T05:11:50.981Z</time>
      </trkpt>
      <trkpt lat="48.485379" lon="16.558315">
        <ele>265.939272</ele>
        <time>2020-07-01T05:11:52.979Z</time>
      </trkpt>
      <trkpt lat="48.485315" lon="16.558456">
        <ele>265.762616</ele>
        <time>2020-07-01T05:11:54.989Z</time>
      </trkpt>
      <trkpt lat="48.485248" lon="16.558587">
        <ele>265.623904</ele>
        <time>2020-07-01T05:11:56.965Z</time>
      </trkpt>
      <trkpt lat="48.485172" lon="16.558717">
        <ele>265.540695</ele>
        <time>2020-07-01T05:11:58.987Z</time>
      </trkpt>
      <trkpt lat="48.485104" lon="16.558846">
        <ele>265.461577</ele>
        <time>2020-07-01T05:12:00.982Z</time>
      </trkpt>
      <trkpt lat="48.485038" lon="16.558967">
        <ele>265.386355</ele>
        <time>2020-07-01T05:12:03.000Z</time>
      </trkpt>
      <trkpt lat="48.484995" lon="16.559094">
        <ele>265.317898</ele>
        <time>2020-07-01T05:12:04.960Z</time>
      </trkpt>
      <trkpt lat="48.485002" lon="16.559233">
        <ele>265.250982</ele>
        <time>2020-07-01T05:12:06.966Z</time>
      </trkpt>
      <trkpt lat="48.485042" lon="16.559359">
        <ele>265.183920</ele>
        <time>2020-07-01T05:12:08.975Z</time>
      </trkpt>
      <trkpt lat="48.485102" lon="16.559466">
        <ele>265.116642</ele>
        <time>2020-07-01T05:12:10.966Z</time>
      </trkpt>
      <trkpt lat="48.485186" lon="16.559568">
        <ele>265.038551</ele>
        <time>2020-07-01T05:12:12.972Z</time>
      </trkpt>
      <trkpt lat="48.485278" lon="16.559655">
        <ele>264.959916</ele>
        <time>2020-07-01T05:12:14.963Z</time>
      </trkpt>
      <trkpt lat="48.485370" lon="16.559740">
        <ele>264.881787</ele>
        <time>2020-07-01T05:12:16.967Z</time>
      </trkpt>
      <trkpt lat="48.485461" lon="16.559830">
        <ele>264.802985</ele>
        <time>2020-07-01T05:12:19.006Z</time>
      </trkpt>
      <trkpt lat="48.485530" lon="16.559951">
        <ele>264.726365</ele>
        <time>2020-07-01T05:12:20.992Z</time>
      </trkpt>
      <trkpt lat="48.485558" lon="16.560082">
        <ele>264.660293</ele>
        <time>2020-07-01T05:12:22.969Z</time>
      </trkpt>
      <trkpt lat="48.485551" lon="16.560225">
        <ele>264.591463</ele>
        <time>2020-07-01T05:12:24.994Z</time>
      </trkpt>
      <trkpt lat="48.485530" lon="16.560363">
        <ele>264.523497</ele>
        <time>2020-07-01T05:12:26.959Z</time>
      </trkpt>
      <trkpt lat="48.485494" lon="16.560503">
        <ele>264.451414</ele>
        <time>2020-07-01T05:12:29.000Z</time>
      </trkpt>
      <trkpt lat="48.485450" lon="16.560640">
        <ele>264.378338</ele>
        <time>2020-07-01T05:12:30.992Z</time>
      </trkpt>
      <trkpt lat="48.485403" lon="16.560787">
        <ele>264.257132</ele>
        <time>2020-07-01T05:12:32.986Z</time>
      </trkpt>
      <trkpt lat="48.485361" lon="16.560935">
        <ele>264.112697</ele>
        <time>2020-07-01T05:12:34.955Z</time>
      </trkpt>
      <trkpt lat="48.485303" lon="16.561081">
        <ele>263.959990</ele>
        <time>2020-07-01T05:12:36.995Z</time>
      </trkpt>
      <trkpt lat="48.485242" lon="16.561237">
        <ele>263.797496</ele>
        <time>2020-07-01T05:12:38.988Z</time>
      </trkpt>
      <trkpt lat="48.485181" lon="16.561388">
        <ele>263.638849</ele>
        <time>2020-07-01T05:12:40.970Z</time>
      </trkpt>
      <trkpt lat="48.485117" lon="16.561536">
        <ele>263.480311</ele>
        <time>2020-07-01T05:12:42.970Z</time>
      </trkpt>
      <trkpt lat="48.485045" lon="16.561692">
        <ele>263.309769</ele>
        <time>2020-07-01T05:12:44.973Z</time>
      </trkpt>
      <trkpt lat="48.484987" lon="16.561857">
        <ele>263.142211</ele>
        <time>2020-07-01T05:12:46.990Z</time>
      </trkpt>
      <trkpt lat="48.484927" lon="16.562022">
        <ele>262.973367</ele>
        <time>2020-07-01T05:12:48.968Z</time>
      </trkpt>
      <trkpt lat="48.484868" lon="16.562188">
        <ele>262.804380</ele>
        <time>2020-07-01T05:12:50.974Z</time>
      </trkpt>
      <trkpt lat="48.484821" lon="16.562360">
        <ele>262.637471</ele>
        <time>2020-07-01T05:12:52.966Z</time>
      </trkpt>
      <trkpt lat="48.484777" lon="16.562531">
        <ele>262.472904</ele>
        <time>2020-07-01T05:12:54.949Z</time>
      </trkpt>
      <trkpt lat="48.484737" lon="16.562706">
        <ele>262.306829</ele>
        <time>2020-07-01T05:12:56.988Z</time>
      </trkpt>
      <trkpt lat="48.484700" lon="16.562884">
        <ele>262.139467</ele>
        <time>2020-07-01T05:12:58.960Z</time>
      </trkpt>
      <trkpt lat="48.484661" lon="16.563059">
        <ele>261.973829</ele>
        <time>2020-07-01T05:13:00.980Z</time>
      </trkpt>
      <trkpt lat="48.484621" lon="16.563235">
        <ele>261.826442</ele>
        <time>2020-07-01T05:13:02.980Z</time>
      </trkpt>
      <trkpt lat="48.484580" lon="16.563410">
        <ele>261.690076</ele>
        <time>2020-07-01T05:13:04.957Z</time>
      </trkpt>
      <trkpt lat="48.484536" lon="16.563586">
        <ele>261.551880</ele>
        <time>2020-07-01T05:13:06.997Z</time>
      </trkpt>
      <trkpt lat="48.484497" lon="16.563765">
        <ele>261.413448</ele>
        <time>2020-07-01T05:13:09.005Z</time>
      </trkpt>
      <trkpt lat="48.484458" lon="16.563943">
        <ele>261.275714</ele>
        <time>2020-07-01T05:13:10.990Z</time>
      </trkpt>
      <trkpt lat="48.484420" lon="16.564118">
        <ele>261.140420</ele>
        <time>2020-07-01T05:13:12.987Z</time>
      </trkpt>
      <trkpt lat="48.484384" lon="16.564292">
        <ele>261.006501</ele>
        <time>2020-07-01T05:13:14.949Z</time>
      </trkpt>
      <trkpt lat="48.484345" lon="16.564464">
        <ele>260.872945</ele>
        <time>2020-07-01T05:13:16.979Z</time>
      </trkpt>
      <trkpt lat="48.484298" lon="16.564630">
        <ele>260.740326</ele>
        <time>2020-07-01T05:13:18.972Z</time>
      </trkpt>
      <trkpt lat="48.484246" lon="16.564789">
        <ele>260.610064</ele>
        <time>2020-07-01T05:13:20.966Z</time>
      </trkpt>
      <trkpt lat="48.484191" lon="16.564943">
        <ele>260.481543</ele>
        <time>2020-07-01T05:13:22.960Z</time>
      </trkpt>
      <trkpt lat="48.484137" lon="16.565088">
        <ele>260.359349</ele>
        <time>2020-07-01T05:13:24.958Z</time>
      </trkpt>
      <trkpt lat="48.484085" lon="16.565232">
        <ele>260.238871</ele>
        <time>2020-07-01T05:13:26.978Z</time>
      </trkpt>
      <trkpt lat="48.484050" lon="16.565367">
        <ele>260.132371</ele>
        <time>2020-07-01T05:13:28.983Z</time>
      </trkpt>
      <trkpt lat="48.484011" lon="16.565498">
        <ele>260.026863</ele>
        <time>2020-07-01T05:13:30.982Z</time>
      </trkpt>
      <trkpt lat="48.483960" lon="16.565632">
        <ele>259.911978</ele>
        <time>2020-07-01T05:13:33.008Z</time>
      </trkpt>
      <trkpt lat="48.483896" lon="16.565770">
        <ele>259.766617</ele>
        <time>2020-07-01T05:13:34.984Z</time>
      </trkpt>
      <trkpt lat="48.483827" lon="16.565927">
        <ele>259.604037</ele>
        <time>2020-07-01T05:13:36.961Z</time>
      </trkpt>
      <trkpt lat="48.483765" lon="16.566091">
        <ele>259.441092</ele>
        <time>2020-07-01T05:13:39.004Z</time>
      </trkpt>
      <trkpt lat="48.483726" lon="16.566267">
        <ele>259.280929</ele>
        <time>2020-07-01T05:13:41.015Z</time>
      </trkpt>
      <trkpt lat="48.483691" lon="16.566440">
        <ele>259.124820</ele>
        <time>2020-07-01T05:13:43.004Z</time>
      </trkpt>
      <trkpt lat="48.483656" lon="16.566609">
        <ele>258.972008</ele>
        <time>2020-07-01T05:13:44.972Z</time>
      </trkpt>
      <trkpt lat="48.483628" lon="16.566773">
        <ele>258.825846</ele>
        <time>2020-07-01T05:13:46.963Z</time>
      </trkpt>
      <trkpt lat="48.483599" lon="16.566941">
        <ele>258.676015</ele>
        <time>2020-07-01T05:13:48.989Z</time>
      </trkpt>
      <trkpt lat="48.483574" lon="16.567110">
        <ele>258.526569</ele>
        <time>2020-07-01T05:13:50.970Z</time>
      </trkpt>
      <trkpt lat="48.483543" lon="16.567282">
        <ele>258.372732</ele>
        <time>2020-07-01T05:13:53.002Z</time>
      </trkpt>
      <trkpt lat="48.483518" lon="16.567462">
        <ele>258.214006</ele>
        <time>2020-07-01T05:13:54.971Z</time>
      </trkpt>
      <trkpt lat="48.483505" lon="16.567650">
        <ele>258.050869</ele>
        <time>2020-07-01T05:13:57.002Z</time>
      </trkpt>
      <trkpt lat="48.483494" lon="16.567836">
        <ele>257.889702</ele>
        <time>2020-07-01T05:13:58.950Z</time>
      </trkpt>
      <trkpt lat="48.483492" lon="16.568021">
        <ele>257.730013</ele>
        <time>2020-07-01T05:14:01.004Z</time>
      </trkpt>
      <trkpt lat="48.483483" lon="16.568205">
        <ele>257.572722</ele>
        <time>2020-07-01T05:14:02.977Z</time>
      </trkpt>
      <trkpt lat="48.483474" lon="16.568378">
        <ele>257.457739</ele>
        <time>2020-07-01T05:14:04.967Z</time>
      </trkpt>
      <trkpt lat="48.483469" lon="16.568562">
        <ele>257.335717</ele>
        <time>2020-07-01T05:14:06.956Z</time>
      </trkpt>
      <trkpt lat="48.483452" lon="16.568755">
        <ele>257.206709</ele>
        <time>2020-07-01T05:14:08.971Z</time>
      </trkpt>
      <trkpt lat="48.483433" lon="16.568936">
        <ele>257.085283</ele>
        <time>2020-07-01T05:14:10.969Z</time>
      </trkpt>
      <trkpt lat="48.483430" lon="16.569121">
        <ele>256.962664</ele>
        <time>2020-07-01T05:14:12.975Z</time>
      </trkpt>
      <trkpt lat="48.483427" lon="16.569301">
        <ele>256.843357</ele>
        <time>2020-07-01T05:14:14.986Z</time>
      </trkpt>
      <trkpt lat="48.483421" lon="16.569482">
        <ele>256.723275</ele>
        <time>2020-07-01T05:14:16.976Z</time>
      </trkpt>
      <trkpt lat="48.483425" lon="16.569663">
        <ele>256.603276</ele>
        <time>2020-07-01T05:14:18.980Z</time>
      </trkpt>
      <trkpt lat="48.483426" lon="16.569843">
        <ele>256.484003</ele>
        <time>2020-07-01T05:14:20.956Z</time>
      </trkpt>
      <trkpt lat="48.483415" lon="16.570020">
        <ele>256.366207</ele>
        <time>2020-07-01T05:14:22.981Z</time>
      </trkpt>
      <trkpt lat="48.483400" lon="16.570192">
        <ele>256.251256</ele>
        <time>2020-07-01T05:14:24.983Z</time>
      </trkpt>
      <trkpt lat="48.483375" lon="16.570358">
        <ele>256.138460</ele>
        <time>2020-07-01T05:14:26.960Z</time>
      </trkpt>
      <trkpt lat="48.483340" lon="16.570514">
        <ele>256.029332</ele>
        <time>2020-07-01T05:14:28.986Z</time>
      </trkpt>
      <trkpt lat="48.483301" lon="16.570661">
        <ele>255.924416</ele>
        <time>2020-07-01T05:14:30.990Z</time>
      </trkpt>
      <trkpt lat="48.483252" lon="16.570805">
        <ele>255.817162</ele>
        <time>2020-07-01T05:14:32.993Z</time>
      </trkpt>
      <trkpt lat="48.483199" lon="16.570941">
        <ele>255.725808</ele>
        <time>2020-07-01T05:14:34.985Z</time>
      </trkpt>
      <trkpt lat="48.483140" lon="16.571070">
        <ele>255.641942</ele>
        <time>2020-07-01T05:14:36.976Z</time>
      </trkpt>
      <trkpt lat="48.483052" lon="16.571170">
        <ele>255.553002</ele>
        <time>2020-07-01T05:14:39.965Z</time>
      </trkpt>
      <trkpt lat="48.482942" lon="16.571242">
        <ele>255.456202</ele>
        <time>2020-07-01T05:14:43.008Z</time>
      </trkpt>
      <trkpt lat="48.482857" lon="16.571323">
        <ele>255.375040</ele>
        <time>2020-07-01T05:14:45.009Z</time>
      </trkpt>
      <trkpt lat="48.482763" lon="16.571410">
        <ele>255.286012</ele>
        <time>2020-07-01T05:14:47.021Z</time>
      </trkpt>
      <trkpt lat="48.482681" lon="16.571523">
        <ele>255.196355</ele>
        <time>2020-07-01T05:14:48.994Z</time>
      </trkpt>
      <trkpt lat="48.482600" lon="16.571629">
        <ele>255.109791</ele>
        <time>2020-07-01T05:14:50.973Z</time>
      </trkpt>
      <trkpt lat="48.482526" lon="16.571758">
        <ele>255.018501</ele>
        <time>2020-07-01T05:14:53.001Z</time>
      </trkpt>
      <trkpt lat="48.482452" lon="16.571877">
        <ele>254.931187</ele>
        <time>2020-07-01T05:14:54.962Z</time>
      </trkpt>
      <trkpt lat="48.482373" lon="16.571984">
        <ele>254.845480</ele>
        <time>2020-07-01T05:14:57.001Z</time>
      </trkpt>
      <trkpt lat="48.482296" lon="16.572090">
        <ele>254.761329</ele>
        <time>2020-07-01T05:14:58.979Z</time>
      </trkpt>
      <trkpt lat="48.482216" lon="16.572200">
        <ele>254.673946</ele>
        <time>2020-07-01T05:15:00.998Z</time>
      </trkpt>
      <trkpt lat="48.482137" lon="16.572310">
        <ele>254.587158</ele>
        <time>2020-07-01T05:15:02.959Z</time>
      </trkpt>
      <trkpt lat="48.482066" lon="16.572437">
        <ele>254.498254</ele>
        <time>2020-07-01T05:15:04.981Z</time>
      </trkpt>
      <trkpt lat="48.482012" lon="16.572577">
        <ele>254.411577</ele>
        <time>2020-07-01T05:15:07.038Z</time>
      </trkpt>
      <trkpt lat="48.481955" lon="16.572726">
        <ele>254.315810</ele>
        <time>2020-07-01T05:15:08.964Z</time>
      </trkpt>
      <trkpt lat="48.481899" lon="16.572881">
        <ele>254.184778</ele>
        <time>2020-07-01T05:15:10.976Z</time>
      </trkpt>
      <trkpt lat="48.481843" lon="16.573043">
        <ele>254.049162</ele>
        <time>2020-07-01T05:15:12.986Z</time>
      </trkpt>
      <trkpt lat="48.481782" lon="16.573211">
        <ele>253.906978</ele>
        <time>2020-07-01T05:15:14.963Z</time>
      </trkpt>
      <trkpt lat="48.481725" lon="16.573377">
        <ele>253.768210</ele>
        <time>2020-07-01T05:15:16.951Z</time>
      </trkpt>
      <trkpt lat="48.481674" lon="16.573546">
        <ele>253.630378</ele>
        <time>2020-07-01T05:15:18.971Z</time>
      </trkpt>
      <trkpt lat="48.481627" lon="16.573715">
        <ele>253.494341</ele>
        <time>2020-07-01T05:15:20.972Z</time>
      </trkpt>
      <trkpt lat="48.481571" lon="16.573877">
        <ele>253.358724</ele>
        <time>2020-07-01T05:15:22.964Z</time>
      </trkpt>
      <trkpt lat="48.481511" lon="16.574031">
        <ele>253.226131</ele>
        <time>2020-07-01T05:15:24.968Z</time>
      </trkpt>
      <trkpt lat="48.481470" lon="16.574181">
        <ele>253.105695</ele>
        <time>2020-07-01T05:15:26.956Z</time>
      </trkpt>
      <trkpt lat="48.481415" lon="16.574311">
        <ele>252.991220</ele>
        <time>2020-07-01T05:15:28.976Z</time>
      </trkpt>
      <trkpt lat="48.481367" lon="16.574454">
        <ele>252.872241</ele>
        <time>2020-07-01T05:15:30.982Z</time>
      </trkpt>
      <trkpt lat="48.481322" lon="16.574600">
        <ele>252.752727</ele>
        <time>2020-07-01T05:15:32.998Z</time>
      </trkpt>
      <trkpt lat="48.481276" lon="16.574737">
        <ele>252.638733</ele>
        <time>2020-07-01T05:15:34.961Z</time>
      </trkpt>
      <trkpt lat="48.481221" lon="16.574880">
        <ele>252.516013</ele>
        <time>2020-07-01T05:15:36.958Z</time>
      </trkpt>
      <trkpt lat="48.481179" lon="16.575042">
        <ele>252.386894</ele>
        <time>2020-07-01T05:15:39.000Z</time>
      </trkpt>
      <trkpt lat="48.481126" lon="16.575201">
        <ele>252.243079</ele>
        <time>2020-07-01T05:15:40.990Z</time>
      </trkpt>
      <trkpt lat="48.481088" lon="16.575371">
        <ele>252.084000</ele>
        <time>2020-07-01T05:15:42.995Z</time>
      </trkpt>
      <trkpt lat="48.481047" lon="16.575554">
        <ele>251.912716</ele>
        <time>2020-07-01T05:15:44.990Z</time>
      </trkpt>
      <trkpt lat="48.480992" lon="16.575724">
        <ele>251.744981</ele>
        <time>2020-07-01T05:15:46.959Z</time>
      </trkpt>
      <trkpt lat="48.480948" lon="16.575895">
        <ele>251.582332</ele>
        <time>2020-07-01T05:15:48.977Z</time>
      </trkpt>
      <trkpt lat="48.480897" lon="16.576053">
        <ele>251.426505</ele>
        <time>2020-07-01T05:15:50.981Z</time>
      </trkpt>
      <trkpt lat="48.480848" lon="16.576211">
        <ele>251.271831</ele>
        <time>2020-07-01T05:15:52.974Z</time>
      </trkpt>
      <trkpt lat="48.480807" lon="16.576354">
        <ele>251.133680</ele>
        <time>2020-07-01T05:15:54.985Z</time>
      </trkpt>
      <trkpt lat="48.480769" lon="16.576498">
        <ele>250.996248</ele>
        <time>2020-07-01T05:15:56.977Z</time>
      </trkpt>
      <trkpt lat="48.480721" lon="16.576630">
        <ele>250.862748</ele>
        <time>2020-07-01T05:15:59.009Z</time>
      </trkpt>
      <trkpt lat="48.480656" lon="16.576764">
        <ele>250.715514</ele>
        <time>2020-07-01T05:16:00.990Z</time>
      </trkpt>
      <trkpt lat="48.480602" lon="16.576909">
        <ele>250.568039</ele>
        <time>2020-07-01T05:16:02.967Z</time>
      </trkpt>
      <trkpt lat="48.480542" lon="16.577054">
        <ele>250.416472</ele>
        <time>2020-07-01T05:16:04.972Z</time>
      </trkpt>
      <trkpt lat="48.480472" lon="16.577201">
        <ele>250.255979</ele>
        <time>2020-07-01T05:16:06.955Z</time>
      </trkpt>
      <trkpt lat="48.480399" lon="16.577352">
        <ele>250.090259</ele>
        <time>2020-07-01T05:16:08.979Z</time>
      </trkpt>
      <trkpt lat="48.480326" lon="16.577502">
        <ele>249.925255</ele>
        <time>2020-07-01T05:16:10.984Z</time>
      </trkpt>
      <trkpt lat="48.480259" lon="16.577655">
        <ele>249.707130</ele>
        <time>2020-07-01T05:16:12.974Z</time>
      </trkpt>
      <trkpt lat="48.480193" lon="16.577815">
        <ele>249.476618</ele>
        <time>2020-07-01T05:16:14.971Z</time>
      </trkpt>
      <trkpt lat="48.480118" lon="16.577973">
        <ele>249.238910</ele>
        <time>2020-07-01T05:16:17.013Z</time>
      </trkpt>
      <trkpt lat="48.480044" lon="16.578125">
        <ele>249.008227</ele>
        <time>2020-07-01T05:16:18.993Z</time>
      </trkpt>
      <trkpt lat="48.479973" lon="16.578263">
        <ele>248.794547</ele>
        <time>2020-07-01T05:16:20.988Z</time>
      </trkpt>
      <trkpt lat="48.479905" lon="16.578376">
        <ele>248.607864</ele>
        <time>2020-07-01T05:16:22.978Z</time>
      </trkpt>
      <trkpt lat="48.479848" lon="16.578483">
        <ele>248.439955</ele>
        <time>2020-07-01T05:16:24.956Z</time>
      </trkpt>
      <trkpt lat="48.479762" lon="16.578622">
        <ele>248.207376</ele>
        <time>2020-07-01T05:16:27.964Z</time>
      </trkpt>
      <trkpt lat="48.479695" lon="16.578711">
        <ele>248.042643</ele>
        <time>2020-07-01T05:16:29.968Z</time>
      </trkpt>
      <trkpt lat="48.479618" lon="16.578820">
        <ele>247.847795</ele>
        <time>2020-07-01T05:16:31.975Z</time>
      </trkpt>
      <trkpt lat="48.479535" lon="16.578956">
        <ele>247.621671</ele>
        <time>2020-07-01T05:16:33.953Z</time>
      </trkpt>
      <trkpt lat="48.479461" lon="16.579119">
        <ele>247.380009</ele>
        <time>2020-07-01T05:16:35.982Z</time>
      </trkpt>
      <trkpt lat="48.479395" lon="16.579291">
        <ele>247.136909</ele>
        <time>2020-07-01T05:16:37.956Z</time>
      </trkpt>
      <trkpt lat="48.479337" lon="16.579466">
        <ele>246.897581</ele>
        <time>2020-07-01T05:16:39.990Z</time>
      </trkpt>
      <trkpt lat="48.479283" lon="16.579642">
        <ele>246.660352</ele>
        <time>2020-07-01T05:16:41.970Z</time>
      </trkpt>
      <trkpt lat="48.479245" lon="16.579824">
        <ele>246.476924</ele>
        <time>2020-07-01T05:16:43.965Z</time>
      </trkpt>
      <trkpt lat="48.479200" lon="16.580012">
        <ele>246.307381</ele>
        <time>2020-07-01T05:16:46.008Z</time>
      </trkpt>
      <trkpt lat="48.479165" lon="16.580216">
        <ele>246.128642</ele>
        <time>2020-07-01T05:16:48.027Z</time>
      </trkpt>
      <trkpt lat="48.479128" lon="16.580429">
        <ele>245.941869</ele>
        <time>2020-07-01T05:16:49.980Z</time>
      </trkpt>
      <trkpt lat="48.479091" lon="16.580642">
        <ele>245.755097</ele>
        <time>2020-07-01T05:16:52.013Z</time>
      </trkpt>
      <trkpt lat="48.479054" lon="16.580851">
        <ele>245.571605</ele>
        <time>2020-07-01T05:16:53.989Z</time>
      </trkpt>
      <trkpt lat="48.479021" lon="16.581059">
        <ele>245.390191</ele>
        <time>2020-07-01T05:16:55.999Z</time>
      </trkpt>
      <trkpt lat="48.478993" lon="16.581263">
        <ele>245.213482</ele>
        <time>2020-07-01T05:16:57.962Z</time>
      </trkpt>
      <trkpt lat="48.478968" lon="16.581465">
        <ele>245.039180</ele>
        <time>2020-07-01T05:16:59.957Z</time>
      </trkpt>
      <trkpt lat="48.478930" lon="16.581650">
        <ele>244.874897</ele>
        <time>2020-07-01T05:17:01.994Z</time>
      </trkpt>
      <trkpt lat="48.478903" lon="16.581819">
        <ele>244.727442</ele>
        <time>2020-07-01T05:17:04.006Z</time>
      </trkpt>
      <trkpt lat="48.478875" lon="16.581972">
        <ele>244.592808</ele>
        <time>2020-07-01T05:17:06.000Z</time>
      </trkpt>
      <trkpt lat="48.478848" lon="16.582120">
        <ele>244.462603</ele>
        <time>2020-07-01T05:17:07.985Z</time>
      </trkpt>
      <trkpt lat="48.478818" lon="16.582272">
        <ele>244.328078</ele>
        <time>2020-07-01T05:17:09.984Z</time>
      </trkpt>
      <trkpt lat="48.478779" lon="16.582432">
        <ele>244.245612</ele>
        <time>2020-07-01T05:17:11.957Z</time>
      </trkpt>
      <trkpt lat="48.478744" lon="16.582590">
        <ele>244.187934</ele>
        <time>2020-07-01T05:17:13.988Z</time>
      </trkpt>
      <trkpt lat="48.478711" lon="16.582749">
        <ele>244.130247</ele>
        <time>2020-07-01T05:17:16.003Z</time>
      </trkpt>
      <trkpt lat="48.478682" lon="16.582900">
        <ele>244.075815</ele>
        <time>2020-07-01T05:17:17.970Z</time>
      </trkpt>
      <trkpt lat="48.478652" lon="16.583044">
        <ele>244.023553</ele>
        <time>2020-07-01T05:17:19.956Z</time>
      </trkpt>
      <trkpt lat="48.478618" lon="16.583193">
        <ele>243.968993</ele>
        <time>2020-07-01T05:17:21.986Z</time>
      </trkpt>
      <trkpt lat="48.478598" lon="16.583328">
        <ele>243.921098</ele>
        <time>2020-07-01T05:17:23.980Z</time>
      </trkpt>
      <trkpt lat="48.478565" lon="16.583523">
        <ele>243.851417</ele>
        <time>2020-07-01T05:17:26.991Z</time>
      </trkpt>
      <trkpt lat="48.478523" lon="16.583711">
        <ele>243.782727</ele>
        <time>2020-07-01T05:17:29.984Z</time>
      </trkpt>
      <trkpt lat="48.478494" lon="16.583846">
        <ele>243.733592</ele>
        <time>2020-07-01T05:17:31.979Z</time>
      </trkpt>
      <trkpt lat="48.478464" lon="16.583978">
        <ele>243.685277</ele>
        <time>2020-07-01T05:17:33.960Z</time>
      </trkpt>
      <trkpt lat="48.478443" lon="16.584119">
        <ele>243.635241</ele>
        <time>2020-07-01T05:17:36.004Z</time>
      </trkpt>
      <trkpt lat="48.478417" lon="16.584265">
        <ele>243.582898</ele>
        <time>2020-07-01T05:17:37.992Z</time>
      </trkpt>
      <trkpt lat="48.478390" lon="16.584420">
        <ele>243.527409</ele>
        <time>2020-07-01T05:17:40.020Z</time>
      </trkpt>
      <trkpt lat="48.478366" lon="16.584582">
        <ele>243.469935</ele>
        <time>2020-07-01T05:17:41.981Z</time>
      </trkpt>
      <trkpt lat="48.478347" lon="16.584753">
        <ele>243.409902</ele>
        <time>2020-07-01T05:17:43.973Z</time>
      </trkpt>
      <trkpt lat="48.478340" lon="16.584926">
        <ele>243.349891</ele>
        <time>2020-07-01T05:17:45.979Z</time>
      </trkpt>
      <trkpt lat="48.478344" lon="16.585100">
        <ele>243.376306</ele>
        <time>2020-07-01T05:17:47.959Z</time>
      </trkpt>
      <trkpt lat="48.478350" lon="16.585276">
        <ele>243.404322</ele>
        <time>2020-07-01T05:17:49.956Z</time>
      </trkpt>
      <trkpt lat="48.478332" lon="16.585450">
        <ele>243.432318</ele>
        <time>2020-07-01T05:17:51.951Z</time>
      </trkpt>
      <trkpt lat="48.478299" lon="16.585610">
        <ele>243.458956</ele>
        <time>2020-07-01T05:17:53.961Z</time>
      </trkpt>
      <trkpt lat="48.478264" lon="16.585761">
        <ele>243.484386</ele>
        <time>2020-07-01T05:17:55.983Z</time>
      </trkpt>
      <trkpt lat="48.478229" lon="16.585921">
        <ele>243.511171</ele>
        <time>2020-07-01T05:17:57.961Z</time>
      </trkpt>
      <trkpt lat="48.478159" lon="16.586085">
        <ele>243.542179</ele>
        <time>2020-07-01T05:17:59.970Z</time>
      </trkpt>
      <trkpt lat="48.478070" lon="16.586248">
        <ele>243.575750</ele>
        <time>2020-07-01T05:18:01.985Z</time>
      </trkpt>
      <trkpt lat="48.477988" lon="16.586420">
        <ele>243.609430</ele>
        <time>2020-07-01T05:18:03.975Z</time>
      </trkpt>
      <trkpt lat="48.477897" lon="16.586589">
        <ele>243.644043</ele>
        <time>2020-07-01T05:18:05.959Z</time>
      </trkpt>
      <trkpt lat="48.477799" lon="16.586751">
        <ele>243.678908</ele>
        <time>2020-07-01T05:18:07.979Z</time>
      </trkpt>
      <trkpt lat="48.477709" lon="16.586927">
        <ele>243.714244</ele>
        <time>2020-07-01T05:18:09.994Z</time>
      </trkpt>
      <trkpt lat="48.477629" lon="16.587114">
        <ele>243.749626</ele>
        <time>2020-07-01T05:18:11.960Z</time>
      </trkpt>
      <trkpt lat="48.477533" lon="16.587278">
        <ele>243.780478</ele>
        <time>2020-07-01T05:18:13.992Z</time>
      </trkpt>
      <trkpt lat="48.477439" lon="16.587439">
        <ele>243.781459</ele>
        <time>2020-07-01T05:18:15.992Z</time>
      </trkpt>
      <trkpt lat="48.477355" lon="16.587597">
        <ele>243.782385</ele>
        <time>2020-07-01T05:18:17.979Z</time>
      </trkpt>
      <trkpt lat="48.477278" lon="16.587762">
        <ele>243.783308</ele>
        <time>2020-07-01T05:18:19.956Z</time>
      </trkpt>
      <trkpt lat="48.477198" lon="16.587919">
        <ele>243.784214</ele>
        <time>2020-07-01T05:18:21.957Z</time>
      </trkpt>
      <trkpt lat="48.477120" lon="16.588075">
        <ele>243.785108</ele>
        <time>2020-07-01T05:18:23.984Z</time>
      </trkpt>
      <trkpt lat="48.477061" lon="16.588224">
        <ele>243.785902</ele>
        <time>2020-07-01T05:18:25.983Z</time>
      </trkpt>
      <trkpt lat="48.477055" lon="16.588402">
        <ele>243.786717</ele>
        <time>2020-07-01T05:18:28.968Z</time>
      </trkpt>
      <trkpt lat="48.477123" lon="16.588492">
        <ele>243.787341</ele>
        <time>2020-07-01T05:18:30.958Z</time>
      </trkpt>
      <trkpt lat="48.477203" lon="16.588569">
        <ele>243.787996</ele>
        <time>2020-07-01T05:18:32.959Z</time>
      </trkpt>
      <trkpt lat="48.477314" lon="16.588677">
        <ele>243.788907</ele>
        <time>2020-07-01T05:18:35.961Z</time>
      </trkpt>
      <trkpt lat="48.477418" lon="16.588795">
        <ele>243.789805</ele>
        <time>2020-07-01T05:18:38.992Z</time>
      </trkpt>
      <trkpt lat="48.477515" lon="16.588897">
        <ele>243.790621</ele>
        <time>2020-07-01T05:18:41.953Z</time>
      </trkpt>
      <trkpt lat="48.477592" lon="16.589005">
        <ele>243.791346</ele>
        <time>2020-07-01T05:18:44.955Z</time>
      </trkpt>
      <trkpt lat="48.477565" lon="16.589134">
        <ele>243.791965</ele>
        <time>2020-07-01T05:18:47.959Z</time>
      </trkpt>
      <trkpt lat="48.477485" lon="16.589284">
        <ele>243.787152</ele>
        <time>2020-07-01T05:18:50.953Z</time>
      </trkpt>
      <trkpt lat="48.477437" lon="16.589401">
        <ele>243.739490</ele>
        <time>2020-07-01T05:18:52.958Z</time>
      </trkpt>
      <trkpt lat="48.477369" lon="16.589509">
        <ele>243.687893</ele>
        <time>2020-07-01T05:18:54.970Z</time>
      </trkpt>
      <trkpt lat="48.477292" lon="16.589607">
        <ele>243.635250</ele>
        <time>2020-07-01T05:18:56.986Z</time>
      </trkpt>
      <trkpt lat="48.477228" lon="16.589730">
        <ele>243.581085</ele>
        <time>2020-07-01T05:18:58.959Z</time>
      </trkpt>
      <trkpt lat="48.477165" lon="16.589857">
        <ele>243.526138</ele>
        <time>2020-07-01T05:19:00.977Z</time>
      </trkpt>
      <trkpt lat="48.477100" lon="16.589990">
        <ele>243.468900</ele>
        <time>2020-07-01T05:19:02.960Z</time>
      </trkpt>
      <trkpt lat="48.477045" lon="16.590108">
        <ele>243.418932</ele>
        <time>2020-07-01T05:19:04.955Z</time>
      </trkpt>
      <trkpt lat="48.476993" lon="16.590239">
        <ele>243.366040</ele>
        <time>2020-07-01T05:19:09.964Z</time>
      </trkpt>
      <trkpt lat="48.477009" lon="16.590400">
        <ele>243.309646</ele>
        <time>2020-07-01T05:19:13.965Z</time>
      </trkpt>
      <trkpt lat="48.477116" lon="16.590474">
        <ele>243.248138</ele>
        <time>2020-07-01T05:19:16.975Z</time>
      </trkpt>
      <trkpt lat="48.477208" lon="16.590534">
        <ele>243.195763</ele>
        <time>2020-07-01T05:19:19.005Z</time>
      </trkpt>
      <trkpt lat="48.477291" lon="16.590608">
        <ele>243.145383</ele>
        <time>2020-07-01T05:19:20.979Z</time>
      </trkpt>
      <trkpt lat="48.477407" lon="16.590712">
        <ele>243.074871</ele>
        <time>2020-07-01T05:19:23.967Z</time>
      </trkpt>
      <trkpt lat="48.477491" lon="16.590785">
        <ele>243.024214</ele>
        <time>2020-07-01T05:19:25.987Z</time>
      </trkpt>
      <trkpt lat="48.477569" lon="16.590868">
        <ele>242.974336</ele>
        <time>2020-07-01T05:19:27.988Z</time>
      </trkpt>
      <trkpt lat="48.477580" lon="16.591007">
        <ele>242.925844</ele>
        <time>2020-07-01T05:19:29.968Z</time>
      </trkpt>
      <trkpt lat="48.477538" lon="16.591133">
        <ele>242.876991</ele>
        <time>2020-07-01T05:19:31.963Z</time>
      </trkpt>
      <trkpt lat="48.477482" lon="16.591256">
        <ele>242.837478</ele>
        <time>2020-07-01T05:19:33.970Z</time>
      </trkpt>
      <trkpt lat="48.477430" lon="16.591386">
        <ele>242.808082</ele>
        <time>2020-07-01T05:19:35.982Z</time>
      </trkpt>
      <trkpt lat="48.477380" lon="16.591521">
        <ele>242.778142</ele>
        <time>2020-07-01T05:19:37.955Z</time>
      </trkpt>
      <trkpt lat="48.477323" lon="16.591647">
        <ele>242.748609</ele>
        <time>2020-07-01T05:19:39.989Z</time>
      </trkpt>
      <trkpt lat="48.477258" lon="16.591785">
        <ele>242.715834</ele>
        <time>2020-07-01T05:19:41.985Z</time>
      </trkpt>
      <trkpt lat="48.477190" lon="16.591920">
        <ele>242.683008</ele>
        <time>2020-07-01T05:19:43.999Z</time>
      </trkpt>
      <trkpt lat="48.477129" lon="16.592066">
        <ele>242.649595</ele>
        <time>2020-07-01T05:19:45.973Z</time>
      </trkpt>
      <trkpt lat="48.477075" lon="16.592214">
        <ele>242.616888</ele>
        <time>2020-07-01T05:19:47.964Z</time>
      </trkpt>
      <trkpt lat="48.477043" lon="16.592364">
        <ele>242.586380</ele>
        <time>2020-07-01T05:19:49.981Z</time>
      </trkpt>
      <trkpt lat="48.477008" lon="16.592500">
        <ele>242.558134</ele>
        <time>2020-07-01T05:19:51.965Z</time>
      </trkpt>
      <trkpt lat="48.476971" lon="16.592635">
        <ele>242.529852</ele>
        <time>2020-07-01T05:19:53.969Z</time>
      </trkpt>
      <trkpt lat="48.476936" lon="16.592768">
        <ele>242.502147</ele>
        <time>2020-07-01T05:19:55.954Z</time>
      </trkpt>
      <trkpt lat="48.476913" lon="16.592947">
        <ele>242.466846</ele>
        <time>2020-07-01T05:19:58.978Z</time>
      </trkpt>
      <trkpt lat="48.476899" lon="16.593121">
        <ele>242.432911</ele>
        <time>2020-07-01T05:20:01.996Z</time>
      </trkpt>
      <trkpt lat="48.476862" lon="16.593292">
        <ele>242.398085</ele>
        <time>2020-07-01T05:20:04.981Z</time>
      </trkpt>
      <trkpt lat="48.476815" lon="16.593462">
        <ele>242.362424</ele>
        <time>2020-07-01T05:20:07.952Z</time>
      </trkpt>
      <trkpt lat="48.476764" lon="16.593644">
        <ele>242.332260</ele>
        <time>2020-07-01T05:20:10.980Z</time>
      </trkpt>
      <trkpt lat="48.476735" lon="16.593775">
        <ele>242.368495</ele>
        <time>2020-07-01T05:20:12.970Z</time>
      </trkpt>
      <trkpt lat="48.476716" lon="16.593919">
        <ele>242.407016</ele>
        <time>2020-07-01T05:20:14.989Z</time>
      </trkpt>
      <trkpt lat="48.476700" lon="16.594069">
        <ele>242.446876</ele>
        <time>2020-07-01T05:20:16.970Z</time>
      </trkpt>
      <trkpt lat="48.476689" lon="16.594204">
        <ele>242.482561</ele>
        <time>2020-07-01T05:20:18.980Z</time>
      </trkpt>
      <trkpt lat="48.476681" lon="16.594383">
        <ele>242.529630</ele>
        <time>2020-07-01T05:20:21.997Z</time>
      </trkpt>
      <trkpt lat="48.476672" lon="16.594527">
        <ele>242.567578</ele>
        <time>2020-07-01T05:20:25.008Z</time>
      </trkpt>
      <trkpt lat="48.476652" lon="16.594686">
        <ele>242.610037</ele>
        <time>2020-07-01T05:20:28.980Z</time>
      </trkpt>
      <trkpt lat="48.476612" lon="16.594815">
        <ele>242.647401</ele>
        <time>2020-07-01T05:20:31.991Z</time>
      </trkpt>
      <trkpt lat="48.476576" lon="16.594965">
        <ele>242.689255</ele>
        <time>2020-07-01T05:20:35.989Z</time>
      </trkpt>
      <trkpt lat="48.476533" lon="16.595106">
        <ele>242.729974</ele>
        <time>2020-07-01T05:20:40.990Z</time>
      </trkpt>
      <trkpt lat="48.476520" lon="16.595256">
        <ele>242.769663</ele>
        <time>2020-07-01T05:20:45.952Z</time>
      </trkpt>
      <trkpt lat="48.476481" lon="16.595396">
        <ele>242.809505</ele>
        <time>2020-07-01T05:20:51.993Z</time>
      </trkpt>
      <trkpt lat="48.476470" lon="16.595544">
        <ele>242.848578</ele>
        <time>2020-07-01T05:20:58.988Z</time>
      </trkpt>
      <trkpt lat="48.476440" lon="16.595684">
        <ele>242.887179</ele>
        <time>2020-07-01T05:21:05.985Z</time>
      </trkpt>
      <trkpt lat="48.476426" lon="16.595820">
        <ele>242.923288</ele>
        <time>2020-07-01T05:21:10.000Z</time>
      </trkpt>
      <trkpt lat="48.476422" lon="16.595964">
        <ele>242.961101</ele>
        <time>2020-07-01T05:21:14.975Z</time>
      </trkpt>
      <trkpt lat="48.476392" lon="16.596105">
        <ele>242.999953</ele>
        <time>2020-07-01T05:21:20.970Z</time>
      </trkpt>
      <trkpt lat="48.476341" lon="16.596238">
        <ele>243.044668</ele>
        <time>2020-07-01T05:21:25.966Z</time>
      </trkpt>
      <trkpt lat="48.476267" lon="16.596346">
        <ele>243.302596</ele>
        <time>2020-07-01T05:21:31.963Z</time>
      </trkpt>
      <trkpt lat="48.476209" lon="16.596463">
        <ele>243.545205</ele>
        <time>2020-07-01T05:21:37.995Z</time>
      </trkpt>
      <trkpt lat="48.476151" lon="16.596584">
        <ele>243.793164</ele>
        <time>2020-07-01T05:21:43.962Z</time>
      </trkpt>
      <trkpt lat="48.476091" lon="16.596686">
        <ele>244.019617</ele>
        <time>2020-07-01T05:21:49.982Z</time>
      </trkpt>
      <trkpt lat="48.476045" lon="16.596806">
        <ele>244.249809</ele>
        <time>2020-07-01T05:21:55.964Z</time>
      </trkpt>
      <trkpt lat="48.475987" lon="16.596938">
        <ele>244.512790</ele>
        <time>2020-07-01T05:22:02.995Z</time>
      </trkpt>
      <trkpt lat="48.475929" lon="16.597052">
        <ele>244.751428</ele>
        <time>2020-07-01T05:22:08.985Z</time>
      </trkpt>
      <trkpt lat="48.475867" lon="16.597180">
        <ele>245.014683</ele>
        <time>2020-07-01T05:22:13.990Z</time>
      </trkpt>
      <trkpt lat="48.475807" lon="16.597296">
        <ele>245.259014</ele>
        <time>2020-07-01T05:22:18.962Z</time>
      </trkpt>
      <trkpt lat="48.475744" lon="16.597413">
        <ele>245.509325</ele>
        <time>2020-07-01T05:22:23.980Z</time>
      </trkpt>
      <trkpt lat="48.475680" lon="16.597536">
        <ele>245.768986</ele>
        <time>2020-07-01T05:22:28.977Z</time>
      </trkpt>
      <trkpt lat="48.475618" lon="16.597660">
        <ele>246.026908</ele>
        <time>2020-07-01T05:22:34.985Z</time>
      </trkpt>
      <trkpt lat="48.475576" lon="16.597789">
        <ele>246.265572</ele>
        <time>2020-07-01T05:22:39.957Z</time>
      </trkpt>
      <trkpt lat="48.475543" lon="16.597937">
        <ele>246.524878</ele>
        <time>2020-07-01T05:22:45.990Z</time>
      </trkpt>
      <trkpt lat="48.475523" lon="16.598076">
        <ele>246.761082</ele>
        <time>2020-07-01T05:22:51.973Z</time>
      </trkpt>
      <trkpt lat="48.475502" lon="16.598211">
        <ele>246.991359</ele>
        <time>2020-07-01T05:22:57.979Z</time>
      </trkpt>
      <trkpt lat="48.475472" lon="16.598354">
        <ele>247.240439</ele>
        <time>2020-07-01T05:23:03.987Z</time>
      </trkpt>
      <trkpt lat="48.475457" lon="16.598509">
        <ele>247.500568</ele>
        <time>2020-07-01T05:23:09.967Z</time>
      </trkpt>
      <trkpt lat="48.475448" lon="16.598653">
        <ele>247.908735</ele>
        <time>2020-07-01T05:23:14.963Z</time>
      </trkpt>
      <trkpt lat="48.475432" lon="16.598815">
        <ele>248.414112</ele>
        <time>2020-07-01T05:23:19.977Z</time>
      </trkpt>
      <trkpt lat="48.475409" lon="16.598950">
        <ele>248.844198</ele>
        <time>2020-07-01T05:23:24.974Z</time>
      </trkpt>
      <trkpt lat="48.475437" lon="16.599138">
        <ele>249.438741</ele>
        <time>2020-07-01T05:25:43.966Z</time>
      </trkpt>
      <trkpt lat="48.475420" lon="16.599273">
        <ele>249.862740</ele>
        <time>2020-07-01T05:25:47.965Z</time>
      </trkpt>
      <trkpt lat="48.475381" lon="16.599495">
        <ele>250.571376</ele>
        <time>2020-07-01T05:26:28.961Z</time>
      </trkpt>
      <trkpt lat="48.475354" lon="16.599692">
        <ele>251.192086</ele>
        <time>2020-07-01T05:26:31.966Z</time>
      </trkpt>
      <trkpt lat="48.475336" lon="16.599843">
        <ele>251.665478</ele>
        <time>2020-07-01T05:26:33.951Z</time>
      </trkpt>
      <trkpt lat="48.475312" lon="16.600005">
        <ele>252.177668</ele>
        <time>2020-07-01T05:26:35.993Z</time>
      </trkpt>
      <trkpt lat="48.475289" lon="16.600172">
        <ele>252.703960</ele>
        <time>2020-07-01T05:26:37.956Z</time>
      </trkpt>
      <trkpt lat="48.475267" lon="16.600346">
        <ele>253.250525</ele>
        <time>2020-07-01T05:26:39.969Z</time>
      </trkpt>
      <trkpt lat="48.475247" lon="16.600530">
        <ele>253.825850</ele>
        <time>2020-07-01T05:26:41.968Z</time>
      </trkpt>
      <trkpt lat="48.475225" lon="16.600722">
        <ele>254.427063</ele>
        <time>2020-07-01T05:26:43.973Z</time>
      </trkpt>
      <trkpt lat="48.475206" lon="16.600922">
        <ele>255.050481</ele>
        <time>2020-07-01T05:26:45.991Z</time>
      </trkpt>
      <trkpt lat="48.475183" lon="16.601140">
        <ele>255.731600</ele>
        <time>2020-07-01T05:26:47.994Z</time>
      </trkpt>
      <trkpt lat="48.475167" lon="16.601355">
        <ele>255.995852</ele>
        <time>2020-07-01T05:26:49.952Z</time>
      </trkpt>
      <trkpt lat="48.475106" lon="16.601523">
        <ele>256.093019</ele>
        <time>2020-07-01T05:26:51.974Z</time>
      </trkpt>
      <trkpt lat="48.474982" lon="16.601572">
        <ele>256.191103</ele>
        <time>2020-07-01T05:26:53.984Z</time>
      </trkpt>
      <trkpt lat="48.474866" lon="16.601502">
        <ele>256.286703</ele>
        <time>2020-07-01T05:26:55.967Z</time>
      </trkpt>
      <trkpt lat="48.474762" lon="16.601429">
        <ele>256.374475</ele>
        <time>2020-07-01T05:26:57.949Z</time>
      </trkpt>
      <trkpt lat="48.474674" lon="16.601362">
        <ele>256.449902</ele>
        <time>2020-07-01T05:26:59.981Z</time>
      </trkpt>
      <trkpt lat="48.474561" lon="16.601281">
        <ele>256.545634</ele>
        <time>2020-07-01T05:27:02.980Z</time>
      </trkpt>
      <trkpt lat="48.474466" lon="16.601220">
        <ele>256.624638</ele>
        <time>2020-07-01T05:27:05.980Z</time>
      </trkpt>
      <trkpt lat="48.474382" lon="16.601170">
        <ele>256.693737</ele>
        <time>2020-07-01T05:27:08.999Z</time>
      </trkpt>
      <trkpt lat="48.474288" lon="16.601095">
        <ele>256.775106</ele>
        <time>2020-07-01T05:27:12.996Z</time>
      </trkpt>
      <trkpt lat="48.474197" lon="16.601013">
        <ele>256.856216</ele>
        <time>2020-07-01T05:27:16.959Z</time>
      </trkpt>
      <trkpt lat="48.474094" lon="16.600932">
        <ele>256.945097</ele>
        <time>2020-07-01T05:27:20.953Z</time>
      </trkpt>
      <trkpt lat="48.474006" lon="16.600873">
        <ele>257.018785</ele>
        <time>2020-07-01T05:27:23.995Z</time>
      </trkpt>
      <trkpt lat="48.473917" lon="16.600809">
        <ele>257.094229</ele>
        <time>2020-07-01T05:27:26.975Z</time>
      </trkpt>
      <trkpt lat="48.473839" lon="16.600742">
        <ele>257.162912</ele>
        <time>2020-07-01T05:27:29.967Z</time>
      </trkpt>
      <trkpt lat="48.473755" lon="16.600670">
        <ele>257.236839</ele>
        <time>2020-07-01T05:27:32.973Z</time>
      </trkpt>
      <trkpt lat="48.473669" lon="16.600600">
        <ele>257.339423</ele>
        <time>2020-07-01T05:27:35.966Z</time>
      </trkpt>
      <trkpt lat="48.473585" lon="16.600529">
        <ele>257.521911</ele>
        <time>2020-07-01T05:27:38.992Z</time>
      </trkpt>
      <trkpt lat="48.473504" lon="16.600455">
        <ele>257.701384</ele>
        <time>2020-07-01T05:27:41.969Z</time>
      </trkpt>
      <trkpt lat="48.473415" lon="16.600368">
        <ele>257.902381</ele>
        <time>2020-07-01T05:27:45.979Z</time>
      </trkpt>
      <trkpt lat="48.473331" lon="16.600313">
        <ele>258.075931</ele>
        <time>2020-07-01T05:27:48.974Z</time>
      </trkpt>
      <trkpt lat="48.473237" lon="16.600252">
        <ele>258.269868</ele>
        <time>2020-07-01T05:27:51.967Z</time>
      </trkpt>
      <trkpt lat="48.473146" lon="16.600182">
        <ele>258.463464</ele>
        <time>2020-07-01T05:27:54.980Z</time>
      </trkpt>
      <trkpt lat="48.473059" lon="16.600109">
        <ele>258.652142</ele>
        <time>2020-07-01T05:27:57.975Z</time>
      </trkpt>
      <trkpt lat="48.472964" lon="16.600033">
        <ele>258.855942</ele>
        <time>2020-07-01T05:28:00.968Z</time>
      </trkpt>
      <trkpt lat="48.472866" lon="16.599961">
        <ele>259.062533</ele>
        <time>2020-07-01T05:28:03.976Z</time>
      </trkpt>
      <trkpt lat="48.472776" lon="16.599899">
        <ele>259.250049</ele>
        <time>2020-07-01T05:28:06.982Z</time>
      </trkpt>
      <trkpt lat="48.472671" lon="16.599979">
        <ele>259.472992</ele>
        <time>2020-07-01T05:28:10.980Z</time>
      </trkpt>
      <trkpt lat="48.472619" lon="16.600139">
        <ele>259.696885</ele>
        <time>2020-07-01T05:28:13.984Z</time>
      </trkpt>
      <trkpt lat="48.472573" lon="16.600323">
        <ele>259.943969</ele>
        <time>2020-07-01T05:28:16.972Z</time>
      </trkpt>
      <trkpt lat="48.472536" lon="16.600454">
        <ele>260.122882</ele>
        <time>2020-07-01T05:28:18.991Z</time>
      </trkpt>
      <trkpt lat="48.472491" lon="16.600588">
        <ele>260.311619</ele>
        <time>2020-07-01T05:28:21.000Z</time>
      </trkpt>
      <trkpt lat="48.472454" lon="16.600724">
        <ele>260.496329</ele>
        <time>2020-07-01T05:28:22.979Z</time>
      </trkpt>
      <trkpt lat="48.472411" lon="16.600875">
        <ele>260.702247</ele>
        <time>2020-07-01T05:28:24.985Z</time>
      </trkpt>
      <trkpt lat="48.472366" lon="16.601029">
        <ele>260.815665</ele>
        <time>2020-07-01T05:28:27.004Z</time>
      </trkpt>
      <trkpt lat="48.472319" lon="16.601184">
        <ele>260.930530</ele>
        <time>2020-07-01T05:28:28.966Z</time>
      </trkpt>
      <trkpt lat="48.472280" lon="16.601343">
        <ele>261.044782</ele>
        <time>2020-07-01T05:28:30.979Z</time>
      </trkpt>
      <trkpt lat="48.472240" lon="16.601499">
        <ele>261.157503</ele>
        <time>2020-07-01T05:28:32.971Z</time>
      </trkpt>
      <trkpt lat="48.472194" lon="16.601655">
        <ele>261.272564</ele>
        <time>2020-07-01T05:28:34.985Z</time>
      </trkpt>
      <trkpt lat="48.472142" lon="16.601803">
        <ele>261.385446</ele>
        <time>2020-07-01T05:28:36.947Z</time>
      </trkpt>
      <trkpt lat="48.472093" lon="16.601944">
        <ele>261.492732</ele>
        <time>2020-07-01T05:28:38.968Z</time>
      </trkpt>
      <trkpt lat="48.472053" lon="16.602091">
        <ele>261.599819</ele>
        <time>2020-07-01T05:28:40.965Z</time>
      </trkpt>
      <trkpt lat="48.472004" lon="16.602247">
        <ele>261.716154</ele>
        <time>2020-07-01T05:28:42.963Z</time>
      </trkpt>
      <trkpt lat="48.471954" lon="16.602406">
        <ele>261.834751</ele>
        <time>2020-07-01T05:28:44.960Z</time>
      </trkpt>
      <trkpt lat="48.471905" lon="16.602561">
        <ele>261.950477</ele>
        <time>2020-07-01T05:28:46.966Z</time>
      </trkpt>
      <trkpt lat="48.471857" lon="16.602723">
        <ele>262.070060</ele>
        <time>2020-07-01T05:28:48.971Z</time>
      </trkpt>
      <trkpt lat="48.471811" lon="16.602891">
        <ele>262.192556</ele>
        <time>2020-07-01T05:28:50.967Z</time>
      </trkpt>
      <trkpt lat="48.471765" lon="16.603054">
        <ele>262.311944</ele>
        <time>2020-07-01T05:28:52.973Z</time>
      </trkpt>
      <trkpt lat="48.471715" lon="16.603222">
        <ele>262.436049</ele>
        <time>2020-07-01T05:28:54.986Z</time>
      </trkpt>
      <trkpt lat="48.471666" lon="16.603387">
        <ele>262.535368</ele>
        <time>2020-07-01T05:28:56.982Z</time>
      </trkpt>
      <trkpt lat="48.471615" lon="16.603556">
        <ele>262.559769</ele>
        <time>2020-07-01T05:28:58.955Z</time>
      </trkpt>
      <trkpt lat="48.471561" lon="16.603723">
        <ele>262.584186</ele>
        <time>2020-07-01T05:29:00.968Z</time>
      </trkpt>
      <trkpt lat="48.471509" lon="16.603885">
        <ele>262.607839</ele>
        <time>2020-07-01T05:29:02.975Z</time>
      </trkpt>
      <trkpt lat="48.471459" lon="16.604039">
        <ele>262.630374</ele>
        <time>2020-07-01T05:29:04.979Z</time>
      </trkpt>
      <trkpt lat="48.471408" lon="16.604197">
        <ele>262.653467</ele>
        <time>2020-07-01T05:29:06.982Z</time>
      </trkpt>
      <trkpt lat="48.471365" lon="16.604356">
        <ele>262.676034</ele>
        <time>2020-07-01T05:29:08.985Z</time>
      </trkpt>
      <trkpt lat="48.471320" lon="16.604513">
        <ele>262.698511</ele>
        <time>2020-07-01T05:29:10.969Z</time>
      </trkpt>
      <trkpt lat="48.471276" lon="16.604673">
        <ele>262.721275</ele>
        <time>2020-07-01T05:29:12.974Z</time>
      </trkpt>
      <trkpt lat="48.471230" lon="16.604834">
        <ele>262.744314</ele>
        <time>2020-07-01T05:29:14.983Z</time>
      </trkpt>
      <trkpt lat="48.471180" lon="16.604985">
        <ele>262.766494</ele>
        <time>2020-07-01T05:29:16.964Z</time>
      </trkpt>
      <trkpt lat="48.471130" lon="16.605139">
        <ele>262.789029</ele>
        <time>2020-07-01T05:29:18.975Z</time>
      </trkpt>
      <trkpt lat="48.471081" lon="16.605302">
        <ele>262.812549</ele>
        <time>2020-07-01T05:29:20.985Z</time>
      </trkpt>
      <trkpt lat="48.471039" lon="16.605465">
        <ele>262.835530</ele>
        <time>2020-07-01T05:29:22.999Z</time>
      </trkpt>
      <trkpt lat="48.470997" lon="16.605624">
        <ele>262.858023</ele>
        <time>2020-07-01T05:29:24.979Z</time>
      </trkpt>
      <trkpt lat="48.470960" lon="16.605786">
        <ele>262.880540</ele>
        <time>2020-07-01T05:29:26.993Z</time>
      </trkpt>
      <trkpt lat="48.470911" lon="16.605943">
        <ele>262.871563</ele>
        <time>2020-07-01T05:29:28.989Z</time>
      </trkpt>
      <trkpt lat="48.470859" lon="16.606101">
        <ele>262.851192</ele>
        <time>2020-07-01T05:29:31.002Z</time>
      </trkpt>
      <trkpt lat="48.470807" lon="16.606257">
        <ele>262.831028</ele>
        <time>2020-07-01T05:29:32.991Z</time>
      </trkpt>
      <trkpt lat="48.470759" lon="16.606424">
        <ele>262.810008</ele>
        <time>2020-07-01T05:29:34.991Z</time>
      </trkpt>
      <trkpt lat="48.470709" lon="16.606587">
        <ele>262.789268</ele>
        <time>2020-07-01T05:29:37.004Z</time>
      </trkpt>
      <trkpt lat="48.470660" lon="16.606753">
        <ele>262.768283</ele>
        <time>2020-07-01T05:29:38.997Z</time>
      </trkpt>
      <trkpt lat="48.470611" lon="16.606920">
        <ele>262.747194</ele>
        <time>2020-07-01T05:29:40.982Z</time>
      </trkpt>
      <trkpt lat="48.470561" lon="16.607092">
        <ele>262.725505</ele>
        <time>2020-07-01T05:29:42.974Z</time>
      </trkpt>
      <trkpt lat="48.470512" lon="16.607261">
        <ele>262.704204</ele>
        <time>2020-07-01T05:29:44.997Z</time>
      </trkpt>
      <trkpt lat="48.470461" lon="16.607430">
        <ele>262.682761</ele>
        <time>2020-07-01T05:29:46.980Z</time>
      </trkpt>
      <trkpt lat="48.470408" lon="16.607599">
        <ele>262.661171</ele>
        <time>2020-07-01T05:29:48.986Z</time>
      </trkpt>
      <trkpt lat="48.470355" lon="16.607765">
        <ele>262.639894</ele>
        <time>2020-07-01T05:29:50.971Z</time>
      </trkpt>
      <trkpt lat="48.470300" lon="16.607925">
        <ele>262.619081</ele>
        <time>2020-07-01T05:29:52.973Z</time>
      </trkpt>
      <trkpt lat="48.470247" lon="16.608087">
        <ele>262.598219</ele>
        <time>2020-07-01T05:29:54.979Z</time>
      </trkpt>
      <trkpt lat="48.470192" lon="16.608236">
        <ele>262.578525</ele>
        <time>2020-07-01T05:29:56.980Z</time>
      </trkpt>
      <trkpt lat="48.470139" lon="16.608392">
        <ele>262.531620</ele>
        <time>2020-07-01T05:29:58.950Z</time>
      </trkpt>
      <trkpt lat="48.470094" lon="16.608557">
        <ele>262.474040</ele>
        <time>2020-07-01T05:30:00.950Z</time>
      </trkpt>
      <trkpt lat="48.470047" lon="16.608720">
        <ele>262.416676</ele>
        <time>2020-07-01T05:30:02.992Z</time>
      </trkpt>
      <trkpt lat="48.469999" lon="16.608880">
        <ele>262.359999</ele>
        <time>2020-07-01T05:30:04.968Z</time>
      </trkpt>
      <trkpt lat="48.469953" lon="16.609038">
        <ele>262.304308</ele>
        <time>2020-07-01T05:30:06.981Z</time>
      </trkpt>
      <trkpt lat="48.469905" lon="16.609196">
        <ele>262.248219</ele>
        <time>2020-07-01T05:30:08.960Z</time>
      </trkpt>
      <trkpt lat="48.469859" lon="16.609350">
        <ele>262.193707</ele>
        <time>2020-07-01T05:30:10.962Z</time>
      </trkpt>
      <trkpt lat="48.469806" lon="16.609517">
        <ele>262.133955</ele>
        <time>2020-07-01T05:30:13.003Z</time>
      </trkpt>
      <trkpt lat="48.469756" lon="16.609671">
        <ele>262.078615</ele>
        <time>2020-07-01T05:30:14.981Z</time>
      </trkpt>
      <trkpt lat="48.469704" lon="16.609831">
        <ele>262.021108</ele>
        <time>2020-07-01T05:30:16.972Z</time>
      </trkpt>
      <trkpt lat="48.469650" lon="16.610001">
        <ele>261.960272</ele>
        <time>2020-07-01T05:30:18.966Z</time>
      </trkpt>
      <trkpt lat="48.469595" lon="16.610173">
        <ele>261.898644</ele>
        <time>2020-07-01T05:30:20.961Z</time>
      </trkpt>
      <trkpt lat="48.469544" lon="16.610346">
        <ele>261.837541</ele>
        <time>2020-07-01T05:30:22.967Z</time>
      </trkpt>
      <trkpt lat="48.469488" lon="16.610519">
        <ele>261.775409</ele>
        <time>2020-07-01T05:30:24.950Z</time>
      </trkpt>
      <trkpt lat="48.469437" lon="16.610695">
        <ele>261.713420</ele>
        <time>2020-07-01T05:30:26.984Z</time>
      </trkpt>
      <trkpt lat="48.469383" lon="16.610868">
        <ele>261.621083</ele>
        <time>2020-07-01T05:30:28.995Z</time>
      </trkpt>
      <trkpt lat="48.469323" lon="16.611044">
        <ele>261.514611</ele>
        <time>2020-07-01T05:30:30.970Z</time>
      </trkpt>
      <trkpt lat="48.469266" lon="16.611220">
        <ele>261.409230</ele>
        <time>2020-07-01T05:30:32.971Z</time>
      </trkpt>
      <trkpt lat="48.469211" lon="16.611393">
        <ele>261.306009</ele>
        <time>2020-07-01T05:30:34.961Z</time>
      </trkpt>
      <trkpt lat="48.469159" lon="16.611565">
        <ele>261.204307</ele>
        <time>2020-07-01T05:30:36.972Z</time>
      </trkpt>
      <trkpt lat="48.469107" lon="16.611741">
        <ele>261.100642</ele>
        <time>2020-07-01T05:30:38.969Z</time>
      </trkpt>
      <trkpt lat="48.469054" lon="16.611917">
        <ele>260.996645</ele>
        <time>2020-07-01T05:30:40.983Z</time>
      </trkpt>
      <trkpt lat="48.469003" lon="16.612091">
        <ele>260.894293</ele>
        <time>2020-07-01T05:30:42.976Z</time>
      </trkpt>
      <trkpt lat="48.468947" lon="16.612261">
        <ele>260.792166</ele>
        <time>2020-07-01T05:30:44.972Z</time>
      </trkpt>
      <trkpt lat="48.468895" lon="16.612431">
        <ele>260.691441</ele>
        <time>2020-07-01T05:30:46.985Z</time>
      </trkpt>
      <trkpt lat="48.468843" lon="16.612596">
        <ele>260.593152</ele>
        <time>2020-07-01T05:30:48.971Z</time>
      </trkpt>
      <trkpt lat="48.468793" lon="16.612763">
        <ele>260.494569</ele>
        <time>2020-07-01T05:30:50.971Z</time>
      </trkpt>
      <trkpt lat="48.468741" lon="16.612930">
        <ele>260.395307</ele>
        <time>2020-07-01T05:30:52.983Z</time>
      </trkpt>
      <trkpt lat="48.468686" lon="16.613098">
        <ele>260.294504</ele>
        <time>2020-07-01T05:30:54.996Z</time>
      </trkpt>
      <trkpt lat="48.468631" lon="16.613266">
        <ele>260.198295</ele>
        <time>2020-07-01T05:30:56.980Z</time>
      </trkpt>
      <trkpt lat="48.468579" lon="16.613438">
        <ele>260.107106</ele>
        <time>2020-07-01T05:30:58.973Z</time>
      </trkpt>
      <trkpt lat="48.468521" lon="16.613604">
        <ele>260.016591</ele>
        <time>2020-07-01T05:31:00.976Z</time>
      </trkpt>
      <trkpt lat="48.468479" lon="16.613777">
        <ele>259.927719</ele>
        <time>2020-07-01T05:31:02.992Z</time>
      </trkpt>
      <trkpt lat="48.468435" lon="16.613950">
        <ele>259.838336</ele>
        <time>2020-07-01T05:31:04.952Z</time>
      </trkpt>
      <trkpt lat="48.468375" lon="16.614118">
        <ele>259.746285</ele>
        <time>2020-07-01T05:31:06.978Z</time>
      </trkpt>
      <trkpt lat="48.468324" lon="16.614302">
        <ele>259.650082</ele>
        <time>2020-07-01T05:31:08.990Z</time>
      </trkpt>
      <trkpt lat="48.468270" lon="16.614490">
        <ele>259.551248</ele>
        <time>2020-07-01T05:31:10.982Z</time>
      </trkpt>
      <trkpt lat="48.468218" lon="16.614677">
        <ele>259.453428</ele>
        <time>2020-07-01T05:31:12.968Z</time>
      </trkpt>
      <trkpt lat="48.468167" lon="16.614864">
        <ele>259.355888</ele>
        <time>2020-07-01T05:31:15.020Z</time>
      </trkpt>
      <trkpt lat="48.468117" lon="16.615047">
        <ele>259.260408</ele>
        <time>2020-07-01T05:31:16.999Z</time>
      </trkpt>
      <trkpt lat="48.468059" lon="16.615217">
        <ele>259.168181</ele>
        <time>2020-07-01T05:31:18.975Z</time>
      </trkpt>
      <trkpt lat="48.467998" lon="16.615382">
        <ele>259.077050</ele>
        <time>2020-07-01T05:31:20.992Z</time>
      </trkpt>
      <trkpt lat="48.467941" lon="16.615549">
        <ele>258.986442</ele>
        <time>2020-07-01T05:31:22.978Z</time>
      </trkpt>
      <trkpt lat="48.467885" lon="16.615710">
        <ele>258.916557</ele>
        <time>2020-07-01T05:31:24.967Z</time>
      </trkpt>
      <trkpt lat="48.467818" lon="16.615856">
        <ele>258.880469</ele>
        <time>2020-07-01T05:31:26.985Z</time>
      </trkpt>
      <trkpt lat="48.467767" lon="16.616009">
        <ele>258.845664</ele>
        <time>2020-07-01T05:31:28.979Z</time>
      </trkpt>
      <trkpt lat="48.467718" lon="16.616162">
        <ele>258.811129</ele>
        <time>2020-07-01T05:31:30.964Z</time>
      </trkpt>
      <trkpt lat="48.467674" lon="16.616317">
        <ele>258.776860</ele>
        <time>2020-07-01T05:31:32.966Z</time>
      </trkpt>
      <trkpt lat="48.467631" lon="16.616466">
        <ele>258.743832</ele>
        <time>2020-07-01T05:31:34.981Z</time>
      </trkpt>
      <trkpt lat="48.467589" lon="16.616621">
        <ele>258.709800</ele>
        <time>2020-07-01T05:31:36.962Z</time>
      </trkpt>
      <trkpt lat="48.467548" lon="16.616770">
        <ele>258.677011</ele>
        <time>2020-07-01T05:31:38.958Z</time>
      </trkpt>
      <trkpt lat="48.467507" lon="16.616922">
        <ele>258.643659</ele>
        <time>2020-07-01T05:31:40.969Z</time>
      </trkpt>
      <trkpt lat="48.467464" lon="16.617071">
        <ele>258.610631</ele>
        <time>2020-07-01T05:31:42.961Z</time>
      </trkpt>
      <trkpt lat="48.467406" lon="16.617222">
        <ele>258.575163</ele>
        <time>2020-07-01T05:31:44.974Z</time>
      </trkpt>
      <trkpt lat="48.467348" lon="16.617367">
        <ele>258.540744</ele>
        <time>2020-07-01T05:31:46.978Z</time>
      </trkpt>
      <trkpt lat="48.467299" lon="16.617521">
        <ele>258.506027</ele>
        <time>2020-07-01T05:31:48.999Z</time>
      </trkpt>
      <trkpt lat="48.467256" lon="16.617681">
        <ele>258.470937</ele>
        <time>2020-07-01T05:31:50.972Z</time>
      </trkpt>
      <trkpt lat="48.467216" lon="16.617839">
        <ele>258.436562</ele>
        <time>2020-07-01T05:31:52.983Z</time>
      </trkpt>
      <trkpt lat="48.467170" lon="16.617995">
        <ele>258.401862</ele>
        <time>2020-07-01T05:31:54.967Z</time>
      </trkpt>
      <trkpt lat="48.467120" lon="16.618150">
        <ele>258.377429</ele>
        <time>2020-07-01T05:31:56.975Z</time>
      </trkpt>
      <trkpt lat="48.467069" lon="16.618299">
        <ele>258.375174</ele>
        <time>2020-07-01T05:31:58.954Z</time>
      </trkpt>
      <trkpt lat="48.467021" lon="16.618450">
        <ele>258.372923</ele>
        <time>2020-07-01T05:32:00.988Z</time>
      </trkpt>
      <trkpt lat="48.466972" lon="16.618604">
        <ele>258.370626</ele>
        <time>2020-07-01T05:32:02.970Z</time>
      </trkpt>
      <trkpt lat="48.466914" lon="16.618756">
        <ele>258.368268</ele>
        <time>2020-07-01T05:32:04.974Z</time>
      </trkpt>
      <trkpt lat="48.466839" lon="16.618890">
        <ele>258.365910</ele>
        <time>2020-07-01T05:32:06.955Z</time>
      </trkpt>
      <trkpt lat="48.466751" lon="16.619005">
        <ele>258.363549</ele>
        <time>2020-07-01T05:32:08.972Z</time>
      </trkpt>
      <trkpt lat="48.466660" lon="16.619119">
        <ele>258.361150</ele>
        <time>2020-07-01T05:32:10.962Z</time>
      </trkpt>
      <trkpt lat="48.466566" lon="16.619229">
        <ele>258.358737</ele>
        <time>2020-07-01T05:32:12.985Z</time>
      </trkpt>
      <trkpt lat="48.466478" lon="16.619328">
        <ele>258.356511</ele>
        <time>2020-07-01T05:32:14.969Z</time>
      </trkpt>
      <trkpt lat="48.466385" lon="16.619433">
        <ele>258.354155</ele>
        <time>2020-07-01T05:32:16.977Z</time>
      </trkpt>
      <trkpt lat="48.466296" lon="16.619532">
        <ele>258.351912</ele>
        <time>2020-07-01T05:32:19.003Z</time>
      </trkpt>
      <trkpt lat="48.466209" lon="16.619637">
        <ele>258.349653</ele>
        <time>2020-07-01T05:32:21.178Z</time>
      </trkpt>
      <trkpt lat="48.466122" lon="16.619748">
        <ele>258.347342</ele>
        <time>2020-07-01T05:32:22.966Z</time>
      </trkpt>
      <trkpt lat="48.466036" lon="16.619860">
        <ele>258.345038</ele>
        <time>2020-07-01T05:32:24.972Z</time>
      </trkpt>
      <trkpt lat="48.465952" lon="16.619979">
        <ele>258.342700</ele>
        <time>2020-07-01T05:32:26.980Z</time>
      </trkpt>
      <trkpt lat="48.465869" lon="16.620098">
        <ele>258.346489</ele>
        <time>2020-07-01T05:32:28.968Z</time>
      </trkpt>
      <trkpt lat="48.465784" lon="16.620214">
        <ele>258.354867</ele>
        <time>2020-07-01T05:32:30.953Z</time>
      </trkpt>
      <trkpt lat="48.465697" lon="16.620323">
        <ele>258.363133</ele>
        <time>2020-07-01T05:32:32.967Z</time>
      </trkpt>
      <trkpt lat="48.465611" lon="16.620428">
        <ele>258.371219</ele>
        <time>2020-07-01T05:32:34.980Z</time>
      </trkpt>
      <trkpt lat="48.465523" lon="16.620535">
        <ele>258.379480</ele>
        <time>2020-07-01T05:32:36.994Z</time>
      </trkpt>
      <trkpt lat="48.465437" lon="16.620648">
        <ele>258.387816</ele>
        <time>2020-07-01T05:32:39.004Z</time>
      </trkpt>
      <trkpt lat="48.465352" lon="16.620762">
        <ele>258.396129</ele>
        <time>2020-07-01T05:32:40.988Z</time>
      </trkpt>
      <trkpt lat="48.465266" lon="16.620877">
        <ele>258.404528</ele>
        <time>2020-07-01T05:32:42.966Z</time>
      </trkpt>
      <trkpt lat="48.465180" lon="16.620988">
        <ele>258.412801</ele>
        <time>2020-07-01T05:32:44.971Z</time>
      </trkpt>
      <trkpt lat="48.465093" lon="16.621088">
        <ele>258.420795</ele>
        <time>2020-07-01T05:32:46.970Z</time>
      </trkpt>
      <trkpt lat="48.465008" lon="16.621193">
        <ele>258.428825</ele>
        <time>2020-07-01T05:32:48.976Z</time>
      </trkpt>
      <trkpt lat="48.464930" lon="16.621303">
        <ele>258.436629</ele>
        <time>2020-07-01T05:32:50.970Z</time>
      </trkpt>
      <trkpt lat="48.464869" lon="16.621439">
        <ele>258.444585</ele>
        <time>2020-07-01T05:32:52.970Z</time>
      </trkpt>
      <trkpt lat="48.464818" lon="16.621586">
        <ele>258.452625</ele>
        <time>2020-07-01T05:32:54.961Z</time>
      </trkpt>
      <trkpt lat="48.464774" lon="16.621729">
        <ele>258.460264</ele>
        <time>2020-07-01T05:32:56.968Z</time>
      </trkpt>
      <trkpt lat="48.464733" lon="16.621881">
        <ele>258.468216</ele>
        <time>2020-07-01T05:32:58.981Z</time>
      </trkpt>
      <trkpt lat="48.464689" lon="16.622016">
        <ele>258.471477</ele>
        <time>2020-07-01T05:33:00.972Z</time>
      </trkpt>
      <trkpt lat="48.464624" lon="16.622218">
        <ele>258.463736</ele>
        <time>2020-07-01T05:34:01.981Z</time>
      </trkpt>
      <trkpt lat="48.464574" lon="16.622371">
        <ele>258.457855</ele>
        <time>2020-07-01T05:34:04.977Z</time>
      </trkpt>
      <trkpt lat="48.464512" lon="16.622541">
        <ele>258.451166</ele>
        <time>2020-07-01T05:34:07.988Z</time>
      </trkpt>
      <trkpt lat="48.464472" lon="16.622664">
        <ele>258.446443</ele>
        <time>2020-07-01T05:34:09.986Z</time>
      </trkpt>
      <trkpt lat="48.464431" lon="16.622793">
        <ele>258.441511</ele>
        <time>2020-07-01T05:34:11.952Z</time>
      </trkpt>
      <trkpt lat="48.464389" lon="16.622925">
        <ele>258.436463</ele>
        <time>2020-07-01T05:34:13.955Z</time>
      </trkpt>
      <trkpt lat="48.464340" lon="16.623068">
        <ele>258.430913</ele>
        <time>2020-07-01T05:34:15.965Z</time>
      </trkpt>
      <trkpt lat="48.464289" lon="16.623210">
        <ele>258.425346</ele>
        <time>2020-07-01T05:34:17.997Z</time>
      </trkpt>
      <trkpt lat="48.464241" lon="16.623359">
        <ele>258.419634</ele>
        <time>2020-07-01T05:34:20.011Z</time>
      </trkpt>
      <trkpt lat="48.464192" lon="16.623511">
        <ele>258.413807</ele>
        <time>2020-07-01T05:34:21.970Z</time>
      </trkpt>
      <trkpt lat="48.464142" lon="16.623666">
        <ele>258.407865</ele>
        <time>2020-07-01T05:34:23.968Z</time>
      </trkpt>
      <trkpt lat="48.464088" lon="16.623820">
        <ele>258.401858</ele>
        <time>2020-07-01T05:34:25.984Z</time>
      </trkpt>
      <trkpt lat="48.464031" lon="16.623985">
        <ele>258.395444</ele>
        <time>2020-07-01T05:34:27.960Z</time>
      </trkpt>
      <trkpt lat="48.463974" lon="16.624150">
        <ele>258.389029</ele>
        <time>2020-07-01T05:34:29.984Z</time>
      </trkpt>
      <trkpt lat="48.463918" lon="16.624320">
        <ele>258.382485</ele>
        <time>2020-07-01T05:34:32.013Z</time>
      </trkpt>
      <trkpt lat="48.463869" lon="16.624490">
        <ele>258.335815</ele>
        <time>2020-07-01T05:34:33.957Z</time>
      </trkpt>
      <trkpt lat="48.463819" lon="16.624657">
        <ele>258.257562</ele>
        <time>2020-07-01T05:34:35.986Z</time>
      </trkpt>
      <trkpt lat="48.463771" lon="16.624830">
        <ele>258.177473</ele>
        <time>2020-07-01T05:34:37.990Z</time>
      </trkpt>
      <trkpt lat="48.463723" lon="16.625006">
        <ele>258.096201</ele>
        <time>2020-07-01T05:34:39.972Z</time>
      </trkpt>
      <trkpt lat="48.463673" lon="16.625189">
        <ele>258.011674</ele>
        <time>2020-07-01T05:34:42.014Z</time>
      </trkpt>
      <trkpt lat="48.463622" lon="16.625371">
        <ele>257.927293</ele>
        <time>2020-07-01T05:34:43.961Z</time>
      </trkpt>
      <trkpt lat="48.463570" lon="16.625552">
        <ele>257.843051</ele>
        <time>2020-07-01T05:34:45.982Z</time>
      </trkpt>
      <trkpt lat="48.463517" lon="16.625732">
        <ele>257.758941</ele>
        <time>2020-07-01T05:34:47.963Z</time>
      </trkpt>
      <trkpt lat="48.463453" lon="16.625907">
        <ele>257.673592</ele>
        <time>2020-07-01T05:34:49.989Z</time>
      </trkpt>
      <trkpt lat="48.463380" lon="16.626076">
        <ele>257.587455</ele>
        <time>2020-07-01T05:34:51.966Z</time>
      </trkpt>
      <trkpt lat="48.463299" lon="16.626241">
        <ele>257.499780</ele>
        <time>2020-07-01T05:34:53.977Z</time>
      </trkpt>
      <trkpt lat="48.463229" lon="16.626415">
        <ele>257.412863</ele>
        <time>2020-07-01T05:34:55.976Z</time>
      </trkpt>
      <trkpt lat="48.463183" lon="16.626613">
        <ele>257.323264</ele>
        <time>2020-07-01T05:34:57.961Z</time>
      </trkpt>
      <trkpt lat="48.463132" lon="16.626815">
        <ele>257.230955</ele>
        <time>2020-07-01T05:34:59.973Z</time>
      </trkpt>
      <trkpt lat="48.463073" lon="16.627014">
        <ele>256.970241</ele>
        <time>2020-07-01T05:35:01.972Z</time>
      </trkpt>
      <trkpt lat="48.463008" lon="16.627201">
        <ele>256.698764</ele>
        <time>2020-07-01T05:35:03.998Z</time>
      </trkpt>
      <trkpt lat="48.463015" lon="16.627390">
        <ele>256.455368</ele>
        <time>2020-07-01T05:35:05.965Z</time>
      </trkpt>
      <trkpt lat="48.463075" lon="16.627549">
        <ele>256.220139</ele>
        <time>2020-07-01T05:35:07.961Z</time>
      </trkpt>
      <trkpt lat="48.463150" lon="16.627675">
        <ele>256.002429</ele>
        <time>2020-07-01T05:35:09.980Z</time>
      </trkpt>
      <trkpt lat="48.463222" lon="16.627810">
        <ele>255.779667</ele>
        <time>2020-07-01T05:35:12.000Z</time>
      </trkpt>
      <trkpt lat="48.463283" lon="16.627941">
        <ele>255.573844</ele>
        <time>2020-07-01T05:35:13.977Z</time>
      </trkpt>
      <trkpt lat="48.463363" lon="16.628062">
        <ele>255.354141</ele>
        <time>2020-07-01T05:35:15.994Z</time>
      </trkpt>
      <trkpt lat="48.463443" lon="16.628183">
        <ele>255.134438</ele>
        <time>2020-07-01T05:35:17.972Z</time>
      </trkpt>
      <trkpt lat="48.463527" lon="16.628312">
        <ele>254.901967</ele>
        <time>2020-07-01T05:35:19.971Z</time>
      </trkpt>
      <trkpt lat="48.463618" lon="16.628453">
        <ele>254.648975</ele>
        <time>2020-07-01T05:35:21.954Z</time>
      </trkpt>
      <trkpt lat="48.463716" lon="16.628595">
        <ele>254.385447</ele>
        <time>2020-07-01T05:35:23.983Z</time>
      </trkpt>
      <trkpt lat="48.463814" lon="16.628735">
        <ele>254.123694</ele>
        <time>2020-07-01T05:35:25.994Z</time>
      </trkpt>
      <trkpt lat="48.463905" lon="16.628865">
        <ele>253.880638</ele>
        <time>2020-07-01T05:35:27.970Z</time>
      </trkpt>
      <trkpt lat="48.463986" lon="16.628988">
        <ele>253.684446</ele>
        <time>2020-07-01T05:35:29.998Z</time>
      </trkpt>
      <trkpt lat="48.464069" lon="16.629110">
        <ele>253.538895</ele>
        <time>2020-07-01T05:35:31.989Z</time>
      </trkpt>
      <trkpt lat="48.464159" lon="16.629234">
        <ele>253.385807</ele>
        <time>2020-07-01T05:35:33.982Z</time>
      </trkpt>
      <trkpt lat="48.464246" lon="16.629352">
        <ele>253.238865</ele>
        <time>2020-07-01T05:35:35.983Z</time>
      </trkpt>
      <trkpt lat="48.464333" lon="16.629475">
        <ele>253.089108</ele>
        <time>2020-07-01T05:35:37.973Z</time>
      </trkpt>
      <trkpt lat="48.464418" lon="16.629600">
        <ele>252.940015</ele>
        <time>2020-07-01T05:35:39.998Z</time>
      </trkpt>
      <trkpt lat="48.464489" lon="16.629705">
        <ele>252.815136</ele>
        <time>2020-07-01T05:35:41.968Z</time>
      </trkpt>
      <trkpt lat="48.464567" lon="16.629820">
        <ele>252.678150</ele>
        <time>2020-07-01T05:35:43.999Z</time>
      </trkpt>
      <trkpt lat="48.464640" lon="16.629931">
        <ele>252.547968</ele>
        <time>2020-07-01T05:35:45.989Z</time>
      </trkpt>
      <trkpt lat="48.464729" lon="16.630073">
        <ele>252.385261</ele>
        <time>2020-07-01T05:35:47.981Z</time>
      </trkpt>
      <trkpt lat="48.464792" lon="16.630208">
        <ele>252.247796</ele>
        <time>2020-07-01T05:35:49.996Z</time>
      </trkpt>
      <trkpt lat="48.464816" lon="16.630365">
        <ele>252.113633</ele>
        <time>2020-07-01T05:35:51.977Z</time>
      </trkpt>
      <trkpt lat="48.464873" lon="16.630534">
        <ele>251.955747</ele>
        <time>2020-07-01T05:35:53.981Z</time>
      </trkpt>
      <trkpt lat="48.464965" lon="16.630661">
        <ele>251.799120</ele>
        <time>2020-07-01T05:35:55.972Z</time>
      </trkpt>
      <trkpt lat="48.465065" lon="16.630785">
        <ele>251.636541</ele>
        <time>2020-07-01T05:35:57.984Z</time>
      </trkpt>
      <trkpt lat="48.465174" lon="16.630915">
        <ele>251.476056</ele>
        <time>2020-07-01T05:35:59.986Z</time>
      </trkpt>
      <trkpt lat="48.465277" lon="16.631049">
        <ele>251.493327</ele>
        <time>2020-07-01T05:36:01.984Z</time>
      </trkpt>
      <trkpt lat="48.465380" lon="16.631173">
        <ele>251.510059</ele>
        <time>2020-07-01T05:36:03.983Z</time>
      </trkpt>
      <trkpt lat="48.465482" lon="16.631306">
        <ele>251.527179</ele>
        <time>2020-07-01T05:36:05.960Z</time>
      </trkpt>
      <trkpt lat="48.465579" lon="16.631438">
        <ele>251.543767</ele>
        <time>2020-07-01T05:36:07.963Z</time>
      </trkpt>
      <trkpt lat="48.465665" lon="16.631581">
        <ele>251.560019</ele>
        <time>2020-07-01T05:36:09.972Z</time>
      </trkpt>
      <trkpt lat="48.465740" lon="16.631733">
        <ele>251.575969</ele>
        <time>2020-07-01T05:36:11.979Z</time>
      </trkpt>
      <trkpt lat="48.465811" lon="16.631881">
        <ele>251.591348</ele>
        <time>2020-07-01T05:36:13.977Z</time>
      </trkpt>
      <trkpt lat="48.465881" lon="16.632027">
        <ele>251.606515</ele>
        <time>2020-07-01T05:36:15.985Z</time>
      </trkpt>
      <trkpt lat="48.465957" lon="16.632172">
        <ele>251.622075</ele>
        <time>2020-07-01T05:36:17.981Z</time>
      </trkpt>
      <trkpt lat="48.466040" lon="16.632303">
        <ele>251.637329</ele>
        <time>2020-07-01T05:36:19.974Z</time>
      </trkpt>
      <trkpt lat="48.466128" lon="16.632413">
        <ele>251.651840</ele>
        <time>2020-07-01T05:36:21.974Z</time>
      </trkpt>
      <trkpt lat="48.466224" lon="16.632508">
        <ele>251.666418</ele>
        <time>2020-07-01T05:36:23.997Z</time>
      </trkpt>
      <trkpt lat="48.466324" lon="16.632594">
        <ele>251.681033</ele>
        <time>2020-07-01T05:36:25.999Z</time>
      </trkpt>
      <trkpt lat="48.466434" lon="16.632656">
        <ele>251.695943</ele>
        <time>2020-07-01T05:36:27.966Z</time>
      </trkpt>
      <trkpt lat="48.466537" lon="16.632697">
        <ele>251.685773</ele>
        <time>2020-07-01T05:36:29.962Z</time>
      </trkpt>
      <trkpt lat="48.466639" lon="16.632725">
        <ele>251.649737</ele>
        <time>2020-07-01T05:36:31.970Z</time>
      </trkpt>
      <trkpt lat="48.466742" lon="16.632744">
        <ele>251.613668</ele>
        <time>2020-07-01T05:36:33.986Z</time>
      </trkpt>
      <trkpt lat="48.466837" lon="16.632747">
        <ele>251.580640</ele>
        <time>2020-07-01T05:36:35.996Z</time>
      </trkpt>
      <trkpt lat="48.466966" lon="16.632742">
        <ele>251.535786</ele>
        <time>2020-07-01T05:36:38.984Z</time>
      </trkpt>
      <trkpt lat="48.467079" lon="16.632726">
        <ele>251.496336</ele>
        <time>2020-07-01T05:36:41.967Z</time>
      </trkpt>
      <trkpt lat="48.467190" lon="16.632705">
        <ele>251.457451</ele>
        <time>2020-07-01T05:36:44.971Z</time>
      </trkpt>
      <trkpt lat="48.467310" lon="16.632693">
        <ele>251.415649</ele>
        <time>2020-07-01T05:36:47.996Z</time>
      </trkpt>
      <trkpt lat="48.467429" lon="16.632666">
        <ele>251.373821</ele>
        <time>2020-07-01T05:36:50.991Z</time>
      </trkpt>
      <trkpt lat="48.467563" lon="16.632641">
        <ele>251.326889</ele>
        <time>2020-07-01T05:36:53.953Z</time>
      </trkpt>
      <trkpt lat="48.467656" lon="16.632632">
        <ele>251.294496</ele>
        <time>2020-07-01T05:36:56.028Z</time>
      </trkpt>
      <trkpt lat="48.467758" lon="16.632628">
        <ele>251.259030</ele>
        <time>2020-07-01T05:36:57.981Z</time>
      </trkpt>
      <trkpt lat="48.467863" lon="16.632618">
        <ele>251.222461</ele>
        <time>2020-07-01T05:36:59.990Z</time>
      </trkpt>
      <trkpt lat="48.467963" lon="16.632603">
        <ele>251.187530</ele>
        <time>2020-07-01T05:37:01.984Z</time>
      </trkpt>
      <trkpt lat="48.468073" lon="16.632587">
        <ele>251.149118</ele>
        <time>2020-07-01T05:37:03.983Z</time>
      </trkpt>
      <trkpt lat="48.468184" lon="16.632571">
        <ele>251.110360</ele>
        <time>2020-07-01T05:37:05.988Z</time>
      </trkpt>
      <trkpt lat="48.468297" lon="16.632555">
        <ele>251.075109</ele>
        <time>2020-07-01T05:37:07.956Z</time>
      </trkpt>
      <trkpt lat="48.468406" lon="16.632547">
        <ele>251.059834</ele>
        <time>2020-07-01T05:37:10.009Z</time>
      </trkpt>
      <trkpt lat="48.468514" lon="16.632536">
        <ele>251.044683</ele>
        <time>2020-07-01T05:37:11.976Z</time>
      </trkpt>
      <trkpt lat="48.468624" lon="16.632527">
        <ele>251.029264</ele>
        <time>2020-07-01T05:37:13.991Z</time>
      </trkpt>
      <trkpt lat="48.468729" lon="16.632513">
        <ele>251.014510</ele>
        <time>2020-07-01T05:37:15.983Z</time>
      </trkpt>
      <trkpt lat="48.468834" lon="16.632493">
        <ele>250.999696</ele>
        <time>2020-07-01T05:37:17.973Z</time>
      </trkpt>
      <trkpt lat="48.468937" lon="16.632474">
        <ele>250.985172</ele>
        <time>2020-07-01T05:37:19.998Z</time>
      </trkpt>
      <trkpt lat="48.469040" lon="16.632457">
        <ele>250.970669</ele>
        <time>2020-07-01T05:37:21.987Z</time>
      </trkpt>
      <trkpt lat="48.469147" lon="16.632438">
        <ele>250.955589</ele>
        <time>2020-07-01T05:37:23.983Z</time>
      </trkpt>
      <trkpt lat="48.469247" lon="16.632421">
        <ele>250.941504</ele>
        <time>2020-07-01T05:37:25.985Z</time>
      </trkpt>
      <trkpt lat="48.469350" lon="16.632404">
        <ele>250.927001</ele>
        <time>2020-07-01T05:37:27.973Z</time>
      </trkpt>
      <trkpt lat="48.469454" lon="16.632389">
        <ele>250.912377</ele>
        <time>2020-07-01T05:37:29.970Z</time>
      </trkpt>
      <trkpt lat="48.469562" lon="16.632375">
        <ele>250.897205</ele>
        <time>2020-07-01T05:37:31.982Z</time>
      </trkpt>
      <trkpt lat="48.469666" lon="16.632372">
        <ele>250.882646</ele>
        <time>2020-07-01T05:37:33.956Z</time>
      </trkpt>
      <trkpt lat="48.469770" lon="16.632366">
        <ele>250.868078</ele>
        <time>2020-07-01T05:37:35.982Z</time>
      </trkpt>
      <trkpt lat="48.469875" lon="16.632354">
        <ele>250.853339</ele>
        <time>2020-07-01T05:37:37.975Z</time>
      </trkpt>
      <trkpt lat="48.469984" lon="16.632341">
        <ele>250.838035</ele>
        <time>2020-07-01T05:37:39.973Z</time>
      </trkpt>
      <trkpt lat="48.470089" lon="16.632321">
        <ele>250.822680</ele>
        <time>2020-07-01T05:37:41.985Z</time>
      </trkpt>
      <trkpt lat="48.470200" lon="16.632303">
        <ele>250.804200</ele>
        <time>2020-07-01T05:37:43.962Z</time>
      </trkpt>
      <trkpt lat="48.470309" lon="16.632284">
        <ele>250.786037</ele>
        <time>2020-07-01T05:37:45.965Z</time>
      </trkpt>
      <trkpt lat="48.470417" lon="16.632271">
        <ele>250.768103</ele>
        <time>2020-07-01T05:37:47.965Z</time>
      </trkpt>
      <trkpt lat="48.470530" lon="16.632257">
        <ele>250.749335</ele>
        <time>2020-07-01T05:37:49.986Z</time>
      </trkpt>
      <trkpt lat="48.470646" lon="16.632250">
        <ele>250.730118</ele>
        <time>2020-07-01T05:37:51.976Z</time>
      </trkpt>
      <trkpt lat="48.470763" lon="16.632240">
        <ele>250.710720</ele>
        <time>2020-07-01T05:37:54.007Z</time>
      </trkpt>
      <trkpt lat="48.470875" lon="16.632221">
        <ele>250.692064</ele>
        <time>2020-07-01T05:37:55.965Z</time>
      </trkpt>
      <trkpt lat="48.470987" lon="16.632198">
        <ele>250.673354</ele>
        <time>2020-07-01T05:37:57.974Z</time>
      </trkpt>
      <trkpt lat="48.471086" lon="16.632177">
        <ele>250.656805</ele>
        <time>2020-07-01T05:38:00.001Z</time>
      </trkpt>
      <trkpt lat="48.471190" lon="16.632158">
        <ele>250.639464</ele>
        <time>2020-07-01T05:38:01.980Z</time>
      </trkpt>
      <trkpt lat="48.471294" lon="16.632148">
        <ele>250.622214</ele>
        <time>2020-07-01T05:38:03.998Z</time>
      </trkpt>
      <trkpt lat="48.471403" lon="16.632148">
        <ele>250.604171</ele>
        <time>2020-07-01T05:38:05.988Z</time>
      </trkpt>
      <trkpt lat="48.471515" lon="16.632163">
        <ele>250.585558</ele>
        <time>2020-07-01T05:38:07.990Z</time>
      </trkpt>
      <trkpt lat="48.471631" lon="16.632191">
        <ele>250.566113</ele>
        <time>2020-07-01T05:38:09.983Z</time>
      </trkpt>
      <trkpt lat="48.471746" lon="16.632216">
        <ele>250.546880</ele>
        <time>2020-07-01T05:38:11.991Z</time>
      </trkpt>
      <trkpt lat="48.471857" lon="16.632244">
        <ele>250.527543</ele>
        <time>2020-07-01T05:38:13.991Z</time>
      </trkpt>
      <trkpt lat="48.471963" lon="16.632274">
        <ele>250.447796</ele>
        <time>2020-07-01T05:38:15.958Z</time>
      </trkpt>
      <trkpt lat="48.472072" lon="16.632310">
        <ele>250.365289</ele>
        <time>2020-07-01T05:38:17.960Z</time>
      </trkpt>
      <trkpt lat="48.472181" lon="16.632351">
        <ele>250.282223</ele>
        <time>2020-07-01T05:38:19.989Z</time>
      </trkpt>
      <trkpt lat="48.472290" lon="16.632404">
        <ele>250.197541</ele>
        <time>2020-07-01T05:38:21.968Z</time>
      </trkpt>
      <trkpt lat="48.472390" lon="16.632492">
        <ele>250.111934</ele>
        <time>2020-07-01T05:38:23.986Z</time>
      </trkpt>
      <trkpt lat="48.472475" lon="16.632599">
        <ele>250.030070</ele>
        <time>2020-07-01T05:38:25.985Z</time>
      </trkpt>
      <trkpt lat="48.472550" lon="16.632707">
        <ele>249.953398</ele>
        <time>2020-07-01T05:38:27.986Z</time>
      </trkpt>
      <trkpt lat="48.472624" lon="16.632816">
        <ele>249.876917</ele>
        <time>2020-07-01T05:38:29.971Z</time>
      </trkpt>
      <trkpt lat="48.472697" lon="16.632931">
        <ele>249.798867</ele>
        <time>2020-07-01T05:38:31.977Z</time>
      </trkpt>
      <trkpt lat="48.472737" lon="16.633065">
        <ele>249.726826</ele>
        <time>2020-07-01T05:38:33.964Z</time>
      </trkpt>
      <trkpt lat="48.472721" lon="16.633215">
        <ele>249.652347</ele>
        <time>2020-07-01T05:38:35.964Z</time>
      </trkpt>
      <trkpt lat="48.472710" lon="16.633359">
        <ele>249.581287</ele>
        <time>2020-07-01T05:38:37.966Z</time>
      </trkpt>
      <trkpt lat="48.472699" lon="16.633501">
        <ele>249.511202</ele>
        <time>2020-07-01T05:38:39.992Z</time>
      </trkpt>
      <trkpt lat="48.472654" lon="16.633721">
        <ele>249.398337</ele>
        <time>2020-07-01T05:40:19.952Z</time>
      </trkpt>
      <trkpt lat="48.472649" lon="16.633870">
        <ele>249.325200</ele>
        <time>2020-07-01T05:40:22.974Z</time>
      </trkpt>
      <trkpt lat="48.472626" lon="16.634047">
        <ele>249.236779</ele>
        <time>2020-07-01T05:40:25.974Z</time>
      </trkpt>
      <trkpt lat="48.472597" lon="16.634217">
        <ele>249.110741</ele>
        <time>2020-07-01T05:40:28.970Z</time>
      </trkpt>
      <trkpt lat="48.472652" lon="16.634333">
        <ele>248.982302</ele>
        <time>2020-07-01T05:40:31.967Z</time>
      </trkpt>
      <trkpt lat="48.472760" lon="16.634422">
        <ele>248.815121</ele>
        <time>2020-07-01T05:40:35.978Z</time>
      </trkpt>
      <trkpt lat="48.472877" lon="16.634487">
        <ele>248.645744</ele>
        <time>2020-07-01T05:40:38.972Z</time>
      </trkpt>
      <trkpt lat="48.472967" lon="16.634529">
        <ele>248.517765</ele>
        <time>2020-07-01T05:40:40.998Z</time>
      </trkpt>
      <trkpt lat="48.473021" lon="16.634676">
        <ele>248.366410</ele>
        <time>2020-07-01T05:40:43.968Z</time>
      </trkpt>
      <trkpt lat="48.472988" lon="16.634859">
        <ele>248.195609</ele>
        <time>2020-07-01T05:40:46.969Z</time>
      </trkpt>
      <trkpt lat="48.472927" lon="16.635035">
        <ele>248.016747</ele>
        <time>2020-07-01T05:40:49.962Z</time>
      </trkpt>
      <trkpt lat="48.472876" lon="16.635153">
        <ele>247.889886</ele>
        <time>2020-07-01T05:40:51.980Z</time>
      </trkpt>
      <trkpt lat="48.472826" lon="16.635268">
        <ele>247.766029</ele>
        <time>2020-07-01T05:40:53.999Z</time>
      </trkpt>
      <trkpt lat="48.472774" lon="16.635392">
        <ele>247.633886</ele>
        <time>2020-07-01T05:40:55.981Z</time>
      </trkpt>
      <trkpt lat="48.472725" lon="16.635512">
        <ele>247.506958</ele>
        <time>2020-07-01T05:40:57.986Z</time>
      </trkpt>
      <trkpt lat="48.472675" lon="16.635636">
        <ele>247.376247</ele>
        <time>2020-07-01T05:40:59.985Z</time>
      </trkpt>
      <trkpt lat="48.472623" lon="16.635769">
        <ele>247.237187</ele>
        <time>2020-07-01T05:41:01.989Z</time>
      </trkpt>
      <trkpt lat="48.472564" lon="16.635892">
        <ele>247.100456</ele>
        <time>2020-07-01T05:41:03.979Z</time>
      </trkpt>
      <trkpt lat="48.472511" lon="16.636030">
        <ele>246.956822</ele>
        <time>2020-07-01T05:41:05.999Z</time>
      </trkpt>
      <trkpt lat="48.472461" lon="16.636159">
        <ele>246.822243</ele>
        <time>2020-07-01T05:41:07.997Z</time>
      </trkpt>
      <trkpt lat="48.472402" lon="16.636289">
        <ele>246.743383</ele>
        <time>2020-07-01T05:41:09.995Z</time>
      </trkpt>
      <trkpt lat="48.472342" lon="16.636426">
        <ele>246.720169</ele>
        <time>2020-07-01T05:41:11.996Z</time>
      </trkpt>
      <trkpt lat="48.472287" lon="16.636564">
        <ele>246.697404</ele>
        <time>2020-07-01T05:41:13.996Z</time>
      </trkpt>
      <trkpt lat="48.472234" lon="16.636704">
        <ele>246.674610</ele>
        <time>2020-07-01T05:41:15.976Z</time>
      </trkpt>
      <trkpt lat="48.472182" lon="16.636839">
        <ele>246.652535</ele>
        <time>2020-07-01T05:41:17.973Z</time>
      </trkpt>
      <trkpt lat="48.472127" lon="16.636971">
        <ele>246.630493</ele>
        <time>2020-07-01T05:41:19.991Z</time>
      </trkpt>
      <trkpt lat="48.472071" lon="16.637100">
        <ele>246.608692</ele>
        <time>2020-07-01T05:41:21.995Z</time>
      </trkpt>
      <trkpt lat="48.472011" lon="16.637225">
        <ele>246.586873</ele>
        <time>2020-07-01T05:41:23.985Z</time>
      </trkpt>
      <trkpt lat="48.471948" lon="16.637338">
        <ele>246.565998</ele>
        <time>2020-07-01T05:41:25.978Z</time>
      </trkpt>
      <trkpt lat="48.471882" lon="16.637451">
        <ele>246.544706</ele>
        <time>2020-07-01T05:41:27.964Z</time>
      </trkpt>
      <trkpt lat="48.471825" lon="16.637564">
        <ele>246.524631</ele>
        <time>2020-07-01T05:41:29.955Z</time>
      </trkpt>
      <trkpt lat="48.471731" lon="16.637713">
        <ele>246.495551</ele>
        <time>2020-07-01T05:41:32.972Z</time>
      </trkpt>
      <trkpt lat="48.471664" lon="16.637819">
        <ele>246.474844</ele>
        <time>2020-07-01T05:41:34.978Z</time>
      </trkpt>
      <trkpt lat="48.471597" lon="16.637930">
        <ele>246.453621</ele>
        <time>2020-07-01T05:41:36.952Z</time>
      </trkpt>
      <trkpt lat="48.471531" lon="16.638045">
        <ele>246.432115</ele>
        <time>2020-07-01T05:41:38.974Z</time>
      </trkpt>
      <trkpt lat="48.471462" lon="16.638154">
        <ele>246.410807</ele>
        <time>2020-07-01T05:41:40.960Z</time>
      </trkpt>
      <trkpt lat="48.471390" lon="16.638264">
        <ele>246.388952</ele>
        <time>2020-07-01T05:41:42.976Z</time>
      </trkpt>
      <trkpt lat="48.471312" lon="16.638381">
        <ele>246.368589</ele>
        <time>2020-07-01T05:41:44.974Z</time>
      </trkpt>
      <trkpt lat="48.471240" lon="16.638488">
        <ele>246.358056</ele>
        <time>2020-07-01T05:41:46.976Z</time>
      </trkpt>
      <trkpt lat="48.471162" lon="16.638595">
        <ele>246.347069</ele>
        <time>2020-07-01T05:41:48.976Z</time>
      </trkpt>
      <trkpt lat="48.471090" lon="16.638699">
        <ele>246.336681</ele>
        <time>2020-07-01T05:41:50.968Z</time>
      </trkpt>
      <trkpt lat="48.471021" lon="16.638814">
        <ele>246.325965</ele>
        <time>2020-07-01T05:41:52.979Z</time>
      </trkpt>
      <trkpt lat="48.470958" lon="16.638931">
        <ele>246.315552</ele>
        <time>2020-07-01T05:41:54.992Z</time>
      </trkpt>
      <trkpt lat="48.470897" lon="16.639051">
        <ele>246.305104</ele>
        <time>2020-07-01T05:41:56.971Z</time>
      </trkpt>
      <trkpt lat="48.470836" lon="16.639171">
        <ele>246.294657</ele>
        <time>2020-07-01T05:41:58.975Z</time>
      </trkpt>
      <trkpt lat="48.470785" lon="16.639293">
        <ele>246.284693</ele>
        <time>2020-07-01T05:42:00.979Z</time>
      </trkpt>
      <trkpt lat="48.470712" lon="16.639467">
        <ele>246.270467</ele>
        <time>2020-07-01T05:42:04.010Z</time>
      </trkpt>
      <trkpt lat="48.470653" lon="16.639579">
        <ele>246.260583</ele>
        <time>2020-07-01T05:42:05.985Z</time>
      </trkpt>
      <trkpt lat="48.470595" lon="16.639692">
        <ele>246.250710</ele>
        <time>2020-07-01T05:42:07.976Z</time>
      </trkpt>
      <trkpt lat="48.470513" lon="16.639851">
        <ele>246.236793</ele>
        <time>2020-07-01T05:42:10.974Z</time>
      </trkpt>
      <trkpt lat="48.470437" lon="16.640019">
        <ele>246.222741</ele>
        <time>2020-07-01T05:42:13.996Z</time>
      </trkpt>
      <trkpt lat="48.470371" lon="16.640186">
        <ele>246.209309</ele>
        <time>2020-07-01T05:42:16.999Z</time>
      </trkpt>
      <trkpt lat="48.470315" lon="16.640301">
        <ele>246.199451</ele>
        <time>2020-07-01T05:42:18.979Z</time>
      </trkpt>
      <trkpt lat="48.470231" lon="16.640456">
        <ele>246.185619</ele>
        <time>2020-07-01T05:42:21.994Z</time>
      </trkpt>
      <trkpt lat="48.470170" lon="16.640565">
        <ele>246.174689</ele>
        <time>2020-07-01T05:42:23.965Z</time>
      </trkpt>
      <trkpt lat="48.470101" lon="16.640665">
        <ele>246.163434</ele>
        <time>2020-07-01T05:42:26.015Z</time>
      </trkpt>
      <trkpt lat="48.470056" lon="16.640840">
        <ele>246.148796</ele>
        <time>2020-07-01T05:42:28.980Z</time>
      </trkpt>
      <trkpt lat="48.470110" lon="16.641009">
        <ele>246.134166</ele>
        <time>2020-07-01T05:42:31.963Z</time>
      </trkpt>
      <trkpt lat="48.470172" lon="16.641180">
        <ele>246.118966</ele>
        <time>2020-07-01T05:42:34.988Z</time>
      </trkpt>
      <trkpt lat="48.470225" lon="16.641293">
        <ele>246.108172</ele>
        <time>2020-07-01T05:42:36.977Z</time>
      </trkpt>
      <trkpt lat="48.470290" lon="16.641450">
        <ele>246.093737</ele>
        <time>2020-07-01T05:42:39.987Z</time>
      </trkpt>
      <trkpt lat="48.470345" lon="16.641615">
        <ele>246.079335</ele>
        <time>2020-07-01T05:42:43.010Z</time>
      </trkpt>
      <trkpt lat="48.470354" lon="16.641778">
        <ele>246.066579</ele>
        <time>2020-07-01T05:42:45.963Z</time>
      </trkpt>
      <trkpt lat="48.470331" lon="16.641949">
        <ele>246.052972</ele>
        <time>2020-07-01T05:42:48.971Z</time>
      </trkpt>
      <trkpt lat="48.470268" lon="16.642114">
        <ele>246.038124</ele>
        <time>2020-07-01T05:42:51.963Z</time>
      </trkpt>
      <trkpt lat="48.470190" lon="16.642280">
        <ele>246.022257</ele>
        <time>2020-07-01T05:42:54.986Z</time>
      </trkpt>
      <trkpt lat="48.470132" lon="16.642389">
        <ele>246.011357</ele>
        <time>2020-07-01T05:42:56.985Z</time>
      </trkpt>
      <trkpt lat="48.470077" lon="16.642501">
        <ele>246.000488</ele>
        <time>2020-07-01T05:42:58.961Z</time>
      </trkpt>
      <trkpt lat="48.470026" lon="16.642615">
        <ele>245.989763</ele>
        <time>2020-07-01T05:43:00.970Z</time>
      </trkpt>
      <trkpt lat="48.469945" lon="16.642777">
        <ele>245.973940</ele>
        <time>2020-07-01T05:43:03.972Z</time>
      </trkpt>
      <trkpt lat="48.469884" lon="16.642887">
        <ele>245.964272</ele>
        <time>2020-07-01T05:43:05.991Z</time>
      </trkpt>
      <trkpt lat="48.469826" lon="16.642998">
        <ele>245.954956</ele>
        <time>2020-07-01T05:43:08.004Z</time>
      </trkpt>
      <trkpt lat="48.469764" lon="16.643097">
        <ele>245.945979</ele>
        <time>2020-07-01T05:43:09.976Z</time>
      </trkpt>
      <trkpt lat="48.469685" lon="16.643254">
        <ele>245.932986</ele>
        <time>2020-07-01T05:43:12.970Z</time>
      </trkpt>
      <trkpt lat="48.469628" lon="16.643361">
        <ele>245.923938</ele>
        <time>2020-07-01T05:43:14.994Z</time>
      </trkpt>
      <trkpt lat="48.469557" lon="16.643524">
        <ele>245.911081</ele>
        <time>2020-07-01T05:43:17.977Z</time>
      </trkpt>
      <trkpt lat="48.469480" lon="16.643686">
        <ele>245.897942</ele>
        <time>2020-07-01T05:43:20.986Z</time>
      </trkpt>
      <trkpt lat="48.469408" lon="16.643848">
        <ele>245.885085</ele>
        <time>2020-07-01T05:43:23.964Z</time>
      </trkpt>
      <trkpt lat="48.469347" lon="16.643948">
        <ele>245.876128</ele>
        <time>2020-07-01T05:43:25.972Z</time>
      </trkpt>
      <trkpt lat="48.469287" lon="16.644055">
        <ele>245.866890</ele>
        <time>2020-07-01T05:43:27.988Z</time>
      </trkpt>
      <trkpt lat="48.469212" lon="16.644212">
        <ele>245.854133</ele>
        <time>2020-07-01T05:43:30.970Z</time>
      </trkpt>
      <trkpt lat="48.469161" lon="16.644324">
        <ele>245.845177</ele>
        <time>2020-07-01T05:43:32.962Z</time>
      </trkpt>
      <trkpt lat="48.469087" lon="16.644492">
        <ele>245.831881</ele>
        <time>2020-07-01T05:43:35.989Z</time>
      </trkpt>
      <trkpt lat="48.469005" lon="16.644645">
        <ele>245.818912</ele>
        <time>2020-07-01T05:43:38.983Z</time>
      </trkpt>
      <trkpt lat="48.468927" lon="16.644798">
        <ele>245.806189</ele>
        <time>2020-07-01T05:43:41.983Z</time>
      </trkpt>
      <trkpt lat="48.468845" lon="16.644956">
        <ele>245.794796</ele>
        <time>2020-07-01T05:43:44.987Z</time>
      </trkpt>
      <trkpt lat="48.468788" lon="16.645064">
        <ele>245.807572</ele>
        <time>2020-07-01T05:43:46.989Z</time>
      </trkpt>
      <trkpt lat="48.468675" lon="16.645271">
        <ele>245.832389</ele>
        <time>2020-07-01T05:43:50.960Z</time>
      </trkpt>
      <trkpt lat="48.468604" lon="16.645438">
        <ele>245.850751</ele>
        <time>2020-07-01T05:43:53.993Z</time>
      </trkpt>
      <trkpt lat="48.468550" lon="16.645546">
        <ele>245.863270</ele>
        <time>2020-07-01T05:43:55.993Z</time>
      </trkpt>
      <trkpt lat="48.468476" lon="16.645695">
        <ele>245.880501</ele>
        <time>2020-07-01T05:43:58.988Z</time>
      </trkpt>
      <trkpt lat="48.468411" lon="16.645838">
        <ele>245.896548</ele>
        <time>2020-07-01T05:44:01.978Z</time>
      </trkpt>
      <trkpt lat="48.468346" lon="16.645979">
        <ele>245.912443</ele>
        <time>2020-07-01T05:44:04.959Z</time>
      </trkpt>
      <trkpt lat="48.468277" lon="16.646111">
        <ele>245.928000</ele>
        <time>2020-07-01T05:44:07.988Z</time>
      </trkpt>
      <trkpt lat="48.468210" lon="16.646237">
        <ele>245.942949</ele>
        <time>2020-07-01T05:44:10.966Z</time>
      </trkpt>
      <trkpt lat="48.468138" lon="16.646362">
        <ele>245.958275</ele>
        <time>2020-07-01T05:44:13.957Z</time>
      </trkpt>
      <trkpt lat="48.468063" lon="16.646492">
        <ele>245.974224</ele>
        <time>2020-07-01T05:44:16.983Z</time>
      </trkpt>
      <trkpt lat="48.468074" lon="16.646670">
        <ele>245.990771</ele>
        <time>2020-07-01T05:44:19.961Z</time>
      </trkpt>
      <trkpt lat="48.468144" lon="16.646762">
        <ele>246.003732</ele>
        <time>2020-07-01T05:44:21.977Z</time>
      </trkpt>
      <trkpt lat="48.468264" lon="16.646854">
        <ele>246.022523</ele>
        <time>2020-07-01T05:44:24.985Z</time>
      </trkpt>
      <trkpt lat="48.468346" lon="16.646917">
        <ele>246.035369</ele>
        <time>2020-07-01T05:44:26.979Z</time>
      </trkpt>
      <trkpt lat="48.468427" lon="16.646988">
        <ele>246.053811</ele>
        <time>2020-07-01T05:44:28.997Z</time>
      </trkpt>
      <trkpt lat="48.468511" lon="16.647057">
        <ele>246.086825</ele>
        <time>2020-07-01T05:44:30.993Z</time>
      </trkpt>
      <trkpt lat="48.468588" lon="16.647138">
        <ele>246.119227</ele>
        <time>2020-07-01T05:44:32.970Z</time>
      </trkpt>
      <trkpt lat="48.468669" lon="16.647215">
        <ele>246.152274</ele>
        <time>2020-07-01T05:44:34.960Z</time>
      </trkpt>
      <trkpt lat="48.468754" lon="16.647301">
        <ele>246.187602</ele>
        <time>2020-07-01T05:44:37.003Z</time>
      </trkpt>
      <trkpt lat="48.468792" lon="16.647454">
        <ele>246.224990</ele>
        <time>2020-07-01T05:44:38.972Z</time>
      </trkpt>
      <trkpt lat="48.468745" lon="16.647579">
        <ele>246.257875</ele>
        <time>2020-07-01T05:44:40.975Z</time>
      </trkpt>
      <trkpt lat="48.468679" lon="16.647677">
        <ele>246.289842</ele>
        <time>2020-07-01T05:44:42.969Z</time>
      </trkpt>
      <trkpt lat="48.468617" lon="16.647782">
        <ele>246.322018</ele>
        <time>2020-07-01T05:44:44.985Z</time>
      </trkpt>
      <trkpt lat="48.468552" lon="16.647883">
        <ele>246.354229</ele>
        <time>2020-07-01T05:44:46.978Z</time>
      </trkpt>
      <trkpt lat="48.468483" lon="16.647983">
        <ele>246.387257</ele>
        <time>2020-07-01T05:44:48.974Z</time>
      </trkpt>
      <trkpt lat="48.468427" lon="16.648092">
        <ele>246.418814</ele>
        <time>2020-07-01T05:44:50.983Z</time>
      </trkpt>
      <trkpt lat="48.468343" lon="16.648249">
        <ele>246.464981</ele>
        <time>2020-07-01T05:44:53.989Z</time>
      </trkpt>
      <trkpt lat="48.468289" lon="16.648358">
        <ele>246.496119</ele>
        <time>2020-07-01T05:44:55.966Z</time>
      </trkpt>
      <trkpt lat="48.468208" lon="16.648517">
        <ele>246.542006</ele>
        <time>2020-07-01T05:44:58.970Z</time>
      </trkpt>
      <trkpt lat="48.468143" lon="16.648619">
        <ele>246.574381</ele>
        <time>2020-07-01T05:45:00.998Z</time>
      </trkpt>
      <trkpt lat="48.468044" lon="16.648748">
        <ele>246.619537</ele>
        <time>2020-07-01T05:45:03.982Z</time>
      </trkpt>
      <trkpt lat="48.467973" lon="16.648834">
        <ele>246.650968</ele>
        <time>2020-07-01T05:45:05.968Z</time>
      </trkpt>
      <trkpt lat="48.467897" lon="16.648916">
        <ele>246.675974</ele>
        <time>2020-07-01T05:45:07.974Z</time>
      </trkpt>
      <trkpt lat="48.467822" lon="16.648993">
        <ele>246.694407</ele>
        <time>2020-07-01T05:45:09.970Z</time>
      </trkpt>
      <trkpt lat="48.467738" lon="16.649073">
        <ele>246.714591</ele>
        <time>2020-07-01T05:45:11.963Z</time>
      </trkpt>
      <trkpt lat="48.467660" lon="16.649163">
        <ele>246.734544</ele>
        <time>2020-07-01T05:45:13.965Z</time>
      </trkpt>
      <trkpt lat="48.467557" lon="16.649286">
        <ele>246.761236</ele>
        <time>2020-07-01T05:45:16.996Z</time>
      </trkpt>
      <trkpt lat="48.467455" lon="16.649403">
        <ele>246.787272</ele>
        <time>2020-07-01T05:45:19.975Z</time>
      </trkpt>
      <trkpt lat="48.467362" lon="16.649529">
        <ele>246.812671</ele>
        <time>2020-07-01T05:45:22.971Z</time>
      </trkpt>
      <trkpt lat="48.467271" lon="16.649650">
        <ele>246.837318</ele>
        <time>2020-07-01T05:45:25.978Z</time>
      </trkpt>
      <trkpt lat="48.467184" lon="16.649776">
        <ele>246.861824</ele>
        <time>2020-07-01T05:45:28.983Z</time>
      </trkpt>
      <trkpt lat="48.467104" lon="16.649878">
        <ele>246.883107</ele>
        <time>2020-07-01T05:45:31.989Z</time>
      </trkpt>
      <trkpt lat="48.467019" lon="16.649980">
        <ele>246.905176</ele>
        <time>2020-07-01T05:45:34.978Z</time>
      </trkpt>
      <trkpt lat="48.466942" lon="16.650085">
        <ele>246.926267</ele>
        <time>2020-07-01T05:45:37.987Z</time>
      </trkpt>
      <trkpt lat="48.466865" lon="16.650195">
        <ele>246.947815</ele>
        <time>2020-07-01T05:45:40.985Z</time>
      </trkpt>
      <trkpt lat="48.466786" lon="16.650292">
        <ele>246.968512</ele>
        <time>2020-07-01T05:45:43.979Z</time>
      </trkpt>
      <trkpt lat="48.466707" lon="16.650394">
        <ele>246.989640</ele>
        <time>2020-07-01T05:45:47.005Z</time>
      </trkpt>
      <trkpt lat="48.466631" lon="16.650494">
        <ele>247.010132</ele>
        <time>2020-07-01T05:45:49.977Z</time>
      </trkpt>
      <trkpt lat="48.466552" lon="16.650595">
        <ele>247.031317</ele>
        <time>2020-07-01T05:45:52.976Z</time>
      </trkpt>
      <trkpt lat="48.466474" lon="16.650705">
        <ele>247.075270</ele>
        <time>2020-07-01T05:45:55.977Z</time>
      </trkpt>
      <trkpt lat="48.466398" lon="16.650805">
        <ele>247.116783</ele>
        <time>2020-07-01T05:45:59.007Z</time>
      </trkpt>
      <trkpt lat="48.466323" lon="16.650906">
        <ele>247.158168</ele>
        <time>2020-07-01T05:46:01.960Z</time>
      </trkpt>
      <trkpt lat="48.466239" lon="16.651009">
        <ele>247.202727</ele>
        <time>2020-07-01T05:46:04.980Z</time>
      </trkpt>
      <trkpt lat="48.466167" lon="16.651101">
        <ele>247.241568</ele>
        <time>2020-07-01T05:46:07.977Z</time>
      </trkpt>
      <trkpt lat="48.466099" lon="16.651207">
        <ele>247.281820</ele>
        <time>2020-07-01T05:46:11.011Z</time>
      </trkpt>
      <trkpt lat="48.466030" lon="16.651324">
        <ele>247.324553</ele>
        <time>2020-07-01T05:46:13.967Z</time>
      </trkpt>
      <trkpt lat="48.465957" lon="16.651424">
        <ele>247.365144</ele>
        <time>2020-07-01T05:46:16.987Z</time>
      </trkpt>
      <trkpt lat="48.465869" lon="16.651543">
        <ele>247.413792</ele>
        <time>2020-07-01T05:46:20.981Z</time>
      </trkpt>
      <trkpt lat="48.465791" lon="16.651663">
        <ele>247.459653</ele>
        <time>2020-07-01T05:46:24.967Z</time>
      </trkpt>
      <trkpt lat="48.465719" lon="16.651763">
        <ele>247.499940</ele>
        <time>2020-07-01T05:46:27.986Z</time>
      </trkpt>
      <trkpt lat="48.465629" lon="16.651871">
        <ele>247.547279</ele>
        <time>2020-07-01T05:46:31.972Z</time>
      </trkpt>
      <trkpt lat="48.465544" lon="16.651992">
        <ele>247.595388</ele>
        <time>2020-07-01T05:46:35.987Z</time>
      </trkpt>
      <trkpt lat="48.465467" lon="16.652117">
        <ele>247.641952</ele>
        <time>2020-07-01T05:46:39.992Z</time>
      </trkpt>
      <trkpt lat="48.465377" lon="16.652228">
        <ele>247.689805</ele>
        <time>2020-07-01T05:46:43.973Z</time>
      </trkpt>
      <trkpt lat="48.465305" lon="16.652323">
        <ele>247.729181</ele>
        <time>2020-07-01T05:46:46.963Z</time>
      </trkpt>
      <trkpt lat="48.465216" lon="16.652430">
        <ele>247.780965</ele>
        <time>2020-07-01T05:46:50.977Z</time>
      </trkpt>
      <trkpt lat="48.465132" lon="16.652546">
        <ele>247.877244</ele>
        <time>2020-07-01T05:46:54.968Z</time>
      </trkpt>
      <trkpt lat="48.465049" lon="16.652648">
        <ele>247.967750</ele>
        <time>2020-07-01T05:46:58.977Z</time>
      </trkpt>
      <trkpt lat="48.464962" lon="16.652747">
        <ele>248.059880</ele>
        <time>2020-07-01T05:47:02.985Z</time>
      </trkpt>
      <trkpt lat="48.464881" lon="16.652883">
        <ele>248.162347</ele>
        <time>2020-07-01T05:47:06.979Z</time>
      </trkpt>
      <trkpt lat="48.464814" lon="16.653022">
        <ele>248.258670</ele>
        <time>2020-07-01T05:47:10.964Z</time>
      </trkpt>
      <trkpt lat="48.464741" lon="16.653156">
        <ele>248.355878</ele>
        <time>2020-07-01T05:47:14.977Z</time>
      </trkpt>
      <trkpt lat="48.464681" lon="16.653258">
        <ele>248.432306</ele>
        <time>2020-07-01T05:47:17.974Z</time>
      </trkpt>
      <trkpt lat="48.464623" lon="16.653366">
        <ele>248.510206</ele>
        <time>2020-07-01T05:47:20.992Z</time>
      </trkpt>
      <trkpt lat="48.464561" lon="16.653467">
        <ele>248.587354</ele>
        <time>2020-07-01T05:47:23.996Z</time>
      </trkpt>
      <trkpt lat="48.464484" lon="16.653618">
        <ele>248.694128</ele>
        <time>2020-07-01T05:47:27.985Z</time>
      </trkpt>
      <trkpt lat="48.464419" lon="16.653735">
        <ele>248.779684</ele>
        <time>2020-07-01T05:47:30.969Z</time>
      </trkpt>
      <trkpt lat="48.464358" lon="16.653864">
        <ele>248.868495</ele>
        <time>2020-07-01T05:47:35.994Z</time>
      </trkpt>
      <trkpt lat="48.464336" lon="16.654011">
        <ele>248.952965</ele>
        <time>2020-07-01T05:47:38.983Z</time>
      </trkpt>
      <trkpt lat="48.464312" lon="16.654180">
        <ele>249.049842</ele>
        <time>2020-07-01T05:47:42.986Z</time>
      </trkpt>
      <trkpt lat="48.464282" lon="16.654314">
        <ele>249.129118</ele>
        <time>2020-07-01T05:47:46.986Z</time>
      </trkpt>
      <trkpt lat="48.464258" lon="16.654468">
        <ele>249.217791</ele>
        <time>2020-07-01T05:47:50.981Z</time>
      </trkpt>
      <trkpt lat="48.464230" lon="16.654645">
        <ele>249.340451</ele>
        <time>2020-07-01T05:47:55.004Z</time>
      </trkpt>
      <trkpt lat="48.464182" lon="16.654767">
        <ele>249.478640</ele>
        <time>2020-07-01T05:47:57.968Z</time>
      </trkpt>
      <trkpt lat="48.464132" lon="16.654879">
        <ele>249.610165</ele>
        <time>2020-07-01T05:48:00.977Z</time>
      </trkpt>
      <trkpt lat="48.464054" lon="16.654991">
        <ele>249.768386</ele>
        <time>2020-07-01T05:48:04.954Z</time>
      </trkpt>
      <trkpt lat="48.463984" lon="16.655124">
        <ele>249.933797</ele>
        <time>2020-07-01T05:48:08.973Z</time>
      </trkpt>
      <trkpt lat="48.463926" lon="16.655228">
        <ele>250.066175</ele>
        <time>2020-07-01T05:48:11.994Z</time>
      </trkpt>
      <trkpt lat="48.463885" lon="16.655350">
        <ele>250.199411</ele>
        <time>2020-07-01T05:48:14.969Z</time>
      </trkpt>
      <trkpt lat="48.463829" lon="16.655458">
        <ele>250.332964</ele>
        <time>2020-07-01T05:48:17.967Z</time>
      </trkpt>
      <trkpt lat="48.463748" lon="16.655570">
        <ele>250.494406</ele>
        <time>2020-07-01T05:48:21.963Z</time>
      </trkpt>
      <trkpt lat="48.463664" lon="16.655693">
        <ele>250.666409</ele>
        <time>2020-07-01T05:48:25.966Z</time>
      </trkpt>
      <trkpt lat="48.463586" lon="16.655820">
        <ele>250.835038</ele>
        <time>2020-07-01T05:48:29.966Z</time>
      </trkpt>
      <trkpt lat="48.463510" lon="16.655922">
        <ele>250.984500</ele>
        <time>2020-07-01T05:48:33.966Z</time>
      </trkpt>
      <trkpt lat="48.463440" lon="16.656032">
        <ele>251.133017</ele>
        <time>2020-07-01T05:48:37.985Z</time>
      </trkpt>
      <trkpt lat="48.463379" lon="16.656144">
        <ele>251.274206</ele>
        <time>2020-07-01T05:48:41.979Z</time>
      </trkpt>
      <trkpt lat="48.463312" lon="16.656251">
        <ele>251.417569</ele>
        <time>2020-07-01T05:48:45.959Z</time>
      </trkpt>
      <trkpt lat="48.463242" lon="16.656350">
        <ele>251.558551</ele>
        <time>2020-07-01T05:48:49.985Z</time>
      </trkpt>
      <trkpt lat="48.463179" lon="16.656459">
        <ele>251.699407</ele>
        <time>2020-07-01T05:48:53.973Z</time>
      </trkpt>
      <trkpt lat="48.463110" lon="16.656592">
        <ele>251.863910</ele>
        <time>2020-07-01T05:48:58.967Z</time>
      </trkpt>
      <trkpt lat="48.463049" lon="16.656729">
        <ele>252.393428</ele>
        <time>2020-07-01T05:49:03.987Z</time>
      </trkpt>
      <trkpt lat="48.462986" lon="16.656832">
        <ele>253.085974</ele>
        <time>2020-07-01T05:49:08.014Z</time>
      </trkpt>
      <trkpt lat="48.462926" lon="16.656940">
        <ele>253.782316</ele>
        <time>2020-07-01T05:49:11.991Z</time>
      </trkpt>
      <trkpt lat="48.462863" lon="16.657060">
        <ele>254.538769</ele>
        <time>2020-07-01T05:49:15.977Z</time>
      </trkpt>
      <trkpt lat="48.462814" lon="16.657186">
        <ele>255.260691</ele>
        <time>2020-07-01T05:49:19.993Z</time>
      </trkpt>
      <trkpt lat="48.462743" lon="16.657287">
        <ele>255.988158</ele>
        <time>2020-07-01T05:49:25.963Z</time>
      </trkpt>
      <trkpt lat="48.462664" lon="16.657354">
        <ele>256.663691</ele>
        <time>2020-07-01T05:49:29.987Z</time>
      </trkpt>
      <trkpt lat="48.462583" lon="16.657433">
        <ele>257.382661</ele>
        <time>2020-07-01T05:49:33.968Z</time>
      </trkpt>
      <trkpt lat="48.462497" lon="16.657512">
        <ele>258.133196</ele>
        <time>2020-07-01T05:49:39.967Z</time>
      </trkpt>
      <trkpt lat="48.462393" lon="16.657551">
        <ele>258.931942</ele>
        <time>2020-07-01T05:49:45.004Z</time>
      </trkpt>
      <trkpt lat="48.462302" lon="16.657553">
        <ele>259.610261</ele>
        <time>2020-07-01T05:49:48.986Z</time>
      </trkpt>
      <trkpt lat="48.462212" lon="16.657590">
        <ele>260.305534</ele>
        <time>2020-07-01T05:49:53.985Z</time>
      </trkpt>
      <trkpt lat="48.462108" lon="16.657638">
        <ele>261.116164</ele>
        <time>2020-07-01T05:49:58.969Z</time>
      </trkpt>
      <trkpt lat="48.462014" lon="16.657719">
        <ele>261.923082</ele>
        <time>2020-07-01T05:50:04.002Z</time>
      </trkpt>
      <trkpt lat="48.461944" lon="16.657844">
        <ele>262.731708</ele>
        <time>2020-07-01T05:50:09.019Z</time>
      </trkpt>
      <trkpt lat="48.461890" lon="16.657975">
        <ele>263.494062</ele>
        <time>2020-07-01T05:50:13.995Z</time>
      </trkpt>
      <trkpt lat="48.461827" lon="16.658090">
        <ele>264.231309</ele>
        <time>2020-07-01T05:50:20.013Z</time>
      </trkpt>
      <trkpt lat="48.461767" lon="16.658200">
        <ele>264.935266</ele>
        <time>2020-07-01T05:50:25.006Z</time>
      </trkpt>
      <trkpt lat="48.461716" lon="16.658312">
        <ele>265.651820</ele>
        <time>2020-07-01T05:50:28.975Z</time>
      </trkpt>
      <trkpt lat="48.461657" lon="16.658420">
        <ele>266.460182</ele>
        <time>2020-07-01T05:50:33.980Z</time>
      </trkpt>
      <trkpt lat="48.461592" lon="16.658548">
        <ele>267.391545</ele>
        <time>2020-07-01T05:50:39.966Z</time>
      </trkpt>
      <trkpt lat="48.461535" lon="16.658672">
        <ele>268.263167</ele>
        <time>2020-07-01T05:50:45.980Z</time>
      </trkpt>
      <trkpt lat="48.461618" lon="16.658762">
        <ele>269.153761</ele>
        <time>2020-07-01T05:50:52.971Z</time>
      </trkpt>
      <trkpt lat="48.461693" lon="16.658864">
        <ele>270.033600</ele>
        <time>2020-07-01T05:50:55.965Z</time>
      </trkpt>
      <trkpt lat="48.461757" lon="16.658985">
        <ele>270.927734</ele>
        <time>2020-07-01T05:50:59.987Z</time>
      </trkpt>
      <trkpt lat="48.461838" lon="16.659107">
        <ele>271.925061</ele>
        <time>2020-07-01T05:51:04.982Z</time>
      </trkpt>
      <trkpt lat="48.461907" lon="16.659201">
        <ele>272.735131</ele>
        <time>2020-07-01T05:51:08.995Z</time>
      </trkpt>
      <trkpt lat="48.461982" lon="16.659304">
        <ele>273.618848</ele>
        <time>2020-07-01T05:51:14.975Z</time>
      </trkpt>
      <trkpt lat="48.462061" lon="16.659389">
        <ele>274.464290</ele>
        <time>2020-07-01T05:51:18.989Z</time>
      </trkpt>
      <trkpt lat="48.462138" lon="16.659496">
        <ele>275.376461</ele>
        <time>2020-07-01T05:51:22.995Z</time>
      </trkpt>
      <trkpt lat="48.462189" lon="16.659627">
        <ele>276.254016</ele>
        <time>2020-07-01T05:51:26.979Z</time>
      </trkpt>
      <trkpt lat="48.462191" lon="16.659788">
        <ele>277.184256</ele>
        <time>2020-07-01T05:51:31.978Z</time>
      </trkpt>
      <trkpt lat="48.462141" lon="16.659913">
        <ele>278.027569</ele>
        <time>2020-07-01T05:51:37.959Z</time>
      </trkpt>
      <trkpt lat="48.462079" lon="16.660031">
        <ele>278.897290</ele>
        <time>2020-07-01T05:51:44.001Z</time>
      </trkpt>
      <trkpt lat="48.462027" lon="16.660156">
        <ele>279.749735</ele>
        <time>2020-07-01T05:51:48.974Z</time>
      </trkpt>
      <trkpt lat="48.461972" lon="16.660270">
        <ele>280.564161</ele>
        <time>2020-07-01T05:51:53.983Z</time>
      </trkpt>
      <trkpt lat="48.461922" lon="16.660396">
        <ele>281.204421</ele>
        <time>2020-07-01T05:51:58.970Z</time>
      </trkpt>
      <trkpt lat="48.461861" lon="16.660527">
        <ele>281.652123</ele>
        <time>2020-07-01T05:52:03.969Z</time>
      </trkpt>
      <trkpt lat="48.461803" lon="16.660637">
        <ele>282.045184</ele>
        <time>2020-07-01T05:52:07.967Z</time>
      </trkpt>
      <trkpt lat="48.461738" lon="16.660764">
        <ele>282.493883</ele>
        <time>2020-07-01T05:52:12.971Z</time>
      </trkpt>
      <trkpt lat="48.461676" lon="16.660897">
        <ele>282.948588</ele>
        <time>2020-07-01T05:52:17.988Z</time>
      </trkpt>
      <trkpt lat="48.461622" lon="16.661024">
        <ele>283.370542</ele>
        <time>2020-07-01T05:52:22.012Z</time>
      </trkpt>
      <trkpt lat="48.461564" lon="16.661156">
        <ele>283.813425</ele>
        <time>2020-07-01T05:52:25.984Z</time>
      </trkpt>
      <trkpt lat="48.461542" lon="16.661322">
        <ele>284.286891</ele>
        <time>2020-07-01T05:52:29.962Z</time>
      </trkpt>
      <trkpt lat="48.461545" lon="16.661495">
        <ele>284.770919</ele>
        <time>2020-07-01T05:52:33.974Z</time>
      </trkpt>
      <trkpt lat="48.461540" lon="16.661674">
        <ele>285.272008</ele>
        <time>2020-07-01T05:52:37.994Z</time>
      </trkpt>
      <trkpt lat="48.461537" lon="16.661823">
        <ele>285.688937</ele>
        <time>2020-07-01T05:52:40.991Z</time>
      </trkpt>
      <trkpt lat="48.461523" lon="16.661974">
        <ele>286.115377</ele>
        <time>2020-07-01T05:52:43.987Z</time>
      </trkpt>
      <trkpt lat="48.461501" lon="16.662128">
        <ele>286.555981</ele>
        <time>2020-07-01T05:52:46.996Z</time>
      </trkpt>
      <trkpt lat="48.461470" lon="16.662277">
        <ele>286.992749</ele>
        <time>2020-07-01T05:52:49.965Z</time>
      </trkpt>
      <trkpt lat="48.461443" lon="16.662439">
        <ele>287.459939</ele>
        <time>2020-07-01T05:52:52.990Z</time>
      </trkpt>
      <trkpt lat="48.461410" lon="16.662608">
        <ele>287.952682</ele>
        <time>2020-07-01T05:52:55.967Z</time>
      </trkpt>
      <trkpt lat="48.461369" lon="16.662777">
        <ele>288.455999</ele>
        <time>2020-07-01T05:52:58.987Z</time>
      </trkpt>
      <trkpt lat="48.461330" lon="16.662948">
        <ele>288.795756</ele>
        <time>2020-07-01T05:53:01.973Z</time>
      </trkpt>
      <trkpt lat="48.461300" lon="16.663118">
        <ele>289.064797</ele>
        <time>2020-07-01T05:53:04.999Z</time>
      </trkpt>
      <trkpt lat="48.461263" lon="16.663276">
        <ele>289.321062</ele>
        <time>2020-07-01T05:53:08.020Z</time>
      </trkpt>
      <trkpt lat="48.461219" lon="16.663444">
        <ele>289.597310</ele>
        <time>2020-07-01T05:53:10.990Z</time>
      </trkpt>
      <trkpt lat="48.461166" lon="16.663604">
        <ele>289.870840</ele>
        <time>2020-07-01T05:53:13.960Z</time>
      </trkpt>
      <trkpt lat="48.461118" lon="16.663753">
        <ele>290.124184</ele>
        <time>2020-07-01T05:53:16.978Z</time>
      </trkpt>
      <trkpt lat="48.461048" lon="16.663860">
        <ele>290.354058</ele>
        <time>2020-07-01T05:53:59.973Z</time>
      </trkpt>
      <trkpt lat="48.461004" lon="16.663981">
        <ele>290.565110</ele>
        <time>2020-07-01T05:54:02.973Z</time>
      </trkpt>
      <trkpt lat="48.460955" lon="16.664131">
        <ele>290.820841</ele>
        <time>2020-07-01T05:54:05.973Z</time>
      </trkpt>
      <trkpt lat="48.460905" lon="16.664283">
        <ele>291.080336</ele>
        <time>2020-07-01T05:54:08.982Z</time>
      </trkpt>
      <trkpt lat="48.460838" lon="16.664423">
        <ele>291.344385</ele>
        <time>2020-07-01T05:54:12.004Z</time>
      </trkpt>
      <trkpt lat="48.460771" lon="16.664558">
        <ele>291.602271</ele>
        <time>2020-07-01T05:54:15.000Z</time>
      </trkpt>
      <trkpt lat="48.460703" lon="16.664715">
        <ele>291.889063</ele>
        <time>2020-07-01T05:54:17.970Z</time>
      </trkpt>
      <trkpt lat="48.460645" lon="16.664829">
        <ele>292.108816</ele>
        <time>2020-07-01T05:54:19.997Z</time>
      </trkpt>
      <trkpt lat="48.460585" lon="16.664943">
        <ele>292.331406</ele>
        <time>2020-07-01T05:54:21.985Z</time>
      </trkpt>
      <trkpt lat="48.460526" lon="16.665067">
        <ele>292.564817</ele>
        <time>2020-07-01T05:54:23.990Z</time>
      </trkpt>
      <trkpt lat="48.460471" lon="16.665189">
        <ele>292.751491</ele>
        <time>2020-07-01T05:54:26.010Z</time>
      </trkpt>
      <trkpt lat="48.460417" lon="16.665318">
        <ele>292.790518</ele>
        <time>2020-07-01T05:54:27.992Z</time>
      </trkpt>
      <trkpt lat="48.460359" lon="16.665449">
        <ele>292.830816</ele>
        <time>2020-07-01T05:54:29.998Z</time>
      </trkpt>
      <trkpt lat="48.460298" lon="16.665578">
        <ele>292.871349</ele>
        <time>2020-07-01T05:54:32.010Z</time>
      </trkpt>
      <trkpt lat="48.460241" lon="16.665708">
        <ele>292.911220</ele>
        <time>2020-07-01T05:54:33.976Z</time>
      </trkpt>
      <trkpt lat="48.460189" lon="16.665842">
        <ele>292.950940</ele>
        <time>2020-07-01T05:54:35.965Z</time>
      </trkpt>
      <trkpt lat="48.460130" lon="16.665972">
        <ele>292.991242</ele>
        <time>2020-07-01T05:54:38.002Z</time>
      </trkpt>
      <trkpt lat="48.460058" lon="16.666108">
        <ele>293.035763</ele>
        <time>2020-07-01T05:54:39.985Z</time>
      </trkpt>
      <trkpt lat="48.459984" lon="16.666256">
        <ele>293.083183</ele>
        <time>2020-07-01T05:54:41.984Z</time>
      </trkpt>
      <trkpt lat="48.459915" lon="16.666411">
        <ele>293.130944</ele>
        <time>2020-07-01T05:54:43.967Z</time>
      </trkpt>
      <trkpt lat="48.459857" lon="16.666577">
        <ele>293.178947</ele>
        <time>2020-07-01T05:54:45.969Z</time>
      </trkpt>
      <trkpt lat="48.459807" lon="16.666755">
        <ele>293.228402</ele>
        <time>2020-07-01T05:54:47.953Z</time>
      </trkpt>
      <trkpt lat="48.459765" lon="16.666941">
        <ele>293.278671</ele>
        <time>2020-07-01T05:54:49.985Z</time>
      </trkpt>
      <trkpt lat="48.459720" lon="16.667130">
        <ele>293.330046</ele>
        <time>2020-07-01T05:54:51.985Z</time>
      </trkpt>
      <trkpt lat="48.459684" lon="16.667317">
        <ele>293.379863</ele>
        <time>2020-07-01T05:54:53.962Z</time>
      </trkpt>
      <trkpt lat="48.459659" lon="16.667505">
        <ele>293.428917</ele>
        <time>2020-07-01T05:54:55.970Z</time>
      </trkpt>
      <trkpt lat="48.459643" lon="16.667696">
        <ele>293.428255</ele>
        <time>2020-07-01T05:54:57.986Z</time>
      </trkpt>
      <trkpt lat="48.459627" lon="16.667889">
        <ele>293.416841</ele>
        <time>2020-07-01T05:54:59.967Z</time>
      </trkpt>
      <trkpt lat="48.459610" lon="16.668090">
        <ele>293.404951</ele>
        <time>2020-07-01T05:55:01.981Z</time>
      </trkpt>
      <trkpt lat="48.459590" lon="16.668299">
        <ele>293.392559</ele>
        <time>2020-07-01T05:55:03.982Z</time>
      </trkpt>
      <trkpt lat="48.459572" lon="16.668512">
        <ele>293.379959</ele>
        <time>2020-07-01T05:55:05.984Z</time>
      </trkpt>
      <trkpt lat="48.459549" lon="16.668729">
        <ele>293.367063</ele>
        <time>2020-07-01T05:55:07.976Z</time>
      </trkpt>
      <trkpt lat="48.459508" lon="16.668943">
        <ele>293.353991</ele>
        <time>2020-07-01T05:55:09.978Z</time>
      </trkpt>
      <trkpt lat="48.459457" lon="16.669157">
        <ele>293.340647</ele>
        <time>2020-07-01T05:55:11.966Z</time>
      </trkpt>
      <trkpt lat="48.459403" lon="16.669371">
        <ele>293.327210</ele>
        <time>2020-07-01T05:55:13.982Z</time>
      </trkpt>
      <trkpt lat="48.459346" lon="16.669587">
        <ele>293.313568</ele>
        <time>2020-07-01T05:55:15.985Z</time>
      </trkpt>
      <trkpt lat="48.459279" lon="16.669802">
        <ele>293.299628</ele>
        <time>2020-07-01T05:55:17.973Z</time>
      </trkpt>
      <trkpt lat="48.459224" lon="16.670023">
        <ele>293.285776</ele>
        <time>2020-07-01T05:55:19.976Z</time>
      </trkpt>
      <trkpt lat="48.459170" lon="16.670244">
        <ele>293.246393</ele>
        <time>2020-07-01T05:55:21.988Z</time>
      </trkpt>
      <trkpt lat="48.459115" lon="16.670459">
        <ele>293.179284</ele>
        <time>2020-07-01T05:55:23.991Z</time>
      </trkpt>
      <trkpt lat="48.459064" lon="16.670676">
        <ele>293.112238</ele>
        <time>2020-07-01T05:55:25.987Z</time>
      </trkpt>
      <trkpt lat="48.459015" lon="16.670885">
        <ele>293.047681</ele>
        <time>2020-07-01T05:55:27.995Z</time>
      </trkpt>
      <trkpt lat="48.458972" lon="16.671087">
        <ele>292.985898</ele>
        <time>2020-07-01T05:55:30.005Z</time>
      </trkpt>
      <trkpt lat="48.458920" lon="16.671281">
        <ele>292.924961</ele>
        <time>2020-07-01T05:55:31.989Z</time>
      </trkpt>
      <trkpt lat="48.458866" lon="16.671470">
        <ele>292.865029</ele>
        <time>2020-07-01T05:55:33.993Z</time>
      </trkpt>
      <trkpt lat="48.458814" lon="16.671651">
        <ele>292.807584</ele>
        <time>2020-07-01T05:55:35.996Z</time>
      </trkpt>
      <trkpt lat="48.458770" lon="16.671825">
        <ele>292.753353</ele>
        <time>2020-07-01T05:55:37.989Z</time>
      </trkpt>
      <trkpt lat="48.458730" lon="16.671996">
        <ele>292.700547</ele>
        <time>2020-07-01T05:55:39.990Z</time>
      </trkpt>
      <trkpt lat="48.458693" lon="16.672166">
        <ele>292.648441</ele>
        <time>2020-07-01T05:55:41.975Z</time>
      </trkpt>
      <trkpt lat="48.458673" lon="16.672358">
        <ele>292.591841</ele>
        <time>2020-07-01T05:55:43.972Z</time>
      </trkpt>
      <trkpt lat="48.458651" lon="16.672562">
        <ele>292.531651</ele>
        <time>2020-07-01T05:55:45.986Z</time>
      </trkpt>
      <trkpt lat="48.458634" lon="16.672785">
        <ele>292.455301</ele>
        <time>2020-07-01T05:55:47.987Z</time>
      </trkpt>
      <trkpt lat="48.458618" lon="16.673026">
        <ele>292.349977</ele>
        <time>2020-07-01T05:55:50.008Z</time>
      </trkpt>
      <trkpt lat="48.458601" lon="16.673290">
        <ele>292.234635</ele>
        <time>2020-07-01T05:55:51.968Z</time>
      </trkpt>
      <trkpt lat="48.458587" lon="16.673429">
        <ele>292.173497</ele>
        <time>2020-07-01T05:55:52.969Z</time>
      </trkpt>
      <trkpt lat="48.458584" lon="16.673572">
        <ele>292.111282</ele>
        <time>2020-07-01T05:55:53.979Z</time>
      </trkpt>
      <trkpt lat="48.458570" lon="16.673718">
        <ele>292.047133</ele>
        <time>2020-07-01T05:55:54.983Z</time>
      </trkpt>
      <trkpt lat="48.458562" lon="16.673864">
        <ele>291.983427</ele>
        <time>2020-07-01T05:55:55.959Z</time>
      </trkpt>
      <trkpt lat="48.458550" lon="16.674011">
        <ele>291.919021</ele>
        <time>2020-07-01T05:55:56.988Z</time>
      </trkpt>
      <trkpt lat="48.458537" lon="16.674162">
        <ele>291.852807</ele>
        <time>2020-07-01T05:55:57.985Z</time>
      </trkpt>
      <trkpt lat="48.458524" lon="16.674316">
        <ele>291.785299</ele>
        <time>2020-07-01T05:55:58.983Z</time>
      </trkpt>
      <trkpt lat="48.458499" lon="16.674466">
        <ele>291.718042</ele>
        <time>2020-07-01T05:55:59.952Z</time>
      </trkpt>
      <trkpt lat="48.458466" lon="16.674612">
        <ele>291.650967</ele>
        <time>2020-07-01T05:56:00.967Z</time>
      </trkpt>
      <trkpt lat="48.458426" lon="16.674756">
        <ele>291.583076</ele>
        <time>2020-07-01T05:56:01.961Z</time>
      </trkpt>
      <trkpt lat="48.458383" lon="16.674895">
        <ele>291.516378</ele>
        <time>2020-07-01T05:56:02.954Z</time>
      </trkpt>
      <trkpt lat="48.458333" lon="16.675025">
        <ele>291.451027</ele>
        <time>2020-07-01T05:56:03.974Z</time>
      </trkpt>
      <trkpt lat="48.458278" lon="16.675139">
        <ele>291.389722</ele>
        <time>2020-07-01T05:56:04.965Z</time>
      </trkpt>
      <trkpt lat="48.458215" lon="16.675236">
        <ele>291.330681</ele>
        <time>2020-07-01T05:56:05.994Z</time>
      </trkpt>
      <trkpt lat="48.458157" lon="16.675481">
        <ele>291.359173</ele>
        <time>2020-07-01T05:56:07.975Z</time>
      </trkpt>
      <trkpt lat="48.458124" lon="16.675740">
        <ele>291.421870</ele>
        <time>2020-07-01T05:56:09.968Z</time>
      </trkpt>
      <trkpt lat="48.458085" lon="16.675997">
        <ele>291.484544</ele>
        <time>2020-07-01T05:56:11.980Z</time>
      </trkpt>
      <trkpt lat="48.458053" lon="16.676253">
        <ele>291.546473</ele>
        <time>2020-07-01T05:56:13.959Z</time>
      </trkpt>
      <trkpt lat="48.458014" lon="16.676505">
        <ele>291.607989</ele>
        <time>2020-07-01T05:56:15.982Z</time>
      </trkpt>
      <trkpt lat="48.457975" lon="16.676750">
        <ele>291.667886</ele>
        <time>2020-07-01T05:56:17.996Z</time>
      </trkpt>
      <trkpt lat="48.457927" lon="16.676985">
        <ele>291.726341</ele>
        <time>2020-07-01T05:56:19.977Z</time>
      </trkpt>
      <trkpt lat="48.457879" lon="16.677215">
        <ele>291.783661</ele>
        <time>2020-07-01T05:56:21.977Z</time>
      </trkpt>
      <trkpt lat="48.457832" lon="16.677445">
        <ele>291.840875</ele>
        <time>2020-07-01T05:56:23.980Z</time>
      </trkpt>
      <trkpt lat="48.457788" lon="16.677658">
        <ele>291.893910</ele>
        <time>2020-07-01T05:56:25.985Z</time>
      </trkpt>
      <trkpt lat="48.457733" lon="16.677858">
        <ele>291.945380</ele>
        <time>2020-07-01T05:56:27.996Z</time>
      </trkpt>
      <trkpt lat="48.457675" lon="16.678050">
        <ele>291.948622</ele>
        <time>2020-07-01T05:56:29.958Z</time>
      </trkpt>
      <trkpt lat="48.457617" lon="16.678237">
        <ele>291.942437</ele>
        <time>2020-07-01T05:56:31.973Z</time>
      </trkpt>
      <trkpt lat="48.457561" lon="16.678420">
        <ele>291.936399</ele>
        <time>2020-07-01T05:56:33.955Z</time>
      </trkpt>
      <trkpt lat="48.457498" lon="16.678592">
        <ele>291.930511</ele>
        <time>2020-07-01T05:56:35.979Z</time>
      </trkpt>
      <trkpt lat="48.457436" lon="16.678762">
        <ele>291.924699</ele>
        <time>2020-07-01T05:56:37.978Z</time>
      </trkpt>
      <trkpt lat="48.457378" lon="16.678931">
        <ele>291.918997</ele>
        <time>2020-07-01T05:56:39.979Z</time>
      </trkpt>
      <trkpt lat="48.457324" lon="16.679104">
        <ele>291.913268</ele>
        <time>2020-07-01T05:56:41.995Z</time>
      </trkpt>
      <trkpt lat="48.457267" lon="16.679277">
        <ele>291.907481</ele>
        <time>2020-07-01T05:56:44.004Z</time>
      </trkpt>
      <trkpt lat="48.457208" lon="16.679447">
        <ele>291.901732</ele>
        <time>2020-07-01T05:56:45.962Z</time>
      </trkpt>
      <trkpt lat="48.457150" lon="16.679615">
        <ele>291.896057</ele>
        <time>2020-07-01T05:56:47.969Z</time>
      </trkpt>
      <trkpt lat="48.457089" lon="16.679778">
        <ele>291.890449</ele>
        <time>2020-07-01T05:56:49.979Z</time>
      </trkpt>
      <trkpt lat="48.457024" lon="16.679937">
        <ele>291.884853</ele>
        <time>2020-07-01T05:56:51.969Z</time>
      </trkpt>
      <trkpt lat="48.456953" lon="16.680093">
        <ele>291.879184</ele>
        <time>2020-07-01T05:56:53.990Z</time>
      </trkpt>
      <trkpt lat="48.456892" lon="16.680264">
        <ele>291.873367</ele>
        <time>2020-07-01T05:56:55.975Z</time>
      </trkpt>
      <trkpt lat="48.456828" lon="16.680435">
        <ele>291.802517</ele>
        <time>2020-07-01T05:56:57.985Z</time>
      </trkpt>
      <trkpt lat="48.456762" lon="16.680607">
        <ele>291.721150</ele>
        <time>2020-07-01T05:56:59.968Z</time>
      </trkpt>
      <trkpt lat="48.456685" lon="16.680766">
        <ele>291.640536</ele>
        <time>2020-07-01T05:57:01.989Z</time>
      </trkpt>
      <trkpt lat="48.456613" lon="16.680932">
        <ele>291.559319</ele>
        <time>2020-07-01T05:57:03.987Z</time>
      </trkpt>
      <trkpt lat="48.456541" lon="16.681105">
        <ele>291.475689</ele>
        <time>2020-07-01T05:57:05.991Z</time>
      </trkpt>
      <trkpt lat="48.456471" lon="16.681290">
        <ele>291.388477</ele>
        <time>2020-07-01T05:57:07.968Z</time>
      </trkpt>
      <trkpt lat="48.456396" lon="16.681476">
        <ele>291.299344</ele>
        <time>2020-07-01T05:57:09.977Z</time>
      </trkpt>
      <trkpt lat="48.456319" lon="16.681661">
        <ele>291.209911</ele>
        <time>2020-07-01T05:57:11.957Z</time>
      </trkpt>
      <trkpt lat="48.456242" lon="16.681850">
        <ele>291.119086</ele>
        <time>2020-07-01T05:57:13.996Z</time>
      </trkpt>
      <trkpt lat="48.456164" lon="16.682041">
        <ele>291.027240</ele>
        <time>2020-07-01T05:57:16.004Z</time>
      </trkpt>
      <trkpt lat="48.456091" lon="16.682233">
        <ele>290.936619</ele>
        <time>2020-07-01T05:57:17.977Z</time>
      </trkpt>
      <trkpt lat="48.456020" lon="16.682426">
        <ele>290.846248</ele>
        <time>2020-07-01T05:57:19.964Z</time>
      </trkpt>
      <trkpt lat="48.455954" lon="16.682620">
        <ele>290.757984</ele>
        <time>2020-07-01T05:57:21.968Z</time>
      </trkpt>
      <trkpt lat="48.455888" lon="16.682810">
        <ele>290.687509</ele>
        <time>2020-07-01T05:57:23.966Z</time>
      </trkpt>
      <trkpt lat="48.455822" lon="16.682998">
        <ele>290.617615</ele>
        <time>2020-07-01T05:57:25.990Z</time>
      </trkpt>
      <trkpt lat="48.455756" lon="16.683184">
        <ele>290.548301</ele>
        <time>2020-07-01T05:57:27.979Z</time>
      </trkpt>
      <trkpt lat="48.455693" lon="16.683364">
        <ele>290.481425</ele>
        <time>2020-07-01T05:57:29.975Z</time>
      </trkpt>
      <trkpt lat="48.455628" lon="16.683537">
        <ele>290.416092</ele>
        <time>2020-07-01T05:57:31.966Z</time>
      </trkpt>
      <trkpt lat="48.455568" lon="16.683709">
        <ele>290.352234</ele>
        <time>2020-07-01T05:57:33.981Z</time>
      </trkpt>
      <trkpt lat="48.455508" lon="16.683881">
        <ele>290.288377</ele>
        <time>2020-07-01T05:57:35.988Z</time>
      </trkpt>
      <trkpt lat="48.455447" lon="16.684054">
        <ele>290.223998</ele>
        <time>2020-07-01T05:57:38.000Z</time>
      </trkpt>
      <trkpt lat="48.455386" lon="16.684225">
        <ele>290.160197</ele>
        <time>2020-07-01T05:57:39.963Z</time>
      </trkpt>
      <trkpt lat="48.455323" lon="16.684395">
        <ele>290.096209</ele>
        <time>2020-07-01T05:57:41.998Z</time>
      </trkpt>
      <trkpt lat="48.455261" lon="16.684569">
        <ele>290.031306</ele>
        <time>2020-07-01T05:57:43.991Z</time>
      </trkpt>
      <trkpt lat="48.455200" lon="16.684741">
        <ele>289.967216</ele>
        <time>2020-07-01T05:57:45.979Z</time>
      </trkpt>
      <trkpt lat="48.455141" lon="16.684918">
        <ele>289.902124</ele>
        <time>2020-07-01T05:57:47.995Z</time>
      </trkpt>
      <trkpt lat="48.455077" lon="16.685098">
        <ele>289.845181</ele>
        <time>2020-07-01T05:57:49.967Z</time>
      </trkpt>
      <trkpt lat="48.455015" lon="16.685281">
        <ele>289.796751</ele>
        <time>2020-07-01T05:57:51.979Z</time>
      </trkpt>
      <trkpt lat="48.454954" lon="16.685464">
        <ele>289.748481</ele>
        <time>2020-07-01T05:57:53.977Z</time>
      </trkpt>
      <trkpt lat="48.454890" lon="16.685644">
        <ele>289.700347</ele>
        <time>2020-07-01T05:57:55.981Z</time>
      </trkpt>
      <trkpt lat="48.454824" lon="16.685821">
        <ele>289.652491</ele>
        <time>2020-07-01T05:57:58.005Z</time>
      </trkpt>
      <trkpt lat="48.454760" lon="16.685996">
        <ele>289.605393</ele>
        <time>2020-07-01T05:57:59.987Z</time>
      </trkpt>
      <trkpt lat="48.454703" lon="16.686170">
        <ele>289.559656</ele>
        <time>2020-07-01T05:58:01.962Z</time>
      </trkpt>
      <trkpt lat="48.454643" lon="16.686339">
        <ele>289.514478</ele>
        <time>2020-07-01T05:58:03.993Z</time>
      </trkpt>
      <trkpt lat="48.454582" lon="16.686504">
        <ele>289.469958</ele>
        <time>2020-07-01T05:58:05.986Z</time>
      </trkpt>
      <trkpt lat="48.454523" lon="16.686668">
        <ele>289.425986</ele>
        <time>2020-07-01T05:58:08.008Z</time>
      </trkpt>
      <trkpt lat="48.454468" lon="16.686825">
        <ele>289.384140</ele>
        <time>2020-07-01T05:58:09.985Z</time>
      </trkpt>
      <trkpt lat="48.454417" lon="16.686982">
        <ele>289.342939</ele>
        <time>2020-07-01T05:58:12.184Z</time>
      </trkpt>
      <trkpt lat="48.454365" lon="16.687141">
        <ele>289.301157</ele>
        <time>2020-07-01T05:58:13.986Z</time>
      </trkpt>
      <trkpt lat="48.454312" lon="16.687303">
        <ele>289.258585</ele>
        <time>2020-07-01T05:58:15.971Z</time>
      </trkpt>
      <trkpt lat="48.454254" lon="16.687463">
        <ele>289.246532</ele>
        <time>2020-07-01T05:58:17.988Z</time>
      </trkpt>
      <trkpt lat="48.454201" lon="16.687627">
        <ele>289.285621</ele>
        <time>2020-07-01T05:58:19.993Z</time>
      </trkpt>
      <trkpt lat="48.454143" lon="16.687786">
        <ele>289.324503</ele>
        <time>2020-07-01T05:58:21.969Z</time>
      </trkpt>
      <trkpt lat="48.454090" lon="16.687945">
        <ele>289.362633</ele>
        <time>2020-07-01T05:58:23.979Z</time>
      </trkpt>
      <trkpt lat="48.454035" lon="16.688101">
        <ele>289.400488</ele>
        <time>2020-07-01T05:58:25.970Z</time>
      </trkpt>
      <trkpt lat="48.453981" lon="16.688254">
        <ele>289.437624</ele>
        <time>2020-07-01T05:58:27.983Z</time>
      </trkpt>
      <trkpt lat="48.453927" lon="16.688406">
        <ele>289.474571</ele>
        <time>2020-07-01T05:58:29.965Z</time>
      </trkpt>
      <trkpt lat="48.453873" lon="16.688550">
        <ele>289.510016</ele>
        <time>2020-07-01T05:58:31.967Z</time>
      </trkpt>
      <trkpt lat="48.453817" lon="16.688694">
        <ele>289.545784</ele>
        <time>2020-07-01T05:58:33.966Z</time>
      </trkpt>
      <trkpt lat="48.453764" lon="16.688836">
        <ele>289.580697</ele>
        <time>2020-07-01T05:58:35.974Z</time>
      </trkpt>
      <trkpt lat="48.453716" lon="16.688973">
        <ele>289.613896</ele>
        <time>2020-07-01T05:58:37.975Z</time>
      </trkpt>
      <trkpt lat="48.453666" lon="16.689111">
        <ele>289.647590</ele>
        <time>2020-07-01T05:58:39.974Z</time>
      </trkpt>
      <trkpt lat="48.453621" lon="16.689255">
        <ele>289.681698</ele>
        <time>2020-07-01T05:58:41.965Z</time>
      </trkpt>
      <trkpt lat="48.453578" lon="16.689399">
        <ele>289.715536</ele>
        <time>2020-07-01T05:58:43.986Z</time>
      </trkpt>
      <trkpt lat="48.453535" lon="16.689541">
        <ele>289.748984</ele>
        <time>2020-07-01T05:58:46.000Z</time>
      </trkpt>
      <trkpt lat="48.453489" lon="16.689683">
        <ele>289.782846</ele>
        <time>2020-07-01T05:58:47.978Z</time>
      </trkpt>
      <trkpt lat="48.453440" lon="16.689829">
        <ele>289.819361</ele>
        <time>2020-07-01T05:58:49.977Z</time>
      </trkpt>
      <trkpt lat="48.453391" lon="16.689974">
        <ele>289.864354</ele>
        <time>2020-07-01T05:58:51.976Z</time>
      </trkpt>
      <trkpt lat="48.453344" lon="16.690126">
        <ele>289.910722</ele>
        <time>2020-07-01T05:58:53.984Z</time>
      </trkpt>
      <trkpt lat="48.453305" lon="16.690279">
        <ele>289.956040</ele>
        <time>2020-07-01T05:58:55.979Z</time>
      </trkpt>
      <trkpt lat="48.453265" lon="16.690440">
        <ele>290.003574</ele>
        <time>2020-07-01T05:58:57.997Z</time>
      </trkpt>
      <trkpt lat="48.453222" lon="16.690597">
        <ele>290.050537</ele>
        <time>2020-07-01T05:58:59.973Z</time>
      </trkpt>
      <trkpt lat="48.453178" lon="16.690762">
        <ele>290.099706</ele>
        <time>2020-07-01T05:59:01.980Z</time>
      </trkpt>
      <trkpt lat="48.453130" lon="16.690931">
        <ele>290.150535</ele>
        <time>2020-07-01T05:59:03.974Z</time>
      </trkpt>
      <trkpt lat="48.453082" lon="16.691103">
        <ele>290.202128</ele>
        <time>2020-07-01T05:59:05.980Z</time>
      </trkpt>
      <trkpt lat="48.453036" lon="16.691274">
        <ele>290.253147</ele>
        <time>2020-07-01T05:59:07.977Z</time>
      </trkpt>
      <trkpt lat="48.452999" lon="16.691455">
        <ele>290.305514</ele>
        <time>2020-07-01T05:59:09.992Z</time>
      </trkpt>
      <trkpt lat="48.452963" lon="16.691637">
        <ele>290.358024</ele>
        <time>2020-07-01T05:59:11.996Z</time>
      </trkpt>
      <trkpt lat="48.452927" lon="16.691816">
        <ele>290.409739</ele>
        <time>2020-07-01T05:59:13.967Z</time>
      </trkpt>
      <trkpt lat="48.452897" lon="16.692003">
        <ele>290.462932</ele>
        <time>2020-07-01T05:59:15.975Z</time>
      </trkpt>
      <trkpt lat="48.452861" lon="16.692194">
        <ele>290.517831</ele>
        <time>2020-07-01T05:59:17.987Z</time>
      </trkpt>
      <trkpt lat="48.452824" lon="16.692391">
        <ele>290.577784</ele>
        <time>2020-07-01T05:59:19.972Z</time>
      </trkpt>
      <trkpt lat="48.452786" lon="16.692592">
        <ele>290.652024</ele>
        <time>2020-07-01T05:59:22.015Z</time>
      </trkpt>
      <trkpt lat="48.452751" lon="16.692794">
        <ele>290.726183</ele>
        <time>2020-07-01T05:59:23.986Z</time>
      </trkpt>
      <trkpt lat="48.452712" lon="16.692996">
        <ele>290.800913</ele>
        <time>2020-07-01T05:59:25.970Z</time>
      </trkpt>
      <trkpt lat="48.452673" lon="16.693197">
        <ele>290.875301</ele>
        <time>2020-07-01T05:59:28.001Z</time>
      </trkpt>
      <trkpt lat="48.452642" lon="16.693398">
        <ele>290.948603</ele>
        <time>2020-07-01T05:59:29.971Z</time>
      </trkpt>
      <trkpt lat="48.452618" lon="16.693602">
        <ele>291.022195</ele>
        <time>2020-07-01T05:59:31.964Z</time>
      </trkpt>
      <trkpt lat="48.452593" lon="16.693808">
        <ele>291.096583</ele>
        <time>2020-07-01T05:59:33.963Z</time>
      </trkpt>
      <trkpt lat="48.452568" lon="16.694012">
        <ele>291.170271</ele>
        <time>2020-07-01T05:59:35.984Z</time>
      </trkpt>
      <trkpt lat="48.452541" lon="16.694212">
        <ele>291.242769</ele>
        <time>2020-07-01T05:59:38.004Z</time>
      </trkpt>
      <trkpt lat="48.452511" lon="16.694408">
        <ele>291.314219</ele>
        <time>2020-07-01T05:59:39.969Z</time>
      </trkpt>
      <trkpt lat="48.452490" lon="16.694595">
        <ele>291.381588</ele>
        <time>2020-07-01T05:59:41.968Z</time>
      </trkpt>
      <trkpt lat="48.452472" lon="16.694772">
        <ele>291.445194</ele>
        <time>2020-07-01T05:59:43.988Z</time>
      </trkpt>
      <trkpt lat="48.452454" lon="16.694933">
        <ele>291.503189</ele>
        <time>2020-07-01T05:59:45.993Z</time>
      </trkpt>
      <trkpt lat="48.452437" lon="16.695088">
        <ele>291.588207</ele>
        <time>2020-07-01T05:59:47.968Z</time>
      </trkpt>
      <trkpt lat="48.452422" lon="16.695236">
        <ele>291.688444</ele>
        <time>2020-07-01T05:59:49.980Z</time>
      </trkpt>
      <trkpt lat="48.452407" lon="16.695373">
        <ele>291.781408</ele>
        <time>2020-07-01T05:59:51.978Z</time>
      </trkpt>
      <trkpt lat="48.452384" lon="16.695570">
        <ele>291.915328</ele>
        <time>2020-07-01T05:59:54.985Z</time>
      </trkpt>
      <trkpt lat="48.452366" lon="16.695752">
        <ele>292.038526</ele>
        <time>2020-07-01T05:59:57.976Z</time>
      </trkpt>
      <trkpt lat="48.452349" lon="16.695917">
        <ele>292.150319</ele>
        <time>2020-07-01T06:00:00.978Z</time>
      </trkpt>
      <trkpt lat="48.452335" lon="16.696072">
        <ele>292.255051</ele>
        <time>2020-07-01T06:00:03.990Z</time>
      </trkpt>
      <trkpt lat="48.452317" lon="16.696230">
        <ele>292.362382</ele>
        <time>2020-07-01T06:00:07.010Z</time>
      </trkpt>
      <trkpt lat="48.452297" lon="16.696386">
        <ele>292.468759</ele>
        <time>2020-07-01T06:00:09.987Z</time>
      </trkpt>
      <trkpt lat="48.452273" lon="16.696525">
        <ele>292.564922</ele>
        <time>2020-07-01T06:00:12.974Z</time>
      </trkpt>
      <trkpt lat="48.452246" lon="16.696681">
        <ele>292.672863</ele>
        <time>2020-07-01T06:00:15.979Z</time>
      </trkpt>
      <trkpt lat="48.452211" lon="16.696838">
        <ele>292.783754</ele>
        <time>2020-07-01T06:00:18.999Z</time>
      </trkpt>
      <trkpt lat="48.452180" lon="16.696983">
        <ele>292.885752</ele>
        <time>2020-07-01T06:00:21.958Z</time>
      </trkpt>
      <trkpt lat="48.452150" lon="16.697128">
        <ele>292.987445</ele>
        <time>2020-07-01T06:00:24.978Z</time>
      </trkpt>
      <trkpt lat="48.452122" lon="16.697283">
        <ele>293.094999</ele>
        <time>2020-07-01T06:00:27.999Z</time>
      </trkpt>
      <trkpt lat="48.452100" lon="16.697440">
        <ele>293.202432</ele>
        <time>2020-07-01T06:00:30.993Z</time>
      </trkpt>
      <trkpt lat="48.452083" lon="16.697603">
        <ele>293.312904</ele>
        <time>2020-07-01T06:00:34.001Z</time>
      </trkpt>
      <trkpt lat="48.452058" lon="16.697770">
        <ele>293.379952</ele>
        <time>2020-07-01T06:00:36.985Z</time>
      </trkpt>
      <trkpt lat="48.452026" lon="16.697950">
        <ele>293.435633</ele>
        <time>2020-07-01T06:00:40.004Z</time>
      </trkpt>
      <trkpt lat="48.452001" lon="16.698128">
        <ele>293.489997</ele>
        <time>2020-07-01T06:00:42.986Z</time>
      </trkpt>
      <trkpt lat="48.451981" lon="16.698314">
        <ele>293.546298</ele>
        <time>2020-07-01T06:00:45.989Z</time>
      </trkpt>
      <trkpt lat="48.451960" lon="16.698500">
        <ele>293.602672</ele>
        <time>2020-07-01T06:00:48.973Z</time>
      </trkpt>
      <trkpt lat="48.451940" lon="16.698680">
        <ele>293.657204</ele>
        <time>2020-07-01T06:00:51.974Z</time>
      </trkpt>
      <trkpt lat="48.451935" lon="16.698845">
        <ele>293.706556</ele>
        <time>2020-07-01T06:00:54.996Z</time>
      </trkpt>
      <trkpt lat="48.452044" lon="16.698943">
        <ele>293.763728</ele>
        <time>2020-07-01T06:00:57.971Z</time>
      </trkpt>
      <trkpt lat="48.452155" lon="16.698969">
        <ele>293.814333</ele>
        <time>2020-07-01T06:00:59.976Z</time>
      </trkpt>
      <trkpt lat="48.452276" lon="16.699002">
        <ele>293.869728</ele>
        <time>2020-07-01T06:01:02.020Z</time>
      </trkpt>
      <trkpt lat="48.452412" lon="16.699045">
        <ele>293.932328</ele>
        <time>2020-07-01T06:01:03.981Z</time>
      </trkpt>
      <trkpt lat="48.452557" lon="16.699090">
        <ele>293.999019</ele>
        <time>2020-07-01T06:01:05.968Z</time>
      </trkpt>
      <trkpt lat="48.452710" lon="16.699147">
        <ele>294.070018</ele>
        <time>2020-07-01T06:01:07.996Z</time>
      </trkpt>
      <trkpt lat="48.452873" lon="16.699198">
        <ele>294.145014</ele>
        <time>2020-07-01T06:01:09.983Z</time>
      </trkpt>
      <trkpt lat="48.453042" lon="16.699254">
        <ele>294.071728</ele>
        <time>2020-07-01T06:01:11.984Z</time>
      </trkpt>
      <trkpt lat="48.453130" lon="16.699279">
        <ele>294.026226</ele>
        <time>2020-07-01T06:01:12.994Z</time>
      </trkpt>
      <trkpt lat="48.453305" lon="16.699346">
        <ele>293.934481</ele>
        <time>2020-07-01T06:01:14.975Z</time>
      </trkpt>
      <trkpt lat="48.453395" lon="16.699370">
        <ele>293.888039</ele>
        <time>2020-07-01T06:01:15.979Z</time>
      </trkpt>
      <trkpt lat="48.453488" lon="16.699395">
        <ele>293.840038</ele>
        <time>2020-07-01T06:01:16.979Z</time>
      </trkpt>
      <trkpt lat="48.453584" lon="16.699413">
        <ele>293.790881</ele>
        <time>2020-07-01T06:01:17.967Z</time>
      </trkpt>
      <trkpt lat="48.453684" lon="16.699427">
        <ele>293.739849</ele>
        <time>2020-07-01T06:01:18.974Z</time>
      </trkpt>
      <trkpt lat="48.453785" lon="16.699437">
        <ele>293.688418</ele>
        <time>2020-07-01T06:01:19.960Z</time>
      </trkpt>
      <trkpt lat="48.453887" lon="16.699448">
        <ele>293.636456</ele>
        <time>2020-07-01T06:01:20.968Z</time>
      </trkpt>
      <trkpt lat="48.453993" lon="16.699459">
        <ele>293.582466</ele>
        <time>2020-07-01T06:01:21.973Z</time>
      </trkpt>
      <trkpt lat="48.454100" lon="16.699475">
        <ele>293.527829</ele>
        <time>2020-07-01T06:01:22.998Z</time>
      </trkpt>
      <trkpt lat="48.454211" lon="16.699493">
        <ele>293.471101</ele>
        <time>2020-07-01T06:01:23.972Z</time>
      </trkpt>
      <trkpt lat="48.454325" lon="16.699508">
        <ele>293.412954</ele>
        <time>2020-07-01T06:01:24.985Z</time>
      </trkpt>
      <trkpt lat="48.454440" lon="16.699529">
        <ele>293.354092</ele>
        <time>2020-07-01T06:01:25.982Z</time>
      </trkpt>
      <trkpt lat="48.454557" lon="16.699552">
        <ele>293.294137</ele>
        <time>2020-07-01T06:01:26.974Z</time>
      </trkpt>
      <trkpt lat="48.454672" lon="16.699585">
        <ele>293.235547</ele>
        <time>2020-07-01T06:01:27.976Z</time>
      </trkpt>
      <trkpt lat="48.454788" lon="16.699612">
        <ele>293.192111</ele>
        <time>2020-07-01T06:01:28.972Z</time>
      </trkpt>
      <trkpt lat="48.454905" lon="16.699637">
        <ele>293.148381</ele>
        <time>2020-07-01T06:01:29.971Z</time>
      </trkpt>
      <trkpt lat="48.455024" lon="16.699654">
        <ele>293.104146</ele>
        <time>2020-07-01T06:01:30.982Z</time>
      </trkpt>
      <trkpt lat="48.455147" lon="16.699667">
        <ele>293.058516</ele>
        <time>2020-07-01T06:01:31.963Z</time>
      </trkpt>
      <trkpt lat="48.455274" lon="16.699682">
        <ele>293.011374</ele>
        <time>2020-07-01T06:01:32.971Z</time>
      </trkpt>
      <trkpt lat="48.455402" lon="16.699701">
        <ele>292.963777</ele>
        <time>2020-07-01T06:01:33.955Z</time>
      </trkpt>
      <trkpt lat="48.455529" lon="16.699724">
        <ele>292.916441</ele>
        <time>2020-07-01T06:01:34.986Z</time>
      </trkpt>
      <trkpt lat="48.455660" lon="16.699746">
        <ele>292.867662</ele>
        <time>2020-07-01T06:01:35.998Z</time>
      </trkpt>
      <trkpt lat="48.455800" lon="16.699771">
        <ele>292.815491</ele>
        <time>2020-07-01T06:01:36.978Z</time>
      </trkpt>
      <trkpt lat="48.455947" lon="16.699802">
        <ele>292.760562</ele>
        <time>2020-07-01T06:01:37.955Z</time>
      </trkpt>
      <trkpt lat="48.456099" lon="16.699840">
        <ele>292.703544</ele>
        <time>2020-07-01T06:01:38.987Z</time>
      </trkpt>
      <trkpt lat="48.456251" lon="16.699877">
        <ele>292.646566</ele>
        <time>2020-07-01T06:01:39.974Z</time>
      </trkpt>
      <trkpt lat="48.456402" lon="16.699916">
        <ele>292.589873</ele>
        <time>2020-07-01T06:01:41.009Z</time>
      </trkpt>
      <trkpt lat="48.456539" lon="16.699954">
        <ele>292.348463</ele>
        <time>2020-07-01T06:01:41.976Z</time>
      </trkpt>
      <trkpt lat="48.456655" lon="16.699987">
        <ele>292.060877</ele>
        <time>2020-07-01T06:01:42.983Z</time>
      </trkpt>
      <trkpt lat="48.456754" lon="16.700014">
        <ele>291.815780</ele>
        <time>2020-07-01T06:01:43.976Z</time>
      </trkpt>
      <trkpt lat="48.456850" lon="16.700038">
        <ele>291.578711</ele>
        <time>2020-07-01T06:01:44.994Z</time>
      </trkpt>
      <trkpt lat="48.456940" lon="16.700062">
        <ele>291.356050</ele>
        <time>2020-07-01T06:01:45.984Z</time>
      </trkpt>
      <trkpt lat="48.457087" lon="16.700074">
        <ele>290.997403</ele>
        <time>2020-07-01T06:01:47.972Z</time>
      </trkpt>
      <trkpt lat="48.457184" lon="16.700140">
        <ele>290.738147</ele>
        <time>2020-07-01T06:01:49.999Z</time>
      </trkpt>
      <trkpt lat="48.457184" lon="16.700310">
        <ele>290.463488</ele>
        <time>2020-07-01T06:01:52.967Z</time>
      </trkpt>
      <trkpt lat="48.457113" lon="16.700484">
        <ele>290.133414</ele>
        <time>2020-07-01T06:01:55.989Z</time>
      </trkpt>
      <trkpt lat="48.457066" lon="16.700606">
        <ele>289.905462</ele>
        <time>2020-07-01T06:01:57.996Z</time>
      </trkpt>
      <trkpt lat="48.457012" lon="16.700744">
        <ele>289.646584</ele>
        <time>2020-07-01T06:01:59.984Z</time>
      </trkpt>
      <trkpt lat="48.456957" lon="16.700891">
        <ele>289.373893</ele>
        <time>2020-07-01T06:02:01.974Z</time>
      </trkpt>
      <trkpt lat="48.456899" lon="16.701056">
        <ele>289.072179</ele>
        <time>2020-07-01T06:02:03.991Z</time>
      </trkpt>
      <trkpt lat="48.456844" lon="16.701233">
        <ele>288.756374</ele>
        <time>2020-07-01T06:02:05.979Z</time>
      </trkpt>
      <trkpt lat="48.456813" lon="16.701457">
        <ele>288.386671</ele>
        <time>2020-07-01T06:02:07.993Z</time>
      </trkpt>
      <trkpt lat="48.456797" lon="16.701689">
        <ele>287.999561</ele>
        <time>2020-07-01T06:02:09.971Z</time>
      </trkpt>
      <trkpt lat="48.456777" lon="16.701920">
        <ele>287.601806</ele>
        <time>2020-07-01T06:02:12.007Z</time>
      </trkpt>
      <trkpt lat="48.456768" lon="16.702136">
        <ele>287.232282</ele>
        <time>2020-07-01T06:02:14.004Z</time>
      </trkpt>
      <trkpt lat="48.456778" lon="16.702329">
        <ele>286.901751</ele>
        <time>2020-07-01T06:02:15.984Z</time>
      </trkpt>
      <trkpt lat="48.456815" lon="16.702515">
        <ele>286.570197</ele>
        <time>2020-07-01T06:02:17.996Z</time>
      </trkpt>
      <trkpt lat="48.456856" lon="16.702704">
        <ele>286.230674</ele>
        <time>2020-07-01T06:02:19.972Z</time>
      </trkpt>
      <trkpt lat="48.456910" lon="16.702874">
        <ele>285.908841</ele>
        <time>2020-07-01T06:02:21.987Z</time>
      </trkpt>
      <trkpt lat="48.456957" lon="16.703053">
        <ele>285.580136</ele>
        <time>2020-07-01T06:02:23.974Z</time>
      </trkpt>
      <trkpt lat="48.456990" lon="16.703248">
        <ele>285.236527</ele>
        <time>2020-07-01T06:02:25.970Z</time>
      </trkpt>
      <trkpt lat="48.457005" lon="16.703456">
        <ele>284.879297</ele>
        <time>2020-07-01T06:02:27.992Z</time>
      </trkpt>
      <trkpt lat="48.457018" lon="16.703665">
        <ele>284.520887</ele>
        <time>2020-07-01T06:02:29.986Z</time>
      </trkpt>
      <trkpt lat="48.457033" lon="16.703874">
        <ele>284.161960</ele>
        <time>2020-07-01T06:02:32.007Z</time>
      </trkpt>
      <trkpt lat="48.457048" lon="16.704080">
        <ele>283.808125</ele>
        <time>2020-07-01T06:02:33.986Z</time>
      </trkpt>
      <trkpt lat="48.457046" lon="16.704283">
        <ele>283.481981</ele>
        <time>2020-07-01T06:02:35.969Z</time>
      </trkpt>
      <trkpt lat="48.457043" lon="16.704487">
        <ele>283.206219</ele>
        <time>2020-07-01T06:02:37.959Z</time>
      </trkpt>
      <trkpt lat="48.457036" lon="16.704691">
        <ele>282.930157</ele>
        <time>2020-07-01T06:02:39.990Z</time>
      </trkpt>
      <trkpt lat="48.457031" lon="16.704898">
        <ele>282.650223</ele>
        <time>2020-07-01T06:02:41.979Z</time>
      </trkpt>
      <trkpt lat="48.457030" lon="16.705109">
        <ele>282.365062</ele>
        <time>2020-07-01T06:02:43.978Z</time>
      </trkpt>
      <trkpt lat="48.457029" lon="16.705323">
        <ele>282.075846</ele>
        <time>2020-07-01T06:02:45.983Z</time>
      </trkpt>
      <trkpt lat="48.457032" lon="16.705539">
        <ele>281.783871</ele>
        <time>2020-07-01T06:02:47.981Z</time>
      </trkpt>
      <trkpt lat="48.457038" lon="16.705756">
        <ele>281.490353</ele>
        <time>2020-07-01T06:02:49.967Z</time>
      </trkpt>
      <trkpt lat="48.457031" lon="16.705971">
        <ele>281.199443</ele>
        <time>2020-07-01T06:02:51.986Z</time>
      </trkpt>
      <trkpt lat="48.457017" lon="16.706181">
        <ele>280.914210</ele>
        <time>2020-07-01T06:02:53.977Z</time>
      </trkpt>
      <trkpt lat="48.457018" lon="16.706390">
        <ele>280.631752</ele>
        <time>2020-07-01T06:02:55.988Z</time>
      </trkpt>
      <trkpt lat="48.457013" lon="16.706595">
        <ele>280.354519</ele>
        <time>2020-07-01T06:02:57.988Z</time>
      </trkpt>
      <trkpt lat="48.457006" lon="16.706800">
        <ele>280.077107</ele>
        <time>2020-07-01T06:02:59.951Z</time>
      </trkpt>
      <trkpt lat="48.456996" lon="16.707003">
        <ele>279.802749</ele>
        <time>2020-07-01T06:03:01.987Z</time>
      </trkpt>
      <trkpt lat="48.456985" lon="16.707203">
        <ele>279.533705</ele>
        <time>2020-07-01T06:03:03.996Z</time>
      </trkpt>
      <trkpt lat="48.456973" lon="16.707404">
        <ele>279.263152</ele>
        <time>2020-07-01T06:03:05.981Z</time>
      </trkpt>
      <trkpt lat="48.456961" lon="16.707607">
        <ele>278.989928</ele>
        <time>2020-07-01T06:03:07.971Z</time>
      </trkpt>
      <trkpt lat="48.456951" lon="16.707814">
        <ele>278.711685</ele>
        <time>2020-07-01T06:03:09.989Z</time>
      </trkpt>
      <trkpt lat="48.456936" lon="16.708026">
        <ele>278.425861</ele>
        <time>2020-07-01T06:03:11.984Z</time>
      </trkpt>
      <trkpt lat="48.456922" lon="16.708239">
        <ele>278.138911</ele>
        <time>2020-07-01T06:03:13.987Z</time>
      </trkpt>
      <trkpt lat="48.456920" lon="16.708453">
        <ele>277.851990</ele>
        <time>2020-07-01T06:03:15.965Z</time>
      </trkpt>
      <trkpt lat="48.456923" lon="16.708669">
        <ele>277.562354</ele>
        <time>2020-07-01T06:03:17.985Z</time>
      </trkpt>
      <trkpt lat="48.456924" lon="16.708884">
        <ele>277.274114</ele>
        <time>2020-07-01T06:03:20.004Z</time>
      </trkpt>
      <trkpt lat="48.456924" lon="16.709101">
        <ele>276.983200</ele>
        <time>2020-07-01T06:03:21.964Z</time>
      </trkpt>
      <trkpt lat="48.456916" lon="16.709315">
        <ele>276.695852</ele>
        <time>2020-07-01T06:03:23.998Z</time>
      </trkpt>
      <trkpt lat="48.456911" lon="16.709521">
        <ele>276.419500</ele>
        <time>2020-07-01T06:03:25.988Z</time>
      </trkpt>
      <trkpt lat="48.456919" lon="16.709720">
        <ele>276.176735</ele>
        <time>2020-07-01T06:03:28.005Z</time>
      </trkpt>
      <trkpt lat="48.456937" lon="16.709916">
        <ele>275.972610</ele>
        <time>2020-07-01T06:03:30.018Z</time>
      </trkpt>
      <trkpt lat="48.456959" lon="16.710113">
        <ele>275.766522</ele>
        <time>2020-07-01T06:03:31.979Z</time>
      </trkpt>
      <trkpt lat="48.456985" lon="16.710314">
        <ele>275.555262</ele>
        <time>2020-07-01T06:03:33.991Z</time>
      </trkpt>
      <trkpt lat="48.457023" lon="16.710515">
        <ele>275.339648</ele>
        <time>2020-07-01T06:03:36.010Z</time>
      </trkpt>
      <trkpt lat="48.457051" lon="16.710715">
        <ele>275.128780</ele>
        <time>2020-07-01T06:03:37.957Z</time>
      </trkpt>
      <trkpt lat="48.457076" lon="16.710914">
        <ele>274.919840</ele>
        <time>2020-07-01T06:03:39.975Z</time>
      </trkpt>
      <trkpt lat="48.457097" lon="16.711113">
        <ele>274.711967</ele>
        <time>2020-07-01T06:03:41.965Z</time>
      </trkpt>
      <trkpt lat="48.457118" lon="16.711311">
        <ele>274.505114</ele>
        <time>2020-07-01T06:03:43.995Z</time>
      </trkpt>
      <trkpt lat="48.457131" lon="16.711511">
        <ele>274.297805</ele>
        <time>2020-07-01T06:03:45.969Z</time>
      </trkpt>
      <trkpt lat="48.457126" lon="16.711714">
        <ele>274.088245</ele>
        <time>2020-07-01T06:03:47.982Z</time>
      </trkpt>
      <trkpt lat="48.457107" lon="16.711918">
        <ele>273.875732</ele>
        <time>2020-07-01T06:03:50.004Z</time>
      </trkpt>
      <trkpt lat="48.457065" lon="16.712121">
        <ele>273.656362</ele>
        <time>2020-07-01T06:03:51.973Z</time>
      </trkpt>
      <trkpt lat="48.457000" lon="16.712315">
        <ele>273.441075</ele>
        <time>2020-07-01T06:03:54.010Z</time>
      </trkpt>
      <trkpt lat="48.456930" lon="16.712509">
        <ele>273.284553</ele>
        <time>2020-07-01T06:03:55.980Z</time>
      </trkpt>
      <trkpt lat="48.456859" lon="16.712702">
        <ele>273.128136</ele>
        <time>2020-07-01T06:03:57.976Z</time>
      </trkpt>
      <trkpt lat="48.456794" lon="16.712898">
        <ele>272.972829</ele>
        <time>2020-07-01T06:03:59.985Z</time>
      </trkpt>
      <trkpt lat="48.456724" lon="16.713087">
        <ele>272.819410</ele>
        <time>2020-07-01T06:04:01.960Z</time>
      </trkpt>
      <trkpt lat="48.456662" lon="16.713283">
        <ele>272.665509</ele>
        <time>2020-07-01T06:04:03.974Z</time>
      </trkpt>
      <trkpt lat="48.456654" lon="16.713499">
        <ele>272.512188</ele>
        <time>2020-07-01T06:04:05.968Z</time>
      </trkpt>
      <trkpt lat="48.456659" lon="16.713714">
        <ele>272.359721</ele>
        <time>2020-07-01T06:04:07.964Z</time>
      </trkpt>
      <trkpt lat="48.456665" lon="16.713929">
        <ele>272.207213</ele>
        <time>2020-07-01T06:04:09.974Z</time>
      </trkpt>
      <trkpt lat="48.456667" lon="16.714144">
        <ele>272.054824</ele>
        <time>2020-07-01T06:04:11.982Z</time>
      </trkpt>
      <trkpt lat="48.456669" lon="16.714355">
        <ele>271.905270</ele>
        <time>2020-07-01T06:04:13.967Z</time>
      </trkpt>
      <trkpt lat="48.456673" lon="16.714563">
        <ele>271.757796</ele>
        <time>2020-07-01T06:04:15.965Z</time>
      </trkpt>
      <trkpt lat="48.456676" lon="16.714767">
        <ele>271.613182</ele>
        <time>2020-07-01T06:04:17.970Z</time>
      </trkpt>
      <trkpt lat="48.456673" lon="16.714970">
        <ele>271.459474</ele>
        <time>2020-07-01T06:04:19.979Z</time>
      </trkpt>
      <trkpt lat="48.456677" lon="16.715169">
        <ele>271.298410</ele>
        <time>2020-07-01T06:04:21.963Z</time>
      </trkpt>
      <trkpt lat="48.456681" lon="16.715366">
        <ele>271.138964</ele>
        <time>2020-07-01T06:04:23.957Z</time>
      </trkpt>
      <trkpt lat="48.456681" lon="16.715558">
        <ele>270.983637</ele>
        <time>2020-07-01T06:04:25.973Z</time>
      </trkpt>
      <trkpt lat="48.456682" lon="16.715748">
        <ele>270.829923</ele>
        <time>2020-07-01T06:04:27.983Z</time>
      </trkpt>
      <trkpt lat="48.456689" lon="16.715941">
        <ele>270.673554</ele>
        <time>2020-07-01T06:04:29.989Z</time>
      </trkpt>
      <trkpt lat="48.456690" lon="16.716134">
        <ele>270.517414</ele>
        <time>2020-07-01T06:04:31.992Z</time>
      </trkpt>
      <trkpt lat="48.456691" lon="16.716327">
        <ele>270.361273</ele>
        <time>2020-07-01T06:04:33.998Z</time>
      </trkpt>
      <trkpt lat="48.456698" lon="16.716517">
        <ele>270.207327</ele>
        <time>2020-07-01T06:04:35.977Z</time>
      </trkpt>
      <trkpt lat="48.456743" lon="16.716688">
        <ele>270.058496</ele>
        <time>2020-07-01T06:04:37.977Z</time>
      </trkpt>
      <trkpt lat="48.456831" lon="16.716811">
        <ele>269.912124</ele>
        <time>2020-07-01T06:04:39.983Z</time>
      </trkpt>
      <trkpt lat="48.456935" lon="16.716939">
        <ele>269.748363</ele>
        <time>2020-07-01T06:04:41.966Z</time>
      </trkpt>
      <trkpt lat="48.456990" lon="16.717120">
        <ele>269.587297</ele>
        <time>2020-07-01T06:04:43.978Z</time>
      </trkpt>
      <trkpt lat="48.457005" lon="16.717307">
        <ele>269.434914</ele>
        <time>2020-07-01T06:04:45.979Z</time>
      </trkpt>
      <trkpt lat="48.457028" lon="16.717489">
        <ele>269.270639</ele>
        <time>2020-07-01T06:04:47.993Z</time>
      </trkpt>
      <trkpt lat="48.457052" lon="16.717671">
        <ele>269.084185</ele>
        <time>2020-07-01T06:04:49.987Z</time>
      </trkpt>
      <trkpt lat="48.457080" lon="16.717852">
        <ele>268.897433</ele>
        <time>2020-07-01T06:04:51.984Z</time>
      </trkpt>
      <trkpt lat="48.457105" lon="16.718031">
        <ele>268.713628</ele>
        <time>2020-07-01T06:04:53.995Z</time>
      </trkpt>
      <trkpt lat="48.457124" lon="16.718211">
        <ele>268.530487</ele>
        <time>2020-07-01T06:04:55.971Z</time>
      </trkpt>
      <trkpt lat="48.457146" lon="16.718388">
        <ele>268.349540</ele>
        <time>2020-07-01T06:04:57.983Z</time>
      </trkpt>
      <trkpt lat="48.457173" lon="16.718564">
        <ele>268.168025</ele>
        <time>2020-07-01T06:04:59.981Z</time>
      </trkpt>
      <trkpt lat="48.457197" lon="16.718736">
        <ele>267.991415</ele>
        <time>2020-07-01T06:05:01.967Z</time>
      </trkpt>
      <trkpt lat="48.457225" lon="16.718896">
        <ele>267.825144</ele>
        <time>2020-07-01T06:05:03.972Z</time>
      </trkpt>
      <trkpt lat="48.457287" lon="16.719032">
        <ele>267.659318</ele>
        <time>2020-07-01T06:05:05.970Z</time>
      </trkpt>
      <trkpt lat="48.457363" lon="16.719160">
        <ele>267.486688</ele>
        <time>2020-07-01T06:05:07.964Z</time>
      </trkpt>
      <trkpt lat="48.457438" lon="16.719310">
        <ele>267.297931</ele>
        <time>2020-07-01T06:05:09.968Z</time>
      </trkpt>
      <trkpt lat="48.457451" lon="16.719506">
        <ele>267.100009</ele>
        <time>2020-07-01T06:05:11.961Z</time>
      </trkpt>
      <trkpt lat="48.457428" lon="16.719702">
        <ele>266.900009</ele>
        <time>2020-07-01T06:05:13.962Z</time>
      </trkpt>
      <trkpt lat="48.457415" lon="16.719895">
        <ele>266.705086</ele>
        <time>2020-07-01T06:05:15.989Z</time>
      </trkpt>
      <trkpt lat="48.457402" lon="16.720088">
        <ele>266.518950</ele>
        <time>2020-07-01T06:05:17.991Z</time>
      </trkpt>
      <trkpt lat="48.457384" lon="16.720277">
        <ele>266.342541</ele>
        <time>2020-07-01T06:05:19.996Z</time>
      </trkpt>
      <trkpt lat="48.457374" lon="16.720466">
        <ele>266.167370</ele>
        <time>2020-07-01T06:05:21.997Z</time>
      </trkpt>
      <trkpt lat="48.457367" lon="16.720654">
        <ele>265.993403</ele>
        <time>2020-07-01T06:05:23.976Z</time>
      </trkpt>
      <trkpt lat="48.457364" lon="16.720839">
        <ele>265.822430</ele>
        <time>2020-07-01T06:05:25.989Z</time>
      </trkpt>
      <trkpt lat="48.457355" lon="16.721021">
        <ele>265.653814</ele>
        <time>2020-07-01T06:05:27.957Z</time>
      </trkpt>
      <trkpt lat="48.457351" lon="16.721199">
        <ele>265.489265</ele>
        <time>2020-07-01T06:05:29.979Z</time>
      </trkpt>
      <trkpt lat="48.457344" lon="16.721379">
        <ele>265.322678</ele>
        <time>2020-07-01T06:05:31.981Z</time>
      </trkpt>
      <trkpt lat="48.457334" lon="16.721559">
        <ele>265.155793</ele>
        <time>2020-07-01T06:05:33.999Z</time>
      </trkpt>
      <trkpt lat="48.457323" lon="16.721736">
        <ele>264.991546</ele>
        <time>2020-07-01T06:05:35.972Z</time>
      </trkpt>
      <trkpt lat="48.457306" lon="16.721910">
        <ele>264.829052</ele>
        <time>2020-07-01T06:05:37.999Z</time>
      </trkpt>
      <trkpt lat="48.457276" lon="16.722080">
        <ele>264.666524</ele>
        <time>2020-07-01T06:05:39.988Z</time>
      </trkpt>
      <trkpt lat="48.457244" lon="16.722250">
        <ele>264.503256</ele>
        <time>2020-07-01T06:05:41.977Z</time>
      </trkpt>
      <trkpt lat="48.457217" lon="16.722420">
        <ele>264.341751</ele>
        <time>2020-07-01T06:05:43.981Z</time>
      </trkpt>
      <trkpt lat="48.457180" lon="16.722592">
        <ele>264.174689</ele>
        <time>2020-07-01T06:05:45.992Z</time>
      </trkpt>
      <trkpt lat="48.457134" lon="16.722762">
        <ele>264.053341</ele>
        <time>2020-07-01T06:05:47.998Z</time>
      </trkpt>
      <trkpt lat="48.457092" lon="16.722939">
        <ele>263.956964</ele>
        <time>2020-07-01T06:05:49.974Z</time>
      </trkpt>
      <trkpt lat="48.457050" lon="16.723115">
        <ele>263.861068</ele>
        <time>2020-07-01T06:05:51.988Z</time>
      </trkpt>
      <trkpt lat="48.457006" lon="16.723291">
        <ele>263.764639</ele>
        <time>2020-07-01T06:05:53.972Z</time>
      </trkpt>
      <trkpt lat="48.456955" lon="16.723467">
        <ele>263.666170</ele>
        <time>2020-07-01T06:05:55.974Z</time>
      </trkpt>
      <trkpt lat="48.456906" lon="16.723647">
        <ele>263.566416</ele>
        <time>2020-07-01T06:05:57.978Z</time>
      </trkpt>
      <trkpt lat="48.456850" lon="16.723823">
        <ele>263.466337</ele>
        <time>2020-07-01T06:05:59.978Z</time>
      </trkpt>
      <trkpt lat="48.456806" lon="16.724005">
        <ele>263.367023</ele>
        <time>2020-07-01T06:06:01.997Z</time>
      </trkpt>
      <trkpt lat="48.456760" lon="16.724185">
        <ele>263.268126</ele>
        <time>2020-07-01T06:06:03.982Z</time>
      </trkpt>
      <trkpt lat="48.456719" lon="16.724367">
        <ele>263.169582</ele>
        <time>2020-07-01T06:06:05.971Z</time>
      </trkpt>
      <trkpt lat="48.456677" lon="16.724548">
        <ele>263.071270</ele>
        <time>2020-07-01T06:06:07.968Z</time>
      </trkpt>
      <trkpt lat="48.456637" lon="16.724727">
        <ele>262.974430</ele>
        <time>2020-07-01T06:06:09.974Z</time>
      </trkpt>
      <trkpt lat="48.456599" lon="16.724903">
        <ele>262.879537</ele>
        <time>2020-07-01T06:06:11.979Z</time>
      </trkpt>
      <trkpt lat="48.456567" lon="16.725077">
        <ele>262.786964</ele>
        <time>2020-07-01T06:06:13.978Z</time>
      </trkpt>
      <trkpt lat="48.456545" lon="16.725256">
        <ele>262.708490</ele>
        <time>2020-07-01T06:06:15.970Z</time>
      </trkpt>
      <trkpt lat="48.456525" lon="16.725436">
        <ele>262.662123</ele>
        <time>2020-07-01T06:06:17.970Z</time>
      </trkpt>
      <trkpt lat="48.456510" lon="16.725611">
        <ele>262.617295</ele>
        <time>2020-07-01T06:06:19.981Z</time>
      </trkpt>
      <trkpt lat="48.456510" lon="16.725784">
        <ele>262.573345</ele>
        <time>2020-07-01T06:06:21.989Z</time>
      </trkpt>
      <trkpt lat="48.456521" lon="16.725960">
        <ele>262.528434</ele>
        <time>2020-07-01T06:06:23.969Z</time>
      </trkpt>
      <trkpt lat="48.456530" lon="16.726134">
        <ele>262.484095</ele>
        <time>2020-07-01T06:06:25.976Z</time>
      </trkpt>
      <trkpt lat="48.456542" lon="16.726307">
        <ele>262.439905</ele>
        <time>2020-07-01T06:06:27.976Z</time>
      </trkpt>
      <trkpt lat="48.456560" lon="16.726476">
        <ele>262.396421</ele>
        <time>2020-07-01T06:06:29.961Z</time>
      </trkpt>
      <trkpt lat="48.456582" lon="16.726643">
        <ele>262.353166</ele>
        <time>2020-07-01T06:06:31.972Z</time>
      </trkpt>
      <trkpt lat="48.456602" lon="16.726815">
        <ele>262.308803</ele>
        <time>2020-07-01T06:06:33.979Z</time>
      </trkpt>
      <trkpt lat="48.456614" lon="16.726993">
        <ele>262.263349</ele>
        <time>2020-07-01T06:06:35.987Z</time>
      </trkpt>
      <trkpt lat="48.456624" lon="16.727165">
        <ele>262.219485</ele>
        <time>2020-07-01T06:06:37.979Z</time>
      </trkpt>
      <trkpt lat="48.456627" lon="16.727330">
        <ele>262.177552</ele>
        <time>2020-07-01T06:06:39.975Z</time>
      </trkpt>
      <trkpt lat="48.456624" lon="16.727500">
        <ele>262.134348</ele>
        <time>2020-07-01T06:06:41.970Z</time>
      </trkpt>
      <trkpt lat="48.456655" lon="16.727657">
        <ele>262.092732</ele>
        <time>2020-07-01T06:06:43.995Z</time>
      </trkpt>
      <trkpt lat="48.456746" lon="16.727740">
        <ele>262.051992</ele>
        <time>2020-07-01T06:06:45.969Z</time>
      </trkpt>
      <trkpt lat="48.456848" lon="16.727795">
        <ele>262.011553</ele>
        <time>2020-07-01T06:06:47.969Z</time>
      </trkpt>
      <trkpt lat="48.456965" lon="16.727827">
        <ele>261.968045</ele>
        <time>2020-07-01T06:06:49.977Z</time>
      </trkpt>
      <trkpt lat="48.457083" lon="16.727867">
        <ele>261.923792</ele>
        <time>2020-07-01T06:06:51.988Z</time>
      </trkpt>
      <trkpt lat="48.457194" lon="16.727907">
        <ele>261.882034</ele>
        <time>2020-07-01T06:06:54.002Z</time>
      </trkpt>
      <trkpt lat="48.457307" lon="16.727945">
        <ele>261.839673</ele>
        <time>2020-07-01T06:06:55.975Z</time>
      </trkpt>
      <trkpt lat="48.457428" lon="16.727976">
        <ele>261.794765</ele>
        <time>2020-07-01T06:06:57.990Z</time>
      </trkpt>
      <trkpt lat="48.457550" lon="16.728010">
        <ele>261.749370</ele>
        <time>2020-07-01T06:06:59.973Z</time>
      </trkpt>
      <trkpt lat="48.457672" lon="16.728034">
        <ele>261.704353</ele>
        <time>2020-07-01T06:07:01.976Z</time>
      </trkpt>
      <trkpt lat="48.457793" lon="16.728060">
        <ele>261.659633</ele>
        <time>2020-07-01T06:07:03.978Z</time>
      </trkpt>
      <trkpt lat="48.457906" lon="16.728101">
        <ele>261.617107</ele>
        <time>2020-07-01T06:07:05.988Z</time>
      </trkpt>
      <trkpt lat="48.458015" lon="16.728137">
        <ele>261.576280</ele>
        <time>2020-07-01T06:07:07.985Z</time>
      </trkpt>
      <trkpt lat="48.458126" lon="16.728174">
        <ele>261.534685</ele>
        <time>2020-07-01T06:07:09.992Z</time>
      </trkpt>
      <trkpt lat="48.458246" lon="16.728211">
        <ele>261.489869</ele>
        <time>2020-07-01T06:07:12.004Z</time>
      </trkpt>
      <trkpt lat="48.458364" lon="16.728248">
        <ele>261.445771</ele>
        <time>2020-07-01T06:07:13.992Z</time>
      </trkpt>
      <trkpt lat="48.458485" lon="16.728299">
        <ele>261.399801</ele>
        <time>2020-07-01T06:07:15.965Z</time>
      </trkpt>
      <trkpt lat="48.458599" lon="16.728356">
        <ele>261.382538</ele>
        <time>2020-07-01T06:07:17.993Z</time>
      </trkpt>
      <trkpt lat="48.458707" lon="16.728420">
        <ele>261.396414</ele>
        <time>2020-07-01T06:07:20.000Z</time>
      </trkpt>
      <trkpt lat="48.458814" lon="16.728494">
        <ele>261.410490</ele>
        <time>2020-07-01T06:07:21.989Z</time>
      </trkpt>
      <trkpt lat="48.458922" lon="16.728572">
        <ele>261.424809</ele>
        <time>2020-07-01T06:07:23.957Z</time>
      </trkpt>
      <trkpt lat="48.459025" lon="16.728649">
        <ele>261.438556</ele>
        <time>2020-07-01T06:07:25.977Z</time>
      </trkpt>
      <trkpt lat="48.459123" lon="16.728727">
        <ele>261.451807</ele>
        <time>2020-07-01T06:07:27.978Z</time>
      </trkpt>
      <trkpt lat="48.459211" lon="16.728808">
        <ele>261.464135</ele>
        <time>2020-07-01T06:07:30.000Z</time>
      </trkpt>
      <trkpt lat="48.459297" lon="16.728892">
        <ele>261.476388</ele>
        <time>2020-07-01T06:07:31.975Z</time>
      </trkpt>
      <trkpt lat="48.459385" lon="16.728973">
        <ele>261.488716</ele>
        <time>2020-07-01T06:07:33.987Z</time>
      </trkpt>
      <trkpt lat="48.459469" lon="16.729047">
        <ele>261.500349</ele>
        <time>2020-07-01T06:07:35.995Z</time>
      </trkpt>
      <trkpt lat="48.459559" lon="16.729130">
        <ele>261.512964</ele>
        <time>2020-07-01T06:07:37.980Z</time>
      </trkpt>
      <trkpt lat="48.459651" lon="16.729212">
        <ele>261.525743</ele>
        <time>2020-07-01T06:07:39.969Z</time>
      </trkpt>
      <trkpt lat="48.459742" lon="16.729297">
        <ele>261.538543</ele>
        <time>2020-07-01T06:07:41.972Z</time>
      </trkpt>
      <trkpt lat="48.459832" lon="16.729385">
        <ele>261.551369</ele>
        <time>2020-07-01T06:07:43.971Z</time>
      </trkpt>
      <trkpt lat="48.459923" lon="16.729468">
        <ele>261.564087</ele>
        <time>2020-07-01T06:07:45.980Z</time>
      </trkpt>
      <trkpt lat="48.460015" lon="16.729549">
        <ele>261.576826</ele>
        <time>2020-07-01T06:07:47.995Z</time>
      </trkpt>
      <trkpt lat="48.460112" lon="16.729630">
        <ele>261.590084</ele>
        <time>2020-07-01T06:07:49.974Z</time>
      </trkpt>
      <trkpt lat="48.460210" lon="16.729707">
        <ele>261.572239</ele>
        <time>2020-07-01T06:07:51.980Z</time>
      </trkpt>
      <trkpt lat="48.460314" lon="16.729794">
        <ele>261.550418</ele>
        <time>2020-07-01T06:07:53.975Z</time>
      </trkpt>
      <trkpt lat="48.460419" lon="16.729881">
        <ele>261.528437</ele>
        <time>2020-07-01T06:07:55.958Z</time>
      </trkpt>
      <trkpt lat="48.460523" lon="16.729969">
        <ele>261.506556</ele>
        <time>2020-07-01T06:07:57.980Z</time>
      </trkpt>
      <trkpt lat="48.460627" lon="16.730062">
        <ele>261.484372</ele>
        <time>2020-07-01T06:07:59.982Z</time>
      </trkpt>
      <trkpt lat="48.460731" lon="16.730155">
        <ele>261.462188</ele>
        <time>2020-07-01T06:08:01.984Z</time>
      </trkpt>
      <trkpt lat="48.460834" lon="16.730252">
        <ele>261.439908</ele>
        <time>2020-07-01T06:08:03.960Z</time>
      </trkpt>
      <trkpt lat="48.460941" lon="16.730341">
        <ele>261.417487</ele>
        <time>2020-07-01T06:08:05.989Z</time>
      </trkpt>
      <trkpt lat="48.461043" lon="16.730434">
        <ele>261.395618</ele>
        <time>2020-07-01T06:08:07.985Z</time>
      </trkpt>
      <trkpt lat="48.461147" lon="16.730517">
        <ele>261.374029</ele>
        <time>2020-07-01T06:08:09.984Z</time>
      </trkpt>
      <trkpt lat="48.461247" lon="16.730599">
        <ele>261.353144</ele>
        <time>2020-07-01T06:08:11.983Z</time>
      </trkpt>
      <trkpt lat="48.461340" lon="16.730686">
        <ele>261.333064</ele>
        <time>2020-07-01T06:08:13.981Z</time>
      </trkpt>
      <trkpt lat="48.461412" lon="16.730787">
        <ele>261.315022</ele>
        <time>2020-07-01T06:08:15.964Z</time>
      </trkpt>
      <trkpt lat="48.461370" lon="16.730959">
        <ele>261.292722</ele>
        <time>2020-07-01T06:08:18.991Z</time>
      </trkpt>
      <trkpt lat="48.461323" lon="16.731111">
        <ele>261.272317</ele>
        <time>2020-07-01T06:08:21.955Z</time>
      </trkpt>
      <trkpt lat="48.461410" lon="16.731199">
        <ele>261.219469</ele>
        <time>2020-07-01T06:08:24.992Z</time>
      </trkpt>
      <trkpt lat="48.461525" lon="16.731247">
        <ele>261.104843</ele>
        <time>2020-07-01T06:08:28.981Z</time>
      </trkpt>
      <trkpt lat="48.461626" lon="16.731313">
        <ele>260.999101</ele>
        <time>2020-07-01T06:08:31.976Z</time>
      </trkpt>
      <trkpt lat="48.461716" lon="16.731371">
        <ele>260.905081</ele>
        <time>2020-07-01T06:08:33.969Z</time>
      </trkpt>
      <trkpt lat="48.461805" lon="16.731456">
        <ele>260.803881</ele>
        <time>2020-07-01T06:08:35.969Z</time>
      </trkpt>
      <trkpt lat="48.461879" lon="16.731557">
        <ele>260.708002</ele>
        <time>2020-07-01T06:08:37.962Z</time>
      </trkpt>
      <trkpt lat="48.461947" lon="16.731671">
        <ele>260.610326</ele>
        <time>2020-07-01T06:08:40.012Z</time>
      </trkpt>
      <trkpt lat="48.462025" lon="16.731789">
        <ele>260.504191</ele>
        <time>2020-07-01T06:08:41.965Z</time>
      </trkpt>
      <trkpt lat="48.462097" lon="16.731901">
        <ele>260.404823</ele>
        <time>2020-07-01T06:08:43.976Z</time>
      </trkpt>
      <trkpt lat="48.462167" lon="16.732018">
        <ele>260.304441</ele>
        <time>2020-07-01T06:08:45.976Z</time>
      </trkpt>
      <trkpt lat="48.462232" lon="16.732135">
        <ele>260.207212</ele>
        <time>2020-07-01T06:08:47.976Z</time>
      </trkpt>
      <trkpt lat="48.462297" lon="16.732255">
        <ele>260.108509</ele>
        <time>2020-07-01T06:08:49.981Z</time>
      </trkpt>
      <trkpt lat="48.462358" lon="16.732378">
        <ele>260.010669</ele>
        <time>2020-07-01T06:08:51.968Z</time>
      </trkpt>
      <trkpt lat="48.462422" lon="16.732503">
        <ele>259.910070</ele>
        <time>2020-07-01T06:08:53.979Z</time>
      </trkpt>
      <trkpt lat="48.462486" lon="16.732627">
        <ele>259.809975</ele>
        <time>2020-07-01T06:08:55.987Z</time>
      </trkpt>
      <trkpt lat="48.462553" lon="16.732749">
        <ele>259.709069</ele>
        <time>2020-07-01T06:08:57.981Z</time>
      </trkpt>
      <trkpt lat="48.462616" lon="16.732882">
        <ele>259.604951</ele>
        <time>2020-07-01T06:08:59.973Z</time>
      </trkpt>
      <trkpt lat="48.462680" lon="16.733010">
        <ele>259.540335</ele>
        <time>2020-07-01T06:09:01.979Z</time>
      </trkpt>
      <trkpt lat="48.462744" lon="16.733140">
        <ele>259.564567</ele>
        <time>2020-07-01T06:09:03.993Z</time>
      </trkpt>
      <trkpt lat="48.462810" lon="16.733269">
        <ele>259.588952</ele>
        <time>2020-07-01T06:09:06.003Z</time>
      </trkpt>
      <trkpt lat="48.462876" lon="16.733390">
        <ele>259.612400</ele>
        <time>2020-07-01T06:09:07.985Z</time>
      </trkpt>
      <trkpt lat="48.462944" lon="16.733515">
        <ele>259.636598</ele>
        <time>2020-07-01T06:09:09.972Z</time>
      </trkpt>
      <trkpt lat="48.463013" lon="16.733644">
        <ele>259.661402</ele>
        <time>2020-07-01T06:09:11.985Z</time>
      </trkpt>
      <trkpt lat="48.463079" lon="16.733775">
        <ele>259.686024</ele>
        <time>2020-07-01T06:09:13.975Z</time>
      </trkpt>
      <trkpt lat="48.463147" lon="16.733906">
        <ele>259.710923</ele>
        <time>2020-07-01T06:09:15.979Z</time>
      </trkpt>
      <trkpt lat="48.463214" lon="16.734035">
        <ele>259.735446</ele>
        <time>2020-07-01T06:09:17.974Z</time>
      </trkpt>
      <trkpt lat="48.463281" lon="16.734163">
        <ele>259.759852</ele>
        <time>2020-07-01T06:09:19.955Z</time>
      </trkpt>
      <trkpt lat="48.463348" lon="16.734292">
        <ele>259.784375</ele>
        <time>2020-07-01T06:09:22.001Z</time>
      </trkpt>
      <trkpt lat="48.463415" lon="16.734420">
        <ele>259.808780</ele>
        <time>2020-07-01T06:09:23.985Z</time>
      </trkpt>
      <trkpt lat="48.463486" lon="16.734551">
        <ele>259.834101</ele>
        <time>2020-07-01T06:09:26.018Z</time>
      </trkpt>
      <trkpt lat="48.463546" lon="16.734700">
        <ele>259.860190</ele>
        <time>2020-07-01T06:09:27.989Z</time>
      </trkpt>
      <trkpt lat="48.463579" lon="16.734872">
        <ele>259.886988</ele>
        <time>2020-07-01T06:09:29.987Z</time>
      </trkpt>
      <trkpt lat="48.463612" lon="16.735040">
        <ele>259.913210</ele>
        <time>2020-07-01T06:09:31.984Z</time>
      </trkpt>
      <trkpt lat="48.463643" lon="16.735186">
        <ele>259.936153</ele>
        <time>2020-07-01T06:09:33.966Z</time>
      </trkpt>
      <trkpt lat="48.463681" lon="16.735339">
        <ele>259.975716</ele>
        <time>2020-07-01T06:09:36.971Z</time>
      </trkpt>
      <trkpt lat="48.463705" lon="16.735507">
        <ele>260.019549</ele>
        <time>2020-07-01T06:09:41.960Z</time>
      </trkpt>
      <trkpt lat="48.463745" lon="16.735630">
        <ele>260.054492</ele>
        <time>2020-07-01T06:09:44.971Z</time>
      </trkpt>
      <trkpt lat="48.463795" lon="16.735786">
        <ele>260.098686</ele>
        <time>2020-07-01T06:09:47.981Z</time>
      </trkpt>
      <trkpt lat="48.463833" lon="16.735973">
        <ele>260.148572</ele>
        <time>2020-07-01T06:09:50.978Z</time>
      </trkpt>
      <trkpt lat="48.463863" lon="16.736104">
        <ele>260.183922</ele>
        <time>2020-07-01T06:09:52.959Z</time>
      </trkpt>
      <trkpt lat="48.463890" lon="16.736242">
        <ele>260.220621</ele>
        <time>2020-07-01T06:09:54.969Z</time>
      </trkpt>
      <trkpt lat="48.463915" lon="16.736390">
        <ele>260.259576</ele>
        <time>2020-07-01T06:09:56.966Z</time>
      </trkpt>
      <trkpt lat="48.463936" lon="16.736544">
        <ele>260.299677</ele>
        <time>2020-07-01T06:09:58.984Z</time>
      </trkpt>
      <trkpt lat="48.463960" lon="16.736696">
        <ele>260.339530</ele>
        <time>2020-07-01T06:10:00.988Z</time>
      </trkpt>
      <trkpt lat="48.463983" lon="16.736855">
        <ele>260.381039</ele>
        <time>2020-07-01T06:10:02.953Z</time>
      </trkpt>
      <trkpt lat="48.464006" lon="16.737018">
        <ele>260.423545</ele>
        <time>2020-07-01T06:10:04.971Z</time>
      </trkpt>
      <trkpt lat="48.464029" lon="16.737181">
        <ele>260.466051</ele>
        <time>2020-07-01T06:10:06.975Z</time>
      </trkpt>
      <trkpt lat="48.464049" lon="16.737346">
        <ele>260.508833</ele>
        <time>2020-07-01T06:10:08.985Z</time>
      </trkpt>
      <trkpt lat="48.464069" lon="16.737511">
        <ele>260.551616</ele>
        <time>2020-07-01T06:10:10.974Z</time>
      </trkpt>
      <trkpt lat="48.464087" lon="16.737671">
        <ele>260.593009</ele>
        <time>2020-07-01T06:10:12.975Z</time>
      </trkpt>
      <trkpt lat="48.464103" lon="16.737831">
        <ele>260.631867</ele>
        <time>2020-07-01T06:10:14.960Z</time>
      </trkpt>
      <trkpt lat="48.464120" lon="16.737995">
        <ele>260.642988</ele>
        <time>2020-07-01T06:10:16.970Z</time>
      </trkpt>
      <trkpt lat="48.464136" lon="16.738157">
        <ele>260.653961</ele>
        <time>2020-07-01T06:10:18.988Z</time>
      </trkpt>
      <trkpt lat="48.464154" lon="16.738314">
        <ele>260.664635</ele>
        <time>2020-07-01T06:10:20.969Z</time>
      </trkpt>
      <trkpt lat="48.464178" lon="16.738480">
        <ele>260.676018</ele>
        <time>2020-07-01T06:10:22.962Z</time>
      </trkpt>
      <trkpt lat="48.464201" lon="16.738651">
        <ele>260.687708</ele>
        <time>2020-07-01T06:10:24.956Z</time>
      </trkpt>
      <trkpt lat="48.464214" lon="16.738818">
        <ele>260.698973</ele>
        <time>2020-07-01T06:10:26.981Z</time>
      </trkpt>
      <trkpt lat="48.464225" lon="16.738982">
        <ele>260.710016</ele>
        <time>2020-07-01T06:10:28.966Z</time>
      </trkpt>
      <trkpt lat="48.464237" lon="16.739150">
        <ele>260.721337</ele>
        <time>2020-07-01T06:10:31.000Z</time>
      </trkpt>
      <trkpt lat="48.464256" lon="16.739317">
        <ele>260.732689</ele>
        <time>2020-07-01T06:10:32.970Z</time>
      </trkpt>
      <trkpt lat="48.464274" lon="16.739483">
        <ele>260.743958</ele>
        <time>2020-07-01T06:10:35.001Z</time>
      </trkpt>
      <trkpt lat="48.464279" lon="16.739652">
        <ele>260.755291</ele>
        <time>2020-07-01T06:10:36.999Z</time>
      </trkpt>
      <trkpt lat="48.464276" lon="16.739821">
        <ele>260.766618</ele>
        <time>2020-07-01T06:10:38.991Z</time>
      </trkpt>
      <trkpt lat="48.464273" lon="16.739985">
        <ele>260.777609</ele>
        <time>2020-07-01T06:10:40.982Z</time>
      </trkpt>
      <trkpt lat="48.464264" lon="16.740147">
        <ele>260.788501</ele>
        <time>2020-07-01T06:10:42.983Z</time>
      </trkpt>
      <trkpt lat="48.464260" lon="16.740313">
        <ele>260.799630</ele>
        <time>2020-07-01T06:10:44.995Z</time>
      </trkpt>
      <trkpt lat="48.464253" lon="16.740476">
        <ele>260.810573</ele>
        <time>2020-07-01T06:10:47.008Z</time>
      </trkpt>
      <trkpt lat="48.464245" lon="16.740641">
        <ele>260.789019</ele>
        <time>2020-07-01T06:10:48.979Z</time>
      </trkpt>
      <trkpt lat="48.464238" lon="16.740805">
        <ele>260.759745</ele>
        <time>2020-07-01T06:10:51.010Z</time>
      </trkpt>
      <trkpt lat="48.464230" lon="16.740960">
        <ele>260.732052</ele>
        <time>2020-07-01T06:10:52.974Z</time>
      </trkpt>
      <trkpt lat="48.464217" lon="16.741099">
        <ele>260.707046</ele>
        <time>2020-07-01T06:10:55.004Z</time>
      </trkpt>
      <trkpt lat="48.464198" lon="16.741274">
        <ele>260.675459</ele>
        <time>2020-07-01T06:10:57.997Z</time>
      </trkpt>
      <trkpt lat="48.464188" lon="16.741468">
        <ele>260.640797</ele>
        <time>2020-07-01T06:11:00.994Z</time>
      </trkpt>
      <trkpt lat="48.464175" lon="16.741667">
        <ele>260.605178</ele>
        <time>2020-07-01T06:11:03.982Z</time>
      </trkpt>
      <trkpt lat="48.464171" lon="16.741803">
        <ele>260.580928</ele>
        <time>2020-07-01T06:11:05.999Z</time>
      </trkpt>
      <trkpt lat="48.464170" lon="16.741938">
        <ele>260.556879</ele>
        <time>2020-07-01T06:11:07.969Z</time>
      </trkpt>
      <trkpt lat="48.464163" lon="16.742079">
        <ele>260.531692</ele>
        <time>2020-07-01T06:11:09.999Z</time>
      </trkpt>
      <trkpt lat="48.464158" lon="16.742216">
        <ele>260.507252</ele>
        <time>2020-07-01T06:11:11.960Z</time>
      </trkpt>
      <trkpt lat="48.464138" lon="16.742350">
        <ele>260.482785</ele>
        <time>2020-07-01T06:11:13.965Z</time>
      </trkpt>
      <trkpt lat="48.464133" lon="16.742494">
        <ele>260.457099</ele>
        <time>2020-07-01T06:11:15.996Z</time>
      </trkpt>
      <trkpt lat="48.464127" lon="16.742649">
        <ele>260.429442</ele>
        <time>2020-07-01T06:11:17.969Z</time>
      </trkpt>
      <trkpt lat="48.464121" lon="16.742799">
        <ele>260.402674</ele>
        <time>2020-07-01T06:11:19.983Z</time>
      </trkpt>
      <trkpt lat="48.464110" lon="16.742945">
        <ele>260.376499</ele>
        <time>2020-07-01T06:11:21.985Z</time>
      </trkpt>
      <trkpt lat="48.464093" lon="16.743100">
        <ele>260.348514</ele>
        <time>2020-07-01T06:11:23.986Z</time>
      </trkpt>
      <trkpt lat="48.464068" lon="16.743254">
        <ele>260.325371</ele>
        <time>2020-07-01T06:11:25.969Z</time>
      </trkpt>
      <trkpt lat="48.464044" lon="16.743408">
        <ele>260.312674</ele>
        <time>2020-07-01T06:11:27.975Z</time>
      </trkpt>
      <trkpt lat="48.464018" lon="16.743559">
        <ele>260.300152</ele>
        <time>2020-07-01T06:11:29.951Z</time>
      </trkpt>
      <trkpt lat="48.463993" lon="16.743713">
        <ele>260.287426</ele>
        <time>2020-07-01T06:11:31.969Z</time>
      </trkpt>
      <trkpt lat="48.463969" lon="16.743871">
        <ele>260.274415</ele>
        <time>2020-07-01T06:11:33.963Z</time>
      </trkpt>
      <trkpt lat="48.463943" lon="16.744030">
        <ele>260.261271</ele>
        <time>2020-07-01T06:11:35.990Z</time>
      </trkpt>
      <trkpt lat="48.463919" lon="16.744194">
        <ele>260.247790</ele>
        <time>2020-07-01T06:11:37.978Z</time>
      </trkpt>
      <trkpt lat="48.463905" lon="16.744360">
        <ele>260.234359</ele>
        <time>2020-07-01T06:11:39.987Z</time>
      </trkpt>
      <trkpt lat="48.463900" lon="16.744527">
        <ele>260.220941</ele>
        <time>2020-07-01T06:11:41.957Z</time>
      </trkpt>
      <trkpt lat="48.463902" lon="16.744690">
        <ele>260.207855</ele>
        <time>2020-07-01T06:11:43.969Z</time>
      </trkpt>
      <trkpt lat="48.463910" lon="16.744850">
        <ele>260.194976</ele>
        <time>2020-07-01T06:11:45.970Z</time>
      </trkpt>
      <trkpt lat="48.463922" lon="16.745005">
        <ele>260.182450</ele>
        <time>2020-07-01T06:11:47.969Z</time>
      </trkpt>
      <trkpt lat="48.463927" lon="16.745165">
        <ele>260.169594</ele>
        <time>2020-07-01T06:11:49.996Z</time>
      </trkpt>
      <trkpt lat="48.463934" lon="16.745336">
        <ele>260.155842</ele>
        <time>2020-07-01T06:11:51.986Z</time>
      </trkpt>
      <trkpt lat="48.463942" lon="16.745501">
        <ele>260.142563</ele>
        <time>2020-07-01T06:11:53.988Z</time>
      </trkpt>
      <trkpt lat="48.463947" lon="16.745660">
        <ele>260.129786</ele>
        <time>2020-07-01T06:11:55.992Z</time>
      </trkpt>
      <trkpt lat="48.463947" lon="16.745814">
        <ele>260.117425</ele>
        <time>2020-07-01T06:11:57.981Z</time>
      </trkpt>
      <trkpt lat="48.463952" lon="16.745974">
        <ele>260.103707</ele>
        <time>2020-07-01T06:11:59.983Z</time>
      </trkpt>
      <trkpt lat="48.463964" lon="16.746128">
        <ele>260.089785</ele>
        <time>2020-07-01T06:12:01.978Z</time>
      </trkpt>
      <trkpt lat="48.463977" lon="16.746291">
        <ele>260.075045</ele>
        <time>2020-07-01T06:12:03.997Z</time>
      </trkpt>
      <trkpt lat="48.463987" lon="16.746463">
        <ele>260.059543</ele>
        <time>2020-07-01T06:12:05.973Z</time>
      </trkpt>
      <trkpt lat="48.463997" lon="16.746631">
        <ele>260.044399</ele>
        <time>2020-07-01T06:12:07.988Z</time>
      </trkpt>
      <trkpt lat="48.464007" lon="16.746800">
        <ele>260.029165</ele>
        <time>2020-07-01T06:12:10.023Z</time>
      </trkpt>
      <trkpt lat="48.464023" lon="16.746973">
        <ele>260.013482</ele>
        <time>2020-07-01T06:12:11.956Z</time>
      </trkpt>
      <trkpt lat="48.464035" lon="16.747142">
        <ele>259.998222</ele>
        <time>2020-07-01T06:12:13.978Z</time>
      </trkpt>
      <trkpt lat="48.464047" lon="16.747310">
        <ele>259.983051</ele>
        <time>2020-07-01T06:12:16.001Z</time>
      </trkpt>
      <trkpt lat="48.464056" lon="16.747481">
        <ele>259.967650</ele>
        <time>2020-07-01T06:12:18.003Z</time>
      </trkpt>
      <trkpt lat="48.464063" lon="16.747654">
        <ele>259.952088</ele>
        <time>2020-07-01T06:12:19.976Z</time>
      </trkpt>
      <trkpt lat="48.464073" lon="16.747826">
        <ele>259.936586</ele>
        <time>2020-07-01T06:12:22.000Z</time>
      </trkpt>
      <trkpt lat="48.464081" lon="16.748000">
        <ele>259.920926</ele>
        <time>2020-07-01T06:12:23.966Z</time>
      </trkpt>
      <trkpt lat="48.464091" lon="16.748172">
        <ele>259.905424</ele>
        <time>2020-07-01T06:12:25.990Z</time>
      </trkpt>
      <trkpt lat="48.464100" lon="16.748346">
        <ele>259.889754</ele>
        <time>2020-07-01T06:12:27.978Z</time>
      </trkpt>
      <trkpt lat="48.464111" lon="16.748521">
        <ele>259.873972</ele>
        <time>2020-07-01T06:12:29.979Z</time>
      </trkpt>
      <trkpt lat="48.464126" lon="16.748697">
        <ele>259.397295</ele>
        <time>2020-07-01T06:12:31.968Z</time>
      </trkpt>
      <trkpt lat="48.464153" lon="16.748875">
        <ele>258.644122</ele>
        <time>2020-07-01T06:12:33.977Z</time>
      </trkpt>
      <trkpt lat="48.464172" lon="16.749055">
        <ele>257.892317</ele>
        <time>2020-07-01T06:12:36.002Z</time>
      </trkpt>
      <trkpt lat="48.464177" lon="16.749234">
        <ele>257.153331</ele>
        <time>2020-07-01T06:12:37.984Z</time>
      </trkpt>
      <trkpt lat="48.464181" lon="16.749415">
        <ele>256.406335</ele>
        <time>2020-07-01T06:12:39.967Z</time>
      </trkpt>
      <trkpt lat="48.464187" lon="16.749593">
        <ele>255.671180</ele>
        <time>2020-07-01T06:12:41.972Z</time>
      </trkpt>
      <trkpt lat="48.464198" lon="16.749772">
        <ele>254.929685</ele>
        <time>2020-07-01T06:12:43.960Z</time>
      </trkpt>
      <trkpt lat="48.464210" lon="16.749953">
        <ele>254.179382</ele>
        <time>2020-07-01T06:12:45.960Z</time>
      </trkpt>
      <trkpt lat="48.464226" lon="16.750137">
        <ele>253.413929</ele>
        <time>2020-07-01T06:12:47.960Z</time>
      </trkpt>
      <trkpt lat="48.464233" lon="16.750322">
        <ele>252.649608</ele>
        <time>2020-07-01T06:12:49.964Z</time>
      </trkpt>
      <trkpt lat="48.464242" lon="16.750511">
        <ele>251.868022</ele>
        <time>2020-07-01T06:12:52.002Z</time>
      </trkpt>
      <trkpt lat="48.464251" lon="16.750699">
        <ele>251.090550</ele>
        <time>2020-07-01T06:12:53.969Z</time>
      </trkpt>
      <trkpt lat="48.464261" lon="16.750883">
        <ele>250.329051</ele>
        <time>2020-07-01T06:12:55.999Z</time>
      </trkpt>
      <trkpt lat="48.464271" lon="16.751065">
        <ele>249.575774</ele>
        <time>2020-07-01T06:12:57.977Z</time>
      </trkpt>
      <trkpt lat="48.464279" lon="16.751246">
        <ele>248.827538</ele>
        <time>2020-07-01T06:12:59.966Z</time>
      </trkpt>
      <trkpt lat="48.464284" lon="16.751428">
        <ele>246.903110</ele>
        <time>2020-07-01T06:13:01.972Z</time>
      </trkpt>
      <trkpt lat="48.464293" lon="16.751606">
        <ele>244.735714</ele>
        <time>2020-07-01T06:13:04.008Z</time>
      </trkpt>
      <trkpt lat="48.464307" lon="16.751776">
        <ele>242.655864</ele>
        <time>2020-07-01T06:13:05.977Z</time>
      </trkpt>
      <trkpt lat="48.464322" lon="16.751901">
        <ele>241.113570</ele>
        <time>2020-07-01T06:13:20.966Z</time>
      </trkpt>
      <trkpt lat="48.464273" lon="16.752031">
        <ele>239.298045</ele>
        <time>2020-07-01T06:20:54.988Z</time>
      </trkpt>
      <trkpt lat="48.464281" lon="16.752176">
        <ele>237.531496</ele>
        <time>2020-07-01T06:20:57.988Z</time>
      </trkpt>
      <trkpt lat="48.464293" lon="16.752343">
        <ele>235.492055</ele>
        <time>2020-07-01T06:21:00.974Z</time>
      </trkpt>
      <trkpt lat="48.464312" lon="16.752515">
        <ele>233.375001</ele>
        <time>2020-07-01T06:21:04.002Z</time>
      </trkpt>
      <trkpt lat="48.464333" lon="16.752704">
        <ele>231.048335</ele>
        <time>2020-07-01T06:21:07.004Z</time>
      </trkpt>
      <trkpt lat="48.464357" lon="16.752886">
        <ele>228.795378</ele>
        <time>2020-07-01T06:21:09.991Z</time>
      </trkpt>
      <trkpt lat="48.464373" lon="16.753087">
        <ele>226.337491</ele>
        <time>2020-07-01T06:21:12.995Z</time>
      </trkpt>
      <trkpt lat="48.464386" lon="16.753240">
        <ele>224.464712</ele>
        <time>2020-07-01T06:21:14.988Z</time>
      </trkpt>
      <trkpt lat="48.464411" lon="16.753396">
        <ele>222.516168</ele>
        <time>2020-07-01T06:21:17.002Z</time>
      </trkpt>
      <trkpt lat="48.464440" lon="16.753554">
        <ele>220.525740</ele>
        <time>2020-07-01T06:21:18.994Z</time>
      </trkpt>
      <trkpt lat="48.464469" lon="16.753708">
        <ele>218.582074</ele>
        <time>2020-07-01T06:21:21.001Z</time>
      </trkpt>
      <trkpt lat="48.464495" lon="16.753862">
        <ele>216.652691</ele>
        <time>2020-07-01T06:21:22.999Z</time>
      </trkpt>
      <trkpt lat="48.464522" lon="16.754010">
        <ele>215.698403</ele>
        <time>2020-07-01T06:21:24.991Z</time>
      </trkpt>
      <trkpt lat="48.464555" lon="16.754155">
        <ele>215.604766</ele>
        <time>2020-07-01T06:21:26.965Z</time>
      </trkpt>
      <trkpt lat="48.464594" lon="16.754292">
        <ele>215.513701</ele>
        <time>2020-07-01T06:21:28.962Z</time>
      </trkpt>
      <trkpt lat="48.464637" lon="16.754431">
        <ele>215.420016</ele>
        <time>2020-07-01T06:21:30.972Z</time>
      </trkpt>
      <trkpt lat="48.464679" lon="16.754579">
        <ele>215.321688</ele>
        <time>2020-07-01T06:21:32.977Z</time>
      </trkpt>
      <trkpt lat="48.464723" lon="16.754729">
        <ele>215.221504</ele>
        <time>2020-07-01T06:21:34.985Z</time>
      </trkpt>
      <trkpt lat="48.464772" lon="16.754881">
        <ele>215.118273</ele>
        <time>2020-07-01T06:21:36.988Z</time>
      </trkpt>
      <trkpt lat="48.464824" lon="16.755035">
        <ele>215.012717</ele>
        <time>2020-07-01T06:21:38.977Z</time>
      </trkpt>
      <trkpt lat="48.464878" lon="16.755191">
        <ele>214.905232</ele>
        <time>2020-07-01T06:21:40.965Z</time>
      </trkpt>
      <trkpt lat="48.464933" lon="16.755349">
        <ele>214.796237</ele>
        <time>2020-07-01T06:21:42.987Z</time>
      </trkpt>
      <trkpt lat="48.464990" lon="16.755513">
        <ele>214.683140</ele>
        <time>2020-07-01T06:21:44.970Z</time>
      </trkpt>
      <trkpt lat="48.465042" lon="16.755673">
        <ele>214.574307</ele>
        <time>2020-07-01T06:21:46.970Z</time>
      </trkpt>
      <trkpt lat="48.465095" lon="16.755832">
        <ele>214.465611</ele>
        <time>2020-07-01T06:21:48.974Z</time>
      </trkpt>
      <trkpt lat="48.465154" lon="16.755982">
        <ele>214.359086</ele>
        <time>2020-07-01T06:21:50.970Z</time>
      </trkpt>
      <trkpt lat="48.465213" lon="16.756133">
        <ele>214.252035</ele>
        <time>2020-07-01T06:21:52.983Z</time>
      </trkpt>
      <trkpt lat="48.465273" lon="16.756282">
        <ele>214.145560</ele>
        <time>2020-07-01T06:21:54.961Z</time>
      </trkpt>
      <trkpt lat="48.465333" lon="16.756428">
        <ele>214.060456</ele>
        <time>2020-07-01T06:21:56.964Z</time>
      </trkpt>
      <trkpt lat="48.465390" lon="16.756578">
        <ele>213.997446</ele>
        <time>2020-07-01T06:21:58.968Z</time>
      </trkpt>
      <trkpt lat="48.465445" lon="16.756730">
        <ele>213.934337</ele>
        <time>2020-07-01T06:22:00.993Z</time>
      </trkpt>
      <trkpt lat="48.465497" lon="16.756885">
        <ele>213.871027</ele>
        <time>2020-07-01T06:22:02.992Z</time>
      </trkpt>
      <trkpt lat="48.465545" lon="16.757047">
        <ele>213.806358</ele>
        <time>2020-07-01T06:22:04.970Z</time>
      </trkpt>
      <trkpt lat="48.465590" lon="16.757206">
        <ele>213.743351</ele>
        <time>2020-07-01T06:22:06.983Z</time>
      </trkpt>
      <trkpt lat="48.465630" lon="16.757359">
        <ele>213.683411</ele>
        <time>2020-07-01T06:22:08.962Z</time>
      </trkpt>
      <trkpt lat="48.465669" lon="16.757515">
        <ele>213.622649</ele>
        <time>2020-07-01T06:22:10.991Z</time>
      </trkpt>
      <trkpt lat="48.465707" lon="16.757664">
        <ele>213.564467</ele>
        <time>2020-07-01T06:22:12.989Z</time>
      </trkpt>
      <trkpt lat="48.465746" lon="16.757819">
        <ele>213.504046</ele>
        <time>2020-07-01T06:22:15.012Z</time>
      </trkpt>
      <trkpt lat="48.465785" lon="16.757975">
        <ele>213.443284</ele>
        <time>2020-07-01T06:22:16.984Z</time>
      </trkpt>
      <trkpt lat="48.465827" lon="16.758128">
        <ele>213.382932</ele>
        <time>2020-07-01T06:22:18.989Z</time>
      </trkpt>
      <trkpt lat="48.465867" lon="16.758281">
        <ele>213.322993</ele>
        <time>2020-07-01T06:22:20.970Z</time>
      </trkpt>
      <trkpt lat="48.465907" lon="16.758439">
        <ele>213.261354</ele>
        <time>2020-07-01T06:22:22.975Z</time>
      </trkpt>
      <trkpt lat="48.465940" lon="16.758602">
        <ele>213.199241</ele>
        <time>2020-07-01T06:22:25.003Z</time>
      </trkpt>
      <trkpt lat="48.465969" lon="16.758769">
        <ele>213.136324</ele>
        <time>2020-07-01T06:22:26.969Z</time>
      </trkpt>
      <trkpt lat="48.465995" lon="16.758941">
        <ele>213.080909</ele>
        <time>2020-07-01T06:22:28.985Z</time>
      </trkpt>
      <trkpt lat="48.466021" lon="16.759111">
        <ele>213.036719</ele>
        <time>2020-07-01T06:22:30.971Z</time>
      </trkpt>
      <trkpt lat="48.466048" lon="16.759278">
        <ele>212.993181</ele>
        <time>2020-07-01T06:22:32.969Z</time>
      </trkpt>
      <trkpt lat="48.466075" lon="16.759432">
        <ele>212.952835</ele>
        <time>2020-07-01T06:22:34.966Z</time>
      </trkpt>
      <trkpt lat="48.466101" lon="16.759597">
        <ele>212.909879</ele>
        <time>2020-07-01T06:22:36.978Z</time>
      </trkpt>
      <trkpt lat="48.466126" lon="16.759763">
        <ele>212.866763</ele>
        <time>2020-07-01T06:22:38.979Z</time>
      </trkpt>
      <trkpt lat="48.466151" lon="16.759929">
        <ele>212.823647</ele>
        <time>2020-07-01T06:22:41.001Z</time>
      </trkpt>
      <trkpt lat="48.466176" lon="16.760094">
        <ele>212.780777</ele>
        <time>2020-07-01T06:22:42.964Z</time>
      </trkpt>
      <trkpt lat="48.466194" lon="16.760263">
        <ele>212.737424</ele>
        <time>2020-07-01T06:22:44.998Z</time>
      </trkpt>
      <trkpt lat="48.466211" lon="16.760433">
        <ele>212.693878</ele>
        <time>2020-07-01T06:22:46.979Z</time>
      </trkpt>
      <trkpt lat="48.466229" lon="16.760595">
        <ele>212.652274</ele>
        <time>2020-07-01T06:22:48.973Z</time>
      </trkpt>
      <trkpt lat="48.466237" lon="16.760755">
        <ele>212.611633</ele>
        <time>2020-07-01T06:22:51.002Z</time>
      </trkpt>
      <trkpt lat="48.466250" lon="16.760927">
        <ele>212.567786</ele>
        <time>2020-07-01T06:22:52.968Z</time>
      </trkpt>
      <trkpt lat="48.466266" lon="16.761106">
        <ele>212.522038</ele>
        <time>2020-07-01T06:22:55.023Z</time>
      </trkpt>
      <trkpt lat="48.466276" lon="16.761286">
        <ele>212.476288</ele>
        <time>2020-07-01T06:22:56.997Z</time>
      </trkpt>
      <trkpt lat="48.466286" lon="16.761464">
        <ele>212.431041</ele>
        <time>2020-07-01T06:22:59.017Z</time>
      </trkpt>
      <trkpt lat="48.466287" lon="16.761630">
        <ele>212.396096</ele>
        <time>2020-07-01T06:23:00.978Z</time>
      </trkpt>
      <trkpt lat="48.466284" lon="16.761808">
        <ele>212.363770</ele>
        <time>2020-07-01T06:23:02.978Z</time>
      </trkpt>
      <trkpt lat="48.466283" lon="16.761982">
        <ele>212.332179</ele>
        <time>2020-07-01T06:23:04.998Z</time>
      </trkpt>
      <trkpt lat="48.466284" lon="16.762154">
        <ele>212.300952</ele>
        <time>2020-07-01T06:23:06.982Z</time>
      </trkpt>
      <trkpt lat="48.466280" lon="16.762320">
        <ele>212.270794</ele>
        <time>2020-07-01T06:23:08.970Z</time>
      </trkpt>
      <trkpt lat="48.466277" lon="16.762489">
        <ele>212.240101</ele>
        <time>2020-07-01T06:23:10.968Z</time>
      </trkpt>
      <trkpt lat="48.466275" lon="16.762655">
        <ele>212.209959</ele>
        <time>2020-07-01T06:23:13.022Z</time>
      </trkpt>
      <trkpt lat="48.466273" lon="16.762825">
        <ele>212.179091</ele>
        <time>2020-07-01T06:23:14.990Z</time>
      </trkpt>
      <trkpt lat="48.466268" lon="16.762998">
        <ele>212.147653</ele>
        <time>2020-07-01T06:23:17.003Z</time>
      </trkpt>
      <trkpt lat="48.466259" lon="16.763168">
        <ele>212.116691</ele>
        <time>2020-07-01T06:23:18.974Z</time>
      </trkpt>
      <trkpt lat="48.466248" lon="16.763341">
        <ele>212.085139</ele>
        <time>2020-07-01T06:23:20.998Z</time>
      </trkpt>
      <trkpt lat="48.466227" lon="16.763501">
        <ele>212.055528</ele>
        <time>2020-07-01T06:23:22.973Z</time>
      </trkpt>
      <trkpt lat="48.466216" lon="16.763665">
        <ele>212.025601</ele>
        <time>2020-07-01T06:23:24.990Z</time>
      </trkpt>
      <trkpt lat="48.466204" lon="16.763831">
        <ele>211.995286</ele>
        <time>2020-07-01T06:23:26.993Z</time>
      </trkpt>
      <trkpt lat="48.466195" lon="16.764000">
        <ele>211.964505</ele>
        <time>2020-07-01T06:23:28.972Z</time>
      </trkpt>
      <trkpt lat="48.466180" lon="16.764170">
        <ele>211.933369</ele>
        <time>2020-07-01T06:23:30.964Z</time>
      </trkpt>
      <trkpt lat="48.466160" lon="16.764340">
        <ele>211.887078</ele>
        <time>2020-07-01T06:23:32.980Z</time>
      </trkpt>
      <trkpt lat="48.466141" lon="16.764512">
        <ele>211.831243</ele>
        <time>2020-07-01T06:23:34.992Z</time>
      </trkpt>
      <trkpt lat="48.466124" lon="16.764684">
        <ele>211.775558</ele>
        <time>2020-07-01T06:23:36.980Z</time>
      </trkpt>
      <trkpt lat="48.466105" lon="16.764857">
        <ele>211.719406</ele>
        <time>2020-07-01T06:23:38.976Z</time>
      </trkpt>
      <trkpt lat="48.466089" lon="16.765034">
        <ele>211.662205</ele>
        <time>2020-07-01T06:23:40.989Z</time>
      </trkpt>
      <trkpt lat="48.466075" lon="16.765207">
        <ele>211.606397</ele>
        <time>2020-07-01T06:23:42.996Z</time>
      </trkpt>
      <trkpt lat="48.466062" lon="16.765383">
        <ele>211.549691</ele>
        <time>2020-07-01T06:23:45.003Z</time>
      </trkpt>
      <trkpt lat="48.466051" lon="16.765562">
        <ele>211.492127</ele>
        <time>2020-07-01T06:23:46.977Z</time>
      </trkpt>
      <trkpt lat="48.466039" lon="16.765742">
        <ele>211.434199</ele>
        <time>2020-07-01T06:23:49.002Z</time>
      </trkpt>
      <trkpt lat="48.466021" lon="16.765925">
        <ele>211.374958</ele>
        <time>2020-07-01T06:23:50.974Z</time>
      </trkpt>
      <trkpt lat="48.465997" lon="16.766107">
        <ele>211.315538</ele>
        <time>2020-07-01T06:23:52.988Z</time>
      </trkpt>
      <trkpt lat="48.465977" lon="16.766292">
        <ele>211.255517</ele>
        <time>2020-07-01T06:23:55.004Z</time>
      </trkpt>
      <trkpt lat="48.465960" lon="16.766471">
        <ele>211.197614</ele>
        <time>2020-07-01T06:23:56.995Z</time>
      </trkpt>
      <trkpt lat="48.465939" lon="16.766644">
        <ele>211.141296</ele>
        <time>2020-07-01T06:23:58.983Z</time>
      </trkpt>
      <trkpt lat="48.465918" lon="16.766822">
        <ele>211.083403</ele>
        <time>2020-07-01T06:24:01.008Z</time>
      </trkpt>
      <trkpt lat="48.465897" lon="16.767003">
        <ele>211.024475</ele>
        <time>2020-07-01T06:24:03.013Z</time>
      </trkpt>
      <trkpt lat="48.465886" lon="16.767185">
        <ele>210.965771</ele>
        <time>2020-07-01T06:24:04.991Z</time>
      </trkpt>
      <trkpt lat="48.465874" lon="16.767367">
        <ele>210.907022</ele>
        <time>2020-07-01T06:24:06.964Z</time>
      </trkpt>
      <trkpt lat="48.465858" lon="16.767553">
        <ele>210.846775</ele>
        <time>2020-07-01T06:24:08.982Z</time>
      </trkpt>
      <trkpt lat="48.465845" lon="16.767741">
        <ele>210.786058</ele>
        <time>2020-07-01T06:24:11.016Z</time>
      </trkpt>
      <trkpt lat="48.465834" lon="16.767924">
        <ele>210.727035</ele>
        <time>2020-07-01T06:24:12.983Z</time>
      </trkpt>
      <trkpt lat="48.465829" lon="16.768105">
        <ele>210.668844</ele>
        <time>2020-07-01T06:24:14.992Z</time>
      </trkpt>
      <trkpt lat="48.465831" lon="16.768290">
        <ele>210.609411</ele>
        <time>2020-07-01T06:24:16.981Z</time>
      </trkpt>
      <trkpt lat="48.465840" lon="16.768474">
        <ele>210.550146</ele>
        <time>2020-07-01T06:24:18.966Z</time>
      </trkpt>
      <trkpt lat="48.465851" lon="16.768659">
        <ele>210.490483</ele>
        <time>2020-07-01T06:24:20.969Z</time>
      </trkpt>
      <trkpt lat="48.465865" lon="16.768844">
        <ele>210.430672</ele>
        <time>2020-07-01T06:24:22.979Z</time>
      </trkpt>
      <trkpt lat="48.465878" lon="16.769030">
        <ele>210.370595</ele>
        <time>2020-07-01T06:24:24.994Z</time>
      </trkpt>
      <trkpt lat="48.465891" lon="16.769216">
        <ele>210.310517</ele>
        <time>2020-07-01T06:24:26.975Z</time>
      </trkpt>
      <trkpt lat="48.465913" lon="16.769398">
        <ele>210.251092</ele>
        <time>2020-07-01T06:24:28.974Z</time>
      </trkpt>
      <trkpt lat="48.465937" lon="16.769580">
        <ele>210.191486</ele>
        <time>2020-07-01T06:24:30.972Z</time>
      </trkpt>
      <trkpt lat="48.465966" lon="16.769760">
        <ele>210.118715</ele>
        <time>2020-07-01T06:24:32.978Z</time>
      </trkpt>
      <trkpt lat="48.466000" lon="16.769940">
        <ele>210.042529</ele>
        <time>2020-07-01T06:24:34.974Z</time>
      </trkpt>
      <trkpt lat="48.466035" lon="16.770121">
        <ele>209.965781</ele>
        <time>2020-07-01T06:24:36.987Z</time>
      </trkpt>
      <trkpt lat="48.466072" lon="16.770304">
        <ele>209.887903</ele>
        <time>2020-07-01T06:24:39.014Z</time>
      </trkpt>
      <trkpt lat="48.466128" lon="16.770575">
        <ele>209.772356</ele>
        <time>2020-07-01T06:24:41.962Z</time>
      </trkpt>
      <trkpt lat="48.466172" lon="16.770751">
        <ele>209.695790</ele>
        <time>2020-07-01T06:24:43.984Z</time>
      </trkpt>
      <trkpt lat="48.466228" lon="16.770916">
        <ele>209.620338</ele>
        <time>2020-07-01T06:24:45.999Z</time>
      </trkpt>
      <trkpt lat="48.466280" lon="16.771085">
        <ele>209.544499</ele>
        <time>2020-07-01T06:24:47.993Z</time>
      </trkpt>
      <trkpt lat="48.466332" lon="16.771257">
        <ele>209.467550</ele>
        <time>2020-07-01T06:24:49.989Z</time>
      </trkpt>
      <trkpt lat="48.466390" lon="16.771424">
        <ele>209.390810</ele>
        <time>2020-07-01T06:24:52.005Z</time>
      </trkpt>
      <trkpt lat="48.466449" lon="16.771589">
        <ele>209.314502</ele>
        <time>2020-07-01T06:24:54.013Z</time>
      </trkpt>
      <trkpt lat="48.466507" lon="16.771754">
        <ele>209.238482</ele>
        <time>2020-07-01T06:24:55.972Z</time>
      </trkpt>
      <trkpt lat="48.466565" lon="16.771919">
        <ele>209.162463</ele>
        <time>2020-07-01T06:24:58.016Z</time>
      </trkpt>
      <trkpt lat="48.466619" lon="16.772085">
        <ele>209.087198</ele>
        <time>2020-07-01T06:24:59.986Z</time>
      </trkpt>
      <trkpt lat="48.466676" lon="16.772242">
        <ele>209.009222</ele>
        <time>2020-07-01T06:25:01.972Z</time>
      </trkpt>
      <trkpt lat="48.466735" lon="16.772393">
        <ele>208.932095</ele>
        <time>2020-07-01T06:25:03.990Z</time>
      </trkpt>
      <trkpt lat="48.466789" lon="16.772547">
        <ele>208.855434</ele>
        <time>2020-07-01T06:25:05.991Z</time>
      </trkpt>
      <trkpt lat="48.466846" lon="16.772707">
        <ele>208.775507</ele>
        <time>2020-07-01T06:25:07.983Z</time>
      </trkpt>
      <trkpt lat="48.466897" lon="16.772876">
        <ele>208.693798</ele>
        <time>2020-07-01T06:25:09.994Z</time>
      </trkpt>
      <trkpt lat="48.466940" lon="16.773040">
        <ele>208.616192</ele>
        <time>2020-07-01T06:25:11.986Z</time>
      </trkpt>
      <trkpt lat="48.466993" lon="16.773201">
        <ele>208.537093</ele>
        <time>2020-07-01T06:25:14.003Z</time>
      </trkpt>
      <trkpt lat="48.467043" lon="16.773357">
        <ele>208.460845</ele>
        <time>2020-07-01T06:25:16.008Z</time>
      </trkpt>
      <trkpt lat="48.467091" lon="16.773512">
        <ele>208.385565</ele>
        <time>2020-07-01T06:25:18.009Z</time>
      </trkpt>
      <trkpt lat="48.467141" lon="16.773669">
        <ele>208.308921</ele>
        <time>2020-07-01T06:25:19.998Z</time>
      </trkpt>
      <trkpt lat="48.467195" lon="16.773824">
        <ele>208.231872</ele>
        <time>2020-07-01T06:25:21.989Z</time>
      </trkpt>
      <trkpt lat="48.467244" lon="16.773983">
        <ele>208.154716</ele>
        <time>2020-07-01T06:25:23.985Z</time>
      </trkpt>
      <trkpt lat="48.467296" lon="16.774142">
        <ele>208.076700</ele>
        <time>2020-07-01T06:25:25.989Z</time>
      </trkpt>
      <trkpt lat="48.467347" lon="16.774301">
        <ele>207.998976</ele>
        <time>2020-07-01T06:25:27.981Z</time>
      </trkpt>
      <trkpt lat="48.467388" lon="16.774463">
        <ele>207.922672</ele>
        <time>2020-07-01T06:25:29.995Z</time>
      </trkpt>
      <trkpt lat="48.467425" lon="16.774620">
        <ele>207.842328</ele>
        <time>2020-07-01T06:25:31.966Z</time>
      </trkpt>
      <trkpt lat="48.467458" lon="16.774783">
        <ele>207.752010</ele>
        <time>2020-07-01T06:25:33.974Z</time>
      </trkpt>
      <trkpt lat="48.467481" lon="16.774952">
        <ele>207.660582</ele>
        <time>2020-07-01T06:25:35.988Z</time>
      </trkpt>
      <trkpt lat="48.467499" lon="16.775124">
        <ele>207.568303</ele>
        <time>2020-07-01T06:25:37.963Z</time>
      </trkpt>
      <trkpt lat="48.467515" lon="16.775295">
        <ele>207.476784</ele>
        <time>2020-07-01T06:25:39.971Z</time>
      </trkpt>
      <trkpt lat="48.467532" lon="16.775467">
        <ele>207.384627</ele>
        <time>2020-07-01T06:25:41.988Z</time>
      </trkpt>
      <trkpt lat="48.467549" lon="16.775644">
        <ele>207.289847</ele>
        <time>2020-07-01T06:25:43.964Z</time>
      </trkpt>
      <trkpt lat="48.467564" lon="16.775817">
        <ele>207.197386</ele>
        <time>2020-07-01T06:25:46.003Z</time>
      </trkpt>
      <trkpt lat="48.467579" lon="16.775983">
        <ele>207.108602</ele>
        <time>2020-07-01T06:25:47.979Z</time>
      </trkpt>
      <trkpt lat="48.467596" lon="16.776154">
        <ele>207.016969</ele>
        <time>2020-07-01T06:25:49.976Z</time>
      </trkpt>
      <trkpt lat="48.467609" lon="16.776328">
        <ele>206.924175</ele>
        <time>2020-07-01T06:25:51.976Z</time>
      </trkpt>
      <trkpt lat="48.467620" lon="16.776498">
        <ele>206.833656</ele>
        <time>2020-07-01T06:25:53.986Z</time>
      </trkpt>
      <trkpt lat="48.467631" lon="16.776670">
        <ele>206.742083</ele>
        <time>2020-07-01T06:25:55.989Z</time>
      </trkpt>
      <trkpt lat="48.467641" lon="16.776835">
        <ele>206.654277</ele>
        <time>2020-07-01T06:25:58.001Z</time>
      </trkpt>
      <trkpt lat="48.467654" lon="16.776996">
        <ele>206.568326</ele>
        <time>2020-07-01T06:26:00.015Z</time>
      </trkpt>
      <trkpt lat="48.467668" lon="16.777153">
        <ele>206.484376</ele>
        <time>2020-07-01T06:26:01.986Z</time>
      </trkpt>
      <trkpt lat="48.467682" lon="16.777322">
        <ele>206.423661</ele>
        <time>2020-07-01T06:26:03.969Z</time>
      </trkpt>
      <trkpt lat="48.467699" lon="16.777483">
        <ele>206.386332</ele>
        <time>2020-07-01T06:26:06.029Z</time>
      </trkpt>
      <trkpt lat="48.467716" lon="16.777641">
        <ele>206.349680</ele>
        <time>2020-07-01T06:26:08.006Z</time>
      </trkpt>
      <trkpt lat="48.467732" lon="16.777803">
        <ele>206.312177</ele>
        <time>2020-07-01T06:26:09.974Z</time>
      </trkpt>
      <trkpt lat="48.467743" lon="16.777969">
        <ele>206.273978</ele>
        <time>2020-07-01T06:26:12.028Z</time>
      </trkpt>
      <trkpt lat="48.467753" lon="16.778126">
        <ele>206.237863</ele>
        <time>2020-07-01T06:26:13.970Z</time>
      </trkpt>
      <trkpt lat="48.467756" lon="16.778268">
        <ele>206.205332</ele>
        <time>2020-07-01T06:26:15.962Z</time>
      </trkpt>
      <trkpt lat="48.467754" lon="16.778413">
        <ele>206.172124</ele>
        <time>2020-07-01T06:26:17.972Z</time>
      </trkpt>
      <trkpt lat="48.467786" lon="16.778554">
        <ele>206.138000</ele>
        <time>2020-07-01T06:26:20.987Z</time>
      </trkpt>
      <trkpt lat="48.467889" lon="16.778507">
        <ele>206.100837</ele>
        <time>2020-07-01T06:26:23.989Z</time>
      </trkpt>
      <trkpt lat="48.468006" lon="16.778424">
        <ele>206.056186</ele>
        <time>2020-07-01T06:26:26.970Z</time>
      </trkpt>
      <trkpt lat="48.468088" lon="16.778368">
        <ele>206.025100</ele>
        <time>2020-07-01T06:26:28.969Z</time>
      </trkpt>
      <trkpt lat="48.468172" lon="16.778309">
        <ele>205.993100</ele>
        <time>2020-07-01T06:26:30.971Z</time>
      </trkpt>
      <trkpt lat="48.468253" lon="16.778243">
        <ele>205.961306</ele>
        <time>2020-07-01T06:26:32.962Z</time>
      </trkpt>
      <trkpt lat="48.468338" lon="16.778174">
        <ele>205.927971</ele>
        <time>2020-07-01T06:26:34.972Z</time>
      </trkpt>
      <trkpt lat="48.468427" lon="16.778101">
        <ele>205.892984</ele>
        <time>2020-07-01T06:26:36.966Z</time>
      </trkpt>
      <trkpt lat="48.468511" lon="16.778037">
        <ele>205.860485</ele>
        <time>2020-07-01T06:26:38.992Z</time>
      </trkpt>
      <trkpt lat="48.468605" lon="16.777995">
        <ele>205.826628</ele>
        <time>2020-07-01T06:26:41.977Z</time>
      </trkpt>
      <trkpt lat="48.468677" lon="16.778085">
        <ele>205.829623</ele>
        <time>2020-07-01T06:26:57.993Z</time>
      </trkpt>
      <trkpt lat="48.468756" lon="16.778200">
        <ele>205.835350</ele>
        <time>2020-07-01T06:27:03.002Z</time>
      </trkpt>
      <trkpt lat="48.468829" lon="16.778315">
        <ele>205.840855</ele>
        <time>2020-07-01T06:27:05.991Z</time>
      </trkpt>
      <trkpt lat="48.468885" lon="16.778468">
        <ele>205.846899</ele>
        <time>2020-07-01T06:27:08.997Z</time>
      </trkpt>
      <trkpt lat="48.468928" lon="16.778635">
        <ele>205.853094</ele>
        <time>2020-07-01T06:27:11.968Z</time>
      </trkpt>
      <trkpt lat="48.468961" lon="16.778820">
        <ele>205.859719</ele>
        <time>2020-07-01T06:27:14.965Z</time>
      </trkpt>
      <trkpt lat="48.468999" lon="16.779007">
        <ele>205.866482</ele>
        <time>2020-07-01T06:27:17.967Z</time>
      </trkpt>
      <trkpt lat="48.469018" lon="16.779143">
        <ele>205.871288</ele>
        <time>2020-07-01T06:27:19.983Z</time>
      </trkpt>
      <trkpt lat="48.469034" lon="16.779277">
        <ele>205.875997</ele>
        <time>2020-07-01T06:27:22.020Z</time>
      </trkpt>
      <trkpt lat="48.469061" lon="16.779412">
        <ele>205.880873</ele>
        <time>2020-07-01T06:27:23.992Z</time>
      </trkpt>
      <trkpt lat="48.469090" lon="16.779549">
        <ele>205.885846</ele>
        <time>2020-07-01T06:27:25.984Z</time>
      </trkpt>
      <trkpt lat="48.469111" lon="16.779691">
        <ele>205.890877</ele>
        <time>2020-07-01T06:27:27.986Z</time>
      </trkpt>
      <trkpt lat="48.469134" lon="16.779835">
        <ele>205.895999</ele>
        <time>2020-07-01T06:27:30.016Z</time>
      </trkpt>
      <trkpt lat="48.469164" lon="16.779979">
        <ele>205.901219</ele>
        <time>2020-07-01T06:27:32.013Z</time>
      </trkpt>
      <trkpt lat="48.469200" lon="16.780122">
        <ele>205.906508</ele>
        <time>2020-07-01T06:27:33.997Z</time>
      </trkpt>
      <trkpt lat="48.469237" lon="16.780264">
        <ele>205.911784</ele>
        <time>2020-07-01T06:27:35.976Z</time>
      </trkpt>
      <trkpt lat="48.469274" lon="16.780399">
        <ele>205.916835</ele>
        <time>2020-07-01T06:27:37.967Z</time>
      </trkpt>
      <trkpt lat="48.469316" lon="16.780550">
        <ele>205.914532</ele>
        <time>2020-07-01T06:27:39.999Z</time>
      </trkpt>
      <trkpt lat="48.469354" lon="16.780696">
        <ele>205.908266</ele>
        <time>2020-07-01T06:27:41.985Z</time>
      </trkpt>
      <trkpt lat="48.469400" lon="16.780848">
        <ele>205.901590</ele>
        <time>2020-07-01T06:27:43.998Z</time>
      </trkpt>
      <trkpt lat="48.469444" lon="16.780995">
        <ele>205.895146</ele>
        <time>2020-07-01T06:27:46.010Z</time>
      </trkpt>
      <trkpt lat="48.469485" lon="16.781139">
        <ele>205.888884</ele>
        <time>2020-07-01T06:27:47.984Z</time>
      </trkpt>
      <trkpt lat="48.469525" lon="16.781295">
        <ele>205.882202</ele>
        <time>2020-07-01T06:27:49.976Z</time>
      </trkpt>
      <trkpt lat="48.469566" lon="16.781452">
        <ele>205.875460</ele>
        <time>2020-07-01T06:27:51.979Z</time>
      </trkpt>
      <trkpt lat="48.469611" lon="16.781607">
        <ele>205.868699</ele>
        <time>2020-07-01T06:27:54.025Z</time>
      </trkpt>
      <trkpt lat="48.469666" lon="16.781755">
        <ele>205.861920</ele>
        <time>2020-07-01T06:27:55.966Z</time>
      </trkpt>
      <trkpt lat="48.469711" lon="16.781903">
        <ele>205.855415</ele>
        <time>2020-07-01T06:27:57.989Z</time>
      </trkpt>
      <trkpt lat="48.469754" lon="16.782060">
        <ele>205.848628</ele>
        <time>2020-07-01T06:27:59.978Z</time>
      </trkpt>
      <trkpt lat="48.469795" lon="16.782214">
        <ele>205.841998</ele>
        <time>2020-07-01T06:28:01.968Z</time>
      </trkpt>
      <trkpt lat="48.469836" lon="16.782367">
        <ele>205.835404</ele>
        <time>2020-07-01T06:28:03.988Z</time>
      </trkpt>
      <trkpt lat="48.469877" lon="16.782520">
        <ele>205.828811</ele>
        <time>2020-07-01T06:28:05.992Z</time>
      </trkpt>
      <trkpt lat="48.469926" lon="16.782668">
        <ele>205.822202</ele>
        <time>2020-07-01T06:28:07.972Z</time>
      </trkpt>
      <trkpt lat="48.469970" lon="16.782807">
        <ele>205.816048</ele>
        <time>2020-07-01T06:28:09.971Z</time>
      </trkpt>
      <trkpt lat="48.470018" lon="16.782947">
        <ele>205.809911</ele>
        <time>2020-07-01T06:28:11.965Z</time>
      </trkpt>
      <trkpt lat="48.470060" lon="16.783083">
        <ele>205.805369</ele>
        <time>2020-07-01T06:28:13.984Z</time>
      </trkpt>
      <trkpt lat="48.470101" lon="16.783222">
        <ele>205.800763</ele>
        <time>2020-07-01T06:28:16.003Z</time>
      </trkpt>
      <trkpt lat="48.470142" lon="16.783364">
        <ele>205.796075</ele>
        <time>2020-07-01T06:28:18.004Z</time>
      </trkpt>
      <trkpt lat="48.470179" lon="16.783503">
        <ele>205.791540</ele>
        <time>2020-07-01T06:28:19.991Z</time>
      </trkpt>
      <trkpt lat="48.470216" lon="16.783644">
        <ele>205.786949</ele>
        <time>2020-07-01T06:28:21.967Z</time>
      </trkpt>
      <trkpt lat="48.470250" lon="16.783791">
        <ele>205.782236</ele>
        <time>2020-07-01T06:28:23.997Z</time>
      </trkpt>
      <trkpt lat="48.470282" lon="16.783940">
        <ele>205.777494</ele>
        <time>2020-07-01T06:28:25.966Z</time>
      </trkpt>
      <trkpt lat="48.470309" lon="16.784101">
        <ele>205.772467</ele>
        <time>2020-07-01T06:28:27.993Z</time>
      </trkpt>
      <trkpt lat="48.470324" lon="16.784269">
        <ele>205.767335</ele>
        <time>2020-07-01T06:28:30.007Z</time>
      </trkpt>
      <trkpt lat="48.470330" lon="16.784442">
        <ele>205.762090</ele>
        <time>2020-07-01T06:28:31.959Z</time>
      </trkpt>
      <trkpt lat="48.470316" lon="16.784614">
        <ele>205.756844</ele>
        <time>2020-07-01T06:28:33.982Z</time>
      </trkpt>
      <trkpt lat="48.470302" lon="16.784792">
        <ele>205.751417</ele>
        <time>2020-07-01T06:28:35.998Z</time>
      </trkpt>
      <trkpt lat="48.470280" lon="16.784975">
        <ele>205.745787</ele>
        <time>2020-07-01T06:28:37.999Z</time>
      </trkpt>
      <trkpt lat="48.470255" lon="16.785152">
        <ele>205.740308</ele>
        <time>2020-07-01T06:28:39.980Z</time>
      </trkpt>
      <trkpt lat="48.470231" lon="16.785342">
        <ele>205.734452</ele>
        <time>2020-07-01T06:28:41.992Z</time>
      </trkpt>
      <trkpt lat="48.470208" lon="16.785528">
        <ele>205.728724</ele>
        <time>2020-07-01T06:28:43.999Z</time>
      </trkpt>
      <trkpt lat="48.470181" lon="16.785708">
        <ele>205.651648</ele>
        <time>2020-07-01T06:28:45.976Z</time>
      </trkpt>
      <trkpt lat="48.470162" lon="16.785889">
        <ele>205.569056</ele>
        <time>2020-07-01T06:28:47.975Z</time>
      </trkpt>
      <trkpt lat="48.470140" lon="16.786073">
        <ele>205.484791</ele>
        <time>2020-07-01T06:28:49.980Z</time>
      </trkpt>
      <trkpt lat="48.470109" lon="16.786253">
        <ele>205.400973</ele>
        <time>2020-07-01T06:28:51.986Z</time>
      </trkpt>
      <trkpt lat="48.470081" lon="16.786434">
        <ele>205.317206</ele>
        <time>2020-07-01T06:28:53.966Z</time>
      </trkpt>
      <trkpt lat="48.470058" lon="16.786610">
        <ele>205.236358</ele>
        <time>2020-07-01T06:28:56.022Z</time>
      </trkpt>
      <trkpt lat="48.470052" lon="16.786790">
        <ele>205.155130</ele>
        <time>2020-07-01T06:28:57.980Z</time>
      </trkpt>
      <trkpt lat="48.470060" lon="16.786969">
        <ele>205.074273</ele>
        <time>2020-07-01T06:29:00.008Z</time>
      </trkpt>
      <trkpt lat="48.470073" lon="16.787144">
        <ele>204.994907</ele>
        <time>2020-07-01T06:29:01.994Z</time>
      </trkpt>
      <trkpt lat="48.470090" lon="16.787310">
        <ele>204.919205</ele>
        <time>2020-07-01T06:29:03.992Z</time>
      </trkpt>
      <trkpt lat="48.470115" lon="16.787465">
        <ele>204.847310</ele>
        <time>2020-07-01T06:29:05.972Z</time>
      </trkpt>
      <trkpt lat="48.470141" lon="16.787615">
        <ele>204.777433</ele>
        <time>2020-07-01T06:29:07.995Z</time>
      </trkpt>
      <trkpt lat="48.470147" lon="16.787765">
        <ele>204.709706</ele>
        <time>2020-07-01T06:29:09.983Z</time>
      </trkpt>
      <trkpt lat="48.470148" lon="16.787912">
        <ele>204.643451</ele>
        <time>2020-07-01T06:29:11.975Z</time>
      </trkpt>
      <trkpt lat="48.470149" lon="16.788056">
        <ele>204.578547</ele>
        <time>2020-07-01T06:29:13.997Z</time>
      </trkpt>
      <trkpt lat="48.470150" lon="16.788255">
        <ele>204.497270</ele>
        <time>2020-07-01T06:29:16.988Z</time>
      </trkpt>
      <trkpt lat="48.470146" lon="16.788446">
        <ele>204.454371</ele>
        <time>2020-07-01T06:29:19.981Z</time>
      </trkpt>
      <trkpt lat="48.470136" lon="16.788632">
        <ele>204.412479</ele>
        <time>2020-07-01T06:29:22.996Z</time>
      </trkpt>
      <trkpt lat="48.470120" lon="16.788823">
        <ele>204.369260</ele>
        <time>2020-07-01T06:29:25.985Z</time>
      </trkpt>
      <trkpt lat="48.470101" lon="16.789019">
        <ele>204.324792</ele>
        <time>2020-07-01T06:29:28.991Z</time>
      </trkpt>
      <trkpt lat="48.470089" lon="16.789155">
        <ele>204.293992</ele>
        <time>2020-07-01T06:29:30.994Z</time>
      </trkpt>
      <trkpt lat="48.470079" lon="16.789296">
        <ele>204.262158</ele>
        <time>2020-07-01T06:29:32.981Z</time>
      </trkpt>
      <trkpt lat="48.470058" lon="16.789495">
        <ele>204.216922</ele>
        <time>2020-07-01T06:29:36.005Z</time>
      </trkpt>
      <trkpt lat="48.470047" lon="16.789644">
        <ele>204.183266</ele>
        <time>2020-07-01T06:29:37.967Z</time>
      </trkpt>
      <trkpt lat="48.470031" lon="16.789795">
        <ele>204.148938</ele>
        <time>2020-07-01T06:29:39.988Z</time>
      </trkpt>
      <trkpt lat="48.470020" lon="16.789957">
        <ele>204.112380</ele>
        <time>2020-07-01T06:29:41.994Z</time>
      </trkpt>
      <trkpt lat="48.470009" lon="16.790120">
        <ele>204.075599</ele>
        <time>2020-07-01T06:29:43.999Z</time>
      </trkpt>
      <trkpt lat="48.469995" lon="16.790287">
        <ele>204.037810</ele>
        <time>2020-07-01T06:29:45.997Z</time>
      </trkpt>
      <trkpt lat="48.469981" lon="16.790464">
        <ele>203.997793</ele>
        <time>2020-07-01T06:29:47.998Z</time>
      </trkpt>
      <trkpt lat="48.469967" lon="16.790651">
        <ele>203.955547</ele>
        <time>2020-07-01T06:29:50.019Z</time>
      </trkpt>
      <trkpt lat="48.469948" lon="16.790833">
        <ele>203.914186</ele>
        <time>2020-07-01T06:29:52.001Z</time>
      </trkpt>
      <trkpt lat="48.469931" lon="16.791012">
        <ele>203.933414</ele>
        <time>2020-07-01T06:29:54.011Z</time>
      </trkpt>
      <trkpt lat="48.469918" lon="16.791192">
        <ele>203.998396</ele>
        <time>2020-07-01T06:29:55.972Z</time>
      </trkpt>
      <trkpt lat="48.469898" lon="16.791366">
        <ele>204.061774</ele>
        <time>2020-07-01T06:29:57.992Z</time>
      </trkpt>
      <trkpt lat="48.469881" lon="16.791542">
        <ele>204.125606</ele>
        <time>2020-07-01T06:29:59.996Z</time>
      </trkpt>
      <trkpt lat="48.469863" lon="16.791713">
        <ele>204.187745</ele>
        <time>2020-07-01T06:30:02.021Z</time>
      </trkpt>
      <trkpt lat="48.469845" lon="16.791879">
        <ele>204.248112</ele>
        <time>2020-07-01T06:30:03.999Z</time>
      </trkpt>
      <trkpt lat="48.469827" lon="16.792045">
        <ele>204.308479</ele>
        <time>2020-07-01T06:30:05.990Z</time>
      </trkpt>
      <trkpt lat="48.469810" lon="16.792211">
        <ele>204.368762</ele>
        <time>2020-07-01T06:30:08.018Z</time>
      </trkpt>
      <trkpt lat="48.469793" lon="16.792373">
        <ele>204.427626</ele>
        <time>2020-07-01T06:30:10.008Z</time>
      </trkpt>
      <trkpt lat="48.469778" lon="16.792529">
        <ele>204.484198</ele>
        <time>2020-07-01T06:30:12.001Z</time>
      </trkpt>
      <trkpt lat="48.469766" lon="16.792680">
        <ele>204.538779</ele>
        <time>2020-07-01T06:30:14.012Z</time>
      </trkpt>
      <trkpt lat="48.469755" lon="16.792826">
        <ele>204.591514</ele>
        <time>2020-07-01T06:30:16.021Z</time>
      </trkpt>
      <trkpt lat="48.469742" lon="16.792965">
        <ele>204.641894</ele>
        <time>2020-07-01T06:30:17.970Z</time>
      </trkpt>
      <trkpt lat="48.469728" lon="16.793100">
        <ele>204.690933</ele>
        <time>2020-07-01T06:30:20.027Z</time>
      </trkpt>
      <trkpt lat="48.469713" lon="16.793300">
        <ele>204.763169</ele>
        <time>2020-07-01T06:30:23.004Z</time>
      </trkpt>
      <trkpt lat="48.469696" lon="16.793494">
        <ele>204.833400</ele>
        <time>2020-07-01T06:30:25.969Z</time>
      </trkpt>
      <trkpt lat="48.469683" lon="16.793696">
        <ele>204.894786</ele>
        <time>2020-07-01T06:30:29.005Z</time>
      </trkpt>
      <trkpt lat="48.469670" lon="16.793837">
        <ele>204.929634</ele>
        <time>2020-07-01T06:30:30.974Z</time>
      </trkpt>
      <trkpt lat="48.469660" lon="16.793988">
        <ele>204.966782</ele>
        <time>2020-07-01T06:30:32.997Z</time>
      </trkpt>
      <trkpt lat="48.469647" lon="16.794144">
        <ele>205.005270</ele>
        <time>2020-07-01T06:30:35.004Z</time>
      </trkpt>
      <trkpt lat="48.469632" lon="16.794303">
        <ele>205.044584</ele>
        <time>2020-07-01T06:30:36.976Z</time>
      </trkpt>
      <trkpt lat="48.469617" lon="16.794473">
        <ele>205.086566</ele>
        <time>2020-07-01T06:30:38.983Z</time>
      </trkpt>
      <trkpt lat="48.469604" lon="16.794660">
        <ele>205.132593</ele>
        <time>2020-07-01T06:30:40.968Z</time>
      </trkpt>
      <trkpt lat="48.469587" lon="16.794858">
        <ele>205.181467</ele>
        <time>2020-07-01T06:30:42.993Z</time>
      </trkpt>
      <trkpt lat="48.469565" lon="16.795059">
        <ele>205.231336</ele>
        <time>2020-07-01T06:30:44.991Z</time>
      </trkpt>
      <trkpt lat="48.469539" lon="16.795263">
        <ele>205.282189</ele>
        <time>2020-07-01T06:30:47.003Z</time>
      </trkpt>
      <trkpt lat="48.469510" lon="16.795469">
        <ele>205.333740</ele>
        <time>2020-07-01T06:30:49.021Z</time>
      </trkpt>
      <trkpt lat="48.469480" lon="16.795681">
        <ele>205.386806</ele>
        <time>2020-07-01T06:30:50.998Z</time>
      </trkpt>
      <trkpt lat="48.469453" lon="16.795899">
        <ele>205.441094</ele>
        <time>2020-07-01T06:30:52.990Z</time>
      </trkpt>
      <trkpt lat="48.469419" lon="16.796115">
        <ele>205.495439</ele>
        <time>2020-07-01T06:30:54.968Z</time>
      </trkpt>
      <trkpt lat="48.469362" lon="16.796258">
        <ele>205.532707</ele>
        <time>2020-07-01T06:30:56.983Z</time>
      </trkpt>
      <trkpt lat="48.469236" lon="16.796257">
        <ele>205.495382</ele>
        <time>2020-07-01T06:30:58.979Z</time>
      </trkpt>
      <trkpt lat="48.469107" lon="16.796238">
        <ele>205.456988</ele>
        <time>2020-07-01T06:31:00.977Z</time>
      </trkpt>
      <trkpt lat="48.468978" lon="16.796223">
        <ele>205.418662</ele>
        <time>2020-07-01T06:31:02.976Z</time>
      </trkpt>
      <trkpt lat="48.468853" lon="16.796213">
        <ele>205.381583</ele>
        <time>2020-07-01T06:31:05.004Z</time>
      </trkpt>
      <trkpt lat="48.468732" lon="16.796211">
        <ele>205.345738</ele>
        <time>2020-07-01T06:31:07.000Z</time>
      </trkpt>
      <trkpt lat="48.468616" lon="16.796220">
        <ele>205.311331</ele>
        <time>2020-07-01T06:31:09.001Z</time>
      </trkpt>
      <trkpt lat="48.468502" lon="16.796231">
        <ele>205.277493</ele>
        <time>2020-07-01T06:31:11.005Z</time>
      </trkpt>
      <trkpt lat="48.468393" lon="16.796232">
        <ele>205.245204</ele>
        <time>2020-07-01T06:31:12.972Z</time>
      </trkpt>
      <trkpt lat="48.468283" lon="16.796232">
        <ele>205.212620</ele>
        <time>2020-07-01T06:31:15.029Z</time>
      </trkpt>
      <trkpt lat="48.468177" lon="16.796231">
        <ele>205.181220</ele>
        <time>2020-07-01T06:31:16.985Z</time>
      </trkpt>
      <trkpt lat="48.468076" lon="16.796230">
        <ele>205.151301</ele>
        <time>2020-07-01T06:31:19.015Z</time>
      </trkpt>
      <trkpt lat="48.467977" lon="16.796236">
        <ele>205.121951</ele>
        <time>2020-07-01T06:31:20.980Z</time>
      </trkpt>
      <trkpt lat="48.467875" lon="16.796253">
        <ele>205.091553</ele>
        <time>2020-07-01T06:31:22.987Z</time>
      </trkpt>
      <trkpt lat="48.467778" lon="16.796274">
        <ele>205.062525</ele>
        <time>2020-07-01T06:31:25.002Z</time>
      </trkpt>
      <trkpt lat="48.467681" lon="16.796312">
        <ele>205.032838</ele>
        <time>2020-07-01T06:31:26.970Z</time>
      </trkpt>
      <trkpt lat="48.467582" lon="16.796354">
        <ele>205.002374</ele>
        <time>2020-07-01T06:31:29.000Z</time>
      </trkpt>
      <trkpt lat="48.467481" lon="16.796395">
        <ele>204.964625</ele>
        <time>2020-07-01T06:31:30.983Z</time>
      </trkpt>
      <trkpt lat="48.467378" lon="16.796429">
        <ele>204.926374</ele>
        <time>2020-07-01T06:31:32.972Z</time>
      </trkpt>
      <trkpt lat="48.467281" lon="16.796469">
        <ele>204.889892</ele>
        <time>2020-07-01T06:31:34.976Z</time>
      </trkpt>
      <trkpt lat="48.467185" lon="16.796496">
        <ele>204.854465</ele>
        <time>2020-07-01T06:31:36.969Z</time>
      </trkpt>
      <trkpt lat="48.467090" lon="16.796502">
        <ele>204.819971</ele>
        <time>2020-07-01T06:31:38.967Z</time>
      </trkpt>
      <trkpt lat="48.466991" lon="16.796494">
        <ele>204.784004</ele>
        <time>2020-07-01T06:31:41.001Z</time>
      </trkpt>
      <trkpt lat="48.466887" lon="16.796487">
        <ele>204.746237</ele>
        <time>2020-07-01T06:31:42.982Z</time>
      </trkpt>
      <trkpt lat="48.466779" lon="16.796479">
        <ele>204.707009</ele>
        <time>2020-07-01T06:31:44.976Z</time>
      </trkpt>
      <trkpt lat="48.466670" lon="16.796461">
        <ele>204.667230</ele>
        <time>2020-07-01T06:31:46.987Z</time>
      </trkpt>
      <trkpt lat="48.466560" lon="16.796436">
        <ele>204.626873</ele>
        <time>2020-07-01T06:31:48.982Z</time>
      </trkpt>
      <trkpt lat="48.466450" lon="16.796445">
        <ele>204.586909</ele>
        <time>2020-07-01T06:31:50.967Z</time>
      </trkpt>
      <trkpt lat="48.466354" lon="16.796531">
        <ele>204.546401</ele>
        <time>2020-07-01T06:31:52.975Z</time>
      </trkpt>
      <trkpt lat="48.466265" lon="16.796633">
        <ele>204.505849</ele>
        <time>2020-07-01T06:31:54.981Z</time>
      </trkpt>
      <trkpt lat="48.466180" lon="16.796736">
        <ele>204.466292</ele>
        <time>2020-07-01T06:31:57.006Z</time>
      </trkpt>
      <trkpt lat="48.466092" lon="16.796831">
        <ele>204.427031</ele>
        <time>2020-07-01T06:31:58.974Z</time>
      </trkpt>
      <trkpt lat="48.466001" lon="16.796916">
        <ele>204.388199</ele>
        <time>2020-07-01T06:32:00.991Z</time>
      </trkpt>
      <trkpt lat="48.465908" lon="16.796994">
        <ele>204.349594</ele>
        <time>2020-07-01T06:32:03.006Z</time>
      </trkpt>
      <trkpt lat="48.465812" lon="16.797068">
        <ele>204.316041</ele>
        <time>2020-07-01T06:32:04.968Z</time>
      </trkpt>
      <trkpt lat="48.465714" lon="16.797141">
        <ele>204.282113</ele>
        <time>2020-07-01T06:32:06.970Z</time>
      </trkpt>
      <trkpt lat="48.465619" lon="16.797216">
        <ele>204.248829</ele>
        <time>2020-07-01T06:32:09.017Z</time>
      </trkpt>
      <trkpt lat="48.465531" lon="16.797283">
        <ele>204.218229</ele>
        <time>2020-07-01T06:32:10.985Z</time>
      </trkpt>
      <trkpt lat="48.465451" lon="16.797346">
        <ele>204.190215</ele>
        <time>2020-07-01T06:32:13.006Z</time>
      </trkpt>
      <trkpt lat="48.465393" lon="16.797450">
        <ele>204.162245</ele>
        <time>2020-07-01T06:32:14.983Z</time>
      </trkpt>
      <trkpt lat="48.465372" lon="16.797581">
        <ele>204.134506</ele>
        <time>2020-07-01T06:32:16.989Z</time>
      </trkpt>
      <trkpt lat="48.465365" lon="16.797746">
        <ele>204.100476</ele>
        <time>2020-07-01T06:32:18.995Z</time>
      </trkpt>
      <trkpt lat="48.465355" lon="16.797931">
        <ele>204.062272</ele>
        <time>2020-07-01T06:32:20.997Z</time>
      </trkpt>
      <trkpt lat="48.465340" lon="16.798134">
        <ele>204.020232</ele>
        <time>2020-07-01T06:32:22.971Z</time>
      </trkpt>
      <trkpt lat="48.465338" lon="16.798348">
        <ele>203.976182</ele>
        <time>2020-07-01T06:32:25.003Z</time>
      </trkpt>
      <trkpt lat="48.465331" lon="16.798555">
        <ele>203.933521</ele>
        <time>2020-07-01T06:32:27.008Z</time>
      </trkpt>
      <trkpt lat="48.465325" lon="16.798748">
        <ele>203.893754</ele>
        <time>2020-07-01T06:32:28.977Z</time>
      </trkpt>
      <trkpt lat="48.465321" lon="16.798941">
        <ele>203.854011</ele>
        <time>2020-07-01T06:32:30.991Z</time>
      </trkpt>
      <trkpt lat="48.465313" lon="16.799133">
        <ele>203.814415</ele>
        <time>2020-07-01T06:32:32.966Z</time>
      </trkpt>
      <trkpt lat="48.465302" lon="16.799325">
        <ele>203.741216</ele>
        <time>2020-07-01T06:32:34.976Z</time>
      </trkpt>
      <trkpt lat="48.465291" lon="16.799505">
        <ele>203.625692</ele>
        <time>2020-07-01T06:32:36.983Z</time>
      </trkpt>
      <trkpt lat="48.465276" lon="16.799681">
        <ele>203.512286</ele>
        <time>2020-07-01T06:32:38.968Z</time>
      </trkpt>
      <trkpt lat="48.465268" lon="16.799855">
        <ele>203.400817</ele>
        <time>2020-07-01T06:32:41.000Z</time>
      </trkpt>
      <trkpt lat="48.465262" lon="16.800016">
        <ele>203.297761</ele>
        <time>2020-07-01T06:32:42.989Z</time>
      </trkpt>
      <trkpt lat="48.465255" lon="16.800177">
        <ele>203.194646</ele>
        <time>2020-07-01T06:32:44.960Z</time>
      </trkpt>
      <trkpt lat="48.465249" lon="16.800338">
        <ele>203.091589</ele>
        <time>2020-07-01T06:32:46.965Z</time>
      </trkpt>
      <trkpt lat="48.465238" lon="16.800494">
        <ele>202.991328</ele>
        <time>2020-07-01T06:32:48.957Z</time>
      </trkpt>
      <trkpt lat="48.465221" lon="16.800651">
        <ele>202.889662</ele>
        <time>2020-07-01T06:32:50.966Z</time>
      </trkpt>
      <trkpt lat="48.465206" lon="16.800792">
        <ele>202.798397</ele>
        <time>2020-07-01T06:32:52.963Z</time>
      </trkpt>
      <trkpt lat="48.465190" lon="16.800931">
        <ele>202.708234</ele>
        <time>2020-07-01T06:32:54.961Z</time>
      </trkpt>
      <trkpt lat="48.465178" lon="16.801066">
        <ele>202.621185</ele>
        <time>2020-07-01T06:32:56.986Z</time>
      </trkpt>
      <trkpt lat="48.465164" lon="16.801205">
        <ele>202.531332</ele>
        <time>2020-07-01T06:32:58.989Z</time>
      </trkpt>
      <trkpt lat="48.465150" lon="16.801347">
        <ele>202.439582</ele>
        <time>2020-07-01T06:33:00.956Z</time>
      </trkpt>
      <trkpt lat="48.465136" lon="16.801497">
        <ele>202.342773</ele>
        <time>2020-07-01T06:33:02.958Z</time>
      </trkpt>
      <trkpt lat="48.465114" lon="16.801657">
        <ele>202.238343</ele>
        <time>2020-07-01T06:33:04.959Z</time>
      </trkpt>
      <trkpt lat="48.465084" lon="16.801821">
        <ele>202.129616</ele>
        <time>2020-07-01T06:33:06.961Z</time>
      </trkpt>
      <trkpt lat="48.465058" lon="16.801994">
        <ele>202.018134</ele>
        <time>2020-07-01T06:33:08.996Z</time>
      </trkpt>
      <trkpt lat="48.465017" lon="16.802154">
        <ele>201.913574</ele>
        <time>2020-07-01T06:33:10.973Z</time>
      </trkpt>
      <trkpt lat="48.464975" lon="16.802425">
        <ele>201.743928</ele>
        <time>2020-07-01T06:33:13.988Z</time>
      </trkpt>
      <trkpt lat="48.464948" lon="16.802601">
        <ele>201.633810</ele>
        <time>2020-07-01T06:33:15.978Z</time>
      </trkpt>
      <trkpt lat="48.464921" lon="16.802779">
        <ele>201.522503</ele>
        <time>2020-07-01T06:33:17.979Z</time>
      </trkpt>
      <trkpt lat="48.464891" lon="16.802956">
        <ele>201.411140</ele>
        <time>2020-07-01T06:33:19.967Z</time>
      </trkpt>
      <trkpt lat="48.464858" lon="16.803129">
        <ele>201.301407</ele>
        <time>2020-07-01T06:33:21.957Z</time>
      </trkpt>
      <trkpt lat="48.464833" lon="16.803303">
        <ele>201.192880</ele>
        <time>2020-07-01T06:33:23.996Z</time>
      </trkpt>
      <trkpt lat="48.464808" lon="16.803481">
        <ele>201.081969</ele>
        <time>2020-07-01T06:33:25.978Z</time>
      </trkpt>
      <trkpt lat="48.464781" lon="16.803660">
        <ele>200.970068</ele>
        <time>2020-07-01T06:33:27.963Z</time>
      </trkpt>
      <trkpt lat="48.464736" lon="16.803816">
        <ele>200.866366</ele>
        <time>2020-07-01T06:33:29.965Z</time>
      </trkpt>
      <trkpt lat="48.464678" lon="16.803949">
        <ele>200.769331</ele>
        <time>2020-07-01T06:33:31.957Z</time>
      </trkpt>
      <trkpt lat="48.464619" lon="16.804083">
        <ele>200.671280</ele>
        <time>2020-07-01T06:33:33.984Z</time>
      </trkpt>
      <trkpt lat="48.464567" lon="16.804212">
        <ele>200.579255</ele>
        <time>2020-07-01T06:33:36.007Z</time>
      </trkpt>
      <trkpt lat="48.464537" lon="16.804352">
        <ele>200.489568</ele>
        <time>2020-07-01T06:33:37.960Z</time>
      </trkpt>
      <trkpt lat="48.464509" lon="16.804497">
        <ele>200.407046</ele>
        <time>2020-07-01T06:33:39.967Z</time>
      </trkpt>
      <trkpt lat="48.464478" lon="16.804648">
        <ele>200.461912</ele>
        <time>2020-07-01T06:33:41.961Z</time>
      </trkpt>
      <trkpt lat="48.464442" lon="16.804805">
        <ele>200.519573</ele>
        <time>2020-07-01T06:33:43.962Z</time>
      </trkpt>
      <trkpt lat="48.464400" lon="16.804942">
        <ele>200.571963</ele>
        <time>2020-07-01T06:33:45.964Z</time>
      </trkpt>
      <trkpt lat="48.464354" lon="16.805065">
        <ele>200.620978</ele>
        <time>2020-07-01T06:33:47.969Z</time>
      </trkpt>
      <trkpt lat="48.464302" lon="16.805183">
        <ele>200.670156</ele>
        <time>2020-07-01T06:33:49.983Z</time>
      </trkpt>
      <trkpt lat="48.464250" lon="16.805303">
        <ele>200.719914</ele>
        <time>2020-07-01T06:33:51.964Z</time>
      </trkpt>
      <trkpt lat="48.464200" lon="16.805419">
        <ele>200.767937</ele>
        <time>2020-07-01T06:33:53.973Z</time>
      </trkpt>
      <trkpt lat="48.464150" lon="16.805536">
        <ele>200.816251</ele>
        <time>2020-07-01T06:33:55.983Z</time>
      </trkpt>
      <trkpt lat="48.464106" lon="16.805659">
        <ele>200.864761</ele>
        <time>2020-07-01T06:33:57.958Z</time>
      </trkpt>
      <trkpt lat="48.464069" lon="16.805796">
        <ele>200.916107</ele>
        <time>2020-07-01T06:33:59.958Z</time>
      </trkpt>
      <trkpt lat="48.464035" lon="16.805927">
        <ele>200.964937</ele>
        <time>2020-07-01T06:34:01.979Z</time>
      </trkpt>
      <trkpt lat="48.464002" lon="16.806063">
        <ele>201.015204</ele>
        <time>2020-07-01T06:34:04.006Z</time>
      </trkpt>
      <trkpt lat="48.463972" lon="16.806235">
        <ele>201.076937</ele>
        <time>2020-07-01T06:34:06.967Z</time>
      </trkpt>
      <trkpt lat="48.463955" lon="16.806374">
        <ele>201.125998</ele>
        <time>2020-07-01T06:34:08.965Z</time>
      </trkpt>
      <trkpt lat="48.463929" lon="16.806536">
        <ele>201.183852</ele>
        <time>2020-07-01T06:34:10.980Z</time>
      </trkpt>
      <trkpt lat="48.463914" lon="16.806695">
        <ele>201.239597</ele>
        <time>2020-07-01T06:34:12.975Z</time>
      </trkpt>
      <trkpt lat="48.463898" lon="16.806849">
        <ele>201.293704</ele>
        <time>2020-07-01T06:34:14.962Z</time>
      </trkpt>
      <trkpt lat="48.463873" lon="16.807019">
        <ele>201.351812</ele>
        <time>2020-07-01T06:34:16.984Z</time>
      </trkpt>
      <trkpt lat="48.463848" lon="16.807179">
        <ele>201.394141</ele>
        <time>2020-07-01T06:34:18.994Z</time>
      </trkpt>
      <trkpt lat="48.463824" lon="16.807356">
        <ele>201.440663</ele>
        <time>2020-07-01T06:34:20.982Z</time>
      </trkpt>
      <trkpt lat="48.463794" lon="16.807537">
        <ele>201.488705</ele>
        <time>2020-07-01T06:34:22.974Z</time>
      </trkpt>
      <trkpt lat="48.463762" lon="16.807714">
        <ele>201.535947</ele>
        <time>2020-07-01T06:34:24.971Z</time>
      </trkpt>
      <trkpt lat="48.463732" lon="16.807896">
        <ele>201.584239</ele>
        <time>2020-07-01T06:34:26.992Z</time>
      </trkpt>
      <trkpt lat="48.463698" lon="16.808079">
        <ele>201.633178</ele>
        <time>2020-07-01T06:34:28.989Z</time>
      </trkpt>
      <trkpt lat="48.463673" lon="16.808270">
        <ele>201.683310</ele>
        <time>2020-07-01T06:34:30.961Z</time>
      </trkpt>
      <trkpt lat="48.463648" lon="16.808463">
        <ele>201.733948</ele>
        <time>2020-07-01T06:34:32.964Z</time>
      </trkpt>
      <trkpt lat="48.463618" lon="16.808651">
        <ele>201.783742</ele>
        <time>2020-07-01T06:34:34.963Z</time>
      </trkpt>
      <trkpt lat="48.463589" lon="16.808842">
        <ele>201.834198</ele>
        <time>2020-07-01T06:34:36.983Z</time>
      </trkpt>
      <trkpt lat="48.463562" lon="16.809026">
        <ele>201.882726</ele>
        <time>2020-07-01T06:34:38.968Z</time>
      </trkpt>
      <trkpt lat="48.463540" lon="16.809214">
        <ele>201.931885</ele>
        <time>2020-07-01T06:34:41.017Z</time>
      </trkpt>
      <trkpt lat="48.463521" lon="16.809402">
        <ele>201.980855</ele>
        <time>2020-07-01T06:34:43.005Z</time>
      </trkpt>
      <trkpt lat="48.463508" lon="16.809585">
        <ele>202.028248</ele>
        <time>2020-07-01T06:34:44.986Z</time>
      </trkpt>
      <trkpt lat="48.463502" lon="16.809770">
        <ele>202.040914</ele>
        <time>2020-07-01T06:34:46.974Z</time>
      </trkpt>
      <trkpt lat="48.463499" lon="16.809950">
        <ele>202.037078</ele>
        <time>2020-07-01T06:34:48.986Z</time>
      </trkpt>
      <trkpt lat="48.463500" lon="16.810127">
        <ele>202.033307</ele>
        <time>2020-07-01T06:34:50.980Z</time>
      </trkpt>
      <trkpt lat="48.463497" lon="16.810312">
        <ele>202.029364</ele>
        <time>2020-07-01T06:34:52.995Z</time>
      </trkpt>
      <trkpt lat="48.463497" lon="16.810491">
        <ele>202.025551</ele>
        <time>2020-07-01T06:34:54.971Z</time>
      </trkpt>
      <trkpt lat="48.463496" lon="16.810668">
        <ele>202.021780</ele>
        <time>2020-07-01T06:34:56.985Z</time>
      </trkpt>
      <trkpt lat="48.463500" lon="16.810847">
        <ele>202.017964</ele>
        <time>2020-07-01T06:34:59.006Z</time>
      </trkpt>
      <trkpt lat="48.463510" lon="16.811029">
        <ele>202.014073</ele>
        <time>2020-07-01T06:35:00.993Z</time>
      </trkpt>
      <trkpt lat="48.463519" lon="16.811211">
        <ele>202.010185</ele>
        <time>2020-07-01T06:35:02.985Z</time>
      </trkpt>
      <trkpt lat="48.463526" lon="16.811390">
        <ele>202.006365</ele>
        <time>2020-07-01T06:35:04.980Z</time>
      </trkpt>
      <trkpt lat="48.463536" lon="16.811570">
        <ele>202.002516</ele>
        <time>2020-07-01T06:35:06.991Z</time>
      </trkpt>
      <trkpt lat="48.463542" lon="16.811751">
        <ele>201.998655</ele>
        <time>2020-07-01T06:35:08.977Z</time>
      </trkpt>
      <trkpt lat="48.463547" lon="16.811935">
        <ele>201.994732</ele>
        <time>2020-07-01T06:35:10.979Z</time>
      </trkpt>
      <trkpt lat="48.463553" lon="16.812120">
        <ele>201.990786</ele>
        <time>2020-07-01T06:35:12.977Z</time>
      </trkpt>
      <trkpt lat="48.463559" lon="16.812303">
        <ele>201.986882</ele>
        <time>2020-07-01T06:35:14.993Z</time>
      </trkpt>
      <trkpt lat="48.463567" lon="16.812484">
        <ele>201.999946</ele>
        <time>2020-07-01T06:35:16.956Z</time>
      </trkpt>
      <trkpt lat="48.463577" lon="16.812662">
        <ele>202.019282</ele>
        <time>2020-07-01T06:35:18.987Z</time>
      </trkpt>
      <trkpt lat="48.463580" lon="16.812835">
        <ele>202.038014</ele>
        <time>2020-07-01T06:35:20.978Z</time>
      </trkpt>
      <trkpt lat="48.463582" lon="16.813009">
        <ele>202.056851</ele>
        <time>2020-07-01T06:35:22.996Z</time>
      </trkpt>
      <trkpt lat="48.463588" lon="16.813189">
        <ele>202.076359</ele>
        <time>2020-07-01T06:35:24.979Z</time>
      </trkpt>
      <trkpt lat="48.463600" lon="16.813372">
        <ele>202.096264</ele>
        <time>2020-07-01T06:35:26.981Z</time>
      </trkpt>
      <trkpt lat="48.463612" lon="16.813554">
        <ele>202.116061</ele>
        <time>2020-07-01T06:35:28.999Z</time>
      </trkpt>
      <trkpt lat="48.463627" lon="16.813731">
        <ele>202.135375</ele>
        <time>2020-07-01T06:35:31.002Z</time>
      </trkpt>
      <trkpt lat="48.463641" lon="16.813907">
        <ele>202.154562</ele>
        <time>2020-07-01T06:35:32.965Z</time>
      </trkpt>
      <trkpt lat="48.463654" lon="16.814081">
        <ele>202.173515</ele>
        <time>2020-07-01T06:35:34.995Z</time>
      </trkpt>
      <trkpt lat="48.463666" lon="16.814254">
        <ele>202.192343</ele>
        <time>2020-07-01T06:35:37.001Z</time>
      </trkpt>
      <trkpt lat="48.463675" lon="16.814425">
        <ele>202.210911</ele>
        <time>2020-07-01T06:35:38.957Z</time>
      </trkpt>
      <trkpt lat="48.463686" lon="16.814595">
        <ele>202.229399</ele>
        <time>2020-07-01T06:35:40.982Z</time>
      </trkpt>
      <trkpt lat="48.463694" lon="16.814765">
        <ele>202.247846</ele>
        <time>2020-07-01T06:35:42.974Z</time>
      </trkpt>
      <trkpt lat="48.463703" lon="16.814934">
        <ele>202.266198</ele>
        <time>2020-07-01T06:35:44.991Z</time>
      </trkpt>
      <trkpt lat="48.463711" lon="16.815104">
        <ele>202.266507</ele>
        <time>2020-07-01T06:35:46.987Z</time>
      </trkpt>
      <trkpt lat="48.463713" lon="16.815268">
        <ele>202.222804</ele>
        <time>2020-07-01T06:35:48.988Z</time>
      </trkpt>
      <trkpt lat="48.463720" lon="16.815433">
        <ele>202.178753</ele>
        <time>2020-07-01T06:35:50.972Z</time>
      </trkpt>
      <trkpt lat="48.463736" lon="16.815596">
        <ele>202.134851</ele>
        <time>2020-07-01T06:35:52.955Z</time>
      </trkpt>
      <trkpt lat="48.463768" lon="16.815751">
        <ele>202.091598</ele>
        <time>2020-07-01T06:35:54.981Z</time>
      </trkpt>
      <trkpt lat="48.463814" lon="16.815899">
        <ele>202.048049</ele>
        <time>2020-07-01T06:35:56.975Z</time>
      </trkpt>
      <trkpt lat="48.463861" lon="16.816048">
        <ele>202.004087</ele>
        <time>2020-07-01T06:35:58.982Z</time>
      </trkpt>
      <trkpt lat="48.463909" lon="16.816191">
        <ele>201.961383</ele>
        <time>2020-07-01T06:36:00.988Z</time>
      </trkpt>
      <trkpt lat="48.463957" lon="16.816335">
        <ele>201.918442</ele>
        <time>2020-07-01T06:36:02.992Z</time>
      </trkpt>
      <trkpt lat="48.464004" lon="16.816474">
        <ele>201.876871</ele>
        <time>2020-07-01T06:36:04.987Z</time>
      </trkpt>
      <trkpt lat="48.464047" lon="16.816611">
        <ele>201.836486</ele>
        <time>2020-07-01T06:36:06.981Z</time>
      </trkpt>
      <trkpt lat="48.464087" lon="16.816758">
        <ele>201.794151</ele>
        <time>2020-07-01T06:36:08.987Z</time>
      </trkpt>
      <trkpt lat="48.464120" lon="16.816919">
        <ele>201.749253</ele>
        <time>2020-07-01T06:36:10.979Z</time>
      </trkpt>
      <trkpt lat="48.464129" lon="16.817083">
        <ele>201.705408</ele>
        <time>2020-07-01T06:36:12.989Z</time>
      </trkpt>
      <trkpt lat="48.464131" lon="16.817248">
        <ele>201.661440</ele>
        <time>2020-07-01T06:36:14.969Z</time>
      </trkpt>
      <trkpt lat="48.464124" lon="16.817411">
        <ele>201.617920</ele>
        <time>2020-07-01T06:36:16.982Z</time>
      </trkpt>
      <trkpt lat="48.464111" lon="16.817580">
        <ele>201.572591</ele>
        <time>2020-07-01T06:36:18.984Z</time>
      </trkpt>
      <trkpt lat="48.464079" lon="16.817755">
        <ele>201.499969</ele>
        <time>2020-07-01T06:36:20.966Z</time>
      </trkpt>
      <trkpt lat="48.464046" lon="16.817926">
        <ele>201.417077</ele>
        <time>2020-07-01T06:36:23.008Z</time>
      </trkpt>
      <trkpt lat="48.464013" lon="16.818094">
        <ele>201.335525</ele>
        <time>2020-07-01T06:36:24.985Z</time>
      </trkpt>
      <trkpt lat="48.463977" lon="16.818247">
        <ele>201.259962</ele>
        <time>2020-07-01T06:36:26.961Z</time>
      </trkpt>
      <trkpt lat="48.463951" lon="16.818407">
        <ele>201.183288</ele>
        <time>2020-07-01T06:36:28.975Z</time>
      </trkpt>
      <trkpt lat="48.463928" lon="16.818570">
        <ele>201.105723</ele>
        <time>2020-07-01T06:36:30.974Z</time>
      </trkpt>
      <trkpt lat="48.463897" lon="16.818735">
        <ele>201.025903</ele>
        <time>2020-07-01T06:36:32.972Z</time>
      </trkpt>
      <trkpt lat="48.463871" lon="16.818896">
        <ele>200.948777</ele>
        <time>2020-07-01T06:36:34.956Z</time>
      </trkpt>
      <trkpt lat="48.463853" lon="16.819054">
        <ele>200.874160</ele>
        <time>2020-07-01T06:36:36.989Z</time>
      </trkpt>
      <trkpt lat="48.463844" lon="16.819207">
        <ele>200.802668</ele>
        <time>2020-07-01T06:36:38.972Z</time>
      </trkpt>
      <trkpt lat="48.463830" lon="16.819346">
        <ele>200.737230</ele>
        <time>2020-07-01T06:36:40.955Z</time>
      </trkpt>
      <trkpt lat="48.463810" lon="16.819514">
        <ele>200.657786</ele>
        <time>2020-07-01T06:36:42.986Z</time>
      </trkpt>
      <trkpt lat="48.463785" lon="16.819680">
        <ele>200.578555</ele>
        <time>2020-07-01T06:36:44.960Z</time>
      </trkpt>
      <trkpt lat="48.463750" lon="16.819839">
        <ele>200.500579</ele>
        <time>2020-07-01T06:36:46.970Z</time>
      </trkpt>
      <trkpt lat="48.463711" lon="16.819994">
        <ele>200.423417</ele>
        <time>2020-07-01T06:36:48.978Z</time>
      </trkpt>
      <trkpt lat="48.463675" lon="16.820143">
        <ele>200.349606</ele>
        <time>2020-07-01T06:36:50.978Z</time>
      </trkpt>
      <trkpt lat="48.463644" lon="16.820293">
        <ele>200.285263</ele>
        <time>2020-07-01T06:36:52.992Z</time>
      </trkpt>
      <trkpt lat="48.463608" lon="16.820448">
        <ele>200.246733</ele>
        <time>2020-07-01T06:36:54.969Z</time>
      </trkpt>
      <trkpt lat="48.463573" lon="16.820604">
        <ele>200.208096</ele>
        <time>2020-07-01T06:36:56.970Z</time>
      </trkpt>
      <trkpt lat="48.463546" lon="16.820761">
        <ele>200.170044</ele>
        <time>2020-07-01T06:36:58.995Z</time>
      </trkpt>
      <trkpt lat="48.463510" lon="16.820911">
        <ele>200.132618</ele>
        <time>2020-07-01T06:37:00.994Z</time>
      </trkpt>
      <trkpt lat="48.463469" lon="16.821059">
        <ele>200.094988</ele>
        <time>2020-07-01T06:37:02.996Z</time>
      </trkpt>
      <trkpt lat="48.463424" lon="16.821205">
        <ele>200.057216</ele>
        <time>2020-07-01T06:37:04.959Z</time>
      </trkpt>
      <trkpt lat="48.463369" lon="16.821353">
        <ele>200.017412</ele>
        <time>2020-07-01T06:37:06.994Z</time>
      </trkpt>
      <trkpt lat="48.463317" lon="16.821497">
        <ele>199.978944</ele>
        <time>2020-07-01T06:37:08.990Z</time>
      </trkpt>
      <trkpt lat="48.463261" lon="16.821650">
        <ele>199.937944</ele>
        <time>2020-07-01T06:37:10.966Z</time>
      </trkpt>
      <trkpt lat="48.463209" lon="16.821798">
        <ele>199.898648</ele>
        <time>2020-07-01T06:37:12.994Z</time>
      </trkpt>
      <trkpt lat="48.463156" lon="16.821953">
        <ele>199.857734</ele>
        <time>2020-07-01T06:37:14.995Z</time>
      </trkpt>
      <trkpt lat="48.463105" lon="16.822102">
        <ele>199.818394</ele>
        <time>2020-07-01T06:37:16.984Z</time>
      </trkpt>
      <trkpt lat="48.463107" lon="16.822264">
        <ele>199.780381</ele>
        <time>2020-07-01T06:37:18.960Z</time>
      </trkpt>
      <trkpt lat="48.463177" lon="16.822378">
        <ele>199.743929</ele>
        <time>2020-07-01T06:37:20.966Z</time>
      </trkpt>
      <trkpt lat="48.463271" lon="16.822463">
        <ele>199.705151</ele>
        <time>2020-07-01T06:37:22.981Z</time>
      </trkpt>
      <trkpt lat="48.463371" lon="16.822536">
        <ele>199.665843</ele>
        <time>2020-07-01T06:37:24.959Z</time>
      </trkpt>
      <trkpt lat="48.463474" lon="16.822610">
        <ele>199.633133</ele>
        <time>2020-07-01T06:37:26.989Z</time>
      </trkpt>
      <trkpt lat="48.463576" lon="16.822683">
        <ele>199.602644</ele>
        <time>2020-07-01T06:37:28.983Z</time>
      </trkpt>
      <trkpt lat="48.463677" lon="16.822756">
        <ele>199.572398</ele>
        <time>2020-07-01T06:37:30.975Z</time>
      </trkpt>
      <trkpt lat="48.463771" lon="16.822824">
        <ele>199.544244</ele>
        <time>2020-07-01T06:37:33.000Z</time>
      </trkpt>
      <trkpt lat="48.463868" lon="16.822897">
        <ele>199.514968</ele>
        <time>2020-07-01T06:37:34.986Z</time>
      </trkpt>
      <trkpt lat="48.463967" lon="16.822971">
        <ele>199.485130</ele>
        <time>2020-07-01T06:37:36.991Z</time>
      </trkpt>
      <trkpt lat="48.464063" lon="16.823040">
        <ele>199.456411</ele>
        <time>2020-07-01T06:37:38.969Z</time>
      </trkpt>
      <trkpt lat="48.464159" lon="16.823095">
        <ele>199.428678</ele>
        <time>2020-07-01T06:37:40.994Z</time>
      </trkpt>
      <trkpt lat="48.464256" lon="16.823145">
        <ele>199.400996</ele>
        <time>2020-07-01T06:37:42.994Z</time>
      </trkpt>
      <trkpt lat="48.464354" lon="16.823208">
        <ele>199.372226</ele>
        <time>2020-07-01T06:37:45.003Z</time>
      </trkpt>
      <trkpt lat="48.464453" lon="16.823266">
        <ele>199.343545</ele>
        <time>2020-07-01T06:37:46.991Z</time>
      </trkpt>
      <trkpt lat="48.464548" lon="16.823308">
        <ele>199.316811</ele>
        <time>2020-07-01T06:37:48.997Z</time>
      </trkpt>
      <trkpt lat="48.464646" lon="16.823348">
        <ele>199.289393</ele>
        <time>2020-07-01T06:37:51.004Z</time>
      </trkpt>
      <trkpt lat="48.464740" lon="16.823387">
        <ele>199.263066</ele>
        <time>2020-07-01T06:37:52.997Z</time>
      </trkpt>
      <trkpt lat="48.464840" lon="16.823426">
        <ele>199.235172</ele>
        <time>2020-07-01T06:37:54.973Z</time>
      </trkpt>
      <trkpt lat="48.464939" lon="16.823467">
        <ele>199.207447</ele>
        <time>2020-07-01T06:37:56.968Z</time>
      </trkpt>
      <trkpt lat="48.465040" lon="16.823509">
        <ele>199.179154</ele>
        <time>2020-07-01T06:37:58.985Z</time>
      </trkpt>
      <trkpt lat="48.465141" lon="16.823553">
        <ele>199.154858</ele>
        <time>2020-07-01T06:38:01.004Z</time>
      </trkpt>
      <trkpt lat="48.465240" lon="16.823596">
        <ele>199.132376</ele>
        <time>2020-07-01T06:38:02.977Z</time>
      </trkpt>
      <trkpt lat="48.465339" lon="16.823634">
        <ele>199.110084</ele>
        <time>2020-07-01T06:38:04.963Z</time>
      </trkpt>
      <trkpt lat="48.465438" lon="16.823669">
        <ele>199.087894</ele>
        <time>2020-07-01T06:38:06.962Z</time>
      </trkpt>
      <trkpt lat="48.465535" lon="16.823709">
        <ele>199.065950</ele>
        <time>2020-07-01T06:38:08.992Z</time>
      </trkpt>
      <trkpt lat="48.465633" lon="16.823751">
        <ele>199.043718</ele>
        <time>2020-07-01T06:38:11.008Z</time>
      </trkpt>
      <trkpt lat="48.465734" lon="16.823796">
        <ele>199.020736</ele>
        <time>2020-07-01T06:38:12.963Z</time>
      </trkpt>
      <trkpt lat="48.465830" lon="16.823854">
        <ele>198.998168</ele>
        <time>2020-07-01T06:38:14.970Z</time>
      </trkpt>
      <trkpt lat="48.465913" lon="16.823951">
        <ele>198.975255</ele>
        <time>2020-07-01T06:38:16.973Z</time>
      </trkpt>
      <trkpt lat="48.465979" lon="16.824083">
        <ele>198.951333</ele>
        <time>2020-07-01T06:38:18.975Z</time>
      </trkpt>
      <trkpt lat="48.466016" lon="16.824236">
        <ele>198.927769</ele>
        <time>2020-07-01T06:38:20.979Z</time>
      </trkpt>
      <trkpt lat="48.466026" lon="16.824404">
        <ele>198.903363</ele>
        <time>2020-07-01T06:38:22.988Z</time>
      </trkpt>
      <trkpt lat="48.466026" lon="16.824570">
        <ele>198.879343</ele>
        <time>2020-07-01T06:38:24.972Z</time>
      </trkpt>
      <trkpt lat="48.466021" lon="16.824736">
        <ele>198.855300</ele>
        <time>2020-07-01T06:38:26.958Z</time>
      </trkpt>
      <trkpt lat="48.466012" lon="16.824902">
        <ele>198.831200</ele>
        <time>2020-07-01T06:38:28.990Z</time>
      </trkpt>
      <trkpt lat="48.465995" lon="16.825063">
        <ele>198.807611</ele>
        <time>2020-07-01T06:38:30.965Z</time>
      </trkpt>
      <trkpt lat="48.465965" lon="16.825214">
        <ele>198.784803</ele>
        <time>2020-07-01T06:38:32.984Z</time>
      </trkpt>
      <trkpt lat="48.465932" lon="16.825372">
        <ele>198.767793</ele>
        <time>2020-07-01T06:38:34.994Z</time>
      </trkpt>
      <trkpt lat="48.465896" lon="16.825527">
        <ele>198.752845</ele>
        <time>2020-07-01T06:38:36.982Z</time>
      </trkpt>
      <trkpt lat="48.465864" lon="16.825690">
        <ele>198.737372</ele>
        <time>2020-07-01T06:38:38.983Z</time>
      </trkpt>
      <trkpt lat="48.465840" lon="16.825860">
        <ele>198.721552</ele>
        <time>2020-07-01T06:38:40.983Z</time>
      </trkpt>
      <trkpt lat="48.465826" lon="16.826023">
        <ele>198.706591</ele>
        <time>2020-07-01T06:38:42.962Z</time>
      </trkpt>
      <trkpt lat="48.465801" lon="16.826192">
        <ele>198.690831</ele>
        <time>2020-07-01T06:38:44.997Z</time>
      </trkpt>
      <trkpt lat="48.465769" lon="16.826361">
        <ele>198.674834</ele>
        <time>2020-07-01T06:38:47.012Z</time>
      </trkpt>
      <trkpt lat="48.465732" lon="16.826518">
        <ele>198.659668</ele>
        <time>2020-07-01T06:38:49.016Z</time>
      </trkpt>
      <trkpt lat="48.465691" lon="16.826681">
        <ele>198.643800</ele>
        <time>2020-07-01T06:38:50.971Z</time>
      </trkpt>
      <trkpt lat="48.465657" lon="16.826838">
        <ele>198.628767</ele>
        <time>2020-07-01T06:38:52.998Z</time>
      </trkpt>
      <trkpt lat="48.465624" lon="16.826996">
        <ele>198.613689</ele>
        <time>2020-07-01T06:38:54.989Z</time>
      </trkpt>
      <trkpt lat="48.465593" lon="16.827159">
        <ele>198.598254</ele>
        <time>2020-07-01T06:38:56.967Z</time>
      </trkpt>
      <trkpt lat="48.465563" lon="16.827320">
        <ele>198.583032</ele>
        <time>2020-07-01T06:38:58.959Z</time>
      </trkpt>
      <trkpt lat="48.465534" lon="16.827484">
        <ele>198.567583</ele>
        <time>2020-07-01T06:39:00.977Z</time>
      </trkpt>
      <trkpt lat="48.465504" lon="16.827644">
        <ele>198.552449</ele>
        <time>2020-07-01T06:39:02.991Z</time>
      </trkpt>
      <trkpt lat="48.465472" lon="16.827798">
        <ele>198.537759</ele>
        <time>2020-07-01T06:39:04.972Z</time>
      </trkpt>
      <trkpt lat="48.465447" lon="16.827947">
        <ele>198.515869</ele>
        <time>2020-07-01T06:39:06.995Z</time>
      </trkpt>
      <trkpt lat="48.465421" lon="16.828108">
        <ele>198.487433</ele>
        <time>2020-07-01T06:39:08.974Z</time>
      </trkpt>
      <trkpt lat="48.465390" lon="16.828266">
        <ele>198.459157</ele>
        <time>2020-07-01T06:39:10.959Z</time>
      </trkpt>
      <trkpt lat="48.465359" lon="16.828427">
        <ele>198.430387</ele>
        <time>2020-07-01T06:39:12.965Z</time>
      </trkpt>
      <trkpt lat="48.465335" lon="16.828577">
        <ele>198.403907</ele>
        <time>2020-07-01T06:39:14.980Z</time>
      </trkpt>
      <trkpt lat="48.465316" lon="16.828732">
        <ele>198.376858</ele>
        <time>2020-07-01T06:39:16.966Z</time>
      </trkpt>
      <trkpt lat="48.465301" lon="16.828891">
        <ele>198.349297</ele>
        <time>2020-07-01T06:39:18.986Z</time>
      </trkpt>
      <trkpt lat="48.465288" lon="16.829048">
        <ele>198.322146</ele>
        <time>2020-07-01T06:39:20.982Z</time>
      </trkpt>
      <trkpt lat="48.465275" lon="16.829201">
        <ele>198.295675</ele>
        <time>2020-07-01T06:39:22.969Z</time>
      </trkpt>
      <trkpt lat="48.465266" lon="16.829355">
        <ele>198.269145</ele>
        <time>2020-07-01T06:39:24.964Z</time>
      </trkpt>
      <trkpt lat="48.465261" lon="16.829512">
        <ele>198.242172</ele>
        <time>2020-07-01T06:39:26.964Z</time>
      </trkpt>
      <trkpt lat="48.465271" lon="16.829674">
        <ele>198.214251</ele>
        <time>2020-07-01T06:39:28.977Z</time>
      </trkpt>
      <trkpt lat="48.465287" lon="16.829830">
        <ele>198.187162</ele>
        <time>2020-07-01T06:39:30.976Z</time>
      </trkpt>
      <trkpt lat="48.465301" lon="16.829994">
        <ele>198.158787</ele>
        <time>2020-07-01T06:39:32.958Z</time>
      </trkpt>
      <trkpt lat="48.465331" lon="16.830149">
        <ele>198.131078</ele>
        <time>2020-07-01T06:39:34.989Z</time>
      </trkpt>
      <trkpt lat="48.465358" lon="16.830311">
        <ele>198.102412</ele>
        <time>2020-07-01T06:39:36.988Z</time>
      </trkpt>
      <trkpt lat="48.465385" lon="16.830464">
        <ele>198.075243</ele>
        <time>2020-07-01T06:39:38.971Z</time>
      </trkpt>
      <trkpt lat="48.465427" lon="16.830610">
        <ele>198.051673</ele>
        <time>2020-07-01T06:39:40.952Z</time>
      </trkpt>
      <trkpt lat="48.465475" lon="16.830737">
        <ele>198.031458</ele>
        <time>2020-07-01T06:39:42.983Z</time>
      </trkpt>
      <trkpt lat="48.465529" lon="16.830858">
        <ele>198.011289</ele>
        <time>2020-07-01T06:39:44.987Z</time>
      </trkpt>
      <trkpt lat="48.465589" lon="16.830979">
        <ele>197.990396</ele>
        <time>2020-07-01T06:39:46.992Z</time>
      </trkpt>
      <trkpt lat="48.465654" lon="16.831107">
        <ele>197.968101</ele>
        <time>2020-07-01T06:39:48.970Z</time>
      </trkpt>
      <trkpt lat="48.465719" lon="16.831235">
        <ele>197.945807</ele>
        <time>2020-07-01T06:39:50.999Z</time>
      </trkpt>
      <trkpt lat="48.465792" lon="16.831358">
        <ele>197.922980</ele>
        <time>2020-07-01T06:39:52.967Z</time>
      </trkpt>
      <trkpt lat="48.465866" lon="16.831467">
        <ele>197.901408</ele>
        <time>2020-07-01T06:39:54.983Z</time>
      </trkpt>
      <trkpt lat="48.465944" lon="16.831579">
        <ele>197.878948</ele>
        <time>2020-07-01T06:39:56.984Z</time>
      </trkpt>
      <trkpt lat="48.466022" lon="16.831691">
        <ele>197.856488</ele>
        <time>2020-07-01T06:39:59.007Z</time>
      </trkpt>
      <trkpt lat="48.466099" lon="16.831804">
        <ele>197.834082</ele>
        <time>2020-07-01T06:40:01.000Z</time>
      </trkpt>
      <trkpt lat="48.466168" lon="16.831917">
        <ele>197.812840</ele>
        <time>2020-07-01T06:40:02.958Z</time>
      </trkpt>
      <trkpt lat="48.466238" lon="16.832043">
        <ele>197.790109</ele>
        <time>2020-07-01T06:40:04.979Z</time>
      </trkpt>
      <trkpt lat="48.466310" lon="16.832176">
        <ele>197.766367</ele>
        <time>2020-07-01T06:40:06.967Z</time>
      </trkpt>
      <trkpt lat="48.466375" lon="16.832303">
        <ele>197.744182</ele>
        <time>2020-07-01T06:40:08.990Z</time>
      </trkpt>
      <trkpt lat="48.466436" lon="16.832433">
        <ele>197.722160</ele>
        <time>2020-07-01T06:40:10.983Z</time>
      </trkpt>
      <trkpt lat="48.466490" lon="16.832567">
        <ele>197.700477</ele>
        <time>2020-07-01T06:40:12.981Z</time>
      </trkpt>
      <trkpt lat="48.466534" lon="16.832701">
        <ele>197.689468</ele>
        <time>2020-07-01T06:40:14.978Z</time>
      </trkpt>
      <trkpt lat="48.466575" lon="16.832842">
        <ele>197.684923</ele>
        <time>2020-07-01T06:40:16.986Z</time>
      </trkpt>
      <trkpt lat="48.466617" lon="16.832988">
        <ele>197.680224</ele>
        <time>2020-07-01T06:40:18.978Z</time>
      </trkpt>
      <trkpt lat="48.466649" lon="16.833139">
        <ele>197.675544</ele>
        <time>2020-07-01T06:40:21.002Z</time>
      </trkpt>
      <trkpt lat="48.466680" lon="16.833294">
        <ele>197.670765</ele>
        <time>2020-07-01T06:40:22.969Z</time>
      </trkpt>
      <trkpt lat="48.466710" lon="16.833458">
        <ele>197.665742</ele>
        <time>2020-07-01T06:40:24.972Z</time>
      </trkpt>
      <trkpt lat="48.466731" lon="16.833619">
        <ele>197.660898</ele>
        <time>2020-07-01T06:40:26.993Z</time>
      </trkpt>
      <trkpt lat="48.466740" lon="16.833787">
        <ele>197.655922</ele>
        <time>2020-07-01T06:40:29.013Z</time>
      </trkpt>
      <trkpt lat="48.466750" lon="16.833947">
        <ele>197.651178</ele>
        <time>2020-07-01T06:40:30.994Z</time>
      </trkpt>
      <trkpt lat="48.466758" lon="16.834107">
        <ele>197.646441</ele>
        <time>2020-07-01T06:40:32.981Z</time>
      </trkpt>
      <trkpt lat="48.466771" lon="16.834263">
        <ele>197.641799</ele>
        <time>2020-07-01T06:40:35.001Z</time>
      </trkpt>
      <trkpt lat="48.466789" lon="16.834421">
        <ele>197.637066</ele>
        <time>2020-07-01T06:40:36.992Z</time>
      </trkpt>
      <trkpt lat="48.466801" lon="16.834563">
        <ele>197.632840</ele>
        <time>2020-07-01T06:40:38.965Z</time>
      </trkpt>
      <trkpt lat="48.466809" lon="16.834711">
        <ele>197.628456</ele>
        <time>2020-07-01T06:40:40.974Z</time>
      </trkpt>
      <trkpt lat="48.466816" lon="16.834866">
        <ele>197.623870</ele>
        <time>2020-07-01T06:40:42.986Z</time>
      </trkpt>
      <trkpt lat="48.466823" lon="16.835023">
        <ele>197.619224</ele>
        <time>2020-07-01T06:40:44.978Z</time>
      </trkpt>
      <trkpt lat="48.466830" lon="16.835173">
        <ele>197.614785</ele>
        <time>2020-07-01T06:40:46.978Z</time>
      </trkpt>
      <trkpt lat="48.466841" lon="16.835329">
        <ele>197.612732</ele>
        <time>2020-07-01T06:40:48.959Z</time>
      </trkpt>
      <trkpt lat="48.466853" lon="16.835486">
        <ele>197.614550</ele>
        <time>2020-07-01T06:40:50.984Z</time>
      </trkpt>
      <trkpt lat="48.466865" lon="16.835637">
        <ele>197.616299</ele>
        <time>2020-07-01T06:40:52.972Z</time>
      </trkpt>
      <trkpt lat="48.466874" lon="16.835789">
        <ele>197.618054</ele>
        <time>2020-07-01T06:40:54.982Z</time>
      </trkpt>
      <trkpt lat="48.466887" lon="16.835934">
        <ele>197.619737</ele>
        <time>2020-07-01T06:40:56.964Z</time>
      </trkpt>
      <trkpt lat="48.466907" lon="16.836083">
        <ele>197.621486</ele>
        <time>2020-07-01T06:40:58.958Z</time>
      </trkpt>
      <trkpt lat="48.466938" lon="16.836232">
        <ele>197.623282</ele>
        <time>2020-07-01T06:41:00.975Z</time>
      </trkpt>
      <trkpt lat="48.466977" lon="16.836354">
        <ele>197.624840</ele>
        <time>2020-07-01T06:41:02.964Z</time>
      </trkpt>
      <trkpt lat="48.467021" lon="16.836495">
        <ele>197.626632</ele>
        <time>2020-07-01T06:41:04.960Z</time>
      </trkpt>
      <trkpt lat="48.467071" lon="16.836634">
        <ele>197.628451</ele>
        <time>2020-07-01T06:41:06.983Z</time>
      </trkpt>
      <trkpt lat="48.467119" lon="16.836766">
        <ele>197.630183</ele>
        <time>2020-07-01T06:41:08.991Z</time>
      </trkpt>
      <trkpt lat="48.467173" lon="16.836880">
        <ele>197.631795</ele>
        <time>2020-07-01T06:41:10.997Z</time>
      </trkpt>
      <trkpt lat="48.467249" lon="16.837046">
        <ele>197.634115</ele>
        <time>2020-07-01T06:41:13.991Z</time>
      </trkpt>
      <trkpt lat="48.467314" lon="16.837160">
        <ele>197.635844</ele>
        <time>2020-07-01T06:41:16.018Z</time>
      </trkpt>
      <trkpt lat="48.467381" lon="16.837269">
        <ele>197.637554</ele>
        <time>2020-07-01T06:41:17.971Z</time>
      </trkpt>
      <trkpt lat="48.467451" lon="16.837380">
        <ele>197.639316</ele>
        <time>2020-07-01T06:41:19.991Z</time>
      </trkpt>
      <trkpt lat="48.467521" lon="16.837481">
        <ele>197.640997</ele>
        <time>2020-07-01T06:41:22.003Z</time>
      </trkpt>
      <trkpt lat="48.467598" lon="16.837573">
        <ele>197.642701</ele>
        <time>2020-07-01T06:41:23.974Z</time>
      </trkpt>
      <trkpt lat="48.467676" lon="16.837649">
        <ele>197.654273</ele>
        <time>2020-07-01T06:41:25.960Z</time>
      </trkpt>
      <trkpt lat="48.467751" lon="16.837731">
        <ele>197.670425</ele>
        <time>2020-07-01T06:41:27.970Z</time>
      </trkpt>
      <trkpt lat="48.467824" lon="16.837812">
        <ele>197.686228</ele>
        <time>2020-07-01T06:41:29.995Z</time>
      </trkpt>
      <trkpt lat="48.467926" lon="16.837926">
        <ele>197.708366</ele>
        <time>2020-07-01T06:41:32.959Z</time>
      </trkpt>
      <trkpt lat="48.468030" lon="16.838030">
        <ele>197.730124</ele>
        <time>2020-07-01T06:41:35.981Z</time>
      </trkpt>
      <trkpt lat="48.468131" lon="16.838130">
        <ele>197.751192</ele>
        <time>2020-07-01T06:41:38.966Z</time>
      </trkpt>
      <trkpt lat="48.468229" lon="16.838211">
        <ele>197.770678</ele>
        <time>2020-07-01T06:41:41.959Z</time>
      </trkpt>
      <trkpt lat="48.468330" lon="16.838312">
        <ele>197.791809</ele>
        <time>2020-07-01T06:41:44.985Z</time>
      </trkpt>
      <trkpt lat="48.468428" lon="16.838412">
        <ele>197.812441</ele>
        <time>2020-07-01T06:41:47.988Z</time>
      </trkpt>
      <trkpt lat="48.468525" lon="16.838505">
        <ele>197.832483</ele>
        <time>2020-07-01T06:41:50.998Z</time>
      </trkpt>
      <trkpt lat="48.468617" lon="16.838597">
        <ele>197.851731</ele>
        <time>2020-07-01T06:41:53.964Z</time>
      </trkpt>
      <trkpt lat="48.468705" lon="16.838676">
        <ele>197.869589</ele>
        <time>2020-07-01T06:41:57.001Z</time>
      </trkpt>
      <trkpt lat="48.468785" lon="16.838748">
        <ele>197.885833</ele>
        <time>2020-07-01T06:41:59.980Z</time>
      </trkpt>
      <trkpt lat="48.468864" lon="16.838823">
        <ele>197.902110</ele>
        <time>2020-07-01T06:42:03.009Z</time>
      </trkpt>
      <trkpt lat="48.468943" lon="16.838894">
        <ele>197.918146</ele>
        <time>2020-07-01T06:42:05.965Z</time>
      </trkpt>
      <trkpt lat="48.469029" lon="16.838966">
        <ele>197.935297</ele>
        <time>2020-07-01T06:42:09.987Z</time>
      </trkpt>
      <trkpt lat="48.469110" lon="16.839033">
        <ele>197.951406</ele>
        <time>2020-07-01T06:42:12.999Z</time>
      </trkpt>
      <trkpt lat="48.469217" lon="16.839109">
        <ele>198.027686</ele>
        <time>2020-07-01T06:42:16.977Z</time>
      </trkpt>
      <trkpt lat="48.469297" lon="16.839192">
        <ele>198.106674</ele>
        <time>2020-07-01T06:42:19.969Z</time>
      </trkpt>
      <trkpt lat="48.469375" lon="16.839261">
        <ele>198.180234</ele>
        <time>2020-07-01T06:42:22.997Z</time>
      </trkpt>
      <trkpt lat="48.469477" lon="16.839357">
        <ele>198.278038</ele>
        <time>2020-07-01T06:42:26.984Z</time>
      </trkpt>
      <trkpt lat="48.469560" lon="16.839444">
        <ele>198.360260</ele>
        <time>2020-07-01T06:42:29.992Z</time>
      </trkpt>
      <trkpt lat="48.469639" lon="16.839512">
        <ele>198.434253</ele>
        <time>2020-07-01T06:42:32.978Z</time>
      </trkpt>
      <trkpt lat="48.469728" lon="16.839601">
        <ele>198.521120</ele>
        <time>2020-07-01T06:42:35.967Z</time>
      </trkpt>
      <trkpt lat="48.469825" lon="16.839700">
        <ele>198.616395</ele>
        <time>2020-07-01T06:42:38.983Z</time>
      </trkpt>
      <trkpt lat="48.469924" lon="16.839793">
        <ele>198.711272</ele>
        <time>2020-07-01T06:42:41.969Z</time>
      </trkpt>
      <trkpt lat="48.470025" lon="16.839884">
        <ele>198.806976</ele>
        <time>2020-07-01T06:42:44.986Z</time>
      </trkpt>
      <trkpt lat="48.470131" lon="16.839983">
        <ele>198.908397</ele>
        <time>2020-07-01T06:42:48.005Z</time>
      </trkpt>
      <trkpt lat="48.470225" lon="16.840082">
        <ele>199.001661</ele>
        <time>2020-07-01T06:42:51.003Z</time>
      </trkpt>
      <trkpt lat="48.470327" lon="16.840193">
        <ele>199.103978</ele>
        <time>2020-07-01T06:42:53.961Z</time>
      </trkpt>
      <trkpt lat="48.470435" lon="16.840312">
        <ele>199.212779</ele>
        <time>2020-07-01T06:42:56.948Z</time>
      </trkpt>
      <trkpt lat="48.470511" lon="16.840398">
        <ele>199.290068</ele>
        <time>2020-07-01T06:42:58.978Z</time>
      </trkpt>
      <trkpt lat="48.470582" lon="16.840494">
        <ele>199.367635</ele>
        <time>2020-07-01T06:43:00.976Z</time>
      </trkpt>
      <trkpt lat="48.470653" lon="16.840600">
        <ele>199.439866</ele>
        <time>2020-07-01T06:43:02.979Z</time>
      </trkpt>
      <trkpt lat="48.470716" lon="16.840711">
        <ele>199.494042</ele>
        <time>2020-07-01T06:43:04.996Z</time>
      </trkpt>
      <trkpt lat="48.470777" lon="16.840834">
        <ele>199.550994</ele>
        <time>2020-07-01T06:43:06.983Z</time>
      </trkpt>
      <trkpt lat="48.470842" lon="16.840959">
        <ele>199.609895</ele>
        <time>2020-07-01T06:43:08.979Z</time>
      </trkpt>
      <trkpt lat="48.470898" lon="16.841088">
        <ele>199.667066</ele>
        <time>2020-07-01T06:43:10.978Z</time>
      </trkpt>
      <trkpt lat="48.470949" lon="16.841221">
        <ele>199.724032</ele>
        <time>2020-07-01T06:43:12.964Z</time>
      </trkpt>
      <trkpt lat="48.470993" lon="16.841361">
        <ele>199.781477</ele>
        <time>2020-07-01T06:43:14.958Z</time>
      </trkpt>
      <trkpt lat="48.471036" lon="16.841506">
        <ele>199.840372</ele>
        <time>2020-07-01T06:43:16.966Z</time>
      </trkpt>
      <trkpt lat="48.471083" lon="16.841634">
        <ele>199.894623</ele>
        <time>2020-07-01T06:43:18.994Z</time>
      </trkpt>
      <trkpt lat="48.471132" lon="16.841762">
        <ele>199.949425</ele>
        <time>2020-07-01T06:43:20.972Z</time>
      </trkpt>
      <trkpt lat="48.471180" lon="16.841896">
        <ele>200.005896</ele>
        <time>2020-07-01T06:43:22.988Z</time>
      </trkpt>
      <trkpt lat="48.471229" lon="16.842043">
        <ele>200.066900</ele>
        <time>2020-07-01T06:43:24.956Z</time>
      </trkpt>
      <trkpt lat="48.471277" lon="16.842197">
        <ele>200.129993</ele>
        <time>2020-07-01T06:43:27.002Z</time>
      </trkpt>
      <trkpt lat="48.471329" lon="16.842348">
        <ele>200.193081</ele>
        <time>2020-07-01T06:43:28.998Z</time>
      </trkpt>
      <trkpt lat="48.471378" lon="16.842494">
        <ele>200.253754</ele>
        <time>2020-07-01T06:43:30.959Z</time>
      </trkpt>
      <trkpt lat="48.471425" lon="16.842641">
        <ele>200.314264</ele>
        <time>2020-07-01T06:43:32.993Z</time>
      </trkpt>
      <trkpt lat="48.471477" lon="16.842791">
        <ele>200.377023</ele>
        <time>2020-07-01T06:43:34.996Z</time>
      </trkpt>
      <trkpt lat="48.471530" lon="16.842948">
        <ele>200.433634</ele>
        <time>2020-07-01T06:43:37.021Z</time>
      </trkpt>
      <trkpt lat="48.471587" lon="16.843120">
        <ele>200.467270</ele>
        <time>2020-07-01T06:43:38.999Z</time>
      </trkpt>
      <trkpt lat="48.471639" lon="16.843290">
        <ele>200.500019</ele>
        <time>2020-07-01T06:43:41.015Z</time>
      </trkpt>
      <trkpt lat="48.471682" lon="16.843450">
        <ele>200.530219</ele>
        <time>2020-07-01T06:43:42.999Z</time>
      </trkpt>
      <trkpt lat="48.471716" lon="16.843653">
        <ele>200.566844</ele>
        <time>2020-07-01T06:43:45.008Z</time>
      </trkpt>
      <trkpt lat="48.471776" lon="16.843836">
        <ele>200.602555</ele>
        <time>2020-07-01T06:43:46.963Z</time>
      </trkpt>
      <trkpt lat="48.471841" lon="16.844016">
        <ele>200.638409</ele>
        <time>2020-07-01T06:43:49.015Z</time>
      </trkpt>
      <trkpt lat="48.471887" lon="16.844200">
        <ele>200.672807</ele>
        <time>2020-07-01T06:43:50.977Z</time>
      </trkpt>
      <trkpt lat="48.471843" lon="16.844391">
        <ele>200.708176</ele>
        <time>2020-07-01T06:43:52.966Z</time>
      </trkpt>
      <trkpt lat="48.471764" lon="16.844575">
        <ele>200.746522</ele>
        <time>2020-07-01T06:43:55.006Z</time>
      </trkpt>
      <trkpt lat="48.471697" lon="16.844792">
        <ele>200.788394</ele>
        <time>2020-07-01T06:43:56.970Z</time>
      </trkpt>
      <trkpt lat="48.471610" lon="16.845000">
        <ele>200.831414</ele>
        <time>2020-07-01T06:43:59.013Z</time>
      </trkpt>
      <trkpt lat="48.471518" lon="16.845210">
        <ele>200.875443</ele>
        <time>2020-07-01T06:44:00.989Z</time>
      </trkpt>
      <trkpt lat="48.471419" lon="16.845429">
        <ele>200.881939</ele>
        <time>2020-07-01T06:44:02.976Z</time>
      </trkpt>
      <trkpt lat="48.471317" lon="16.845646">
        <ele>200.841787</ele>
        <time>2020-07-01T06:44:05.013Z</time>
      </trkpt>
      <trkpt lat="48.471222" lon="16.845870">
        <ele>200.801649</ele>
        <time>2020-07-01T06:44:06.997Z</time>
      </trkpt>
      <trkpt lat="48.471121" lon="16.846086">
        <ele>200.761752</ele>
        <time>2020-07-01T06:44:08.997Z</time>
      </trkpt>
      <trkpt lat="48.471017" lon="16.846298">
        <ele>200.721945</ele>
        <time>2020-07-01T06:44:10.976Z</time>
      </trkpt>
      <trkpt lat="48.470924" lon="16.846515">
        <ele>200.682942</ele>
        <time>2020-07-01T06:44:12.962Z</time>
      </trkpt>
      <trkpt lat="48.470832" lon="16.846718">
        <ele>200.645825</ele>
        <time>2020-07-01T06:44:14.969Z</time>
      </trkpt>
      <trkpt lat="48.470744" lon="16.846921">
        <ele>200.609215</ele>
        <time>2020-07-01T06:44:16.990Z</time>
      </trkpt>
      <trkpt lat="48.470654" lon="16.847111">
        <ele>200.573967</ele>
        <time>2020-07-01T06:44:18.961Z</time>
      </trkpt>
      <trkpt lat="48.470574" lon="16.847307">
        <ele>200.539225</ele>
        <time>2020-07-01T06:44:20.956Z</time>
      </trkpt>
      <trkpt lat="48.470495" lon="16.847486">
        <ele>200.506767</ele>
        <time>2020-07-01T06:44:22.956Z</time>
      </trkpt>
      <trkpt lat="48.470460" lon="16.847668">
        <ele>200.472570</ele>
        <time>2020-07-01T06:44:24.969Z</time>
      </trkpt>
      <trkpt lat="48.470541" lon="16.847812">
        <ele>200.431559</ele>
        <time>2020-07-01T06:44:26.971Z</time>
      </trkpt>
      <trkpt lat="48.470651" lon="16.847936">
        <ele>200.386578</ele>
        <time>2020-07-01T06:44:28.975Z</time>
      </trkpt>
      <trkpt lat="48.470766" lon="16.848062">
        <ele>200.340021</ele>
        <time>2020-07-01T06:44:30.990Z</time>
      </trkpt>
      <trkpt lat="48.470878" lon="16.848173">
        <ele>200.296124</ele>
        <time>2020-07-01T06:44:33.000Z</time>
      </trkpt>
      <trkpt lat="48.470997" lon="16.848259">
        <ele>200.252903</ele>
        <time>2020-07-01T06:44:34.997Z</time>
      </trkpt>
      <trkpt lat="48.471108" lon="16.848344">
        <ele>200.212128</ele>
        <time>2020-07-01T06:44:36.987Z</time>
      </trkpt>
      <trkpt lat="48.471200" lon="16.848427">
        <ele>200.177014</ele>
        <time>2020-07-01T06:44:38.978Z</time>
      </trkpt>
      <trkpt lat="48.471288" lon="16.848548">
        <ele>200.138010</ele>
        <time>2020-07-01T06:44:40.967Z</time>
      </trkpt>
      <trkpt lat="48.471389" lon="16.848657">
        <ele>200.097332</ele>
        <time>2020-07-01T06:44:42.971Z</time>
      </trkpt>
      <trkpt lat="48.471490" lon="16.848757">
        <ele>200.057759</ele>
        <time>2020-07-01T06:44:44.965Z</time>
      </trkpt>
      <trkpt lat="48.471584" lon="16.848858">
        <ele>200.019956</ele>
        <time>2020-07-01T06:44:46.968Z</time>
      </trkpt>
      <trkpt lat="48.471684" lon="16.848973">
        <ele>199.978767</ele>
        <time>2020-07-01T06:44:49.007Z</time>
      </trkpt>
      <trkpt lat="48.471787" lon="16.849076">
        <ele>199.938288</ele>
        <time>2020-07-01T06:44:50.985Z</time>
      </trkpt>
      <trkpt lat="48.471883" lon="16.849171">
        <ele>199.902687</ele>
        <time>2020-07-01T06:44:52.964Z</time>
      </trkpt>
      <trkpt lat="48.471975" lon="16.849262">
        <ele>199.933109</ele>
        <time>2020-07-01T06:44:54.995Z</time>
      </trkpt>
      <trkpt lat="48.472072" lon="16.849356">
        <ele>199.964990</ele>
        <time>2020-07-01T06:44:56.967Z</time>
      </trkpt>
      <trkpt lat="48.472160" lon="16.849445">
        <ele>199.994288</ele>
        <time>2020-07-01T06:44:58.990Z</time>
      </trkpt>
      <trkpt lat="48.472244" lon="16.849531">
        <ele>200.022361</ele>
        <time>2020-07-01T06:45:00.983Z</time>
      </trkpt>
      <trkpt lat="48.472325" lon="16.849614">
        <ele>200.049439</ele>
        <time>2020-07-01T06:45:03.011Z</time>
      </trkpt>
      <trkpt lat="48.472415" lon="16.849697">
        <ele>200.078608</ele>
        <time>2020-07-01T06:45:05.010Z</time>
      </trkpt>
      <trkpt lat="48.472503" lon="16.849770">
        <ele>200.106379</ele>
        <time>2020-07-01T06:45:06.973Z</time>
      </trkpt>
      <trkpt lat="48.472579" lon="16.849846">
        <ele>200.131594</ele>
        <time>2020-07-01T06:45:09.014Z</time>
      </trkpt>
      <trkpt lat="48.472678" lon="16.849949">
        <ele>200.164850</ele>
        <time>2020-07-01T06:45:11.973Z</time>
      </trkpt>
      <trkpt lat="48.472782" lon="16.850056">
        <ele>200.199661</ele>
        <time>2020-07-01T06:45:15.009Z</time>
      </trkpt>
      <trkpt lat="48.472885" lon="16.850168">
        <ele>200.234772</ele>
        <time>2020-07-01T06:45:17.990Z</time>
      </trkpt>
      <trkpt lat="48.472966" lon="16.850254">
        <ele>200.262162</ele>
        <time>2020-07-01T06:45:20.983Z</time>
      </trkpt>
      <trkpt lat="48.472968" lon="16.850412">
        <ele>200.291133</ele>
        <time>2020-07-01T06:45:26.968Z</time>
      </trkpt>
      <trkpt lat="48.472910" lon="16.850579">
        <ele>200.325695</ele>
        <time>2020-07-01T06:45:31.964Z</time>
      </trkpt>
      <trkpt lat="48.472832" lon="16.850732">
        <ele>200.361077</ele>
        <time>2020-07-01T06:45:35.005Z</time>
      </trkpt>
      <trkpt lat="48.472778" lon="16.850851">
        <ele>200.387514</ele>
        <time>2020-07-01T06:45:36.966Z</time>
      </trkpt>
      <trkpt lat="48.472721" lon="16.850977">
        <ele>200.322685</ele>
        <time>2020-07-01T06:45:38.964Z</time>
      </trkpt>
      <trkpt lat="48.472661" lon="16.851108">
        <ele>200.186216</ele>
        <time>2020-07-01T06:45:40.957Z</time>
      </trkpt>
      <trkpt lat="48.472598" lon="16.851236">
        <ele>200.049579</ele>
        <time>2020-07-01T06:45:42.990Z</time>
      </trkpt>
      <trkpt lat="48.472535" lon="16.851364">
        <ele>199.912941</ele>
        <time>2020-07-01T06:45:44.978Z</time>
      </trkpt>
      <trkpt lat="48.472471" lon="16.851495">
        <ele>199.773468</ele>
        <time>2020-07-01T06:45:46.967Z</time>
      </trkpt>
      <trkpt lat="48.472413" lon="16.851621">
        <ele>199.641994</ele>
        <time>2020-07-01T06:45:48.983Z</time>
      </trkpt>
      <trkpt lat="48.472350" lon="16.851753">
        <ele>199.502588</ele>
        <time>2020-07-01T06:45:50.972Z</time>
      </trkpt>
      <trkpt lat="48.472288" lon="16.851886">
        <ele>199.363234</ele>
        <time>2020-07-01T06:45:52.994Z</time>
      </trkpt>
      <trkpt lat="48.472216" lon="16.852030">
        <ele>199.208645</ele>
        <time>2020-07-01T06:45:54.962Z</time>
      </trkpt>
      <trkpt lat="48.472144" lon="16.852174">
        <ele>199.054056</ele>
        <time>2020-07-01T06:45:56.982Z</time>
      </trkpt>
      <trkpt lat="48.472075" lon="16.852316">
        <ele>198.903157</ele>
        <time>2020-07-01T06:45:58.990Z</time>
      </trkpt>
      <trkpt lat="48.472005" lon="16.852460">
        <ele>198.750111</ele>
        <time>2020-07-01T06:46:00.975Z</time>
      </trkpt>
      <trkpt lat="48.471940" lon="16.852599">
        <ele>198.604318</ele>
        <time>2020-07-01T06:46:02.985Z</time>
      </trkpt>
      <trkpt lat="48.471877" lon="16.852719">
        <ele>198.473121</ele>
        <time>2020-07-01T06:46:04.957Z</time>
      </trkpt>
      <trkpt lat="48.471794" lon="16.852850">
        <ele>198.317811</ele>
        <time>2020-07-01T06:46:07.989Z</time>
      </trkpt>
      <trkpt lat="48.471719" lon="16.853013">
        <ele>198.147751</ele>
        <time>2020-07-01T06:46:10.981Z</time>
      </trkpt>
      <trkpt lat="48.471668" lon="16.853133">
        <ele>198.021171</ele>
        <time>2020-07-01T06:46:12.965Z</time>
      </trkpt>
      <trkpt lat="48.471617" lon="16.853252">
        <ele>197.888624</ele>
        <time>2020-07-01T06:46:14.990Z</time>
      </trkpt>
      <trkpt lat="48.471558" lon="16.853370">
        <ele>197.750374</ele>
        <time>2020-07-01T06:46:16.985Z</time>
      </trkpt>
      <trkpt lat="48.471496" lon="16.853495">
        <ele>197.604347</ele>
        <time>2020-07-01T06:46:18.985Z</time>
      </trkpt>
      <trkpt lat="48.471433" lon="16.853634">
        <ele>197.446844</ele>
        <time>2020-07-01T06:46:20.968Z</time>
      </trkpt>
      <trkpt lat="48.471372" lon="16.853758">
        <ele>197.302409</ele>
        <time>2020-07-01T06:46:22.993Z</time>
      </trkpt>
      <trkpt lat="48.471310" lon="16.853884">
        <ele>197.155631</ele>
        <time>2020-07-01T06:46:24.979Z</time>
      </trkpt>
      <trkpt lat="48.471239" lon="16.854013">
        <ele>196.998800</ele>
        <time>2020-07-01T06:46:27.003Z</time>
      </trkpt>
      <trkpt lat="48.471166" lon="16.854141">
        <ele>196.840861</ele>
        <time>2020-07-01T06:46:28.983Z</time>
      </trkpt>
      <trkpt lat="48.471091" lon="16.854272">
        <ele>196.678955</ele>
        <time>2020-07-01T06:46:30.986Z</time>
      </trkpt>
      <trkpt lat="48.471021" lon="16.854398">
        <ele>196.525182</ele>
        <time>2020-07-01T06:46:32.971Z</time>
      </trkpt>
      <trkpt lat="48.470956" lon="16.854521">
        <ele>196.378047</ele>
        <time>2020-07-01T06:46:34.960Z</time>
      </trkpt>
      <trkpt lat="48.470890" lon="16.854649">
        <ele>196.226364</ele>
        <time>2020-07-01T06:46:36.997Z</time>
      </trkpt>
      <trkpt lat="48.470817" lon="16.854780">
        <ele>196.066287</ele>
        <time>2020-07-01T06:46:38.962Z</time>
      </trkpt>
      <trkpt lat="48.470740" lon="16.854904">
        <ele>195.907362</ele>
        <time>2020-07-01T06:46:40.980Z</time>
      </trkpt>
      <trkpt lat="48.470670" lon="16.855022">
        <ele>195.759246</ele>
        <time>2020-07-01T06:46:42.965Z</time>
      </trkpt>
      <trkpt lat="48.470598" lon="16.855151">
        <ele>195.601509</ele>
        <time>2020-07-01T06:46:44.987Z</time>
      </trkpt>
      <trkpt lat="48.470522" lon="16.855288">
        <ele>195.466255</ele>
        <time>2020-07-01T06:46:46.962Z</time>
      </trkpt>
      <trkpt lat="48.470452" lon="16.855423">
        <ele>195.356135</ele>
        <time>2020-07-01T06:46:48.959Z</time>
      </trkpt>
      <trkpt lat="48.470379" lon="16.855563">
        <ele>195.241693</ele>
        <time>2020-07-01T06:46:50.981Z</time>
      </trkpt>
      <trkpt lat="48.470317" lon="16.855697">
        <ele>195.136700</ele>
        <time>2020-07-01T06:46:52.995Z</time>
      </trkpt>
      <trkpt lat="48.470244" lon="16.855826">
        <ele>195.027725</ele>
        <time>2020-07-01T06:46:54.960Z</time>
      </trkpt>
      <trkpt lat="48.470169" lon="16.855959">
        <ele>194.915538</ele>
        <time>2020-07-01T06:46:56.966Z</time>
      </trkpt>
      <trkpt lat="48.470097" lon="16.856091">
        <ele>194.805708</ele>
        <time>2020-07-01T06:46:58.964Z</time>
      </trkpt>
      <trkpt lat="48.470025" lon="16.856225">
        <ele>194.694883</ele>
        <time>2020-07-01T06:47:00.973Z</time>
      </trkpt>
      <trkpt lat="48.469956" lon="16.856362">
        <ele>194.584336</ele>
        <time>2020-07-01T06:47:02.981Z</time>
      </trkpt>
      <trkpt lat="48.469890" lon="16.856492">
        <ele>194.479129</ele>
        <time>2020-07-01T06:47:04.961Z</time>
      </trkpt>
      <trkpt lat="48.469821" lon="16.856628">
        <ele>194.369093</ele>
        <time>2020-07-01T06:47:06.987Z</time>
      </trkpt>
      <trkpt lat="48.469756" lon="16.856758">
        <ele>194.264472</ele>
        <time>2020-07-01T06:47:08.991Z</time>
      </trkpt>
      <trkpt lat="48.469690" lon="16.856891">
        <ele>194.157727</ele>
        <time>2020-07-01T06:47:10.965Z</time>
      </trkpt>
      <trkpt lat="48.469619" lon="16.857024">
        <ele>194.048011</ele>
        <time>2020-07-01T06:47:12.984Z</time>
      </trkpt>
      <trkpt lat="48.469547" lon="16.857157">
        <ele>193.937683</ele>
        <time>2020-07-01T06:47:14.965Z</time>
      </trkpt>
      <trkpt lat="48.469473" lon="16.857289">
        <ele>193.826611</ele>
        <time>2020-07-01T06:47:16.974Z</time>
      </trkpt>
      <trkpt lat="48.469404" lon="16.857413">
        <ele>193.766328</ele>
        <time>2020-07-01T06:47:18.982Z</time>
      </trkpt>
      <trkpt lat="48.469336" lon="16.857542">
        <ele>193.726217</ele>
        <time>2020-07-01T06:47:20.993Z</time>
      </trkpt>
      <trkpt lat="48.469264" lon="16.857669">
        <ele>193.685546</ele>
        <time>2020-07-01T06:47:22.957Z</time>
      </trkpt>
      <trkpt lat="48.469192" lon="16.857792">
        <ele>193.645611</ele>
        <time>2020-07-01T06:47:24.983Z</time>
      </trkpt>
      <trkpt lat="48.469117" lon="16.857909">
        <ele>193.606001</ele>
        <time>2020-07-01T06:47:26.997Z</time>
      </trkpt>
      <trkpt lat="48.469047" lon="16.858027">
        <ele>193.567463</ele>
        <time>2020-07-01T06:47:28.997Z</time>
      </trkpt>
      <trkpt lat="48.468973" lon="16.858142">
        <ele>193.528458</ele>
        <time>2020-07-01T06:47:30.970Z</time>
      </trkpt>
      <trkpt lat="48.468898" lon="16.858254">
        <ele>193.489714</ele>
        <time>2020-07-01T06:47:33.000Z</time>
      </trkpt>
      <trkpt lat="48.468819" lon="16.858357">
        <ele>193.451379</ele>
        <time>2020-07-01T06:47:35.004Z</time>
      </trkpt>
      <trkpt lat="48.468730" lon="16.858459">
        <ele>193.410346</ele>
        <time>2020-07-01T06:47:36.979Z</time>
      </trkpt>
      <trkpt lat="48.468641" lon="16.858558">
        <ele>193.369750</ele>
        <time>2020-07-01T06:47:38.969Z</time>
      </trkpt>
      <trkpt lat="48.468549" lon="16.858663">
        <ele>193.327397</ele>
        <time>2020-07-01T06:47:40.989Z</time>
      </trkpt>
      <trkpt lat="48.468473" lon="16.858768">
        <ele>193.289562</ele>
        <time>2020-07-01T06:47:42.959Z</time>
      </trkpt>
      <trkpt lat="48.468392" lon="16.858903">
        <ele>193.245247</ele>
        <time>2020-07-01T06:47:44.965Z</time>
      </trkpt>
      <trkpt lat="48.468309" lon="16.859037">
        <ele>193.200614</ele>
        <time>2020-07-01T06:47:46.995Z</time>
      </trkpt>
      <trkpt lat="48.468236" lon="16.859157">
        <ele>193.160975</ele>
        <time>2020-07-01T06:47:49.006Z</time>
      </trkpt>
      <trkpt lat="48.468160" lon="16.859288">
        <ele>193.141794</ele>
        <time>2020-07-01T06:47:50.975Z</time>
      </trkpt>
      <trkpt lat="48.468101" lon="16.859431">
        <ele>193.168138</ele>
        <time>2020-07-01T06:47:52.994Z</time>
      </trkpt>
      <trkpt lat="48.468115" lon="16.859582">
        <ele>193.191987</ele>
        <time>2020-07-01T06:47:54.976Z</time>
      </trkpt>
      <trkpt lat="48.468184" lon="16.859716">
        <ele>193.218525</ele>
        <time>2020-07-01T06:47:56.984Z</time>
      </trkpt>
      <trkpt lat="48.468280" lon="16.859815">
        <ele>193.245960</ele>
        <time>2020-07-01T06:47:58.978Z</time>
      </trkpt>
      <trkpt lat="48.468376" lon="16.859901">
        <ele>193.272301</ele>
        <time>2020-07-01T06:48:00.963Z</time>
      </trkpt>
      <trkpt lat="48.468474" lon="16.859973">
        <ele>193.298017</ele>
        <time>2020-07-01T06:48:02.974Z</time>
      </trkpt>
      <trkpt lat="48.468563" lon="16.860056">
        <ele>193.322702</ele>
        <time>2020-07-01T06:48:04.965Z</time>
      </trkpt>
      <trkpt lat="48.468648" lon="16.860142">
        <ele>193.346848</ele>
        <time>2020-07-01T06:48:07.020Z</time>
      </trkpt>
      <trkpt lat="48.468736" lon="16.860232">
        <ele>193.371931</ele>
        <time>2020-07-01T06:48:08.991Z</time>
      </trkpt>
      <trkpt lat="48.468831" lon="16.860323">
        <ele>193.398480</ele>
        <time>2020-07-01T06:48:10.978Z</time>
      </trkpt>
      <trkpt lat="48.468927" lon="16.860417">
        <ele>193.425482</ele>
        <time>2020-07-01T06:48:12.977Z</time>
      </trkpt>
      <trkpt lat="48.469023" lon="16.860507">
        <ele>193.452147</ele>
        <time>2020-07-01T06:48:14.962Z</time>
      </trkpt>
      <trkpt lat="48.469122" lon="16.860597">
        <ele>193.479417</ele>
        <time>2020-07-01T06:48:16.961Z</time>
      </trkpt>
      <trkpt lat="48.469224" lon="16.860690">
        <ele>193.507534</ele>
        <time>2020-07-01T06:48:18.996Z</time>
      </trkpt>
      <trkpt lat="48.469320" lon="16.860791">
        <ele>193.535147</ele>
        <time>2020-07-01T06:48:20.949Z</time>
      </trkpt>
      <trkpt lat="48.469415" lon="16.860874">
        <ele>193.553576</ele>
        <time>2020-07-01T06:48:22.984Z</time>
      </trkpt>
      <trkpt lat="48.469510" lon="16.860956">
        <ele>193.531286</ele>
        <time>2020-07-01T06:48:24.958Z</time>
      </trkpt>
      <trkpt lat="48.469602" lon="16.861040">
        <ele>193.509386</ele>
        <time>2020-07-01T06:48:26.999Z</time>
      </trkpt>
      <trkpt lat="48.469691" lon="16.861121">
        <ele>193.488218</ele>
        <time>2020-07-01T06:48:28.988Z</time>
      </trkpt>
      <trkpt lat="48.469785" lon="16.861204">
        <ele>193.466037</ele>
        <time>2020-07-01T06:48:30.999Z</time>
      </trkpt>
      <trkpt lat="48.469876" lon="16.861297">
        <ele>193.443653</ele>
        <time>2020-07-01T06:48:32.961Z</time>
      </trkpt>
      <trkpt lat="48.469962" lon="16.861391">
        <ele>193.422025</ele>
        <time>2020-07-01T06:48:35.018Z</time>
      </trkpt>
      <trkpt lat="48.470047" lon="16.861483">
        <ele>193.400720</ele>
        <time>2020-07-01T06:48:36.993Z</time>
      </trkpt>
      <trkpt lat="48.470133" lon="16.861577">
        <ele>193.379092</ele>
        <time>2020-07-01T06:48:38.974Z</time>
      </trkpt>
      <trkpt lat="48.470222" lon="16.861667">
        <ele>193.357272</ele>
        <time>2020-07-01T06:48:40.972Z</time>
      </trkpt>
      <trkpt lat="48.470307" lon="16.861765">
        <ele>193.335484</ele>
        <time>2020-07-01T06:48:42.977Z</time>
      </trkpt>
      <trkpt lat="48.470388" lon="16.861858">
        <ele>193.314754</ele>
        <time>2020-07-01T06:48:44.970Z</time>
      </trkpt>
      <trkpt lat="48.470469" lon="16.861953">
        <ele>193.293860</ele>
        <time>2020-07-01T06:48:46.961Z</time>
      </trkpt>
      <trkpt lat="48.470549" lon="16.862052">
        <ele>193.272787</ele>
        <time>2020-07-01T06:48:49.009Z</time>
      </trkpt>
      <trkpt lat="48.470638" lon="16.862149">
        <ele>193.250427</ele>
        <time>2020-07-01T06:48:50.991Z</time>
      </trkpt>
      <trkpt lat="48.470752" lon="16.862248">
        <ele>193.223639</ele>
        <time>2020-07-01T06:48:53.962Z</time>
      </trkpt>
      <trkpt lat="48.470844" lon="16.862309">
        <ele>193.203174</ele>
        <time>2020-07-01T06:48:55.977Z</time>
      </trkpt>
      <trkpt lat="48.470934" lon="16.862373">
        <ele>193.184057</ele>
        <time>2020-07-01T06:48:57.975Z</time>
      </trkpt>
      <trkpt lat="48.471033" lon="16.862451">
        <ele>193.164627</ele>
        <time>2020-07-01T06:49:00.021Z</time>
      </trkpt>
      <trkpt lat="48.471132" lon="16.862522">
        <ele>193.145558</ele>
        <time>2020-07-01T06:49:01.981Z</time>
      </trkpt>
      <trkpt lat="48.471235" lon="16.862580">
        <ele>193.126433</ele>
        <time>2020-07-01T06:49:03.990Z</time>
      </trkpt>
      <trkpt lat="48.471337" lon="16.862624">
        <ele>193.107978</ele>
        <time>2020-07-01T06:49:05.981Z</time>
      </trkpt>
      <trkpt lat="48.471446" lon="16.862660">
        <ele>193.088567</ele>
        <time>2020-07-01T06:49:07.998Z</time>
      </trkpt>
      <trkpt lat="48.471550" lon="16.862698">
        <ele>193.069953</ele>
        <time>2020-07-01T06:49:10.014Z</time>
      </trkpt>
      <trkpt lat="48.471647" lon="16.862740">
        <ele>193.052398</ele>
        <time>2020-07-01T06:49:11.999Z</time>
      </trkpt>
      <trkpt lat="48.471754" lon="16.862773">
        <ele>193.033399</ele>
        <time>2020-07-01T06:49:13.995Z</time>
      </trkpt>
      <trkpt lat="48.471868" lon="16.862806">
        <ele>193.013207</ele>
        <time>2020-07-01T06:49:15.973Z</time>
      </trkpt>
      <trkpt lat="48.471980" lon="16.862839">
        <ele>192.993355</ele>
        <time>2020-07-01T06:49:17.990Z</time>
      </trkpt>
      <trkpt lat="48.472092" lon="16.862870">
        <ele>192.973547</ele>
        <time>2020-07-01T06:49:19.981Z</time>
      </trkpt>
      <trkpt lat="48.472207" lon="16.862903">
        <ele>192.953183</ele>
        <time>2020-07-01T06:49:21.992Z</time>
      </trkpt>
      <trkpt lat="48.472323" lon="16.862935">
        <ele>192.932670</ele>
        <time>2020-07-01T06:49:23.985Z</time>
      </trkpt>
      <trkpt lat="48.472438" lon="16.862955">
        <ele>192.912533</ele>
        <time>2020-07-01T06:49:25.974Z</time>
      </trkpt>
      <trkpt lat="48.472547" lon="16.862974">
        <ele>192.893445</ele>
        <time>2020-07-01T06:49:27.972Z</time>
      </trkpt>
      <trkpt lat="48.472655" lon="16.862990">
        <ele>192.870555</ele>
        <time>2020-07-01T06:49:29.990Z</time>
      </trkpt>
      <trkpt lat="48.472761" lon="16.863019">
        <ele>192.829125</ele>
        <time>2020-07-01T06:49:31.995Z</time>
      </trkpt>
      <trkpt lat="48.472867" lon="16.863063">
        <ele>192.786845</ele>
        <time>2020-07-01T06:49:33.992Z</time>
      </trkpt>
      <trkpt lat="48.472976" lon="16.863103">
        <ele>192.743704</ele>
        <time>2020-07-01T06:49:35.983Z</time>
      </trkpt>
      <trkpt lat="48.473092" lon="16.863155">
        <ele>192.697165</ele>
        <time>2020-07-01T06:49:37.986Z</time>
      </trkpt>
      <trkpt lat="48.473201" lon="16.863239">
        <ele>192.650092</ele>
        <time>2020-07-01T06:49:40.011Z</time>
      </trkpt>
      <trkpt lat="48.473293" lon="16.863351">
        <ele>192.604625</ele>
        <time>2020-07-01T06:49:41.984Z</time>
      </trkpt>
      <trkpt lat="48.473382" lon="16.863471">
        <ele>192.558717</ele>
        <time>2020-07-01T06:49:43.979Z</time>
      </trkpt>
      <trkpt lat="48.473464" lon="16.863607">
        <ele>192.511847</ele>
        <time>2020-07-01T06:49:45.986Z</time>
      </trkpt>
      <trkpt lat="48.473542" lon="16.863741">
        <ele>192.466383</ele>
        <time>2020-07-01T06:49:47.969Z</time>
      </trkpt>
      <trkpt lat="48.473619" lon="16.863877">
        <ele>192.420785</ele>
        <time>2020-07-01T06:49:49.990Z</time>
      </trkpt>
      <trkpt lat="48.473700" lon="16.864007">
        <ele>192.375299</ele>
        <time>2020-07-01T06:49:52.007Z</time>
      </trkpt>
      <trkpt lat="48.473777" lon="16.864135">
        <ele>192.331232</ele>
        <time>2020-07-01T06:49:54.002Z</time>
      </trkpt>
      <trkpt lat="48.473849" lon="16.864259">
        <ele>192.289206</ele>
        <time>2020-07-01T06:49:55.984Z</time>
      </trkpt>
      <trkpt lat="48.473923" lon="16.864377">
        <ele>192.247794</ele>
        <time>2020-07-01T06:49:57.995Z</time>
      </trkpt>
      <trkpt lat="48.473998" lon="16.864497">
        <ele>192.205746</ele>
        <time>2020-07-01T06:49:59.992Z</time>
      </trkpt>
      <trkpt lat="48.474075" lon="16.864613">
        <ele>192.169566</ele>
        <time>2020-07-01T06:50:01.991Z</time>
      </trkpt>
      <trkpt lat="48.474151" lon="16.864730">
        <ele>192.138435</ele>
        <time>2020-07-01T06:50:03.986Z</time>
      </trkpt>
      <trkpt lat="48.474225" lon="16.864862">
        <ele>192.105581</ele>
        <time>2020-07-01T06:50:06.000Z</time>
      </trkpt>
      <trkpt lat="48.474296" lon="16.864987">
        <ele>192.074297</ele>
        <time>2020-07-01T06:50:07.994Z</time>
      </trkpt>
      <trkpt lat="48.474368" lon="16.865108">
        <ele>192.043396</ele>
        <time>2020-07-01T06:50:09.999Z</time>
      </trkpt>
      <trkpt lat="48.474448" lon="16.865234">
        <ele>192.010239</ele>
        <time>2020-07-01T06:50:11.965Z</time>
      </trkpt>
      <trkpt lat="48.474530" lon="16.865359">
        <ele>191.976818</ele>
        <time>2020-07-01T06:50:13.987Z</time>
      </trkpt>
      <trkpt lat="48.474606" lon="16.865484">
        <ele>191.944583</ele>
        <time>2020-07-01T06:50:16.013Z</time>
      </trkpt>
      <trkpt lat="48.474674" lon="16.865606">
        <ele>191.914291</ele>
        <time>2020-07-01T06:50:17.984Z</time>
      </trkpt>
      <trkpt lat="48.474748" lon="16.865734">
        <ele>191.882014</ele>
        <time>2020-07-01T06:50:19.967Z</time>
      </trkpt>
      <trkpt lat="48.474825" lon="16.865859">
        <ele>191.849585</ele>
        <time>2020-07-01T06:50:21.991Z</time>
      </trkpt>
      <trkpt lat="48.474905" lon="16.865985">
        <ele>191.816428</ele>
        <time>2020-07-01T06:50:24.009Z</time>
      </trkpt>
      <trkpt lat="48.474984" lon="16.866105">
        <ele>191.784287</ele>
        <time>2020-07-01T06:50:26.002Z</time>
      </trkpt>
      <trkpt lat="48.475062" lon="16.866230">
        <ele>191.751663</ele>
        <time>2020-07-01T06:50:27.984Z</time>
      </trkpt>
      <trkpt lat="48.475141" lon="16.866343">
        <ele>191.720452</ele>
        <time>2020-07-01T06:50:29.993Z</time>
      </trkpt>
      <trkpt lat="48.475223" lon="16.866470">
        <ele>191.686760</ele>
        <time>2020-07-01T06:50:31.966Z</time>
      </trkpt>
      <trkpt lat="48.475298" lon="16.866586">
        <ele>191.663891</ele>
        <time>2020-07-01T06:50:33.960Z</time>
      </trkpt>
      <trkpt lat="48.475376" lon="16.866703">
        <ele>191.649497</ele>
        <time>2020-07-01T06:50:35.981Z</time>
      </trkpt>
      <trkpt lat="48.475455" lon="16.866818">
        <ele>191.635132</ele>
        <time>2020-07-01T06:50:37.966Z</time>
      </trkpt>
      <trkpt lat="48.475544" lon="16.866935">
        <ele>191.619685</ele>
        <time>2020-07-01T06:50:39.984Z</time>
      </trkpt>
      <trkpt lat="48.475645" lon="16.867026">
        <ele>191.604291</ele>
        <time>2020-07-01T06:50:41.966Z</time>
      </trkpt>
      <trkpt lat="48.475749" lon="16.867109">
        <ele>191.588896</ele>
        <time>2020-07-01T06:50:43.974Z</time>
      </trkpt>
      <trkpt lat="48.475849" lon="16.867205">
        <ele>191.573386</ele>
        <time>2020-07-01T06:50:45.954Z</time>
      </trkpt>
      <trkpt lat="48.475942" lon="16.867300">
        <ele>191.558690</ele>
        <time>2020-07-01T06:50:47.969Z</time>
      </trkpt>
      <trkpt lat="48.476037" lon="16.867387">
        <ele>191.544148</ele>
        <time>2020-07-01T06:50:49.999Z</time>
      </trkpt>
      <trkpt lat="48.476135" lon="16.867473">
        <ele>191.529313</ele>
        <time>2020-07-01T06:50:51.976Z</time>
      </trkpt>
      <trkpt lat="48.476233" lon="16.867555">
        <ele>191.514649</ele>
        <time>2020-07-01T06:50:53.976Z</time>
      </trkpt>
      <trkpt lat="48.476327" lon="16.867636">
        <ele>191.500484</ele>
        <time>2020-07-01T06:50:55.984Z</time>
      </trkpt>
      <trkpt lat="48.476426" lon="16.867727">
        <ele>191.485315</ele>
        <time>2020-07-01T06:50:57.984Z</time>
      </trkpt>
      <trkpt lat="48.476527" lon="16.867815">
        <ele>191.470053</ele>
        <time>2020-07-01T06:50:59.980Z</time>
      </trkpt>
      <trkpt lat="48.476626" lon="16.867901">
        <ele>191.455105</ele>
        <time>2020-07-01T06:51:01.980Z</time>
      </trkpt>
      <trkpt lat="48.476723" lon="16.867984">
        <ele>191.440513</ele>
        <time>2020-07-01T06:51:03.978Z</time>
      </trkpt>
      <trkpt lat="48.476819" lon="16.868064">
        <ele>191.420698</ele>
        <time>2020-07-01T06:51:05.971Z</time>
      </trkpt>
      <trkpt lat="48.476917" lon="16.868137">
        <ele>191.397749</ele>
        <time>2020-07-01T06:51:07.974Z</time>
      </trkpt>
      <trkpt lat="48.477011" lon="16.868215">
        <ele>191.375222</ele>
        <time>2020-07-01T06:51:09.979Z</time>
      </trkpt>
      <trkpt lat="48.477113" lon="16.868287">
        <ele>191.351576</ele>
        <time>2020-07-01T06:51:11.982Z</time>
      </trkpt>
      <trkpt lat="48.477216" lon="16.868360">
        <ele>191.327681</ele>
        <time>2020-07-01T06:51:13.988Z</time>
      </trkpt>
      <trkpt lat="48.477314" lon="16.868432">
        <ele>191.304793</ele>
        <time>2020-07-01T06:51:15.994Z</time>
      </trkpt>
      <trkpt lat="48.477415" lon="16.868508">
        <ele>191.281094</ele>
        <time>2020-07-01T06:51:17.983Z</time>
      </trkpt>
      <trkpt lat="48.477518" lon="16.868586">
        <ele>191.256894</ele>
        <time>2020-07-01T06:51:19.994Z</time>
      </trkpt>
      <trkpt lat="48.477621" lon="16.868659">
        <ele>191.232999</ele>
        <time>2020-07-01T06:51:21.959Z</time>
      </trkpt>
      <trkpt lat="48.477731" lon="16.868696">
        <ele>191.209335</ele>
        <time>2020-07-01T06:51:23.983Z</time>
      </trkpt>
      <trkpt lat="48.477846" lon="16.868714">
        <ele>191.185058</ele>
        <time>2020-07-01T06:51:25.976Z</time>
      </trkpt>
      <trkpt lat="48.477963" lon="16.868732">
        <ele>191.160364</ele>
        <time>2020-07-01T06:51:28.003Z</time>
      </trkpt>
      <trkpt lat="48.478072" lon="16.868772">
        <ele>191.136810</ele>
        <time>2020-07-01T06:51:29.969Z</time>
      </trkpt>
      <trkpt lat="48.478150" lon="16.868881">
        <ele>191.114485</ele>
        <time>2020-07-01T06:51:31.961Z</time>
      </trkpt>
      <trkpt lat="48.478207" lon="16.869028">
        <ele>191.090780</ele>
        <time>2020-07-01T06:51:33.998Z</time>
      </trkpt>
      <trkpt lat="48.478264" lon="16.869171">
        <ele>191.067555</ele>
        <time>2020-07-01T06:51:36.012Z</time>
      </trkpt>
      <trkpt lat="48.478312" lon="16.869322">
        <ele>191.046037</ele>
        <time>2020-07-01T06:51:37.959Z</time>
      </trkpt>
      <trkpt lat="48.478349" lon="16.869482">
        <ele>191.025630</ele>
        <time>2020-07-01T06:51:39.989Z</time>
      </trkpt>
      <trkpt lat="48.478379" lon="16.869649">
        <ele>191.004794</ele>
        <time>2020-07-01T06:51:41.991Z</time>
      </trkpt>
      <trkpt lat="48.478402" lon="16.869805">
        <ele>190.985548</ele>
        <time>2020-07-01T06:51:43.977Z</time>
      </trkpt>
      <trkpt lat="48.478423" lon="16.869961">
        <ele>190.966379</ele>
        <time>2020-07-01T06:51:45.960Z</time>
      </trkpt>
      <trkpt lat="48.478495" lon="16.870073">
        <ele>190.947591</ele>
        <time>2020-07-01T06:51:47.961Z</time>
      </trkpt>
      <trkpt lat="48.478593" lon="16.870149">
        <ele>190.927573</ele>
        <time>2020-07-01T06:51:49.989Z</time>
      </trkpt>
      <trkpt lat="48.478700" lon="16.870204">
        <ele>190.907038</ele>
        <time>2020-07-01T06:51:51.959Z</time>
      </trkpt>
      <trkpt lat="48.478809" lon="16.870247">
        <ele>190.886570</ele>
        <time>2020-07-01T06:51:53.979Z</time>
      </trkpt>
      <trkpt lat="48.478917" lon="16.870297">
        <ele>190.866048</ele>
        <time>2020-07-01T06:51:55.975Z</time>
      </trkpt>
      <trkpt lat="48.479021" lon="16.870348">
        <ele>190.846182</ele>
        <time>2020-07-01T06:51:57.971Z</time>
      </trkpt>
      <trkpt lat="48.479123" lon="16.870401">
        <ele>190.826584</ele>
        <time>2020-07-01T06:51:59.986Z</time>
      </trkpt>
      <trkpt lat="48.479227" lon="16.870458">
        <ele>190.806482</ele>
        <time>2020-07-01T06:52:01.970Z</time>
      </trkpt>
      <trkpt lat="48.479336" lon="16.870503">
        <ele>190.785953</ele>
        <time>2020-07-01T06:52:04.000Z</time>
      </trkpt>
      <trkpt lat="48.479445" lon="16.870545">
        <ele>190.765516</ele>
        <time>2020-07-01T06:52:05.968Z</time>
      </trkpt>
      <trkpt lat="48.479552" lon="16.870593">
        <ele>190.745237</ele>
        <time>2020-07-01T06:52:07.974Z</time>
      </trkpt>
      <trkpt lat="48.479661" lon="16.870647">
        <ele>190.725207</ele>
        <time>2020-07-01T06:52:09.960Z</time>
      </trkpt>
      <trkpt lat="48.479765" lon="16.870704">
        <ele>190.707661</ele>
        <time>2020-07-01T06:52:11.967Z</time>
      </trkpt>
      <trkpt lat="48.479873" lon="16.870753">
        <ele>190.689777</ele>
        <time>2020-07-01T06:52:14.004Z</time>
      </trkpt>
      <trkpt lat="48.479980" lon="16.870797">
        <ele>190.672190</ele>
        <time>2020-07-01T06:52:15.997Z</time>
      </trkpt>
      <trkpt lat="48.480085" lon="16.870843">
        <ele>190.654851</ele>
        <time>2020-07-01T06:52:17.976Z</time>
      </trkpt>
      <trkpt lat="48.480193" lon="16.870885">
        <ele>190.637165</ele>
        <time>2020-07-01T06:52:19.961Z</time>
      </trkpt>
      <trkpt lat="48.480300" lon="16.870931">
        <ele>190.619522</ele>
        <time>2020-07-01T06:52:21.977Z</time>
      </trkpt>
      <trkpt lat="48.480409" lon="16.870980">
        <ele>190.601486</ele>
        <time>2020-07-01T06:52:23.977Z</time>
      </trkpt>
      <trkpt lat="48.480516" lon="16.871041">
        <ele>190.583347</ele>
        <time>2020-07-01T06:52:26.014Z</time>
      </trkpt>
      <trkpt lat="48.480622" lon="16.871089">
        <ele>190.565797</ele>
        <time>2020-07-01T06:52:27.958Z</time>
      </trkpt>
      <trkpt lat="48.480733" lon="16.871135">
        <ele>190.547543</ele>
        <time>2020-07-01T06:52:29.977Z</time>
      </trkpt>
      <trkpt lat="48.480838" lon="16.871175">
        <ele>190.530370</ele>
        <time>2020-07-01T06:52:31.959Z</time>
      </trkpt>
      <trkpt lat="48.480946" lon="16.871218">
        <ele>190.512657</ele>
        <time>2020-07-01T06:52:33.975Z</time>
      </trkpt>
      <trkpt lat="48.481044" lon="16.871271">
        <ele>190.496148</ele>
        <time>2020-07-01T06:52:36.000Z</time>
      </trkpt>
      <trkpt lat="48.481155" lon="16.871327">
        <ele>190.477588</ele>
        <time>2020-07-01T06:52:37.976Z</time>
      </trkpt>
      <trkpt lat="48.481247" lon="16.871384">
        <ele>190.461816</ele>
        <time>2020-07-01T06:52:39.997Z</time>
      </trkpt>
      <trkpt lat="48.481466" lon="16.871537">
        <ele>190.451903</ele>
        <time>2020-07-01T06:54:21.994Z</time>
      </trkpt>
      <trkpt lat="48.481548" lon="16.871610">
        <ele>190.456250</ele>
        <time>2020-07-01T06:54:23.981Z</time>
      </trkpt>
      <trkpt lat="48.481633" lon="16.871667">
        <ele>190.460497</ele>
        <time>2020-07-01T06:54:25.997Z</time>
      </trkpt>
      <trkpt lat="48.481727" lon="16.871728">
        <ele>190.465169</ele>
        <time>2020-07-01T06:54:27.978Z</time>
      </trkpt>
      <trkpt lat="48.481822" lon="16.871793">
        <ele>190.469931</ele>
        <time>2020-07-01T06:54:29.976Z</time>
      </trkpt>
      <trkpt lat="48.481918" lon="16.871864">
        <ele>190.474813</ele>
        <time>2020-07-01T06:54:31.960Z</time>
      </trkpt>
      <trkpt lat="48.482015" lon="16.871933">
        <ele>190.479709</ele>
        <time>2020-07-01T06:54:33.964Z</time>
      </trkpt>
      <trkpt lat="48.482112" lon="16.872000">
        <ele>190.484579</ele>
        <time>2020-07-01T06:54:35.957Z</time>
      </trkpt>
      <trkpt lat="48.482212" lon="16.872071">
        <ele>190.489625</ele>
        <time>2020-07-01T06:54:37.955Z</time>
      </trkpt>
      <trkpt lat="48.482308" lon="16.872138">
        <ele>190.494454</ele>
        <time>2020-07-01T06:54:40.020Z</time>
      </trkpt>
      <trkpt lat="48.482404" lon="16.872205">
        <ele>190.499284</ele>
        <time>2020-07-01T06:54:41.963Z</time>
      </trkpt>
      <trkpt lat="48.482498" lon="16.872270">
        <ele>190.504005</ele>
        <time>2020-07-01T06:54:43.965Z</time>
      </trkpt>
      <trkpt lat="48.482596" lon="16.872324">
        <ele>190.508768</ele>
        <time>2020-07-01T06:54:45.983Z</time>
      </trkpt>
      <trkpt lat="48.482693" lon="16.872385">
        <ele>190.513566</ele>
        <time>2020-07-01T06:54:47.987Z</time>
      </trkpt>
      <trkpt lat="48.482788" lon="16.872451">
        <ele>190.518341</ele>
        <time>2020-07-01T06:54:49.970Z</time>
      </trkpt>
      <trkpt lat="48.482879" lon="16.872516">
        <ele>190.522938</ele>
        <time>2020-07-01T06:54:51.961Z</time>
      </trkpt>
      <trkpt lat="48.482971" lon="16.872578">
        <ele>190.527538</ele>
        <time>2020-07-01T06:54:53.959Z</time>
      </trkpt>
      <trkpt lat="48.483064" lon="16.872640">
        <ele>190.525328</ele>
        <time>2020-07-01T06:54:55.965Z</time>
      </trkpt>
      <trkpt lat="48.483163" lon="16.872695">
        <ele>190.522808</ele>
        <time>2020-07-01T06:54:57.963Z</time>
      </trkpt>
      <trkpt lat="48.483261" lon="16.872753">
        <ele>190.520294</ele>
        <time>2020-07-01T06:54:59.975Z</time>
      </trkpt>
      <trkpt lat="48.483356" lon="16.872818">
        <ele>190.517803</ele>
        <time>2020-07-01T06:55:02.009Z</time>
      </trkpt>
      <trkpt lat="48.483452" lon="16.872881">
        <ele>190.515302</ele>
        <time>2020-07-01T06:55:04.006Z</time>
      </trkpt>
      <trkpt lat="48.483553" lon="16.872948">
        <ele>190.512667</ele>
        <time>2020-07-01T06:55:05.954Z</time>
      </trkpt>
      <trkpt lat="48.483652" lon="16.873003">
        <ele>190.510148</ele>
        <time>2020-07-01T06:55:07.997Z</time>
      </trkpt>
      <trkpt lat="48.483756" lon="16.873065">
        <ele>190.507477</ele>
        <time>2020-07-01T06:55:09.968Z</time>
      </trkpt>
      <trkpt lat="48.483859" lon="16.873126">
        <ele>190.504834</ele>
        <time>2020-07-01T06:55:11.974Z</time>
      </trkpt>
      <trkpt lat="48.483965" lon="16.873194">
        <ele>190.502083</ele>
        <time>2020-07-01T06:55:14.003Z</time>
      </trkpt>
      <trkpt lat="48.484068" lon="16.873260">
        <ele>190.499410</ele>
        <time>2020-07-01T06:55:15.984Z</time>
      </trkpt>
      <trkpt lat="48.484166" lon="16.873328">
        <ele>190.496834</ele>
        <time>2020-07-01T06:55:17.999Z</time>
      </trkpt>
      <trkpt lat="48.484267" lon="16.873387">
        <ele>190.494247</ele>
        <time>2020-07-01T06:55:19.993Z</time>
      </trkpt>
      <trkpt lat="48.484367" lon="16.873446">
        <ele>190.491683</ele>
        <time>2020-07-01T06:55:21.971Z</time>
      </trkpt>
      <trkpt lat="48.484464" lon="16.873508">
        <ele>190.489167</ele>
        <time>2020-07-01T06:55:23.965Z</time>
      </trkpt>
      <trkpt lat="48.484565" lon="16.873566">
        <ele>190.486586</ele>
        <time>2020-07-01T06:55:25.975Z</time>
      </trkpt>
      <trkpt lat="48.484667" lon="16.873623">
        <ele>190.487588</ele>
        <time>2020-07-01T06:55:27.958Z</time>
      </trkpt>
      <trkpt lat="48.484766" lon="16.873683">
        <ele>190.497513</ele>
        <time>2020-07-01T06:55:29.998Z</time>
      </trkpt>
      <trkpt lat="48.484864" lon="16.873741">
        <ele>190.507305</ele>
        <time>2020-07-01T06:55:31.973Z</time>
      </trkpt>
      <trkpt lat="48.484963" lon="16.873804">
        <ele>190.517300</ele>
        <time>2020-07-01T06:55:33.975Z</time>
      </trkpt>
      <trkpt lat="48.485065" lon="16.873864">
        <ele>190.527484</ele>
        <time>2020-07-01T06:55:35.997Z</time>
      </trkpt>
      <trkpt lat="48.485166" lon="16.873917">
        <ele>190.537431</ele>
        <time>2020-07-01T06:55:37.982Z</time>
      </trkpt>
      <trkpt lat="48.485270" lon="16.873964">
        <ele>190.547530</ele>
        <time>2020-07-01T06:55:39.957Z</time>
      </trkpt>
      <trkpt lat="48.485376" lon="16.874010">
        <ele>190.557790</ele>
        <time>2020-07-01T06:55:41.987Z</time>
      </trkpt>
      <trkpt lat="48.485481" lon="16.874053">
        <ele>190.567911</ele>
        <time>2020-07-01T06:55:43.970Z</time>
      </trkpt>
      <trkpt lat="48.485585" lon="16.874092">
        <ele>190.577880</ele>
        <time>2020-07-01T06:55:45.958Z</time>
      </trkpt>
      <trkpt lat="48.485689" lon="16.874130">
        <ele>190.587833</ele>
        <time>2020-07-01T06:55:47.989Z</time>
      </trkpt>
      <trkpt lat="48.485793" lon="16.874159">
        <ele>190.597672</ele>
        <time>2020-07-01T06:55:49.999Z</time>
      </trkpt>
      <trkpt lat="48.485898" lon="16.874195">
        <ele>190.607688</ele>
        <time>2020-07-01T06:55:51.958Z</time>
      </trkpt>
      <trkpt lat="48.486003" lon="16.874234">
        <ele>190.617747</ele>
        <time>2020-07-01T06:55:53.988Z</time>
      </trkpt>
      <trkpt lat="48.486109" lon="16.874284">
        <ele>190.628078</ele>
        <time>2020-07-01T06:55:55.978Z</time>
      </trkpt>
      <trkpt lat="48.486218" lon="16.874330">
        <ele>190.638606</ele>
        <time>2020-07-01T06:55:57.993Z</time>
      </trkpt>
      <trkpt lat="48.486329" lon="16.874378">
        <ele>190.649347</ele>
        <time>2020-07-01T06:55:59.976Z</time>
      </trkpt>
      <trkpt lat="48.486439" lon="16.874437">
        <ele>190.651374</ele>
        <time>2020-07-01T06:56:01.968Z</time>
      </trkpt>
      <trkpt lat="48.486541" lon="16.874527">
        <ele>190.650483</ele>
        <time>2020-07-01T06:56:03.979Z</time>
      </trkpt>
      <trkpt lat="48.486635" lon="16.874622">
        <ele>190.649630</ele>
        <time>2020-07-01T06:56:05.997Z</time>
      </trkpt>
      <trkpt lat="48.486732" lon="16.874729">
        <ele>190.648725</ele>
        <time>2020-07-01T06:56:07.963Z</time>
      </trkpt>
      <trkpt lat="48.486833" lon="16.874845">
        <ele>190.647767</ele>
        <time>2020-07-01T06:56:09.994Z</time>
      </trkpt>
      <trkpt lat="48.486925" lon="16.874975">
        <ele>190.646817</ele>
        <time>2020-07-01T06:56:11.988Z</time>
      </trkpt>
      <trkpt lat="48.487006" lon="16.875115">
        <ele>190.645888</ele>
        <time>2020-07-01T06:56:13.975Z</time>
      </trkpt>
      <trkpt lat="48.487079" lon="16.875252">
        <ele>190.645010</ele>
        <time>2020-07-01T06:56:15.954Z</time>
      </trkpt>
      <trkpt lat="48.487140" lon="16.875389">
        <ele>190.644185</ele>
        <time>2020-07-01T06:56:17.954Z</time>
      </trkpt>
      <trkpt lat="48.487197" lon="16.875530">
        <ele>190.643360</ele>
        <time>2020-07-01T06:56:19.955Z</time>
      </trkpt>
      <trkpt lat="48.487256" lon="16.875671">
        <ele>190.642527</ele>
        <time>2020-07-01T06:56:21.978Z</time>
      </trkpt>
      <trkpt lat="48.487317" lon="16.875815">
        <ele>190.641673</ele>
        <time>2020-07-01T06:56:23.968Z</time>
      </trkpt>
      <trkpt lat="48.487377" lon="16.875956">
        <ele>190.640835</ele>
        <time>2020-07-01T06:56:25.971Z</time>
      </trkpt>
      <trkpt lat="48.487440" lon="16.876103">
        <ele>190.639961</ele>
        <time>2020-07-01T06:56:27.976Z</time>
      </trkpt>
      <trkpt lat="48.487504" lon="16.876258">
        <ele>190.639048</ele>
        <time>2020-07-01T06:56:29.962Z</time>
      </trkpt>
      <trkpt lat="48.487567" lon="16.876410">
        <ele>190.635595</ele>
        <time>2020-07-01T06:56:31.990Z</time>
      </trkpt>
      <trkpt lat="48.487631" lon="16.876563">
        <ele>190.627541</ele>
        <time>2020-07-01T06:56:33.991Z</time>
      </trkpt>
      <trkpt lat="48.487703" lon="16.876700">
        <ele>190.619758</ele>
        <time>2020-07-01T06:56:36.003Z</time>
      </trkpt>
      <trkpt lat="48.487765" lon="16.876849">
        <ele>190.611927</ele>
        <time>2020-07-01T06:56:37.953Z</time>
      </trkpt>
      <trkpt lat="48.487824" lon="16.876990">
        <ele>190.604504</ele>
        <time>2020-07-01T06:56:39.966Z</time>
      </trkpt>
      <trkpt lat="48.487882" lon="16.877122">
        <ele>190.597454</ele>
        <time>2020-07-01T06:56:41.957Z</time>
      </trkpt>
      <trkpt lat="48.487937" lon="16.877247">
        <ele>190.590775</ele>
        <time>2020-07-01T06:56:43.978Z</time>
      </trkpt>
      <trkpt lat="48.488001" lon="16.877368">
        <ele>190.583884</ele>
        <time>2020-07-01T06:56:45.980Z</time>
      </trkpt>
      <trkpt lat="48.488069" lon="16.877487">
        <ele>190.576890</ele>
        <time>2020-07-01T06:56:47.998Z</time>
      </trkpt>
      <trkpt lat="48.488149" lon="16.877583">
        <ele>190.570025</ele>
        <time>2020-07-01T06:56:49.980Z</time>
      </trkpt>
      <trkpt lat="48.488237" lon="16.877678">
        <ele>190.562757</ele>
        <time>2020-07-01T06:56:51.954Z</time>
      </trkpt>
      <trkpt lat="48.488325" lon="16.877777">
        <ele>190.555385</ele>
        <time>2020-07-01T06:56:53.955Z</time>
      </trkpt>
      <trkpt lat="48.488414" lon="16.877877">
        <ele>190.547932</ele>
        <time>2020-07-01T06:56:55.989Z</time>
      </trkpt>
      <trkpt lat="48.488506" lon="16.877972">
        <ele>190.540445</ele>
        <time>2020-07-01T06:56:57.964Z</time>
      </trkpt>
      <trkpt lat="48.488597" lon="16.878069">
        <ele>190.532961</ele>
        <time>2020-07-01T06:56:59.978Z</time>
      </trkpt>
      <trkpt lat="48.488694" lon="16.878160">
        <ele>190.525290</ele>
        <time>2020-07-01T06:57:01.986Z</time>
      </trkpt>
      <trkpt lat="48.488788" lon="16.878260">
        <ele>190.518040</ele>
        <time>2020-07-01T06:57:03.955Z</time>
      </trkpt>
      <trkpt lat="48.488878" lon="16.878364">
        <ele>190.543772</ele>
        <time>2020-07-01T06:57:06.014Z</time>
      </trkpt>
      <trkpt lat="48.488969" lon="16.878466">
        <ele>190.569504</ele>
        <time>2020-07-01T06:57:08.000Z</time>
      </trkpt>
      <trkpt lat="48.489061" lon="16.878567">
        <ele>190.595330</ele>
        <time>2020-07-01T06:57:09.988Z</time>
      </trkpt>
      <trkpt lat="48.489159" lon="16.878687">
        <ele>190.623978</ele>
        <time>2020-07-01T06:57:11.957Z</time>
      </trkpt>
      <trkpt lat="48.489263" lon="16.878799">
        <ele>190.652982</ele>
        <time>2020-07-01T06:57:14.002Z</time>
      </trkpt>
      <trkpt lat="48.489367" lon="16.878910">
        <ele>190.681898</ele>
        <time>2020-07-01T06:57:15.967Z</time>
      </trkpt>
      <trkpt lat="48.489473" lon="16.879011">
        <ele>190.710355</ele>
        <time>2020-07-01T06:57:17.983Z</time>
      </trkpt>
      <trkpt lat="48.489582" lon="16.879111">
        <ele>190.739311</ele>
        <time>2020-07-01T06:57:19.978Z</time>
      </trkpt>
      <trkpt lat="48.489691" lon="16.879214">
        <ele>190.768505</ele>
        <time>2020-07-01T06:57:21.992Z</time>
      </trkpt>
      <trkpt lat="48.489794" lon="16.879330">
        <ele>190.797679</ele>
        <time>2020-07-01T06:57:23.953Z</time>
      </trkpt>
      <trkpt lat="48.489897" lon="16.879449">
        <ele>190.827126</ele>
        <time>2020-07-01T06:57:25.969Z</time>
      </trkpt>
      <trkpt lat="48.489996" lon="16.879568">
        <ele>190.855857</ele>
        <time>2020-07-01T06:57:27.991Z</time>
      </trkpt>
      <trkpt lat="48.490099" lon="16.879673">
        <ele>190.884073</ele>
        <time>2020-07-01T06:57:29.985Z</time>
      </trkpt>
      <trkpt lat="48.490194" lon="16.879778">
        <ele>190.910803</ele>
        <time>2020-07-01T06:57:31.962Z</time>
      </trkpt>
      <trkpt lat="48.490290" lon="16.879875">
        <ele>190.958731</ele>
        <time>2020-07-01T06:57:33.978Z</time>
      </trkpt>
      <trkpt lat="48.490386" lon="16.879975">
        <ele>191.037066</ele>
        <time>2020-07-01T06:57:35.975Z</time>
      </trkpt>
      <trkpt lat="48.490479" lon="16.880075">
        <ele>191.113751</ele>
        <time>2020-07-01T06:57:38.004Z</time>
      </trkpt>
      <trkpt lat="48.490571" lon="16.880178">
        <ele>191.190679</ele>
        <time>2020-07-01T06:57:39.960Z</time>
      </trkpt>
      <trkpt lat="48.490661" lon="16.880278">
        <ele>191.265733</ele>
        <time>2020-07-01T06:57:41.993Z</time>
      </trkpt>
      <trkpt lat="48.490753" lon="16.880368">
        <ele>191.339360</ele>
        <time>2020-07-01T06:57:43.974Z</time>
      </trkpt>
      <trkpt lat="48.490840" lon="16.880467">
        <ele>191.412533</ele>
        <time>2020-07-01T06:57:45.987Z</time>
      </trkpt>
      <trkpt lat="48.490928" lon="16.880564">
        <ele>191.485714</ele>
        <time>2020-07-01T06:57:47.978Z</time>
      </trkpt>
      <trkpt lat="48.491017" lon="16.880664">
        <ele>191.560229</ele>
        <time>2020-07-01T06:57:49.995Z</time>
      </trkpt>
      <trkpt lat="48.491105" lon="16.880761">
        <ele>191.633410</ele>
        <time>2020-07-01T06:57:51.954Z</time>
      </trkpt>
      <trkpt lat="48.491186" lon="16.880857">
        <ele>191.702575</ele>
        <time>2020-07-01T06:57:53.950Z</time>
      </trkpt>
      <trkpt lat="48.491267" lon="16.880953">
        <ele>191.771740</ele>
        <time>2020-07-01T06:57:56.021Z</time>
      </trkpt>
      <trkpt lat="48.491347" lon="16.881048">
        <ele>191.840103</ele>
        <time>2020-07-01T06:57:57.976Z</time>
      </trkpt>
      <trkpt lat="48.491428" lon="16.881140">
        <ele>191.908183</ele>
        <time>2020-07-01T06:57:59.963Z</time>
      </trkpt>
      <trkpt lat="48.491513" lon="16.881227">
        <ele>191.977154</ele>
        <time>2020-07-01T06:58:01.971Z</time>
      </trkpt>
      <trkpt lat="48.491598" lon="16.881319">
        <ele>192.047398</ele>
        <time>2020-07-01T06:58:03.987Z</time>
      </trkpt>
      <trkpt lat="48.491683" lon="16.881411">
        <ele>192.117643</ele>
        <time>2020-07-01T06:58:05.961Z</time>
      </trkpt>
      <trkpt lat="48.491768" lon="16.881505">
        <ele>192.190527</ele>
        <time>2020-07-01T06:58:07.946Z</time>
      </trkpt>
      <trkpt lat="48.491851" lon="16.881601">
        <ele>192.263474</ele>
        <time>2020-07-01T06:58:09.964Z</time>
      </trkpt>
      <trkpt lat="48.491932" lon="16.881690">
        <ele>192.333367</ele>
        <time>2020-07-01T06:58:11.974Z</time>
      </trkpt>
      <trkpt lat="48.492012" lon="16.881775">
        <ele>192.401615</ele>
        <time>2020-07-01T06:58:13.978Z</time>
      </trkpt>
      <trkpt lat="48.492094" lon="16.881862">
        <ele>192.471537</ele>
        <time>2020-07-01T06:58:15.967Z</time>
      </trkpt>
      <trkpt lat="48.492176" lon="16.881941">
        <ele>192.539399</ele>
        <time>2020-07-01T06:58:17.973Z</time>
      </trkpt>
      <trkpt lat="48.492258" lon="16.882030">
        <ele>192.609856</ele>
        <time>2020-07-01T06:58:19.970Z</time>
      </trkpt>
      <trkpt lat="48.492336" lon="16.882119">
        <ele>192.678068</ele>
        <time>2020-07-01T06:58:21.957Z</time>
      </trkpt>
      <trkpt lat="48.492412" lon="16.882204">
        <ele>192.744055</ele>
        <time>2020-07-01T06:58:23.980Z</time>
      </trkpt>
      <trkpt lat="48.492492" lon="16.882284">
        <ele>192.810999</ele>
        <time>2020-07-01T06:58:25.977Z</time>
      </trkpt>
      <trkpt lat="48.492576" lon="16.882373">
        <ele>192.882594</ele>
        <time>2020-07-01T06:58:27.978Z</time>
      </trkpt>
      <trkpt lat="48.492663" lon="16.882460">
        <ele>192.955396</ele>
        <time>2020-07-01T06:58:29.981Z</time>
      </trkpt>
      <trkpt lat="48.492752" lon="16.882551">
        <ele>193.030386</ele>
        <time>2020-07-01T06:58:31.954Z</time>
      </trkpt>
      <trkpt lat="48.492841" lon="16.882644">
        <ele>193.105899</ele>
        <time>2020-07-01T06:58:33.954Z</time>
      </trkpt>
      <trkpt lat="48.492930" lon="16.882745">
        <ele>193.183576</ele>
        <time>2020-07-01T06:58:35.948Z</time>
      </trkpt>
      <trkpt lat="48.493018" lon="16.882835">
        <ele>193.257729</ele>
        <time>2020-07-01T06:58:37.959Z</time>
      </trkpt>
      <trkpt lat="48.493113" lon="16.882921">
        <ele>193.335005</ele>
        <time>2020-07-01T06:58:39.973Z</time>
      </trkpt>
      <trkpt lat="48.493211" lon="16.882999">
        <ele>193.394958</ele>
        <time>2020-07-01T06:58:41.976Z</time>
      </trkpt>
      <trkpt lat="48.493311" lon="16.883078">
        <ele>193.416644</ele>
        <time>2020-07-01T06:58:43.958Z</time>
      </trkpt>
      <trkpt lat="48.493414" lon="16.883163">
        <ele>193.439199</ele>
        <time>2020-07-01T06:58:45.976Z</time>
      </trkpt>
      <trkpt lat="48.493514" lon="16.883249">
        <ele>193.461312</ele>
        <time>2020-07-01T06:58:47.955Z</time>
      </trkpt>
      <trkpt lat="48.493611" lon="16.883339">
        <ele>193.483188</ele>
        <time>2020-07-01T06:58:49.997Z</time>
      </trkpt>
      <trkpt lat="48.493707" lon="16.883429">
        <ele>193.504902</ele>
        <time>2020-07-01T06:58:51.990Z</time>
      </trkpt>
      <trkpt lat="48.493802" lon="16.883513">
        <ele>193.526056</ele>
        <time>2020-07-01T06:58:53.996Z</time>
      </trkpt>
      <trkpt lat="48.493899" lon="16.883594">
        <ele>193.547355</ele>
        <time>2020-07-01T06:58:55.954Z</time>
      </trkpt>
      <trkpt lat="48.493996" lon="16.883674">
        <ele>193.568592</ele>
        <time>2020-07-01T06:58:57.974Z</time>
      </trkpt>
      <trkpt lat="48.494089" lon="16.883756">
        <ele>193.589286</ele>
        <time>2020-07-01T06:58:59.987Z</time>
      </trkpt>
      <trkpt lat="48.494183" lon="16.883835">
        <ele>193.609958</ele>
        <time>2020-07-01T06:59:01.994Z</time>
      </trkpt>
      <trkpt lat="48.494269" lon="16.883926">
        <ele>193.630137</ele>
        <time>2020-07-01T06:59:03.954Z</time>
      </trkpt>
      <trkpt lat="48.494359" lon="16.884010">
        <ele>193.650468</ele>
        <time>2020-07-01T06:59:06.006Z</time>
      </trkpt>
      <trkpt lat="48.494445" lon="16.884089">
        <ele>193.669811</ele>
        <time>2020-07-01T06:59:07.974Z</time>
      </trkpt>
      <trkpt lat="48.494518" lon="16.884170">
        <ele>193.687220</ele>
        <time>2020-07-01T06:59:09.994Z</time>
      </trkpt>
      <trkpt lat="48.494596" lon="16.884242">
        <ele>193.704786</ele>
        <time>2020-07-01T06:59:11.982Z</time>
      </trkpt>
      <trkpt lat="48.494669" lon="16.884323">
        <ele>193.722195</ele>
        <time>2020-07-01T06:59:13.985Z</time>
      </trkpt>
      <trkpt lat="48.494789" lon="16.884337">
        <ele>193.754196</ele>
        <time>2020-07-01T06:59:16.956Z</time>
      </trkpt>
      <trkpt lat="48.494849" lon="16.884230">
        <ele>193.785950</ele>
        <time>2020-07-01T06:59:18.980Z</time>
      </trkpt>
      <trkpt lat="48.494910" lon="16.884055">
        <ele>193.830746</ele>
        <time>2020-07-01T06:59:21.957Z</time>
      </trkpt>
      <trkpt lat="48.494966" lon="16.883888">
        <ele>193.873147</ele>
        <time>2020-07-01T06:59:24.992Z</time>
      </trkpt>
      <trkpt lat="48.494999" lon="16.883752">
        <ele>193.905957</ele>
        <time>2020-07-01T06:59:26.997Z</time>
      </trkpt>
      <trkpt lat="48.495024" lon="16.883616">
        <ele>193.937931</ele>
        <time>2020-07-01T06:59:28.974Z</time>
      </trkpt>
      <trkpt lat="48.495071" lon="16.883427">
        <ele>193.983663</ele>
        <time>2020-07-01T06:59:31.974Z</time>
      </trkpt>
      <trkpt lat="48.495097" lon="16.883296">
        <ele>194.014643</ele>
        <time>2020-07-01T06:59:33.974Z</time>
      </trkpt>
      <trkpt lat="48.495119" lon="16.883157">
        <ele>194.047019</ele>
        <time>2020-07-01T06:59:35.977Z</time>
      </trkpt>
      <trkpt lat="48.495144" lon="16.883019">
        <ele>194.079429</ele>
        <time>2020-07-01T06:59:38.026Z</time>
      </trkpt>
      <trkpt lat="48.495173" lon="16.882884">
        <ele>194.111579</ele>
        <time>2020-07-01T06:59:39.990Z</time>
      </trkpt>
      <trkpt lat="48.495204" lon="16.882748">
        <ele>194.144161</ele>
        <time>2020-07-01T06:59:41.977Z</time>
      </trkpt>
      <trkpt lat="48.495238" lon="16.882601">
        <ele>194.179433</ele>
        <time>2020-07-01T06:59:43.968Z</time>
      </trkpt>
      <trkpt lat="48.495265" lon="16.882461">
        <ele>194.212465</ele>
        <time>2020-07-01T06:59:45.974Z</time>
      </trkpt>
      <trkpt lat="48.495288" lon="16.882316">
        <ele>194.246242</ele>
        <time>2020-07-01T06:59:48.009Z</time>
      </trkpt>
      <trkpt lat="48.495319" lon="16.882172">
        <ele>194.280543</ele>
        <time>2020-07-01T06:59:50.006Z</time>
      </trkpt>
      <trkpt lat="48.495354" lon="16.882021">
        <ele>194.316783</ele>
        <time>2020-07-01T06:59:51.991Z</time>
      </trkpt>
      <trkpt lat="48.495389" lon="16.881868">
        <ele>194.351991</ele>
        <time>2020-07-01T06:59:53.970Z</time>
      </trkpt>
      <trkpt lat="48.495422" lon="16.881718">
        <ele>194.376525</ele>
        <time>2020-07-01T06:59:55.955Z</time>
      </trkpt>
      <trkpt lat="48.495449" lon="16.881562">
        <ele>194.401553</ele>
        <time>2020-07-01T06:59:57.996Z</time>
      </trkpt>
      <trkpt lat="48.495475" lon="16.881411">
        <ele>194.425771</ele>
        <time>2020-07-01T07:00:00.002Z</time>
      </trkpt>
      <trkpt lat="48.495508" lon="16.881256">
        <ele>194.451043</ele>
        <time>2020-07-01T07:00:01.971Z</time>
      </trkpt>
      <trkpt lat="48.495542" lon="16.881101">
        <ele>194.476388</ele>
        <time>2020-07-01T07:00:03.980Z</time>
      </trkpt>
      <trkpt lat="48.495580" lon="16.880946">
        <ele>194.502042</ele>
        <time>2020-07-01T07:00:05.998Z</time>
      </trkpt>
      <trkpt lat="48.495618" lon="16.880798">
        <ele>194.526680</ele>
        <time>2020-07-01T07:00:07.956Z</time>
      </trkpt>
      <trkpt lat="48.495655" lon="16.880645">
        <ele>194.551962</ele>
        <time>2020-07-01T07:00:09.968Z</time>
      </trkpt>
      <trkpt lat="48.495686" lon="16.880483">
        <ele>194.578137</ele>
        <time>2020-07-01T07:00:11.957Z</time>
      </trkpt>
      <trkpt lat="48.495712" lon="16.880327">
        <ele>194.603107</ele>
        <time>2020-07-01T07:00:13.968Z</time>
      </trkpt>
      <trkpt lat="48.495741" lon="16.880176">
        <ele>194.627511</ele>
        <time>2020-07-01T07:00:15.979Z</time>
      </trkpt>
      <trkpt lat="48.495779" lon="16.880024">
        <ele>194.652729</ele>
        <time>2020-07-01T07:00:17.985Z</time>
      </trkpt>
      <trkpt lat="48.495816" lon="16.879875">
        <ele>194.677429</ele>
        <time>2020-07-01T07:00:20.004Z</time>
      </trkpt>
      <trkpt lat="48.495852" lon="16.879723">
        <ele>194.702486</ele>
        <time>2020-07-01T07:00:21.968Z</time>
      </trkpt>
      <trkpt lat="48.495885" lon="16.879571">
        <ele>194.727315</ele>
        <time>2020-07-01T07:00:23.985Z</time>
      </trkpt>
      <trkpt lat="48.495914" lon="16.879426">
        <ele>194.750826</ele>
        <time>2020-07-01T07:00:25.963Z</time>
      </trkpt>
      <trkpt lat="48.495940" lon="16.879278">
        <ele>194.774056</ele>
        <time>2020-07-01T07:00:27.973Z</time>
      </trkpt>
      <trkpt lat="48.495975" lon="16.879120">
        <ele>194.796803</ele>
        <time>2020-07-01T07:00:29.949Z</time>
      </trkpt>
      <trkpt lat="48.496014" lon="16.878963">
        <ele>194.819696</ele>
        <time>2020-07-01T07:00:31.964Z</time>
      </trkpt>
      <trkpt lat="48.496053" lon="16.878830">
        <ele>194.839554</ele>
        <time>2020-07-01T07:00:33.979Z</time>
      </trkpt>
      <trkpt lat="48.496100" lon="16.878693">
        <ele>194.860618</ele>
        <time>2020-07-01T07:00:35.985Z</time>
      </trkpt>
      <trkpt lat="48.496156" lon="16.878556">
        <ele>194.882596</ele>
        <time>2020-07-01T07:00:37.964Z</time>
      </trkpt>
      <trkpt lat="48.496214" lon="16.878425">
        <ele>194.904108</ele>
        <time>2020-07-01T07:00:39.979Z</time>
      </trkpt>
      <trkpt lat="48.496265" lon="16.878296">
        <ele>194.924618</ele>
        <time>2020-07-01T07:00:41.954Z</time>
      </trkpt>
      <trkpt lat="48.496311" lon="16.878163">
        <ele>194.945102</ele>
        <time>2020-07-01T07:00:44.004Z</time>
      </trkpt>
      <trkpt lat="48.496355" lon="16.878034">
        <ele>194.964911</ele>
        <time>2020-07-01T07:00:45.956Z</time>
      </trkpt>
      <trkpt lat="48.496400" lon="16.877897">
        <ele>194.985789</ele>
        <time>2020-07-01T07:00:47.980Z</time>
      </trkpt>
      <trkpt lat="48.496446" lon="16.877762">
        <ele>195.006516</ele>
        <time>2020-07-01T07:00:49.979Z</time>
      </trkpt>
      <trkpt lat="48.496488" lon="16.877633">
        <ele>195.026140</ele>
        <time>2020-07-01T07:00:51.975Z</time>
      </trkpt>
      <trkpt lat="48.496534" lon="16.877501">
        <ele>195.046503</ele>
        <time>2020-07-01T07:00:53.962Z</time>
      </trkpt>
      <trkpt lat="48.496578" lon="16.877355">
        <ele>195.068402</ele>
        <time>2020-07-01T07:00:55.957Z</time>
      </trkpt>
      <trkpt lat="48.496618" lon="16.877219">
        <ele>195.088718</ele>
        <time>2020-07-01T07:00:58.014Z</time>
      </trkpt>
      <trkpt lat="48.496667" lon="16.877064">
        <ele>195.112166</ele>
        <time>2020-07-01T07:01:00.007Z</time>
      </trkpt>
      <trkpt lat="48.496715" lon="16.876914">
        <ele>195.134910</ele>
        <time>2020-07-01T07:01:01.956Z</time>
      </trkpt>
      <trkpt lat="48.496760" lon="16.876768">
        <ele>195.154853</ele>
        <time>2020-07-01T07:01:03.961Z</time>
      </trkpt>
      <trkpt lat="48.496804" lon="16.876621">
        <ele>195.174093</ele>
        <time>2020-07-01T07:01:05.951Z</time>
      </trkpt>
      <trkpt lat="48.496854" lon="16.876468">
        <ele>195.194442</ele>
        <time>2020-07-01T07:01:07.990Z</time>
      </trkpt>
      <trkpt lat="48.496903" lon="16.876314">
        <ele>195.214819</ele>
        <time>2020-07-01T07:01:09.969Z</time>
      </trkpt>
      <trkpt lat="48.496948" lon="16.876169">
        <ele>195.233918</ele>
        <time>2020-07-01T07:01:11.995Z</time>
      </trkpt>
      <trkpt lat="48.496994" lon="16.876033">
        <ele>195.252131</ele>
        <time>2020-07-01T07:01:13.988Z</time>
      </trkpt>
      <trkpt lat="48.497050" lon="16.875894">
        <ele>195.271535</ele>
        <time>2020-07-01T07:01:15.976Z</time>
      </trkpt>
      <trkpt lat="48.497108" lon="16.875754">
        <ele>195.291230</ele>
        <time>2020-07-01T07:01:18.001Z</time>
      </trkpt>
      <trkpt lat="48.497164" lon="16.875615">
        <ele>195.310634</ele>
        <time>2020-07-01T07:01:19.956Z</time>
      </trkpt>
      <trkpt lat="48.497218" lon="16.875484">
        <ele>195.329036</ele>
        <time>2020-07-01T07:01:21.981Z</time>
      </trkpt>
      <trkpt lat="48.497274" lon="16.875353">
        <ele>195.347631</ele>
        <time>2020-07-01T07:01:24.002Z</time>
      </trkpt>
      <trkpt lat="48.497334" lon="16.875219">
        <ele>195.366922</ele>
        <time>2020-07-01T07:01:25.985Z</time>
      </trkpt>
      <trkpt lat="48.497391" lon="16.875084">
        <ele>195.386016</ele>
        <time>2020-07-01T07:01:27.951Z</time>
      </trkpt>
      <trkpt lat="48.497446" lon="16.874946">
        <ele>195.405224</ele>
        <time>2020-07-01T07:01:29.961Z</time>
      </trkpt>
      <trkpt lat="48.497503" lon="16.874809">
        <ele>195.424520</ele>
        <time>2020-07-01T07:01:31.959Z</time>
      </trkpt>
      <trkpt lat="48.497561" lon="16.874673">
        <ele>195.443811</ele>
        <time>2020-07-01T07:01:33.984Z</time>
      </trkpt>
      <trkpt lat="48.497619" lon="16.874534">
        <ele>195.463405</ele>
        <time>2020-07-01T07:01:35.993Z</time>
      </trkpt>
      <trkpt lat="48.497675" lon="16.874403">
        <ele>195.495328</ele>
        <time>2020-07-01T07:01:37.984Z</time>
      </trkpt>
      <trkpt lat="48.497734" lon="16.874266">
        <ele>195.529660</ele>
        <time>2020-07-01T07:01:39.961Z</time>
      </trkpt>
      <trkpt lat="48.497796" lon="16.874131">
        <ele>195.564173</ele>
        <time>2020-07-01T07:01:41.987Z</time>
      </trkpt>
      <trkpt lat="48.497858" lon="16.874004">
        <ele>195.597319</ele>
        <time>2020-07-01T07:01:43.991Z</time>
      </trkpt>
      <trkpt lat="48.497920" lon="16.873873">
        <ele>195.631144</ele>
        <time>2020-07-01T07:01:45.957Z</time>
      </trkpt>
      <trkpt lat="48.497980" lon="16.873736">
        <ele>195.665650</ele>
        <time>2020-07-01T07:01:47.970Z</time>
      </trkpt>
      <trkpt lat="48.498035" lon="16.873603">
        <ele>195.698591</ele>
        <time>2020-07-01T07:01:49.987Z</time>
      </trkpt>
      <trkpt lat="48.498102" lon="16.873478">
        <ele>195.732373</ele>
        <time>2020-07-01T07:01:51.959Z</time>
      </trkpt>
      <trkpt lat="48.498179" lon="16.873384">
        <ele>195.763778</ele>
        <time>2020-07-01T07:01:54.008Z</time>
      </trkpt>
      <trkpt lat="48.498293" lon="16.873328">
        <ele>195.801793</ele>
        <time>2020-07-01T07:01:56.972Z</time>
      </trkpt>
      <trkpt lat="48.498377" lon="16.873412">
        <ele>195.833746</ele>
        <time>2020-07-01T07:01:59.968Z</time>
      </trkpt>
      <trkpt lat="48.498457" lon="16.873541">
        <ele>195.870870</ele>
        <time>2020-07-01T07:02:02.959Z</time>
      </trkpt>
      <trkpt lat="48.498580" lon="16.873572">
        <ele>195.910413</ele>
        <time>2020-07-01T07:02:05.957Z</time>
      </trkpt>
      <trkpt lat="48.498665" lon="16.873516">
        <ele>195.939822</ele>
        <time>2020-07-01T07:02:07.973Z</time>
      </trkpt>
      <trkpt lat="48.498750" lon="16.873391">
        <ele>195.977456</ele>
        <time>2020-07-01T07:02:10.964Z</time>
      </trkpt>
      <trkpt lat="48.498820" lon="16.873294">
        <ele>196.007590</ele>
        <time>2020-07-01T07:02:13.976Z</time>
      </trkpt>
      <trkpt lat="48.498888" lon="16.873188">
        <ele>196.046491</ele>
        <time>2020-07-01T07:02:17.977Z</time>
      </trkpt>
      <trkpt lat="48.498948" lon="16.873085">
        <ele>196.135944</ele>
        <time>2020-07-01T07:02:21.984Z</time>
      </trkpt>
      <trkpt lat="48.499026" lon="16.872970">
        <ele>196.243283</ele>
        <time>2020-07-01T07:02:26.996Z</time>
      </trkpt>
      <trkpt lat="48.499105" lon="16.872866">
        <ele>196.346476</ele>
        <time>2020-07-01T07:02:32.014Z</time>
      </trkpt>
      <trkpt lat="48.499181" lon="16.872761">
        <ele>196.447902</ele>
        <time>2020-07-01T07:02:36.977Z</time>
      </trkpt>
      <trkpt lat="48.499265" lon="16.872663">
        <ele>196.552414</ele>
        <time>2020-07-01T07:02:42.960Z</time>
      </trkpt>
      <trkpt lat="48.499323" lon="16.872539">
        <ele>196.651415</ele>
        <time>2020-07-01T07:02:48.978Z</time>
      </trkpt>
      <trkpt lat="48.499397" lon="16.872456">
        <ele>196.742172</ele>
        <time>2020-07-01T07:02:54.984Z</time>
      </trkpt>
      <trkpt lat="48.499469" lon="16.872369">
        <ele>196.832964</ele>
        <time>2020-07-01T07:03:00.977Z</time>
      </trkpt>
      <trkpt lat="48.499545" lon="16.872285">
        <ele>196.925692</ele>
        <time>2020-07-01T07:03:06.970Z</time>
      </trkpt>
      <trkpt lat="48.499623" lon="16.872177">
        <ele>197.029891</ele>
        <time>2020-07-01T07:03:12.980Z</time>
      </trkpt>
      <trkpt lat="48.499721" lon="16.872092">
        <ele>197.141155</ele>
        <time>2020-07-01T07:03:17.997Z</time>
      </trkpt>
      <trkpt lat="48.499822" lon="16.872038">
        <ele>197.246629</ele>
        <time>2020-07-01T07:03:21.968Z</time>
      </trkpt>
      <trkpt lat="48.499925" lon="16.871979">
        <ele>197.355075</ele>
        <time>2020-07-01T07:03:26.963Z</time>
      </trkpt>
      <trkpt lat="48.500024" lon="16.871919">
        <ele>197.460090</ele>
        <time>2020-07-01T07:03:31.997Z</time>
      </trkpt>
      <trkpt lat="48.500106" lon="16.871851">
        <ele>197.552190</ele>
        <time>2020-07-01T07:03:36.964Z</time>
      </trkpt>
      <trkpt lat="48.500194" lon="16.871800">
        <ele>197.644981</ele>
        <time>2020-07-01T07:03:40.965Z</time>
      </trkpt>
      <trkpt lat="48.500260" lon="16.871698">
        <ele>197.737969</ele>
        <time>2020-07-01T07:03:44.965Z</time>
      </trkpt>
      <trkpt lat="48.500336" lon="16.871625">
        <ele>197.842145</ele>
        <time>2020-07-01T07:03:48.948Z</time>
      </trkpt>
      <trkpt lat="48.500419" lon="16.871555">
        <ele>198.003795</ele>
        <time>2020-07-01T07:03:52.970Z</time>
      </trkpt>
      <trkpt lat="48.500494" lon="16.871475">
        <ele>198.159939</ele>
        <time>2020-07-01T07:03:56.949Z</time>
      </trkpt>
      <trkpt lat="48.500586" lon="16.871374">
        <ele>198.353357</ele>
        <time>2020-07-01T07:04:01.954Z</time>
      </trkpt>
      <trkpt lat="48.500663" lon="16.871283">
        <ele>198.519630</ele>
        <time>2020-07-01T07:04:05.966Z</time>
      </trkpt>
      <trkpt lat="48.500753" lon="16.871219">
        <ele>198.688777</ele>
        <time>2020-07-01T07:04:09.956Z</time>
      </trkpt>
      <trkpt lat="48.500845" lon="16.871140">
        <ele>198.868735</ele>
        <time>2020-07-01T07:04:13.966Z</time>
      </trkpt>
      <trkpt lat="48.500925" lon="16.871076">
        <ele>199.022673</ele>
        <time>2020-07-01T07:04:16.963Z</time>
      </trkpt>
      <trkpt lat="48.501011" lon="16.870991">
        <ele>199.197449</ele>
        <time>2020-07-01T07:04:19.973Z</time>
      </trkpt>
      <trkpt lat="48.501106" lon="16.870913">
        <ele>199.381316</ele>
        <time>2020-07-01T07:04:22.941Z</time>
      </trkpt>
      <trkpt lat="48.501189" lon="16.870999">
        <ele>199.552483</ele>
        <time>2020-07-01T07:04:25.943Z</time>
      </trkpt>
      <trkpt lat="48.501203" lon="16.871139">
        <ele>199.711981</ele>
        <time>2020-07-01T07:04:30.966Z</time>
      </trkpt>
      <trkpt lat="48.501220" lon="16.871287">
        <ele>199.881192</ele>
        <time>2020-07-01T07:04:37.947Z</time>
      </trkpt>
      <trkpt lat="48.501266" lon="16.871441">
        <ele>200.071488</ele>
        <time>2020-07-01T07:04:44.987Z</time>
      </trkpt>
      <trkpt lat="48.501349" lon="16.871515">
        <ele>200.235382</ele>
        <time>2020-07-01T07:04:49.966Z</time>
      </trkpt>
      <trkpt lat="48.501437" lon="16.871566">
        <ele>200.395646</ele>
        <time>2020-07-01T07:04:55.973Z</time>
      </trkpt>
      <trkpt lat="48.501519" lon="16.871628">
        <ele>200.551574</ele>
        <time>2020-07-01T07:05:00.966Z</time>
      </trkpt>
      <trkpt lat="48.501601" lon="16.871717">
        <ele>200.723292</ele>
        <time>2020-07-01T07:05:06.960Z</time>
      </trkpt>
      <trkpt lat="48.501678" lon="16.871809">
        <ele>200.917184</ele>
        <time>2020-07-01T07:05:12.982Z</time>
      </trkpt>
      <trkpt lat="48.501761" lon="16.871906">
        <ele>201.273652</ele>
        <time>2020-07-01T07:05:18.963Z</time>
      </trkpt>
      <trkpt lat="48.501835" lon="16.871997">
        <ele>201.597790</ele>
        <time>2020-07-01T07:05:24.996Z</time>
      </trkpt>
      <trkpt lat="48.501913" lon="16.872093">
        <ele>201.939564</ele>
        <time>2020-07-01T07:05:31.951Z</time>
      </trkpt>
      <trkpt lat="48.501988" lon="16.872197">
        <ele>202.285420</ele>
        <time>2020-07-01T07:05:37.953Z</time>
      </trkpt>
      <trkpt lat="48.502055" lon="16.872291">
        <ele>202.596054</ele>
        <time>2020-07-01T07:05:42.976Z</time>
      </trkpt>
      <trkpt lat="48.502129" lon="16.872381">
        <ele>202.918775</ele>
        <time>2020-07-01T07:05:49.963Z</time>
      </trkpt>
      <trkpt lat="48.502203" lon="16.872470">
        <ele>203.240088</ele>
        <time>2020-07-01T07:05:56.956Z</time>
      </trkpt>
      <trkpt lat="48.502281" lon="16.872561">
        <ele>203.574865</ele>
        <time>2020-07-01T07:06:03.962Z</time>
      </trkpt>
      <trkpt lat="48.502373" lon="16.872628">
        <ele>203.921740</ele>
        <time>2020-07-01T07:06:09.967Z</time>
      </trkpt>
      <trkpt lat="48.502465" lon="16.872696">
        <ele>204.269599</ele>
        <time>2020-07-01T07:06:15.956Z</time>
      </trkpt>
      <trkpt lat="48.502547" lon="16.872759">
        <ele>204.582050</ele>
        <time>2020-07-01T07:06:20.958Z</time>
      </trkpt>
      <trkpt lat="48.502629" lon="16.872834">
        <ele>204.907641</ele>
        <time>2020-07-01T07:06:26.981Z</time>
      </trkpt>
      <trkpt lat="48.502712" lon="16.872922">
        <ele>205.252080</ele>
        <time>2020-07-01T07:06:33.961Z</time>
      </trkpt>
      <trkpt lat="48.502795" lon="16.873006">
        <ele>205.591426</ele>
        <time>2020-07-01T07:06:39.993Z</time>
      </trkpt>
      <trkpt lat="48.502879" lon="16.873096">
        <ele>205.941235</ele>
        <time>2020-07-01T07:06:46.962Z</time>
      </trkpt>
      <trkpt lat="48.502967" lon="16.873157">
        <ele>206.270069</ele>
        <time>2020-07-01T07:06:52.987Z</time>
      </trkpt>
      <trkpt lat="48.503050" lon="16.873247">
        <ele>206.617114</ele>
        <time>2020-07-01T07:06:58.967Z</time>
      </trkpt>
      <trkpt lat="48.503096" lon="16.873389">
        <ele>206.976149</ele>
        <time>2020-07-01T07:07:04.956Z</time>
      </trkpt>
      <trkpt lat="48.503173" lon="16.873484">
        <ele>207.952959</ele>
        <time>2020-07-01T07:07:12.966Z</time>
      </trkpt>
      <trkpt lat="48.503262" lon="16.873549">
        <ele>208.924062</ele>
        <time>2020-07-01T07:07:18.002Z</time>
      </trkpt>
      <trkpt lat="48.503347" lon="16.873599">
        <ele>209.820078</ele>
        <time>2020-07-01T07:07:21.948Z</time>
      </trkpt>
      <trkpt lat="48.503432" lon="16.873667">
        <ele>210.764957</ele>
        <time>2020-07-01T07:07:26.979Z</time>
      </trkpt>
      <trkpt lat="48.503511" lon="16.873745">
        <ele>211.692158</ele>
        <time>2020-07-01T07:07:31.957Z</time>
      </trkpt>
      <trkpt lat="48.503587" lon="16.873825">
        <ele>212.602228</ele>
        <time>2020-07-01T07:07:36.980Z</time>
      </trkpt>
      <trkpt lat="48.503671" lon="16.873915">
        <ele>213.614007</ele>
        <time>2020-07-01T07:07:41.953Z</time>
      </trkpt>
      <trkpt lat="48.503747" lon="16.873999">
        <ele>214.539212</ele>
        <time>2020-07-01T07:07:45.977Z</time>
      </trkpt>
      <trkpt lat="48.503828" lon="16.874069">
        <ele>215.455960</ele>
        <time>2020-07-01T07:07:49.952Z</time>
      </trkpt>
      <trkpt lat="48.503909" lon="16.874167">
        <ele>216.475585</ele>
        <time>2020-07-01T07:07:54.950Z</time>
      </trkpt>
      <trkpt lat="48.503991" lon="16.874264">
        <ele>217.498864</ele>
        <time>2020-07-01T07:08:00.020Z</time>
      </trkpt>
      <trkpt lat="48.504068" lon="16.874372">
        <ele>218.531290</ele>
        <time>2020-07-01T07:08:04.957Z</time>
      </trkpt>
      <trkpt lat="48.504152" lon="16.874453">
        <ele>219.510328</ele>
        <time>2020-07-01T07:08:09.949Z</time>
      </trkpt>
      <trkpt lat="48.504244" lon="16.874546">
        <ele>220.597877</ele>
        <time>2020-07-01T07:08:15.976Z</time>
      </trkpt>
      <trkpt lat="48.504340" lon="16.874624">
        <ele>221.668709</ele>
        <time>2020-07-01T07:08:20.974Z</time>
      </trkpt>
      <trkpt lat="48.504429" lon="16.874696">
        <ele>222.660497</ele>
        <time>2020-07-01T07:08:24.956Z</time>
      </trkpt>
      <trkpt lat="48.504436" lon="16.874856">
        <ele>223.703967</ele>
        <time>2020-07-01T07:08:30.972Z</time>
      </trkpt>
      <trkpt lat="48.504396" lon="16.874981">
        <ele>224.607312</ele>
        <time>2020-07-01T07:08:33.994Z</time>
      </trkpt>
      <trkpt lat="48.504338" lon="16.875131">
        <ele>226.423505</ele>
        <time>2020-07-01T07:08:36.959Z</time>
      </trkpt>
      <trkpt lat="48.504291" lon="16.875269">
        <ele>228.062523</ele>
        <time>2020-07-01T07:08:39.981Z</time>
      </trkpt>
      <trkpt lat="48.504253" lon="16.875409">
        <ele>229.660640</ele>
        <time>2020-07-01T07:08:43.002Z</time>
      </trkpt>
      <trkpt lat="48.504261" lon="16.875546">
        <ele>231.113397</ele>
        <time>2020-07-01T07:08:48.995Z</time>
      </trkpt>
      <trkpt lat="48.504268" lon="16.875557">
        <ele>231.274504</ele>
        <time>2020-07-01T07:09:02.052Z</time>
      </trkpt>
      <trkpt lat="48.504421" lon="16.875510">
        <ele>233.763759</ele>
        <time>2020-07-01T07:12:10.990Z</time>
      </trkpt>
      <trkpt lat="48.504396" lon="16.875371">
        <ele>235.285163</ele>
        <time>2020-07-01T07:12:24.996Z</time>
      </trkpt>
      <trkpt lat="48.504421" lon="16.875202">
        <ele>237.114277</ele>
        <time>2020-07-01T07:12:28.970Z</time>
      </trkpt>
      <trkpt lat="48.504465" lon="16.875070">
        <ele>238.675118</ele>
        <time>2020-07-01T07:12:31.973Z</time>
      </trkpt>
      <trkpt lat="48.504514" lon="16.874942">
        <ele>240.236645</ele>
        <time>2020-07-01T07:12:34.989Z</time>
      </trkpt>
      <trkpt lat="48.504569" lon="16.874812">
        <ele>241.865921</ele>
        <time>2020-07-01T07:12:37.972Z</time>
      </trkpt>
      <trkpt lat="48.504608" lon="16.874656">
        <ele>243.627159</ele>
        <time>2020-07-01T07:12:40.973Z</time>
      </trkpt>
      <trkpt lat="48.504668" lon="16.874522">
        <ele>245.335523</ele>
        <time>2020-07-01T07:12:43.982Z</time>
      </trkpt>
      <trkpt lat="48.504752" lon="16.874408">
        <ele>247.136495</ele>
        <time>2020-07-01T07:12:46.985Z</time>
      </trkpt>
      <trkpt lat="48.504823" lon="16.874285">
        <ele>248.859669</ele>
        <time>2020-07-01T07:12:49.993Z</time>
      </trkpt>
      <trkpt lat="48.504878" lon="16.874158">
        <ele>250.462321</ele>
        <time>2020-07-01T07:12:52.970Z</time>
      </trkpt>
      <trkpt lat="48.504936" lon="16.874020">
        <ele>252.188559</ele>
        <time>2020-07-01T07:12:55.987Z</time>
      </trkpt>
      <trkpt lat="48.504996" lon="16.873858">
        <ele>253.269538</ele>
        <time>2020-07-01T07:12:58.979Z</time>
      </trkpt>
      <trkpt lat="48.505070" lon="16.873688">
        <ele>253.160196</ele>
        <time>2020-07-01T07:13:01.993Z</time>
      </trkpt>
      <trkpt lat="48.505120" lon="16.873574">
        <ele>253.086705</ele>
        <time>2020-07-01T07:13:03.968Z</time>
      </trkpt>
      <trkpt lat="48.505169" lon="16.873457">
        <ele>253.012301</ele>
        <time>2020-07-01T07:13:05.998Z</time>
      </trkpt>
      <trkpt lat="48.505224" lon="16.873342">
        <ele>252.936060</ele>
        <time>2020-07-01T07:13:07.970Z</time>
      </trkpt>
      <trkpt lat="48.505300" lon="16.873239">
        <ele>252.853188</ele>
        <time>2020-07-01T07:13:09.999Z</time>
      </trkpt>
      <trkpt lat="48.505408" lon="16.873247">
        <ele>252.765459</ele>
        <time>2020-07-01T07:13:12.007Z</time>
      </trkpt>
      <trkpt lat="48.505487" lon="16.873349">
        <ele>252.681112</ele>
        <time>2020-07-01T07:13:13.984Z</time>
      </trkpt>
      <trkpt lat="48.505562" lon="16.873448">
        <ele>252.600274</ele>
        <time>2020-07-01T07:13:15.981Z</time>
      </trkpt>
      <trkpt lat="48.505635" lon="16.873543">
        <ele>252.522072</ele>
        <time>2020-07-01T07:13:17.998Z</time>
      </trkpt>
      <trkpt lat="48.505726" lon="16.873669">
        <ele>252.421880</ele>
        <time>2020-07-01T07:13:21.007Z</time>
      </trkpt>
      <trkpt lat="48.505796" lon="16.873777">
        <ele>252.340665</ele>
        <time>2020-07-01T07:13:23.973Z</time>
      </trkpt>
      <trkpt lat="48.505864" lon="16.873871">
        <ele>252.265852</ele>
        <time>2020-07-01T07:13:26.964Z</time>
      </trkpt>
      <trkpt lat="48.505941" lon="16.873985">
        <ele>252.178342</ele>
        <time>2020-07-01T07:13:30.986Z</time>
      </trkpt>
      <trkpt lat="48.506012" lon="16.874115">
        <ele>252.087780</ele>
        <time>2020-07-01T07:13:35.023Z</time>
      </trkpt>
      <trkpt lat="48.506090" lon="16.874230">
        <ele>251.999314</ele>
        <time>2020-07-01T07:13:38.984Z</time>
      </trkpt>
      <trkpt lat="48.506180" lon="16.874336">
        <ele>251.906694</ele>
        <time>2020-07-01T07:13:42.994Z</time>
      </trkpt>
      <trkpt lat="48.506272" lon="16.874442">
        <ele>251.918457</ele>
        <time>2020-07-01T07:13:46.982Z</time>
      </trkpt>
      <trkpt lat="48.506368" lon="16.874545">
        <ele>252.075072</ele>
        <time>2020-07-01T07:13:51.003Z</time>
      </trkpt>
      <trkpt lat="48.506438" lon="16.874632">
        <ele>252.195645</ele>
        <time>2020-07-01T07:13:54.005Z</time>
      </trkpt>
      <trkpt lat="48.506509" lon="16.874726">
        <ele>252.321226</ele>
        <time>2020-07-01T07:13:56.983Z</time>
      </trkpt>
      <trkpt lat="48.506583" lon="16.874813">
        <ele>252.445950</ele>
        <time>2020-07-01T07:14:00.000Z</time>
      </trkpt>
      <trkpt lat="48.506662" lon="16.874899">
        <ele>252.575467</ele>
        <time>2020-07-01T07:14:02.974Z</time>
      </trkpt>
      <trkpt lat="48.506737" lon="16.874995">
        <ele>252.706226</ele>
        <time>2020-07-01T07:14:05.981Z</time>
      </trkpt>
      <trkpt lat="48.506827" lon="16.875089">
        <ele>252.851755</ele>
        <time>2020-07-01T07:14:08.989Z</time>
      </trkpt>
      <trkpt lat="48.506923" lon="16.875179">
        <ele>253.002025</ele>
        <time>2020-07-01T07:14:11.973Z</time>
      </trkpt>
      <trkpt lat="48.507027" lon="16.875290">
        <ele>253.171393</ele>
        <time>2020-07-01T07:14:14.994Z</time>
      </trkpt>
      <trkpt lat="48.507130" lon="16.875400">
        <ele>253.339166</ele>
        <time>2020-07-01T07:14:17.989Z</time>
      </trkpt>
      <trkpt lat="48.507241" lon="16.875504">
        <ele>253.512886</ele>
        <time>2020-07-01T07:14:21.001Z</time>
      </trkpt>
      <trkpt lat="48.507352" lon="16.875607">
        <ele>253.686142</ele>
        <time>2020-07-01T07:14:23.969Z</time>
      </trkpt>
      <trkpt lat="48.507458" lon="16.875713">
        <ele>253.855216</ele>
        <time>2020-07-01T07:14:27.017Z</time>
      </trkpt>
      <trkpt lat="48.507560" lon="16.875826">
        <ele>254.023456</ele>
        <time>2020-07-01T07:14:29.991Z</time>
      </trkpt>
      <trkpt lat="48.507652" lon="16.875931">
        <ele>254.176821</ele>
        <time>2020-07-01T07:14:33.026Z</time>
      </trkpt>
      <trkpt lat="48.507754" lon="16.876038">
        <ele>254.301548</ele>
        <time>2020-07-01T07:14:35.998Z</time>
      </trkpt>
      <trkpt lat="48.507846" lon="16.876155">
        <ele>254.395178</ele>
        <time>2020-07-01T07:14:38.984Z</time>
      </trkpt>
      <trkpt lat="48.507946" lon="16.876259">
        <ele>254.489693</ele>
        <time>2020-07-01T07:14:41.984Z</time>
      </trkpt>
      <trkpt lat="48.508045" lon="16.876365">
        <ele>254.584162</ele>
        <time>2020-07-01T07:14:44.998Z</time>
      </trkpt>
      <trkpt lat="48.508146" lon="16.876468">
        <ele>254.679029</ele>
        <time>2020-07-01T07:14:47.976Z</time>
      </trkpt>
      <trkpt lat="48.508249" lon="16.876569">
        <ele>254.774625</ele>
        <time>2020-07-01T07:14:51.029Z</time>
      </trkpt>
      <trkpt lat="48.508347" lon="16.876669">
        <ele>254.866692</ele>
        <time>2020-07-01T07:14:53.972Z</time>
      </trkpt>
      <trkpt lat="48.508442" lon="16.876772">
        <ele>254.957727</ele>
        <time>2020-07-01T07:14:57.011Z</time>
      </trkpt>
      <trkpt lat="48.508549" lon="16.876878">
        <ele>255.057339</ele>
        <time>2020-07-01T07:14:59.991Z</time>
      </trkpt>
      <trkpt lat="48.508665" lon="16.876973">
        <ele>255.160054</ele>
        <time>2020-07-01T07:15:02.982Z</time>
      </trkpt>
      <trkpt lat="48.508745" lon="16.877040">
        <ele>255.231259</ele>
        <time>2020-07-01T07:15:04.976Z</time>
      </trkpt>
      <trkpt lat="48.508828" lon="16.877119">
        <ele>255.307628</ele>
        <time>2020-07-01T07:15:06.995Z</time>
      </trkpt>
      <trkpt lat="48.508911" lon="16.877202">
        <ele>255.385117</ele>
        <time>2020-07-01T07:15:08.983Z</time>
      </trkpt>
      <trkpt lat="48.509002" lon="16.877285">
        <ele>255.467868</ele>
        <time>2020-07-01T07:15:10.988Z</time>
      </trkpt>
      <trkpt lat="48.509093" lon="16.877363">
        <ele>255.549315</ele>
        <time>2020-07-01T07:15:12.990Z</time>
      </trkpt>
      <trkpt lat="48.509190" lon="16.877443">
        <ele>255.635344</ele>
        <time>2020-07-01T07:15:14.976Z</time>
      </trkpt>
      <trkpt lat="48.509289" lon="16.877530">
        <ele>255.675715</ele>
        <time>2020-07-01T07:15:16.975Z</time>
      </trkpt>
      <trkpt lat="48.509401" lon="16.877624">
        <ele>255.714751</ele>
        <time>2020-07-01T07:15:18.979Z</time>
      </trkpt>
      <trkpt lat="48.509522" lon="16.877707">
        <ele>255.755236</ele>
        <time>2020-07-01T07:15:20.987Z</time>
      </trkpt>
      <trkpt lat="48.509655" lon="16.877783">
        <ele>255.798556</ele>
        <time>2020-07-01T07:15:22.975Z</time>
      </trkpt>
      <trkpt lat="48.509782" lon="16.877891">
        <ele>255.842959</ele>
        <time>2020-07-01T07:15:24.972Z</time>
      </trkpt>
      <trkpt lat="48.509866" lon="16.878077">
        <ele>255.888386</ele>
        <time>2020-07-01T07:15:26.986Z</time>
      </trkpt>
      <trkpt lat="48.509967" lon="16.878215">
        <ele>255.929885</ele>
        <time>2020-07-01T07:15:28.976Z</time>
      </trkpt>
      <trkpt lat="48.510100" lon="16.878278">
        <ele>255.972346</ele>
        <time>2020-07-01T07:15:30.985Z</time>
      </trkpt>
      <trkpt lat="48.510236" lon="16.878340">
        <ele>256.015622</ele>
        <time>2020-07-01T07:15:32.977Z</time>
      </trkpt>
      <trkpt lat="48.510376" lon="16.878398">
        <ele>256.059845</ele>
        <time>2020-07-01T07:15:34.998Z</time>
      </trkpt>
      <trkpt lat="48.510509" lon="16.878469">
        <ele>256.102818</ele>
        <time>2020-07-01T07:15:37.000Z</time>
      </trkpt>
      <trkpt lat="48.510643" lon="16.878537">
        <ele>256.145881</ele>
        <time>2020-07-01T07:15:38.986Z</time>
      </trkpt>
      <trkpt lat="48.510775" lon="16.878604">
        <ele>256.188303</ele>
        <time>2020-07-01T07:15:40.987Z</time>
      </trkpt>
      <trkpt lat="48.510907" lon="16.878667">
        <ele>255.810142</ele>
        <time>2020-07-01T07:15:43.002Z</time>
      </trkpt>
      <trkpt lat="48.511037" lon="16.878710">
        <ele>255.405088</ele>
        <time>2020-07-01T07:15:44.997Z</time>
      </trkpt>
      <trkpt lat="48.511162" lon="16.878742">
        <ele>255.019208</ele>
        <time>2020-07-01T07:15:46.989Z</time>
      </trkpt>
      <trkpt lat="48.511269" lon="16.878772">
        <ele>254.687975</ele>
        <time>2020-07-01T07:15:49.002Z</time>
      </trkpt>
      <trkpt lat="48.511374" lon="16.878849">
        <ele>254.332682</ele>
        <time>2020-07-01T07:15:52.013Z</time>
      </trkpt>
      <trkpt lat="48.511372" lon="16.878994">
        <ele>254.040258</ele>
        <time>2020-07-01T07:15:53.996Z</time>
      </trkpt>
      <trkpt lat="48.511366" lon="16.879172">
        <ele>253.680894</ele>
        <time>2020-07-01T07:15:55.981Z</time>
      </trkpt>
      <trkpt lat="48.511368" lon="16.879369">
        <ele>253.283639</ele>
        <time>2020-07-01T07:15:57.998Z</time>
      </trkpt>
      <trkpt lat="48.511370" lon="16.879596">
        <ele>252.825902</ele>
        <time>2020-07-01T07:16:00.014Z</time>
      </trkpt>
      <trkpt lat="48.511370" lon="16.879860">
        <ele>252.293602</ele>
        <time>2020-07-01T07:16:02.015Z</time>
      </trkpt>
      <trkpt lat="48.511376" lon="16.880005">
        <ele>252.000671</ele>
        <time>2020-07-01T07:16:02.989Z</time>
      </trkpt>
      <trkpt lat="48.511383" lon="16.880161">
        <ele>251.685410</ele>
        <time>2020-07-01T07:16:04.016Z</time>
      </trkpt>
      <trkpt lat="48.511392" lon="16.880324">
        <ele>251.355616</ele>
        <time>2020-07-01T07:16:04.983Z</time>
      </trkpt>
      <trkpt lat="48.511400" lon="16.880490">
        <ele>251.020028</ele>
        <time>2020-07-01T07:16:05.990Z</time>
      </trkpt>
      <trkpt lat="48.511407" lon="16.880645">
        <ele>250.713862</ele>
        <time>2020-07-01T07:16:06.974Z</time>
      </trkpt>
      <trkpt lat="48.511413" lon="16.880794">
        <ele>250.604317</ele>
        <time>2020-07-01T07:16:07.967Z</time>
      </trkpt>
      <trkpt lat="48.511419" lon="16.880950">
        <ele>250.489644</ele>
        <time>2020-07-01T07:16:08.981Z</time>
      </trkpt>
      <trkpt lat="48.511424" lon="16.881114">
        <ele>250.369166</ele>
        <time>2020-07-01T07:16:09.979Z</time>
      </trkpt>
      <trkpt lat="48.511424" lon="16.881290">
        <ele>250.240010</ele>
        <time>2020-07-01T07:16:11.001Z</time>
      </trkpt>
      <trkpt lat="48.511420" lon="16.881481">
        <ele>250.099775</ele>
        <time>2020-07-01T07:16:12.005Z</time>
      </trkpt>
      <trkpt lat="48.511411" lon="16.881681">
        <ele>249.952668</ele>
        <time>2020-07-01T07:16:13.010Z</time>
      </trkpt>
      <trkpt lat="48.511408" lon="16.881877">
        <ele>249.808796</ele>
        <time>2020-07-01T07:16:13.979Z</time>
      </trkpt>
      <trkpt lat="48.511410" lon="16.882053">
        <ele>249.679621</ele>
        <time>2020-07-01T07:16:14.982Z</time>
      </trkpt>
      <trkpt lat="48.511414" lon="16.882213">
        <ele>249.562122</ele>
        <time>2020-07-01T07:16:15.985Z</time>
      </trkpt>
      <trkpt lat="48.511425" lon="16.882372">
        <ele>249.444806</ele>
        <time>2020-07-01T07:16:16.990Z</time>
      </trkpt>
      <trkpt lat="48.511442" lon="16.882521">
        <ele>249.333853</ele>
        <time>2020-07-01T07:16:17.999Z</time>
      </trkpt>
      <trkpt lat="48.511471" lon="16.882657">
        <ele>249.229008</ele>
        <time>2020-07-01T07:16:19.185Z</time>
      </trkpt>
      <trkpt lat="48.511522" lon="16.882919">
        <ele>249.028613</ele>
        <time>2020-07-01T07:16:20.977Z</time>
      </trkpt>
      <trkpt lat="48.511568" lon="16.883145">
        <ele>248.855113</ele>
        <time>2020-07-01T07:16:22.984Z</time>
      </trkpt>
      <trkpt lat="48.511593" lon="16.883334">
        <ele>248.725849</ele>
        <time>2020-07-01T07:16:24.994Z</time>
      </trkpt>
      <trkpt lat="48.511617" lon="16.883465">
        <ele>248.728905</ele>
        <time>2020-07-01T07:16:26.995Z</time>
      </trkpt>
      <trkpt lat="48.511712" lon="16.883519">
        <ele>248.732349</ele>
        <time>2020-07-01T07:16:30.980Z</time>
      </trkpt>
      <trkpt lat="48.511831" lon="16.883488">
        <ele>248.736447</ele>
        <time>2020-07-01T07:16:33.976Z</time>
      </trkpt>
      <trkpt lat="48.511944" lon="16.883448">
        <ele>248.740386</ele>
        <time>2020-07-01T07:16:36.991Z</time>
      </trkpt>
      <trkpt lat="48.512049" lon="16.883410">
        <ele>248.744050</ele>
        <time>2020-07-01T07:16:39.980Z</time>
      </trkpt>
      <trkpt lat="48.512155" lon="16.883379">
        <ele>248.747714</ele>
        <time>2020-07-01T07:16:42.994Z</time>
      </trkpt>
      <trkpt lat="48.512253" lon="16.883337">
        <ele>248.751171</ele>
        <time>2020-07-01T07:16:45.993Z</time>
      </trkpt>
      <trkpt lat="48.512341" lon="16.883292">
        <ele>248.754324</ele>
        <time>2020-07-01T07:16:49.006Z</time>
      </trkpt>
      <trkpt lat="48.512431" lon="16.883254">
        <ele>248.757495</ele>
        <time>2020-07-01T07:16:51.998Z</time>
      </trkpt>
      <trkpt lat="48.512530" lon="16.883226">
        <ele>248.760913</ele>
        <time>2020-07-01T07:16:54.984Z</time>
      </trkpt>
      <trkpt lat="48.512627" lon="16.883206">
        <ele>248.764235</ele>
        <time>2020-07-01T07:16:57.984Z</time>
      </trkpt>
      <trkpt lat="48.512719" lon="16.883193">
        <ele>248.767371</ele>
        <time>2020-07-01T07:17:00.994Z</time>
      </trkpt>
      <trkpt lat="48.512836" lon="16.883199">
        <ele>248.771344</ele>
        <time>2020-07-01T07:17:04.017Z</time>
      </trkpt>
      <trkpt lat="48.512932" lon="16.883197">
        <ele>248.774602</ele>
        <time>2020-07-01T07:17:06.015Z</time>
      </trkpt>
      <trkpt lat="48.513039" lon="16.883201">
        <ele>248.778234</ele>
        <time>2020-07-01T07:17:08.006Z</time>
      </trkpt>
      <trkpt lat="48.513154" lon="16.883216">
        <ele>248.782151</ele>
        <time>2020-07-01T07:17:09.981Z</time>
      </trkpt>
      <trkpt lat="48.513272" lon="16.883233">
        <ele>248.786173</ele>
        <time>2020-07-01T07:17:11.984Z</time>
      </trkpt>
      <trkpt lat="48.513396" lon="16.883257">
        <ele>248.549551</ele>
        <time>2020-07-01T07:17:13.987Z</time>
      </trkpt>
      <trkpt lat="48.513518" lon="16.883293">
        <ele>248.292716</ele>
        <time>2020-07-01T07:17:16.005Z</time>
      </trkpt>
      <trkpt lat="48.513650" lon="16.883322">
        <ele>248.017117</ele>
        <time>2020-07-01T07:17:17.998Z</time>
      </trkpt>
      <trkpt lat="48.513769" lon="16.883350">
        <ele>247.768282</ele>
        <time>2020-07-01T07:17:19.980Z</time>
      </trkpt>
      <trkpt lat="48.513866" lon="16.883368">
        <ele>247.566362</ele>
        <time>2020-07-01T07:17:21.994Z</time>
      </trkpt>
      <trkpt lat="48.514030" lon="16.883361">
        <ele>247.227385</ele>
        <time>2020-07-01T07:17:47.974Z</time>
      </trkpt>
      <trkpt lat="48.514155" lon="16.883346">
        <ele>246.968308</ele>
        <time>2020-07-01T07:17:50.998Z</time>
      </trkpt>
      <trkpt lat="48.514249" lon="16.883328">
        <ele>246.772538</ele>
        <time>2020-07-01T07:17:52.990Z</time>
      </trkpt>
      <trkpt lat="48.514342" lon="16.883311">
        <ele>246.578986</ele>
        <time>2020-07-01T07:17:54.997Z</time>
      </trkpt>
      <trkpt lat="48.514455" lon="16.883269">
        <ele>246.338544</ele>
        <time>2020-07-01T07:17:56.998Z</time>
      </trkpt>
      <trkpt lat="48.514577" lon="16.883247">
        <ele>246.084688</ele>
        <time>2020-07-01T07:17:58.998Z</time>
      </trkpt>
      <trkpt lat="48.514682" lon="16.883268">
        <ele>245.865851</ele>
        <time>2020-07-01T07:18:00.981Z</time>
      </trkpt>
      <trkpt lat="48.514776" lon="16.883292">
        <ele>245.668879</ele>
        <time>2020-07-01T07:18:02.988Z</time>
      </trkpt>
      <trkpt lat="48.514865" lon="16.883342">
        <ele>245.472675</ele>
        <time>2020-07-01T07:18:05.006Z</time>
      </trkpt>
      <trkpt lat="48.514947" lon="16.883413">
        <ele>245.277366</ele>
        <time>2020-07-01T07:18:06.979Z</time>
      </trkpt>
      <trkpt lat="48.515066" lon="16.883504">
        <ele>244.983863</ele>
        <time>2020-07-01T07:18:09.992Z</time>
      </trkpt>
      <trkpt lat="48.515165" lon="16.883545">
        <ele>244.716437</ele>
        <time>2020-07-01T07:18:12.011Z</time>
      </trkpt>
      <trkpt lat="48.515260" lon="16.883596">
        <ele>244.453778</ele>
        <time>2020-07-01T07:18:13.995Z</time>
      </trkpt>
      <trkpt lat="48.515366" lon="16.883642">
        <ele>244.166462</ele>
        <time>2020-07-01T07:18:15.991Z</time>
      </trkpt>
      <trkpt lat="48.515475" lon="16.883674">
        <ele>243.877195</ele>
        <time>2020-07-01T07:18:17.981Z</time>
      </trkpt>
      <trkpt lat="48.515577" lon="16.883690">
        <ele>243.610052</ele>
        <time>2020-07-01T07:18:19.993Z</time>
      </trkpt>
      <trkpt lat="48.515685" lon="16.883712">
        <ele>243.326160</ele>
        <time>2020-07-01T07:18:21.997Z</time>
      </trkpt>
      <trkpt lat="48.515787" lon="16.883761">
        <ele>243.047318</ele>
        <time>2020-07-01T07:18:23.991Z</time>
      </trkpt>
      <trkpt lat="48.515880" lon="16.883807">
        <ele>242.792379</ele>
        <time>2020-07-01T07:18:26.023Z</time>
      </trkpt>
      <trkpt lat="48.515974" lon="16.883846">
        <ele>242.538427</ele>
        <time>2020-07-01T07:18:28.015Z</time>
      </trkpt>
      <trkpt lat="48.516060" lon="16.883887">
        <ele>242.303489</ele>
        <time>2020-07-01T07:18:29.981Z</time>
      </trkpt>
      <trkpt lat="48.516176" lon="16.883939">
        <ele>241.988265</ele>
        <time>2020-07-01T07:18:33.001Z</time>
      </trkpt>
      <trkpt lat="48.516299" lon="16.883993">
        <ele>241.654573</ele>
        <time>2020-07-01T07:18:35.987Z</time>
      </trkpt>
      <trkpt lat="48.516404" lon="16.884029">
        <ele>241.374080</ele>
        <time>2020-07-01T07:18:38.997Z</time>
      </trkpt>
      <trkpt lat="48.516505" lon="16.884069">
        <ele>241.102070</ele>
        <time>2020-07-01T07:18:41.982Z</time>
      </trkpt>
      <trkpt lat="48.516614" lon="16.884083">
        <ele>240.817096</ele>
        <time>2020-07-01T07:18:45.012Z</time>
      </trkpt>
      <trkpt lat="48.516730" lon="16.884080">
        <ele>240.514869</ele>
        <time>2020-07-01T07:18:47.979Z</time>
      </trkpt>
      <trkpt lat="48.516839" lon="16.884053">
        <ele>240.132689</ele>
        <time>2020-07-01T07:18:50.983Z</time>
      </trkpt>
      <trkpt lat="48.516941" lon="16.884026">
        <ele>239.701387</ele>
        <time>2020-07-01T07:18:53.986Z</time>
      </trkpt>
      <trkpt lat="48.517037" lon="16.884010">
        <ele>239.299126</ele>
        <time>2020-07-01T07:18:56.997Z</time>
      </trkpt>
      <trkpt lat="48.517136" lon="16.883992">
        <ele>238.883820</ele>
        <time>2020-07-01T07:18:59.981Z</time>
      </trkpt>
      <trkpt lat="48.517237" lon="16.884004">
        <ele>238.461863</ele>
        <time>2020-07-01T07:19:02.981Z</time>
      </trkpt>
      <trkpt lat="48.517348" lon="16.884023">
        <ele>237.996596</ele>
        <time>2020-07-01T07:19:06.002Z</time>
      </trkpt>
      <trkpt lat="48.517469" lon="16.884052">
        <ele>237.486330</ele>
        <time>2020-07-01T07:19:09.040Z</time>
      </trkpt>
      <trkpt lat="48.517593" lon="16.884078">
        <ele>236.964923</ele>
        <time>2020-07-01T07:19:12.004Z</time>
      </trkpt>
      <trkpt lat="48.517728" lon="16.884104">
        <ele>236.398103</ele>
        <time>2020-07-01T07:19:15.003Z</time>
      </trkpt>
      <trkpt lat="48.517822" lon="16.884131">
        <ele>235.999578</ele>
        <time>2020-07-01T07:19:17.008Z</time>
      </trkpt>
      <trkpt lat="48.517921" lon="16.884159">
        <ele>235.580078</ele>
        <time>2020-07-01T07:19:19.009Z</time>
      </trkpt>
      <trkpt lat="48.518021" lon="16.884187">
        <ele>235.156484</ele>
        <time>2020-07-01T07:19:20.981Z</time>
      </trkpt>
      <trkpt lat="48.518128" lon="16.884218">
        <ele>234.702707</ele>
        <time>2020-07-01T07:19:23.021Z</time>
      </trkpt>
      <trkpt lat="48.518237" lon="16.884243">
        <ele>234.243522</ele>
        <time>2020-07-01T07:19:24.998Z</time>
      </trkpt>
      <trkpt lat="48.518348" lon="16.884267">
        <ele>233.776499</ele>
        <time>2020-07-01T07:19:27.018Z</time>
      </trkpt>
      <trkpt lat="48.518464" lon="16.884293">
        <ele>233.288074</ele>
        <time>2020-07-01T07:19:28.972Z</time>
      </trkpt>
      <trkpt lat="48.518573" lon="16.884329">
        <ele>232.884409</ele>
        <time>2020-07-01T07:19:30.978Z</time>
      </trkpt>
      <trkpt lat="48.518678" lon="16.884373">
        <ele>232.824798</ele>
        <time>2020-07-01T07:19:33.000Z</time>
      </trkpt>
      <trkpt lat="48.518785" lon="16.884406">
        <ele>232.765057</ele>
        <time>2020-07-01T07:19:34.993Z</time>
      </trkpt>
      <trkpt lat="48.518903" lon="16.884436">
        <ele>232.699597</ele>
        <time>2020-07-01T07:19:37.014Z</time>
      </trkpt>
      <trkpt lat="48.519030" lon="16.884467">
        <ele>232.629222</ele>
        <time>2020-07-01T07:19:38.988Z</time>
      </trkpt>
      <trkpt lat="48.519160" lon="16.884495">
        <ele>232.557387</ele>
        <time>2020-07-01T07:19:40.993Z</time>
      </trkpt>
      <trkpt lat="48.519294" lon="16.884528">
        <ele>232.483115</ele>
        <time>2020-07-01T07:19:42.993Z</time>
      </trkpt>
      <trkpt lat="48.519430" lon="16.884579">
        <ele>232.406457</ele>
        <time>2020-07-01T07:19:45.002Z</time>
      </trkpt>
      <trkpt lat="48.519568" lon="16.884632">
        <ele>232.328562</ele>
        <time>2020-07-01T07:19:47.001Z</time>
      </trkpt>
      <trkpt lat="48.519709" lon="16.884669">
        <ele>232.250274</ele>
        <time>2020-07-01T07:19:48.999Z</time>
      </trkpt>
      <trkpt lat="48.519848" lon="16.884716">
        <ele>232.172352</ele>
        <time>2020-07-01T07:19:51.025Z</time>
      </trkpt>
      <trkpt lat="48.519988" lon="16.884760">
        <ele>232.094125</ele>
        <time>2020-07-01T07:19:52.979Z</time>
      </trkpt>
      <trkpt lat="48.520126" lon="16.884798">
        <ele>232.017389</ele>
        <time>2020-07-01T07:19:54.995Z</time>
      </trkpt>
      <trkpt lat="48.520262" lon="16.884845">
        <ele>231.941067</ele>
        <time>2020-07-01T07:19:56.987Z</time>
      </trkpt>
      <trkpt lat="48.520392" lon="16.884912">
        <ele>231.819663</ele>
        <time>2020-07-01T07:19:58.994Z</time>
      </trkpt>
      <trkpt lat="48.520503" lon="16.885036">
        <ele>231.664334</ele>
        <time>2020-07-01T07:20:00.983Z</time>
      </trkpt>
      <trkpt lat="48.520604" lon="16.885158">
        <ele>231.518831</ele>
        <time>2020-07-01T07:20:02.983Z</time>
      </trkpt>
      <trkpt lat="48.520710" lon="16.885238">
        <ele>231.385523</ele>
        <time>2020-07-01T07:20:05.002Z</time>
      </trkpt>
      <trkpt lat="48.520828" lon="16.885300">
        <ele>231.244976</ele>
        <time>2020-07-01T07:20:06.977Z</time>
      </trkpt>
      <trkpt lat="48.520956" lon="16.885350">
        <ele>231.096248</ele>
        <time>2020-07-01T07:20:08.978Z</time>
      </trkpt>
      <trkpt lat="48.521076" lon="16.885406">
        <ele>230.954958</ele>
        <time>2020-07-01T07:20:10.985Z</time>
      </trkpt>
      <trkpt lat="48.521200" lon="16.885430">
        <ele>230.814329</ele>
        <time>2020-07-01T07:20:12.973Z</time>
      </trkpt>
      <trkpt lat="48.521322" lon="16.885468">
        <ele>230.674201</ele>
        <time>2020-07-01T07:20:14.971Z</time>
      </trkpt>
      <trkpt lat="48.521445" lon="16.885493">
        <ele>230.534590</ele>
        <time>2020-07-01T07:20:16.975Z</time>
      </trkpt>
      <trkpt lat="48.521565" lon="16.885537">
        <ele>230.395678</ele>
        <time>2020-07-01T07:20:19.001Z</time>
      </trkpt>
      <trkpt lat="48.521685" lon="16.885562">
        <ele>230.259411</ele>
        <time>2020-07-01T07:20:20.994Z</time>
      </trkpt>
      <trkpt lat="48.521804" lon="16.885600">
        <ele>230.122586</ele>
        <time>2020-07-01T07:20:22.984Z</time>
      </trkpt>
      <trkpt lat="48.521917" lon="16.885650">
        <ele>229.990126</ele>
        <time>2020-07-01T07:20:24.993Z</time>
      </trkpt>
      <trkpt lat="48.522030" lon="16.885685">
        <ele>229.860257</ele>
        <time>2020-07-01T07:20:27.007Z</time>
      </trkpt>
      <trkpt lat="48.522138" lon="16.885744">
        <ele>229.730522</ele>
        <time>2020-07-01T07:20:28.995Z</time>
      </trkpt>
      <trkpt lat="48.522238" lon="16.885800">
        <ele>229.610045</ele>
        <time>2020-07-01T07:20:31.006Z</time>
      </trkpt>
      <trkpt lat="48.522341" lon="16.885851">
        <ele>229.487601</ele>
        <time>2020-07-01T07:20:32.990Z</time>
      </trkpt>
      <trkpt lat="48.522436" lon="16.885910">
        <ele>229.371567</ele>
        <time>2020-07-01T07:20:34.996Z</time>
      </trkpt>
      <trkpt lat="48.522532" lon="16.885969">
        <ele>229.254488</ele>
        <time>2020-07-01T07:20:36.982Z</time>
      </trkpt>
      <trkpt lat="48.522640" lon="16.886009">
        <ele>229.128877</ele>
        <time>2020-07-01T07:20:38.985Z</time>
      </trkpt>
      <trkpt lat="48.522755" lon="16.886048">
        <ele>228.995738</ele>
        <time>2020-07-01T07:20:40.982Z</time>
      </trkpt>
      <trkpt lat="48.522877" lon="16.886080">
        <ele>228.855866</ele>
        <time>2020-07-01T07:20:42.993Z</time>
      </trkpt>
      <trkpt lat="48.523015" lon="16.886124">
        <ele>228.696546</ele>
        <time>2020-07-01T07:20:44.989Z</time>
      </trkpt>
      <trkpt lat="48.523147" lon="16.886203">
        <ele>228.536155</ele>
        <time>2020-07-01T07:20:46.996Z</time>
      </trkpt>
      <trkpt lat="48.523289" lon="16.886303">
        <ele>228.359165</ele>
        <time>2020-07-01T07:20:49.000Z</time>
      </trkpt>
      <trkpt lat="48.523413" lon="16.886411">
        <ele>228.197463</ele>
        <time>2020-07-01T07:20:50.987Z</time>
      </trkpt>
      <trkpt lat="48.523533" lon="16.886523">
        <ele>228.038106</ele>
        <time>2020-07-01T07:20:52.990Z</time>
      </trkpt>
      <trkpt lat="48.523662" lon="16.886613">
        <ele>227.877586</ele>
        <time>2020-07-01T07:20:54.976Z</time>
      </trkpt>
      <trkpt lat="48.523792" lon="16.886677">
        <ele>227.614579</ele>
        <time>2020-07-01T07:20:56.970Z</time>
      </trkpt>
      <trkpt lat="48.523921" lon="16.886722">
        <ele>227.341641</ele>
        <time>2020-07-01T07:20:58.980Z</time>
      </trkpt>
      <trkpt lat="48.524056" lon="16.886748">
        <ele>227.061084</ele>
        <time>2020-07-01T07:21:00.995Z</time>
      </trkpt>
      <trkpt lat="48.524192" lon="16.886783">
        <ele>226.776677</ele>
        <time>2020-07-01T07:21:02.980Z</time>
      </trkpt>
      <trkpt lat="48.524327" lon="16.886820">
        <ele>226.493828</ele>
        <time>2020-07-01T07:21:05.011Z</time>
      </trkpt>
      <trkpt lat="48.524465" lon="16.886864">
        <ele>226.203068</ele>
        <time>2020-07-01T07:21:06.990Z</time>
      </trkpt>
      <trkpt lat="48.524607" lon="16.886899">
        <ele>225.906461</ele>
        <time>2020-07-01T07:21:08.999Z</time>
      </trkpt>
      <trkpt lat="48.524751" lon="16.886933">
        <ele>225.605998</ele>
        <time>2020-07-01T07:21:11.013Z</time>
      </trkpt>
      <trkpt lat="48.524902" lon="16.886946">
        <ele>225.294206</ele>
        <time>2020-07-01T07:21:13.003Z</time>
      </trkpt>
      <trkpt lat="48.525053" lon="16.886994">
        <ele>224.976097</ele>
        <time>2020-07-01T07:21:15.008Z</time>
      </trkpt>
      <trkpt lat="48.525194" lon="16.887032">
        <ele>224.680832</ele>
        <time>2020-07-01T07:21:17.008Z</time>
      </trkpt>
      <trkpt lat="48.525327" lon="16.887070">
        <ele>224.401788</ele>
        <time>2020-07-01T07:21:19.009Z</time>
      </trkpt>
      <trkpt lat="48.525452" lon="16.887120">
        <ele>224.134890</ele>
        <time>2020-07-01T07:21:21.005Z</time>
      </trkpt>
      <trkpt lat="48.525560" lon="16.887137">
        <ele>223.904838</ele>
        <time>2020-07-01T07:21:22.975Z</time>
      </trkpt>
      <trkpt lat="48.525666" lon="16.887159">
        <ele>223.678152</ele>
        <time>2020-07-01T07:21:24.983Z</time>
      </trkpt>
      <trkpt lat="48.525777" lon="16.887216">
        <ele>223.429756</ele>
        <time>2020-07-01T07:21:26.981Z</time>
      </trkpt>
      <trkpt lat="48.525897" lon="16.887239">
        <ele>223.173480</ele>
        <time>2020-07-01T07:21:28.990Z</time>
      </trkpt>
      <trkpt lat="48.526014" lon="16.887253">
        <ele>222.924823</ele>
        <time>2020-07-01T07:21:30.982Z</time>
      </trkpt>
      <trkpt lat="48.526130" lon="16.887264">
        <ele>222.678578</ele>
        <time>2020-07-01T07:21:32.980Z</time>
      </trkpt>
      <trkpt lat="48.526245" lon="16.887264">
        <ele>222.434936</ele>
        <time>2020-07-01T07:21:34.989Z</time>
      </trkpt>
      <trkpt lat="48.526357" lon="16.887275">
        <ele>222.197148</ele>
        <time>2020-07-01T07:21:36.983Z</time>
      </trkpt>
      <trkpt lat="48.526465" lon="16.887274">
        <ele>221.968332</ele>
        <time>2020-07-01T07:21:39.001Z</time>
      </trkpt>
      <trkpt lat="48.526570" lon="16.887265">
        <ele>221.745517</ele>
        <time>2020-07-01T07:21:40.998Z</time>
      </trkpt>
      <trkpt lat="48.526680" lon="16.887252">
        <ele>221.511755</ele>
        <time>2020-07-01T07:21:42.993Z</time>
      </trkpt>
      <trkpt lat="48.526795" lon="16.887243">
        <ele>221.267786</ele>
        <time>2020-07-01T07:21:44.980Z</time>
      </trkpt>
      <trkpt lat="48.526914" lon="16.887253">
        <ele>221.015279</ele>
        <time>2020-07-01T07:21:46.994Z</time>
      </trkpt>
      <trkpt lat="48.527038" lon="16.887245">
        <ele>220.752329</ele>
        <time>2020-07-01T07:21:49.000Z</time>
      </trkpt>
      <trkpt lat="48.527160" lon="16.887214">
        <ele>220.490222</ele>
        <time>2020-07-01T07:21:51.007Z</time>
      </trkpt>
      <trkpt lat="48.527276" lon="16.887176">
        <ele>220.325296</ele>
        <time>2020-07-01T07:21:52.998Z</time>
      </trkpt>
      <trkpt lat="48.527384" lon="16.887099">
        <ele>220.297083</ele>
        <time>2020-07-01T07:21:54.994Z</time>
      </trkpt>
      <trkpt lat="48.527490" lon="16.887049">
        <ele>220.270850</ele>
        <time>2020-07-01T07:21:56.972Z</time>
      </trkpt>
      <trkpt lat="48.527584" lon="16.887017">
        <ele>220.248088</ele>
        <time>2020-07-01T07:21:58.982Z</time>
      </trkpt>
      <trkpt lat="48.527684" lon="16.886975">
        <ele>220.223569</ele>
        <time>2020-07-01T07:22:00.988Z</time>
      </trkpt>
      <trkpt lat="48.527777" lon="16.886938">
        <ele>220.200851</ele>
        <time>2020-07-01T07:22:03.001Z</time>
      </trkpt>
      <trkpt lat="48.527867" lon="16.886890">
        <ele>220.178303</ele>
        <time>2020-07-01T07:22:04.992Z</time>
      </trkpt>
      <trkpt lat="48.527964" lon="16.886846">
        <ele>220.154378</ele>
        <time>2020-07-01T07:22:06.991Z</time>
      </trkpt>
      <trkpt lat="48.528057" lon="16.886811">
        <ele>220.131738</ele>
        <time>2020-07-01T07:22:08.992Z</time>
      </trkpt>
      <trkpt lat="48.528153" lon="16.886778">
        <ele>220.108480</ele>
        <time>2020-07-01T07:22:10.995Z</time>
      </trkpt>
      <trkpt lat="48.528247" lon="16.886756">
        <ele>220.086010</ele>
        <time>2020-07-01T07:22:12.980Z</time>
      </trkpt>
      <trkpt lat="48.528350" lon="16.886724">
        <ele>220.061170</ele>
        <time>2020-07-01T07:22:15.014Z</time>
      </trkpt>
      <trkpt lat="48.528453" lon="16.886688">
        <ele>220.036196</ele>
        <time>2020-07-01T07:22:16.985Z</time>
      </trkpt>
      <trkpt lat="48.528558" lon="16.886645">
        <ele>220.010496</ele>
        <time>2020-07-01T07:22:18.984Z</time>
      </trkpt>
      <trkpt lat="48.528651" lon="16.886614">
        <ele>219.987999</ele>
        <time>2020-07-01T07:22:21.001Z</time>
      </trkpt>
      <trkpt lat="48.528742" lon="16.886590">
        <ele>219.966177</ele>
        <time>2020-07-01T07:22:22.992Z</time>
      </trkpt>
      <trkpt lat="48.528831" lon="16.886560">
        <ele>219.944636</ele>
        <time>2020-07-01T07:22:24.997Z</time>
      </trkpt>
      <trkpt lat="48.528959" lon="16.886516">
        <ele>219.913626</ele>
        <time>2020-07-01T07:22:27.975Z</time>
      </trkpt>
      <trkpt lat="48.529086" lon="16.886477">
        <ele>219.934459</ele>
        <time>2020-07-01T07:22:30.987Z</time>
      </trkpt>
      <trkpt lat="48.529211" lon="16.886440">
        <ele>219.959134</ele>
        <time>2020-07-01T07:22:33.976Z</time>
      </trkpt>
      <trkpt lat="48.529336" lon="16.886401">
        <ele>219.983860</ele>
        <time>2020-07-01T07:22:36.973Z</time>
      </trkpt>
      <trkpt lat="48.529456" lon="16.886336">
        <ele>220.008557</ele>
        <time>2020-07-01T07:22:39.985Z</time>
      </trkpt>
      <trkpt lat="48.529573" lon="16.886252">
        <ele>220.033653</ele>
        <time>2020-07-01T07:22:42.997Z</time>
      </trkpt>
      <trkpt lat="48.529693" lon="16.886254">
        <ele>220.056901</ele>
        <time>2020-07-01T07:22:44.976Z</time>
      </trkpt>
      <trkpt lat="48.529866" lon="16.886292">
        <ele>220.090766</ele>
        <time>2020-07-01T07:22:46.981Z</time>
      </trkpt>
      <trkpt lat="48.529961" lon="16.886307">
        <ele>220.109270</ele>
        <time>2020-07-01T07:22:47.981Z</time>
      </trkpt>
      <trkpt lat="48.530055" lon="16.886322">
        <ele>220.127581</ele>
        <time>2020-07-01T07:22:48.977Z</time>
      </trkpt>
      <trkpt lat="48.530162" lon="16.886342">
        <ele>220.148466</ele>
        <time>2020-07-01T07:22:49.991Z</time>
      </trkpt>
      <trkpt lat="48.530262" lon="16.886398">
        <ele>220.169127</ele>
        <time>2020-07-01T07:22:50.973Z</time>
      </trkpt>
      <trkpt lat="48.530351" lon="16.886461">
        <ele>220.188168</ele>
        <time>2020-07-01T07:22:51.988Z</time>
      </trkpt>
      <trkpt lat="48.530430" lon="16.886532">
        <ele>220.205977</ele>
        <time>2020-07-01T07:22:52.988Z</time>
      </trkpt>
      <trkpt lat="48.530512" lon="16.886589">
        <ele>220.223464</ele>
        <time>2020-07-01T07:22:54.013Z</time>
      </trkpt>
      <trkpt lat="48.530608" lon="16.886594">
        <ele>220.242072</ele>
        <time>2020-07-01T07:22:55.004Z</time>
      </trkpt>
      <trkpt lat="48.530711" lon="16.886562">
        <ele>220.202206</ele>
        <time>2020-07-01T07:22:55.973Z</time>
      </trkpt>
      <trkpt lat="48.530816" lon="16.886523">
        <ele>219.762082</ele>
        <time>2020-07-01T07:22:56.986Z</time>
      </trkpt>
      <trkpt lat="48.530917" lon="16.886504">
        <ele>219.347800</ele>
        <time>2020-07-01T07:22:57.973Z</time>
      </trkpt>
      <trkpt lat="48.531051" lon="16.886582">
        <ele>218.763256</ele>
        <time>2020-07-01T07:22:59.986Z</time>
      </trkpt>
      <trkpt lat="48.531149" lon="16.886687">
        <ele>218.274159</ele>
        <time>2020-07-01T07:23:01.980Z</time>
      </trkpt>
      <trkpt lat="48.531232" lon="16.886809">
        <ele>217.802702</ele>
        <time>2020-07-01T07:23:04.998Z</time>
      </trkpt>
      <trkpt lat="48.531287" lon="16.886921">
        <ele>217.426865</ele>
        <time>2020-07-01T07:23:07.997Z</time>
      </trkpt>
      <trkpt lat="48.531362" lon="16.887057">
        <ele>216.949820</ele>
        <time>2020-07-01T07:23:10.983Z</time>
      </trkpt>
      <trkpt lat="48.531417" lon="16.887199">
        <ele>216.506408</ele>
        <time>2020-07-01T07:23:12.988Z</time>
      </trkpt>
      <trkpt lat="48.531458" lon="16.887380">
        <ele>215.990785</ele>
        <time>2020-07-01T07:23:14.984Z</time>
      </trkpt>
      <trkpt lat="48.531487" lon="16.887559">
        <ele>215.494076</ele>
        <time>2020-07-01T07:23:17.017Z</time>
      </trkpt>
      <trkpt lat="48.531562" lon="16.887662">
        <ele>215.081439</ele>
        <time>2020-07-01T07:23:19.986Z</time>
      </trkpt>
      <trkpt lat="48.531657" lon="16.887724">
        <ele>214.660190</ele>
        <time>2020-07-01T07:23:23.013Z</time>
      </trkpt>
      <trkpt lat="48.531771" lon="16.887757">
        <ele>214.187723</ele>
        <time>2020-07-01T07:23:25.997Z</time>
      </trkpt>
      <trkpt lat="48.531902" lon="16.887780">
        <ele>213.650917</ele>
        <time>2020-07-01T07:23:29.023Z</time>
      </trkpt>
      <trkpt lat="48.532037" lon="16.887793">
        <ele>213.100305</ele>
        <time>2020-07-01T07:23:31.970Z</time>
      </trkpt>
      <trkpt lat="48.532128" lon="16.887822">
        <ele>212.787154</ele>
        <time>2020-07-01T07:23:33.985Z</time>
      </trkpt>
      <trkpt lat="48.532220" lon="16.887841">
        <ele>212.523186</ele>
        <time>2020-07-01T07:23:36.008Z</time>
      </trkpt>
      <trkpt lat="48.532319" lon="16.887854">
        <ele>212.240691</ele>
        <time>2020-07-01T07:23:37.991Z</time>
      </trkpt>
      <trkpt lat="48.532423" lon="16.887872">
        <ele>211.943109</ele>
        <time>2020-07-01T07:23:40.002Z</time>
      </trkpt>
      <trkpt lat="48.532532" lon="16.887891">
        <ele>211.631191</ele>
        <time>2020-07-01T07:23:41.997Z</time>
      </trkpt>
      <trkpt lat="48.532644" lon="16.887893">
        <ele>211.312780</ele>
        <time>2020-07-01T07:23:43.979Z</time>
      </trkpt>
      <trkpt lat="48.532759" lon="16.887892">
        <ele>210.985857</ele>
        <time>2020-07-01T07:23:46.050Z</time>
      </trkpt>
      <trkpt lat="48.532877" lon="16.887883">
        <ele>210.649984</ele>
        <time>2020-07-01T07:23:47.995Z</time>
      </trkpt>
      <trkpt lat="48.533002" lon="16.887870">
        <ele>210.293798</ele>
        <time>2020-07-01T07:23:49.972Z</time>
      </trkpt>
      <trkpt lat="48.533134" lon="16.887856">
        <ele>209.917630</ele>
        <time>2020-07-01T07:23:52.018Z</time>
      </trkpt>
      <trkpt lat="48.533267" lon="16.887851">
        <ele>209.539426</ele>
        <time>2020-07-01T07:23:53.976Z</time>
      </trkpt>
      <trkpt lat="48.533401" lon="16.887842">
        <ele>209.158120</ele>
        <time>2020-07-01T07:23:55.976Z</time>
      </trkpt>
      <trkpt lat="48.533538" lon="16.887837">
        <ele>208.768548</ele>
        <time>2020-07-01T07:23:57.986Z</time>
      </trkpt>
      <trkpt lat="48.533677" lon="16.887829">
        <ele>208.373118</ele>
        <time>2020-07-01T07:23:59.990Z</time>
      </trkpt>
      <trkpt lat="48.533819" lon="16.887831">
        <ele>207.969429</ele>
        <time>2020-07-01T07:24:01.984Z</time>
      </trkpt>
      <trkpt lat="48.533966" lon="16.887834">
        <ele>207.817567</ele>
        <time>2020-07-01T07:24:03.993Z</time>
      </trkpt>
      <trkpt lat="48.534115" lon="16.887840">
        <ele>207.805279</ele>
        <time>2020-07-01T07:24:05.976Z</time>
      </trkpt>
      <trkpt lat="48.534268" lon="16.887824">
        <ele>207.792634</ele>
        <time>2020-07-01T07:24:07.977Z</time>
      </trkpt>
      <trkpt lat="48.534429" lon="16.887834">
        <ele>207.779349</ele>
        <time>2020-07-01T07:24:09.976Z</time>
      </trkpt>
      <trkpt lat="48.534595" lon="16.887826">
        <ele>207.765656</ele>
        <time>2020-07-01T07:24:11.986Z</time>
      </trkpt>
      <trkpt lat="48.534757" lon="16.887812">
        <ele>207.752278</ele>
        <time>2020-07-01T07:24:13.978Z</time>
      </trkpt>
      <trkpt lat="48.534902" lon="16.887805">
        <ele>207.740317</ele>
        <time>2020-07-01T07:24:15.984Z</time>
      </trkpt>
      <trkpt lat="48.535029" lon="16.887807">
        <ele>207.729846</ele>
        <time>2020-07-01T07:24:18.002Z</time>
      </trkpt>
      <trkpt lat="48.535151" lon="16.887796">
        <ele>207.719770</ele>
        <time>2020-07-01T07:24:20.003Z</time>
      </trkpt>
      <trkpt lat="48.535272" lon="16.887782">
        <ele>207.709764</ele>
        <time>2020-07-01T07:24:22.004Z</time>
      </trkpt>
      <trkpt lat="48.535393" lon="16.887766">
        <ele>207.699750</ele>
        <time>2020-07-01T07:24:24.004Z</time>
      </trkpt>
      <trkpt lat="48.535516" lon="16.887762">
        <ele>207.689607</ele>
        <time>2020-07-01T07:24:25.969Z</time>
      </trkpt>
      <trkpt lat="48.535639" lon="16.887766">
        <ele>207.679464</ele>
        <time>2020-07-01T07:24:27.991Z</time>
      </trkpt>
      <trkpt lat="48.535763" lon="16.887761">
        <ele>207.684025</ele>
        <time>2020-07-01T07:24:30.013Z</time>
      </trkpt>
      <trkpt lat="48.535881" lon="16.887746">
        <ele>207.692339</ele>
        <time>2020-07-01T07:24:31.997Z</time>
      </trkpt>
      <trkpt lat="48.535997" lon="16.887731">
        <ele>207.700514</ele>
        <time>2020-07-01T07:24:33.987Z</time>
      </trkpt>
      <trkpt lat="48.536114" lon="16.887736">
        <ele>207.708732</ele>
        <time>2020-07-01T07:24:36.005Z</time>
      </trkpt>
      <trkpt lat="48.536232" lon="16.887734">
        <ele>207.717018</ele>
        <time>2020-07-01T07:24:37.968Z</time>
      </trkpt>
      <trkpt lat="48.536352" lon="16.887726">
        <ele>207.725452</ele>
        <time>2020-07-01T07:24:39.989Z</time>
      </trkpt>
      <trkpt lat="48.536472" lon="16.887720">
        <ele>207.733882</ele>
        <time>2020-07-01T07:24:41.988Z</time>
      </trkpt>
      <trkpt lat="48.536594" lon="16.887710">
        <ele>207.742461</ele>
        <time>2020-07-01T07:24:43.980Z</time>
      </trkpt>
      <trkpt lat="48.536719" lon="16.887696">
        <ele>207.751262</ele>
        <time>2020-07-01T07:24:46.015Z</time>
      </trkpt>
      <trkpt lat="48.536846" lon="16.887684">
        <ele>207.760197</ele>
        <time>2020-07-01T07:24:47.996Z</time>
      </trkpt>
      <trkpt lat="48.536977" lon="16.887671">
        <ele>207.769414</ele>
        <time>2020-07-01T07:24:50.014Z</time>
      </trkpt>
      <trkpt lat="48.537110" lon="16.887657">
        <ele>207.778776</ele>
        <time>2020-07-01T07:24:52.010Z</time>
      </trkpt>
      <trkpt lat="48.537243" lon="16.887648">
        <ele>207.788124</ele>
        <time>2020-07-01T07:24:54.021Z</time>
      </trkpt>
      <trkpt lat="48.537372" lon="16.887641">
        <ele>207.797187</ele>
        <time>2020-07-01T07:24:56.001Z</time>
      </trkpt>
      <trkpt lat="48.537496" lon="16.887634">
        <ele>207.790363</ele>
        <time>2020-07-01T07:24:57.998Z</time>
      </trkpt>
      <trkpt lat="48.537620" lon="16.887625">
        <ele>207.742321</ele>
        <time>2020-07-01T07:25:00.009Z</time>
      </trkpt>
      <trkpt lat="48.537741" lon="16.887617">
        <ele>207.695450</ele>
        <time>2020-07-01T07:25:01.977Z</time>
      </trkpt>
      <trkpt lat="48.537858" lon="16.887609">
        <ele>207.650125</ele>
        <time>2020-07-01T07:25:04.000Z</time>
      </trkpt>
      <trkpt lat="48.537968" lon="16.887601">
        <ele>207.607507</ele>
        <time>2020-07-01T07:25:06.009Z</time>
      </trkpt>
      <trkpt lat="48.538078" lon="16.887591">
        <ele>207.564861</ele>
        <time>2020-07-01T07:25:08.013Z</time>
      </trkpt>
      <trkpt lat="48.538185" lon="16.887579">
        <ele>207.523339</ele>
        <time>2020-07-01T07:25:10.008Z</time>
      </trkpt>
      <trkpt lat="48.538292" lon="16.887569">
        <ele>207.481852</ele>
        <time>2020-07-01T07:25:11.995Z</time>
      </trkpt>
      <trkpt lat="48.538398" lon="16.887568">
        <ele>207.440830</ele>
        <time>2020-07-01T07:25:13.986Z</time>
      </trkpt>
      <trkpt lat="48.538502" lon="16.887566">
        <ele>207.400579</ele>
        <time>2020-07-01T07:25:15.996Z</time>
      </trkpt>
      <trkpt lat="48.538605" lon="16.887567">
        <ele>207.360719</ele>
        <time>2020-07-01T07:25:17.982Z</time>
      </trkpt>
      <trkpt lat="48.538710" lon="16.887570">
        <ele>207.320077</ele>
        <time>2020-07-01T07:25:19.978Z</time>
      </trkpt>
      <trkpt lat="48.538815" lon="16.887584">
        <ele>207.279285</ele>
        <time>2020-07-01T07:25:21.978Z</time>
      </trkpt>
      <trkpt lat="48.538924" lon="16.887601">
        <ele>207.236879</ele>
        <time>2020-07-01T07:25:24.029Z</time>
      </trkpt>
      <trkpt lat="48.539025" lon="16.887686">
        <ele>207.192134</ele>
        <time>2020-07-01T07:25:25.972Z</time>
      </trkpt>
      <trkpt lat="48.539040" lon="16.887860">
        <ele>207.147174</ele>
        <time>2020-07-01T07:25:27.977Z</time>
      </trkpt>
      <trkpt lat="48.539067" lon="16.888030">
        <ele>207.095676</ele>
        <time>2020-07-01T07:25:29.995Z</time>
      </trkpt>
      <trkpt lat="48.539146" lon="16.888125">
        <ele>207.004990</ele>
        <time>2020-07-01T07:25:31.977Z</time>
      </trkpt>
      <trkpt lat="48.539279" lon="16.888181">
        <ele>206.880996</ele>
        <time>2020-07-01T07:25:34.982Z</time>
      </trkpt>
      <trkpt lat="48.539385" lon="16.888210">
        <ele>206.784254</ele>
        <time>2020-07-01T07:25:36.982Z</time>
      </trkpt>
      <trkpt lat="48.539494" lon="16.888229">
        <ele>206.685718</ele>
        <time>2020-07-01T07:25:38.994Z</time>
      </trkpt>
      <trkpt lat="48.539605" lon="16.888245">
        <ele>206.585582</ele>
        <time>2020-07-01T07:25:41.013Z</time>
      </trkpt>
      <trkpt lat="48.539716" lon="16.888212">
        <ele>206.483987</ele>
        <time>2020-07-01T07:25:42.978Z</time>
      </trkpt>
      <trkpt lat="48.539831" lon="16.888193">
        <ele>206.380096</ele>
        <time>2020-07-01T07:25:45.013Z</time>
      </trkpt>
      <trkpt lat="48.539941" lon="16.888176">
        <ele>206.280796</ele>
        <time>2020-07-01T07:25:47.002Z</time>
      </trkpt>
      <trkpt lat="48.540051" lon="16.888171">
        <ele>206.181966</ele>
        <time>2020-07-01T07:25:49.013Z</time>
      </trkpt>
      <trkpt lat="48.540171" lon="16.888182">
        <ele>206.074003</ele>
        <time>2020-07-01T07:25:50.994Z</time>
      </trkpt>
      <trkpt lat="48.540284" lon="16.888203">
        <ele>205.971759</ele>
        <time>2020-07-01T07:25:53.039Z</time>
      </trkpt>
      <trkpt lat="48.540391" lon="16.888224">
        <ele>205.874861</ele>
        <time>2020-07-01T07:25:54.994Z</time>
      </trkpt>
      <trkpt lat="48.540505" lon="16.888235">
        <ele>205.772275</ele>
        <time>2020-07-01T07:25:57.001Z</time>
      </trkpt>
      <trkpt lat="48.540619" lon="16.888247">
        <ele>205.669650</ele>
        <time>2020-07-01T07:25:58.992Z</time>
      </trkpt>
      <trkpt lat="48.540734" lon="16.888257">
        <ele>205.566205</ele>
        <time>2020-07-01T07:26:01.013Z</time>
      </trkpt>
      <trkpt lat="48.540844" lon="16.888257">
        <ele>205.482220</ele>
        <time>2020-07-01T07:26:03.008Z</time>
      </trkpt>
      <trkpt lat="48.540952" lon="16.888236">
        <ele>205.442842</ele>
        <time>2020-07-01T07:26:05.005Z</time>
      </trkpt>
      <trkpt lat="48.541055" lon="16.888223">
        <ele>205.405465</ele>
        <time>2020-07-01T07:26:07.007Z</time>
      </trkpt>
      <trkpt lat="48.541165" lon="16.888224">
        <ele>205.365685</ele>
        <time>2020-07-01T07:26:09.018Z</time>
      </trkpt>
      <trkpt lat="48.541275" lon="16.888245">
        <ele>205.325589</ele>
        <time>2020-07-01T07:26:10.988Z</time>
      </trkpt>
      <trkpt lat="48.541387" lon="16.888258">
        <ele>205.284968</ele>
        <time>2020-07-01T07:26:13.016Z</time>
      </trkpt>
      <trkpt lat="48.541500" lon="16.888265">
        <ele>205.244069</ele>
        <time>2020-07-01T07:26:15.006Z</time>
      </trkpt>
      <trkpt lat="48.541613" lon="16.888271">
        <ele>205.203180</ele>
        <time>2020-07-01T07:26:16.982Z</time>
      </trkpt>
      <trkpt lat="48.541727" lon="16.888277">
        <ele>205.161929</ele>
        <time>2020-07-01T07:26:18.999Z</time>
      </trkpt>
      <trkpt lat="48.541845" lon="16.888284">
        <ele>205.119224</ele>
        <time>2020-07-01T07:26:20.992Z</time>
      </trkpt>
      <trkpt lat="48.541963" lon="16.888296">
        <ele>205.076456</ele>
        <time>2020-07-01T07:26:22.987Z</time>
      </trkpt>
      <trkpt lat="48.542080" lon="16.888309">
        <ele>205.034031</ele>
        <time>2020-07-01T07:26:24.979Z</time>
      </trkpt>
      <trkpt lat="48.542200" lon="16.888322">
        <ele>204.990524</ele>
        <time>2020-07-01T07:26:26.991Z</time>
      </trkpt>
      <trkpt lat="48.542316" lon="16.888331">
        <ele>204.948520</ele>
        <time>2020-07-01T07:26:28.978Z</time>
      </trkpt>
      <trkpt lat="48.542440" lon="16.888342">
        <ele>204.903601</ele>
        <time>2020-07-01T07:26:30.984Z</time>
      </trkpt>
      <trkpt lat="48.542566" lon="16.888349">
        <ele>204.858005</ele>
        <time>2020-07-01T07:26:32.981Z</time>
      </trkpt>
      <trkpt lat="48.542687" lon="16.888346">
        <ele>204.801933</ele>
        <time>2020-07-01T07:26:34.968Z</time>
      </trkpt>
      <trkpt lat="48.542807" lon="16.888347">
        <ele>204.739124</ele>
        <time>2020-07-01T07:26:36.973Z</time>
      </trkpt>
      <trkpt lat="48.542925" lon="16.888353">
        <ele>204.677328</ele>
        <time>2020-07-01T07:26:38.980Z</time>
      </trkpt>
      <trkpt lat="48.543046" lon="16.888377">
        <ele>204.613454</ele>
        <time>2020-07-01T07:26:40.990Z</time>
      </trkpt>
      <trkpt lat="48.543166" lon="16.888405">
        <ele>204.549901</ele>
        <time>2020-07-01T07:26:42.998Z</time>
      </trkpt>
      <trkpt lat="48.543279" lon="16.888430">
        <ele>204.490126</ele>
        <time>2020-07-01T07:26:44.994Z</time>
      </trkpt>
      <trkpt lat="48.543389" lon="16.888447">
        <ele>204.432252</ele>
        <time>2020-07-01T07:26:47.013Z</time>
      </trkpt>
      <trkpt lat="48.543504" lon="16.888442">
        <ele>204.372036</ele>
        <time>2020-07-01T07:26:48.981Z</time>
      </trkpt>
      <trkpt lat="48.543621" lon="16.888444">
        <ele>204.310795</ele>
        <time>2020-07-01T07:26:51.006Z</time>
      </trkpt>
      <trkpt lat="48.543744" lon="16.888448">
        <ele>204.246402</ele>
        <time>2020-07-01T07:26:52.991Z</time>
      </trkpt>
      <trkpt lat="48.543873" lon="16.888449">
        <ele>204.178883</ele>
        <time>2020-07-01T07:26:54.995Z</time>
      </trkpt>
      <trkpt lat="48.544008" lon="16.888454">
        <ele>204.108204</ele>
        <time>2020-07-01T07:26:56.971Z</time>
      </trkpt>
      <trkpt lat="48.544146" lon="16.888469">
        <ele>204.035788</ele>
        <time>2020-07-01T07:26:58.985Z</time>
      </trkpt>
      <trkpt lat="48.544286" lon="16.888488">
        <ele>203.962217</ele>
        <time>2020-07-01T07:27:00.998Z</time>
      </trkpt>
      <trkpt lat="48.544434" lon="16.888490">
        <ele>203.879527</ele>
        <time>2020-07-01T07:27:03.006Z</time>
      </trkpt>
      <trkpt lat="48.544581" lon="16.888494">
        <ele>203.776806</ele>
        <time>2020-07-01T07:27:04.996Z</time>
      </trkpt>
      <trkpt lat="48.544725" lon="16.888501">
        <ele>203.676146</ele>
        <time>2020-07-01T07:27:07.008Z</time>
      </trkpt>
      <trkpt lat="48.544862" lon="16.888508">
        <ele>203.580374</ele>
        <time>2020-07-01T07:27:09.001Z</time>
      </trkpt>
      <trkpt lat="48.544994" lon="16.888512">
        <ele>203.488131</ele>
        <time>2020-07-01T07:27:11.004Z</time>
      </trkpt>
      <trkpt lat="48.545123" lon="16.888512">
        <ele>203.398003</ele>
        <time>2020-07-01T07:27:13.014Z</time>
      </trkpt>
      <trkpt lat="48.545255" lon="16.888519">
        <ele>203.305722</ele>
        <time>2020-07-01T07:27:15.010Z</time>
      </trkpt>
      <trkpt lat="48.545389" lon="16.888532">
        <ele>203.211908</ele>
        <time>2020-07-01T07:27:16.991Z</time>
      </trkpt>
      <trkpt lat="48.545525" lon="16.888555">
        <ele>203.116295</ele>
        <time>2020-07-01T07:27:19.009Z</time>
      </trkpt>
      <trkpt lat="48.545660" lon="16.888562">
        <ele>203.021920</ele>
        <time>2020-07-01T07:27:20.979Z</time>
      </trkpt>
      <trkpt lat="48.545795" lon="16.888571">
        <ele>202.927508</ele>
        <time>2020-07-01T07:27:22.993Z</time>
      </trkpt>
      <trkpt lat="48.545932" lon="16.888578">
        <ele>202.831736</ele>
        <time>2020-07-01T07:27:24.992Z</time>
      </trkpt>
      <trkpt lat="48.546067" lon="16.888580">
        <ele>202.737411</ele>
        <time>2020-07-01T07:27:26.992Z</time>
      </trkpt>
      <trkpt lat="48.546201" lon="16.888579">
        <ele>202.643789</ele>
        <time>2020-07-01T07:27:28.998Z</time>
      </trkpt>
      <trkpt lat="48.546336" lon="16.888585">
        <ele>202.566034</ele>
        <time>2020-07-01T07:27:31.007Z</time>
      </trkpt>
      <trkpt lat="48.546472" lon="16.888594">
        <ele>202.487678</ele>
        <time>2020-07-01T07:27:32.979Z</time>
      </trkpt>
      <trkpt lat="48.546607" lon="16.888598">
        <ele>202.409957</ele>
        <time>2020-07-01T07:27:34.996Z</time>
      </trkpt>
      <trkpt lat="48.546743" lon="16.888611">
        <ele>202.331519</ele>
        <time>2020-07-01T07:27:36.980Z</time>
      </trkpt>
      <trkpt lat="48.546883" lon="16.888627">
        <ele>202.250705</ele>
        <time>2020-07-01T07:27:39.011Z</time>
      </trkpt>
      <trkpt lat="48.547027" lon="16.888644">
        <ele>202.167566</ele>
        <time>2020-07-01T07:27:40.995Z</time>
      </trkpt>
      <trkpt lat="48.547173" lon="16.888644">
        <ele>202.083529</ele>
        <time>2020-07-01T07:27:42.973Z</time>
      </trkpt>
      <trkpt lat="48.547317" lon="16.888639">
        <ele>202.000621</ele>
        <time>2020-07-01T07:27:44.994Z</time>
      </trkpt>
      <trkpt lat="48.547456" lon="16.888639">
        <ele>201.920613</ele>
        <time>2020-07-01T07:27:46.987Z</time>
      </trkpt>
      <trkpt lat="48.547591" lon="16.888683">
        <ele>201.841119</ele>
        <time>2020-07-01T07:27:48.990Z</time>
      </trkpt>
      <trkpt lat="48.547704" lon="16.888799">
        <ele>201.762479</ele>
        <time>2020-07-01T07:27:50.983Z</time>
      </trkpt>
      <trkpt lat="48.547803" lon="16.888934">
        <ele>201.685711</ele>
        <time>2020-07-01T07:27:52.969Z</time>
      </trkpt>
      <trkpt lat="48.547880" lon="16.889095">
        <ele>201.610028</ele>
        <time>2020-07-01T07:27:54.985Z</time>
      </trkpt>
      <trkpt lat="48.547925" lon="16.889271">
        <ele>201.702053</ele>
        <time>2020-07-01T07:27:56.973Z</time>
      </trkpt>
      <trkpt lat="48.547950" lon="16.889456">
        <ele>201.797933</ele>
        <time>2020-07-01T07:27:58.997Z</time>
      </trkpt>
      <trkpt lat="48.547982" lon="16.889633">
        <ele>201.891105</ele>
        <time>2020-07-01T07:28:00.969Z</time>
      </trkpt>
      <trkpt lat="48.548014" lon="16.889799">
        <ele>201.978900</ele>
        <time>2020-07-01T07:28:02.988Z</time>
      </trkpt>
      <trkpt lat="48.548044" lon="16.889958">
        <ele>202.062855</ele>
        <time>2020-07-01T07:28:05.001Z</time>
      </trkpt>
      <trkpt lat="48.548076" lon="16.890111">
        <ele>202.144333</ele>
        <time>2020-07-01T07:28:06.997Z</time>
      </trkpt>
      <trkpt lat="48.548118" lon="16.890259">
        <ele>202.226101</ele>
        <time>2020-07-01T07:28:08.989Z</time>
      </trkpt>
      <trkpt lat="48.548166" lon="16.890386">
        <ele>202.300362</ele>
        <time>2020-07-01T07:28:10.986Z</time>
      </trkpt>
      <trkpt lat="48.548216" lon="16.890528">
        <ele>202.382034</ele>
        <time>2020-07-01T07:28:13.002Z</time>
      </trkpt>
      <trkpt lat="48.548254" lon="16.890666">
        <ele>202.457931</ele>
        <time>2020-07-01T07:28:14.970Z</time>
      </trkpt>
      <trkpt lat="48.548278" lon="16.890805">
        <ele>202.530875</ele>
        <time>2020-07-01T07:28:16.987Z</time>
      </trkpt>
      <trkpt lat="48.548307" lon="16.890997">
        <ele>202.630877</ele>
        <time>2020-07-01T07:28:19.981Z</time>
      </trkpt>
      <trkpt lat="48.548318" lon="16.891174">
        <ele>202.721152</ele>
        <time>2020-07-01T07:28:23.012Z</time>
      </trkpt>
      <trkpt lat="48.548321" lon="16.891338">
        <ele>202.804462</ele>
        <time>2020-07-01T07:28:26.000Z</time>
      </trkpt>
      <trkpt lat="48.548339" lon="16.891486">
        <ele>202.880873</ele>
        <time>2020-07-01T07:28:28.978Z</time>
      </trkpt>
      <trkpt lat="48.548396" lon="16.891639">
        <ele>202.970023</ele>
        <time>2020-07-01T07:28:32.976Z</time>
      </trkpt>
      <trkpt lat="48.548507" lon="16.891655">
        <ele>203.129715</ele>
        <time>2020-07-01T07:28:36.971Z</time>
      </trkpt>
      <trkpt lat="48.548598" lon="16.891552">
        <ele>203.312829</ele>
        <time>2020-07-01T07:28:39.969Z</time>
      </trkpt>
      <trkpt lat="48.548692" lon="16.891441">
        <ele>203.504963</ele>
        <time>2020-07-01T07:28:43.004Z</time>
      </trkpt>
      <trkpt lat="48.548801" lon="16.891329">
        <ele>203.717249</ele>
        <time>2020-07-01T07:28:45.979Z</time>
      </trkpt>
      <trkpt lat="48.548876" lon="16.891251">
        <ele>203.863881</ele>
        <time>2020-07-01T07:28:47.981Z</time>
      </trkpt>
      <trkpt lat="48.548952" lon="16.891168">
        <ele>204.014902</ele>
        <time>2020-07-01T07:28:49.986Z</time>
      </trkpt>
      <trkpt lat="48.549031" lon="16.891078">
        <ele>204.174242</ele>
        <time>2020-07-01T07:28:51.998Z</time>
      </trkpt>
      <trkpt lat="48.549110" lon="16.890991">
        <ele>204.331676</ele>
        <time>2020-07-01T07:28:53.984Z</time>
      </trkpt>
      <trkpt lat="48.549194" lon="16.890902">
        <ele>204.496901</ele>
        <time>2020-07-01T07:28:55.977Z</time>
      </trkpt>
      <trkpt lat="48.549278" lon="16.890816">
        <ele>204.660311</ele>
        <time>2020-07-01T07:28:57.986Z</time>
      </trkpt>
      <trkpt lat="48.549362" lon="16.890728">
        <ele>204.824925</ele>
        <time>2020-07-01T07:29:00.008Z</time>
      </trkpt>
      <trkpt lat="48.549445" lon="16.890633">
        <ele>204.992617</ele>
        <time>2020-07-01T07:29:02.004Z</time>
      </trkpt>
      <trkpt lat="48.549530" lon="16.890538">
        <ele>205.162888</ele>
        <time>2020-07-01T07:29:03.988Z</time>
      </trkpt>
      <trkpt lat="48.549616" lon="16.890442">
        <ele>205.335086</ele>
        <time>2020-07-01T07:29:05.970Z</time>
      </trkpt>
      <trkpt lat="48.549705" lon="16.890348">
        <ele>205.509963</ele>
        <time>2020-07-01T07:29:07.989Z</time>
      </trkpt>
      <trkpt lat="48.549796" lon="16.890254">
        <ele>205.687489</ele>
        <time>2020-07-01T07:29:10.006Z</time>
      </trkpt>
      <trkpt lat="48.549884" lon="16.890158">
        <ele>205.862288</ele>
        <time>2020-07-01T07:29:11.976Z</time>
      </trkpt>
      <trkpt lat="48.549973" lon="16.890061">
        <ele>205.965737</ele>
        <time>2020-07-01T07:29:13.987Z</time>
      </trkpt>
      <trkpt lat="48.550061" lon="16.889959">
        <ele>206.059620</ele>
        <time>2020-07-01T07:29:15.991Z</time>
      </trkpt>
      <trkpt lat="48.550145" lon="16.889856">
        <ele>206.151192</ele>
        <time>2020-07-01T07:29:17.977Z</time>
      </trkpt>
      <trkpt lat="48.550236" lon="16.889760">
        <ele>206.245138</ele>
        <time>2020-07-01T07:29:19.971Z</time>
      </trkpt>
      <trkpt lat="48.550331" lon="16.889664">
        <ele>206.341879</ele>
        <time>2020-07-01T07:29:21.970Z</time>
      </trkpt>
      <trkpt lat="48.550426" lon="16.889570">
        <ele>206.438001</ele>
        <time>2020-07-01T07:29:23.984Z</time>
      </trkpt>
      <trkpt lat="48.550523" lon="16.889480">
        <ele>206.534352</ele>
        <time>2020-07-01T07:29:26.000Z</time>
      </trkpt>
      <trkpt lat="48.550616" lon="16.889380">
        <ele>206.630972</ele>
        <time>2020-07-01T07:29:28.005Z</time>
      </trkpt>
      <trkpt lat="48.550710" lon="16.889278">
        <ele>206.728932</ele>
        <time>2020-07-01T07:29:30.001Z</time>
      </trkpt>
      <trkpt lat="48.550805" lon="16.889175">
        <ele>206.827907</ele>
        <time>2020-07-01T07:29:32.007Z</time>
      </trkpt>
      <trkpt lat="48.550899" lon="16.889069">
        <ele>206.927192</ele>
        <time>2020-07-01T07:29:33.986Z</time>
      </trkpt>
      <trkpt lat="48.550994" lon="16.888964">
        <ele>207.026824</ele>
        <time>2020-07-01T07:29:35.989Z</time>
      </trkpt>
      <trkpt lat="48.551087" lon="16.888857">
        <ele>207.125770</ele>
        <time>2020-07-01T07:29:37.978Z</time>
      </trkpt>
      <trkpt lat="48.551181" lon="16.888753">
        <ele>207.224388</ele>
        <time>2020-07-01T07:29:39.989Z</time>
      </trkpt>
      <trkpt lat="48.551277" lon="16.888652">
        <ele>207.323406</ele>
        <time>2020-07-01T07:29:41.997Z</time>
      </trkpt>
      <trkpt lat="48.551370" lon="16.888553">
        <ele>207.417214</ele>
        <time>2020-07-01T07:29:43.976Z</time>
      </trkpt>
      <trkpt lat="48.551460" lon="16.888454">
        <ele>207.493074</ele>
        <time>2020-07-01T07:29:46.007Z</time>
      </trkpt>
      <trkpt lat="48.551545" lon="16.888343">
        <ele>207.569632</ele>
        <time>2020-07-01T07:29:48.007Z</time>
      </trkpt>
      <trkpt lat="48.551626" lon="16.888222">
        <ele>207.647251</ele>
        <time>2020-07-01T07:29:49.988Z</time>
      </trkpt>
      <trkpt lat="48.551703" lon="16.888108">
        <ele>207.720714</ele>
        <time>2020-07-01T07:29:51.974Z</time>
      </trkpt>
      <trkpt lat="48.551772" lon="16.887985">
        <ele>207.793435</ele>
        <time>2020-07-01T07:29:53.981Z</time>
      </trkpt>
      <trkpt lat="48.551836" lon="16.887864">
        <ele>207.863294</ele>
        <time>2020-07-01T07:29:55.991Z</time>
      </trkpt>
      <trkpt lat="48.551900" lon="16.887743">
        <ele>207.933153</ele>
        <time>2020-07-01T07:29:57.979Z</time>
      </trkpt>
      <trkpt lat="48.551969" lon="16.887619">
        <ele>208.006219</ele>
        <time>2020-07-01T07:30:00.003Z</time>
      </trkpt>
      <trkpt lat="48.552037" lon="16.887493">
        <ele>208.079545</ele>
        <time>2020-07-01T07:30:01.993Z</time>
      </trkpt>
      <trkpt lat="48.552103" lon="16.887373">
        <ele>208.149915</ele>
        <time>2020-07-01T07:30:04.003Z</time>
      </trkpt>
      <trkpt lat="48.552170" lon="16.887252">
        <ele>208.221068</ele>
        <time>2020-07-01T07:30:05.982Z</time>
      </trkpt>
      <trkpt lat="48.552235" lon="16.887128">
        <ele>208.292410</ele>
        <time>2020-07-01T07:30:07.967Z</time>
      </trkpt>
      <trkpt lat="48.552300" lon="16.887001">
        <ele>208.364818</ele>
        <time>2020-07-01T07:30:09.996Z</time>
      </trkpt>
      <trkpt lat="48.552363" lon="16.886876">
        <ele>208.435680</ele>
        <time>2020-07-01T07:30:11.989Z</time>
      </trkpt>
      <trkpt lat="48.552426" lon="16.886751">
        <ele>208.506542</ele>
        <time>2020-07-01T07:30:13.998Z</time>
      </trkpt>
      <trkpt lat="48.552490" lon="16.886620">
        <ele>208.579979</ele>
        <time>2020-07-01T07:30:15.989Z</time>
      </trkpt>
      <trkpt lat="48.552559" lon="16.886499">
        <ele>208.645381</ele>
        <time>2020-07-01T07:30:17.976Z</time>
      </trkpt>
      <trkpt lat="48.552626" lon="16.886374">
        <ele>208.693247</ele>
        <time>2020-07-01T07:30:19.976Z</time>
      </trkpt>
      <trkpt lat="48.552692" lon="16.886243">
        <ele>208.742239</ele>
        <time>2020-07-01T07:30:21.977Z</time>
      </trkpt>
      <trkpt lat="48.552755" lon="16.886106">
        <ele>208.791882</ele>
        <time>2020-07-01T07:30:24.007Z</time>
      </trkpt>
      <trkpt lat="48.552819" lon="16.885977">
        <ele>208.839857</ele>
        <time>2020-07-01T07:30:25.971Z</time>
      </trkpt>
      <trkpt lat="48.552886" lon="16.885846">
        <ele>208.889123</ele>
        <time>2020-07-01T07:30:27.998Z</time>
      </trkpt>
      <trkpt lat="48.552955" lon="16.885725">
        <ele>208.936651</ele>
        <time>2020-07-01T07:30:29.968Z</time>
      </trkpt>
      <trkpt lat="48.553022" lon="16.885602">
        <ele>208.984055</ele>
        <time>2020-07-01T07:30:31.994Z</time>
      </trkpt>
      <trkpt lat="48.553087" lon="16.885484">
        <ele>209.029740</ele>
        <time>2020-07-01T07:30:33.974Z</time>
      </trkpt>
      <trkpt lat="48.553149" lon="16.885373">
        <ele>209.072961</ele>
        <time>2020-07-01T07:30:35.994Z</time>
      </trkpt>
      <trkpt lat="48.553210" lon="16.885265">
        <ele>209.115211</ele>
        <time>2020-07-01T07:30:37.966Z</time>
      </trkpt>
      <trkpt lat="48.553269" lon="16.885157">
        <ele>209.156883</ele>
        <time>2020-07-01T07:30:39.984Z</time>
      </trkpt>
      <trkpt lat="48.553325" lon="16.885050">
        <ele>209.197476</ele>
        <time>2020-07-01T07:30:41.975Z</time>
      </trkpt>
      <trkpt lat="48.553407" lon="16.884902">
        <ele>209.254912</ele>
        <time>2020-07-01T07:30:44.996Z</time>
      </trkpt>
      <trkpt lat="48.553477" lon="16.884757">
        <ele>209.308319</ele>
        <time>2020-07-01T07:30:47.979Z</time>
      </trkpt>
      <trkpt lat="48.553543" lon="16.884633">
        <ele>209.355670</ele>
        <time>2020-07-01T07:30:50.966Z</time>
      </trkpt>
      <trkpt lat="48.553595" lon="16.884513">
        <ele>209.398352</ele>
        <time>2020-07-01T07:30:53.984Z</time>
      </trkpt>
      <trkpt lat="48.553669" lon="16.884384">
        <ele>209.458560</ele>
        <time>2020-07-01T07:30:57.994Z</time>
      </trkpt>
      <trkpt lat="48.553740" lon="16.884255">
        <ele>209.567241</ele>
        <time>2020-07-01T07:31:01.993Z</time>
      </trkpt>
      <trkpt lat="48.553815" lon="16.884124">
        <ele>209.679443</ele>
        <time>2020-07-01T07:31:06.003Z</time>
      </trkpt>
      <trkpt lat="48.553884" lon="16.883995">
        <ele>209.786883</ele>
        <time>2020-07-01T07:31:09.988Z</time>
      </trkpt>
      <trkpt lat="48.553959" lon="16.883867">
        <ele>209.897621</ele>
        <time>2020-07-01T07:31:14.021Z</time>
      </trkpt>
      <trkpt lat="48.554018" lon="16.883757">
        <ele>209.989337</ele>
        <time>2020-07-01T07:31:16.993Z</time>
      </trkpt>
      <trkpt lat="48.554094" lon="16.883619">
        <ele>210.105629</ele>
        <time>2020-07-01T07:31:21.011Z</time>
      </trkpt>
      <trkpt lat="48.554156" lon="16.883480">
        <ele>210.214209</ele>
        <time>2020-07-01T07:31:23.991Z</time>
      </trkpt>
      <trkpt lat="48.554232" lon="16.883326">
        <ele>210.338645</ele>
        <time>2020-07-01T07:31:26.987Z</time>
      </trkpt>
      <trkpt lat="48.554306" lon="16.883173">
        <ele>210.461398</ele>
        <time>2020-07-01T07:31:29.966Z</time>
      </trkpt>
      <trkpt lat="48.554364" lon="16.883033">
        <ele>210.568388</ele>
        <time>2020-07-01T07:31:32.984Z</time>
      </trkpt>
      <trkpt lat="48.554417" lon="16.882915">
        <ele>210.660764</ele>
        <time>2020-07-01T07:31:35.969Z</time>
      </trkpt>
      <trkpt lat="48.554484" lon="16.882774">
        <ele>210.773202</ele>
        <time>2020-07-01T07:31:39.991Z</time>
      </trkpt>
      <trkpt lat="48.554547" lon="16.882648">
        <ele>210.875494</ele>
        <time>2020-07-01T07:31:43.962Z</time>
      </trkpt>
      <trkpt lat="48.554629" lon="16.882526">
        <ele>210.988126</ele>
        <time>2020-07-01T07:31:47.968Z</time>
      </trkpt>
      <trkpt lat="48.554716" lon="16.882399">
        <ele>211.106523</ele>
        <time>2020-07-01T07:31:51.978Z</time>
      </trkpt>
      <trkpt lat="48.554785" lon="16.882286">
        <ele>211.204764</ele>
        <time>2020-07-01T07:31:54.992Z</time>
      </trkpt>
      <trkpt lat="48.554861" lon="16.882165">
        <ele>211.281631</ele>
        <time>2020-07-01T07:31:58.000Z</time>
      </trkpt>
      <trkpt lat="48.554945" lon="16.882046">
        <ele>211.361799</ele>
        <time>2020-07-01T07:32:00.988Z</time>
      </trkpt>
      <trkpt lat="48.555031" lon="16.881919">
        <ele>211.445523</ele>
        <time>2020-07-01T07:32:03.961Z</time>
      </trkpt>
      <trkpt lat="48.555119" lon="16.881780">
        <ele>211.534157</ele>
        <time>2020-07-01T07:32:06.990Z</time>
      </trkpt>
      <trkpt lat="48.555182" lon="16.881684">
        <ele>211.596453</ele>
        <time>2020-07-01T07:32:08.987Z</time>
      </trkpt>
      <trkpt lat="48.555280" lon="16.881541">
        <ele>211.691306</ele>
        <time>2020-07-01T07:32:11.979Z</time>
      </trkpt>
      <trkpt lat="48.555341" lon="16.881428">
        <ele>211.758499</ele>
        <time>2020-07-01T07:32:13.978Z</time>
      </trkpt>
      <trkpt lat="48.555403" lon="16.881313">
        <ele>211.826846</ele>
        <time>2020-07-01T07:32:16.014Z</time>
      </trkpt>
      <trkpt lat="48.555476" lon="16.881209">
        <ele>211.896700</ele>
        <time>2020-07-01T07:32:17.994Z</time>
      </trkpt>
      <trkpt lat="48.555551" lon="16.881106">
        <ele>211.967263</ele>
        <time>2020-07-01T07:32:19.976Z</time>
      </trkpt>
      <trkpt lat="48.555622" lon="16.880992">
        <ele>212.039394</ele>
        <time>2020-07-01T07:32:21.973Z</time>
      </trkpt>
      <trkpt lat="48.555698" lon="16.880872">
        <ele>212.115926</ele>
        <time>2020-07-01T07:32:23.983Z</time>
      </trkpt>
      <trkpt lat="48.555771" lon="16.880753">
        <ele>212.190692</ele>
        <time>2020-07-01T07:32:25.995Z</time>
      </trkpt>
      <trkpt lat="48.555844" lon="16.880636">
        <ele>212.264783</ele>
        <time>2020-07-01T07:32:27.972Z</time>
      </trkpt>
      <trkpt lat="48.555918" lon="16.880519">
        <ele>212.339354</ele>
        <time>2020-07-01T07:32:29.999Z</time>
      </trkpt>
      <trkpt lat="48.555995" lon="16.880402">
        <ele>212.415383</ele>
        <time>2020-07-01T07:32:31.973Z</time>
      </trkpt>
      <trkpt lat="48.556070" lon="16.880292">
        <ele>212.463010</ele>
        <time>2020-07-01T07:32:33.971Z</time>
      </trkpt>
      <trkpt lat="48.556144" lon="16.880187">
        <ele>212.482199</ele>
        <time>2020-07-01T07:32:35.981Z</time>
      </trkpt>
      <trkpt lat="48.556219" lon="16.880081">
        <ele>212.501612</ele>
        <time>2020-07-01T07:32:37.975Z</time>
      </trkpt>
      <trkpt lat="48.556295" lon="16.879970">
        <ele>212.521592</ele>
        <time>2020-07-01T07:32:40.004Z</time>
      </trkpt>
      <trkpt lat="48.556368" lon="16.879854">
        <ele>212.541618</ele>
        <time>2020-07-01T07:32:42.001Z</time>
      </trkpt>
      <trkpt lat="48.556441" lon="16.879738">
        <ele>212.561643</ele>
        <time>2020-07-01T07:32:43.976Z</time>
      </trkpt>
      <trkpt lat="48.556512" lon="16.879625">
        <ele>212.581136</ele>
        <time>2020-07-01T07:32:46.013Z</time>
      </trkpt>
      <trkpt lat="48.556580" lon="16.879514">
        <ele>212.600059</ele>
        <time>2020-07-01T07:32:48.004Z</time>
      </trkpt>
      <trkpt lat="48.556648" lon="16.879408">
        <ele>212.618527</ele>
        <time>2020-07-01T07:32:49.967Z</time>
      </trkpt>
      <trkpt lat="48.556718" lon="16.879301">
        <ele>212.637349</ele>
        <time>2020-07-01T07:32:51.965Z</time>
      </trkpt>
      <trkpt lat="48.556784" lon="16.879191">
        <ele>212.655924</ele>
        <time>2020-07-01T07:32:53.974Z</time>
      </trkpt>
      <trkpt lat="48.556852" lon="16.879082">
        <ele>212.674664</ele>
        <time>2020-07-01T07:32:55.999Z</time>
      </trkpt>
      <trkpt lat="48.556920" lon="16.878969">
        <ele>212.693771</ele>
        <time>2020-07-01T07:32:57.964Z</time>
      </trkpt>
      <trkpt lat="48.556997" lon="16.878864">
        <ele>212.713377</ele>
        <time>2020-07-01T07:32:59.990Z</time>
      </trkpt>
      <trkpt lat="48.557074" lon="16.878763">
        <ele>212.732651</ele>
        <time>2020-07-01T07:33:02.015Z</time>
      </trkpt>
      <trkpt lat="48.557149" lon="16.878662">
        <ele>212.751642</ele>
        <time>2020-07-01T07:33:03.978Z</time>
      </trkpt>
      <trkpt lat="48.557220" lon="16.878555">
        <ele>212.770597</ele>
        <time>2020-07-01T07:33:05.959Z</time>
      </trkpt>
      <trkpt lat="48.557290" lon="16.878447">
        <ele>212.789508</ele>
        <time>2020-07-01T07:33:07.974Z</time>
      </trkpt>
      <trkpt lat="48.557359" lon="16.878336">
        <ele>212.819355</ele>
        <time>2020-07-01T07:33:09.975Z</time>
      </trkpt>
      <trkpt lat="48.557431" lon="16.878220">
        <ele>212.853627</ele>
        <time>2020-07-01T07:33:11.966Z</time>
      </trkpt>
      <trkpt lat="48.557508" lon="16.878102">
        <ele>212.889338</ele>
        <time>2020-07-01T07:33:13.961Z</time>
      </trkpt>
      <trkpt lat="48.557581" lon="16.877993">
        <ele>212.922756</ele>
        <time>2020-07-01T07:33:15.973Z</time>
      </trkpt>
      <trkpt lat="48.557657" lon="16.877884">
        <ele>212.956876</ele>
        <time>2020-07-01T07:33:17.987Z</time>
      </trkpt>
      <trkpt lat="48.557728" lon="16.877759">
        <ele>212.992374</ele>
        <time>2020-07-01T07:33:20.000Z</time>
      </trkpt>
      <trkpt lat="48.557798" lon="16.877642">
        <ele>213.026363</ele>
        <time>2020-07-01T07:33:21.961Z</time>
      </trkpt>
      <trkpt lat="48.557865" lon="16.877515">
        <ele>213.061363</ele>
        <time>2020-07-01T07:33:23.977Z</time>
      </trkpt>
      <trkpt lat="48.557942" lon="16.877398">
        <ele>213.096921</ele>
        <time>2020-07-01T07:33:25.958Z</time>
      </trkpt>
      <trkpt lat="48.558020" lon="16.877277">
        <ele>213.133321</ele>
        <time>2020-07-01T07:33:27.961Z</time>
      </trkpt>
      <trkpt lat="48.558101" lon="16.877154">
        <ele>213.170714</ele>
        <time>2020-07-01T07:33:29.989Z</time>
      </trkpt>
      <trkpt lat="48.558183" lon="16.877025">
        <ele>213.209259</ele>
        <time>2020-07-01T07:33:31.962Z</time>
      </trkpt>
      <trkpt lat="48.558265" lon="16.876894">
        <ele>213.248116</ele>
        <time>2020-07-01T07:33:33.958Z</time>
      </trkpt>
      <trkpt lat="48.558346" lon="16.876753">
        <ele>213.288352</ele>
        <time>2020-07-01T07:33:36.013Z</time>
      </trkpt>
      <trkpt lat="48.558427" lon="16.876605">
        <ele>213.329739</ele>
        <time>2020-07-01T07:33:37.968Z</time>
      </trkpt>
      <trkpt lat="48.558510" lon="16.876447">
        <ele>213.373210</ele>
        <time>2020-07-01T07:33:39.989Z</time>
      </trkpt>
      <trkpt lat="48.558588" lon="16.876275">
        <ele>213.365215</ele>
        <time>2020-07-01T07:33:41.963Z</time>
      </trkpt>
      <trkpt lat="48.558656" lon="16.876098">
        <ele>213.349271</ele>
        <time>2020-07-01T07:33:43.967Z</time>
      </trkpt>
      <trkpt lat="48.558740" lon="16.875936">
        <ele>213.333237</ele>
        <time>2020-07-01T07:33:45.976Z</time>
      </trkpt>
      <trkpt lat="48.558843" lon="16.875809">
        <ele>213.317587</ele>
        <time>2020-07-01T07:33:47.969Z</time>
      </trkpt>
      <trkpt lat="48.558930" lon="16.875673">
        <ele>213.302851</ele>
        <time>2020-07-01T07:33:49.961Z</time>
      </trkpt>
      <trkpt lat="48.559000" lon="16.875512">
        <ele>213.287843</ele>
        <time>2020-07-01T07:33:52.001Z</time>
      </trkpt>
      <trkpt lat="48.559066" lon="16.875344">
        <ele>213.272622</ele>
        <time>2020-07-01T07:33:53.967Z</time>
      </trkpt>
      <trkpt lat="48.559129" lon="16.875174">
        <ele>213.257443</ele>
        <time>2020-07-01T07:33:55.994Z</time>
      </trkpt>
      <trkpt lat="48.559198" lon="16.875006">
        <ele>213.242039</ele>
        <time>2020-07-01T07:33:57.998Z</time>
      </trkpt>
      <trkpt lat="48.559271" lon="16.874823">
        <ele>213.225392</ele>
        <time>2020-07-01T07:33:59.977Z</time>
      </trkpt>
      <trkpt lat="48.559368" lon="16.874635">
        <ele>213.206820</ele>
        <time>2020-07-01T07:34:01.992Z</time>
      </trkpt>
      <trkpt lat="48.559480" lon="16.874438">
        <ele>213.186587</ele>
        <time>2020-07-01T07:34:03.969Z</time>
      </trkpt>
      <trkpt lat="48.559585" lon="16.874222">
        <ele>213.168245</ele>
        <time>2020-07-01T07:34:05.979Z</time>
      </trkpt>
      <trkpt lat="48.559634" lon="16.874104">
        <ele>213.172407</ele>
        <time>2020-07-01T07:34:07.002Z</time>
      </trkpt>
      <trkpt lat="48.559680" lon="16.873981">
        <ele>213.176629</ele>
        <time>2020-07-01T07:34:08.022Z</time>
      </trkpt>
      <trkpt lat="48.559730" lon="16.873857">
        <ele>213.180967</ele>
        <time>2020-07-01T07:34:08.974Z</time>
      </trkpt>
      <trkpt lat="48.559764" lon="16.873723">
        <ele>213.185255</ele>
        <time>2020-07-01T07:34:09.972Z</time>
      </trkpt>
      <trkpt lat="48.559799" lon="16.873584">
        <ele>213.189699</ele>
        <time>2020-07-01T07:34:10.997Z</time>
      </trkpt>
      <trkpt lat="48.559833" lon="16.873441">
        <ele>213.194239</ele>
        <time>2020-07-01T07:34:12.013Z</time>
      </trkpt>
      <trkpt lat="48.559872" lon="16.873300">
        <ele>213.198805</ele>
        <time>2020-07-01T07:34:12.967Z</time>
      </trkpt>
      <trkpt lat="48.559914" lon="16.873170">
        <ele>213.203128</ele>
        <time>2020-07-01T07:34:14.027Z</time>
      </trkpt>
      <trkpt lat="48.560003" lon="16.872987">
        <ele>213.209913</ele>
        <time>2020-07-01T07:34:15.965Z</time>
      </trkpt>
      <trkpt lat="48.560116" lon="16.872991">
        <ele>213.215016</ele>
        <time>2020-07-01T07:34:17.970Z</time>
      </trkpt>
      <trkpt lat="48.560182" lon="16.873152">
        <ele>213.220675</ele>
        <time>2020-07-01T07:34:19.974Z</time>
      </trkpt>
      <trkpt lat="48.560219" lon="16.873358">
        <ele>213.227053</ele>
        <time>2020-07-01T07:34:21.981Z</time>
      </trkpt>
      <trkpt lat="48.560260" lon="16.873557">
        <ele>213.233280</ele>
        <time>2020-07-01T07:34:23.964Z</time>
      </trkpt>
      <trkpt lat="48.560299" lon="16.873758">
        <ele>213.239539</ele>
        <time>2020-07-01T07:34:25.979Z</time>
      </trkpt>
      <trkpt lat="48.560346" lon="16.873959">
        <ele>213.245909</ele>
        <time>2020-07-01T07:34:27.967Z</time>
      </trkpt>
      <trkpt lat="48.560397" lon="16.874163">
        <ele>213.182306</ele>
        <time>2020-07-01T07:34:29.964Z</time>
      </trkpt>
      <trkpt lat="48.560444" lon="16.874366">
        <ele>213.066296</ele>
        <time>2020-07-01T07:34:31.987Z</time>
      </trkpt>
      <trkpt lat="48.560492" lon="16.874571">
        <ele>212.948998</ele>
        <time>2020-07-01T07:34:33.965Z</time>
      </trkpt>
      <trkpt lat="48.560540" lon="16.874779">
        <ele>212.830174</ele>
        <time>2020-07-01T07:34:35.967Z</time>
      </trkpt>
      <trkpt lat="48.560591" lon="16.874987">
        <ele>212.710522</ele>
        <time>2020-07-01T07:34:37.958Z</time>
      </trkpt>
      <trkpt lat="48.560640" lon="16.875192">
        <ele>212.592950</ele>
        <time>2020-07-01T07:34:39.990Z</time>
      </trkpt>
      <trkpt lat="48.560690" lon="16.875390">
        <ele>212.478634</ele>
        <time>2020-07-01T07:34:41.984Z</time>
      </trkpt>
      <trkpt lat="48.560743" lon="16.875584">
        <ele>212.365421</ele>
        <time>2020-07-01T07:34:43.959Z</time>
      </trkpt>
      <trkpt lat="48.560807" lon="16.875766">
        <ele>212.254250</ele>
        <time>2020-07-01T07:34:45.965Z</time>
      </trkpt>
      <trkpt lat="48.560890" lon="16.875933">
        <ele>212.141594</ele>
        <time>2020-07-01T07:34:48.071Z</time>
      </trkpt>
      <trkpt lat="48.560971" lon="16.876104">
        <ele>212.028162</ele>
        <time>2020-07-01T07:34:49.990Z</time>
      </trkpt>
      <trkpt lat="48.561053" lon="16.876272">
        <ele>211.915561</ele>
        <time>2020-07-01T07:34:51.975Z</time>
      </trkpt>
      <trkpt lat="48.561129" lon="16.876436">
        <ele>211.807566</ele>
        <time>2020-07-01T07:34:53.987Z</time>
      </trkpt>
      <trkpt lat="48.561206" lon="16.876599">
        <ele>211.564896</ele>
        <time>2020-07-01T07:34:55.998Z</time>
      </trkpt>
      <trkpt lat="48.561282" lon="16.876754">
        <ele>211.292495</ele>
        <time>2020-07-01T07:34:57.993Z</time>
      </trkpt>
      <trkpt lat="48.561356" lon="16.876904">
        <ele>211.028306</ele>
        <time>2020-07-01T07:34:59.987Z</time>
      </trkpt>
      <trkpt lat="48.561431" lon="16.877046">
        <ele>210.771760</ele>
        <time>2020-07-01T07:35:02.008Z</time>
      </trkpt>
      <trkpt lat="48.561501" lon="16.877188">
        <ele>210.521730</ele>
        <time>2020-07-01T07:35:04.005Z</time>
      </trkpt>
      <trkpt lat="48.561568" lon="16.877324">
        <ele>210.282318</ele>
        <time>2020-07-01T07:35:05.962Z</time>
      </trkpt>
      <trkpt lat="48.561634" lon="16.877456">
        <ele>210.048706</ele>
        <time>2020-07-01T07:35:08.001Z</time>
      </trkpt>
      <trkpt lat="48.561697" lon="16.877596">
        <ele>209.809642</ele>
        <time>2020-07-01T07:35:09.991Z</time>
      </trkpt>
      <trkpt lat="48.561780" lon="16.877684">
        <ele>209.593299</ele>
        <time>2020-07-01T07:35:11.983Z</time>
      </trkpt>
      <trkpt lat="48.561889" lon="16.877631">
        <ele>209.348983</ele>
        <time>2020-07-01T07:35:13.975Z</time>
      </trkpt>
      <trkpt lat="48.561991" lon="16.877539">
        <ele>209.095523</ele>
        <time>2020-07-01T07:35:15.986Z</time>
      </trkpt>
      <trkpt lat="48.562085" lon="16.877415">
        <ele>208.829279</ele>
        <time>2020-07-01T07:35:17.996Z</time>
      </trkpt>
      <trkpt lat="48.562103" lon="16.877228">
        <ele>208.562441</ele>
        <time>2020-07-01T07:35:19.968Z</time>
      </trkpt>
      <trkpt lat="48.562086" lon="16.877042">
        <ele>208.297301</ele>
        <time>2020-07-01T07:35:21.983Z</time>
      </trkpt>
      <trkpt lat="48.562070" lon="16.876856">
        <ele>208.032444</ele>
        <time>2020-07-01T07:35:24.006Z</time>
      </trkpt>
      <trkpt lat="48.562059" lon="16.876674">
        <ele>207.911275</ele>
        <time>2020-07-01T07:35:25.971Z</time>
      </trkpt>
      <trkpt lat="48.562045" lon="16.876492">
        <ele>207.860078</ele>
        <time>2020-07-01T07:35:28.009Z</time>
      </trkpt>
      <trkpt lat="48.562028" lon="16.876303">
        <ele>207.806781</ele>
        <time>2020-07-01T07:35:29.985Z</time>
      </trkpt>
      <trkpt lat="48.562028" lon="16.876122">
        <ele>207.756206</ele>
        <time>2020-07-01T07:35:31.973Z</time>
      </trkpt>
      <trkpt lat="48.562035" lon="16.875940">
        <ele>207.705265</ele>
        <time>2020-07-01T07:35:33.964Z</time>
      </trkpt>
      <trkpt lat="48.562046" lon="16.875788">
        <ele>207.662540</ele>
        <time>2020-07-01T07:35:36.980Z</time>
      </trkpt>
      <trkpt lat="48.562056" lon="16.875637">
        <ele>207.620136</ele>
        <time>2020-07-01T07:35:39.974Z</time>
      </trkpt>
      <trkpt lat="48.562076" lon="16.875445">
        <ele>207.565826</ele>
        <time>2020-07-01T07:35:42.990Z</time>
      </trkpt>
      <trkpt lat="48.562095" lon="16.875311">
        <ele>207.527534</ele>
        <time>2020-07-01T07:35:44.971Z</time>
      </trkpt>
      <trkpt lat="48.562095" lon="16.875170">
        <ele>207.488136</ele>
        <time>2020-07-01T07:35:46.977Z</time>
      </trkpt>
      <trkpt lat="48.562060" lon="16.875030">
        <ele>207.446318</ele>
        <time>2020-07-01T07:35:48.973Z</time>
      </trkpt>
      <trkpt lat="48.562000" lon="16.874910">
        <ele>207.404294</ele>
        <time>2020-07-01T07:35:50.981Z</time>
      </trkpt>
      <trkpt lat="48.561915" lon="16.874826">
        <ele>207.361412</ele>
        <time>2020-07-01T07:35:52.983Z</time>
      </trkpt>
      <trkpt lat="48.561823" lon="16.874762">
        <ele>207.318650</ele>
        <time>2020-07-01T07:35:54.968Z</time>
      </trkpt>
      <trkpt lat="48.561731" lon="16.874696">
        <ele>207.275651</ele>
        <time>2020-07-01T07:35:56.995Z</time>
      </trkpt>
      <trkpt lat="48.561640" lon="16.874633">
        <ele>207.233389</ele>
        <time>2020-07-01T07:35:58.989Z</time>
      </trkpt>
      <trkpt lat="48.561547" lon="16.874571">
        <ele>207.190471</ele>
        <time>2020-07-01T07:36:00.984Z</time>
      </trkpt>
      <trkpt lat="48.561453" lon="16.874515">
        <ele>207.193646</ele>
        <time>2020-07-01T07:36:03.022Z</time>
      </trkpt>
      <trkpt lat="48.561360" lon="16.874458">
        <ele>207.202612</ele>
        <time>2020-07-01T07:36:05.000Z</time>
      </trkpt>
      <trkpt lat="48.561271" lon="16.874401">
        <ele>207.211248</ele>
        <time>2020-07-01T07:36:06.968Z</time>
      </trkpt>
      <trkpt lat="48.561187" lon="16.874338">
        <ele>207.219627</ele>
        <time>2020-07-01T07:36:09.000Z</time>
      </trkpt>
      <trkpt lat="48.561109" lon="16.874262">
        <ele>207.227918</ele>
        <time>2020-07-01T07:36:10.972Z</time>
      </trkpt>
      <trkpt lat="48.561050" lon="16.874155">
        <ele>207.236153</ele>
        <time>2020-07-01T07:36:12.990Z</time>
      </trkpt>
      <trkpt lat="48.561090" lon="16.873960">
        <ele>207.248224</ele>
        <time>2020-07-01T07:36:15.990Z</time>
      </trkpt>
      <trkpt lat="48.561129" lon="16.873830">
        <ele>207.256663</ele>
        <time>2020-07-01T07:36:17.964Z</time>
      </trkpt>
      <trkpt lat="48.561174" lon="16.873711">
        <ele>207.264767</ele>
        <time>2020-07-01T07:36:19.990Z</time>
      </trkpt>
      <trkpt lat="48.561220" lon="16.873589">
        <ele>207.273069</ele>
        <time>2020-07-01T07:36:21.984Z</time>
      </trkpt>
      <trkpt lat="48.561268" lon="16.873468">
        <ele>207.281410</ele>
        <time>2020-07-01T07:36:23.989Z</time>
      </trkpt>
      <trkpt lat="48.561326" lon="16.873358">
        <ele>207.289726</ele>
        <time>2020-07-01T07:36:25.982Z</time>
      </trkpt>
      <trkpt lat="48.561380" lon="16.873239">
        <ele>207.298257</ele>
        <time>2020-07-01T07:36:27.995Z</time>
      </trkpt>
      <trkpt lat="48.561433" lon="16.873120">
        <ele>207.306738</ele>
        <time>2020-07-01T07:36:29.982Z</time>
      </trkpt>
      <trkpt lat="48.561490" lon="16.873005">
        <ele>207.315233</ele>
        <time>2020-07-01T07:36:31.974Z</time>
      </trkpt>
      <trkpt lat="48.561559" lon="16.872891">
        <ele>207.324367</ele>
        <time>2020-07-01T07:36:33.964Z</time>
      </trkpt>
      <trkpt lat="48.561641" lon="16.872788">
        <ele>207.333894</ele>
        <time>2020-07-01T07:36:35.968Z</time>
      </trkpt>
      <trkpt lat="48.561716" lon="16.872673">
        <ele>207.343440</ele>
        <time>2020-07-01T07:36:38.005Z</time>
      </trkpt>
      <trkpt lat="48.561792" lon="16.872555">
        <ele>207.355920</ele>
        <time>2020-07-01T07:36:39.976Z</time>
      </trkpt>
      <trkpt lat="48.561859" lon="16.872430">
        <ele>207.369244</ele>
        <time>2020-07-01T07:36:41.982Z</time>
      </trkpt>
      <trkpt lat="48.561928" lon="16.872302">
        <ele>207.382920</ele>
        <time>2020-07-01T07:36:43.984Z</time>
      </trkpt>
      <trkpt lat="48.562003" lon="16.872174">
        <ele>207.397081</ele>
        <time>2020-07-01T07:36:45.983Z</time>
      </trkpt>
      <trkpt lat="48.562077" lon="16.872037">
        <ele>207.411730</ele>
        <time>2020-07-01T07:36:47.970Z</time>
      </trkpt>
      <trkpt lat="48.562148" lon="16.871908">
        <ele>207.425628</ele>
        <time>2020-07-01T07:36:50.012Z</time>
      </trkpt>
      <trkpt lat="48.562211" lon="16.871759">
        <ele>207.440274</ele>
        <time>2020-07-01T07:36:51.970Z</time>
      </trkpt>
      <trkpt lat="48.562276" lon="16.871623">
        <ele>207.454171</ele>
        <time>2020-07-01T07:36:53.963Z</time>
      </trkpt>
      <trkpt lat="48.562339" lon="16.871482">
        <ele>207.468263</ele>
        <time>2020-07-01T07:36:55.984Z</time>
      </trkpt>
      <trkpt lat="48.562401" lon="16.871343">
        <ele>207.482148</ele>
        <time>2020-07-01T07:36:57.985Z</time>
      </trkpt>
      <trkpt lat="48.562469" lon="16.871211">
        <ele>207.496005</ele>
        <time>2020-07-01T07:36:59.964Z</time>
      </trkpt>
      <trkpt lat="48.562534" lon="16.871078">
        <ele>207.509700</ele>
        <time>2020-07-01T07:37:01.968Z</time>
      </trkpt>
      <trkpt lat="48.562592" lon="16.870948">
        <ele>207.522687</ele>
        <time>2020-07-01T07:37:03.969Z</time>
      </trkpt>
      <trkpt lat="48.562657" lon="16.870822">
        <ele>207.535921</ele>
        <time>2020-07-01T07:37:05.995Z</time>
      </trkpt>
      <trkpt lat="48.562720" lon="16.870697">
        <ele>207.548936</ele>
        <time>2020-07-01T07:37:07.960Z</time>
      </trkpt>
      <trkpt lat="48.562784" lon="16.870567">
        <ele>207.562357</ele>
        <time>2020-07-01T07:37:09.985Z</time>
      </trkpt>
      <trkpt lat="48.562845" lon="16.870433">
        <ele>207.573926</ele>
        <time>2020-07-01T07:37:11.966Z</time>
      </trkpt>
      <trkpt lat="48.562902" lon="16.870300">
        <ele>207.581333</ele>
        <time>2020-07-01T07:37:13.965Z</time>
      </trkpt>
      <trkpt lat="48.562955" lon="16.870184">
        <ele>207.587923</ele>
        <time>2020-07-01T07:37:15.997Z</time>
      </trkpt>
      <trkpt lat="48.563008" lon="16.870072">
        <ele>207.594359</ele>
        <time>2020-07-01T07:37:17.990Z</time>
      </trkpt>
      <trkpt lat="48.563066" lon="16.869963">
        <ele>207.600898</ele>
        <time>2020-07-01T07:37:19.996Z</time>
      </trkpt>
      <trkpt lat="48.563118" lon="16.869847">
        <ele>207.607447</ele>
        <time>2020-07-01T07:37:21.979Z</time>
      </trkpt>
      <trkpt lat="48.563176" lon="16.869727">
        <ele>207.614394</ele>
        <time>2020-07-01T07:37:23.967Z</time>
      </trkpt>
      <trkpt lat="48.563244" lon="16.869592">
        <ele>207.622325</ele>
        <time>2020-07-01T07:37:25.968Z</time>
      </trkpt>
      <trkpt lat="48.563319" lon="16.869464">
        <ele>207.630317</ele>
        <time>2020-07-01T07:37:27.978Z</time>
      </trkpt>
      <trkpt lat="48.563396" lon="16.869341">
        <ele>207.638232</ele>
        <time>2020-07-01T07:37:30.002Z</time>
      </trkpt>
      <trkpt lat="48.563471" lon="16.869223">
        <ele>207.645880</ele>
        <time>2020-07-01T07:37:32.004Z</time>
      </trkpt>
      <trkpt lat="48.563543" lon="16.869112">
        <ele>207.653146</ele>
        <time>2020-07-01T07:37:33.962Z</time>
      </trkpt>
      <trkpt lat="48.563618" lon="16.868991">
        <ele>207.660896</ele>
        <time>2020-07-01T07:37:35.967Z</time>
      </trkpt>
      <trkpt lat="48.563702" lon="16.868881">
        <ele>207.668747</ele>
        <time>2020-07-01T07:37:37.971Z</time>
      </trkpt>
      <trkpt lat="48.563782" lon="16.868770">
        <ele>207.676419</ele>
        <time>2020-07-01T07:37:39.994Z</time>
      </trkpt>
      <trkpt lat="48.563851" lon="16.868646">
        <ele>207.683993</ele>
        <time>2020-07-01T07:37:42.013Z</time>
      </trkpt>
      <trkpt lat="48.563928" lon="16.868548">
        <ele>207.691104</ele>
        <time>2020-07-01T07:37:43.963Z</time>
      </trkpt>
      <trkpt lat="48.564001" lon="16.868450">
        <ele>207.698002</ele>
        <time>2020-07-01T07:37:45.969Z</time>
      </trkpt>
      <trkpt lat="48.564085" lon="16.868390">
        <ele>207.713251</ele>
        <time>2020-07-01T07:37:47.998Z</time>
      </trkpt>
      <trkpt lat="48.564173" lon="16.868341">
        <ele>207.729383</ele>
        <time>2020-07-01T07:37:49.992Z</time>
      </trkpt>
      <trkpt lat="48.564273" lon="16.868290">
        <ele>207.747538</ele>
        <time>2020-07-01T07:37:52.014Z</time>
      </trkpt>
      <trkpt lat="48.564386" lon="16.868230">
        <ele>207.768140</ele>
        <time>2020-07-01T07:37:53.980Z</time>
      </trkpt>
      <trkpt lat="48.564501" lon="16.868173">
        <ele>207.788958</ele>
        <time>2020-07-01T07:37:55.966Z</time>
      </trkpt>
      <trkpt lat="48.564612" lon="16.868101">
        <ele>207.809737</ele>
        <time>2020-07-01T07:37:57.970Z</time>
      </trkpt>
      <trkpt lat="48.564715" lon="16.868028">
        <ele>207.829306</ele>
        <time>2020-07-01T07:37:59.979Z</time>
      </trkpt>
      <trkpt lat="48.564804" lon="16.867927">
        <ele>207.848451</ele>
        <time>2020-07-01T07:38:01.996Z</time>
      </trkpt>
      <trkpt lat="48.564885" lon="16.867816">
        <ele>207.867261</ele>
        <time>2020-07-01T07:38:03.974Z</time>
      </trkpt>
      <trkpt lat="48.564938" lon="16.867672">
        <ele>207.886017</ele>
        <time>2020-07-01T07:38:06.019Z</time>
      </trkpt>
      <trkpt lat="48.564986" lon="16.867532">
        <ele>207.903966</ele>
        <time>2020-07-01T07:38:07.966Z</time>
      </trkpt>
      <trkpt lat="48.565027" lon="16.867372">
        <ele>207.923497</ele>
        <time>2020-07-01T07:38:09.967Z</time>
      </trkpt>
      <trkpt lat="48.565072" lon="16.867211">
        <ele>207.943391</ele>
        <time>2020-07-01T07:38:11.988Z</time>
      </trkpt>
      <trkpt lat="48.565123" lon="16.867041">
        <ele>207.964638</ele>
        <time>2020-07-01T07:38:13.961Z</time>
      </trkpt>
      <trkpt lat="48.565171" lon="16.866877">
        <ele>207.985051</ele>
        <time>2020-07-01T07:38:15.977Z</time>
      </trkpt>
      <trkpt lat="48.565211" lon="16.866716">
        <ele>208.004627</ele>
        <time>2020-07-01T07:38:17.965Z</time>
      </trkpt>
      <trkpt lat="48.565244" lon="16.866566">
        <ele>208.011346</ele>
        <time>2020-07-01T07:38:19.979Z</time>
      </trkpt>
      <trkpt lat="48.565283" lon="16.866428">
        <ele>208.015342</ele>
        <time>2020-07-01T07:38:21.968Z</time>
      </trkpt>
      <trkpt lat="48.565327" lon="16.866291">
        <ele>208.019398</ele>
        <time>2020-07-01T07:38:23.980Z</time>
      </trkpt>
      <trkpt lat="48.565385" lon="16.866181">
        <ele>208.023144</ele>
        <time>2020-07-01T07:38:25.973Z</time>
      </trkpt>
      <trkpt lat="48.565488" lon="16.866179">
        <ele>208.027289</ele>
        <time>2020-07-01T07:38:27.973Z</time>
      </trkpt>
      <trkpt lat="48.565589" lon="16.866279">
        <ele>208.032149</ele>
        <time>2020-07-01T07:38:29.977Z</time>
      </trkpt>
      <trkpt lat="48.565687" lon="16.866382">
        <ele>208.036953</ele>
        <time>2020-07-01T07:38:31.964Z</time>
      </trkpt>
      <trkpt lat="48.565787" lon="16.866481">
        <ele>208.041765</ele>
        <time>2020-07-01T07:38:33.985Z</time>
      </trkpt>
      <trkpt lat="48.565888" lon="16.866581">
        <ele>208.046624</ele>
        <time>2020-07-01T07:38:35.977Z</time>
      </trkpt>
      <trkpt lat="48.565992" lon="16.866673">
        <ele>208.051474</ele>
        <time>2020-07-01T07:38:37.972Z</time>
      </trkpt>
      <trkpt lat="48.566098" lon="16.866766">
        <ele>208.056407</ele>
        <time>2020-07-01T07:38:39.985Z</time>
      </trkpt>
      <trkpt lat="48.566204" lon="16.866856">
        <ele>208.061301</ele>
        <time>2020-07-01T07:38:41.972Z</time>
      </trkpt>
      <trkpt lat="48.566310" lon="16.866947">
        <ele>208.066207</ele>
        <time>2020-07-01T07:38:43.966Z</time>
      </trkpt>
      <trkpt lat="48.566411" lon="16.867036">
        <ele>208.070913</ele>
        <time>2020-07-01T07:38:45.994Z</time>
      </trkpt>
      <trkpt lat="48.566512" lon="16.867120">
        <ele>208.075552</ele>
        <time>2020-07-01T07:38:47.992Z</time>
      </trkpt>
      <trkpt lat="48.566611" lon="16.867199">
        <ele>208.080058</ele>
        <time>2020-07-01T07:38:50.003Z</time>
      </trkpt>
      <trkpt lat="48.566717" lon="16.867196">
        <ele>208.091625</ele>
        <time>2020-07-01T07:38:51.975Z</time>
      </trkpt>
      <trkpt lat="48.566780" lon="16.867050">
        <ele>208.104665</ele>
        <time>2020-07-01T07:38:53.988Z</time>
      </trkpt>
      <trkpt lat="48.566825" lon="16.866895">
        <ele>208.117327</ele>
        <time>2020-07-01T07:38:55.991Z</time>
      </trkpt>
      <trkpt lat="48.566867" lon="16.866742">
        <ele>208.129719</ele>
        <time>2020-07-01T07:38:57.969Z</time>
      </trkpt>
      <trkpt lat="48.566909" lon="16.866583">
        <ele>208.142527</ele>
        <time>2020-07-01T07:38:59.968Z</time>
      </trkpt>
      <trkpt lat="48.566949" lon="16.866431">
        <ele>208.154765</ele>
        <time>2020-07-01T07:39:01.987Z</time>
      </trkpt>
      <trkpt lat="48.566993" lon="16.866284">
        <ele>208.166835</ele>
        <time>2020-07-01T07:39:03.996Z</time>
      </trkpt>
      <trkpt lat="48.567037" lon="16.866138">
        <ele>208.178837</ele>
        <time>2020-07-01T07:39:05.988Z</time>
      </trkpt>
      <trkpt lat="48.567075" lon="16.865986">
        <ele>208.190993</ele>
        <time>2020-07-01T07:39:07.965Z</time>
      </trkpt>
      <trkpt lat="48.567115" lon="16.865845">
        <ele>208.202470</ele>
        <time>2020-07-01T07:39:09.971Z</time>
      </trkpt>
      <trkpt lat="48.567154" lon="16.865704">
        <ele>208.213902</ele>
        <time>2020-07-01T07:39:11.981Z</time>
      </trkpt>
      <trkpt lat="48.567193" lon="16.865559">
        <ele>208.225612</ele>
        <time>2020-07-01T07:39:13.975Z</time>
      </trkpt>
      <trkpt lat="48.567233" lon="16.865412">
        <ele>208.237503</ele>
        <time>2020-07-01T07:39:15.977Z</time>
      </trkpt>
      <trkpt lat="48.567272" lon="16.865264">
        <ele>208.249420</ele>
        <time>2020-07-01T07:39:17.969Z</time>
      </trkpt>
      <trkpt lat="48.567316" lon="16.865114">
        <ele>208.261695</ele>
        <time>2020-07-01T07:39:19.973Z</time>
      </trkpt>
      <trkpt lat="48.567364" lon="16.864969">
        <ele>208.273824</ele>
        <time>2020-07-01T07:39:21.996Z</time>
      </trkpt>
      <trkpt lat="48.567404" lon="16.864818">
        <ele>208.274289</ele>
        <time>2020-07-01T07:39:23.984Z</time>
      </trkpt>
      <trkpt lat="48.567441" lon="16.864666">
        <ele>208.226348</ele>
        <time>2020-07-01T07:39:25.967Z</time>
      </trkpt>
      <trkpt lat="48.567471" lon="16.864519">
        <ele>208.180812</ele>
        <time>2020-07-01T07:39:27.996Z</time>
      </trkpt>
      <trkpt lat="48.567517" lon="16.864352">
        <ele>208.127266</ele>
        <time>2020-07-01T07:39:30.960Z</time>
      </trkpt>
      <trkpt lat="48.567575" lon="16.864240">
        <ele>208.085168</ele>
        <time>2020-07-01T07:39:33.976Z</time>
      </trkpt>
      <trkpt lat="48.567645" lon="16.864117">
        <ele>208.037145</ele>
        <time>2020-07-01T07:39:37.012Z</time>
      </trkpt>
      <trkpt lat="48.567707" lon="16.864001">
        <ele>207.993007</ele>
        <time>2020-07-01T07:39:38.993Z</time>
      </trkpt>
      <trkpt lat="48.567779" lon="16.863874">
        <ele>207.943503</ele>
        <time>2020-07-01T07:39:40.984Z</time>
      </trkpt>
      <trkpt lat="48.567864" lon="16.863732">
        <ele>207.886824</ele>
        <time>2020-07-01T07:39:42.970Z</time>
      </trkpt>
      <trkpt lat="48.567949" lon="16.863583">
        <ele>207.828592</ele>
        <time>2020-07-01T07:39:44.975Z</time>
      </trkpt>
      <trkpt lat="48.568032" lon="16.863431">
        <ele>207.770257</ele>
        <time>2020-07-01T07:39:46.971Z</time>
      </trkpt>
      <trkpt lat="48.568118" lon="16.863276">
        <ele>207.710382</ele>
        <time>2020-07-01T07:39:48.987Z</time>
      </trkpt>
      <trkpt lat="48.568202" lon="16.863120">
        <ele>207.650849</ele>
        <time>2020-07-01T07:39:50.981Z</time>
      </trkpt>
      <trkpt lat="48.568288" lon="16.862966">
        <ele>207.591200</ele>
        <time>2020-07-01T07:39:52.977Z</time>
      </trkpt>
      <trkpt lat="48.568378" lon="16.862829">
        <ele>207.534057</ele>
        <time>2020-07-01T07:39:54.962Z</time>
      </trkpt>
      <trkpt lat="48.568464" lon="16.862687">
        <ele>207.477509</ele>
        <time>2020-07-01T07:39:56.974Z</time>
      </trkpt>
      <trkpt lat="48.568548" lon="16.862542">
        <ele>207.432920</ele>
        <time>2020-07-01T07:39:58.968Z</time>
      </trkpt>
      <trkpt lat="48.568634" lon="16.862402">
        <ele>207.388723</ele>
        <time>2020-07-01T07:40:00.969Z</time>
      </trkpt>
      <trkpt lat="48.568718" lon="16.862266">
        <ele>207.345679</ele>
        <time>2020-07-01T07:40:02.988Z</time>
      </trkpt>
      <trkpt lat="48.568790" lon="16.862132">
        <ele>207.305742</ele>
        <time>2020-07-01T07:40:05.029Z</time>
      </trkpt>
      <trkpt lat="48.568843" lon="16.861996">
        <ele>207.269225</ele>
        <time>2020-07-01T07:40:06.964Z</time>
      </trkpt>
      <trkpt lat="48.568822" lon="16.861847">
        <ele>207.233977</ele>
        <time>2020-07-01T07:40:08.971Z</time>
      </trkpt>
      <trkpt lat="48.568735" lon="16.861738">
        <ele>207.194463</ele>
        <time>2020-07-01T07:40:10.997Z</time>
      </trkpt>
      <trkpt lat="48.568641" lon="16.861638">
        <ele>207.154270</ele>
        <time>2020-07-01T07:40:12.995Z</time>
      </trkpt>
      <trkpt lat="48.568550" lon="16.861530">
        <ele>207.113812</ele>
        <time>2020-07-01T07:40:14.991Z</time>
      </trkpt>
      <trkpt lat="48.568476" lon="16.861395">
        <ele>207.073253</ele>
        <time>2020-07-01T07:40:16.996Z</time>
      </trkpt>
      <trkpt lat="48.568449" lon="16.861216">
        <ele>207.030775</ele>
        <time>2020-07-01T07:40:19.017Z</time>
      </trkpt>
      <trkpt lat="48.568444" lon="16.861041">
        <ele>206.990248</ele>
        <time>2020-07-01T07:40:20.967Z</time>
      </trkpt>
      <trkpt lat="48.568441" lon="16.860867">
        <ele>206.949976</ele>
        <time>2020-07-01T07:40:23.006Z</time>
      </trkpt>
      <trkpt lat="48.568437" lon="16.860688">
        <ele>206.908537</ele>
        <time>2020-07-01T07:40:25.009Z</time>
      </trkpt>
      <trkpt lat="48.568435" lon="16.860512">
        <ele>206.867809</ele>
        <time>2020-07-01T07:40:26.980Z</time>
      </trkpt>
      <trkpt lat="48.568435" lon="16.860340">
        <ele>206.871776</ele>
        <time>2020-07-01T07:40:28.970Z</time>
      </trkpt>
      <trkpt lat="48.568439" lon="16.860174">
        <ele>206.909282</ele>
        <time>2020-07-01T07:40:30.998Z</time>
      </trkpt>
      <trkpt lat="48.568441" lon="16.860011">
        <ele>206.946093</ele>
        <time>2020-07-01T07:40:32.989Z</time>
      </trkpt>
      <trkpt lat="48.568439" lon="16.859842">
        <ele>206.984258</ele>
        <time>2020-07-01T07:40:34.986Z</time>
      </trkpt>
      <trkpt lat="48.568434" lon="16.859674">
        <ele>207.022229</ele>
        <time>2020-07-01T07:40:36.984Z</time>
      </trkpt>
      <trkpt lat="48.568425" lon="16.859502">
        <ele>207.061187</ele>
        <time>2020-07-01T07:40:38.971Z</time>
      </trkpt>
      <trkpt lat="48.568424" lon="16.859331">
        <ele>207.099799</ele>
        <time>2020-07-01T07:40:40.987Z</time>
      </trkpt>
      <trkpt lat="48.568414" lon="16.859160">
        <ele>207.138560</ele>
        <time>2020-07-01T07:40:42.978Z</time>
      </trkpt>
      <trkpt lat="48.568410" lon="16.858988">
        <ele>207.177420</ele>
        <time>2020-07-01T07:40:44.969Z</time>
      </trkpt>
      <trkpt lat="48.568409" lon="16.858818">
        <ele>207.215806</ele>
        <time>2020-07-01T07:40:46.999Z</time>
      </trkpt>
      <trkpt lat="48.568413" lon="16.858650">
        <ele>207.253764</ele>
        <time>2020-07-01T07:40:48.981Z</time>
      </trkpt>
      <trkpt lat="48.568415" lon="16.858482">
        <ele>207.291703</ele>
        <time>2020-07-01T07:40:50.980Z</time>
      </trkpt>
      <trkpt lat="48.568417" lon="16.858320">
        <ele>207.328288</ele>
        <time>2020-07-01T07:40:52.977Z</time>
      </trkpt>
      <trkpt lat="48.568414" lon="16.858158">
        <ele>207.364880</ele>
        <time>2020-07-01T07:40:54.979Z</time>
      </trkpt>
      <trkpt lat="48.568410" lon="16.857993">
        <ele>207.402161</ele>
        <time>2020-07-01T07:40:56.959Z</time>
      </trkpt>
      <trkpt lat="48.568396" lon="16.857833">
        <ele>207.438602</ele>
        <time>2020-07-01T07:40:58.972Z</time>
      </trkpt>
      <trkpt lat="48.568381" lon="16.857679">
        <ele>207.464556</ele>
        <time>2020-07-01T07:41:00.999Z</time>
      </trkpt>
      <trkpt lat="48.568376" lon="16.857527">
        <ele>207.466877</ele>
        <time>2020-07-01T07:41:02.985Z</time>
      </trkpt>
      <trkpt lat="48.568387" lon="16.857384">
        <ele>207.469072</ele>
        <time>2020-07-01T07:41:04.966Z</time>
      </trkpt>
      <trkpt lat="48.568414" lon="16.857243">
        <ele>207.471310</ele>
        <time>2020-07-01T07:41:06.981Z</time>
      </trkpt>
      <trkpt lat="48.568449" lon="16.857106">
        <ele>207.473549</ele>
        <time>2020-07-01T07:41:08.968Z</time>
      </trkpt>
      <trkpt lat="48.568498" lon="16.856968">
        <ele>207.475937</ele>
        <time>2020-07-01T07:41:10.973Z</time>
      </trkpt>
      <trkpt lat="48.568551" lon="16.856820">
        <ele>207.478503</ele>
        <time>2020-07-01T07:41:12.960Z</time>
      </trkpt>
      <trkpt lat="48.568598" lon="16.856673">
        <ele>207.480993</ele>
        <time>2020-07-01T07:41:14.973Z</time>
      </trkpt>
      <trkpt lat="48.568647" lon="16.856536">
        <ele>207.483367</ele>
        <time>2020-07-01T07:41:16.970Z</time>
      </trkpt>
      <trkpt lat="48.568691" lon="16.856404">
        <ele>207.485621</ele>
        <time>2020-07-01T07:41:18.981Z</time>
      </trkpt>
      <trkpt lat="48.568734" lon="16.856263">
        <ele>207.487988</ele>
        <time>2020-07-01T07:41:20.980Z</time>
      </trkpt>
      <trkpt lat="48.568796" lon="16.856130">
        <ele>207.490469</ele>
        <time>2020-07-01T07:41:23.012Z</time>
      </trkpt>
      <trkpt lat="48.568847" lon="16.855992">
        <ele>207.492879</ele>
        <time>2020-07-01T07:41:25.011Z</time>
      </trkpt>
      <trkpt lat="48.568897" lon="16.855861">
        <ele>207.495185</ele>
        <time>2020-07-01T07:41:26.961Z</time>
      </trkpt>
      <trkpt lat="48.568950" lon="16.855723">
        <ele>207.497618</ele>
        <time>2020-07-01T07:41:28.998Z</time>
      </trkpt>
      <trkpt lat="48.569004" lon="16.855587">
        <ele>207.500036</ele>
        <time>2020-07-01T07:41:30.983Z</time>
      </trkpt>
      <trkpt lat="48.569058" lon="16.855442">
        <ele>207.502573</ele>
        <time>2020-07-01T07:41:32.999Z</time>
      </trkpt>
      <trkpt lat="48.569111" lon="16.855291">
        <ele>207.505179</ele>
        <time>2020-07-01T07:41:34.968Z</time>
      </trkpt>
      <trkpt lat="48.569164" lon="16.855141">
        <ele>207.450248</ele>
        <time>2020-07-01T07:41:36.962Z</time>
      </trkpt>
      <trkpt lat="48.569212" lon="16.854987">
        <ele>207.391556</ele>
        <time>2020-07-01T07:41:39.042Z</time>
      </trkpt>
      <trkpt lat="48.569269" lon="16.854837">
        <ele>207.331916</ele>
        <time>2020-07-01T07:41:40.958Z</time>
      </trkpt>
      <trkpt lat="48.569320" lon="16.854678">
        <ele>207.270994</ele>
        <time>2020-07-01T07:41:42.992Z</time>
      </trkpt>
      <trkpt lat="48.569348" lon="16.854506">
        <ele>207.209923</ele>
        <time>2020-07-01T07:41:44.970Z</time>
      </trkpt>
      <trkpt lat="48.569338" lon="16.854337">
        <ele>207.151421</ele>
        <time>2020-07-01T07:41:46.976Z</time>
      </trkpt>
      <trkpt lat="48.569319" lon="16.854180">
        <ele>207.096392</ele>
        <time>2020-07-01T07:41:48.983Z</time>
      </trkpt>
      <trkpt lat="48.569301" lon="16.853976">
        <ele>207.025433</ele>
        <time>2020-07-01T07:41:51.991Z</time>
      </trkpt>
      <trkpt lat="48.569325" lon="16.853808">
        <ele>206.966174</ele>
        <time>2020-07-01T07:41:54.980Z</time>
      </trkpt>
      <trkpt lat="48.569371" lon="16.853659">
        <ele>206.909485</ele>
        <time>2020-07-01T07:41:57.970Z</time>
      </trkpt>
      <trkpt lat="48.569428" lon="16.853507">
        <ele>206.849247</ele>
        <time>2020-07-01T07:42:00.968Z</time>
      </trkpt>
      <trkpt lat="48.569489" lon="16.853358">
        <ele>206.788836</ele>
        <time>2020-07-01T07:42:04.001Z</time>
      </trkpt>
      <trkpt lat="48.569563" lon="16.853084">
        <ele>206.686799</ele>
        <time>2020-07-01T07:43:19.016Z</time>
      </trkpt>
      <trkpt lat="48.569615" lon="16.852915">
        <ele>206.622539</ele>
        <time>2020-07-01T07:43:21.972Z</time>
      </trkpt>
      <trkpt lat="48.569676" lon="16.852738">
        <ele>206.553074</ele>
        <time>2020-07-01T07:43:24.976Z</time>
      </trkpt>
      <trkpt lat="48.569745" lon="16.852571">
        <ele>206.482094</ele>
        <time>2020-07-01T07:43:27.963Z</time>
      </trkpt>
      <trkpt lat="48.569854" lon="16.852454">
        <ele>206.409252</ele>
        <time>2020-07-01T07:43:30.979Z</time>
      </trkpt>
      <trkpt lat="48.569925" lon="16.852365">
        <ele>206.358994</ele>
        <time>2020-07-01T07:43:32.977Z</time>
      </trkpt>
      <trkpt lat="48.569999" lon="16.852272">
        <ele>206.306557</ele>
        <time>2020-07-01T07:43:34.966Z</time>
      </trkpt>
      <trkpt lat="48.570062" lon="16.852162">
        <ele>206.254109</ele>
        <time>2020-07-01T07:43:36.963Z</time>
      </trkpt>
      <trkpt lat="48.570123" lon="16.852030">
        <ele>206.196064</ele>
        <time>2020-07-01T07:43:38.990Z</time>
      </trkpt>
      <trkpt lat="48.570188" lon="16.851902">
        <ele>206.137895</ele>
        <time>2020-07-01T07:43:40.982Z</time>
      </trkpt>
      <trkpt lat="48.570257" lon="16.851769">
        <ele>206.076967</ele>
        <time>2020-07-01T07:43:42.991Z</time>
      </trkpt>
      <trkpt lat="48.570327" lon="16.851637">
        <ele>206.015982</ele>
        <time>2020-07-01T07:43:45.012Z</time>
      </trkpt>
      <trkpt lat="48.570394" lon="16.851505">
        <ele>205.956006</ele>
        <time>2020-07-01T07:43:46.960Z</time>
      </trkpt>
      <trkpt lat="48.570465" lon="16.851375">
        <ele>205.895237</ele>
        <time>2020-07-01T07:43:48.978Z</time>
      </trkpt>
      <trkpt lat="48.570542" lon="16.851245">
        <ele>205.832337</ele>
        <time>2020-07-01T07:43:50.992Z</time>
      </trkpt>
      <trkpt lat="48.570618" lon="16.851119">
        <ele>205.770872</ele>
        <time>2020-07-01T07:43:52.959Z</time>
      </trkpt>
      <trkpt lat="48.570693" lon="16.850994">
        <ele>205.710040</ele>
        <time>2020-07-01T07:43:54.972Z</time>
      </trkpt>
      <trkpt lat="48.570779" lon="16.850878">
        <ele>205.647237</ele>
        <time>2020-07-01T07:43:56.974Z</time>
      </trkpt>
      <trkpt lat="48.570866" lon="16.850765">
        <ele>205.585003</ele>
        <time>2020-07-01T07:43:58.975Z</time>
      </trkpt>
      <trkpt lat="48.570956" lon="16.850658">
        <ele>205.527430</ele>
        <time>2020-07-01T07:44:00.970Z</time>
      </trkpt>
      <trkpt lat="48.571045" lon="16.850549">
        <ele>205.469834</ele>
        <time>2020-07-01T07:44:02.962Z</time>
      </trkpt>
      <trkpt lat="48.571130" lon="16.850439">
        <ele>205.413571</ele>
        <time>2020-07-01T07:44:04.969Z</time>
      </trkpt>
      <trkpt lat="48.571231" lon="16.850356">
        <ele>205.355769</ele>
        <time>2020-07-01T07:44:06.991Z</time>
      </trkpt>
      <trkpt lat="48.571345" lon="16.850341">
        <ele>205.298236</ele>
        <time>2020-07-01T07:44:08.999Z</time>
      </trkpt>
      <trkpt lat="48.571472" lon="16.850395">
        <ele>205.231905</ele>
        <time>2020-07-01T07:44:10.992Z</time>
      </trkpt>
      <trkpt lat="48.571600" lon="16.850467">
        <ele>205.163237</ele>
        <time>2020-07-01T07:44:13.021Z</time>
      </trkpt>
      <trkpt lat="48.571731" lon="16.850538">
        <ele>205.093267</ele>
        <time>2020-07-01T07:44:14.994Z</time>
      </trkpt>
      <trkpt lat="48.571851" lon="16.850645">
        <ele>205.023215</ele>
        <time>2020-07-01T07:44:16.959Z</time>
      </trkpt>
      <trkpt lat="48.571939" lon="16.850768">
        <ele>204.962950</ele>
        <time>2020-07-01T07:44:19.006Z</time>
      </trkpt>
      <trkpt lat="48.572020" lon="16.850887">
        <ele>204.906155</ele>
        <time>2020-07-01T07:44:20.994Z</time>
      </trkpt>
      <trkpt lat="48.572073" lon="16.850999">
        <ele>204.860347</ele>
        <time>2020-07-01T07:44:22.968Z</time>
      </trkpt>
      <trkpt lat="48.572190" lon="16.851081">
        <ele>204.795505</ele>
        <time>2020-07-01T07:44:25.983Z</time>
      </trkpt>
      <trkpt lat="48.572318" lon="16.850980">
        <ele>204.722907</ele>
        <time>2020-07-01T07:44:28.990Z</time>
      </trkpt>
      <trkpt lat="48.572428" lon="16.850883">
        <ele>204.651226</ele>
        <time>2020-07-01T07:44:30.973Z</time>
      </trkpt>
      <trkpt lat="48.572544" lon="16.850807">
        <ele>204.568215</ele>
        <time>2020-07-01T07:44:32.967Z</time>
      </trkpt>
      <trkpt lat="48.572659" lon="16.850739">
        <ele>204.487136</ele>
        <time>2020-07-01T07:44:34.963Z</time>
      </trkpt>
      <trkpt lat="48.572773" lon="16.850671">
        <ele>204.406668</ele>
        <time>2020-07-01T07:44:36.977Z</time>
      </trkpt>
      <trkpt lat="48.572884" lon="16.850598">
        <ele>204.327188</ele>
        <time>2020-07-01T07:44:39.000Z</time>
      </trkpt>
      <trkpt lat="48.572996" lon="16.850524">
        <ele>204.246932</ele>
        <time>2020-07-01T07:44:40.998Z</time>
      </trkpt>
      <trkpt lat="48.573106" lon="16.850448">
        <ele>204.167520</ele>
        <time>2020-07-01T07:44:42.980Z</time>
      </trkpt>
      <trkpt lat="48.573218" lon="16.850385">
        <ele>204.089056</ele>
        <time>2020-07-01T07:44:44.987Z</time>
      </trkpt>
      <trkpt lat="48.573329" lon="16.850313">
        <ele>204.009748</ele>
        <time>2020-07-01T07:44:46.962Z</time>
      </trkpt>
      <trkpt lat="48.573441" lon="16.850247">
        <ele>203.930821</ele>
        <time>2020-07-01T07:44:48.983Z</time>
      </trkpt>
      <trkpt lat="48.573558" lon="16.850181">
        <ele>203.848825</ele>
        <time>2020-07-01T07:44:51.000Z</time>
      </trkpt>
      <trkpt lat="48.573673" lon="16.850115">
        <ele>203.768059</ele>
        <time>2020-07-01T07:44:52.966Z</time>
      </trkpt>
      <trkpt lat="48.573782" lon="16.850055">
        <ele>203.691894</ele>
        <time>2020-07-01T07:44:54.975Z</time>
      </trkpt>
      <trkpt lat="48.573889" lon="16.849999">
        <ele>203.617548</ele>
        <time>2020-07-01T07:44:56.986Z</time>
      </trkpt>
      <trkpt lat="48.573995" lon="16.849936">
        <ele>203.542764</ele>
        <time>2020-07-01T07:44:58.982Z</time>
      </trkpt>
      <trkpt lat="48.574097" lon="16.849871">
        <ele>203.523015</ele>
        <time>2020-07-01T07:45:00.959Z</time>
      </trkpt>
      <trkpt lat="48.574197" lon="16.849804">
        <ele>203.566862</ele>
        <time>2020-07-01T07:45:03.001Z</time>
      </trkpt>
      <trkpt lat="48.574298" lon="16.849739">
        <ele>203.610866</ele>
        <time>2020-07-01T07:45:04.991Z</time>
      </trkpt>
      <trkpt lat="48.574405" lon="16.849680">
        <ele>203.656522</ele>
        <time>2020-07-01T07:45:06.982Z</time>
      </trkpt>
      <trkpt lat="48.574507" lon="16.849619">
        <ele>203.700493</ele>
        <time>2020-07-01T07:45:08.965Z</time>
      </trkpt>
      <trkpt lat="48.574607" lon="16.849554">
        <ele>203.744128</ele>
        <time>2020-07-01T07:45:10.971Z</time>
      </trkpt>
      <trkpt lat="48.574708" lon="16.849493">
        <ele>203.787727</ele>
        <time>2020-07-01T07:45:12.976Z</time>
      </trkpt>
      <trkpt lat="48.574809" lon="16.849416">
        <ele>203.833071</ele>
        <time>2020-07-01T07:45:14.985Z</time>
      </trkpt>
      <trkpt lat="48.574910" lon="16.849336">
        <ele>203.878780</ele>
        <time>2020-07-01T07:45:16.997Z</time>
      </trkpt>
      <trkpt lat="48.575011" lon="16.849261">
        <ele>203.923889</ele>
        <time>2020-07-01T07:45:18.961Z</time>
      </trkpt>
      <trkpt lat="48.575112" lon="16.849194">
        <ele>203.968102</ele>
        <time>2020-07-01T07:45:21.024Z</time>
      </trkpt>
      <trkpt lat="48.575209" lon="16.849122">
        <ele>204.011421</ele>
        <time>2020-07-01T07:45:22.985Z</time>
      </trkpt>
      <trkpt lat="48.575311" lon="16.849039">
        <ele>204.057857</ele>
        <time>2020-07-01T07:45:24.979Z</time>
      </trkpt>
      <trkpt lat="48.575411" lon="16.848959">
        <ele>204.103211</ele>
        <time>2020-07-01T07:45:26.986Z</time>
      </trkpt>
      <trkpt lat="48.575510" lon="16.848876">
        <ele>204.148591</ele>
        <time>2020-07-01T07:45:28.968Z</time>
      </trkpt>
      <trkpt lat="48.575608" lon="16.848790">
        <ele>204.194016</ele>
        <time>2020-07-01T07:45:30.996Z</time>
      </trkpt>
      <trkpt lat="48.575704" lon="16.848702">
        <ele>204.235364</ele>
        <time>2020-07-01T07:45:32.983Z</time>
      </trkpt>
      <trkpt lat="48.575791" lon="16.848600">
        <ele>204.268800</ele>
        <time>2020-07-01T07:45:35.001Z</time>
      </trkpt>
      <trkpt lat="48.575877" lon="16.848502">
        <ele>204.301506</ele>
        <time>2020-07-01T07:45:37.004Z</time>
      </trkpt>
      <trkpt lat="48.575964" lon="16.848405">
        <ele>204.334336</ele>
        <time>2020-07-01T07:45:38.964Z</time>
      </trkpt>
      <trkpt lat="48.576053" lon="16.848303">
        <ele>204.368253</ele>
        <time>2020-07-01T07:45:41.000Z</time>
      </trkpt>
      <trkpt lat="48.576140" lon="16.848205">
        <ele>204.401202</ele>
        <time>2020-07-01T07:45:42.981Z</time>
      </trkpt>
      <trkpt lat="48.576229" lon="16.848104">
        <ele>204.434999</ele>
        <time>2020-07-01T07:45:45.010Z</time>
      </trkpt>
      <trkpt lat="48.576319" lon="16.848000">
        <ele>204.469401</ele>
        <time>2020-07-01T07:45:46.972Z</time>
      </trkpt>
      <trkpt lat="48.576407" lon="16.847899">
        <ele>204.502955</ele>
        <time>2020-07-01T07:45:48.994Z</time>
      </trkpt>
      <trkpt lat="48.576491" lon="16.847796">
        <ele>204.535802</ele>
        <time>2020-07-01T07:45:50.987Z</time>
      </trkpt>
      <trkpt lat="48.576571" lon="16.847694">
        <ele>204.567584</ele>
        <time>2020-07-01T07:45:52.985Z</time>
      </trkpt>
      <trkpt lat="48.576651" lon="16.847585">
        <ele>204.600291</ele>
        <time>2020-07-01T07:45:54.968Z</time>
      </trkpt>
      <trkpt lat="48.576732" lon="16.847474">
        <ele>204.633493</ele>
        <time>2020-07-01T07:45:56.986Z</time>
      </trkpt>
      <trkpt lat="48.576808" lon="16.847366">
        <ele>204.665170</ele>
        <time>2020-07-01T07:45:58.983Z</time>
      </trkpt>
      <trkpt lat="48.576881" lon="16.847259">
        <ele>204.696050</ele>
        <time>2020-07-01T07:46:00.981Z</time>
      </trkpt>
      <trkpt lat="48.576960" lon="16.847153">
        <ele>204.728128</ele>
        <time>2020-07-01T07:46:02.990Z</time>
      </trkpt>
      <trkpt lat="48.577044" lon="16.847050">
        <ele>204.760975</ele>
        <time>2020-07-01T07:46:04.975Z</time>
      </trkpt>
      <trkpt lat="48.577125" lon="16.846947">
        <ele>204.763860</ele>
        <time>2020-07-01T07:46:06.978Z</time>
      </trkpt>
      <trkpt lat="48.577206" lon="16.846841">
        <ele>204.754997</ele>
        <time>2020-07-01T07:46:08.953Z</time>
      </trkpt>
      <trkpt lat="48.577289" lon="16.846734">
        <ele>204.745973</ele>
        <time>2020-07-01T07:46:10.999Z</time>
      </trkpt>
      <trkpt lat="48.577370" lon="16.846624">
        <ele>204.736965</ele>
        <time>2020-07-01T07:46:12.983Z</time>
      </trkpt>
      <trkpt lat="48.577447" lon="16.846517">
        <ele>204.728313</ele>
        <time>2020-07-01T07:46:14.998Z</time>
      </trkpt>
      <trkpt lat="48.577526" lon="16.846418">
        <ele>204.719824</ele>
        <time>2020-07-01T07:46:16.992Z</time>
      </trkpt>
      <trkpt lat="48.577608" lon="16.846323">
        <ele>204.711277</ele>
        <time>2020-07-01T07:46:18.959Z</time>
      </trkpt>
      <trkpt lat="48.577690" lon="16.846224">
        <ele>204.702596</ele>
        <time>2020-07-01T07:46:20.982Z</time>
      </trkpt>
      <trkpt lat="48.577766" lon="16.846127">
        <ele>204.694367</ele>
        <time>2020-07-01T07:46:22.984Z</time>
      </trkpt>
      <trkpt lat="48.577845" lon="16.846022">
        <ele>204.685665</ele>
        <time>2020-07-01T07:46:24.983Z</time>
      </trkpt>
      <trkpt lat="48.577928" lon="16.845910">
        <ele>204.676461</ele>
        <time>2020-07-01T07:46:26.991Z</time>
      </trkpt>
      <trkpt lat="48.578011" lon="16.845801">
        <ele>204.667366</ele>
        <time>2020-07-01T07:46:28.995Z</time>
      </trkpt>
      <trkpt lat="48.578093" lon="16.845686">
        <ele>204.658113</ele>
        <time>2020-07-01T07:46:30.973Z</time>
      </trkpt>
      <trkpt lat="48.578177" lon="16.845573">
        <ele>204.648811</ele>
        <time>2020-07-01T07:46:33.008Z</time>
      </trkpt>
      <trkpt lat="48.578264" lon="16.845471">
        <ele>204.639703</ele>
        <time>2020-07-01T07:46:34.966Z</time>
      </trkpt>
      <trkpt lat="48.578352" lon="16.845363">
        <ele>204.630326</ele>
        <time>2020-07-01T07:46:36.990Z</time>
      </trkpt>
      <trkpt lat="48.578435" lon="16.845255">
        <ele>204.621297</ele>
        <time>2020-07-01T07:46:38.983Z</time>
      </trkpt>
      <trkpt lat="48.578520" lon="16.845140">
        <ele>204.615905</ele>
        <time>2020-07-01T07:46:40.997Z</time>
      </trkpt>
      <trkpt lat="48.578605" lon="16.845027">
        <ele>204.610555</ele>
        <time>2020-07-01T07:46:42.990Z</time>
      </trkpt>
      <trkpt lat="48.578683" lon="16.844921">
        <ele>204.605598</ele>
        <time>2020-07-01T07:46:45.011Z</time>
      </trkpt>
      <trkpt lat="48.578759" lon="16.844810">
        <ele>204.600604</ele>
        <time>2020-07-01T07:46:46.977Z</time>
      </trkpt>
      <trkpt lat="48.578836" lon="16.844699">
        <ele>204.595575</ele>
        <time>2020-07-01T07:46:48.972Z</time>
      </trkpt>
      <trkpt lat="48.578916" lon="16.844588">
        <ele>204.590443</ele>
        <time>2020-07-01T07:46:50.989Z</time>
      </trkpt>
      <trkpt lat="48.578999" lon="16.844478">
        <ele>204.585226</ele>
        <time>2020-07-01T07:46:53.007Z</time>
      </trkpt>
      <trkpt lat="48.579086" lon="16.844377">
        <ele>204.580041</ele>
        <time>2020-07-01T07:46:54.977Z</time>
      </trkpt>
      <trkpt lat="48.579172" lon="16.844279">
        <ele>204.574951</ele>
        <time>2020-07-01T07:46:56.978Z</time>
      </trkpt>
      <trkpt lat="48.579258" lon="16.844175">
        <ele>204.569746</ele>
        <time>2020-07-01T07:46:58.959Z</time>
      </trkpt>
      <trkpt lat="48.579340" lon="16.844074">
        <ele>204.564747</ele>
        <time>2020-07-01T07:47:00.997Z</time>
      </trkpt>
      <trkpt lat="48.579422" lon="16.843962">
        <ele>204.559524</ele>
        <time>2020-07-01T07:47:02.975Z</time>
      </trkpt>
      <trkpt lat="48.579504" lon="16.843842">
        <ele>204.554130</ele>
        <time>2020-07-01T07:47:04.977Z</time>
      </trkpt>
      <trkpt lat="48.579586" lon="16.843733">
        <ele>204.548969</ele>
        <time>2020-07-01T07:47:06.976Z</time>
      </trkpt>
      <trkpt lat="48.579664" lon="16.843624">
        <ele>204.543948</ele>
        <time>2020-07-01T07:47:08.959Z</time>
      </trkpt>
      <trkpt lat="48.579740" lon="16.843514">
        <ele>204.538976</ele>
        <time>2020-07-01T07:47:10.980Z</time>
      </trkpt>
      <trkpt lat="48.579820" lon="16.843409">
        <ele>204.543825</ele>
        <time>2020-07-01T07:47:13.003Z</time>
      </trkpt>
      <trkpt lat="48.579901" lon="16.843300">
        <ele>204.560068</ele>
        <time>2020-07-01T07:47:14.997Z</time>
      </trkpt>
      <trkpt lat="48.579984" lon="16.843196">
        <ele>204.576215</ele>
        <time>2020-07-01T07:47:17.003Z</time>
      </trkpt>
      <trkpt lat="48.580066" lon="16.843097">
        <ele>204.591933</ele>
        <time>2020-07-01T07:47:18.975Z</time>
      </trkpt>
      <trkpt lat="48.580144" lon="16.843005">
        <ele>204.606751</ele>
        <time>2020-07-01T07:47:20.966Z</time>
      </trkpt>
      <trkpt lat="48.580246" lon="16.842901">
        <ele>204.625179</ele>
        <time>2020-07-01T07:47:23.953Z</time>
      </trkpt>
      <trkpt lat="48.580367" lon="16.842939">
        <ele>204.643689</ele>
        <time>2020-07-01T07:47:26.971Z</time>
      </trkpt>
      <trkpt lat="48.580456" lon="16.843023">
        <ele>204.659404</ele>
        <time>2020-07-01T07:47:28.974Z</time>
      </trkpt>
      <trkpt lat="48.580547" lon="16.843103">
        <ele>204.675171</ele>
        <time>2020-07-01T07:47:30.983Z</time>
      </trkpt>
      <trkpt lat="48.580638" lon="16.843186">
        <ele>204.691089</ele>
        <time>2020-07-01T07:47:32.960Z</time>
      </trkpt>
      <trkpt lat="48.580726" lon="16.843269">
        <ele>204.706625</ele>
        <time>2020-07-01T07:47:35.013Z</time>
      </trkpt>
      <trkpt lat="48.580811" lon="16.843353">
        <ele>204.721835</ele>
        <time>2020-07-01T07:47:36.989Z</time>
      </trkpt>
      <trkpt lat="48.580893" lon="16.843433">
        <ele>204.736453</ele>
        <time>2020-07-01T07:47:38.997Z</time>
      </trkpt>
      <trkpt lat="48.580979" lon="16.843516">
        <ele>204.751735</ele>
        <time>2020-07-01T07:47:40.983Z</time>
      </trkpt>
      <trkpt lat="48.581065" lon="16.843595">
        <ele>204.766807</ele>
        <time>2020-07-01T07:47:42.999Z</time>
      </trkpt>
      <trkpt lat="48.581152" lon="16.843672">
        <ele>204.781907</ele>
        <time>2020-07-01T07:47:44.989Z</time>
      </trkpt>
      <trkpt lat="48.581238" lon="16.843751">
        <ele>204.796980</ele>
        <time>2020-07-01T07:47:46.972Z</time>
      </trkpt>
      <trkpt lat="48.581323" lon="16.843838">
        <ele>204.815856</ele>
        <time>2020-07-01T07:47:48.989Z</time>
      </trkpt>
      <trkpt lat="48.581410" lon="16.843926">
        <ele>204.839813</ele>
        <time>2020-07-01T07:47:50.995Z</time>
      </trkpt>
      <trkpt lat="48.581495" lon="16.844006">
        <ele>204.862728</ele>
        <time>2020-07-01T07:47:53.000Z</time>
      </trkpt>
      <trkpt lat="48.581584" lon="16.844088">
        <ele>204.886582</ele>
        <time>2020-07-01T07:47:54.996Z</time>
      </trkpt>
      <trkpt lat="48.581671" lon="16.844163">
        <ele>204.909503</ele>
        <time>2020-07-01T07:47:56.968Z</time>
      </trkpt>
      <trkpt lat="48.581758" lon="16.844245">
        <ele>204.932967</ele>
        <time>2020-07-01T07:47:58.971Z</time>
      </trkpt>
      <trkpt lat="48.581848" lon="16.844335">
        <ele>204.957663</ele>
        <time>2020-07-01T07:48:00.960Z</time>
      </trkpt>
      <trkpt lat="48.581932" lon="16.844419">
        <ele>204.980713</ele>
        <time>2020-07-01T07:48:02.981Z</time>
      </trkpt>
      <trkpt lat="48.582019" lon="16.844498">
        <ele>205.003940</ele>
        <time>2020-07-01T07:48:04.974Z</time>
      </trkpt>
      <trkpt lat="48.582105" lon="16.844579">
        <ele>205.027130</ele>
        <time>2020-07-01T07:48:06.958Z</time>
      </trkpt>
      <trkpt lat="48.582192" lon="16.844658">
        <ele>205.050357</ele>
        <time>2020-07-01T07:48:08.964Z</time>
      </trkpt>
      <trkpt lat="48.582275" lon="16.844739">
        <ele>205.072966</ele>
        <time>2020-07-01T07:48:10.999Z</time>
      </trkpt>
      <trkpt lat="48.582360" lon="16.844821">
        <ele>205.096043</ele>
        <time>2020-07-01T07:48:12.978Z</time>
      </trkpt>
      <trkpt lat="48.582444" lon="16.844912">
        <ele>205.119694</ele>
        <time>2020-07-01T07:48:15.033Z</time>
      </trkpt>
      <trkpt lat="48.582526" lon="16.844999">
        <ele>205.142622</ele>
        <time>2020-07-01T07:48:16.978Z</time>
      </trkpt>
      <trkpt lat="48.582608" lon="16.845083">
        <ele>205.165291</ele>
        <time>2020-07-01T07:48:18.999Z</time>
      </trkpt>
      <trkpt lat="48.582694" lon="16.845164">
        <ele>205.188481</ele>
        <time>2020-07-01T07:48:21.008Z</time>
      </trkpt>
      <trkpt lat="48.582777" lon="16.845240">
        <ele>205.210689</ele>
        <time>2020-07-01T07:48:22.957Z</time>
      </trkpt>
      <trkpt lat="48.582881" lon="16.845319">
        <ele>205.228309</ele>
        <time>2020-07-01T07:48:25.966Z</time>
      </trkpt>
      <trkpt lat="48.583062" lon="16.845174">
        <ele>205.254019</ele>
        <time>2020-07-01T07:50:21.976Z</time>
      </trkpt>
      <trkpt lat="48.583149" lon="16.845088">
        <ele>205.267066</ele>
        <time>2020-07-01T07:50:24.980Z</time>
      </trkpt>
      <trkpt lat="48.583256" lon="16.844988">
        <ele>205.282856</ele>
        <time>2020-07-01T07:50:27.995Z</time>
      </trkpt>
      <trkpt lat="48.583372" lon="16.844879">
        <ele>205.299999</ele>
        <time>2020-07-01T07:50:30.992Z</time>
      </trkpt>
      <trkpt lat="48.583451" lon="16.844807">
        <ele>205.311577</ele>
        <time>2020-07-01T07:50:32.960Z</time>
      </trkpt>
      <trkpt lat="48.583535" lon="16.844730">
        <ele>205.323907</ele>
        <time>2020-07-01T07:50:34.990Z</time>
      </trkpt>
      <trkpt lat="48.583619" lon="16.844649">
        <ele>205.336412</ele>
        <time>2020-07-01T07:50:37.004Z</time>
      </trkpt>
      <trkpt lat="48.583709" lon="16.844570">
        <ele>205.349475</ele>
        <time>2020-07-01T07:50:39.013Z</time>
      </trkpt>
      <trkpt lat="48.583804" lon="16.844494">
        <ele>205.362965</ele>
        <time>2020-07-01T07:50:40.983Z</time>
      </trkpt>
      <trkpt lat="48.583897" lon="16.844410">
        <ele>205.376563</ele>
        <time>2020-07-01T07:50:43.002Z</time>
      </trkpt>
      <trkpt lat="48.583993" lon="16.844324">
        <ele>205.390569</ele>
        <time>2020-07-01T07:50:45.010Z</time>
      </trkpt>
      <trkpt lat="48.584088" lon="16.844243">
        <ele>205.404258</ele>
        <time>2020-07-01T07:50:46.971Z</time>
      </trkpt>
      <trkpt lat="48.584184" lon="16.844165">
        <ele>205.417937</ele>
        <time>2020-07-01T07:50:48.970Z</time>
      </trkpt>
      <trkpt lat="48.584280" lon="16.844083">
        <ele>205.431777</ele>
        <time>2020-07-01T07:50:51.004Z</time>
      </trkpt>
      <trkpt lat="48.584375" lon="16.843999">
        <ele>205.440836</ele>
        <time>2020-07-01T07:50:52.994Z</time>
      </trkpt>
      <trkpt lat="48.584472" lon="16.843914">
        <ele>205.427961</ele>
        <time>2020-07-01T07:50:54.986Z</time>
      </trkpt>
      <trkpt lat="48.584572" lon="16.843829">
        <ele>205.414786</ele>
        <time>2020-07-01T07:50:57.000Z</time>
      </trkpt>
      <trkpt lat="48.584675" lon="16.843740">
        <ele>205.401162</ele>
        <time>2020-07-01T07:50:58.979Z</time>
      </trkpt>
      <trkpt lat="48.584780" lon="16.843662">
        <ele>205.387727</ele>
        <time>2020-07-01T07:51:00.982Z</time>
      </trkpt>
      <trkpt lat="48.584883" lon="16.843577">
        <ele>205.374252</ele>
        <time>2020-07-01T07:51:02.965Z</time>
      </trkpt>
      <trkpt lat="48.584987" lon="16.843492">
        <ele>205.360675</ele>
        <time>2020-07-01T07:51:04.981Z</time>
      </trkpt>
      <trkpt lat="48.585092" lon="16.843406">
        <ele>205.346961</ele>
        <time>2020-07-01T07:51:06.982Z</time>
      </trkpt>
      <trkpt lat="48.585195" lon="16.843316">
        <ele>205.333299</ele>
        <time>2020-07-01T07:51:08.961Z</time>
      </trkpt>
      <trkpt lat="48.585297" lon="16.843228">
        <ele>205.319813</ele>
        <time>2020-07-01T07:51:10.991Z</time>
      </trkpt>
      <trkpt lat="48.585400" lon="16.843142">
        <ele>205.306301</ele>
        <time>2020-07-01T07:51:12.972Z</time>
      </trkpt>
      <trkpt lat="48.585507" lon="16.843051">
        <ele>205.292202</ele>
        <time>2020-07-01T07:51:14.961Z</time>
      </trkpt>
      <trkpt lat="48.585614" lon="16.842951">
        <ele>205.277756</ele>
        <time>2020-07-01T07:51:16.985Z</time>
      </trkpt>
      <trkpt lat="48.585723" lon="16.842857">
        <ele>205.263346</ele>
        <time>2020-07-01T07:51:18.987Z</time>
      </trkpt>
      <trkpt lat="48.585834" lon="16.842770">
        <ele>205.248987</ele>
        <time>2020-07-01T07:51:20.994Z</time>
      </trkpt>
      <trkpt lat="48.585946" lon="16.842681">
        <ele>205.230966</ele>
        <time>2020-07-01T07:51:22.968Z</time>
      </trkpt>
      <trkpt lat="48.586056" lon="16.842589">
        <ele>205.192558</ele>
        <time>2020-07-01T07:51:24.983Z</time>
      </trkpt>
      <trkpt lat="48.586163" lon="16.842495">
        <ele>205.154747</ele>
        <time>2020-07-01T07:51:26.959Z</time>
      </trkpt>
      <trkpt lat="48.586269" lon="16.842406">
        <ele>205.117701</ele>
        <time>2020-07-01T07:51:28.983Z</time>
      </trkpt>
      <trkpt lat="48.586370" lon="16.842320">
        <ele>205.082285</ele>
        <time>2020-07-01T07:51:30.963Z</time>
      </trkpt>
      <trkpt lat="48.586473" lon="16.842239">
        <ele>205.046812</ele>
        <time>2020-07-01T07:51:32.960Z</time>
      </trkpt>
      <trkpt lat="48.586569" lon="16.842154">
        <ele>205.012821</ele>
        <time>2020-07-01T07:51:35.015Z</time>
      </trkpt>
      <trkpt lat="48.586666" lon="16.842073">
        <ele>204.978965</ele>
        <time>2020-07-01T07:51:36.957Z</time>
      </trkpt>
      <trkpt lat="48.586765" lon="16.841991">
        <ele>204.944475</ele>
        <time>2020-07-01T07:51:39.000Z</time>
      </trkpt>
      <trkpt lat="48.586861" lon="16.841907">
        <ele>204.910586</ele>
        <time>2020-07-01T07:51:40.964Z</time>
      </trkpt>
      <trkpt lat="48.586954" lon="16.841829">
        <ele>204.878092</ele>
        <time>2020-07-01T07:51:42.953Z</time>
      </trkpt>
      <trkpt lat="48.587049" lon="16.841756">
        <ele>204.845533</ele>
        <time>2020-07-01T07:51:45.012Z</time>
      </trkpt>
      <trkpt lat="48.587145" lon="16.841678">
        <ele>204.812234</ele>
        <time>2020-07-01T07:51:46.966Z</time>
      </trkpt>
      <trkpt lat="48.587246" lon="16.841601">
        <ele>204.777674</ele>
        <time>2020-07-01T07:51:48.976Z</time>
      </trkpt>
      <trkpt lat="48.587351" lon="16.841524">
        <ele>204.742019</ele>
        <time>2020-07-01T07:51:51.030Z</time>
      </trkpt>
      <trkpt lat="48.587438" lon="16.841409">
        <ele>204.706710</ele>
        <time>2020-07-01T07:51:52.991Z</time>
      </trkpt>
      <trkpt lat="48.587496" lon="16.841261">
        <ele>204.631933</ele>
        <time>2020-07-01T07:51:54.971Z</time>
      </trkpt>
      <trkpt lat="48.587548" lon="16.841104">
        <ele>204.502309</ele>
        <time>2020-07-01T07:51:56.980Z</time>
      </trkpt>
      <trkpt lat="48.587575" lon="16.840926">
        <ele>204.367490</ele>
        <time>2020-07-01T07:51:58.974Z</time>
      </trkpt>
      <trkpt lat="48.587607" lon="16.840752">
        <ele>204.234162</ele>
        <time>2020-07-01T07:52:00.967Z</time>
      </trkpt>
      <trkpt lat="48.587635" lon="16.840578">
        <ele>204.101960</ele>
        <time>2020-07-01T07:52:03.008Z</time>
      </trkpt>
      <trkpt lat="48.587666" lon="16.840402">
        <ele>203.967501</ele>
        <time>2020-07-01T07:52:04.996Z</time>
      </trkpt>
      <trkpt lat="48.587692" lon="16.840225">
        <ele>203.833647</ele>
        <time>2020-07-01T07:52:06.988Z</time>
      </trkpt>
      <trkpt lat="48.587725" lon="16.840056">
        <ele>203.703561</ele>
        <time>2020-07-01T07:52:08.994Z</time>
      </trkpt>
      <trkpt lat="48.587758" lon="16.839886">
        <ele>203.572766</ele>
        <time>2020-07-01T07:52:10.966Z</time>
      </trkpt>
      <trkpt lat="48.587789" lon="16.839714">
        <ele>203.441158</ele>
        <time>2020-07-01T07:52:12.959Z</time>
      </trkpt>
      <trkpt lat="48.587820" lon="16.839540">
        <ele>203.308125</ele>
        <time>2020-07-01T07:52:14.965Z</time>
      </trkpt>
      <trkpt lat="48.587856" lon="16.839373">
        <ele>203.178457</ele>
        <time>2020-07-01T07:52:16.963Z</time>
      </trkpt>
      <trkpt lat="48.587889" lon="16.839206">
        <ele>203.049786</ele>
        <time>2020-07-01T07:52:18.957Z</time>
      </trkpt>
      <trkpt lat="48.587918" lon="16.839030">
        <ele>202.915884</ele>
        <time>2020-07-01T07:52:20.960Z</time>
      </trkpt>
      <trkpt lat="48.587947" lon="16.838858">
        <ele>202.784846</ele>
        <time>2020-07-01T07:52:22.973Z</time>
      </trkpt>
      <trkpt lat="48.587974" lon="16.838688">
        <ele>202.683789</ele>
        <time>2020-07-01T07:52:24.962Z</time>
      </trkpt>
      <trkpt lat="48.588003" lon="16.838528">
        <ele>202.705217</ele>
        <time>2020-07-01T07:52:26.960Z</time>
      </trkpt>
      <trkpt lat="48.588039" lon="16.838369">
        <ele>202.726923</ele>
        <time>2020-07-01T07:52:28.958Z</time>
      </trkpt>
      <trkpt lat="48.588073" lon="16.838206">
        <ele>202.748998</ele>
        <time>2020-07-01T07:52:30.968Z</time>
      </trkpt>
      <trkpt lat="48.588103" lon="16.838040">
        <ele>202.771225</ele>
        <time>2020-07-01T07:52:32.969Z</time>
      </trkpt>
      <trkpt lat="48.588135" lon="16.837870">
        <ele>202.794054</ele>
        <time>2020-07-01T07:52:34.964Z</time>
      </trkpt>
      <trkpt lat="48.588170" lon="16.837704">
        <ele>202.816557</ele>
        <time>2020-07-01T07:52:36.960Z</time>
      </trkpt>
      <trkpt lat="48.588204" lon="16.837530">
        <ele>202.839991</ele>
        <time>2020-07-01T07:52:38.980Z</time>
      </trkpt>
      <trkpt lat="48.588238" lon="16.837358">
        <ele>202.863177</ele>
        <time>2020-07-01T07:52:40.955Z</time>
      </trkpt>
      <trkpt lat="48.588274" lon="16.837185">
        <ele>202.886602</ele>
        <time>2020-07-01T07:52:42.990Z</time>
      </trkpt>
      <trkpt lat="48.588309" lon="16.837010">
        <ele>202.910215</ele>
        <time>2020-07-01T07:52:44.985Z</time>
      </trkpt>
      <trkpt lat="48.588344" lon="16.836833">
        <ele>202.934076</ele>
        <time>2020-07-01T07:52:46.998Z</time>
      </trkpt>
      <trkpt lat="48.588381" lon="16.836662">
        <ele>202.957314</ele>
        <time>2020-07-01T07:52:48.983Z</time>
      </trkpt>
      <trkpt lat="48.588419" lon="16.836493">
        <ele>202.980369</ele>
        <time>2020-07-01T07:52:50.998Z</time>
      </trkpt>
      <trkpt lat="48.588455" lon="16.836320">
        <ele>203.003793</ele>
        <time>2020-07-01T07:52:52.990Z</time>
      </trkpt>
      <trkpt lat="48.588491" lon="16.836147">
        <ele>203.027217</ele>
        <time>2020-07-01T07:52:54.984Z</time>
      </trkpt>
      <trkpt lat="48.588525" lon="16.835973">
        <ele>203.090525</ele>
        <time>2020-07-01T07:52:56.990Z</time>
      </trkpt>
      <trkpt lat="48.588556" lon="16.835803">
        <ele>203.159115</ele>
        <time>2020-07-01T07:52:58.981Z</time>
      </trkpt>
      <trkpt lat="48.588587" lon="16.835633">
        <ele>203.227704</ele>
        <time>2020-07-01T07:53:00.962Z</time>
      </trkpt>
      <trkpt lat="48.588619" lon="16.835465">
        <ele>203.295704</ele>
        <time>2020-07-01T07:53:02.964Z</time>
      </trkpt>
      <trkpt lat="48.588654" lon="16.835299">
        <ele>203.363471</ele>
        <time>2020-07-01T07:53:04.975Z</time>
      </trkpt>
      <trkpt lat="48.588690" lon="16.835133">
        <ele>203.431419</ele>
        <time>2020-07-01T07:53:06.961Z</time>
      </trkpt>
      <trkpt lat="48.588726" lon="16.834974">
        <ele>203.496786</ele>
        <time>2020-07-01T07:53:08.982Z</time>
      </trkpt>
      <trkpt lat="48.588764" lon="16.834806">
        <ele>203.565845</ele>
        <time>2020-07-01T07:53:10.978Z</time>
      </trkpt>
      <trkpt lat="48.588799" lon="16.834641">
        <ele>203.633242</ele>
        <time>2020-07-01T07:53:12.962Z</time>
      </trkpt>
      <trkpt lat="48.588833" lon="16.834481">
        <ele>203.698607</ele>
        <time>2020-07-01T07:53:14.961Z</time>
      </trkpt>
      <trkpt lat="48.588880" lon="16.834327">
        <ele>203.764574</ele>
        <time>2020-07-01T07:53:16.957Z</time>
      </trkpt>
      <trkpt lat="48.588944" lon="16.834182">
        <ele>203.832376</ele>
        <time>2020-07-01T07:53:18.979Z</time>
      </trkpt>
      <trkpt lat="48.589008" lon="16.834038">
        <ele>203.899854</ele>
        <time>2020-07-01T07:53:20.975Z</time>
      </trkpt>
      <trkpt lat="48.589074" lon="16.833892">
        <ele>203.968636</ele>
        <time>2020-07-01T07:53:22.968Z</time>
      </trkpt>
      <trkpt lat="48.589142" lon="16.833751">
        <ele>204.036507</ele>
        <time>2020-07-01T07:53:24.992Z</time>
      </trkpt>
      <trkpt lat="48.589209" lon="16.833609">
        <ele>204.092058</ele>
        <time>2020-07-01T07:53:26.992Z</time>
      </trkpt>
      <trkpt lat="48.589275" lon="16.833464">
        <ele>204.107512</ele>
        <time>2020-07-01T07:53:29.002Z</time>
      </trkpt>
      <trkpt lat="48.589342" lon="16.833325">
        <ele>204.122612</ele>
        <time>2020-07-01T07:53:30.988Z</time>
      </trkpt>
      <trkpt lat="48.589409" lon="16.833187">
        <ele>204.137642</ele>
        <time>2020-07-01T07:53:32.999Z</time>
      </trkpt>
      <trkpt lat="48.589471" lon="16.833045">
        <ele>204.152581</ele>
        <time>2020-07-01T07:53:34.970Z</time>
      </trkpt>
      <trkpt lat="48.589537" lon="16.832914">
        <ele>204.167039</ele>
        <time>2020-07-01T07:53:36.989Z</time>
      </trkpt>
      <trkpt lat="48.589609" lon="16.832779">
        <ele>204.182265</ele>
        <time>2020-07-01T07:53:38.974Z</time>
      </trkpt>
      <trkpt lat="48.589681" lon="16.832641">
        <ele>204.197696</ele>
        <time>2020-07-01T07:53:40.981Z</time>
      </trkpt>
      <trkpt lat="48.589753" lon="16.832499">
        <ele>204.213405</ele>
        <time>2020-07-01T07:53:42.974Z</time>
      </trkpt>
      <trkpt lat="48.589826" lon="16.832356">
        <ele>204.229265</ele>
        <time>2020-07-01T07:53:44.995Z</time>
      </trkpt>
      <trkpt lat="48.589899" lon="16.832212">
        <ele>204.245194</ele>
        <time>2020-07-01T07:53:46.976Z</time>
      </trkpt>
      <trkpt lat="48.589967" lon="16.832068">
        <ele>204.260728</ele>
        <time>2020-07-01T07:53:48.967Z</time>
      </trkpt>
      <trkpt lat="48.590034" lon="16.831923">
        <ele>204.276258</ele>
        <time>2020-07-01T07:53:50.989Z</time>
      </trkpt>
      <trkpt lat="48.590103" lon="16.831785">
        <ele>204.291446</ele>
        <time>2020-07-01T07:53:52.987Z</time>
      </trkpt>
      <trkpt lat="48.590172" lon="16.831644">
        <ele>204.306845</ele>
        <time>2020-07-01T07:53:54.969Z</time>
      </trkpt>
      <trkpt lat="48.590242" lon="16.831503">
        <ele>204.322324</ele>
        <time>2020-07-01T07:53:56.996Z</time>
      </trkpt>
      <trkpt lat="48.590308" lon="16.831367">
        <ele>204.291383</ele>
        <time>2020-07-01T07:53:58.985Z</time>
      </trkpt>
      <trkpt lat="48.590372" lon="16.831228">
        <ele>204.237628</ele>
        <time>2020-07-01T07:54:00.995Z</time>
      </trkpt>
      <trkpt lat="48.590435" lon="16.831093">
        <ele>204.185188</ele>
        <time>2020-07-01T07:54:02.994Z</time>
      </trkpt>
      <trkpt lat="48.590500" lon="16.830967">
        <ele>204.134471</ele>
        <time>2020-07-01T07:54:04.969Z</time>
      </trkpt>
      <trkpt lat="48.590597" lon="16.830958">
        <ele>204.087837</ele>
        <time>2020-07-01T07:54:06.992Z</time>
      </trkpt>
      <trkpt lat="48.590700" lon="16.830959">
        <ele>204.038411</ele>
        <time>2020-07-01T07:54:08.974Z</time>
      </trkpt>
      <trkpt lat="48.590813" lon="16.830969">
        <ele>203.984094</ele>
        <time>2020-07-01T07:54:10.991Z</time>
      </trkpt>
      <trkpt lat="48.590936" lon="16.831013">
        <ele>203.923441</ele>
        <time>2020-07-01T07:54:13.990Z</time>
      </trkpt>
      <trkpt lat="48.591019" lon="16.831116">
        <ele>203.871914</ele>
        <time>2020-07-01T07:54:16.006Z</time>
      </trkpt>
      <trkpt lat="48.591100" lon="16.831219">
        <ele>203.821126</ele>
        <time>2020-07-01T07:54:17.983Z</time>
      </trkpt>
      <trkpt lat="48.591198" lon="16.831391">
        <ele>203.749072</ele>
        <time>2020-07-01T07:54:20.007Z</time>
      </trkpt>
      <trkpt lat="48.591284" lon="16.831503">
        <ele>203.694605</ele>
        <time>2020-07-01T07:54:22.002Z</time>
      </trkpt>
      <trkpt lat="48.591394" lon="16.831589">
        <ele>203.635181</ele>
        <time>2020-07-01T07:54:23.977Z</time>
      </trkpt>
      <trkpt lat="48.591476" lon="16.831516">
        <ele>203.589517</ele>
        <time>2020-07-01T07:54:25.985Z</time>
      </trkpt>
      <trkpt lat="48.591539" lon="16.831374">
        <ele>203.535248</ele>
        <time>2020-07-01T07:54:27.969Z</time>
      </trkpt>
      <trkpt lat="48.591602" lon="16.831229">
        <ele>203.480185</ele>
        <time>2020-07-01T07:54:29.981Z</time>
      </trkpt>
      <trkpt lat="48.591661" lon="16.831079">
        <ele>203.447869</ele>
        <time>2020-07-01T07:54:31.958Z</time>
      </trkpt>
      <trkpt lat="48.591720" lon="16.830936">
        <ele>203.425760</ele>
        <time>2020-07-01T07:54:34.001Z</time>
      </trkpt>
      <trkpt lat="48.591782" lon="16.830787">
        <ele>203.402668</ele>
        <time>2020-07-01T07:54:35.989Z</time>
      </trkpt>
      <trkpt lat="48.591846" lon="16.830643">
        <ele>203.379910</ele>
        <time>2020-07-01T07:54:37.951Z</time>
      </trkpt>
      <trkpt lat="48.591908" lon="16.830497">
        <ele>203.357151</ele>
        <time>2020-07-01T07:54:39.959Z</time>
      </trkpt>
      <trkpt lat="48.591971" lon="16.830339">
        <ele>203.332950</ele>
        <time>2020-07-01T07:54:41.974Z</time>
      </trkpt>
      <trkpt lat="48.592035" lon="16.830183">
        <ele>203.308869</ele>
        <time>2020-07-01T07:54:43.962Z</time>
      </trkpt>
      <trkpt lat="48.592090" lon="16.830028">
        <ele>203.285795</ele>
        <time>2020-07-01T07:54:45.976Z</time>
      </trkpt>
      <trkpt lat="48.592146" lon="16.829882">
        <ele>203.263656</ele>
        <time>2020-07-01T07:54:47.966Z</time>
      </trkpt>
      <trkpt lat="48.592202" lon="16.829742">
        <ele>203.242194</ele>
        <time>2020-07-01T07:54:49.993Z</time>
      </trkpt>
      <trkpt lat="48.592252" lon="16.829592">
        <ele>203.220159</ele>
        <time>2020-07-01T07:54:51.988Z</time>
      </trkpt>
      <trkpt lat="48.592305" lon="16.829457">
        <ele>203.199566</ele>
        <time>2020-07-01T07:54:54.002Z</time>
      </trkpt>
      <trkpt lat="48.592366" lon="16.829320">
        <ele>203.177902</ele>
        <time>2020-07-01T07:54:55.974Z</time>
      </trkpt>
      <trkpt lat="48.592429" lon="16.829177">
        <ele>203.155363</ele>
        <time>2020-07-01T07:54:57.958Z</time>
      </trkpt>
      <trkpt lat="48.592490" lon="16.829040">
        <ele>203.133699</ele>
        <time>2020-07-01T07:54:59.974Z</time>
      </trkpt>
      <trkpt lat="48.592549" lon="16.828893">
        <ele>203.111143</ele>
        <time>2020-07-01T07:55:01.963Z</time>
      </trkpt>
      <trkpt lat="48.592604" lon="16.828742">
        <ele>203.103623</ele>
        <time>2020-07-01T07:55:03.986Z</time>
      </trkpt>
      <trkpt lat="48.592654" lon="16.828590">
        <ele>203.099165</ele>
        <time>2020-07-01T07:55:05.996Z</time>
      </trkpt>
      <trkpt lat="48.592704" lon="16.828442">
        <ele>203.094800</ele>
        <time>2020-07-01T07:55:07.975Z</time>
      </trkpt>
      <trkpt lat="48.592756" lon="16.828292">
        <ele>203.090352</ele>
        <time>2020-07-01T07:55:09.974Z</time>
      </trkpt>
      <trkpt lat="48.592810" lon="16.828149">
        <ele>203.086027</ele>
        <time>2020-07-01T07:55:11.961Z</time>
      </trkpt>
      <trkpt lat="48.592864" lon="16.828012">
        <ele>203.081839</ele>
        <time>2020-07-01T07:55:13.982Z</time>
      </trkpt>
      <trkpt lat="48.592920" lon="16.827871">
        <ele>203.077519</ele>
        <time>2020-07-01T07:55:16.001Z</time>
      </trkpt>
      <trkpt lat="48.592982" lon="16.827733">
        <ele>203.073138</ele>
        <time>2020-07-01T07:55:17.973Z</time>
      </trkpt>
      <trkpt lat="48.593041" lon="16.827589">
        <ele>203.068689</ele>
        <time>2020-07-01T07:55:20.005Z</time>
      </trkpt>
      <trkpt lat="48.593094" lon="16.827451">
        <ele>203.064498</ele>
        <time>2020-07-01T07:55:21.963Z</time>
      </trkpt>
      <trkpt lat="48.593150" lon="16.827308">
        <ele>203.060134</ele>
        <time>2020-07-01T07:55:23.991Z</time>
      </trkpt>
      <trkpt lat="48.593205" lon="16.827160">
        <ele>203.055675</ele>
        <time>2020-07-01T07:55:25.990Z</time>
      </trkpt>
      <trkpt lat="48.593259" lon="16.827013">
        <ele>203.051259</ele>
        <time>2020-07-01T07:55:28.014Z</time>
      </trkpt>
      <trkpt lat="48.593314" lon="16.826869">
        <ele>203.046892</ele>
        <time>2020-07-01T07:55:29.995Z</time>
      </trkpt>
      <trkpt lat="48.593370" lon="16.826719">
        <ele>203.042368</ele>
        <time>2020-07-01T07:55:32.008Z</time>
      </trkpt>
      <trkpt lat="48.593430" lon="16.826575">
        <ele>203.037898</ele>
        <time>2020-07-01T07:55:33.993Z</time>
      </trkpt>
      <trkpt lat="48.593489" lon="16.826430">
        <ele>203.048458</ele>
        <time>2020-07-01T07:55:36.002Z</time>
      </trkpt>
      <trkpt lat="48.593548" lon="16.826277">
        <ele>203.071192</ele>
        <time>2020-07-01T07:55:37.992Z</time>
      </trkpt>
      <trkpt lat="48.593605" lon="16.826121">
        <ele>203.094070</ele>
        <time>2020-07-01T07:55:39.996Z</time>
      </trkpt>
      <trkpt lat="48.593662" lon="16.825965">
        <ele>203.116947</ele>
        <time>2020-07-01T07:55:41.975Z</time>
      </trkpt>
      <trkpt lat="48.593716" lon="16.825817">
        <ele>203.138644</ele>
        <time>2020-07-01T07:55:43.967Z</time>
      </trkpt>
      <trkpt lat="48.593783" lon="16.825676">
        <ele>203.160930</ele>
        <time>2020-07-01T07:55:45.961Z</time>
      </trkpt>
      <trkpt lat="48.593856" lon="16.825538">
        <ele>203.183613</ele>
        <time>2020-07-01T07:55:47.958Z</time>
      </trkpt>
      <trkpt lat="48.593932" lon="16.825406">
        <ele>203.206078</ele>
        <time>2020-07-01T07:55:49.963Z</time>
      </trkpt>
      <trkpt lat="48.594010" lon="16.825278">
        <ele>203.228419</ele>
        <time>2020-07-01T07:55:52.021Z</time>
      </trkpt>
      <trkpt lat="48.594087" lon="16.825146">
        <ele>203.251012</ele>
        <time>2020-07-01T07:55:53.968Z</time>
      </trkpt>
      <trkpt lat="48.594162" lon="16.825012">
        <ele>203.273545</ele>
        <time>2020-07-01T07:55:56.000Z</time>
      </trkpt>
      <trkpt lat="48.594235" lon="16.824876">
        <ele>203.296028</ele>
        <time>2020-07-01T07:55:58.003Z</time>
      </trkpt>
      <trkpt lat="48.594304" lon="16.824731">
        <ele>203.318957</ele>
        <time>2020-07-01T07:55:59.987Z</time>
      </trkpt>
      <trkpt lat="48.594382" lon="16.824594">
        <ele>203.342161</ele>
        <time>2020-07-01T07:56:01.958Z</time>
      </trkpt>
      <trkpt lat="48.594464" lon="16.824455">
        <ele>203.366070</ele>
        <time>2020-07-01T07:56:03.977Z</time>
      </trkpt>
      <trkpt lat="48.594529" lon="16.824343">
        <ele>203.385082</ele>
        <time>2020-07-01T07:56:05.980Z</time>
      </trkpt>
      <trkpt lat="48.594609" lon="16.824199">
        <ele>203.388639</ele>
        <time>2020-07-01T07:56:07.961Z</time>
      </trkpt>
      <trkpt lat="48.594699" lon="16.824070">
        <ele>203.392185</ele>
        <time>2020-07-01T07:56:09.984Z</time>
      </trkpt>
      <trkpt lat="48.594783" lon="16.823942">
        <ele>203.395595</ele>
        <time>2020-07-01T07:56:11.988Z</time>
      </trkpt>
      <trkpt lat="48.594863" lon="16.823813">
        <ele>203.398940</ele>
        <time>2020-07-01T07:56:13.962Z</time>
      </trkpt>
      <trkpt lat="48.594950" lon="16.823686">
        <ele>203.402398</ele>
        <time>2020-07-01T07:56:15.978Z</time>
      </trkpt>
      <trkpt lat="48.595029" lon="16.823564">
        <ele>203.405627</ele>
        <time>2020-07-01T07:56:17.970Z</time>
      </trkpt>
      <trkpt lat="48.595104" lon="16.823462">
        <ele>203.408511</ele>
        <time>2020-07-01T07:56:19.963Z</time>
      </trkpt>
      <trkpt lat="48.595187" lon="16.823335">
        <ele>203.411888</ele>
        <time>2020-07-01T07:56:22.958Z</time>
      </trkpt>
      <trkpt lat="48.595298" lon="16.823351">
        <ele>203.415076</ele>
        <time>2020-07-01T07:56:26.980Z</time>
      </trkpt>
      <trkpt lat="48.595389" lon="16.823437">
        <ele>203.418145</ele>
        <time>2020-07-01T07:56:29.963Z</time>
      </trkpt>
      <trkpt lat="48.595489" lon="16.823522">
        <ele>203.421425</ele>
        <time>2020-07-01T07:56:32.999Z</time>
      </trkpt>
      <trkpt lat="48.595624" lon="16.823471">
        <ele>203.425404</ele>
        <time>2020-07-01T07:56:35.997Z</time>
      </trkpt>
      <trkpt lat="48.595723" lon="16.823366">
        <ele>203.428862</ele>
        <time>2020-07-01T07:56:37.969Z</time>
      </trkpt>
      <trkpt lat="48.595825" lon="16.823269">
        <ele>203.432308</ele>
        <time>2020-07-01T07:56:39.982Z</time>
      </trkpt>
      <trkpt lat="48.595933" lon="16.823172">
        <ele>203.435900</ele>
        <time>2020-07-01T07:56:41.979Z</time>
      </trkpt>
      <trkpt lat="48.596045" lon="16.823078">
        <ele>203.569743</ele>
        <time>2020-07-01T07:56:43.979Z</time>
      </trkpt>
      <trkpt lat="48.596154" lon="16.822982">
        <ele>203.726395</ele>
        <time>2020-07-01T07:56:45.988Z</time>
      </trkpt>
      <trkpt lat="48.596257" lon="16.822875">
        <ele>203.881587</ele>
        <time>2020-07-01T07:56:47.969Z</time>
      </trkpt>
      <trkpt lat="48.596357" lon="16.822764">
        <ele>204.035643</ele>
        <time>2020-07-01T07:56:49.980Z</time>
      </trkpt>
      <trkpt lat="48.596452" lon="16.822653">
        <ele>204.184740</ele>
        <time>2020-07-01T07:56:52.006Z</time>
      </trkpt>
      <trkpt lat="48.596537" lon="16.822576">
        <ele>204.307793</ele>
        <time>2020-07-01T07:56:53.975Z</time>
      </trkpt>
      <trkpt lat="48.596627" lon="16.822485">
        <ele>204.442247</ele>
        <time>2020-07-01T07:56:55.968Z</time>
      </trkpt>
      <trkpt lat="48.596717" lon="16.822391">
        <ele>204.578086</ele>
        <time>2020-07-01T07:56:57.962Z</time>
      </trkpt>
      <trkpt lat="48.596809" lon="16.822295">
        <ele>204.716902</ele>
        <time>2020-07-01T07:56:59.977Z</time>
      </trkpt>
      <trkpt lat="48.596900" lon="16.822196">
        <ele>204.856123</ele>
        <time>2020-07-01T07:57:01.986Z</time>
      </trkpt>
      <trkpt lat="48.596991" lon="16.822098">
        <ele>204.994865</ele>
        <time>2020-07-01T07:57:03.964Z</time>
      </trkpt>
      <trkpt lat="48.597086" lon="16.822008">
        <ele>205.134086</ele>
        <time>2020-07-01T07:57:05.982Z</time>
      </trkpt>
      <trkpt lat="48.597188" lon="16.821918">
        <ele>205.280745</ele>
        <time>2020-07-01T07:57:07.973Z</time>
      </trkpt>
      <trkpt lat="48.597295" lon="16.821826">
        <ele>205.433605</ele>
        <time>2020-07-01T07:57:09.989Z</time>
      </trkpt>
      <trkpt lat="48.597399" lon="16.821732">
        <ele>205.584074</ele>
        <time>2020-07-01T07:57:11.994Z</time>
      </trkpt>
      <trkpt lat="48.597501" lon="16.821641">
        <ele>205.675391</ele>
        <time>2020-07-01T07:57:14.006Z</time>
      </trkpt>
      <trkpt lat="48.597610" lon="16.821548">
        <ele>205.688725</ele>
        <time>2020-07-01T07:57:15.989Z</time>
      </trkpt>
      <trkpt lat="48.597711" lon="16.821469">
        <ele>205.700840</ele>
        <time>2020-07-01T07:57:17.994Z</time>
      </trkpt>
      <trkpt lat="48.597808" lon="16.821393">
        <ele>205.712480</ele>
        <time>2020-07-01T07:57:19.964Z</time>
      </trkpt>
      <trkpt lat="48.597910" lon="16.821308">
        <ele>205.724888</ele>
        <time>2020-07-01T07:57:21.986Z</time>
      </trkpt>
      <trkpt lat="48.598008" lon="16.821231">
        <ele>205.736654</ele>
        <time>2020-07-01T07:57:23.977Z</time>
      </trkpt>
      <trkpt lat="48.598106" lon="16.821157">
        <ele>205.748324</ele>
        <time>2020-07-01T07:57:25.976Z</time>
      </trkpt>
      <trkpt lat="48.598210" lon="16.821087">
        <ele>205.760452</ele>
        <time>2020-07-01T07:57:27.980Z</time>
      </trkpt>
      <trkpt lat="48.598321" lon="16.821032">
        <ele>205.772897</ele>
        <time>2020-07-01T07:57:29.962Z</time>
      </trkpt>
      <trkpt lat="48.598432" lon="16.820980">
        <ele>205.785278</ele>
        <time>2020-07-01T07:57:31.983Z</time>
      </trkpt>
      <trkpt lat="48.598543" lon="16.820928">
        <ele>205.797658</ele>
        <time>2020-07-01T07:57:33.994Z</time>
      </trkpt>
      <trkpt lat="48.598657" lon="16.820885">
        <ele>205.810176</ele>
        <time>2020-07-01T07:57:35.974Z</time>
      </trkpt>
      <trkpt lat="48.598762" lon="16.820857">
        <ele>205.821535</ele>
        <time>2020-07-01T07:57:37.968Z</time>
      </trkpt>
      <trkpt lat="48.598878" lon="16.820814">
        <ele>205.834259</ele>
        <time>2020-07-01T07:57:39.988Z</time>
      </trkpt>
      <trkpt lat="48.598993" lon="16.820764">
        <ele>205.847008</ele>
        <time>2020-07-01T07:57:41.982Z</time>
      </trkpt>
      <trkpt lat="48.599110" lon="16.820712">
        <ele>205.860000</ele>
        <time>2020-07-01T07:57:43.991Z</time>
      </trkpt>
      <trkpt lat="48.599226" lon="16.820656">
        <ele>205.834955</ele>
        <time>2020-07-01T07:57:45.985Z</time>
      </trkpt>
      <trkpt lat="48.599342" lon="16.820605">
        <ele>205.804090</ele>
        <time>2020-07-01T07:57:47.989Z</time>
      </trkpt>
      <trkpt lat="48.599458" lon="16.820559">
        <ele>205.773449</ele>
        <time>2020-07-01T07:57:49.985Z</time>
      </trkpt>
      <trkpt lat="48.599570" lon="16.820509">
        <ele>205.743612</ele>
        <time>2020-07-01T07:57:51.981Z</time>
      </trkpt>
      <trkpt lat="48.599682" lon="16.820468">
        <ele>205.714169</ele>
        <time>2020-07-01T07:57:53.981Z</time>
      </trkpt>
      <trkpt lat="48.599789" lon="16.820423">
        <ele>205.685793</ele>
        <time>2020-07-01T07:57:55.956Z</time>
      </trkpt>
      <trkpt lat="48.599892" lon="16.820375">
        <ele>205.658255</ele>
        <time>2020-07-01T07:57:57.990Z</time>
      </trkpt>
      <trkpt lat="48.599998" lon="16.820312">
        <ele>205.629155</ele>
        <time>2020-07-01T07:57:59.964Z</time>
      </trkpt>
      <trkpt lat="48.600101" lon="16.820247">
        <ele>205.600639</ele>
        <time>2020-07-01T07:58:02.000Z</time>
      </trkpt>
      <trkpt lat="48.600199" lon="16.820183">
        <ele>205.573364</ele>
        <time>2020-07-01T07:58:04.002Z</time>
      </trkpt>
      <trkpt lat="48.600299" lon="16.820120">
        <ele>205.545686</ele>
        <time>2020-07-01T07:58:05.961Z</time>
      </trkpt>
      <trkpt lat="48.600401" lon="16.820056">
        <ele>205.517470</ele>
        <time>2020-07-01T07:58:07.969Z</time>
      </trkpt>
      <trkpt lat="48.600491" lon="16.819954">
        <ele>205.488733</ele>
        <time>2020-07-01T07:58:09.983Z</time>
      </trkpt>
      <trkpt lat="48.600581" lon="16.819847">
        <ele>205.459482</ele>
        <time>2020-07-01T07:58:11.982Z</time>
      </trkpt>
      <trkpt lat="48.600672" lon="16.819740">
        <ele>205.430030</ele>
        <time>2020-07-01T07:58:13.978Z</time>
      </trkpt>
      <trkpt lat="48.600754" lon="16.819643">
        <ele>205.403430</ele>
        <time>2020-07-01T07:58:15.970Z</time>
      </trkpt>
      <trkpt lat="48.600837" lon="16.819550">
        <ele>205.490023</ele>
        <time>2020-07-01T07:58:17.990Z</time>
      </trkpt>
      <trkpt lat="48.600932" lon="16.819450">
        <ele>205.593075</ele>
        <time>2020-07-01T07:58:19.984Z</time>
      </trkpt>
      <trkpt lat="48.601035" lon="16.819351">
        <ele>205.701732</ele>
        <time>2020-07-01T07:58:21.974Z</time>
      </trkpt>
      <trkpt lat="48.601134" lon="16.819256">
        <ele>205.806120</ele>
        <time>2020-07-01T07:58:23.960Z</time>
      </trkpt>
      <trkpt lat="48.601243" lon="16.819171">
        <ele>205.915306</ele>
        <time>2020-07-01T07:58:26.006Z</time>
      </trkpt>
      <trkpt lat="48.601355" lon="16.819081">
        <ele>206.028224</ele>
        <time>2020-07-01T07:58:27.979Z</time>
      </trkpt>
      <trkpt lat="48.601461" lon="16.818995">
        <ele>206.135321</ele>
        <time>2020-07-01T07:58:29.970Z</time>
      </trkpt>
      <trkpt lat="48.601561" lon="16.818903">
        <ele>206.239533</ele>
        <time>2020-07-01T07:58:31.964Z</time>
      </trkpt>
      <trkpt lat="48.601639" lon="16.818778">
        <ele>206.340717</ele>
        <time>2020-07-01T07:58:33.961Z</time>
      </trkpt>
      <trkpt lat="48.601706" lon="16.818633">
        <ele>206.444860</ele>
        <time>2020-07-01T07:58:35.975Z</time>
      </trkpt>
      <trkpt lat="48.601795" lon="16.818517">
        <ele>206.549467</ele>
        <time>2020-07-01T07:58:37.967Z</time>
      </trkpt>
      <trkpt lat="48.601849" lon="16.818401">
        <ele>206.632986</ele>
        <time>2020-07-01T07:58:39.986Z</time>
      </trkpt>
      <trkpt lat="48.601709" lon="16.818303">
        <ele>206.770334</ele>
        <time>2020-07-01T07:58:42.954Z</time>
      </trkpt>
      <trkpt lat="48.601575" lon="16.818215">
        <ele>206.900398</ele>
        <time>2020-07-01T07:58:44.993Z</time>
      </trkpt>
      <trkpt lat="48.601443" lon="16.818113">
        <ele>207.010084</ele>
        <time>2020-07-01T07:58:47.002Z</time>
      </trkpt>
      <trkpt lat="48.601326" lon="16.818023">
        <ele>207.036551</ele>
        <time>2020-07-01T07:58:48.967Z</time>
      </trkpt>
      <trkpt lat="48.601220" lon="16.817940">
        <ele>207.060617</ele>
        <time>2020-07-01T07:58:50.988Z</time>
      </trkpt>
      <trkpt lat="48.601133" lon="16.817824">
        <ele>207.084003</ele>
        <time>2020-07-01T07:58:52.998Z</time>
      </trkpt>
      <trkpt lat="48.601041" lon="16.817711">
        <ele>207.107900</ele>
        <time>2020-07-01T07:58:54.986Z</time>
      </trkpt>
      <trkpt lat="48.600946" lon="16.817603">
        <ele>207.131863</ele>
        <time>2020-07-01T07:58:56.971Z</time>
      </trkpt>
      <trkpt lat="48.600892" lon="16.817439">
        <ele>207.156290</ele>
        <time>2020-07-01T07:58:58.963Z</time>
      </trkpt>
      <trkpt lat="48.600904" lon="16.817258">
        <ele>207.180543</ele>
        <time>2020-07-01T07:59:00.957Z</time>
      </trkpt>
      <trkpt lat="48.600924" lon="16.817084">
        <ele>207.204091</ele>
        <time>2020-07-01T07:59:02.972Z</time>
      </trkpt>
      <trkpt lat="48.600947" lon="16.816910">
        <ele>207.227749</ele>
        <time>2020-07-01T07:59:04.989Z</time>
      </trkpt>
      <trkpt lat="48.600971" lon="16.816741">
        <ele>207.250796</ele>
        <time>2020-07-01T07:59:06.999Z</time>
      </trkpt>
      <trkpt lat="48.600991" lon="16.816575">
        <ele>207.273293</ele>
        <time>2020-07-01T07:59:08.993Z</time>
      </trkpt>
      <trkpt lat="48.601012" lon="16.816410">
        <ele>207.295696</ele>
        <time>2020-07-01T07:59:10.963Z</time>
      </trkpt>
      <trkpt lat="48.601027" lon="16.816243">
        <ele>207.318167</ele>
        <time>2020-07-01T07:59:12.986Z</time>
      </trkpt>
      <trkpt lat="48.601037" lon="16.816075">
        <ele>207.340657</ele>
        <time>2020-07-01T07:59:14.966Z</time>
      </trkpt>
      <trkpt lat="48.601051" lon="16.815912">
        <ele>207.362573</ele>
        <time>2020-07-01T07:59:16.978Z</time>
      </trkpt>
      <trkpt lat="48.601059" lon="16.815749">
        <ele>207.402936</ele>
        <time>2020-07-01T07:59:18.984Z</time>
      </trkpt>
      <trkpt lat="48.601069" lon="16.815585">
        <ele>207.447345</ele>
        <time>2020-07-01T07:59:20.991Z</time>
      </trkpt>
      <trkpt lat="48.601082" lon="16.815418">
        <ele>207.492687</ele>
        <time>2020-07-01T07:59:22.987Z</time>
      </trkpt>
      <trkpt lat="48.601099" lon="16.815252">
        <ele>207.537981</ele>
        <time>2020-07-01T07:59:24.981Z</time>
      </trkpt>
      <trkpt lat="48.601113" lon="16.815097">
        <ele>207.580164</ele>
        <time>2020-07-01T07:59:26.987Z</time>
      </trkpt>
      <trkpt lat="48.601128" lon="16.814944">
        <ele>207.621870</ele>
        <time>2020-07-01T07:59:29.004Z</time>
      </trkpt>
      <trkpt lat="48.601144" lon="16.814790">
        <ele>207.663905</ele>
        <time>2020-07-01T07:59:30.979Z</time>
      </trkpt>
      <trkpt lat="48.601157" lon="16.814633">
        <ele>207.706569</ele>
        <time>2020-07-01T07:59:32.990Z</time>
      </trkpt>
      <trkpt lat="48.601166" lon="16.814475">
        <ele>207.749331</ele>
        <time>2020-07-01T07:59:34.996Z</time>
      </trkpt>
      <trkpt lat="48.601176" lon="16.814319">
        <ele>207.791592</ele>
        <time>2020-07-01T07:59:36.994Z</time>
      </trkpt>
      <trkpt lat="48.601192" lon="16.814162">
        <ele>207.834426</ele>
        <time>2020-07-01T07:59:38.985Z</time>
      </trkpt>
      <trkpt lat="48.601214" lon="16.814007">
        <ele>207.877173</ele>
        <time>2020-07-01T07:59:40.990Z</time>
      </trkpt>
      <trkpt lat="48.601236" lon="16.813848">
        <ele>207.920974</ele>
        <time>2020-07-01T07:59:42.950Z</time>
      </trkpt>
      <trkpt lat="48.601253" lon="16.813682">
        <ele>207.966269</ele>
        <time>2020-07-01T07:59:45.008Z</time>
      </trkpt>
      <trkpt lat="48.601270" lon="16.813518">
        <ele>208.011030</ele>
        <time>2020-07-01T07:59:46.993Z</time>
      </trkpt>
      <trkpt lat="48.601289" lon="16.813356">
        <ele>208.055394</ele>
        <time>2020-07-01T07:59:48.984Z</time>
      </trkpt>
      <trkpt lat="48.601305" lon="16.813187">
        <ele>208.102980</ele>
        <time>2020-07-01T07:59:50.995Z</time>
      </trkpt>
      <trkpt lat="48.601324" lon="16.813018">
        <ele>208.188373</ele>
        <time>2020-07-01T07:59:52.995Z</time>
      </trkpt>
      <trkpt lat="48.601337" lon="16.812865">
        <ele>208.265213</ele>
        <time>2020-07-01T07:59:54.982Z</time>
      </trkpt>
      <trkpt lat="48.601355" lon="16.812679">
        <ele>208.358853</ele>
        <time>2020-07-01T07:59:57.981Z</time>
      </trkpt>
      <trkpt lat="48.601370" lon="16.812522">
        <ele>208.437872</ele>
        <time>2020-07-01T08:00:01.968Z</time>
      </trkpt>
      <trkpt lat="48.601394" lon="16.812339">
        <ele>208.530806</ele>
        <time>2020-07-01T08:00:05.974Z</time>
      </trkpt>
      <trkpt lat="48.601426" lon="16.812197">
        <ele>208.605535</ele>
        <time>2020-07-01T08:00:07.978Z</time>
      </trkpt>
      <trkpt lat="48.601467" lon="16.812018">
        <ele>208.699898</ele>
        <time>2020-07-01T08:00:09.975Z</time>
      </trkpt>
      <trkpt lat="48.601508" lon="16.811828">
        <ele>208.799454</ele>
        <time>2020-07-01T08:00:11.959Z</time>
      </trkpt>
      <trkpt lat="48.601547" lon="16.811645">
        <ele>208.895229</ele>
        <time>2020-07-01T08:00:13.996Z</time>
      </trkpt>
      <trkpt lat="48.601593" lon="16.811470">
        <ele>208.989036</ele>
        <time>2020-07-01T08:00:15.962Z</time>
      </trkpt>
      <trkpt lat="48.601644" lon="16.811303">
        <ele>209.080666</ele>
        <time>2020-07-01T08:00:17.997Z</time>
      </trkpt>
      <trkpt lat="48.601693" lon="16.811134">
        <ele>209.172586</ele>
        <time>2020-07-01T08:00:19.988Z</time>
      </trkpt>
      <trkpt lat="48.601742" lon="16.810966">
        <ele>209.264050</ele>
        <time>2020-07-01T08:00:21.969Z</time>
      </trkpt>
      <trkpt lat="48.601792" lon="16.810804">
        <ele>209.353104</ele>
        <time>2020-07-01T08:00:23.977Z</time>
      </trkpt>
      <trkpt lat="48.601842" lon="16.810637">
        <ele>209.444420</ele>
        <time>2020-07-01T08:00:25.971Z</time>
      </trkpt>
      <trkpt lat="48.601891" lon="16.810473">
        <ele>209.587974</ele>
        <time>2020-07-01T08:00:27.984Z</time>
      </trkpt>
      <trkpt lat="48.601936" lon="16.810319">
        <ele>209.728638</ele>
        <time>2020-07-01T08:00:29.972Z</time>
      </trkpt>
      <trkpt lat="48.601981" lon="16.810166">
        <ele>209.868538</ele>
        <time>2020-07-01T08:00:31.997Z</time>
      </trkpt>
      <trkpt lat="48.602029" lon="16.810014">
        <ele>210.009266</ele>
        <time>2020-07-01T08:00:33.984Z</time>
      </trkpt>
      <trkpt lat="48.602075" lon="16.809859">
        <ele>210.151206</ele>
        <time>2020-07-01T08:00:35.984Z</time>
      </trkpt>
      <trkpt lat="48.602118" lon="16.809707">
        <ele>210.289330</ele>
        <time>2020-07-01T08:00:37.965Z</time>
      </trkpt>
      <trkpt lat="48.602162" lon="16.809560">
        <ele>210.424138</ele>
        <time>2020-07-01T08:00:39.983Z</time>
      </trkpt>
      <trkpt lat="48.602195" lon="16.809410">
        <ele>210.556211</ele>
        <time>2020-07-01T08:00:41.956Z</time>
      </trkpt>
      <trkpt lat="48.602216" lon="16.809255">
        <ele>210.688398</ele>
        <time>2020-07-01T08:00:43.972Z</time>
      </trkpt>
      <trkpt lat="48.602237" lon="16.809103">
        <ele>210.818131</ele>
        <time>2020-07-01T08:00:45.964Z</time>
      </trkpt>
      <trkpt lat="48.602255" lon="16.808945">
        <ele>210.952079</ele>
        <time>2020-07-01T08:00:47.986Z</time>
      </trkpt>
      <trkpt lat="48.602270" lon="16.808778">
        <ele>211.092883</ele>
        <time>2020-07-01T08:00:49.980Z</time>
      </trkpt>
      <trkpt lat="48.602285" lon="16.808596">
        <ele>211.246114</ele>
        <time>2020-07-01T08:00:51.957Z</time>
      </trkpt>
      <trkpt lat="48.602304" lon="16.808416">
        <ele>211.398401</ele>
        <time>2020-07-01T08:00:53.972Z</time>
      </trkpt>
      <trkpt lat="48.602323" lon="16.808231">
        <ele>211.554814</ele>
        <time>2020-07-01T08:00:55.964Z</time>
      </trkpt>
      <trkpt lat="48.602342" lon="16.808049">
        <ele>211.708752</ele>
        <time>2020-07-01T08:00:57.987Z</time>
      </trkpt>
      <trkpt lat="48.602369" lon="16.807884">
        <ele>211.784036</ele>
        <time>2020-07-01T08:01:00.005Z</time>
      </trkpt>
      <trkpt lat="48.602393" lon="16.807715">
        <ele>211.850673</ele>
        <time>2020-07-01T08:01:01.986Z</time>
      </trkpt>
      <trkpt lat="48.602413" lon="16.807538">
        <ele>211.919898</ele>
        <time>2020-07-01T08:01:03.974Z</time>
      </trkpt>
      <trkpt lat="48.602431" lon="16.807368">
        <ele>211.986270</ele>
        <time>2020-07-01T08:01:06.009Z</time>
      </trkpt>
      <trkpt lat="48.602451" lon="16.807193">
        <ele>212.054735</ele>
        <time>2020-07-01T08:01:07.984Z</time>
      </trkpt>
      <trkpt lat="48.602467" lon="16.807021">
        <ele>212.121696</ele>
        <time>2020-07-01T08:01:09.977Z</time>
      </trkpt>
      <trkpt lat="48.602488" lon="16.806850">
        <ele>212.188745</ele>
        <time>2020-07-01T08:01:11.983Z</time>
      </trkpt>
      <trkpt lat="48.602512" lon="16.806686">
        <ele>212.253499</ele>
        <time>2020-07-01T08:01:14.000Z</time>
      </trkpt>
      <trkpt lat="48.602537" lon="16.806522">
        <ele>212.318381</ele>
        <time>2020-07-01T08:01:15.963Z</time>
      </trkpt>
      <trkpt lat="48.602561" lon="16.806363">
        <ele>212.381254</ele>
        <time>2020-07-01T08:01:17.979Z</time>
      </trkpt>
      <trkpt lat="48.602578" lon="16.806205">
        <ele>212.442965</ele>
        <time>2020-07-01T08:01:19.978Z</time>
      </trkpt>
      <trkpt lat="48.602596" lon="16.806049">
        <ele>212.504014</ele>
        <time>2020-07-01T08:01:21.987Z</time>
      </trkpt>
      <trkpt lat="48.602614" lon="16.805891">
        <ele>212.565822</ele>
        <time>2020-07-01T08:01:23.971Z</time>
      </trkpt>
      <trkpt lat="48.602631" lon="16.805724">
        <ele>212.630960</ele>
        <time>2020-07-01T08:01:25.977Z</time>
      </trkpt>
      <trkpt lat="48.602642" lon="16.805557">
        <ele>212.695659</ele>
        <time>2020-07-01T08:01:27.954Z</time>
      </trkpt>
      <trkpt lat="48.602659" lon="16.805397">
        <ele>212.758132</ele>
        <time>2020-07-01T08:01:29.960Z</time>
      </trkpt>
      <trkpt lat="48.602678" lon="16.805236">
        <ele>212.788643</ele>
        <time>2020-07-01T08:01:31.967Z</time>
      </trkpt>
      <trkpt lat="48.602701" lon="16.805069">
        <ele>212.807627</ele>
        <time>2020-07-01T08:01:33.963Z</time>
      </trkpt>
      <trkpt lat="48.602725" lon="16.804900">
        <ele>212.826865</ele>
        <time>2020-07-01T08:01:35.974Z</time>
      </trkpt>
      <trkpt lat="48.602750" lon="16.804738">
        <ele>212.845378</ele>
        <time>2020-07-01T08:01:37.969Z</time>
      </trkpt>
      <trkpt lat="48.602773" lon="16.804578">
        <ele>212.863601</ele>
        <time>2020-07-01T08:01:39.986Z</time>
      </trkpt>
      <trkpt lat="48.602794" lon="16.804413">
        <ele>212.882301</ele>
        <time>2020-07-01T08:01:41.956Z</time>
      </trkpt>
      <trkpt lat="48.602815" lon="16.804248">
        <ele>212.901002</ele>
        <time>2020-07-01T08:01:43.963Z</time>
      </trkpt>
      <trkpt lat="48.602832" lon="16.804080">
        <ele>212.919916</ele>
        <time>2020-07-01T08:01:45.972Z</time>
      </trkpt>
      <trkpt lat="48.602853" lon="16.803909">
        <ele>212.939273</ele>
        <time>2020-07-01T08:01:47.983Z</time>
      </trkpt>
      <trkpt lat="48.602878" lon="16.803738">
        <ele>212.958763</ele>
        <time>2020-07-01T08:01:49.997Z</time>
      </trkpt>
      <trkpt lat="48.602903" lon="16.803569">
        <ele>212.978036</ele>
        <time>2020-07-01T08:01:51.998Z</time>
      </trkpt>
      <trkpt lat="48.602926" lon="16.803405">
        <ele>212.996694</ele>
        <time>2020-07-01T08:01:54.017Z</time>
      </trkpt>
      <trkpt lat="48.602948" lon="16.803241">
        <ele>213.015318</ele>
        <time>2020-07-01T08:01:56.012Z</time>
      </trkpt>
      <trkpt lat="48.602968" lon="16.803075">
        <ele>213.034096</ele>
        <time>2020-07-01T08:01:57.990Z</time>
      </trkpt>
      <trkpt lat="48.602990" lon="16.802909">
        <ele>213.052938</ele>
        <time>2020-07-01T08:02:00.000Z</time>
      </trkpt>
      <trkpt lat="48.603010" lon="16.802744">
        <ele>213.071607</ele>
        <time>2020-07-01T08:02:01.961Z</time>
      </trkpt>
      <trkpt lat="48.603029" lon="16.802578">
        <ele>213.060422</ele>
        <time>2020-07-01T08:02:03.972Z</time>
      </trkpt>
      <trkpt lat="48.603045" lon="16.802413">
        <ele>213.033474</ele>
        <time>2020-07-01T08:02:05.985Z</time>
      </trkpt>
      <trkpt lat="48.603059" lon="16.802251">
        <ele>213.007074</ele>
        <time>2020-07-01T08:02:07.982Z</time>
      </trkpt>
      <trkpt lat="48.603074" lon="16.802092">
        <ele>212.981121</ele>
        <time>2020-07-01T08:02:09.972Z</time>
      </trkpt>
      <trkpt lat="48.603089" lon="16.801935">
        <ele>212.955488</ele>
        <time>2020-07-01T08:02:11.994Z</time>
      </trkpt>
      <trkpt lat="48.603105" lon="16.801774">
        <ele>212.929180</ele>
        <time>2020-07-01T08:02:13.993Z</time>
      </trkpt>
      <trkpt lat="48.603126" lon="16.801615">
        <ele>212.902979</ele>
        <time>2020-07-01T08:02:15.997Z</time>
      </trkpt>
      <trkpt lat="48.603141" lon="16.801461">
        <ele>212.877826</ele>
        <time>2020-07-01T08:02:17.960Z</time>
      </trkpt>
      <trkpt lat="48.603150" lon="16.801304">
        <ele>212.852361</ele>
        <time>2020-07-01T08:02:19.991Z</time>
      </trkpt>
      <trkpt lat="48.603158" lon="16.801145">
        <ele>212.826594</ele>
        <time>2020-07-01T08:02:21.997Z</time>
      </trkpt>
      <trkpt lat="48.603169" lon="16.800988">
        <ele>212.801082</ele>
        <time>2020-07-01T08:02:23.994Z</time>
      </trkpt>
      <trkpt lat="48.603177" lon="16.800822">
        <ele>212.774187</ele>
        <time>2020-07-01T08:02:25.968Z</time>
      </trkpt>
      <trkpt lat="48.603181" lon="16.800655">
        <ele>212.747184</ele>
        <time>2020-07-01T08:02:27.960Z</time>
      </trkpt>
      <trkpt lat="48.603185" lon="16.800490">
        <ele>212.720503</ele>
        <time>2020-07-01T08:02:29.969Z</time>
      </trkpt>
      <trkpt lat="48.603192" lon="16.800320">
        <ele>212.692980</ele>
        <time>2020-07-01T08:02:31.982Z</time>
      </trkpt>
      <trkpt lat="48.603202" lon="16.800150">
        <ele>212.665401</ele>
        <time>2020-07-01T08:02:33.962Z</time>
      </trkpt>
      <trkpt lat="48.603209" lon="16.799987">
        <ele>212.639006</ele>
        <time>2020-07-01T08:02:35.976Z</time>
      </trkpt>
      <trkpt lat="48.603217" lon="16.799822">
        <ele>212.626399</ele>
        <time>2020-07-01T08:02:37.964Z</time>
      </trkpt>
      <trkpt lat="48.603220" lon="16.799653">
        <ele>212.613725</ele>
        <time>2020-07-01T08:02:40.008Z</time>
      </trkpt>
      <trkpt lat="48.603222" lon="16.799491">
        <ele>212.601578</ele>
        <time>2020-07-01T08:02:42.009Z</time>
      </trkpt>
      <trkpt lat="48.603224" lon="16.799329">
        <ele>212.589431</ele>
        <time>2020-07-01T08:02:43.955Z</time>
      </trkpt>
      <trkpt lat="48.603226" lon="16.799171">
        <ele>212.577584</ele>
        <time>2020-07-01T08:02:45.966Z</time>
      </trkpt>
      <trkpt lat="48.603228" lon="16.799017">
        <ele>212.566036</ele>
        <time>2020-07-01T08:02:48.005Z</time>
      </trkpt>
      <trkpt lat="48.603238" lon="16.798862">
        <ele>212.554361</ele>
        <time>2020-07-01T08:02:49.967Z</time>
      </trkpt>
      <trkpt lat="48.603246" lon="16.798703">
        <ele>212.542407</ele>
        <time>2020-07-01T08:02:52.003Z</time>
      </trkpt>
      <trkpt lat="48.603252" lon="16.798542">
        <ele>212.530318</ele>
        <time>2020-07-01T08:02:53.959Z</time>
      </trkpt>
      <trkpt lat="48.603252" lon="16.798376">
        <ele>212.517873</ele>
        <time>2020-07-01T08:02:56.018Z</time>
      </trkpt>
      <trkpt lat="48.603253" lon="16.798212">
        <ele>212.505578</ele>
        <time>2020-07-01T08:02:58.011Z</time>
      </trkpt>
      <trkpt lat="48.603256" lon="16.798043">
        <ele>212.492904</ele>
        <time>2020-07-01T08:02:59.969Z</time>
      </trkpt>
      <trkpt lat="48.603264" lon="16.797875">
        <ele>212.480276</ele>
        <time>2020-07-01T08:03:01.971Z</time>
      </trkpt>
      <trkpt lat="48.603271" lon="16.797705">
        <ele>212.467507</ele>
        <time>2020-07-01T08:03:03.973Z</time>
      </trkpt>
      <trkpt lat="48.603279" lon="16.797536">
        <ele>212.454805</ele>
        <time>2020-07-01T08:03:05.981Z</time>
      </trkpt>
      <trkpt lat="48.603286" lon="16.797363">
        <ele>212.441811</ele>
        <time>2020-07-01T08:03:07.960Z</time>
      </trkpt>
      <trkpt lat="48.603292" lon="16.797196">
        <ele>212.427859</ele>
        <time>2020-07-01T08:03:09.960Z</time>
      </trkpt>
      <trkpt lat="48.603298" lon="16.797020">
        <ele>212.411211</ele>
        <time>2020-07-01T08:03:11.962Z</time>
      </trkpt>
      <trkpt lat="48.603301" lon="16.796849">
        <ele>212.395052</ele>
        <time>2020-07-01T08:03:13.967Z</time>
      </trkpt>
      <trkpt lat="48.603309" lon="16.796682">
        <ele>212.379235</ele>
        <time>2020-07-01T08:03:15.981Z</time>
      </trkpt>
      <trkpt lat="48.603323" lon="16.796513">
        <ele>212.363146</ele>
        <time>2020-07-01T08:03:17.977Z</time>
      </trkpt>
      <trkpt lat="48.603337" lon="16.796347">
        <ele>212.347338</ele>
        <time>2020-07-01T08:03:19.997Z</time>
      </trkpt>
      <trkpt lat="48.603349" lon="16.796181">
        <ele>212.331563</ele>
        <time>2020-07-01T08:03:21.966Z</time>
      </trkpt>
      <trkpt lat="48.603359" lon="16.796009">
        <ele>212.315253</ele>
        <time>2020-07-01T08:03:23.969Z</time>
      </trkpt>
      <trkpt lat="48.603367" lon="16.795833">
        <ele>212.298588</ele>
        <time>2020-07-01T08:03:25.980Z</time>
      </trkpt>
      <trkpt lat="48.603373" lon="16.795662">
        <ele>212.282412</ele>
        <time>2020-07-01T08:03:27.974Z</time>
      </trkpt>
      <trkpt lat="48.603378" lon="16.795487">
        <ele>212.265866</ele>
        <time>2020-07-01T08:03:29.966Z</time>
      </trkpt>
      <trkpt lat="48.603388" lon="16.795309">
        <ele>212.248990</ele>
        <time>2020-07-01T08:03:31.991Z</time>
      </trkpt>
      <trkpt lat="48.603397" lon="16.795133">
        <ele>212.232315</ele>
        <time>2020-07-01T08:03:34.001Z</time>
      </trkpt>
      <trkpt lat="48.603410" lon="16.794956">
        <ele>212.215492</ele>
        <time>2020-07-01T08:03:36.007Z</time>
      </trkpt>
      <trkpt lat="48.603419" lon="16.794775">
        <ele>212.198346</ele>
        <time>2020-07-01T08:03:37.971Z</time>
      </trkpt>
      <trkpt lat="48.603429" lon="16.794595">
        <ele>212.181283</ele>
        <time>2020-07-01T08:03:39.968Z</time>
      </trkpt>
      <trkpt lat="48.603437" lon="16.794415">
        <ele>212.220823</ele>
        <time>2020-07-01T08:03:41.994Z</time>
      </trkpt>
      <trkpt lat="48.603446" lon="16.794237">
        <ele>212.274476</ele>
        <time>2020-07-01T08:03:43.961Z</time>
      </trkpt>
      <trkpt lat="48.603454" lon="16.794055">
        <ele>212.329295</ele>
        <time>2020-07-01T08:03:45.991Z</time>
      </trkpt>
      <trkpt lat="48.603466" lon="16.793876">
        <ele>212.383368</ele>
        <time>2020-07-01T08:03:47.978Z</time>
      </trkpt>
      <trkpt lat="48.603479" lon="16.793687">
        <ele>212.440477</ele>
        <time>2020-07-01T08:03:49.980Z</time>
      </trkpt>
      <trkpt lat="48.603488" lon="16.793498">
        <ele>212.497427</ele>
        <time>2020-07-01T08:03:52.008Z</time>
      </trkpt>
      <trkpt lat="48.603497" lon="16.793315">
        <ele>212.552578</ele>
        <time>2020-07-01T08:03:53.967Z</time>
      </trkpt>
      <trkpt lat="48.603504" lon="16.793137">
        <ele>212.606169</ele>
        <time>2020-07-01T08:03:55.981Z</time>
      </trkpt>
      <trkpt lat="48.603514" lon="16.792956">
        <ele>212.660757</ele>
        <time>2020-07-01T08:03:57.995Z</time>
      </trkpt>
      <trkpt lat="48.603524" lon="16.792775">
        <ele>212.715345</ele>
        <time>2020-07-01T08:03:59.966Z</time>
      </trkpt>
      <trkpt lat="48.603533" lon="16.792593">
        <ele>212.770197</ele>
        <time>2020-07-01T08:04:01.987Z</time>
      </trkpt>
      <trkpt lat="48.603542" lon="16.792411">
        <ele>212.825048</ele>
        <time>2020-07-01T08:04:03.974Z</time>
      </trkpt>
      <trkpt lat="48.603549" lon="16.792234">
        <ele>212.878339</ele>
        <time>2020-07-01T08:04:05.986Z</time>
      </trkpt>
      <trkpt lat="48.603560" lon="16.792060">
        <ele>212.930872</ele>
        <time>2020-07-01T08:04:07.983Z</time>
      </trkpt>
      <trkpt lat="48.603573" lon="16.791887">
        <ele>212.983200</ele>
        <time>2020-07-01T08:04:09.967Z</time>
      </trkpt>
      <trkpt lat="48.603587" lon="16.791714">
        <ele>213.071829</ele>
        <time>2020-07-01T08:04:11.961Z</time>
      </trkpt>
      <trkpt lat="48.603602" lon="16.791547">
        <ele>213.167999</ele>
        <time>2020-07-01T08:04:13.983Z</time>
      </trkpt>
      <trkpt lat="48.603617" lon="16.791377">
        <ele>213.265866</ele>
        <time>2020-07-01T08:04:15.998Z</time>
      </trkpt>
      <trkpt lat="48.603631" lon="16.791208">
        <ele>213.363056</ele>
        <time>2020-07-01T08:04:17.976Z</time>
      </trkpt>
      <trkpt lat="48.603648" lon="16.791042">
        <ele>213.458910</ele>
        <time>2020-07-01T08:04:19.964Z</time>
      </trkpt>
      <trkpt lat="48.603669" lon="16.790878">
        <ele>213.554232</ele>
        <time>2020-07-01T08:04:21.982Z</time>
      </trkpt>
      <trkpt lat="48.603693" lon="16.790714">
        <ele>213.650080</ele>
        <time>2020-07-01T08:04:23.978Z</time>
      </trkpt>
      <trkpt lat="48.603719" lon="16.790553">
        <ele>213.744651</ele>
        <time>2020-07-01T08:04:25.985Z</time>
      </trkpt>
      <trkpt lat="48.603745" lon="16.790395">
        <ele>213.837560</ele>
        <time>2020-07-01T08:04:28.005Z</time>
      </trkpt>
      <trkpt lat="48.603773" lon="16.790233">
        <ele>213.933107</ele>
        <time>2020-07-01T08:04:29.971Z</time>
      </trkpt>
      <trkpt lat="48.603796" lon="16.790073">
        <ele>214.026540</ele>
        <time>2020-07-01T08:04:31.985Z</time>
      </trkpt>
      <trkpt lat="48.603816" lon="16.789914">
        <ele>214.118897</ele>
        <time>2020-07-01T08:04:33.999Z</time>
      </trkpt>
      <trkpt lat="48.603842" lon="16.789760">
        <ele>214.209593</ele>
        <time>2020-07-01T08:04:36.010Z</time>
      </trkpt>
      <trkpt lat="48.603869" lon="16.789604">
        <ele>214.301609</ele>
        <time>2020-07-01T08:04:37.962Z</time>
      </trkpt>
      <trkpt lat="48.603896" lon="16.789445">
        <ele>214.395283</ele>
        <time>2020-07-01T08:04:39.972Z</time>
      </trkpt>
      <trkpt lat="48.603933" lon="16.789290">
        <ele>214.489317</ele>
        <time>2020-07-01T08:04:42.009Z</time>
      </trkpt>
      <trkpt lat="48.603973" lon="16.789143">
        <ele>214.564118</ele>
        <time>2020-07-01T08:04:43.969Z</time>
      </trkpt>
      <trkpt lat="48.604012" lon="16.788997">
        <ele>214.610210</ele>
        <time>2020-07-01T08:04:45.979Z</time>
      </trkpt>
      <trkpt lat="48.604049" lon="16.788848">
        <ele>214.656798</ele>
        <time>2020-07-01T08:04:48.010Z</time>
      </trkpt>
      <trkpt lat="48.604085" lon="16.788697">
        <ele>214.703783</ele>
        <time>2020-07-01T08:04:49.960Z</time>
      </trkpt>
      <trkpt lat="48.604119" lon="16.788551">
        <ele>214.749092</ele>
        <time>2020-07-01T08:04:51.987Z</time>
      </trkpt>
      <trkpt lat="48.604155" lon="16.788407">
        <ele>214.794155</ele>
        <time>2020-07-01T08:04:53.973Z</time>
      </trkpt>
      <trkpt lat="48.604188" lon="16.788257">
        <ele>214.840428</ele>
        <time>2020-07-01T08:04:55.998Z</time>
      </trkpt>
      <trkpt lat="48.604224" lon="16.788111">
        <ele>214.886039</ele>
        <time>2020-07-01T08:04:57.963Z</time>
      </trkpt>
      <trkpt lat="48.604262" lon="16.787967">
        <ele>214.931422</ele>
        <time>2020-07-01T08:04:59.961Z</time>
      </trkpt>
      <trkpt lat="48.604305" lon="16.787832">
        <ele>214.975284</ele>
        <time>2020-07-01T08:05:01.994Z</time>
      </trkpt>
      <trkpt lat="48.604343" lon="16.787704">
        <ele>215.016354</ele>
        <time>2020-07-01T08:05:03.955Z</time>
      </trkpt>
      <trkpt lat="48.604400" lon="16.787526">
        <ele>215.074244</ele>
        <time>2020-07-01T08:05:06.974Z</time>
      </trkpt>
      <trkpt lat="48.604418" lon="16.787382">
        <ele>215.117141</ele>
        <time>2020-07-01T08:05:09.964Z</time>
      </trkpt>
      <trkpt lat="48.604308" lon="16.787322">
        <ele>215.168905</ele>
        <time>2020-07-01T08:05:12.971Z</time>
      </trkpt>
      <trkpt lat="48.604189" lon="16.787283">
        <ele>215.222804</ele>
        <time>2020-07-01T08:05:15.988Z</time>
      </trkpt>
      <trkpt lat="48.604098" lon="16.787253">
        <ele>215.264033</ele>
        <time>2020-07-01T08:05:17.967Z</time>
      </trkpt>
      <trkpt lat="48.603998" lon="16.787219">
        <ele>215.309404</ele>
        <time>2020-07-01T08:05:19.978Z</time>
      </trkpt>
      <trkpt lat="48.603875" lon="16.787169">
        <ele>215.363227</ele>
        <time>2020-07-01T08:05:21.994Z</time>
      </trkpt>
      <trkpt lat="48.603741" lon="16.787130">
        <ele>215.416684</ele>
        <time>2020-07-01T08:05:23.994Z</time>
      </trkpt>
      <trkpt lat="48.603596" lon="16.787083">
        <ele>215.474776</ele>
        <time>2020-07-01T08:05:25.969Z</time>
      </trkpt>
      <trkpt lat="48.603462" lon="16.787041">
        <ele>215.528385</ele>
        <time>2020-07-01T08:05:28.003Z</time>
      </trkpt>
      <trkpt lat="48.603331" lon="16.787004">
        <ele>215.580590</ele>
        <time>2020-07-01T08:05:29.981Z</time>
      </trkpt>
      <trkpt lat="48.603205" lon="16.786963">
        <ele>215.631079</ele>
        <time>2020-07-01T08:05:31.994Z</time>
      </trkpt>
      <trkpt lat="48.603086" lon="16.786925">
        <ele>215.678724</ele>
        <time>2020-07-01T08:05:33.990Z</time>
      </trkpt>
      <trkpt lat="48.602969" lon="16.786882">
        <ele>215.725892</ele>
        <time>2020-07-01T08:05:35.993Z</time>
      </trkpt>
      <trkpt lat="48.602858" lon="16.786847">
        <ele>215.770310</ele>
        <time>2020-07-01T08:05:37.999Z</time>
      </trkpt>
      <trkpt lat="48.602749" lon="16.786816">
        <ele>215.813758</ele>
        <time>2020-07-01T08:05:39.974Z</time>
      </trkpt>
      <trkpt lat="48.602638" lon="16.786779">
        <ele>215.858285</ele>
        <time>2020-07-01T08:05:41.988Z</time>
      </trkpt>
      <trkpt lat="48.602530" lon="16.786737">
        <ele>215.901970</ele>
        <time>2020-07-01T08:05:43.991Z</time>
      </trkpt>
      <trkpt lat="48.602423" lon="16.786702">
        <ele>215.944855</ele>
        <time>2020-07-01T08:05:46.000Z</time>
      </trkpt>
      <trkpt lat="48.602317" lon="16.786663">
        <ele>215.987591</ele>
        <time>2020-07-01T08:05:47.963Z</time>
      </trkpt>
      <trkpt lat="48.602209" lon="16.786628">
        <ele>216.030860</ele>
        <time>2020-07-01T08:05:49.983Z</time>
      </trkpt>
      <trkpt lat="48.602102" lon="16.786605">
        <ele>216.094048</ele>
        <time>2020-07-01T08:05:51.972Z</time>
      </trkpt>
      <trkpt lat="48.602001" lon="16.786568">
        <ele>216.168658</ele>
        <time>2020-07-01T08:05:53.989Z</time>
      </trkpt>
      <trkpt lat="48.601907" lon="16.786498">
        <ele>216.243885</ele>
        <time>2020-07-01T08:05:55.981Z</time>
      </trkpt>
      <trkpt lat="48.601815" lon="16.786429">
        <ele>216.317614</ele>
        <time>2020-07-01T08:05:57.960Z</time>
      </trkpt>
      <trkpt lat="48.601719" lon="16.786378">
        <ele>216.390666</ele>
        <time>2020-07-01T08:05:59.983Z</time>
      </trkpt>
      <trkpt lat="48.601627" lon="16.786327">
        <ele>216.461016</ele>
        <time>2020-07-01T08:06:02.000Z</time>
      </trkpt>
      <trkpt lat="48.601521" lon="16.786289">
        <ele>216.539228</ele>
        <time>2020-07-01T08:06:03.981Z</time>
      </trkpt>
      <trkpt lat="48.601416" lon="16.786245">
        <ele>216.617454</ele>
        <time>2020-07-01T08:06:05.992Z</time>
      </trkpt>
      <trkpt lat="48.601323" lon="16.786175">
        <ele>216.692037</ele>
        <time>2020-07-01T08:06:07.983Z</time>
      </trkpt>
      <trkpt lat="48.601272" lon="16.786035">
        <ele>216.767923</ele>
        <time>2020-07-01T08:06:09.961Z</time>
      </trkpt>
      <trkpt lat="48.601281" lon="16.785860">
        <ele>216.851260</ele>
        <time>2020-07-01T08:06:11.978Z</time>
      </trkpt>
      <trkpt lat="48.601308" lon="16.785698">
        <ele>216.930579</ele>
        <time>2020-07-01T08:06:13.991Z</time>
      </trkpt>
      <trkpt lat="48.601347" lon="16.785542">
        <ele>217.009760</ele>
        <time>2020-07-01T08:06:15.975Z</time>
      </trkpt>
      <trkpt lat="48.601391" lon="16.785389">
        <ele>217.088972</ele>
        <time>2020-07-01T08:06:17.989Z</time>
      </trkpt>
      <trkpt lat="48.601438" lon="16.785234">
        <ele>217.169930</ele>
        <time>2020-07-01T08:06:19.985Z</time>
      </trkpt>
      <trkpt lat="48.601486" lon="16.785089">
        <ele>217.246916</ele>
        <time>2020-07-01T08:06:22.020Z</time>
      </trkpt>
      <trkpt lat="48.601536" lon="16.784937">
        <ele>217.327517</ele>
        <time>2020-07-01T08:06:23.984Z</time>
      </trkpt>
      <trkpt lat="48.601582" lon="16.784781">
        <ele>217.301727</ele>
        <time>2020-07-01T08:06:26.013Z</time>
      </trkpt>
      <trkpt lat="48.601627" lon="16.784627">
        <ele>217.258051</ele>
        <time>2020-07-01T08:06:27.958Z</time>
      </trkpt>
      <trkpt lat="48.601668" lon="16.784474">
        <ele>217.215226</ele>
        <time>2020-07-01T08:06:29.977Z</time>
      </trkpt>
      <trkpt lat="48.601713" lon="16.784319">
        <ele>217.171313</ele>
        <time>2020-07-01T08:06:31.969Z</time>
      </trkpt>
      <trkpt lat="48.601762" lon="16.784171">
        <ele>217.128376</ele>
        <time>2020-07-01T08:06:33.960Z</time>
      </trkpt>
      <trkpt lat="48.601802" lon="16.784015">
        <ele>217.084973</ele>
        <time>2020-07-01T08:06:35.989Z</time>
      </trkpt>
      <trkpt lat="48.601837" lon="16.783861">
        <ele>217.042730</ele>
        <time>2020-07-01T08:06:37.981Z</time>
      </trkpt>
      <trkpt lat="48.601870" lon="16.783710">
        <ele>217.001475</ele>
        <time>2020-07-01T08:06:40.003Z</time>
      </trkpt>
      <trkpt lat="48.601904" lon="16.783555">
        <ele>216.959112</ele>
        <time>2020-07-01T08:06:41.956Z</time>
      </trkpt>
      <trkpt lat="48.601943" lon="16.783404">
        <ele>216.917059</ele>
        <time>2020-07-01T08:06:43.995Z</time>
      </trkpt>
      <trkpt lat="48.601992" lon="16.783260">
        <ele>216.875048</ele>
        <time>2020-07-01T08:06:45.994Z</time>
      </trkpt>
      <trkpt lat="48.602048" lon="16.783123">
        <ele>216.833267</ele>
        <time>2020-07-01T08:06:48.000Z</time>
      </trkpt>
      <trkpt lat="48.602113" lon="16.782993">
        <ele>216.790989</ele>
        <time>2020-07-01T08:06:49.978Z</time>
      </trkpt>
      <trkpt lat="48.602183" lon="16.782869">
        <ele>216.748696</ele>
        <time>2020-07-01T08:06:51.994Z</time>
      </trkpt>
      <trkpt lat="48.602257" lon="16.782746">
        <ele>216.705559</ele>
        <time>2020-07-01T08:06:53.974Z</time>
      </trkpt>
      <trkpt lat="48.602335" lon="16.782624">
        <ele>216.661538</ele>
        <time>2020-07-01T08:06:55.990Z</time>
      </trkpt>
      <trkpt lat="48.602416" lon="16.782507">
        <ele>216.608592</ele>
        <time>2020-07-01T08:06:58.009Z</time>
      </trkpt>
      <trkpt lat="48.602505" lon="16.782397">
        <ele>216.538619</ele>
        <time>2020-07-01T08:06:59.981Z</time>
      </trkpt>
      <trkpt lat="48.602590" lon="16.782290">
        <ele>216.471293</ele>
        <time>2020-07-01T08:07:02.000Z</time>
      </trkpt>
      <trkpt lat="48.602676" lon="16.782186">
        <ele>216.404259</ele>
        <time>2020-07-01T08:07:04.004Z</time>
      </trkpt>
      <trkpt lat="48.602760" lon="16.782081">
        <ele>216.337915</ele>
        <time>2020-07-01T08:07:05.981Z</time>
      </trkpt>
      <trkpt lat="48.602842" lon="16.781974">
        <ele>216.271983</ele>
        <time>2020-07-01T08:07:07.961Z</time>
      </trkpt>
      <trkpt lat="48.602925" lon="16.781863">
        <ele>216.204532</ele>
        <time>2020-07-01T08:07:09.984Z</time>
      </trkpt>
      <trkpt lat="48.603005" lon="16.781742">
        <ele>216.135653</ele>
        <time>2020-07-01T08:07:12.004Z</time>
      </trkpt>
      <trkpt lat="48.603077" lon="16.781615">
        <ele>216.068312</ele>
        <time>2020-07-01T08:07:13.988Z</time>
      </trkpt>
      <trkpt lat="48.603145" lon="16.781482">
        <ele>216.000636</ele>
        <time>2020-07-01T08:07:15.990Z</time>
      </trkpt>
      <trkpt lat="48.603205" lon="16.781347">
        <ele>215.935158</ele>
        <time>2020-07-01T08:07:17.987Z</time>
      </trkpt>
      <trkpt lat="48.603262" lon="16.781207">
        <ele>215.868975</ele>
        <time>2020-07-01T08:07:19.995Z</time>
      </trkpt>
      <trkpt lat="48.603321" lon="16.781065">
        <ele>215.801466</ele>
        <time>2020-07-01T08:07:21.983Z</time>
      </trkpt>
      <trkpt lat="48.603379" lon="16.780927">
        <ele>215.735643</ele>
        <time>2020-07-01T08:07:23.955Z</time>
      </trkpt>
      <trkpt lat="48.603433" lon="16.780789">
        <ele>215.671093</ele>
        <time>2020-07-01T08:07:25.988Z</time>
      </trkpt>
      <trkpt lat="48.603493" lon="16.780658">
        <ele>215.606945</ele>
        <time>2020-07-01T08:07:27.993Z</time>
      </trkpt>
      <trkpt lat="48.603554" lon="16.780541">
        <ele>215.546969</ele>
        <time>2020-07-01T08:07:30.018Z</time>
      </trkpt>
      <trkpt lat="48.603613" lon="16.780426">
        <ele>215.517184</ele>
        <time>2020-07-01T08:07:31.990Z</time>
      </trkpt>
      <trkpt lat="48.603674" lon="16.780310">
        <ele>215.491486</ele>
        <time>2020-07-01T08:07:33.981Z</time>
      </trkpt>
      <trkpt lat="48.603736" lon="16.780196">
        <ele>215.465893</ele>
        <time>2020-07-01T08:07:35.999Z</time>
      </trkpt>
      <trkpt lat="48.603791" lon="16.780079">
        <ele>215.441002</ele>
        <time>2020-07-01T08:07:37.990Z</time>
      </trkpt>
      <trkpt lat="48.603873" lon="16.779923">
        <ele>215.406448</ele>
        <time>2020-07-01T08:07:40.983Z</time>
      </trkpt>
      <trkpt lat="48.603959" lon="16.779791">
        <ele>215.374318</ele>
        <time>2020-07-01T08:07:43.976Z</time>
      </trkpt>
      <trkpt lat="48.604038" lon="16.779663">
        <ele>215.343959</ele>
        <time>2020-07-01T08:07:47.004Z</time>
      </trkpt>
      <trkpt lat="48.604115" lon="16.779532">
        <ele>215.313568</ele>
        <time>2020-07-01T08:07:49.985Z</time>
      </trkpt>
      <trkpt lat="48.604186" lon="16.779393">
        <ele>215.283114</ele>
        <time>2020-07-01T08:07:52.982Z</time>
      </trkpt>
      <trkpt lat="48.604252" lon="16.779256">
        <ele>215.253724</ele>
        <time>2020-07-01T08:07:55.980Z</time>
      </trkpt>
      <trkpt lat="48.604308" lon="16.779099">
        <ele>215.222794</ele>
        <time>2020-07-01T08:07:58.977Z</time>
      </trkpt>
      <trkpt lat="48.604369" lon="16.778933">
        <ele>215.189865</ele>
        <time>2020-07-01T08:08:01.972Z</time>
      </trkpt>
      <trkpt lat="48.604414" lon="16.778764">
        <ele>215.158276</ele>
        <time>2020-07-01T08:08:04.981Z</time>
      </trkpt>
      <trkpt lat="48.604439" lon="16.778582">
        <ele>215.126045</ele>
        <time>2020-07-01T08:08:07.989Z</time>
      </trkpt>
      <trkpt lat="48.604442" lon="16.778401">
        <ele>215.094652</ele>
        <time>2020-07-01T08:08:10.968Z</time>
      </trkpt>
      <trkpt lat="48.604441" lon="16.778216">
        <ele>215.063136</ele>
        <time>2020-07-01T08:08:13.994Z</time>
      </trkpt>
      <trkpt lat="48.604421" lon="16.778039">
        <ele>215.035666</ele>
        <time>2020-07-01T08:08:16.973Z</time>
      </trkpt>
      <trkpt lat="48.604402" lon="16.777856">
        <ele>215.007328</ele>
        <time>2020-07-01T08:08:19.973Z</time>
      </trkpt>
      <trkpt lat="48.604436" lon="16.777729">
        <ele>214.986367</ele>
        <time>2020-07-01T08:08:21.963Z</time>
      </trkpt>
      <trkpt lat="48.604471" lon="16.777579">
        <ele>214.962033</ele>
        <time>2020-07-01T08:08:23.973Z</time>
      </trkpt>
      <trkpt lat="48.604502" lon="16.777432">
        <ele>214.938429</ele>
        <time>2020-07-01T08:08:26.001Z</time>
      </trkpt>
      <trkpt lat="48.604528" lon="16.777281">
        <ele>214.914559</ele>
        <time>2020-07-01T08:08:27.985Z</time>
      </trkpt>
      <trkpt lat="48.604554" lon="16.777134">
        <ele>214.891280</ele>
        <time>2020-07-01T08:08:30.015Z</time>
      </trkpt>
      <trkpt lat="48.604579" lon="16.776990">
        <ele>214.868504</ele>
        <time>2020-07-01T08:08:31.996Z</time>
      </trkpt>
      <trkpt lat="48.604602" lon="16.776850">
        <ele>214.846435</ele>
        <time>2020-07-01T08:08:33.995Z</time>
      </trkpt>
      <trkpt lat="48.604635" lon="16.776659">
        <ele>214.816235</ele>
        <time>2020-07-01T08:08:36.997Z</time>
      </trkpt>
      <trkpt lat="48.604671" lon="16.776475">
        <ele>214.786880</ele>
        <time>2020-07-01T08:08:39.965Z</time>
      </trkpt>
      <trkpt lat="48.604714" lon="16.776281">
        <ele>214.755579</ele>
        <time>2020-07-01T08:08:42.982Z</time>
      </trkpt>
      <trkpt lat="48.604743" lon="16.776150">
        <ele>214.734446</ele>
        <time>2020-07-01T08:08:44.977Z</time>
      </trkpt>
      <trkpt lat="48.604789" lon="16.776009">
        <ele>214.710393</ele>
        <time>2020-07-01T08:08:46.981Z</time>
      </trkpt>
      <trkpt lat="48.604840" lon="16.775852">
        <ele>214.683633</ele>
        <time>2020-07-01T08:08:48.987Z</time>
      </trkpt>
      <trkpt lat="48.604890" lon="16.775679">
        <ele>214.654750</ele>
        <time>2020-07-01T08:08:50.983Z</time>
      </trkpt>
      <trkpt lat="48.604942" lon="16.775503">
        <ele>214.655781</ele>
        <time>2020-07-01T08:08:52.974Z</time>
      </trkpt>
      <trkpt lat="48.604996" lon="16.775311">
        <ele>214.661364</ele>
        <time>2020-07-01T08:08:54.968Z</time>
      </trkpt>
      <trkpt lat="48.605049" lon="16.775117">
        <ele>214.666981</ele>
        <time>2020-07-01T08:08:56.988Z</time>
      </trkpt>
      <trkpt lat="48.605109" lon="16.774926">
        <ele>214.672640</ele>
        <time>2020-07-01T08:08:58.961Z</time>
      </trkpt>
      <trkpt lat="48.605179" lon="16.774745">
        <ele>214.678251</ele>
        <time>2020-07-01T08:09:00.966Z</time>
      </trkpt>
      <trkpt lat="48.605247" lon="16.774565">
        <ele>214.683799</ele>
        <time>2020-07-01T08:09:02.959Z</time>
      </trkpt>
      <trkpt lat="48.605300" lon="16.774377">
        <ele>214.689268</ele>
        <time>2020-07-01T08:09:04.973Z</time>
      </trkpt>
      <trkpt lat="48.605333" lon="16.774192">
        <ele>214.694395</ele>
        <time>2020-07-01T08:09:06.965Z</time>
      </trkpt>
      <trkpt lat="48.605350" lon="16.774005">
        <ele>214.699447</ele>
        <time>2020-07-01T08:09:08.962Z</time>
      </trkpt>
      <trkpt lat="48.605372" lon="16.773825">
        <ele>214.704345</ele>
        <time>2020-07-01T08:09:10.991Z</time>
      </trkpt>
      <trkpt lat="48.605393" lon="16.773652">
        <ele>214.709052</ele>
        <time>2020-07-01T08:09:13.001Z</time>
      </trkpt>
      <trkpt lat="48.605413" lon="16.773485">
        <ele>214.713594</ele>
        <time>2020-07-01T08:09:14.978Z</time>
      </trkpt>
      <trkpt lat="48.605429" lon="16.773317">
        <ele>214.718136</ele>
        <time>2020-07-01T08:09:16.974Z</time>
      </trkpt>
      <trkpt lat="48.605448" lon="16.773149">
        <ele>214.722697</ele>
        <time>2020-07-01T08:09:18.988Z</time>
      </trkpt>
      <trkpt lat="48.605466" lon="16.772984">
        <ele>214.752852</ele>
        <time>2020-07-01T08:09:20.970Z</time>
      </trkpt>
      <trkpt lat="48.605488" lon="16.772818">
        <ele>214.794379</ele>
        <time>2020-07-01T08:09:22.971Z</time>
      </trkpt>
      <trkpt lat="48.605504" lon="16.772650">
        <ele>214.836012</ele>
        <time>2020-07-01T08:09:25.009Z</time>
      </trkpt>
      <trkpt lat="48.605521" lon="16.772478">
        <ele>214.878670</ele>
        <time>2020-07-01T08:09:26.989Z</time>
      </trkpt>
      <trkpt lat="48.605538" lon="16.772323">
        <ele>214.917209</ele>
        <time>2020-07-01T08:09:29.009Z</time>
      </trkpt>
      <trkpt lat="48.605567" lon="16.772151">
        <ele>214.960748</ele>
        <time>2020-07-01T08:09:30.993Z</time>
      </trkpt>
      <trkpt lat="48.605600" lon="16.771986">
        <ele>215.003031</ele>
        <time>2020-07-01T08:09:32.995Z</time>
      </trkpt>
      <trkpt lat="48.605634" lon="16.771828">
        <ele>215.043786</ele>
        <time>2020-07-01T08:09:34.990Z</time>
      </trkpt>
      <trkpt lat="48.605665" lon="16.771669">
        <ele>215.084447</ele>
        <time>2020-07-01T08:09:36.981Z</time>
      </trkpt>
      <trkpt lat="48.605695" lon="16.771511">
        <ele>215.124768</ele>
        <time>2020-07-01T08:09:38.995Z</time>
      </trkpt>
      <trkpt lat="48.605725" lon="16.771355">
        <ele>215.164618</ele>
        <time>2020-07-01T08:09:41.010Z</time>
      </trkpt>
      <trkpt lat="48.605746" lon="16.771192">
        <ele>215.205351</ele>
        <time>2020-07-01T08:09:42.980Z</time>
      </trkpt>
      <trkpt lat="48.605754" lon="16.771018">
        <ele>215.248134</ele>
        <time>2020-07-01T08:09:44.983Z</time>
      </trkpt>
      <trkpt lat="48.605750" lon="16.770843">
        <ele>215.291084</ele>
        <time>2020-07-01T08:09:46.982Z</time>
      </trkpt>
      <trkpt lat="48.605744" lon="16.770662">
        <ele>215.335536</ele>
        <time>2020-07-01T08:09:48.972Z</time>
      </trkpt>
      <trkpt lat="48.605735" lon="16.770477">
        <ele>215.381037</ele>
        <time>2020-07-01T08:09:51.000Z</time>
      </trkpt>
      <trkpt lat="48.605729" lon="16.770296">
        <ele>215.388098</ele>
        <time>2020-07-01T08:09:52.981Z</time>
      </trkpt>
      <trkpt lat="48.605718" lon="16.770112">
        <ele>215.383954</ele>
        <time>2020-07-01T08:09:54.970Z</time>
      </trkpt>
      <trkpt lat="48.605708" lon="16.769932">
        <ele>215.379902</ele>
        <time>2020-07-01T08:09:56.987Z</time>
      </trkpt>
      <trkpt lat="48.605699" lon="16.769752">
        <ele>215.375853</ele>
        <time>2020-07-01T08:09:58.968Z</time>
      </trkpt>
      <trkpt lat="48.605686" lon="16.769573">
        <ele>215.371814</ele>
        <time>2020-07-01T08:10:00.977Z</time>
      </trkpt>
      <trkpt lat="48.605674" lon="16.769392">
        <ele>215.367733</ele>
        <time>2020-07-01T08:10:02.983Z</time>
      </trkpt>
      <trkpt lat="48.605664" lon="16.769211">
        <ele>215.363659</ele>
        <time>2020-07-01T08:10:05.013Z</time>
      </trkpt>
      <trkpt lat="48.605660" lon="16.769035">
        <ele>215.359709</ele>
        <time>2020-07-01T08:10:06.991Z</time>
      </trkpt>
      <trkpt lat="48.605657" lon="16.768865">
        <ele>215.355894</ele>
        <time>2020-07-01T08:10:08.969Z</time>
      </trkpt>
      <trkpt lat="48.605652" lon="16.768693">
        <ele>215.352032</ele>
        <time>2020-07-01T08:10:10.975Z</time>
      </trkpt>
      <trkpt lat="48.605642" lon="16.768520">
        <ele>215.348137</ele>
        <time>2020-07-01T08:10:12.977Z</time>
      </trkpt>
      <trkpt lat="48.605637" lon="16.768342">
        <ele>215.344141</ele>
        <time>2020-07-01T08:10:14.976Z</time>
      </trkpt>
      <trkpt lat="48.605642" lon="16.768168">
        <ele>215.340234</ele>
        <time>2020-07-01T08:10:16.968Z</time>
      </trkpt>
      <trkpt lat="48.605655" lon="16.767998">
        <ele>215.336395</ele>
        <time>2020-07-01T08:10:18.980Z</time>
      </trkpt>
      <trkpt lat="48.605669" lon="16.767826">
        <ele>215.332508</ele>
        <time>2020-07-01T08:10:20.984Z</time>
      </trkpt>
      <trkpt lat="48.605704" lon="16.767648">
        <ele>215.315586</ele>
        <time>2020-07-01T08:10:22.979Z</time>
      </trkpt>
      <trkpt lat="48.605760" lon="16.767471">
        <ele>215.281214</ele>
        <time>2020-07-01T08:10:24.995Z</time>
      </trkpt>
      <trkpt lat="48.605835" lon="16.767307">
        <ele>215.246283</ele>
        <time>2020-07-01T08:10:26.969Z</time>
      </trkpt>
      <trkpt lat="48.605914" lon="16.767148">
        <ele>215.211444</ele>
        <time>2020-07-01T08:10:28.963Z</time>
      </trkpt>
      <trkpt lat="48.605981" lon="16.766975">
        <ele>215.176323</ele>
        <time>2020-07-01T08:10:30.973Z</time>
      </trkpt>
      <trkpt lat="48.606008" lon="16.766778">
        <ele>215.141080</ele>
        <time>2020-07-01T08:10:32.977Z</time>
      </trkpt>
      <trkpt lat="48.606015" lon="16.766574">
        <ele>215.105296</ele>
        <time>2020-07-01T08:10:34.993Z</time>
      </trkpt>
      <trkpt lat="48.606023" lon="16.766373">
        <ele>215.070022</ele>
        <time>2020-07-01T08:10:37.010Z</time>
      </trkpt>
      <trkpt lat="48.606033" lon="16.766176">
        <ele>215.035411</ele>
        <time>2020-07-01T08:10:38.979Z</time>
      </trkpt>
      <trkpt lat="48.606047" lon="16.765985">
        <ele>215.001747</ele>
        <time>2020-07-01T08:10:40.973Z</time>
      </trkpt>
      <trkpt lat="48.606056" lon="16.765808">
        <ele>214.970649</ele>
        <time>2020-07-01T08:10:42.998Z</time>
      </trkpt>
      <trkpt lat="48.606066" lon="16.765638">
        <ele>214.940752</ele>
        <time>2020-07-01T08:10:44.997Z</time>
      </trkpt>
      <trkpt lat="48.606078" lon="16.765468">
        <ele>214.910803</ele>
        <time>2020-07-01T08:10:46.981Z</time>
      </trkpt>
      <trkpt lat="48.606085" lon="16.765297">
        <ele>214.880791</ele>
        <time>2020-07-01T08:10:48.972Z</time>
      </trkpt>
      <trkpt lat="48.606092" lon="16.765119">
        <ele>214.855034</ele>
        <time>2020-07-01T08:10:50.987Z</time>
      </trkpt>
      <trkpt lat="48.606100" lon="16.764943">
        <ele>214.864836</ele>
        <time>2020-07-01T08:10:52.985Z</time>
      </trkpt>
      <trkpt lat="48.606108" lon="16.764762">
        <ele>214.874915</ele>
        <time>2020-07-01T08:10:55.007Z</time>
      </trkpt>
      <trkpt lat="48.606116" lon="16.764575">
        <ele>214.885327</ele>
        <time>2020-07-01T08:10:56.989Z</time>
      </trkpt>
      <trkpt lat="48.606124" lon="16.764387">
        <ele>214.895794</ele>
        <time>2020-07-01T08:10:58.980Z</time>
      </trkpt>
      <trkpt lat="48.606132" lon="16.764206">
        <ele>214.905874</ele>
        <time>2020-07-01T08:11:01.001Z</time>
      </trkpt>
      <trkpt lat="48.606138" lon="16.764028">
        <ele>214.915776</ele>
        <time>2020-07-01T08:11:02.975Z</time>
      </trkpt>
      <trkpt lat="48.606143" lon="16.763848">
        <ele>214.925786</ele>
        <time>2020-07-01T08:11:04.973Z</time>
      </trkpt>
      <trkpt lat="48.606146" lon="16.763666">
        <ele>214.935902</ele>
        <time>2020-07-01T08:11:06.983Z</time>
      </trkpt>
      <trkpt lat="48.606148" lon="16.763487">
        <ele>214.945849</ele>
        <time>2020-07-01T08:11:08.983Z</time>
      </trkpt>
      <trkpt lat="48.606150" lon="16.763311">
        <ele>214.955629</ele>
        <time>2020-07-01T08:11:10.971Z</time>
      </trkpt>
      <trkpt lat="48.606151" lon="16.763135">
        <ele>214.965409</ele>
        <time>2020-07-01T08:11:13.022Z</time>
      </trkpt>
      <trkpt lat="48.606153" lon="16.762962">
        <ele>214.975022</ele>
        <time>2020-07-01T08:11:14.994Z</time>
      </trkpt>
      <trkpt lat="48.606157" lon="16.762792">
        <ele>214.984474</ele>
        <time>2020-07-01T08:11:16.968Z</time>
      </trkpt>
      <trkpt lat="48.606165" lon="16.762624">
        <ele>214.993832</ele>
        <time>2020-07-01T08:11:18.970Z</time>
      </trkpt>
      <trkpt lat="48.606167" lon="16.762460">
        <ele>215.002946</ele>
        <time>2020-07-01T08:11:21.011Z</time>
      </trkpt>
      <trkpt lat="48.606173" lon="16.762296">
        <ele>215.041678</ele>
        <time>2020-07-01T08:11:22.964Z</time>
      </trkpt>
      <trkpt lat="48.606177" lon="16.762134">
        <ele>215.087614</ele>
        <time>2020-07-01T08:11:24.983Z</time>
      </trkpt>
      <trkpt lat="48.606176" lon="16.761969">
        <ele>215.134371</ele>
        <time>2020-07-01T08:11:26.958Z</time>
      </trkpt>
      <trkpt lat="48.606173" lon="16.761801">
        <ele>215.181993</ele>
        <time>2020-07-01T08:11:28.985Z</time>
      </trkpt>
      <trkpt lat="48.606168" lon="16.761628">
        <ele>215.231061</ele>
        <time>2020-07-01T08:11:30.972Z</time>
      </trkpt>
      <trkpt lat="48.606171" lon="16.761447">
        <ele>215.282366</ele>
        <time>2020-07-01T08:11:32.988Z</time>
      </trkpt>
      <trkpt lat="48.606183" lon="16.761258">
        <ele>215.336168</ele>
        <time>2020-07-01T08:11:34.981Z</time>
      </trkpt>
      <trkpt lat="48.606201" lon="16.761063">
        <ele>215.391959</ele>
        <time>2020-07-01T08:11:36.985Z</time>
      </trkpt>
      <trkpt lat="48.606225" lon="16.760868">
        <ele>215.448163</ele>
        <time>2020-07-01T08:11:38.998Z</time>
      </trkpt>
      <trkpt lat="48.606265" lon="16.760684">
        <ele>215.503047</ele>
        <time>2020-07-01T08:11:40.980Z</time>
      </trkpt>
      <trkpt lat="48.606319" lon="16.760515">
        <ele>215.556234</ele>
        <time>2020-07-01T08:11:42.993Z</time>
      </trkpt>
      <trkpt lat="48.606376" lon="16.760352">
        <ele>215.608483</ele>
        <time>2020-07-01T08:11:45.009Z</time>
      </trkpt>
      <trkpt lat="48.606444" lon="16.760201">
        <ele>215.660251</ele>
        <time>2020-07-01T08:11:46.993Z</time>
      </trkpt>
      <trkpt lat="48.606513" lon="16.760049">
        <ele>215.712494</ele>
        <time>2020-07-01T08:11:48.983Z</time>
      </trkpt>
      <trkpt lat="48.606584" lon="16.759905">
        <ele>215.763393</ele>
        <time>2020-07-01T08:11:50.989Z</time>
      </trkpt>
      <trkpt lat="48.606650" lon="16.759769">
        <ele>215.734330</ele>
        <time>2020-07-01T08:11:52.993Z</time>
      </trkpt>
      <trkpt lat="48.606714" lon="16.759634">
        <ele>215.679656</ele>
        <time>2020-07-01T08:11:54.998Z</time>
      </trkpt>
      <trkpt lat="48.606778" lon="16.759510">
        <ele>215.627881</ele>
        <time>2020-07-01T08:11:57.004Z</time>
      </trkpt>
      <trkpt lat="48.606847" lon="16.759374">
        <ele>215.571459</ele>
        <time>2020-07-01T08:11:58.978Z</time>
      </trkpt>
      <trkpt lat="48.606926" lon="16.759246">
        <ele>215.513827</ele>
        <time>2020-07-01T08:12:01.005Z</time>
      </trkpt>
      <trkpt lat="48.607014" lon="16.759117">
        <ele>215.452822</ele>
        <time>2020-07-01T08:12:02.972Z</time>
      </trkpt>
      <trkpt lat="48.607113" lon="16.758985">
        <ele>215.387125</ele>
        <time>2020-07-01T08:12:04.980Z</time>
      </trkpt>
      <trkpt lat="48.607215" lon="16.758860">
        <ele>215.321775</ele>
        <time>2020-07-01T08:12:06.989Z</time>
      </trkpt>
      <trkpt lat="48.607321" lon="16.758748">
        <ele>215.257409</ele>
        <time>2020-07-01T08:12:08.990Z</time>
      </trkpt>
      <trkpt lat="48.607432" lon="16.758647">
        <ele>215.192926</ele>
        <time>2020-07-01T08:12:10.978Z</time>
      </trkpt>
      <trkpt lat="48.607547" lon="16.758570">
        <ele>215.130323</ele>
        <time>2020-07-01T08:12:12.995Z</time>
      </trkpt>
      <trkpt lat="48.607652" lon="16.758493">
        <ele>215.072236</ele>
        <time>2020-07-01T08:12:14.998Z</time>
      </trkpt>
      <trkpt lat="48.607752" lon="16.758412">
        <ele>215.015768</ele>
        <time>2020-07-01T08:12:16.985Z</time>
      </trkpt>
      <trkpt lat="48.607857" lon="16.758338">
        <ele>214.958105</ele>
        <time>2020-07-01T08:12:18.969Z</time>
      </trkpt>
      <trkpt lat="48.607944" lon="16.758276">
        <ele>214.910232</ele>
        <time>2020-07-01T08:12:20.975Z</time>
      </trkpt>
      <trkpt lat="48.608028" lon="16.758220">
        <ele>214.942576</ele>
        <time>2020-07-01T08:12:22.968Z</time>
      </trkpt>
      <trkpt lat="48.608121" lon="16.758163">
        <ele>215.139723</ele>
        <time>2020-07-01T08:12:24.965Z</time>
      </trkpt>
      <trkpt lat="48.608218" lon="16.758103">
        <ele>215.345619</ele>
        <time>2020-07-01T08:12:26.989Z</time>
      </trkpt>
      <trkpt lat="48.608306" lon="16.758034">
        <ele>215.540363</ele>
        <time>2020-07-01T08:12:28.967Z</time>
      </trkpt>
      <trkpt lat="48.608399" lon="16.757974">
        <ele>215.739006</ele>
        <time>2020-07-01T08:12:30.986Z</time>
      </trkpt>
      <trkpt lat="48.608495" lon="16.757930">
        <ele>215.936085</ele>
        <time>2020-07-01T08:12:32.964Z</time>
      </trkpt>
      <trkpt lat="48.608597" lon="16.757892">
        <ele>216.142470</ele>
        <time>2020-07-01T08:12:34.961Z</time>
      </trkpt>
      <trkpt lat="48.608694" lon="16.757866">
        <ele>216.336012</ele>
        <time>2020-07-01T08:12:36.974Z</time>
      </trkpt>
      <trkpt lat="48.608795" lon="16.757842">
        <ele>216.536878</ele>
        <time>2020-07-01T08:12:38.965Z</time>
      </trkpt>
      <trkpt lat="48.608923" lon="16.757805">
        <ele>216.792906</ele>
        <time>2020-07-01T08:12:40.987Z</time>
      </trkpt>
      <trkpt lat="48.609059" lon="16.757755">
        <ele>217.067882</ele>
        <time>2020-07-01T08:12:42.959Z</time>
      </trkpt>
      <trkpt lat="48.609190" lon="16.757710">
        <ele>217.331807</ele>
        <time>2020-07-01T08:12:44.993Z</time>
      </trkpt>
      <trkpt lat="48.609318" lon="16.757669">
        <ele>217.588862</ele>
        <time>2020-07-01T08:12:46.981Z</time>
      </trkpt>
      <trkpt lat="48.609445" lon="16.757634">
        <ele>217.842483</ele>
        <time>2020-07-01T08:12:48.992Z</time>
      </trkpt>
      <trkpt lat="48.609570" lon="16.757617">
        <ele>218.089056</ele>
        <time>2020-07-01T08:12:50.982Z</time>
      </trkpt>
      <trkpt lat="48.609691" lon="16.757581">
        <ele>218.331337</ele>
        <time>2020-07-01T08:12:52.982Z</time>
      </trkpt>
      <trkpt lat="48.609803" lon="16.757550">
        <ele>218.494563</ele>
        <time>2020-07-01T08:12:54.979Z</time>
      </trkpt>
      <trkpt lat="48.609922" lon="16.757504">
        <ele>218.632379</ele>
        <time>2020-07-01T08:12:56.978Z</time>
      </trkpt>
      <trkpt lat="48.610035" lon="16.757463">
        <ele>218.762768</ele>
        <time>2020-07-01T08:12:58.985Z</time>
      </trkpt>
      <trkpt lat="48.610164" lon="16.757424">
        <ele>218.910376</ele>
        <time>2020-07-01T08:13:01.000Z</time>
      </trkpt>
      <trkpt lat="48.610281" lon="16.757371">
        <ele>219.047417</ele>
        <time>2020-07-01T08:13:02.974Z</time>
      </trkpt>
      <trkpt lat="48.610394" lon="16.757311">
        <ele>219.181795</ele>
        <time>2020-07-01T08:13:04.975Z</time>
      </trkpt>
      <trkpt lat="48.610500" lon="16.757251">
        <ele>219.308789</ele>
        <time>2020-07-01T08:13:07.000Z</time>
      </trkpt>
      <trkpt lat="48.610609" lon="16.757183">
        <ele>219.441088</ele>
        <time>2020-07-01T08:13:08.978Z</time>
      </trkpt>
      <trkpt lat="48.610723" lon="16.757114">
        <ele>219.578864</ele>
        <time>2020-07-01T08:13:10.974Z</time>
      </trkpt>
      <trkpt lat="48.610837" lon="16.757048">
        <ele>219.715829</ele>
        <time>2020-07-01T08:13:12.996Z</time>
      </trkpt>
      <trkpt lat="48.610953" lon="16.756987">
        <ele>219.853629</ele>
        <time>2020-07-01T08:13:14.993Z</time>
      </trkpt>
      <trkpt lat="48.611069" lon="16.756927">
        <ele>219.991187</ele>
        <time>2020-07-01T08:13:16.978Z</time>
      </trkpt>
      <trkpt lat="48.611186" lon="16.756865">
        <ele>220.130291</ele>
        <time>2020-07-01T08:13:19.009Z</time>
      </trkpt>
      <trkpt lat="48.611303" lon="16.756801">
        <ele>220.269893</ele>
        <time>2020-07-01T08:13:20.978Z</time>
      </trkpt>
      <trkpt lat="48.611415" lon="16.756716">
        <ele>220.410496</ele>
        <time>2020-07-01T08:13:22.967Z</time>
      </trkpt>
      <trkpt lat="48.611508" lon="16.756606">
        <ele>220.319158</ele>
        <time>2020-07-01T08:13:24.985Z</time>
      </trkpt>
      <trkpt lat="48.611585" lon="16.756471">
        <ele>220.184158</ele>
        <time>2020-07-01T08:13:26.989Z</time>
      </trkpt>
      <trkpt lat="48.611655" lon="16.756329">
        <ele>220.050044</ele>
        <time>2020-07-01T08:13:28.973Z</time>
      </trkpt>
      <trkpt lat="48.611720" lon="16.756178">
        <ele>219.913613</ele>
        <time>2020-07-01T08:13:30.999Z</time>
      </trkpt>
      <trkpt lat="48.611774" lon="16.756017">
        <ele>219.776919</ele>
        <time>2020-07-01T08:13:32.986Z</time>
      </trkpt>
      <trkpt lat="48.611827" lon="16.755864">
        <ele>219.646134</ele>
        <time>2020-07-01T08:13:34.971Z</time>
      </trkpt>
      <trkpt lat="48.611887" lon="16.755735">
        <ele>219.526711</ele>
        <time>2020-07-01T08:13:36.977Z</time>
      </trkpt>
      <trkpt lat="48.611951" lon="16.755631">
        <ele>219.419133</ele>
        <time>2020-07-01T08:13:38.962Z</time>
      </trkpt>
      <trkpt lat="48.612026" lon="16.755556">
        <ele>219.316166</ele>
        <time>2020-07-01T08:13:40.971Z</time>
      </trkpt>
      <trkpt lat="48.612124" lon="16.755668">
        <ele>219.175498</ele>
        <time>2020-07-01T08:13:43.994Z</time>
      </trkpt>
      <trkpt lat="48.612168" lon="16.755795">
        <ele>219.066935</ele>
        <time>2020-07-01T08:13:45.960Z</time>
      </trkpt>
      <trkpt lat="48.612208" lon="16.755923">
        <ele>218.959737</ele>
        <time>2020-07-01T08:13:48.001Z</time>
      </trkpt>
      <trkpt lat="48.612255" lon="16.756068">
        <ele>218.837464</ele>
        <time>2020-07-01T08:13:49.964Z</time>
      </trkpt>
      <trkpt lat="48.612306" lon="16.756209">
        <ele>218.715771</ele>
        <time>2020-07-01T08:13:51.995Z</time>
      </trkpt>
      <trkpt lat="48.612362" lon="16.756351">
        <ele>218.590580</ele>
        <time>2020-07-01T08:13:54.000Z</time>
      </trkpt>
      <trkpt lat="48.612415" lon="16.756495">
        <ele>218.465792</ele>
        <time>2020-07-01T08:13:55.976Z</time>
      </trkpt>
      <trkpt lat="48.612464" lon="16.756642">
        <ele>218.352339</ele>
        <time>2020-07-01T08:13:57.965Z</time>
      </trkpt>
      <trkpt lat="48.612513" lon="16.756790">
        <ele>218.271963</ele>
        <time>2020-07-01T08:13:59.985Z</time>
      </trkpt>
      <trkpt lat="48.612559" lon="16.756935">
        <ele>218.193864</ele>
        <time>2020-07-01T08:14:01.980Z</time>
      </trkpt>
      <trkpt lat="48.612611" lon="16.757071">
        <ele>218.117574</ele>
        <time>2020-07-01T08:14:03.983Z</time>
      </trkpt>
      <trkpt lat="48.612665" lon="16.757204">
        <ele>218.041783</ele>
        <time>2020-07-01T08:14:05.965Z</time>
      </trkpt>
      <trkpt lat="48.612722" lon="16.757339">
        <ele>217.964000</ele>
        <time>2020-07-01T08:14:07.977Z</time>
      </trkpt>
      <trkpt lat="48.612778" lon="16.757476">
        <ele>217.885785</ele>
        <time>2020-07-01T08:14:10.012Z</time>
      </trkpt>
      <trkpt lat="48.612828" lon="16.757617">
        <ele>217.808089</ele>
        <time>2020-07-01T08:14:11.976Z</time>
      </trkpt>
      <trkpt lat="48.612886" lon="16.757759">
        <ele>217.727036</ele>
        <time>2020-07-01T08:14:13.977Z</time>
      </trkpt>
      <trkpt lat="48.612943" lon="16.757906">
        <ele>217.644282</ele>
        <time>2020-07-01T08:14:15.982Z</time>
      </trkpt>
      <trkpt lat="48.613004" lon="16.758051">
        <ele>217.560825</ele>
        <time>2020-07-01T08:14:17.958Z</time>
      </trkpt>
      <trkpt lat="48.613109" lon="16.758082">
        <ele>217.482249</ele>
        <time>2020-07-01T08:14:19.967Z</time>
      </trkpt>
      <trkpt lat="48.613221" lon="16.757986">
        <ele>217.387697</ele>
        <time>2020-07-01T08:14:21.989Z</time>
      </trkpt>
      <trkpt lat="48.613331" lon="16.757881">
        <ele>217.292160</ele>
        <time>2020-07-01T08:14:23.980Z</time>
      </trkpt>
      <trkpt lat="48.613458" lon="16.757768">
        <ele>217.183939</ele>
        <time>2020-07-01T08:14:25.994Z</time>
      </trkpt>
      <trkpt lat="48.613576" lon="16.757658">
        <ele>217.082132</ele>
        <time>2020-07-01T08:14:27.972Z</time>
      </trkpt>
      <trkpt lat="48.613694" lon="16.757556">
        <ele>216.982338</ele>
        <time>2020-07-01T08:14:29.999Z</time>
      </trkpt>
      <trkpt lat="48.613810" lon="16.757465">
        <ele>216.886402</ele>
        <time>2020-07-01T08:14:31.975Z</time>
      </trkpt>
      <trkpt lat="48.613922" lon="16.757369">
        <ele>216.791890</ele>
        <time>2020-07-01T08:14:33.994Z</time>
      </trkpt>
      <trkpt lat="48.614032" lon="16.757268">
        <ele>216.697417</ele>
        <time>2020-07-01T08:14:36.001Z</time>
      </trkpt>
      <trkpt lat="48.614146" lon="16.757174">
        <ele>216.602094</ele>
        <time>2020-07-01T08:14:37.993Z</time>
      </trkpt>
      <trkpt lat="48.614257" lon="16.757078">
        <ele>216.508220</ele>
        <time>2020-07-01T08:14:39.995Z</time>
      </trkpt>
      <trkpt lat="48.614367" lon="16.756983">
        <ele>216.415225</ele>
        <time>2020-07-01T08:14:42.003Z</time>
      </trkpt>
      <trkpt lat="48.614478" lon="16.756891">
        <ele>216.322300</ele>
        <time>2020-07-01T08:14:43.977Z</time>
      </trkpt>
      <trkpt lat="48.614590" lon="16.756801">
        <ele>216.229190</ele>
        <time>2020-07-01T08:14:45.958Z</time>
      </trkpt>
      <trkpt lat="48.614702" lon="16.756710">
        <ele>216.135851</ele>
        <time>2020-07-01T08:14:47.966Z</time>
      </trkpt>
      <trkpt lat="48.614813" lon="16.756621">
        <ele>216.043617</ele>
        <time>2020-07-01T08:14:49.985Z</time>
      </trkpt>
      <trkpt lat="48.614921" lon="16.756527">
        <ele>215.952137</ele>
        <time>2020-07-01T08:14:51.983Z</time>
      </trkpt>
      <trkpt lat="48.615030" lon="16.756433">
        <ele>215.860021</ele>
        <time>2020-07-01T08:14:53.972Z</time>
      </trkpt>
      <trkpt lat="48.615138" lon="16.756337">
        <ele>215.768053</ele>
        <time>2020-07-01T08:14:55.977Z</time>
      </trkpt>
      <trkpt lat="48.615246" lon="16.756236">
        <ele>215.710414</ele>
        <time>2020-07-01T08:14:58.004Z</time>
      </trkpt>
      <trkpt lat="48.615355" lon="16.756146">
        <ele>215.677218</ele>
        <time>2020-07-01T08:14:59.993Z</time>
      </trkpt>
      <trkpt lat="48.615461" lon="16.756046">
        <ele>215.643823</ele>
        <time>2020-07-01T08:15:01.998Z</time>
      </trkpt>
      <trkpt lat="48.615573" lon="16.755958">
        <ele>215.610086</ele>
        <time>2020-07-01T08:15:03.984Z</time>
      </trkpt>
      <trkpt lat="48.615684" lon="16.755864">
        <ele>215.576080</ele>
        <time>2020-07-01T08:15:06.007Z</time>
      </trkpt>
      <trkpt lat="48.615797" lon="16.755775">
        <ele>215.542024</ele>
        <time>2020-07-01T08:15:07.951Z</time>
      </trkpt>
      <trkpt lat="48.615907" lon="16.755684">
        <ele>215.508509</ele>
        <time>2020-07-01T08:15:09.983Z</time>
      </trkpt>
      <trkpt lat="48.616017" lon="16.755597">
        <ele>215.475328</ele>
        <time>2020-07-01T08:15:11.998Z</time>
      </trkpt>
      <trkpt lat="48.616123" lon="16.755501">
        <ele>215.442302</ele>
        <time>2020-07-01T08:15:13.994Z</time>
      </trkpt>
      <trkpt lat="48.616230" lon="16.755406">
        <ele>215.409136</ele>
        <time>2020-07-01T08:15:15.984Z</time>
      </trkpt>
      <trkpt lat="48.616338" lon="16.755315">
        <ele>215.376089</ele>
        <time>2020-07-01T08:15:17.975Z</time>
      </trkpt>
      <trkpt lat="48.616446" lon="16.755227">
        <ele>215.343297</ele>
        <time>2020-07-01T08:15:19.960Z</time>
      </trkpt>
      <trkpt lat="48.616553" lon="16.755138">
        <ele>215.310656</ele>
        <time>2020-07-01T08:15:21.978Z</time>
      </trkpt>
      <trkpt lat="48.616655" lon="16.755050">
        <ele>215.279266</ele>
        <time>2020-07-01T08:15:23.971Z</time>
      </trkpt>
      <trkpt lat="48.616749" lon="16.754959">
        <ele>215.259949</ele>
        <time>2020-07-01T08:15:25.985Z</time>
      </trkpt>
      <trkpt lat="48.616841" lon="16.754876">
        <ele>215.778247</ele>
        <time>2020-07-01T08:15:28.004Z</time>
      </trkpt>
      <trkpt lat="48.616908" lon="16.754771">
        <ele>216.245035</ele>
        <time>2020-07-01T08:15:29.959Z</time>
      </trkpt>
      <trkpt lat="48.616892" lon="16.754600">
        <ele>216.797457</ele>
        <time>2020-07-01T08:15:31.960Z</time>
      </trkpt>
      <trkpt lat="48.616847" lon="16.754449">
        <ele>217.327262</ele>
        <time>2020-07-01T08:15:33.976Z</time>
      </trkpt>
      <trkpt lat="48.616806" lon="16.754303">
        <ele>217.834654</ele>
        <time>2020-07-01T08:15:35.988Z</time>
      </trkpt>
      <trkpt lat="48.616766" lon="16.754158">
        <ele>218.337220</ele>
        <time>2020-07-01T08:15:37.961Z</time>
      </trkpt>
      <trkpt lat="48.616717" lon="16.754031">
        <ele>218.807574</ele>
        <time>2020-07-01T08:15:39.973Z</time>
      </trkpt>
      <trkpt lat="48.616659" lon="16.753886">
        <ele>219.349672</ele>
        <time>2020-07-01T08:15:42.989Z</time>
      </trkpt>
      <trkpt lat="48.616659" lon="16.753886">
        <ele>219.349672</ele>
        <time>2020-07-01T08:15:56.933Z</time>
      </trkpt>
      <trkpt lat="48.616628" lon="16.753739">
        <ele>219.843221</ele>
        <time>2020-07-01T08:23:24.992Z</time>
      </trkpt>
      <trkpt lat="48.616582" lon="16.753578">
        <ele>220.404245</ele>
        <time>2020-07-01T08:23:29.961Z</time>
      </trkpt>
      <trkpt lat="48.616544" lon="16.753454">
        <ele>220.841423</ele>
        <time>2020-07-01T08:23:32.959Z</time>
      </trkpt>
      <trkpt lat="48.616507" lon="16.753317">
        <ele>221.314800</ele>
        <time>2020-07-01T08:23:35.964Z</time>
      </trkpt>
      <trkpt lat="48.616455" lon="16.753151">
        <ele>221.902374</ele>
        <time>2020-07-01T08:23:38.959Z</time>
      </trkpt>
      <trkpt lat="48.616404" lon="16.752981">
        <ele>222.499521</ele>
        <time>2020-07-01T08:23:41.967Z</time>
      </trkpt>
      <trkpt lat="48.616362" lon="16.752810">
        <ele>223.083027</ele>
        <time>2020-07-01T08:23:44.957Z</time>
      </trkpt>
      <trkpt lat="48.616315" lon="16.752647">
        <ele>223.651849</ele>
        <time>2020-07-01T08:23:47.967Z</time>
      </trkpt>
      <trkpt lat="48.616253" lon="16.752473">
        <ele>223.880394</ele>
        <time>2020-07-01T08:23:50.961Z</time>
      </trkpt>
      <trkpt lat="48.616193" lon="16.752294">
        <ele>223.740484</ele>
        <time>2020-07-01T08:23:53.968Z</time>
      </trkpt>
      <trkpt lat="48.616151" lon="16.752167">
        <ele>223.641489</ele>
        <time>2020-07-01T08:23:55.955Z</time>
      </trkpt>
      <trkpt lat="48.616110" lon="16.752043">
        <ele>223.544836</ele>
        <time>2020-07-01T08:23:57.956Z</time>
      </trkpt>
      <trkpt lat="48.616063" lon="16.751913">
        <ele>223.441542</ele>
        <time>2020-07-01T08:23:59.988Z</time>
      </trkpt>
      <trkpt lat="48.616020" lon="16.751791">
        <ele>223.345160</ele>
        <time>2020-07-01T08:24:01.961Z</time>
      </trkpt>
      <trkpt lat="48.615961" lon="16.751607">
        <ele>223.202595</ele>
        <time>2020-07-01T08:24:04.957Z</time>
      </trkpt>
      <trkpt lat="48.615895" lon="16.751431">
        <ele>223.061535</ele>
        <time>2020-07-01T08:24:07.946Z</time>
      </trkpt>
      <trkpt lat="48.615839" lon="16.751312">
        <ele>222.959706</ele>
        <time>2020-07-01T08:24:09.957Z</time>
      </trkpt>
      <trkpt lat="48.615777" lon="16.751191">
        <ele>222.852982</ele>
        <time>2020-07-01T08:24:11.991Z</time>
      </trkpt>
      <trkpt lat="48.615709" lon="16.751070">
        <ele>222.742270</ele>
        <time>2020-07-01T08:24:13.952Z</time>
      </trkpt>
      <trkpt lat="48.615635" lon="16.750947">
        <ele>222.626331</ele>
        <time>2020-07-01T08:24:15.972Z</time>
      </trkpt>
      <trkpt lat="48.615552" lon="16.750838">
        <ele>222.510423</ele>
        <time>2020-07-01T08:24:17.967Z</time>
      </trkpt>
      <trkpt lat="48.615469" lon="16.750731">
        <ele>222.395425</ele>
        <time>2020-07-01T08:24:19.962Z</time>
      </trkpt>
      <trkpt lat="48.615381" lon="16.750637">
        <ele>222.281823</ele>
        <time>2020-07-01T08:24:21.958Z</time>
      </trkpt>
      <trkpt lat="48.615280" lon="16.750561">
        <ele>222.162867</ele>
        <time>2020-07-01T08:24:23.966Z</time>
      </trkpt>
      <trkpt lat="48.615184" lon="16.750492">
        <ele>222.053146</ele>
        <time>2020-07-01T08:24:25.971Z</time>
      </trkpt>
      <trkpt lat="48.615083" lon="16.750430">
        <ele>221.990543</ele>
        <time>2020-07-01T08:24:27.981Z</time>
      </trkpt>
      <trkpt lat="48.614985" lon="16.750374">
        <ele>221.930375</ele>
        <time>2020-07-01T08:24:30.011Z</time>
      </trkpt>
      <trkpt lat="48.614891" lon="16.750318">
        <ele>221.872351</ele>
        <time>2020-07-01T08:24:31.973Z</time>
      </trkpt>
      <trkpt lat="48.614798" lon="16.750262">
        <ele>221.814861</ele>
        <time>2020-07-01T08:24:33.954Z</time>
      </trkpt>
      <trkpt lat="48.614706" lon="16.750208">
        <ele>221.758182</ele>
        <time>2020-07-01T08:24:35.976Z</time>
      </trkpt>
      <trkpt lat="48.614617" lon="16.750144">
        <ele>221.701584</ele>
        <time>2020-07-01T08:24:37.968Z</time>
      </trkpt>
      <trkpt lat="48.614530" lon="16.750079">
        <ele>221.645853</ele>
        <time>2020-07-01T08:24:39.984Z</time>
      </trkpt>
      <trkpt lat="48.614438" lon="16.750026">
        <ele>221.589311</ele>
        <time>2020-07-01T08:24:41.964Z</time>
      </trkpt>
      <trkpt lat="48.614340" lon="16.749958">
        <ele>221.527386</ele>
        <time>2020-07-01T08:24:43.961Z</time>
      </trkpt>
      <trkpt lat="48.614247" lon="16.749882">
        <ele>221.466675</ele>
        <time>2020-07-01T08:24:45.974Z</time>
      </trkpt>
      <trkpt lat="48.614153" lon="16.749801">
        <ele>221.404541</ele>
        <time>2020-07-01T08:24:47.989Z</time>
      </trkpt>
      <trkpt lat="48.614066" lon="16.749718">
        <ele>221.345465</ele>
        <time>2020-07-01T08:24:49.965Z</time>
      </trkpt>
      <trkpt lat="48.613978" lon="16.749637">
        <ele>221.286300</ele>
        <time>2020-07-01T08:24:51.968Z</time>
      </trkpt>
      <trkpt lat="48.613887" lon="16.749562">
        <ele>221.226780</ele>
        <time>2020-07-01T08:24:54.016Z</time>
      </trkpt>
      <trkpt lat="48.613798" lon="16.749493">
        <ele>221.169340</ele>
        <time>2020-07-01T08:24:55.991Z</time>
      </trkpt>
      <trkpt lat="48.613707" lon="16.749428">
        <ele>221.111541</ele>
        <time>2020-07-01T08:24:57.978Z</time>
      </trkpt>
      <trkpt lat="48.613611" lon="16.749363">
        <ele>221.051132</ele>
        <time>2020-07-01T08:24:59.978Z</time>
      </trkpt>
      <trkpt lat="48.613516" lon="16.749297">
        <ele>221.030354</ele>
        <time>2020-07-01T08:25:01.981Z</time>
      </trkpt>
      <trkpt lat="48.613415" lon="16.749237">
        <ele>221.044872</ele>
        <time>2020-07-01T08:25:03.997Z</time>
      </trkpt>
      <trkpt lat="48.613318" lon="16.749181">
        <ele>221.058763</ele>
        <time>2020-07-01T08:25:05.965Z</time>
      </trkpt>
      <trkpt lat="48.613225" lon="16.749122">
        <ele>221.072255</ele>
        <time>2020-07-01T08:25:07.978Z</time>
      </trkpt>
      <trkpt lat="48.613139" lon="16.749072">
        <ele>221.084582</ele>
        <time>2020-07-01T08:25:09.983Z</time>
      </trkpt>
      <trkpt lat="48.613045" lon="16.749021">
        <ele>221.097943</ele>
        <time>2020-07-01T08:25:11.967Z</time>
      </trkpt>
      <trkpt lat="48.612950" lon="16.748965">
        <ele>221.111584</ele>
        <time>2020-07-01T08:25:13.984Z</time>
      </trkpt>
      <trkpt lat="48.612853" lon="16.748909">
        <ele>221.125475</ele>
        <time>2020-07-01T08:25:15.994Z</time>
      </trkpt>
      <trkpt lat="48.612751" lon="16.748855">
        <ele>221.139933</ele>
        <time>2020-07-01T08:25:17.991Z</time>
      </trkpt>
      <trkpt lat="48.612647" lon="16.748805">
        <ele>221.154533</ele>
        <time>2020-07-01T08:25:20.008Z</time>
      </trkpt>
      <trkpt lat="48.612542" lon="16.748755">
        <ele>221.169261</ele>
        <time>2020-07-01T08:25:22.002Z</time>
      </trkpt>
      <trkpt lat="48.612441" lon="16.748705">
        <ele>221.183479</ele>
        <time>2020-07-01T08:25:24.008Z</time>
      </trkpt>
      <trkpt lat="48.612340" lon="16.748649">
        <ele>221.197871</ele>
        <time>2020-07-01T08:25:25.959Z</time>
      </trkpt>
      <trkpt lat="48.612241" lon="16.748591">
        <ele>221.212075</ele>
        <time>2020-07-01T08:25:27.996Z</time>
      </trkpt>
      <trkpt lat="48.612144" lon="16.748535">
        <ele>221.225966</ele>
        <time>2020-07-01T08:25:29.976Z</time>
      </trkpt>
      <trkpt lat="48.612045" lon="16.748487">
        <ele>221.239875</ele>
        <time>2020-07-01T08:25:31.972Z</time>
      </trkpt>
      <trkpt lat="48.611945" lon="16.748438">
        <ele>221.253939</ele>
        <time>2020-07-01T08:25:33.980Z</time>
      </trkpt>
      <trkpt lat="48.611847" lon="16.748394">
        <ele>221.258166</ele>
        <time>2020-07-01T08:25:35.957Z</time>
      </trkpt>
      <trkpt lat="48.611745" lon="16.748345">
        <ele>221.238990</ele>
        <time>2020-07-01T08:25:37.969Z</time>
      </trkpt>
      <trkpt lat="48.611639" lon="16.748282">
        <ele>221.218584</ele>
        <time>2020-07-01T08:25:39.990Z</time>
      </trkpt>
      <trkpt lat="48.611528" lon="16.748216">
        <ele>221.197214</ele>
        <time>2020-07-01T08:25:42.034Z</time>
      </trkpt>
      <trkpt lat="48.611419" lon="16.748155">
        <ele>221.176389</ele>
        <time>2020-07-01T08:25:44.017Z</time>
      </trkpt>
      <trkpt lat="48.611305" lon="16.748117">
        <ele>221.155473</ele>
        <time>2020-07-01T08:25:45.980Z</time>
      </trkpt>
      <trkpt lat="48.611188" lon="16.748155">
        <ele>221.134031</ele>
        <time>2020-07-01T08:25:47.963Z</time>
      </trkpt>
      <trkpt lat="48.611082" lon="16.748259">
        <ele>221.111393</ele>
        <time>2020-07-01T08:25:49.970Z</time>
      </trkpt>
      <trkpt lat="48.611005" lon="16.748381">
        <ele>221.091412</ele>
        <time>2020-07-01T08:25:51.967Z</time>
      </trkpt>
      <trkpt lat="48.610925" lon="16.748505">
        <ele>221.070887</ele>
        <time>2020-07-01T08:25:54.004Z</time>
      </trkpt>
      <trkpt lat="48.610827" lon="16.748565">
        <ele>221.051944</ele>
        <time>2020-07-01T08:25:55.981Z</time>
      </trkpt>
      <trkpt lat="48.610711" lon="16.748527">
        <ele>221.030678</ele>
        <time>2020-07-01T08:25:57.979Z</time>
      </trkpt>
      <trkpt lat="48.610619" lon="16.748447">
        <ele>221.011663</ele>
        <time>2020-07-01T08:25:59.973Z</time>
      </trkpt>
      <trkpt lat="48.610530" lon="16.748382">
        <ele>220.993954</ele>
        <time>2020-07-01T08:26:01.968Z</time>
      </trkpt>
      <trkpt lat="48.610445" lon="16.748326">
        <ele>220.977342</ele>
        <time>2020-07-01T08:26:03.963Z</time>
      </trkpt>
      <trkpt lat="48.610326" lon="16.748243">
        <ele>220.953862</ele>
        <time>2020-07-01T08:26:06.961Z</time>
      </trkpt>
      <trkpt lat="48.610215" lon="16.748172">
        <ele>220.942809</ele>
        <time>2020-07-01T08:26:09.958Z</time>
      </trkpt>
      <trkpt lat="48.610117" lon="16.748099">
        <ele>220.946077</ele>
        <time>2020-07-01T08:26:12.952Z</time>
      </trkpt>
      <trkpt lat="48.610017" lon="16.748044">
        <ele>220.949259</ele>
        <time>2020-07-01T08:26:15.971Z</time>
      </trkpt>
      <trkpt lat="48.609910" lon="16.747991">
        <ele>220.952627</ele>
        <time>2020-07-01T08:26:18.969Z</time>
      </trkpt>
      <trkpt lat="48.609791" lon="16.747938">
        <ele>220.956337</ele>
        <time>2020-07-01T08:26:21.972Z</time>
      </trkpt>
      <trkpt lat="48.609704" lon="16.747899">
        <ele>220.959051</ele>
        <time>2020-07-01T08:26:23.980Z</time>
      </trkpt>
      <trkpt lat="48.609609" lon="16.747857">
        <ele>220.962012</ele>
        <time>2020-07-01T08:26:25.974Z</time>
      </trkpt>
      <trkpt lat="48.609513" lon="16.747820">
        <ele>220.964975</ele>
        <time>2020-07-01T08:26:27.959Z</time>
      </trkpt>
      <trkpt lat="48.609414" lon="16.747782">
        <ele>220.968030</ele>
        <time>2020-07-01T08:26:29.984Z</time>
      </trkpt>
      <trkpt lat="48.609314" lon="16.747748">
        <ele>220.971095</ele>
        <time>2020-07-01T08:26:31.966Z</time>
      </trkpt>
      <trkpt lat="48.609216" lon="16.747725">
        <ele>220.974062</ele>
        <time>2020-07-01T08:26:33.958Z</time>
      </trkpt>
      <trkpt lat="48.609116" lon="16.747700">
        <ele>220.977093</ele>
        <time>2020-07-01T08:26:35.986Z</time>
      </trkpt>
      <trkpt lat="48.609015" lon="16.747677">
        <ele>220.980148</ele>
        <time>2020-07-01T08:26:37.972Z</time>
      </trkpt>
      <trkpt lat="48.608918" lon="16.747661">
        <ele>220.983067</ele>
        <time>2020-07-01T08:26:39.970Z</time>
      </trkpt>
      <trkpt lat="48.608824" lon="16.747644">
        <ele>220.985898</ele>
        <time>2020-07-01T08:26:41.974Z</time>
      </trkpt>
      <trkpt lat="48.608690" lon="16.747619">
        <ele>220.989937</ele>
        <time>2020-07-01T08:26:44.974Z</time>
      </trkpt>
      <trkpt lat="48.608562" lon="16.747597">
        <ele>220.993790</ele>
        <time>2020-07-01T08:26:47.978Z</time>
      </trkpt>
      <trkpt lat="48.608432" lon="16.747584">
        <ele>220.996016</ele>
        <time>2020-07-01T08:26:50.965Z</time>
      </trkpt>
      <trkpt lat="48.608340" lon="16.747573">
        <ele>220.996995</ele>
        <time>2020-07-01T08:26:52.969Z</time>
      </trkpt>
      <trkpt lat="48.608239" lon="16.747551">
        <ele>220.998077</ele>
        <time>2020-07-01T08:26:54.979Z</time>
      </trkpt>
      <trkpt lat="48.608137" lon="16.747529">
        <ele>220.999169</ele>
        <time>2020-07-01T08:26:56.963Z</time>
      </trkpt>
      <trkpt lat="48.608031" lon="16.747508">
        <ele>221.000303</ele>
        <time>2020-07-01T08:26:58.954Z</time>
      </trkpt>
      <trkpt lat="48.607920" lon="16.747488">
        <ele>221.001488</ele>
        <time>2020-07-01T08:27:00.966Z</time>
      </trkpt>
      <trkpt lat="48.607808" lon="16.747473">
        <ele>221.002681</ele>
        <time>2020-07-01T08:27:02.988Z</time>
      </trkpt>
      <trkpt lat="48.607691" lon="16.747461">
        <ele>221.003924</ele>
        <time>2020-07-01T08:27:04.966Z</time>
      </trkpt>
      <trkpt lat="48.607576" lon="16.747445">
        <ele>221.005149</ele>
        <time>2020-07-01T08:27:06.960Z</time>
      </trkpt>
      <trkpt lat="48.607458" lon="16.747423">
        <ele>221.006409</ele>
        <time>2020-07-01T08:27:08.960Z</time>
      </trkpt>
      <trkpt lat="48.607344" lon="16.747391">
        <ele>221.007639</ele>
        <time>2020-07-01T08:27:10.984Z</time>
      </trkpt>
      <trkpt lat="48.607238" lon="16.747351">
        <ele>221.008797</ele>
        <time>2020-07-01T08:27:12.956Z</time>
      </trkpt>
      <trkpt lat="48.607132" lon="16.747310">
        <ele>221.009958</ele>
        <time>2020-07-01T08:27:14.964Z</time>
      </trkpt>
      <trkpt lat="48.607020" lon="16.747263">
        <ele>221.011190</ele>
        <time>2020-07-01T08:27:16.969Z</time>
      </trkpt>
      <trkpt lat="48.606910" lon="16.747205">
        <ele>221.012425</ele>
        <time>2020-07-01T08:27:18.957Z</time>
      </trkpt>
      <trkpt lat="48.606813" lon="16.747137">
        <ele>221.013559</ele>
        <time>2020-07-01T08:27:20.957Z</time>
      </trkpt>
      <trkpt lat="48.606730" lon="16.747067">
        <ele>221.007615</ele>
        <time>2020-07-01T08:27:22.966Z</time>
      </trkpt>
      <trkpt lat="48.606648" lon="16.746990">
        <ele>220.990648</ele>
        <time>2020-07-01T08:27:24.956Z</time>
      </trkpt>
      <trkpt lat="48.606565" lon="16.746908">
        <ele>220.973220</ele>
        <time>2020-07-01T08:27:26.962Z</time>
      </trkpt>
      <trkpt lat="48.606485" lon="16.746817">
        <ele>220.955623</ele>
        <time>2020-07-01T08:27:28.956Z</time>
      </trkpt>
      <trkpt lat="48.606409" lon="16.746718">
        <ele>220.937990</ele>
        <time>2020-07-01T08:27:30.967Z</time>
      </trkpt>
      <trkpt lat="48.606336" lon="16.746606">
        <ele>220.919710</ele>
        <time>2020-07-01T08:27:32.956Z</time>
      </trkpt>
      <trkpt lat="48.606266" lon="16.746489">
        <ele>220.901369</ele>
        <time>2020-07-01T08:27:34.952Z</time>
      </trkpt>
      <trkpt lat="48.606197" lon="16.746363">
        <ele>220.882353</ele>
        <time>2020-07-01T08:27:36.968Z</time>
      </trkpt>
      <trkpt lat="48.606132" lon="16.746239">
        <ele>220.863959</ele>
        <time>2020-07-01T08:27:38.955Z</time>
      </trkpt>
      <trkpt lat="48.606073" lon="16.746114">
        <ele>220.846108</ele>
        <time>2020-07-01T08:27:40.954Z</time>
      </trkpt>
      <trkpt lat="48.606024" lon="16.745992">
        <ele>220.829516</ele>
        <time>2020-07-01T08:27:42.992Z</time>
      </trkpt>
      <trkpt lat="48.605968" lon="16.745817">
        <ele>220.806917</ele>
        <time>2020-07-01T08:27:45.964Z</time>
      </trkpt>
      <trkpt lat="48.605921" lon="16.745657">
        <ele>220.786566</ele>
        <time>2020-07-01T08:27:48.975Z</time>
      </trkpt>
      <trkpt lat="48.605879" lon="16.745477">
        <ele>220.764379</ele>
        <time>2020-07-01T08:27:51.963Z</time>
      </trkpt>
      <trkpt lat="48.605851" lon="16.745344">
        <ele>220.748154</ele>
        <time>2020-07-01T08:27:53.965Z</time>
      </trkpt>
      <trkpt lat="48.605829" lon="16.745200">
        <ele>220.730975</ele>
        <time>2020-07-01T08:27:55.958Z</time>
      </trkpt>
      <trkpt lat="48.605809" lon="16.745049">
        <ele>220.713074</ele>
        <time>2020-07-01T08:27:57.971Z</time>
      </trkpt>
      <trkpt lat="48.605809" lon="16.744900">
        <ele>220.696724</ele>
        <time>2020-07-01T08:27:59.967Z</time>
      </trkpt>
      <trkpt lat="48.605815" lon="16.744761">
        <ele>220.687566</ele>
        <time>2020-07-01T08:28:01.971Z</time>
      </trkpt>
      <trkpt lat="48.605819" lon="16.744598">
        <ele>220.676842</ele>
        <time>2020-07-01T08:28:04.959Z</time>
      </trkpt>
      <trkpt lat="48.605820" lon="16.744459">
        <ele>220.667702</ele>
        <time>2020-07-01T08:28:07.969Z</time>
      </trkpt>
      <trkpt lat="48.605823" lon="16.744297">
        <ele>220.657047</ele>
        <time>2020-07-01T08:28:10.979Z</time>
      </trkpt>
      <trkpt lat="48.605828" lon="16.744106">
        <ele>220.644479</ele>
        <time>2020-07-01T08:28:13.956Z</time>
      </trkpt>
      <trkpt lat="48.605832" lon="16.743935">
        <ele>220.633230</ele>
        <time>2020-07-01T08:28:15.974Z</time>
      </trkpt>
      <trkpt lat="48.605845" lon="16.743720">
        <ele>220.619035</ele>
        <time>2020-07-01T08:28:17.977Z</time>
      </trkpt>
      <trkpt lat="48.605881" lon="16.743497">
        <ele>220.603942</ele>
        <time>2020-07-01T08:28:19.964Z</time>
      </trkpt>
      <trkpt lat="48.605931" lon="16.743303">
        <ele>220.590253</ele>
        <time>2020-07-01T08:28:21.965Z</time>
      </trkpt>
      <trkpt lat="48.605990" lon="16.743128">
        <ele>220.577338</ele>
        <time>2020-07-01T08:28:23.971Z</time>
      </trkpt>
      <trkpt lat="48.606050" lon="16.742967">
        <ele>220.565187</ele>
        <time>2020-07-01T08:28:25.955Z</time>
      </trkpt>
      <trkpt lat="48.606117" lon="16.742825">
        <ele>220.553718</ele>
        <time>2020-07-01T08:28:27.974Z</time>
      </trkpt>
      <trkpt lat="48.606179" lon="16.742702">
        <ele>220.543549</ele>
        <time>2020-07-01T08:28:29.962Z</time>
      </trkpt>
      <trkpt lat="48.606261" lon="16.742554">
        <ele>220.530854</ele>
        <time>2020-07-01T08:28:32.966Z</time>
      </trkpt>
      <trkpt lat="48.606331" lon="16.742432">
        <ele>220.520234</ele>
        <time>2020-07-01T08:28:35.952Z</time>
      </trkpt>
      <trkpt lat="48.606391" lon="16.742316">
        <ele>220.368321</ele>
        <time>2020-07-01T08:28:38.964Z</time>
      </trkpt>
      <trkpt lat="48.606443" lon="16.742195">
        <ele>220.201811</ele>
        <time>2020-07-01T08:28:41.962Z</time>
      </trkpt>
      <trkpt lat="48.606499" lon="16.742052">
        <ele>220.010048</ele>
        <time>2020-07-01T08:28:44.964Z</time>
      </trkpt>
      <trkpt lat="48.606555" lon="16.741906">
        <ele>219.815299</ele>
        <time>2020-07-01T08:28:47.962Z</time>
      </trkpt>
      <trkpt lat="48.606613" lon="16.741758">
        <ele>219.616794</ele>
        <time>2020-07-01T08:28:50.959Z</time>
      </trkpt>
      <trkpt lat="48.606681" lon="16.741592">
        <ele>219.391483</ele>
        <time>2020-07-01T08:28:53.976Z</time>
      </trkpt>
      <trkpt lat="48.606731" lon="16.741476">
        <ele>219.231713</ele>
        <time>2020-07-01T08:28:55.968Z</time>
      </trkpt>
      <trkpt lat="48.606783" lon="16.741359">
        <ele>219.069054</ele>
        <time>2020-07-01T08:28:57.968Z</time>
      </trkpt>
      <trkpt lat="48.606836" lon="16.741236">
        <ele>218.899660</ele>
        <time>2020-07-01T08:28:59.975Z</time>
      </trkpt>
      <trkpt lat="48.606897" lon="16.741102">
        <ele>218.711950</ele>
        <time>2020-07-01T08:29:01.994Z</time>
      </trkpt>
      <trkpt lat="48.606960" lon="16.740962">
        <ele>218.516556</ele>
        <time>2020-07-01T08:29:03.988Z</time>
      </trkpt>
      <trkpt lat="48.607024" lon="16.740817">
        <ele>218.315404</ele>
        <time>2020-07-01T08:29:05.990Z</time>
      </trkpt>
      <trkpt lat="48.607090" lon="16.740672">
        <ele>218.112293</ele>
        <time>2020-07-01T08:29:07.965Z</time>
      </trkpt>
      <trkpt lat="48.607159" lon="16.740530">
        <ele>217.908968</ele>
        <time>2020-07-01T08:29:09.977Z</time>
      </trkpt>
      <trkpt lat="48.607232" lon="16.740389">
        <ele>217.702343</ele>
        <time>2020-07-01T08:29:11.981Z</time>
      </trkpt>
      <trkpt lat="48.607313" lon="16.740249">
        <ele>217.487702</ele>
        <time>2020-07-01T08:29:13.984Z</time>
      </trkpt>
      <trkpt lat="48.607402" lon="16.740098">
        <ele>217.440468</ele>
        <time>2020-07-01T08:29:15.987Z</time>
      </trkpt>
      <trkpt lat="48.607495" lon="16.739933">
        <ele>217.559190</ele>
        <time>2020-07-01T08:29:17.959Z</time>
      </trkpt>
      <trkpt lat="48.607595" lon="16.739759">
        <ele>217.685430</ele>
        <time>2020-07-01T08:29:19.980Z</time>
      </trkpt>
      <trkpt lat="48.607702" lon="16.739575">
        <ele>217.819608</ele>
        <time>2020-07-01T08:29:21.970Z</time>
      </trkpt>
      <trkpt lat="48.607818" lon="16.739394">
        <ele>217.957635</ele>
        <time>2020-07-01T08:29:23.953Z</time>
      </trkpt>
      <trkpt lat="48.607949" lon="16.739230">
        <ele>218.098469</ele>
        <time>2020-07-01T08:29:25.986Z</time>
      </trkpt>
      <trkpt lat="48.608065" lon="16.739036">
        <ele>218.241694</ele>
        <time>2020-07-01T08:29:27.975Z</time>
      </trkpt>
      <trkpt lat="48.608196" lon="16.738867">
        <ele>218.384288</ele>
        <time>2020-07-01T08:29:30.012Z</time>
      </trkpt>
      <trkpt lat="48.608327" lon="16.738699">
        <ele>218.526528</ele>
        <time>2020-07-01T08:29:31.986Z</time>
      </trkpt>
      <trkpt lat="48.608446" lon="16.738532">
        <ele>218.660968</ele>
        <time>2020-07-01T08:29:33.974Z</time>
      </trkpt>
      <trkpt lat="48.608569" lon="16.738377">
        <ele>218.793556</ele>
        <time>2020-07-01T08:29:35.977Z</time>
      </trkpt>
      <trkpt lat="48.608694" lon="16.738233">
        <ele>219.101859</ele>
        <time>2020-07-01T08:29:37.972Z</time>
      </trkpt>
      <trkpt lat="48.608820" lon="16.738092">
        <ele>219.663243</ele>
        <time>2020-07-01T08:29:39.969Z</time>
      </trkpt>
      <trkpt lat="48.608942" lon="16.737943">
        <ele>220.224881</ele>
        <time>2020-07-01T08:29:42.010Z</time>
      </trkpt>
      <trkpt lat="48.609062" lon="16.737796">
        <ele>220.777971</ele>
        <time>2020-07-01T08:29:43.970Z</time>
      </trkpt>
      <trkpt lat="48.609177" lon="16.737655">
        <ele>221.308201</ele>
        <time>2020-07-01T08:29:45.979Z</time>
      </trkpt>
      <trkpt lat="48.609286" lon="16.737528">
        <ele>221.801011</ele>
        <time>2020-07-01T08:29:47.971Z</time>
      </trkpt>
      <trkpt lat="48.609389" lon="16.737407">
        <ele>222.268129</ele>
        <time>2020-07-01T08:29:49.992Z</time>
      </trkpt>
      <trkpt lat="48.609484" lon="16.737300">
        <ele>222.692367</ele>
        <time>2020-07-01T08:29:51.975Z</time>
      </trkpt>
      <trkpt lat="48.609575" lon="16.737217">
        <ele>223.072974</ele>
        <time>2020-07-01T08:29:54.010Z</time>
      </trkpt>
      <trkpt lat="48.609653" lon="16.737140">
        <ele>223.406583</ele>
        <time>2020-07-01T08:29:55.974Z</time>
      </trkpt>
      <trkpt lat="48.609731" lon="16.737058">
        <ele>223.746809</ele>
        <time>2020-07-01T08:29:57.975Z</time>
      </trkpt>
      <trkpt lat="48.609809" lon="16.736964">
        <ele>224.104016</ele>
        <time>2020-07-01T08:30:00.025Z</time>
      </trkpt>
      <trkpt lat="48.609887" lon="16.736861">
        <ele>224.474879</ele>
        <time>2020-07-01T08:30:01.969Z</time>
      </trkpt>
      <trkpt lat="48.609964" lon="16.736760">
        <ele>224.839932</ele>
        <time>2020-07-01T08:30:03.993Z</time>
      </trkpt>
      <trkpt lat="48.610045" lon="16.736657">
        <ele>225.218954</ele>
        <time>2020-07-01T08:30:05.984Z</time>
      </trkpt>
      <trkpt lat="48.610127" lon="16.736573">
        <ele>225.348409</ele>
        <time>2020-07-01T08:30:07.964Z</time>
      </trkpt>
      <trkpt lat="48.610204" lon="16.736490">
        <ele>225.395368</ele>
        <time>2020-07-01T08:30:09.992Z</time>
      </trkpt>
      <trkpt lat="48.610278" lon="16.736409">
        <ele>225.440734</ele>
        <time>2020-07-01T08:30:11.990Z</time>
      </trkpt>
      <trkpt lat="48.610352" lon="16.736333">
        <ele>225.485158</ele>
        <time>2020-07-01T08:30:13.979Z</time>
      </trkpt>
      <trkpt lat="48.610463" lon="16.736218">
        <ele>225.551978</ele>
        <time>2020-07-01T08:30:16.986Z</time>
      </trkpt>
      <trkpt lat="48.610571" lon="16.736100">
        <ele>225.618147</ele>
        <time>2020-07-01T08:30:19.953Z</time>
      </trkpt>
      <trkpt lat="48.610668" lon="16.735981">
        <ele>225.680176</ele>
        <time>2020-07-01T08:30:22.957Z</time>
      </trkpt>
      <trkpt lat="48.610761" lon="16.735858">
        <ele>225.741532</ele>
        <time>2020-07-01T08:30:25.988Z</time>
      </trkpt>
      <trkpt lat="48.610822" lon="16.735751">
        <ele>225.787924</ele>
        <time>2020-07-01T08:30:27.969Z</time>
      </trkpt>
      <trkpt lat="48.610886" lon="16.735628">
        <ele>225.839320</ele>
        <time>2020-07-01T08:30:29.968Z</time>
      </trkpt>
      <trkpt lat="48.610939" lon="16.735504">
        <ele>225.887804</ele>
        <time>2020-07-01T08:30:31.969Z</time>
      </trkpt>
      <trkpt lat="48.610989" lon="16.735362">
        <ele>225.940632</ele>
        <time>2020-07-01T08:30:34.015Z</time>
      </trkpt>
      <trkpt lat="48.611034" lon="16.735208">
        <ele>225.995918</ele>
        <time>2020-07-01T08:30:35.977Z</time>
      </trkpt>
      <trkpt lat="48.611081" lon="16.735047">
        <ele>226.053708</ele>
        <time>2020-07-01T08:30:37.975Z</time>
      </trkpt>
      <trkpt lat="48.611124" lon="16.734874">
        <ele>226.114396</ele>
        <time>2020-07-01T08:30:39.988Z</time>
      </trkpt>
      <trkpt lat="48.611162" lon="16.734689">
        <ele>226.178007</ele>
        <time>2020-07-01T08:30:41.985Z</time>
      </trkpt>
      <trkpt lat="48.611185" lon="16.734497">
        <ele>226.182152</ele>
        <time>2020-07-01T08:30:43.990Z</time>
      </trkpt>
      <trkpt lat="48.611201" lon="16.734298">
        <ele>226.140365</ele>
        <time>2020-07-01T08:30:45.983Z</time>
      </trkpt>
      <trkpt lat="48.611197" lon="16.734079">
        <ele>226.094698</ele>
        <time>2020-07-01T08:30:47.965Z</time>
      </trkpt>
      <trkpt lat="48.611202" lon="16.733851">
        <ele>226.047147</ele>
        <time>2020-07-01T08:30:49.964Z</time>
      </trkpt>
      <trkpt lat="48.611201" lon="16.733621">
        <ele>225.999203</ele>
        <time>2020-07-01T08:30:51.974Z</time>
      </trkpt>
      <trkpt lat="48.611198" lon="16.733394">
        <ele>225.951876</ele>
        <time>2020-07-01T08:30:53.961Z</time>
      </trkpt>
      <trkpt lat="48.611204" lon="16.733171">
        <ele>225.905354</ele>
        <time>2020-07-01T08:30:55.990Z</time>
      </trkpt>
      <trkpt lat="48.611223" lon="16.732966">
        <ele>225.862205</ele>
        <time>2020-07-01T08:30:57.994Z</time>
      </trkpt>
      <trkpt lat="48.611291" lon="16.732856">
        <ele>225.830815</ele>
        <time>2020-07-01T08:30:59.963Z</time>
      </trkpt>
      <trkpt lat="48.611246" lon="16.732695">
        <ele>225.794380</ele>
        <time>2020-07-01T08:31:03.968Z</time>
      </trkpt>
      <trkpt lat="48.611191" lon="16.732587">
        <ele>225.765964</ele>
        <time>2020-07-01T08:31:06.976Z</time>
      </trkpt>
      <trkpt lat="48.611109" lon="16.732412">
        <ele>225.721254</ele>
        <time>2020-07-01T08:31:09.986Z</time>
      </trkpt>
      <trkpt lat="48.611045" lon="16.732270">
        <ele>225.685431</ele>
        <time>2020-07-01T08:31:11.984Z</time>
      </trkpt>
      <trkpt lat="48.610980" lon="16.732124">
        <ele>225.648742</ele>
        <time>2020-07-01T08:31:13.966Z</time>
      </trkpt>
      <trkpt lat="48.610915" lon="16.731983">
        <ele>225.726314</ele>
        <time>2020-07-01T08:31:15.992Z</time>
      </trkpt>
      <trkpt lat="48.610855" lon="16.731842">
        <ele>225.847099</ele>
        <time>2020-07-01T08:31:18.004Z</time>
      </trkpt>
      <trkpt lat="48.610796" lon="16.731699">
        <ele>225.968517</ele>
        <time>2020-07-01T08:31:19.956Z</time>
      </trkpt>
      <trkpt lat="48.610738" lon="16.731553">
        <ele>226.091209</ele>
        <time>2020-07-01T08:31:21.986Z</time>
      </trkpt>
      <trkpt lat="48.610671" lon="16.731408">
        <ele>226.218637</ele>
        <time>2020-07-01T08:31:23.970Z</time>
      </trkpt>
      <trkpt lat="48.610607" lon="16.731265">
        <ele>226.343026</ele>
        <time>2020-07-01T08:31:25.986Z</time>
      </trkpt>
      <trkpt lat="48.610549" lon="16.731129">
        <ele>226.459603</ele>
        <time>2020-07-01T08:31:27.962Z</time>
      </trkpt>
      <trkpt lat="48.610489" lon="16.731013">
        <ele>226.565694</ele>
        <time>2020-07-01T08:31:29.969Z</time>
      </trkpt>
      <trkpt lat="48.610408" lon="16.730877">
        <ele>226.697546</ele>
        <time>2020-07-01T08:31:32.983Z</time>
      </trkpt>
      <trkpt lat="48.610335" lon="16.730763">
        <ele>226.811865</ele>
        <time>2020-07-01T08:31:36.013Z</time>
      </trkpt>
      <trkpt lat="48.610272" lon="16.730651">
        <ele>226.917790</ele>
        <time>2020-07-01T08:31:39.004Z</time>
      </trkpt>
      <trkpt lat="48.610205" lon="16.730542">
        <ele>227.024997</ele>
        <time>2020-07-01T08:31:41.986Z</time>
      </trkpt>
      <trkpt lat="48.610141" lon="16.730442">
        <ele>227.125250</ele>
        <time>2020-07-01T08:31:44.974Z</time>
      </trkpt>
      <trkpt lat="48.610074" lon="16.730338">
        <ele>227.229848</ele>
        <time>2020-07-01T08:31:47.977Z</time>
      </trkpt>
      <trkpt lat="48.610004" lon="16.730241">
        <ele>227.333281</ele>
        <time>2020-07-01T08:31:50.990Z</time>
      </trkpt>
      <trkpt lat="48.609919" lon="16.730188">
        <ele>227.433449</ele>
        <time>2020-07-01T08:31:53.988Z</time>
      </trkpt>
      <trkpt lat="48.609816" lon="16.730294">
        <ele>227.569180</ele>
        <time>2020-07-01T08:31:56.993Z</time>
      </trkpt>
      <trkpt lat="48.609723" lon="16.730289">
        <ele>227.596789</ele>
        <time>2020-07-01T08:31:59.974Z</time>
      </trkpt>
      <trkpt lat="48.609644" lon="16.730185">
        <ele>227.594960</ele>
        <time>2020-07-01T08:32:02.976Z</time>
      </trkpt>
      <trkpt lat="48.609560" lon="16.730087">
        <ele>227.593107</ele>
        <time>2020-07-01T08:32:05.987Z</time>
      </trkpt>
      <trkpt lat="48.609472" lon="16.729980">
        <ele>227.591135</ele>
        <time>2020-07-01T08:32:08.983Z</time>
      </trkpt>
      <trkpt lat="48.609379" lon="16.729873">
        <ele>227.589094</ele>
        <time>2020-07-01T08:32:12.007Z</time>
      </trkpt>
      <trkpt lat="48.609284" lon="16.729772">
        <ele>227.587066</ele>
        <time>2020-07-01T08:32:14.963Z</time>
      </trkpt>
      <trkpt lat="48.609186" lon="16.729664">
        <ele>227.584948</ele>
        <time>2020-07-01T08:32:17.995Z</time>
      </trkpt>
      <trkpt lat="48.609092" lon="16.729549">
        <ele>227.582836</ele>
        <time>2020-07-01T08:32:20.980Z</time>
      </trkpt>
      <trkpt lat="48.608991" lon="16.729446">
        <ele>227.580709</ele>
        <time>2020-07-01T08:32:23.968Z</time>
      </trkpt>
      <trkpt lat="48.608890" lon="16.729332">
        <ele>227.578508</ele>
        <time>2020-07-01T08:32:26.967Z</time>
      </trkpt>
      <trkpt lat="48.608786" lon="16.729229">
        <ele>227.576336</ele>
        <time>2020-07-01T08:32:29.977Z</time>
      </trkpt>
      <trkpt lat="48.608689" lon="16.729121">
        <ele>227.574233</ele>
        <time>2020-07-01T08:32:32.955Z</time>
      </trkpt>
      <trkpt lat="48.608618" lon="16.729037">
        <ele>227.572658</ele>
        <time>2020-07-01T08:32:34.961Z</time>
      </trkpt>
      <trkpt lat="48.608535" lon="16.728938">
        <ele>227.570812</ele>
        <time>2020-07-01T08:32:36.981Z</time>
      </trkpt>
      <trkpt lat="48.608442" lon="16.728832">
        <ele>227.568778</ele>
        <time>2020-07-01T08:32:38.963Z</time>
      </trkpt>
      <trkpt lat="48.608350" lon="16.728714">
        <ele>227.566671</ele>
        <time>2020-07-01T08:32:40.985Z</time>
      </trkpt>
      <trkpt lat="48.608259" lon="16.728596">
        <ele>227.523675</ele>
        <time>2020-07-01T08:32:42.973Z</time>
      </trkpt>
      <trkpt lat="48.608171" lon="16.728481">
        <ele>227.479276</ele>
        <time>2020-07-01T08:32:44.967Z</time>
      </trkpt>
      <trkpt lat="48.608084" lon="16.728370">
        <ele>227.435823</ele>
        <time>2020-07-01T08:32:46.999Z</time>
      </trkpt>
      <trkpt lat="48.607993" lon="16.728264">
        <ele>227.391974</ele>
        <time>2020-07-01T08:32:48.966Z</time>
      </trkpt>
      <trkpt lat="48.607895" lon="16.728155">
        <ele>227.345533</ele>
        <time>2020-07-01T08:32:50.962Z</time>
      </trkpt>
      <trkpt lat="48.607800" lon="16.728053">
        <ele>227.301056</ele>
        <time>2020-07-01T08:32:52.988Z</time>
      </trkpt>
      <trkpt lat="48.607668" lon="16.728037">
        <ele>227.250503</ele>
        <time>2020-07-01T08:32:54.990Z</time>
      </trkpt>
      <trkpt lat="48.607558" lon="16.728145">
        <ele>227.200436</ele>
        <time>2020-07-01T08:32:56.979Z</time>
      </trkpt>
      <trkpt lat="48.607471" lon="16.728271">
        <ele>227.154450</ele>
        <time>2020-07-01T08:32:58.988Z</time>
      </trkpt>
      <trkpt lat="48.607383" lon="16.728396">
        <ele>227.108361</ele>
        <time>2020-07-01T08:33:01.002Z</time>
      </trkpt>
      <trkpt lat="48.607293" lon="16.728481">
        <ele>227.067854</ele>
        <time>2020-07-01T08:33:02.977Z</time>
      </trkpt>
      <trkpt lat="48.607193" lon="16.728536">
        <ele>227.027232</ele>
        <time>2020-07-01T08:33:05.010Z</time>
      </trkpt>
      <trkpt lat="48.607113" lon="16.728643">
        <ele>226.986461</ele>
        <time>2020-07-01T08:33:07.005Z</time>
      </trkpt>
      <trkpt lat="48.607028" lon="16.728751">
        <ele>226.944080</ele>
        <time>2020-07-01T08:33:09.000Z</time>
      </trkpt>
      <trkpt lat="48.606945" lon="16.728854">
        <ele>226.903092</ele>
        <time>2020-07-01T08:33:11.013Z</time>
      </trkpt>
      <trkpt lat="48.606850" lon="16.728939">
        <ele>226.849531</ele>
        <time>2020-07-01T08:33:13.993Z</time>
      </trkpt>
      <trkpt lat="48.606760" lon="16.728995">
        <ele>226.789971</ele>
        <time>2020-07-01T08:33:16.994Z</time>
      </trkpt>
      <trkpt lat="48.606661" lon="16.729054">
        <ele>226.724848</ele>
        <time>2020-07-01T08:33:19.992Z</time>
      </trkpt>
      <trkpt lat="48.606533" lon="16.729132">
        <ele>226.640392</ele>
        <time>2020-07-01T08:33:22.971Z</time>
      </trkpt>
      <trkpt lat="48.606438" lon="16.729173">
        <ele>226.579930</ele>
        <time>2020-07-01T08:33:24.987Z</time>
      </trkpt>
      <trkpt lat="48.606341" lon="16.729200">
        <ele>226.519568</ele>
        <time>2020-07-01T08:33:27.006Z</time>
      </trkpt>
      <trkpt lat="48.606246" lon="16.729319">
        <ele>226.444074</ele>
        <time>2020-07-01T08:33:29.993Z</time>
      </trkpt>
      <trkpt lat="48.606278" lon="16.729469">
        <ele>226.380292</ele>
        <time>2020-07-01T08:33:32.977Z</time>
      </trkpt>
      <trkpt lat="48.606274" lon="16.729633">
        <ele>226.313880</ele>
        <time>2020-07-01T08:33:35.983Z</time>
      </trkpt>
      <trkpt lat="48.606195" lon="16.729706">
        <ele>226.257221</ele>
        <time>2020-07-01T08:33:37.954Z</time>
      </trkpt>
      <trkpt lat="48.606093" lon="16.729749">
        <ele>226.192416</ele>
        <time>2020-07-01T08:33:39.957Z</time>
      </trkpt>
      <trkpt lat="48.605988" lon="16.729783">
        <ele>226.126699</ele>
        <time>2020-07-01T08:33:41.958Z</time>
      </trkpt>
      <trkpt lat="48.605887" lon="16.729820">
        <ele>226.063099</ele>
        <time>2020-07-01T08:33:43.972Z</time>
      </trkpt>
      <trkpt lat="48.605790" lon="16.729863">
        <ele>226.001237</ele>
        <time>2020-07-01T08:33:45.973Z</time>
      </trkpt>
      <trkpt lat="48.605692" lon="16.729905">
        <ele>225.938899</ele>
        <time>2020-07-01T08:33:47.968Z</time>
      </trkpt>
      <trkpt lat="48.605592" lon="16.729948">
        <ele>225.875273</ele>
        <time>2020-07-01T08:33:49.974Z</time>
      </trkpt>
      <trkpt lat="48.605494" lon="16.729984">
        <ele>225.813552</ele>
        <time>2020-07-01T08:33:51.971Z</time>
      </trkpt>
      <trkpt lat="48.605397" lon="16.730022">
        <ele>225.753304</ele>
        <time>2020-07-01T08:33:53.994Z</time>
      </trkpt>
      <trkpt lat="48.605304" lon="16.730065">
        <ele>225.696169</ele>
        <time>2020-07-01T08:33:55.958Z</time>
      </trkpt>
      <trkpt lat="48.605214" lon="16.730109">
        <ele>225.640599</ele>
        <time>2020-07-01T08:33:57.988Z</time>
      </trkpt>
      <trkpt lat="48.605126" lon="16.730150">
        <ele>225.586501</ele>
        <time>2020-07-01T08:33:59.979Z</time>
      </trkpt>
      <trkpt lat="48.605039" lon="16.730190">
        <ele>225.533077</ele>
        <time>2020-07-01T08:34:01.979Z</time>
      </trkpt>
      <trkpt lat="48.604950" lon="16.730225">
        <ele>225.479050</ele>
        <time>2020-07-01T08:34:03.964Z</time>
      </trkpt>
      <trkpt lat="48.604862" lon="16.730261">
        <ele>225.425491</ele>
        <time>2020-07-01T08:34:05.995Z</time>
      </trkpt>
      <trkpt lat="48.604771" lon="16.730293">
        <ele>225.370601</ele>
        <time>2020-07-01T08:34:07.986Z</time>
      </trkpt>
      <trkpt lat="48.604678" lon="16.730328">
        <ele>225.314297</ele>
        <time>2020-07-01T08:34:10.017Z</time>
      </trkpt>
      <trkpt lat="48.604586" lon="16.730362">
        <ele>225.258655</ele>
        <time>2020-07-01T08:34:11.971Z</time>
      </trkpt>
      <trkpt lat="48.604498" lon="16.730394">
        <ele>225.205481</ele>
        <time>2020-07-01T08:34:13.968Z</time>
      </trkpt>
      <trkpt lat="48.604375" lon="16.730430">
        <ele>225.131876</ele>
        <time>2020-07-01T08:34:16.984Z</time>
      </trkpt>
      <trkpt lat="48.604264" lon="16.730478">
        <ele>225.064049</ele>
        <time>2020-07-01T08:34:19.984Z</time>
      </trkpt>
      <trkpt lat="48.604170" lon="16.730532">
        <ele>225.004973</ele>
        <time>2020-07-01T08:34:23.021Z</time>
      </trkpt>
      <trkpt lat="48.604087" lon="16.730606">
        <ele>224.948366</ele>
        <time>2020-07-01T08:34:27.004Z</time>
      </trkpt>
      <trkpt lat="48.604006" lon="16.730539">
        <ele>224.894125</ele>
        <time>2020-07-01T08:34:32.978Z</time>
      </trkpt>
      <trkpt lat="48.603984" lon="16.730392">
        <ele>224.835571</ele>
        <time>2020-07-01T08:34:35.974Z</time>
      </trkpt>
      <trkpt lat="48.603948" lon="16.730243">
        <ele>224.773942</ele>
        <time>2020-07-01T08:34:38.980Z</time>
      </trkpt>
      <trkpt lat="48.603895" lon="16.730082">
        <ele>224.710660</ele>
        <time>2020-07-01T08:34:41.984Z</time>
      </trkpt>
      <trkpt lat="48.603843" lon="16.729962">
        <ele>224.674963</ele>
        <time>2020-07-01T08:34:43.978Z</time>
      </trkpt>
      <trkpt lat="48.603787" lon="16.729820">
        <ele>224.633826</ele>
        <time>2020-07-01T08:34:45.991Z</time>
      </trkpt>
      <trkpt lat="48.603716" lon="16.729677">
        <ele>224.589333</ele>
        <time>2020-07-01T08:34:47.986Z</time>
      </trkpt>
      <trkpt lat="48.603640" lon="16.729522">
        <ele>224.541323</ele>
        <time>2020-07-01T08:34:49.994Z</time>
      </trkpt>
      <trkpt lat="48.603561" lon="16.729353">
        <ele>224.489828</ele>
        <time>2020-07-01T08:34:51.962Z</time>
      </trkpt>
      <trkpt lat="48.603489" lon="16.729172">
        <ele>224.437273</ele>
        <time>2020-07-01T08:34:53.993Z</time>
      </trkpt>
      <trkpt lat="48.603426" lon="16.728989">
        <ele>224.385939</ele>
        <time>2020-07-01T08:34:56.010Z</time>
      </trkpt>
      <trkpt lat="48.603347" lon="16.728816">
        <ele>224.333628</ele>
        <time>2020-07-01T08:34:57.962Z</time>
      </trkpt>
      <trkpt lat="48.603266" lon="16.728653">
        <ele>224.282897</ele>
        <time>2020-07-01T08:34:59.994Z</time>
      </trkpt>
      <trkpt lat="48.603196" lon="16.728486">
        <ele>224.233701</ele>
        <time>2020-07-01T08:35:01.989Z</time>
      </trkpt>
      <trkpt lat="48.603123" lon="16.728331">
        <ele>224.186353</ele>
        <time>2020-07-01T08:35:03.994Z</time>
      </trkpt>
      <trkpt lat="48.603049" lon="16.728179">
        <ele>224.139389</ele>
        <time>2020-07-01T08:35:05.976Z</time>
      </trkpt>
      <trkpt lat="48.602974" lon="16.728032">
        <ele>224.093192</ele>
        <time>2020-07-01T08:35:08.016Z</time>
      </trkpt>
      <trkpt lat="48.602912" lon="16.727883">
        <ele>224.049390</ele>
        <time>2020-07-01T08:35:09.999Z</time>
      </trkpt>
      <trkpt lat="48.602850" lon="16.727733">
        <ele>224.238199</ele>
        <time>2020-07-01T08:35:11.982Z</time>
      </trkpt>
      <trkpt lat="48.602785" lon="16.727564">
        <ele>224.470932</ele>
        <time>2020-07-01T08:35:13.988Z</time>
      </trkpt>
      <trkpt lat="48.602718" lon="16.727420">
        <ele>224.680531</ele>
        <time>2020-07-01T08:35:15.964Z</time>
      </trkpt>
      <trkpt lat="48.602653" lon="16.727284">
        <ele>224.880286</ele>
        <time>2020-07-01T08:35:17.994Z</time>
      </trkpt>
      <trkpt lat="48.602590" lon="16.727151">
        <ele>225.075039</ele>
        <time>2020-07-01T08:35:19.965Z</time>
      </trkpt>
      <trkpt lat="48.602534" lon="16.727018">
        <ele>225.262734</ele>
        <time>2020-07-01T08:35:21.983Z</time>
      </trkpt>
      <trkpt lat="48.602479" lon="16.726877">
        <ele>225.457608</ele>
        <time>2020-07-01T08:35:23.977Z</time>
      </trkpt>
      <trkpt lat="48.602422" lon="16.726737">
        <ele>225.653322</ele>
        <time>2020-07-01T08:35:25.985Z</time>
      </trkpt>
      <trkpt lat="48.602355" lon="16.726600">
        <ele>225.856163</ele>
        <time>2020-07-01T08:35:27.989Z</time>
      </trkpt>
      <trkpt lat="48.602295" lon="16.726464">
        <ele>226.050783</ele>
        <time>2020-07-01T08:35:29.975Z</time>
      </trkpt>
      <trkpt lat="48.602244" lon="16.726328">
        <ele>226.236901</ele>
        <time>2020-07-01T08:35:32.090Z</time>
      </trkpt>
      <trkpt lat="48.602193" lon="16.726197">
        <ele>226.417864</ele>
        <time>2020-07-01T08:35:33.995Z</time>
      </trkpt>
      <trkpt lat="48.602140" lon="16.726071">
        <ele>226.595631</ele>
        <time>2020-07-01T08:35:36.000Z</time>
      </trkpt>
      <trkpt lat="48.602088" lon="16.725938">
        <ele>226.779560</ele>
        <time>2020-07-01T08:35:37.963Z</time>
      </trkpt>
      <trkpt lat="48.602037" lon="16.725802">
        <ele>226.965678</ele>
        <time>2020-07-01T08:35:40.004Z</time>
      </trkpt>
      <trkpt lat="48.601983" lon="16.725663">
        <ele>227.157589</ele>
        <time>2020-07-01T08:35:41.981Z</time>
      </trkpt>
      <trkpt lat="48.601929" lon="16.725527">
        <ele>227.311671</ele>
        <time>2020-07-01T08:35:43.967Z</time>
      </trkpt>
      <trkpt lat="48.601870" lon="16.725398">
        <ele>227.395267</ele>
        <time>2020-07-01T08:35:45.977Z</time>
      </trkpt>
      <trkpt lat="48.601815" lon="16.725274">
        <ele>227.474845</ele>
        <time>2020-07-01T08:35:47.966Z</time>
      </trkpt>
      <trkpt lat="48.601757" lon="16.725143">
        <ele>227.558868</ele>
        <time>2020-07-01T08:35:49.956Z</time>
      </trkpt>
      <trkpt lat="48.601703" lon="16.725013">
        <ele>227.640689</ele>
        <time>2020-07-01T08:35:51.992Z</time>
      </trkpt>
      <trkpt lat="48.601653" lon="16.724877">
        <ele>227.723622</ele>
        <time>2020-07-01T08:35:53.979Z</time>
      </trkpt>
      <trkpt lat="48.601607" lon="16.724741">
        <ele>227.805038</ele>
        <time>2020-07-01T08:35:56.001Z</time>
      </trkpt>
      <trkpt lat="48.601561" lon="16.724591">
        <ele>227.893162</ele>
        <time>2020-07-01T08:35:57.985Z</time>
      </trkpt>
      <trkpt lat="48.601520" lon="16.724440">
        <ele>227.980161</ele>
        <time>2020-07-01T08:35:59.968Z</time>
      </trkpt>
      <trkpt lat="48.601494" lon="16.724290">
        <ele>228.062808</ele>
        <time>2020-07-01T08:36:01.968Z</time>
      </trkpt>
      <trkpt lat="48.601476" lon="16.724133">
        <ele>228.147733</ele>
        <time>2020-07-01T08:36:03.960Z</time>
      </trkpt>
      <trkpt lat="48.601465" lon="16.723978">
        <ele>228.230819</ele>
        <time>2020-07-01T08:36:05.969Z</time>
      </trkpt>
      <trkpt lat="48.601461" lon="16.723832">
        <ele>228.308700</ele>
        <time>2020-07-01T08:36:07.994Z</time>
      </trkpt>
      <trkpt lat="48.601459" lon="16.723692">
        <ele>228.383334</ele>
        <time>2020-07-01T08:36:09.961Z</time>
      </trkpt>
      <trkpt lat="48.601454" lon="16.723553">
        <ele>228.457527</ele>
        <time>2020-07-01T08:36:11.997Z</time>
      </trkpt>
      <trkpt lat="48.601444" lon="16.723410">
        <ele>228.534168</ele>
        <time>2020-07-01T08:36:14.007Z</time>
      </trkpt>
      <trkpt lat="48.601431" lon="16.723265">
        <ele>228.612156</ele>
        <time>2020-07-01T08:36:15.967Z</time>
      </trkpt>
      <trkpt lat="48.601418" lon="16.723121">
        <ele>228.689616</ele>
        <time>2020-07-01T08:36:17.995Z</time>
      </trkpt>
      <trkpt lat="48.601396" lon="16.722981">
        <ele>228.741628</ele>
        <time>2020-07-01T08:36:19.979Z</time>
      </trkpt>
      <trkpt lat="48.601373" lon="16.722842">
        <ele>228.761187</ele>
        <time>2020-07-01T08:36:21.990Z</time>
      </trkpt>
      <trkpt lat="48.601347" lon="16.722704">
        <ele>228.780775</ele>
        <time>2020-07-01T08:36:23.999Z</time>
      </trkpt>
      <trkpt lat="48.601323" lon="16.722572">
        <ele>228.799462</ele>
        <time>2020-07-01T08:36:26.011Z</time>
      </trkpt>
      <trkpt lat="48.601281" lon="16.722376">
        <ele>228.827587</ele>
        <time>2020-07-01T08:36:29.008Z</time>
      </trkpt>
      <trkpt lat="48.601252" lon="16.722241">
        <ele>228.846964</ele>
        <time>2020-07-01T08:36:30.975Z</time>
      </trkpt>
      <trkpt lat="48.601223" lon="16.722098">
        <ele>228.867382</ele>
        <time>2020-07-01T08:36:32.974Z</time>
      </trkpt>
      <trkpt lat="48.601189" lon="16.721956">
        <ele>228.887997</ele>
        <time>2020-07-01T08:36:34.963Z</time>
      </trkpt>
      <trkpt lat="48.601158" lon="16.721813">
        <ele>228.908540</ele>
        <time>2020-07-01T08:36:37.015Z</time>
      </trkpt>
      <trkpt lat="48.601128" lon="16.721671">
        <ele>228.928889</ele>
        <time>2020-07-01T08:36:38.969Z</time>
      </trkpt>
      <trkpt lat="48.601093" lon="16.721529">
        <ele>228.949576</ele>
        <time>2020-07-01T08:36:40.977Z</time>
      </trkpt>
      <trkpt lat="48.601060" lon="16.721390">
        <ele>228.969736</ele>
        <time>2020-07-01T08:36:43.027Z</time>
      </trkpt>
      <trkpt lat="48.601035" lon="16.721242">
        <ele>228.990588</ele>
        <time>2020-07-01T08:36:44.993Z</time>
      </trkpt>
      <trkpt lat="48.601014" lon="16.721089">
        <ele>229.011919</ele>
        <time>2020-07-01T08:36:47.000Z</time>
      </trkpt>
      <trkpt lat="48.600990" lon="16.720948">
        <ele>229.031793</ele>
        <time>2020-07-01T08:36:48.986Z</time>
      </trkpt>
      <trkpt lat="48.600971" lon="16.720790">
        <ele>229.053715</ele>
        <time>2020-07-01T08:36:50.983Z</time>
      </trkpt>
      <trkpt lat="48.600953" lon="16.720624">
        <ele>229.076678</ele>
        <time>2020-07-01T08:36:52.995Z</time>
      </trkpt>
      <trkpt lat="48.600940" lon="16.720458">
        <ele>229.099497</ele>
        <time>2020-07-01T08:36:54.986Z</time>
      </trkpt>
      <trkpt lat="48.600928" lon="16.720289">
        <ele>229.130427</ele>
        <time>2020-07-01T08:36:57.001Z</time>
      </trkpt>
      <trkpt lat="48.600921" lon="16.720116">
        <ele>229.164086</ele>
        <time>2020-07-01T08:36:58.979Z</time>
      </trkpt>
      <trkpt lat="48.600916" lon="16.719944">
        <ele>229.197519</ele>
        <time>2020-07-01T08:37:00.990Z</time>
      </trkpt>
      <trkpt lat="48.600908" lon="16.719776">
        <ele>229.230228</ele>
        <time>2020-07-01T08:37:02.978Z</time>
      </trkpt>
      <trkpt lat="48.600890" lon="16.719609">
        <ele>229.263087</ele>
        <time>2020-07-01T08:37:04.964Z</time>
      </trkpt>
      <trkpt lat="48.600878" lon="16.719449">
        <ele>229.294357</ele>
        <time>2020-07-01T08:37:06.984Z</time>
      </trkpt>
      <trkpt lat="48.600868" lon="16.719296">
        <ele>229.324213</ele>
        <time>2020-07-01T08:37:08.955Z</time>
      </trkpt>
      <trkpt lat="48.600855" lon="16.719145">
        <ele>229.353784</ele>
        <time>2020-07-01T08:37:10.999Z</time>
      </trkpt>
      <trkpt lat="48.600846" lon="16.718995">
        <ele>229.383033</ele>
        <time>2020-07-01T08:37:12.997Z</time>
      </trkpt>
      <trkpt lat="48.600840" lon="16.718844">
        <ele>229.412409</ele>
        <time>2020-07-01T08:37:14.971Z</time>
      </trkpt>
      <trkpt lat="48.600830" lon="16.718682">
        <ele>229.444006</ele>
        <time>2020-07-01T08:37:16.984Z</time>
      </trkpt>
      <trkpt lat="48.600825" lon="16.718520">
        <ele>229.475499</ele>
        <time>2020-07-01T08:37:18.983Z</time>
      </trkpt>
      <trkpt lat="48.600821" lon="16.718363">
        <ele>229.506010</ele>
        <time>2020-07-01T08:37:20.984Z</time>
      </trkpt>
      <trkpt lat="48.600817" lon="16.718199">
        <ele>229.537880</ele>
        <time>2020-07-01T08:37:23.014Z</time>
      </trkpt>
      <trkpt lat="48.600809" lon="16.718040">
        <ele>229.568846</ele>
        <time>2020-07-01T08:37:24.987Z</time>
      </trkpt>
      <trkpt lat="48.600800" lon="16.717877">
        <ele>229.600610</ele>
        <time>2020-07-01T08:37:26.962Z</time>
      </trkpt>
      <trkpt lat="48.600792" lon="16.717712">
        <ele>229.632123</ele>
        <time>2020-07-01T08:37:28.973Z</time>
      </trkpt>
      <trkpt lat="48.600785" lon="16.717544">
        <ele>229.526618</ele>
        <time>2020-07-01T08:37:30.963Z</time>
      </trkpt>
      <trkpt lat="48.600776" lon="16.717376">
        <ele>229.420977</ele>
        <time>2020-07-01T08:37:32.989Z</time>
      </trkpt>
      <trkpt lat="48.600764" lon="16.717212">
        <ele>229.317560</ele>
        <time>2020-07-01T08:37:34.978Z</time>
      </trkpt>
      <trkpt lat="48.600765" lon="16.717055">
        <ele>229.219153</ele>
        <time>2020-07-01T08:37:37.014Z</time>
      </trkpt>
      <trkpt lat="48.600733" lon="16.716919">
        <ele>229.128678</ele>
        <time>2020-07-01T08:37:39.004Z</time>
      </trkpt>
      <trkpt lat="48.600644" lon="16.716838">
        <ele>229.030227</ele>
        <time>2020-07-01T08:37:40.988Z</time>
      </trkpt>
      <trkpt lat="48.600550" lon="16.716762">
        <ele>228.929202</ele>
        <time>2020-07-01T08:37:42.987Z</time>
      </trkpt>
      <trkpt lat="48.600464" lon="16.716701">
        <ele>228.839172</ele>
        <time>2020-07-01T08:37:45.014Z</time>
      </trkpt>
      <trkpt lat="48.600371" lon="16.716696">
        <ele>228.750973</ele>
        <time>2020-07-01T08:37:47.010Z</time>
      </trkpt>
      <trkpt lat="48.600277" lon="16.716690">
        <ele>228.661803</ele>
        <time>2020-07-01T08:37:48.978Z</time>
      </trkpt>
      <trkpt lat="48.600214" lon="16.716550">
        <ele>228.555666</ele>
        <time>2020-07-01T08:37:52.009Z</time>
      </trkpt>
      <trkpt lat="48.600194" lon="16.716414">
        <ele>228.468343</ele>
        <time>2020-07-01T08:37:54.003Z</time>
      </trkpt>
      <trkpt lat="48.600171" lon="16.716279">
        <ele>228.380966</ele>
        <time>2020-07-01T08:37:55.982Z</time>
      </trkpt>
      <trkpt lat="48.600152" lon="16.716132">
        <ele>228.287087</ele>
        <time>2020-07-01T08:37:57.993Z</time>
      </trkpt>
      <trkpt lat="48.600136" lon="16.715992">
        <ele>228.198038</ele>
        <time>2020-07-01T08:37:59.979Z</time>
      </trkpt>
      <trkpt lat="48.600127" lon="16.715849">
        <ele>228.108005</ele>
        <time>2020-07-01T08:38:01.984Z</time>
      </trkpt>
      <trkpt lat="48.600127" lon="16.715704">
        <ele>228.017123</ele>
        <time>2020-07-01T08:38:03.979Z</time>
      </trkpt>
      <trkpt lat="48.600127" lon="16.715559">
        <ele>227.924969</ele>
        <time>2020-07-01T08:38:05.984Z</time>
      </trkpt>
      <trkpt lat="48.600117" lon="16.715416">
        <ele>227.765100</ele>
        <time>2020-07-01T08:38:07.958Z</time>
      </trkpt>
      <trkpt lat="48.600101" lon="16.715270">
        <ele>227.600569</ele>
        <time>2020-07-01T08:38:09.997Z</time>
      </trkpt>
      <trkpt lat="48.600093" lon="16.715131">
        <ele>227.445449</ele>
        <time>2020-07-01T08:38:11.974Z</time>
      </trkpt>
      <trkpt lat="48.600088" lon="16.714987">
        <ele>227.285135</ele>
        <time>2020-07-01T08:38:13.979Z</time>
      </trkpt>
      <trkpt lat="48.600075" lon="16.714847">
        <ele>227.127961</ele>
        <time>2020-07-01T08:38:15.979Z</time>
      </trkpt>
      <trkpt lat="48.600063" lon="16.714708">
        <ele>226.972114</ele>
        <time>2020-07-01T08:38:17.990Z</time>
      </trkpt>
      <trkpt lat="48.600046" lon="16.714572">
        <ele>226.818237</ele>
        <time>2020-07-01T08:38:19.986Z</time>
      </trkpt>
      <trkpt lat="48.600016" lon="16.714376">
        <ele>226.594570</ele>
        <time>2020-07-01T08:38:22.966Z</time>
      </trkpt>
      <trkpt lat="48.599995" lon="16.714242">
        <ele>226.441468</ele>
        <time>2020-07-01T08:38:25.017Z</time>
      </trkpt>
      <trkpt lat="48.599975" lon="16.714108">
        <ele>226.288744</ele>
        <time>2020-07-01T08:38:26.970Z</time>
      </trkpt>
      <trkpt lat="48.599948" lon="16.713906">
        <ele>226.059626</ele>
        <time>2020-07-01T08:38:30.000Z</time>
      </trkpt>
      <trkpt lat="48.599928" lon="16.713770">
        <ele>225.904732</ele>
        <time>2020-07-01T08:38:31.988Z</time>
      </trkpt>
      <trkpt lat="48.599902" lon="16.713630">
        <ele>225.743063</ele>
        <time>2020-07-01T08:38:33.970Z</time>
      </trkpt>
      <trkpt lat="48.599874" lon="16.713491">
        <ele>225.581517</ele>
        <time>2020-07-01T08:38:35.992Z</time>
      </trkpt>
      <trkpt lat="48.599842" lon="16.713353">
        <ele>225.418935</ele>
        <time>2020-07-01T08:38:37.967Z</time>
      </trkpt>
      <trkpt lat="48.599813" lon="16.713221">
        <ele>225.264295</ele>
        <time>2020-07-01T08:38:39.988Z</time>
      </trkpt>
      <trkpt lat="48.599783" lon="16.713085">
        <ele>225.104904</ele>
        <time>2020-07-01T08:38:41.981Z</time>
      </trkpt>
      <trkpt lat="48.599751" lon="16.712950">
        <ele>224.945465</ele>
        <time>2020-07-01T08:38:44.002Z</time>
      </trkpt>
      <trkpt lat="48.599719" lon="16.712818">
        <ele>224.830091</ele>
        <time>2020-07-01T08:38:45.993Z</time>
      </trkpt>
      <trkpt lat="48.599673" lon="16.712627">
        <ele>224.684582</ele>
        <time>2020-07-01T08:38:48.987Z</time>
      </trkpt>
      <trkpt lat="48.599622" lon="16.712441">
        <ele>224.540445</ele>
        <time>2020-07-01T08:38:51.987Z</time>
      </trkpt>
      <trkpt lat="48.599589" lon="16.712247">
        <ele>224.397052</ele>
        <time>2020-07-01T08:38:55.016Z</time>
      </trkpt>
      <trkpt lat="48.599570" lon="16.712059">
        <ele>224.260912</ele>
        <time>2020-07-01T08:38:57.984Z</time>
      </trkpt>
      <trkpt lat="48.599565" lon="16.711880">
        <ele>224.132663</ele>
        <time>2020-07-01T08:39:00.987Z</time>
      </trkpt>
      <trkpt lat="48.599561" lon="16.711733">
        <ele>224.027345</ele>
        <time>2020-07-01T08:39:02.980Z</time>
      </trkpt>
      <trkpt lat="48.599551" lon="16.711563">
        <ele>223.905172</ele>
        <time>2020-07-01T08:39:04.973Z</time>
      </trkpt>
      <trkpt lat="48.599548" lon="16.711398">
        <ele>223.787014</ele>
        <time>2020-07-01T08:39:07.016Z</time>
      </trkpt>
      <trkpt lat="48.599543" lon="16.711226">
        <ele>223.663771</ele>
        <time>2020-07-01T08:39:08.991Z</time>
      </trkpt>
      <trkpt lat="48.599532" lon="16.711056">
        <ele>223.541497</ele>
        <time>2020-07-01T08:39:10.970Z</time>
      </trkpt>
      <trkpt lat="48.599522" lon="16.710883">
        <ele>223.417184</ele>
        <time>2020-07-01T08:39:12.988Z</time>
      </trkpt>
      <trkpt lat="48.599514" lon="16.710712">
        <ele>223.294470</ele>
        <time>2020-07-01T08:39:14.978Z</time>
      </trkpt>
      <trkpt lat="48.599502" lon="16.710539">
        <ele>223.169950</ele>
        <time>2020-07-01T08:39:16.980Z</time>
      </trkpt>
      <trkpt lat="48.599486" lon="16.710373">
        <ele>223.049865</ele>
        <time>2020-07-01T08:39:18.973Z</time>
      </trkpt>
      <trkpt lat="48.599471" lon="16.710207">
        <ele>222.940725</ele>
        <time>2020-07-01T08:39:20.991Z</time>
      </trkpt>
      <trkpt lat="48.599453" lon="16.710045">
        <ele>222.869746</ele>
        <time>2020-07-01T08:39:22.970Z</time>
      </trkpt>
      <trkpt lat="48.599440" lon="16.709882">
        <ele>222.798806</ele>
        <time>2020-07-01T08:39:24.965Z</time>
      </trkpt>
      <trkpt lat="48.599424" lon="16.709718">
        <ele>222.727177</ele>
        <time>2020-07-01T08:39:27.005Z</time>
      </trkpt>
      <trkpt lat="48.599404" lon="16.709553">
        <ele>222.654696</ele>
        <time>2020-07-01T08:39:28.982Z</time>
      </trkpt>
      <trkpt lat="48.599384" lon="16.709389">
        <ele>222.582639</ele>
        <time>2020-07-01T08:39:30.996Z</time>
      </trkpt>
      <trkpt lat="48.599365" lon="16.709231">
        <ele>222.513250</ele>
        <time>2020-07-01T08:39:33.000Z</time>
      </trkpt>
      <trkpt lat="48.599342" lon="16.709074">
        <ele>222.443768</ele>
        <time>2020-07-01T08:39:34.975Z</time>
      </trkpt>
      <trkpt lat="48.599313" lon="16.708918">
        <ele>222.373750</ele>
        <time>2020-07-01T08:39:37.021Z</time>
      </trkpt>
      <trkpt lat="48.599277" lon="16.708765">
        <ele>222.303581</ele>
        <time>2020-07-01T08:39:38.985Z</time>
      </trkpt>
      <trkpt lat="48.599236" lon="16.708621">
        <ele>222.235839</ele>
        <time>2020-07-01T08:39:40.963Z</time>
      </trkpt>
      <trkpt lat="48.599191" lon="16.708482">
        <ele>222.168969</ele>
        <time>2020-07-01T08:39:42.985Z</time>
      </trkpt>
      <trkpt lat="48.599150" lon="16.708349">
        <ele>222.105564</ele>
        <time>2020-07-01T08:39:44.973Z</time>
      </trkpt>
      <trkpt lat="48.599106" lon="16.708215">
        <ele>222.040920</ele>
        <time>2020-07-01T08:39:47.017Z</time>
      </trkpt>
      <trkpt lat="48.599064" lon="16.708083">
        <ele>221.977626</ele>
        <time>2020-07-01T08:39:48.981Z</time>
      </trkpt>
      <trkpt lat="48.599025" lon="16.707960">
        <ele>221.918687</ele>
        <time>2020-07-01T08:39:50.997Z</time>
      </trkpt>
      <trkpt lat="48.598996" lon="16.707822">
        <ele>221.856120</ele>
        <time>2020-07-01T08:39:52.979Z</time>
      </trkpt>
      <trkpt lat="48.598980" lon="16.707686">
        <ele>221.796434</ele>
        <time>2020-07-01T08:39:54.976Z</time>
      </trkpt>
      <trkpt lat="48.598965" lon="16.707548">
        <ele>221.739394</ele>
        <time>2020-07-01T08:39:56.992Z</time>
      </trkpt>
      <trkpt lat="48.598946" lon="16.707416">
        <ele>221.685324</ele>
        <time>2020-07-01T08:39:58.973Z</time>
      </trkpt>
      <trkpt lat="48.598910" lon="16.707228">
        <ele>221.606986</ele>
        <time>2020-07-01T08:40:01.979Z</time>
      </trkpt>
      <trkpt lat="48.598879" lon="16.707056">
        <ele>221.535632</ele>
        <time>2020-07-01T08:40:05.007Z</time>
      </trkpt>
      <trkpt lat="48.598849" lon="16.706891">
        <ele>221.467141</ele>
        <time>2020-07-01T08:40:07.973Z</time>
      </trkpt>
      <trkpt lat="48.598814" lon="16.706725">
        <ele>221.397404</ele>
        <time>2020-07-01T08:40:11.017Z</time>
      </trkpt>
      <trkpt lat="48.598783" lon="16.706555">
        <ele>221.326822</ele>
        <time>2020-07-01T08:40:13.979Z</time>
      </trkpt>
      <trkpt lat="48.598758" lon="16.706371">
        <ele>221.251638</ele>
        <time>2020-07-01T08:40:16.970Z</time>
      </trkpt>
      <trkpt lat="48.598746" lon="16.706231">
        <ele>221.195134</ele>
        <time>2020-07-01T08:40:18.994Z</time>
      </trkpt>
      <trkpt lat="48.598744" lon="16.706073">
        <ele>221.131883</ele>
        <time>2020-07-01T08:40:20.995Z</time>
      </trkpt>
      <trkpt lat="48.598737" lon="16.705909">
        <ele>221.066105</ele>
        <time>2020-07-01T08:40:22.965Z</time>
      </trkpt>
      <trkpt lat="48.598723" lon="16.705744">
        <ele>220.999523</ele>
        <time>2020-07-01T08:40:25.015Z</time>
      </trkpt>
      <trkpt lat="48.598702" lon="16.705588">
        <ele>220.935803</ele>
        <time>2020-07-01T08:40:26.978Z</time>
      </trkpt>
      <trkpt lat="48.598667" lon="16.705435">
        <ele>220.871004</ele>
        <time>2020-07-01T08:40:29.013Z</time>
      </trkpt>
      <trkpt lat="48.598640" lon="16.705275">
        <ele>220.804912</ele>
        <time>2020-07-01T08:40:30.969Z</time>
      </trkpt>
      <trkpt lat="48.598608" lon="16.705120">
        <ele>220.739921</ele>
        <time>2020-07-01T08:40:33.007Z</time>
      </trkpt>
      <trkpt lat="48.598578" lon="16.704963">
        <ele>220.677339</ele>
        <time>2020-07-01T08:40:34.986Z</time>
      </trkpt>
      <trkpt lat="48.598549" lon="16.704807">
        <ele>220.622191</ele>
        <time>2020-07-01T08:40:36.994Z</time>
      </trkpt>
      <trkpt lat="48.598520" lon="16.704651">
        <ele>220.567043</ele>
        <time>2020-07-01T08:40:38.993Z</time>
      </trkpt>
      <trkpt lat="48.598491" lon="16.704493">
        <ele>220.511239</ele>
        <time>2020-07-01T08:40:40.969Z</time>
      </trkpt>
      <trkpt lat="48.598461" lon="16.704346">
        <ele>220.458883</ele>
        <time>2020-07-01T08:40:42.980Z</time>
      </trkpt>
      <trkpt lat="48.598421" lon="16.704220">
        <ele>220.411317</ele>
        <time>2020-07-01T08:40:44.973Z</time>
      </trkpt>
      <trkpt lat="48.598344" lon="16.704067">
        <ele>220.345885</ele>
        <time>2020-07-01T08:40:47.990Z</time>
      </trkpt>
      <trkpt lat="48.598301" lon="16.703909">
        <ele>220.287738</ele>
        <time>2020-07-01T08:40:51.997Z</time>
      </trkpt>
      <trkpt lat="48.598284" lon="16.703756">
        <ele>220.234938</ele>
        <time>2020-07-01T08:40:56.982Z</time>
      </trkpt>
      <trkpt lat="48.598274" lon="16.703599">
        <ele>220.181260</ele>
        <time>2020-07-01T08:41:01.976Z</time>
      </trkpt>
      <trkpt lat="48.598269" lon="16.703458">
        <ele>220.133204</ele>
        <time>2020-07-01T08:41:05.975Z</time>
      </trkpt>
      <trkpt lat="48.598267" lon="16.703294">
        <ele>220.077381</ele>
        <time>2020-07-01T08:41:09.977Z</time>
      </trkpt>
      <trkpt lat="48.598274" lon="16.703146">
        <ele>220.026884</ele>
        <time>2020-07-01T08:41:12.969Z</time>
      </trkpt>
      <trkpt lat="48.598286" lon="16.702959">
        <ele>219.962944</ele>
        <time>2020-07-01T08:41:16.005Z</time>
      </trkpt>
      <trkpt lat="48.598277" lon="16.702818">
        <ele>219.914735</ele>
        <time>2020-07-01T08:41:17.992Z</time>
      </trkpt>
      <trkpt lat="48.598262" lon="16.702659">
        <ele>219.860075</ele>
        <time>2020-07-01T08:41:19.971Z</time>
      </trkpt>
      <trkpt lat="48.598245" lon="16.702466">
        <ele>219.793812</ele>
        <time>2020-07-01T08:41:21.968Z</time>
      </trkpt>
      <trkpt lat="48.598236" lon="16.702260">
        <ele>219.729859</ele>
        <time>2020-07-01T08:41:23.961Z</time>
      </trkpt>
      <trkpt lat="48.598232" lon="16.702078">
        <ele>219.676717</ele>
        <time>2020-07-01T08:41:26.002Z</time>
      </trkpt>
      <trkpt lat="48.598232" lon="16.701933">
        <ele>219.634402</ele>
        <time>2020-07-01T08:41:27.986Z</time>
      </trkpt>
      <trkpt lat="48.598234" lon="16.701763">
        <ele>219.584784</ele>
        <time>2020-07-01T08:41:30.975Z</time>
      </trkpt>
      <trkpt lat="48.598239" lon="16.701620">
        <ele>219.542994</ele>
        <time>2020-07-01T08:41:33.962Z</time>
      </trkpt>
      <trkpt lat="48.598242" lon="16.701451">
        <ele>219.493658</ele>
        <time>2020-07-01T08:41:37.992Z</time>
      </trkpt>
      <trkpt lat="48.598241" lon="16.701280">
        <ele>219.443753</ele>
        <time>2020-07-01T08:41:40.986Z</time>
      </trkpt>
      <trkpt lat="48.598238" lon="16.701113">
        <ele>219.395000</ele>
        <time>2020-07-01T08:41:42.976Z</time>
      </trkpt>
      <trkpt lat="48.598236" lon="16.700915">
        <ele>219.337212</ele>
        <time>2020-07-01T08:41:45.006Z</time>
      </trkpt>
      <trkpt lat="48.598237" lon="16.700705">
        <ele>219.275926</ele>
        <time>2020-07-01T08:41:46.970Z</time>
      </trkpt>
      <trkpt lat="48.598243" lon="16.700505">
        <ele>219.217501</ele>
        <time>2020-07-01T08:41:48.993Z</time>
      </trkpt>
      <trkpt lat="48.598260" lon="16.700331">
        <ele>219.166172</ele>
        <time>2020-07-01T08:41:51.008Z</time>
      </trkpt>
      <trkpt lat="48.598278" lon="16.700182">
        <ele>219.121970</ele>
        <time>2020-07-01T08:41:53.009Z</time>
      </trkpt>
      <trkpt lat="48.598299" lon="16.700034">
        <ele>219.077797</ele>
        <time>2020-07-01T08:41:55.982Z</time>
      </trkpt>
      <trkpt lat="48.598327" lon="16.699876">
        <ele>219.030062</ele>
        <time>2020-07-01T08:42:00.985Z</time>
      </trkpt>
      <trkpt lat="48.598361" lon="16.699715">
        <ele>218.980740</ele>
        <time>2020-07-01T08:42:06.011Z</time>
      </trkpt>
      <trkpt lat="48.598403" lon="16.699556">
        <ele>218.816701</ele>
        <time>2020-07-01T08:42:09.976Z</time>
      </trkpt>
      <trkpt lat="48.598457" lon="16.699433">
        <ele>218.660240</ele>
        <time>2020-07-01T08:42:12.980Z</time>
      </trkpt>
      <trkpt lat="48.598508" lon="16.699305">
        <ele>218.501872</ele>
        <time>2020-07-01T08:42:15.990Z</time>
      </trkpt>
      <trkpt lat="48.598555" lon="16.699171">
        <ele>218.341125</ele>
        <time>2020-07-01T08:42:18.978Z</time>
      </trkpt>
      <trkpt lat="48.598610" lon="16.699035">
        <ele>218.172183</ele>
        <time>2020-07-01T08:42:21.958Z</time>
      </trkpt>
      <trkpt lat="48.598659" lon="16.698916">
        <ele>218.023623</ele>
        <time>2020-07-01T08:42:23.991Z</time>
      </trkpt>
      <trkpt lat="48.598706" lon="16.698792">
        <ele>217.872158</ele>
        <time>2020-07-01T08:42:25.970Z</time>
      </trkpt>
      <trkpt lat="48.598752" lon="16.698594">
        <ele>217.649752</ele>
        <time>2020-07-01T08:42:28.967Z</time>
      </trkpt>
      <trkpt lat="48.598781" lon="16.698417">
        <ele>217.456502</ele>
        <time>2020-07-01T08:42:30.963Z</time>
      </trkpt>
      <trkpt lat="48.598796" lon="16.698231">
        <ele>217.257924</ele>
        <time>2020-07-01T08:42:33.002Z</time>
      </trkpt>
      <trkpt lat="48.598824" lon="16.698043">
        <ele>217.053698</ele>
        <time>2020-07-01T08:42:34.976Z</time>
      </trkpt>
      <trkpt lat="48.598843" lon="16.697855">
        <ele>216.852148</ele>
        <time>2020-07-01T08:42:36.955Z</time>
      </trkpt>
      <trkpt lat="48.598852" lon="16.697614">
        <ele>216.596337</ele>
        <time>2020-07-01T08:42:38.963Z</time>
      </trkpt>
      <trkpt lat="48.598822" lon="16.697355">
        <ele>216.317678</ele>
        <time>2020-07-01T08:42:40.955Z</time>
      </trkpt>
      <trkpt lat="48.598747" lon="16.697115">
        <ele>216.115782</ele>
        <time>2020-07-01T08:42:42.977Z</time>
      </trkpt>
      <trkpt lat="48.598739" lon="16.696904">
        <ele>216.212568</ele>
        <time>2020-07-01T08:42:44.961Z</time>
      </trkpt>
      <trkpt lat="48.598717" lon="16.696735">
        <ele>216.291446</ele>
        <time>2020-07-01T08:42:46.976Z</time>
      </trkpt>
      <trkpt lat="48.598630" lon="16.696661">
        <ele>216.360568</ele>
        <time>2020-07-01T08:42:48.967Z</time>
      </trkpt>
      <trkpt lat="48.598564" lon="16.696562">
        <ele>216.424944</ele>
        <time>2020-07-01T08:42:51.034Z</time>
      </trkpt>
      <trkpt lat="48.598507" lon="16.696442">
        <ele>216.492604</ele>
        <time>2020-07-01T08:42:52.960Z</time>
      </trkpt>
      <trkpt lat="48.598454" lon="16.696330">
        <ele>216.555673</ele>
        <time>2020-07-01T08:42:54.995Z</time>
      </trkpt>
      <trkpt lat="48.598381" lon="16.696170">
        <ele>216.644690</ele>
        <time>2020-07-01T08:42:58.005Z</time>
      </trkpt>
      <trkpt lat="48.598318" lon="16.696000">
        <ele>216.733932</ele>
        <time>2020-07-01T08:43:00.966Z</time>
      </trkpt>
      <trkpt lat="48.598268" lon="16.695825">
        <ele>216.821233</ele>
        <time>2020-07-01T08:43:03.975Z</time>
      </trkpt>
      <trkpt lat="48.598229" lon="16.695659">
        <ele>216.901908</ele>
        <time>2020-07-01T08:43:06.981Z</time>
      </trkpt>
      <trkpt lat="48.598187" lon="16.695493">
        <ele>216.983302</ele>
        <time>2020-07-01T08:43:09.967Z</time>
      </trkpt>
      <trkpt lat="48.598143" lon="16.695328">
        <ele>217.064776</ele>
        <time>2020-07-01T08:43:12.970Z</time>
      </trkpt>
      <trkpt lat="48.598097" lon="16.695167">
        <ele>217.145093</ele>
        <time>2020-07-01T08:43:15.991Z</time>
      </trkpt>
      <trkpt lat="48.598049" lon="16.695009">
        <ele>217.224719</ele>
        <time>2020-07-01T08:43:18.976Z</time>
      </trkpt>
      <trkpt lat="48.598002" lon="16.694837">
        <ele>217.309946</ele>
        <time>2020-07-01T08:43:21.955Z</time>
      </trkpt>
      <trkpt lat="48.597971" lon="16.694710">
        <ele>217.335021</ele>
        <time>2020-07-01T08:43:23.963Z</time>
      </trkpt>
      <trkpt lat="48.597937" lon="16.694576">
        <ele>217.330651</ele>
        <time>2020-07-01T08:43:25.954Z</time>
      </trkpt>
      <trkpt lat="48.597901" lon="16.694436">
        <ele>217.326077</ele>
        <time>2020-07-01T08:43:27.977Z</time>
      </trkpt>
      <trkpt lat="48.597860" lon="16.694293">
        <ele>217.321331</ele>
        <time>2020-07-01T08:43:29.988Z</time>
      </trkpt>
      <trkpt lat="48.597806" lon="16.694154">
        <ele>217.316422</ele>
        <time>2020-07-01T08:43:31.950Z</time>
      </trkpt>
      <trkpt lat="48.597726" lon="16.694022">
        <ele>217.310971</ele>
        <time>2020-07-01T08:43:33.964Z</time>
      </trkpt>
      <trkpt lat="48.597616" lon="16.693905">
        <ele>217.304778</ele>
        <time>2020-07-01T08:43:35.986Z</time>
      </trkpt>
      <trkpt lat="48.597517" lon="16.693785">
        <ele>217.298936</ele>
        <time>2020-07-01T08:43:37.974Z</time>
      </trkpt>
      <trkpt lat="48.597417" lon="16.693664">
        <ele>217.293039</ele>
        <time>2020-07-01T08:43:39.956Z</time>
      </trkpt>
      <trkpt lat="48.597320" lon="16.693548">
        <ele>217.287345</ele>
        <time>2020-07-01T08:43:41.963Z</time>
      </trkpt>
      <trkpt lat="48.597230" lon="16.693448">
        <ele>217.282203</ele>
        <time>2020-07-01T08:43:44.013Z</time>
      </trkpt>
      <trkpt lat="48.597142" lon="16.693372">
        <ele>217.277537</ele>
        <time>2020-07-01T08:43:45.980Z</time>
      </trkpt>
      <trkpt lat="48.597051" lon="16.693327">
        <ele>217.273129</ele>
        <time>2020-07-01T08:43:47.981Z</time>
      </trkpt>
      <trkpt lat="48.596959" lon="16.693295">
        <ele>217.268782</ele>
        <time>2020-07-01T08:43:49.957Z</time>
      </trkpt>
      <trkpt lat="48.596864" lon="16.693270">
        <ele>217.264343</ele>
        <time>2020-07-01T08:43:51.956Z</time>
      </trkpt>
      <trkpt lat="48.596738" lon="16.693220">
        <ele>217.258345</ele>
        <time>2020-07-01T08:43:54.989Z</time>
      </trkpt>
      <trkpt lat="48.596650" lon="16.693152">
        <ele>217.237820</ele>
        <time>2020-07-01T08:43:56.956Z</time>
      </trkpt>
      <trkpt lat="48.596583" lon="16.693027">
        <ele>217.123399</ele>
        <time>2020-07-01T08:43:58.961Z</time>
      </trkpt>
      <trkpt lat="48.596542" lon="16.692870">
        <ele>217.003361</ele>
        <time>2020-07-01T08:44:00.978Z</time>
      </trkpt>
      <trkpt lat="48.596504" lon="16.692694">
        <ele>216.871700</ele>
        <time>2020-07-01T08:44:02.955Z</time>
      </trkpt>
      <trkpt lat="48.596481" lon="16.692524">
        <ele>216.748302</ele>
        <time>2020-07-01T08:44:04.957Z</time>
      </trkpt>
      <trkpt lat="48.596476" lon="16.692368">
        <ele>216.637234</ele>
        <time>2020-07-01T08:44:06.980Z</time>
      </trkpt>
      <trkpt lat="48.596475" lon="16.692214">
        <ele>216.527713</ele>
        <time>2020-07-01T08:44:08.959Z</time>
      </trkpt>
      <trkpt lat="48.596475" lon="16.692054">
        <ele>216.413930</ele>
        <time>2020-07-01T08:44:10.973Z</time>
      </trkpt>
      <trkpt lat="48.596472" lon="16.691901">
        <ele>216.305078</ele>
        <time>2020-07-01T08:44:12.952Z</time>
      </trkpt>
      <trkpt lat="48.596472" lon="16.691756">
        <ele>216.201962</ele>
        <time>2020-07-01T08:44:14.958Z</time>
      </trkpt>
      <trkpt lat="48.596478" lon="16.691608">
        <ele>216.096516</ele>
        <time>2020-07-01T08:44:16.991Z</time>
      </trkpt>
      <trkpt lat="48.596499" lon="16.691449">
        <ele>215.981212</ele>
        <time>2020-07-01T08:44:18.970Z</time>
      </trkpt>
      <trkpt lat="48.596526" lon="16.691275">
        <ele>215.854113</ele>
        <time>2020-07-01T08:44:20.955Z</time>
      </trkpt>
      <trkpt lat="48.596560" lon="16.691098">
        <ele>215.723039</ele>
        <time>2020-07-01T08:44:22.954Z</time>
      </trkpt>
      <trkpt lat="48.596590" lon="16.690917">
        <ele>215.590343</ele>
        <time>2020-07-01T08:44:24.972Z</time>
      </trkpt>
      <trkpt lat="48.596612" lon="16.690727">
        <ele>215.453171</ele>
        <time>2020-07-01T08:44:27.007Z</time>
      </trkpt>
      <trkpt lat="48.596606" lon="16.690531">
        <ele>215.318988</ele>
        <time>2020-07-01T08:44:29.014Z</time>
      </trkpt>
      <trkpt lat="48.596580" lon="16.690341">
        <ele>215.288977</ele>
        <time>2020-07-01T08:44:30.996Z</time>
      </trkpt>
      <trkpt lat="48.596560" lon="16.690153">
        <ele>215.259524</ele>
        <time>2020-07-01T08:44:32.978Z</time>
      </trkpt>
      <trkpt lat="48.596539" lon="16.689969">
        <ele>215.230643</ele>
        <time>2020-07-01T08:44:35.000Z</time>
      </trkpt>
      <trkpt lat="48.596516" lon="16.689783">
        <ele>215.201375</ele>
        <time>2020-07-01T08:44:36.977Z</time>
      </trkpt>
      <trkpt lat="48.596492" lon="16.689597">
        <ele>215.172063</ele>
        <time>2020-07-01T08:44:38.962Z</time>
      </trkpt>
      <trkpt lat="48.596452" lon="16.689424">
        <ele>215.143716</ele>
        <time>2020-07-01T08:44:40.971Z</time>
      </trkpt>
      <trkpt lat="48.596412" lon="16.689262">
        <ele>215.116969</ele>
        <time>2020-07-01T08:44:43.013Z</time>
      </trkpt>
      <trkpt lat="48.596372" lon="16.689107">
        <ele>215.091234</ele>
        <time>2020-07-01T08:44:44.991Z</time>
      </trkpt>
      <trkpt lat="48.596330" lon="16.688961">
        <ele>215.066608</ele>
        <time>2020-07-01T08:44:47.012Z</time>
      </trkpt>
      <trkpt lat="48.596284" lon="16.688824">
        <ele>215.042842</ele>
        <time>2020-07-01T08:44:48.961Z</time>
      </trkpt>
      <trkpt lat="48.596230" lon="16.688695">
        <ele>215.019228</ele>
        <time>2020-07-01T08:44:50.966Z</time>
      </trkpt>
      <trkpt lat="48.596180" lon="16.688566">
        <ele>214.996101</ele>
        <time>2020-07-01T08:44:52.992Z</time>
      </trkpt>
      <trkpt lat="48.596131" lon="16.688439">
        <ele>214.973359</ele>
        <time>2020-07-01T08:44:54.988Z</time>
      </trkpt>
      <trkpt lat="48.596082" lon="16.688316">
        <ele>214.951149</ele>
        <time>2020-07-01T08:44:56.964Z</time>
      </trkpt>
      <trkpt lat="48.596035" lon="16.688198">
        <ele>214.929842</ele>
        <time>2020-07-01T08:44:59.032Z</time>
      </trkpt>
      <trkpt lat="48.595968" lon="16.688029">
        <ele>214.898847</ele>
        <time>2020-07-01T08:45:01.967Z</time>
      </trkpt>
      <trkpt lat="48.595901" lon="16.687859">
        <ele>214.833069</ele>
        <time>2020-07-01T08:45:04.956Z</time>
      </trkpt>
      <trkpt lat="48.595836" lon="16.687693">
        <ele>214.768947</ele>
        <time>2020-07-01T08:45:07.961Z</time>
      </trkpt>
      <trkpt lat="48.595777" lon="16.687530">
        <ele>214.707184</ele>
        <time>2020-07-01T08:45:10.962Z</time>
      </trkpt>
      <trkpt lat="48.595720" lon="16.687376">
        <ele>214.648525</ele>
        <time>2020-07-01T08:45:13.956Z</time>
      </trkpt>
      <trkpt lat="48.595660" lon="16.687228">
        <ele>214.590825</ele>
        <time>2020-07-01T08:45:16.999Z</time>
      </trkpt>
      <trkpt lat="48.595603" lon="16.687076">
        <ele>214.532745</ele>
        <time>2020-07-01T08:45:19.965Z</time>
      </trkpt>
      <trkpt lat="48.595541" lon="16.686907">
        <ele>214.468508</ele>
        <time>2020-07-01T08:45:22.988Z</time>
      </trkpt>
      <trkpt lat="48.595496" lon="16.686782">
        <ele>214.421203</ele>
        <time>2020-07-01T08:45:24.977Z</time>
      </trkpt>
      <trkpt lat="48.595451" lon="16.686654">
        <ele>214.373019</ele>
        <time>2020-07-01T08:45:26.974Z</time>
      </trkpt>
      <trkpt lat="48.595407" lon="16.686524">
        <ele>214.324479</ele>
        <time>2020-07-01T08:45:28.962Z</time>
      </trkpt>
      <trkpt lat="48.595367" lon="16.686379">
        <ele>214.272257</ele>
        <time>2020-07-01T08:45:30.971Z</time>
      </trkpt>
      <trkpt lat="48.595331" lon="16.686237">
        <ele>214.221709</ele>
        <time>2020-07-01T08:45:32.996Z</time>
      </trkpt>
      <trkpt lat="48.595303" lon="16.686094">
        <ele>214.172137</ele>
        <time>2020-07-01T08:45:34.959Z</time>
      </trkpt>
      <trkpt lat="48.595277" lon="16.685949">
        <ele>214.122201</ele>
        <time>2020-07-01T08:45:36.972Z</time>
      </trkpt>
      <trkpt lat="48.595255" lon="16.685808">
        <ele>214.074047</ele>
        <time>2020-07-01T08:45:38.961Z</time>
      </trkpt>
      <trkpt lat="48.595242" lon="16.685673">
        <ele>214.028701</ele>
        <time>2020-07-01T08:45:40.960Z</time>
      </trkpt>
      <trkpt lat="48.595231" lon="16.685535">
        <ele>213.982005</ele>
        <time>2020-07-01T08:45:42.973Z</time>
      </trkpt>
      <trkpt lat="48.595228" lon="16.685392">
        <ele>213.932690</ele>
        <time>2020-07-01T08:45:45.011Z</time>
      </trkpt>
      <trkpt lat="48.595230" lon="16.685246">
        <ele>213.882356</ele>
        <time>2020-07-01T08:45:46.955Z</time>
      </trkpt>
      <trkpt lat="48.595231" lon="16.685098">
        <ele>213.831340</ele>
        <time>2020-07-01T08:45:48.999Z</time>
      </trkpt>
      <trkpt lat="48.595237" lon="16.684931">
        <ele>213.773693</ele>
        <time>2020-07-01T08:45:51.032Z</time>
      </trkpt>
      <trkpt lat="48.595239" lon="16.684765">
        <ele>213.716466</ele>
        <time>2020-07-01T08:45:52.983Z</time>
      </trkpt>
      <trkpt lat="48.595246" lon="16.684603">
        <ele>213.660509</ele>
        <time>2020-07-01T08:45:54.976Z</time>
      </trkpt>
      <trkpt lat="48.595252" lon="16.684437">
        <ele>213.603206</ele>
        <time>2020-07-01T08:45:56.982Z</time>
      </trkpt>
      <trkpt lat="48.595257" lon="16.684271">
        <ele>213.545929</ele>
        <time>2020-07-01T08:45:58.962Z</time>
      </trkpt>
      <trkpt lat="48.595259" lon="16.684104">
        <ele>213.488358</ele>
        <time>2020-07-01T08:46:00.978Z</time>
      </trkpt>
      <trkpt lat="48.595261" lon="16.683947">
        <ele>213.434233</ele>
        <time>2020-07-01T08:46:02.975Z</time>
      </trkpt>
      <trkpt lat="48.595269" lon="16.683797">
        <ele>213.382363</ele>
        <time>2020-07-01T08:46:04.999Z</time>
      </trkpt>
      <trkpt lat="48.595276" lon="16.683649">
        <ele>213.331219</ele>
        <time>2020-07-01T08:46:06.989Z</time>
      </trkpt>
      <trkpt lat="48.595275" lon="16.683487">
        <ele>213.275378</ele>
        <time>2020-07-01T08:46:08.957Z</time>
      </trkpt>
      <trkpt lat="48.595261" lon="16.683317">
        <ele>213.216330</ele>
        <time>2020-07-01T08:46:10.977Z</time>
      </trkpt>
      <trkpt lat="48.595243" lon="16.683145">
        <ele>213.156307</ele>
        <time>2020-07-01T08:46:12.976Z</time>
      </trkpt>
      <trkpt lat="48.595224" lon="16.682973">
        <ele>213.096200</ele>
        <time>2020-07-01T08:46:14.979Z</time>
      </trkpt>
      <trkpt lat="48.595198" lon="16.682807">
        <ele>213.052278</ele>
        <time>2020-07-01T08:46:16.980Z</time>
      </trkpt>
      <trkpt lat="48.595162" lon="16.682659">
        <ele>213.036299</ele>
        <time>2020-07-01T08:46:18.964Z</time>
      </trkpt>
      <trkpt lat="48.595124" lon="16.682509">
        <ele>213.020023</ele>
        <time>2020-07-01T08:46:20.998Z</time>
      </trkpt>
      <trkpt lat="48.595078" lon="16.682370">
        <ele>213.004273</ele>
        <time>2020-07-01T08:46:22.968Z</time>
      </trkpt>
      <trkpt lat="48.595033" lon="16.682231">
        <ele>212.988590</ele>
        <time>2020-07-01T08:46:24.958Z</time>
      </trkpt>
      <trkpt lat="48.594988" lon="16.682104">
        <ele>212.973991</ele>
        <time>2020-07-01T08:46:26.989Z</time>
      </trkpt>
      <trkpt lat="48.594944" lon="16.681983">
        <ele>212.959998</ele>
        <time>2020-07-01T08:46:28.960Z</time>
      </trkpt>
      <trkpt lat="48.594897" lon="16.681800">
        <ele>212.940106</ele>
        <time>2020-07-01T08:46:31.977Z</time>
      </trkpt>
      <trkpt lat="48.594874" lon="16.681665">
        <ele>212.925979</ele>
        <time>2020-07-01T08:46:33.960Z</time>
      </trkpt>
      <trkpt lat="48.594853" lon="16.681514">
        <ele>212.910343</ele>
        <time>2020-07-01T08:46:35.964Z</time>
      </trkpt>
      <trkpt lat="48.594844" lon="16.681347">
        <ele>212.893365</ele>
        <time>2020-07-01T08:46:37.960Z</time>
      </trkpt>
      <trkpt lat="48.594837" lon="16.681178">
        <ele>212.876206</ele>
        <time>2020-07-01T08:46:39.991Z</time>
      </trkpt>
      <trkpt lat="48.594830" lon="16.681010">
        <ele>212.859148</ele>
        <time>2020-07-01T08:46:41.960Z</time>
      </trkpt>
      <trkpt lat="48.594823" lon="16.680838">
        <ele>212.841686</ele>
        <time>2020-07-01T08:46:43.964Z</time>
      </trkpt>
      <trkpt lat="48.594817" lon="16.680662">
        <ele>212.823828</ele>
        <time>2020-07-01T08:46:45.977Z</time>
      </trkpt>
      <trkpt lat="48.594809" lon="16.680484">
        <ele>212.805749</ele>
        <time>2020-07-01T08:46:47.975Z</time>
      </trkpt>
      <trkpt lat="48.594799" lon="16.680307">
        <ele>212.787748</ele>
        <time>2020-07-01T08:46:49.975Z</time>
      </trkpt>
      <trkpt lat="48.594787" lon="16.680122">
        <ele>212.780900</ele>
        <time>2020-07-01T08:46:51.986Z</time>
      </trkpt>
      <trkpt lat="48.594766" lon="16.679942">
        <ele>212.778255</ele>
        <time>2020-07-01T08:46:53.965Z</time>
      </trkpt>
      <trkpt lat="48.594739" lon="16.679770">
        <ele>212.775697</ele>
        <time>2020-07-01T08:46:55.955Z</time>
      </trkpt>
      <trkpt lat="48.594705" lon="16.679612">
        <ele>212.773292</ele>
        <time>2020-07-01T08:46:57.958Z</time>
      </trkpt>
      <trkpt lat="48.594673" lon="16.679455">
        <ele>212.770915</ele>
        <time>2020-07-01T08:46:59.976Z</time>
      </trkpt>
      <trkpt lat="48.594638" lon="16.679309">
        <ele>212.768668</ele>
        <time>2020-07-01T08:47:01.984Z</time>
      </trkpt>
      <trkpt lat="48.594603" lon="16.679173">
        <ele>212.766556</ele>
        <time>2020-07-01T08:47:03.956Z</time>
      </trkpt>
      <trkpt lat="48.594567" lon="16.679037">
        <ele>212.764436</ele>
        <time>2020-07-01T08:47:05.957Z</time>
      </trkpt>
      <trkpt lat="48.594522" lon="16.678845">
        <ele>212.761488</ele>
        <time>2020-07-01T08:47:08.968Z</time>
      </trkpt>
      <trkpt lat="48.594494" lon="16.678709">
        <ele>212.759427</ele>
        <time>2020-07-01T08:47:10.956Z</time>
      </trkpt>
      <trkpt lat="48.594474" lon="16.678561">
        <ele>212.757241</ele>
        <time>2020-07-01T08:47:12.960Z</time>
      </trkpt>
      <trkpt lat="48.594452" lon="16.678395">
        <ele>212.754791</ele>
        <time>2020-07-01T08:47:14.985Z</time>
      </trkpt>
      <trkpt lat="48.594436" lon="16.678232">
        <ele>212.752406</ele>
        <time>2020-07-01T08:47:16.959Z</time>
      </trkpt>
      <trkpt lat="48.594424" lon="16.678082">
        <ele>212.750220</ele>
        <time>2020-07-01T08:47:18.958Z</time>
      </trkpt>
      <trkpt lat="48.594411" lon="16.677877">
        <ele>212.747240</ele>
        <time>2020-07-01T08:47:21.972Z</time>
      </trkpt>
      <trkpt lat="48.594403" lon="16.677716">
        <ele>212.744903</ele>
        <time>2020-07-01T08:47:23.960Z</time>
      </trkpt>
      <trkpt lat="48.594395" lon="16.677551">
        <ele>212.709106</ele>
        <time>2020-07-01T08:47:25.967Z</time>
      </trkpt>
      <trkpt lat="48.594391" lon="16.677365">
        <ele>212.619372</ele>
        <time>2020-07-01T08:47:28.007Z</time>
      </trkpt>
      <trkpt lat="48.594396" lon="16.677186">
        <ele>212.532983</ele>
        <time>2020-07-01T08:47:29.971Z</time>
      </trkpt>
      <trkpt lat="48.594388" lon="16.677016">
        <ele>212.450804</ele>
        <time>2020-07-01T08:47:31.959Z</time>
      </trkpt>
      <trkpt lat="48.594379" lon="16.676851">
        <ele>212.370973</ele>
        <time>2020-07-01T08:47:33.967Z</time>
      </trkpt>
      <trkpt lat="48.594369" lon="16.676696">
        <ele>212.295879</ele>
        <time>2020-07-01T08:47:35.955Z</time>
      </trkpt>
      <trkpt lat="48.594355" lon="16.676543">
        <ele>212.221401</ele>
        <time>2020-07-01T08:47:37.981Z</time>
      </trkpt>
      <trkpt lat="48.594343" lon="16.676399">
        <ele>212.151417</ele>
        <time>2020-07-01T08:47:39.984Z</time>
      </trkpt>
      <trkpt lat="48.594331" lon="16.676258">
        <ele>212.082867</ele>
        <time>2020-07-01T08:47:41.958Z</time>
      </trkpt>
      <trkpt lat="48.594320" lon="16.676117">
        <ele>212.014407</ele>
        <time>2020-07-01T08:47:43.990Z</time>
      </trkpt>
      <trkpt lat="48.594310" lon="16.675974">
        <ele>211.945070</ele>
        <time>2020-07-01T08:47:45.997Z</time>
      </trkpt>
      <trkpt lat="48.594298" lon="16.675834">
        <ele>211.876999</ele>
        <time>2020-07-01T08:47:47.960Z</time>
      </trkpt>
      <trkpt lat="48.594282" lon="16.675692">
        <ele>211.807541</ele>
        <time>2020-07-01T08:47:49.987Z</time>
      </trkpt>
      <trkpt lat="48.594264" lon="16.675548">
        <ele>211.736877</ele>
        <time>2020-07-01T08:47:51.980Z</time>
      </trkpt>
      <trkpt lat="48.594247" lon="16.675396">
        <ele>211.662544</ele>
        <time>2020-07-01T08:47:53.957Z</time>
      </trkpt>
      <trkpt lat="48.594225" lon="16.675238">
        <ele>211.584687</ele>
        <time>2020-07-01T08:47:55.975Z</time>
      </trkpt>
      <trkpt lat="48.594199" lon="16.675076">
        <ele>211.504306</ele>
        <time>2020-07-01T08:47:57.991Z</time>
      </trkpt>
      <trkpt lat="48.594169" lon="16.674911">
        <ele>211.438900</ele>
        <time>2020-07-01T08:47:59.964Z</time>
      </trkpt>
      <trkpt lat="48.594139" lon="16.674748">
        <ele>211.491083</ele>
        <time>2020-07-01T08:48:01.981Z</time>
      </trkpt>
      <trkpt lat="48.594110" lon="16.674586">
        <ele>211.542845</ele>
        <time>2020-07-01T08:48:03.986Z</time>
      </trkpt>
      <trkpt lat="48.594083" lon="16.674419">
        <ele>211.595868</ele>
        <time>2020-07-01T08:48:05.967Z</time>
      </trkpt>
      <trkpt lat="48.594053" lon="16.674262">
        <ele>211.646270</ele>
        <time>2020-07-01T08:48:07.991Z</time>
      </trkpt>
      <trkpt lat="48.594018" lon="16.674105">
        <ele>211.697369</ele>
        <time>2020-07-01T08:48:09.980Z</time>
      </trkpt>
      <trkpt lat="48.593989" lon="16.673959">
        <ele>211.744386</ele>
        <time>2020-07-01T08:48:11.975Z</time>
      </trkpt>
      <trkpt lat="48.593956" lon="16.673809">
        <ele>211.793141</ele>
        <time>2020-07-01T08:48:13.983Z</time>
      </trkpt>
      <trkpt lat="48.593916" lon="16.673641">
        <ele>211.848212</ele>
        <time>2020-07-01T08:48:15.960Z</time>
      </trkpt>
      <trkpt lat="48.593886" lon="16.673499">
        <ele>211.894188</ele>
        <time>2020-07-01T08:48:17.965Z</time>
      </trkpt>
      <trkpt lat="48.593862" lon="16.673353">
        <ele>211.940587</ele>
        <time>2020-07-01T08:48:19.981Z</time>
      </trkpt>
      <trkpt lat="48.593838" lon="16.673206">
        <ele>211.987287</ele>
        <time>2020-07-01T08:48:21.963Z</time>
      </trkpt>
      <trkpt lat="48.593818" lon="16.673057">
        <ele>212.034178</ele>
        <time>2020-07-01T08:48:23.974Z</time>
      </trkpt>
      <trkpt lat="48.593808" lon="16.672906">
        <ele>212.080983</ele>
        <time>2020-07-01T08:48:25.988Z</time>
      </trkpt>
      <trkpt lat="48.593798" lon="16.672756">
        <ele>212.127481</ele>
        <time>2020-07-01T08:48:27.994Z</time>
      </trkpt>
      <trkpt lat="48.593790" lon="16.672610">
        <ele>212.172665</ele>
        <time>2020-07-01T08:48:29.981Z</time>
      </trkpt>
      <trkpt lat="48.593808" lon="16.672470">
        <ele>212.216653</ele>
        <time>2020-07-01T08:48:31.974Z</time>
      </trkpt>
      <trkpt lat="48.593850" lon="16.672317">
        <ele>212.267745</ele>
        <time>2020-07-01T08:48:33.967Z</time>
      </trkpt>
      <trkpt lat="48.593837" lon="16.672145">
        <ele>212.249317</ele>
        <time>2020-07-01T08:48:35.997Z</time>
      </trkpt>
      <trkpt lat="48.593822" lon="16.671995">
        <ele>212.229113</ele>
        <time>2020-07-01T08:48:37.956Z</time>
      </trkpt>
      <trkpt lat="48.593803" lon="16.671859">
        <ele>212.210601</ele>
        <time>2020-07-01T08:48:39.977Z</time>
      </trkpt>
      <trkpt lat="48.593784" lon="16.671722">
        <ele>212.191959</ele>
        <time>2020-07-01T08:48:41.970Z</time>
      </trkpt>
      <trkpt lat="48.593755" lon="16.671575">
        <ele>212.171530</ele>
        <time>2020-07-01T08:48:43.985Z</time>
      </trkpt>
      <trkpt lat="48.593721" lon="16.671427">
        <ele>212.150665</ele>
        <time>2020-07-01T08:48:45.964Z</time>
      </trkpt>
      <trkpt lat="48.593687" lon="16.671279">
        <ele>212.129800</ele>
        <time>2020-07-01T08:48:47.974Z</time>
      </trkpt>
      <trkpt lat="48.593672" lon="16.671121">
        <ele>212.108542</ele>
        <time>2020-07-01T08:48:50.003Z</time>
      </trkpt>
      <trkpt lat="48.593660" lon="16.670958">
        <ele>212.086700</ele>
        <time>2020-07-01T08:48:51.963Z</time>
      </trkpt>
      <trkpt lat="48.593642" lon="16.670797">
        <ele>212.064955</ele>
        <time>2020-07-01T08:48:53.961Z</time>
      </trkpt>
      <trkpt lat="48.593619" lon="16.670640">
        <ele>212.043539</ele>
        <time>2020-07-01T08:48:55.958Z</time>
      </trkpt>
      <trkpt lat="48.593584" lon="16.670484">
        <ele>212.021601</ele>
        <time>2020-07-01T08:48:57.962Z</time>
      </trkpt>
      <trkpt lat="48.593533" lon="16.670332">
        <ele>211.998902</ele>
        <time>2020-07-01T08:48:59.959Z</time>
      </trkpt>
      <trkpt lat="48.593464" lon="16.670221">
        <ele>211.978615</ele>
        <time>2020-07-01T08:49:01.967Z</time>
      </trkpt>
      <trkpt lat="48.593401" lon="16.670111">
        <ele>211.959236</ele>
        <time>2020-07-01T08:49:04.033Z</time>
      </trkpt>
      <trkpt lat="48.593348" lon="16.669997">
        <ele>211.940679</ele>
        <time>2020-07-01T08:49:05.987Z</time>
      </trkpt>
      <trkpt lat="48.593299" lon="16.669874">
        <ele>211.921556</ele>
        <time>2020-07-01T08:49:07.974Z</time>
      </trkpt>
      <trkpt lat="48.593249" lon="16.669752">
        <ele>211.895170</ele>
        <time>2020-07-01T08:49:09.969Z</time>
      </trkpt>
      <trkpt lat="48.593196" lon="16.669639">
        <ele>211.855644</ele>
        <time>2020-07-01T08:49:11.957Z</time>
      </trkpt>
      <trkpt lat="48.593136" lon="16.669477">
        <ele>211.802667</ele>
        <time>2020-07-01T08:49:14.982Z</time>
      </trkpt>
      <trkpt lat="48.593089" lon="16.669312">
        <ele>211.751407</ele>
        <time>2020-07-01T08:49:17.987Z</time>
      </trkpt>
      <trkpt lat="48.593043" lon="16.669163">
        <ele>211.704490</ele>
        <time>2020-07-01T08:49:20.978Z</time>
      </trkpt>
      <trkpt lat="48.593003" lon="16.669028">
        <ele>211.662282</ele>
        <time>2020-07-01T08:49:23.985Z</time>
      </trkpt>
      <trkpt lat="48.592962" lon="16.668900">
        <ele>211.621702</ele>
        <time>2020-07-01T08:49:27.008Z</time>
      </trkpt>
      <trkpt lat="48.592916" lon="16.668776">
        <ele>211.581136</ele>
        <time>2020-07-01T08:49:29.985Z</time>
      </trkpt>
      <trkpt lat="48.592856" lon="16.668630">
        <ele>211.532091</ele>
        <time>2020-07-01T08:49:32.959Z</time>
      </trkpt>
      <trkpt lat="48.592808" lon="16.668481">
        <ele>211.484802</ele>
        <time>2020-07-01T08:49:35.981Z</time>
      </trkpt>
      <trkpt lat="48.592758" lon="16.668323">
        <ele>211.434825</ele>
        <time>2020-07-01T08:49:38.992Z</time>
      </trkpt>
      <trkpt lat="48.592690" lon="16.668171">
        <ele>211.382466</ele>
        <time>2020-07-01T08:49:41.999Z</time>
      </trkpt>
      <trkpt lat="48.592610" lon="16.668006">
        <ele>211.324091</ele>
        <time>2020-07-01T08:49:44.963Z</time>
      </trkpt>
      <trkpt lat="48.592546" lon="16.667896">
        <ele>211.282289</ele>
        <time>2020-07-01T08:49:46.978Z</time>
      </trkpt>
      <trkpt lat="48.592462" lon="16.667779">
        <ele>211.233018</ele>
        <time>2020-07-01T08:49:48.988Z</time>
      </trkpt>
      <trkpt lat="48.592371" lon="16.667657">
        <ele>211.180550</ele>
        <time>2020-07-01T08:49:50.991Z</time>
      </trkpt>
      <trkpt lat="48.592271" lon="16.667551">
        <ele>211.132622</ele>
        <time>2020-07-01T08:49:52.974Z</time>
      </trkpt>
      <trkpt lat="48.592175" lon="16.667458">
        <ele>211.130176</ele>
        <time>2020-07-01T08:49:55.022Z</time>
      </trkpt>
      <trkpt lat="48.592087" lon="16.667374">
        <ele>211.127943</ele>
        <time>2020-07-01T08:49:56.978Z</time>
      </trkpt>
      <trkpt lat="48.592011" lon="16.667300">
        <ele>211.126003</ele>
        <time>2020-07-01T08:49:59.021Z</time>
      </trkpt>
      <trkpt lat="48.591906" lon="16.667202">
        <ele>211.123356</ele>
        <time>2020-07-01T08:50:01.996Z</time>
      </trkpt>
      <trkpt lat="48.591811" lon="16.667118">
        <ele>211.120994</ele>
        <time>2020-07-01T08:50:04.976Z</time>
      </trkpt>
      <trkpt lat="48.591703" lon="16.667049">
        <ele>211.118478</ele>
        <time>2020-07-01T08:50:07.978Z</time>
      </trkpt>
      <trkpt lat="48.591595" lon="16.666964">
        <ele>211.115866</ele>
        <time>2020-07-01T08:50:11.001Z</time>
      </trkpt>
      <trkpt lat="48.591514" lon="16.666896">
        <ele>211.113878</ele>
        <time>2020-07-01T08:50:12.975Z</time>
      </trkpt>
      <trkpt lat="48.591430" lon="16.666829">
        <ele>211.111840</ele>
        <time>2020-07-01T08:50:14.959Z</time>
      </trkpt>
      <trkpt lat="48.591354" lon="16.666750">
        <ele>211.109861</ele>
        <time>2020-07-01T08:50:16.981Z</time>
      </trkpt>
      <trkpt lat="48.591271" lon="16.666640">
        <ele>211.107493</ele>
        <time>2020-07-01T08:50:19.015Z</time>
      </trkpt>
      <trkpt lat="48.591199" lon="16.666508">
        <ele>211.105065</ele>
        <time>2020-07-01T08:50:20.982Z</time>
      </trkpt>
      <trkpt lat="48.591142" lon="16.666342">
        <ele>211.102410</ele>
        <time>2020-07-01T08:50:22.984Z</time>
      </trkpt>
      <trkpt lat="48.591084" lon="16.666162">
        <ele>211.099569</ele>
        <time>2020-07-01T08:50:24.985Z</time>
      </trkpt>
      <trkpt lat="48.591025" lon="16.665978">
        <ele>211.096667</ele>
        <time>2020-07-01T08:50:26.985Z</time>
      </trkpt>
      <trkpt lat="48.590973" lon="16.665789">
        <ele>211.100750</ele>
        <time>2020-07-01T08:50:28.968Z</time>
      </trkpt>
      <trkpt lat="48.590915" lon="16.665607">
        <ele>211.136655</ele>
        <time>2020-07-01T08:50:30.996Z</time>
      </trkpt>
      <trkpt lat="48.590857" lon="16.665426">
        <ele>211.172400</ele>
        <time>2020-07-01T08:50:32.974Z</time>
      </trkpt>
      <trkpt lat="48.590802" lon="16.665242">
        <ele>211.208286</ele>
        <time>2020-07-01T08:50:34.978Z</time>
      </trkpt>
      <trkpt lat="48.590748" lon="16.665060">
        <ele>211.243738</ele>
        <time>2020-07-01T08:50:37.003Z</time>
      </trkpt>
      <trkpt lat="48.590693" lon="16.664884">
        <ele>211.278333</ele>
        <time>2020-07-01T08:50:38.984Z</time>
      </trkpt>
      <trkpt lat="48.590637" lon="16.664716">
        <ele>211.311769</ele>
        <time>2020-07-01T08:50:40.990Z</time>
      </trkpt>
      <trkpt lat="48.590580" lon="16.664550">
        <ele>211.345011</ele>
        <time>2020-07-01T08:50:43.000Z</time>
      </trkpt>
      <trkpt lat="48.590535" lon="16.664383">
        <ele>211.377060</ele>
        <time>2020-07-01T08:50:44.979Z</time>
      </trkpt>
      <trkpt lat="48.590489" lon="16.664225">
        <ele>211.407741</ele>
        <time>2020-07-01T08:50:46.973Z</time>
      </trkpt>
      <trkpt lat="48.590445" lon="16.664076">
        <ele>211.436742</ele>
        <time>2020-07-01T08:50:48.959Z</time>
      </trkpt>
      <trkpt lat="48.590404" lon="16.663927">
        <ele>211.465424</ele>
        <time>2020-07-01T08:50:50.996Z</time>
      </trkpt>
      <trkpt lat="48.590362" lon="16.663779">
        <ele>211.494046</ele>
        <time>2020-07-01T08:50:52.990Z</time>
      </trkpt>
      <trkpt lat="48.590318" lon="16.663631">
        <ele>211.522885</ele>
        <time>2020-07-01T08:50:54.996Z</time>
      </trkpt>
      <trkpt lat="48.590277" lon="16.663481">
        <ele>211.551731</ele>
        <time>2020-07-01T08:50:56.983Z</time>
      </trkpt>
      <trkpt lat="48.590235" lon="16.663335">
        <ele>211.586027</ele>
        <time>2020-07-01T08:50:58.989Z</time>
      </trkpt>
      <trkpt lat="48.590193" lon="16.663188">
        <ele>211.684141</ele>
        <time>2020-07-01T08:51:00.978Z</time>
      </trkpt>
      <trkpt lat="48.590150" lon="16.663040">
        <ele>211.783187</ele>
        <time>2020-07-01T08:51:02.978Z</time>
      </trkpt>
      <trkpt lat="48.590105" lon="16.662894">
        <ele>211.881881</ele>
        <time>2020-07-01T08:51:04.963Z</time>
      </trkpt>
      <trkpt lat="48.590058" lon="16.662753">
        <ele>211.978626</ele>
        <time>2020-07-01T08:51:07.002Z</time>
      </trkpt>
      <trkpt lat="48.590012" lon="16.662612">
        <ele>212.074957</ele>
        <time>2020-07-01T08:51:08.965Z</time>
      </trkpt>
      <trkpt lat="48.589972" lon="16.662465">
        <ele>212.172352</ele>
        <time>2020-07-01T08:51:10.980Z</time>
      </trkpt>
      <trkpt lat="48.589934" lon="16.662318">
        <ele>212.269057</ele>
        <time>2020-07-01T08:51:12.971Z</time>
      </trkpt>
      <trkpt lat="48.589900" lon="16.662180">
        <ele>212.359289</ele>
        <time>2020-07-01T08:51:15.025Z</time>
      </trkpt>
      <trkpt lat="48.589873" lon="16.662045">
        <ele>212.445706</ele>
        <time>2020-07-01T08:51:16.978Z</time>
      </trkpt>
      <trkpt lat="48.589847" lon="16.661853">
        <ele>212.565790</ele>
        <time>2020-07-01T08:51:20.004Z</time>
      </trkpt>
      <trkpt lat="48.589838" lon="16.661679">
        <ele>212.672730</ele>
        <time>2020-07-01T08:51:23.024Z</time>
      </trkpt>
      <trkpt lat="48.589829" lon="16.661499">
        <ele>212.783336</ele>
        <time>2020-07-01T08:51:25.980Z</time>
      </trkpt>
      <trkpt lat="48.589838" lon="16.661311">
        <ele>212.898830</ele>
        <time>2020-07-01T08:51:28.986Z</time>
      </trkpt>
      <trkpt lat="48.589852" lon="16.661122">
        <ele>213.015360</ele>
        <time>2020-07-01T08:51:31.979Z</time>
      </trkpt>
      <trkpt lat="48.589847" lon="16.660925">
        <ele>213.136156</ele>
        <time>2020-07-01T08:51:35.019Z</time>
      </trkpt>
      <trkpt lat="48.589803" lon="16.660743">
        <ele>213.244877</ele>
        <time>2020-07-01T08:51:37.977Z</time>
      </trkpt>
      <trkpt lat="48.589724" lon="16.660628">
        <ele>213.255181</ele>
        <time>2020-07-01T08:51:40.009Z</time>
      </trkpt>
      <trkpt lat="48.589629" lon="16.660489">
        <ele>213.267602</ele>
        <time>2020-07-01T08:51:41.990Z</time>
      </trkpt>
      <trkpt lat="48.589539" lon="16.660345">
        <ele>213.279914</ele>
        <time>2020-07-01T08:51:43.962Z</time>
      </trkpt>
      <trkpt lat="48.589453" lon="16.660199">
        <ele>213.292064</ele>
        <time>2020-07-01T08:51:46.035Z</time>
      </trkpt>
      <trkpt lat="48.589376" lon="16.660048">
        <ele>213.303913</ele>
        <time>2020-07-01T08:51:47.977Z</time>
      </trkpt>
      <trkpt lat="48.589312" lon="16.659893">
        <ele>213.315269</ele>
        <time>2020-07-01T08:51:49.970Z</time>
      </trkpt>
      <trkpt lat="48.589252" lon="16.659740">
        <ele>213.326323</ele>
        <time>2020-07-01T08:51:51.990Z</time>
      </trkpt>
      <trkpt lat="48.589196" lon="16.659598">
        <ele>213.336597</ele>
        <time>2020-07-01T08:51:53.985Z</time>
      </trkpt>
      <trkpt lat="48.589138" lon="16.659457">
        <ele>213.346916</ele>
        <time>2020-07-01T08:51:55.989Z</time>
      </trkpt>
      <trkpt lat="48.589083" lon="16.659307">
        <ele>213.357575</ele>
        <time>2020-07-01T08:51:58.020Z</time>
      </trkpt>
      <trkpt lat="48.589030" lon="16.659156">
        <ele>213.368199</ele>
        <time>2020-07-01T08:51:59.970Z</time>
      </trkpt>
      <trkpt lat="48.588979" lon="16.659004">
        <ele>213.378791</ele>
        <time>2020-07-01T08:52:01.967Z</time>
      </trkpt>
      <trkpt lat="48.588936" lon="16.658850">
        <ele>213.389180</ele>
        <time>2020-07-01T08:52:04.010Z</time>
      </trkpt>
      <trkpt lat="48.588897" lon="16.658704">
        <ele>213.398965</ele>
        <time>2020-07-01T08:52:05.988Z</time>
      </trkpt>
      <trkpt lat="48.588870" lon="16.658558">
        <ele>213.408387</ele>
        <time>2020-07-01T08:52:07.959Z</time>
      </trkpt>
      <trkpt lat="48.588840" lon="16.658410">
        <ele>213.424589</ele>
        <time>2020-07-01T08:52:09.978Z</time>
      </trkpt>
      <trkpt lat="48.588811" lon="16.658259">
        <ele>213.446575</ele>
        <time>2020-07-01T08:52:11.971Z</time>
      </trkpt>
      <trkpt lat="48.588783" lon="16.658106">
        <ele>213.468772</ele>
        <time>2020-07-01T08:52:13.960Z</time>
      </trkpt>
      <trkpt lat="48.588753" lon="16.657955">
        <ele>213.490817</ele>
        <time>2020-07-01T08:52:16.000Z</time>
      </trkpt>
      <trkpt lat="48.588730" lon="16.657800">
        <ele>213.513028</ele>
        <time>2020-07-01T08:52:17.956Z</time>
      </trkpt>
      <trkpt lat="48.588711" lon="16.657640">
        <ele>213.535758</ele>
        <time>2020-07-01T08:52:19.986Z</time>
      </trkpt>
      <trkpt lat="48.588695" lon="16.657479">
        <ele>213.558522</ele>
        <time>2020-07-01T08:52:21.959Z</time>
      </trkpt>
      <trkpt lat="48.588683" lon="16.657319">
        <ele>213.581037</ele>
        <time>2020-07-01T08:52:23.984Z</time>
      </trkpt>
      <trkpt lat="48.588670" lon="16.657160">
        <ele>213.603439</ele>
        <time>2020-07-01T08:52:25.961Z</time>
      </trkpt>
      <trkpt lat="48.588660" lon="16.657004">
        <ele>213.625353</ele>
        <time>2020-07-01T08:52:27.986Z</time>
      </trkpt>
      <trkpt lat="48.588651" lon="16.656849">
        <ele>213.647110</ele>
        <time>2020-07-01T08:52:29.986Z</time>
      </trkpt>
      <trkpt lat="48.588646" lon="16.656695">
        <ele>213.668668</ele>
        <time>2020-07-01T08:52:31.991Z</time>
      </trkpt>
      <trkpt lat="48.588641" lon="16.656543">
        <ele>213.689948</ele>
        <time>2020-07-01T08:52:33.955Z</time>
      </trkpt>
      <trkpt lat="48.588635" lon="16.656394">
        <ele>213.710820</ele>
        <time>2020-07-01T08:52:35.957Z</time>
      </trkpt>
      <trkpt lat="48.588625" lon="16.656245">
        <ele>213.731761</ele>
        <time>2020-07-01T08:52:37.962Z</time>
      </trkpt>
      <trkpt lat="48.588615" lon="16.656096">
        <ele>213.752702</ele>
        <time>2020-07-01T08:52:39.956Z</time>
      </trkpt>
      <trkpt lat="48.588606" lon="16.655947">
        <ele>213.773623</ele>
        <time>2020-07-01T08:52:41.978Z</time>
      </trkpt>
      <trkpt lat="48.588597" lon="16.655800">
        <ele>213.795453</ele>
        <time>2020-07-01T08:52:43.966Z</time>
      </trkpt>
      <trkpt lat="48.588592" lon="16.655653">
        <ele>213.834649</ele>
        <time>2020-07-01T08:52:45.959Z</time>
      </trkpt>
      <trkpt lat="48.588587" lon="16.655509">
        <ele>213.873046</ele>
        <time>2020-07-01T08:52:47.983Z</time>
      </trkpt>
      <trkpt lat="48.588580" lon="16.655368">
        <ele>213.910698</ele>
        <time>2020-07-01T08:52:49.958Z</time>
      </trkpt>
      <trkpt lat="48.588574" lon="16.655229">
        <ele>213.947790</ele>
        <time>2020-07-01T08:52:51.985Z</time>
      </trkpt>
      <trkpt lat="48.588567" lon="16.655089">
        <ele>213.985176</ele>
        <time>2020-07-01T08:52:53.994Z</time>
      </trkpt>
      <trkpt lat="48.588563" lon="16.654946">
        <ele>214.023288</ele>
        <time>2020-07-01T08:52:55.956Z</time>
      </trkpt>
      <trkpt lat="48.588555" lon="16.654803">
        <ele>214.061503</ele>
        <time>2020-07-01T08:52:57.995Z</time>
      </trkpt>
      <trkpt lat="48.588539" lon="16.654659">
        <ele>214.100385</ele>
        <time>2020-07-01T08:52:59.963Z</time>
      </trkpt>
      <trkpt lat="48.588517" lon="16.654514">
        <ele>214.139998</ele>
        <time>2020-07-01T08:53:01.999Z</time>
      </trkpt>
      <trkpt lat="48.588494" lon="16.654367">
        <ele>214.180222</ele>
        <time>2020-07-01T08:53:03.971Z</time>
      </trkpt>
      <trkpt lat="48.588468" lon="16.654217">
        <ele>214.221513</ele>
        <time>2020-07-01T08:53:05.959Z</time>
      </trkpt>
      <trkpt lat="48.588434" lon="16.654062">
        <ele>214.264998</ele>
        <time>2020-07-01T08:53:08.008Z</time>
      </trkpt>
      <trkpt lat="48.588395" lon="16.653909">
        <ele>214.308659</ele>
        <time>2020-07-01T08:53:10.004Z</time>
      </trkpt>
      <trkpt lat="48.588355" lon="16.653767">
        <ele>214.349758</ele>
        <time>2020-07-01T08:53:11.997Z</time>
      </trkpt>
      <trkpt lat="48.588313" lon="16.653630">
        <ele>214.389966</ele>
        <time>2020-07-01T08:53:13.960Z</time>
      </trkpt>
      <trkpt lat="48.588271" lon="16.653496">
        <ele>214.429452</ele>
        <time>2020-07-01T08:53:15.961Z</time>
      </trkpt>
      <trkpt lat="48.588230" lon="16.653369">
        <ele>214.467083</ele>
        <time>2020-07-01T08:53:17.971Z</time>
      </trkpt>
      <trkpt lat="48.588155" lon="16.653180">
        <ele>214.517574</ele>
        <time>2020-07-01T08:53:20.959Z</time>
      </trkpt>
      <trkpt lat="48.588095" lon="16.653001">
        <ele>214.520924</ele>
        <time>2020-07-01T08:53:23.988Z</time>
      </trkpt>
      <trkpt lat="48.588024" lon="16.652846">
        <ele>214.524071</ele>
        <time>2020-07-01T08:53:26.960Z</time>
      </trkpt>
      <trkpt lat="48.587943" lon="16.652715">
        <ele>214.527064</ele>
        <time>2020-07-01T08:53:29.989Z</time>
      </trkpt>
      <trkpt lat="48.587878" lon="16.652620">
        <ele>214.529345</ele>
        <time>2020-07-01T08:53:31.960Z</time>
      </trkpt>
      <trkpt lat="48.587808" lon="16.652518">
        <ele>214.531799</ele>
        <time>2020-07-01T08:53:33.982Z</time>
      </trkpt>
      <trkpt lat="48.587734" lon="16.652415">
        <ele>214.534337</ele>
        <time>2020-07-01T08:53:35.993Z</time>
      </trkpt>
      <trkpt lat="48.587661" lon="16.652309">
        <ele>214.536891</ele>
        <time>2020-07-01T08:53:38.013Z</time>
      </trkpt>
      <trkpt lat="48.587588" lon="16.652200">
        <ele>214.539480</ele>
        <time>2020-07-01T08:53:39.956Z</time>
      </trkpt>
      <trkpt lat="48.587515" lon="16.652088">
        <ele>214.542105</ele>
        <time>2020-07-01T08:53:41.967Z</time>
      </trkpt>
      <trkpt lat="48.587440" lon="16.651976">
        <ele>214.544765</ele>
        <time>2020-07-01T08:53:43.997Z</time>
      </trkpt>
      <trkpt lat="48.587369" lon="16.651859">
        <ele>214.547415</ele>
        <time>2020-07-01T08:53:45.978Z</time>
      </trkpt>
      <trkpt lat="48.587299" lon="16.651737">
        <ele>214.550111</ele>
        <time>2020-07-01T08:53:47.957Z</time>
      </trkpt>
      <trkpt lat="48.587225" lon="16.651616">
        <ele>214.552862</ele>
        <time>2020-07-01T08:53:49.979Z</time>
      </trkpt>
      <trkpt lat="48.587150" lon="16.651495">
        <ele>214.555630</ele>
        <time>2020-07-01T08:53:51.974Z</time>
      </trkpt>
      <trkpt lat="48.587070" lon="16.651375">
        <ele>214.558474</ele>
        <time>2020-07-01T08:53:53.966Z</time>
      </trkpt>
      <trkpt lat="48.586996" lon="16.651257">
        <ele>214.561188</ele>
        <time>2020-07-01T08:53:55.980Z</time>
      </trkpt>
      <trkpt lat="48.586925" lon="16.651142">
        <ele>214.589468</ele>
        <time>2020-07-01T08:53:57.971Z</time>
      </trkpt>
      <trkpt lat="48.586852" lon="16.651031">
        <ele>214.639958</ele>
        <time>2020-07-01T08:53:59.957Z</time>
      </trkpt>
      <trkpt lat="48.586779" lon="16.650926">
        <ele>214.689094</ele>
        <time>2020-07-01T08:54:01.977Z</time>
      </trkpt>
      <trkpt lat="48.586708" lon="16.650829">
        <ele>214.735761</ele>
        <time>2020-07-01T08:54:03.969Z</time>
      </trkpt>
      <trkpt lat="48.586638" lon="16.650736">
        <ele>214.781205</ele>
        <time>2020-07-01T08:54:05.986Z</time>
      </trkpt>
      <trkpt lat="48.586556" lon="16.650655">
        <ele>214.828971</ele>
        <time>2020-07-01T08:54:07.960Z</time>
      </trkpt>
      <trkpt lat="48.586477" lon="16.650574">
        <ele>214.875520</ele>
        <time>2020-07-01T08:54:09.984Z</time>
      </trkpt>
      <trkpt lat="48.586387" lon="16.650516">
        <ele>214.923229</ele>
        <time>2020-07-01T08:54:11.967Z</time>
      </trkpt>
      <trkpt lat="48.586296" lon="16.650455">
        <ele>214.971772</ele>
        <time>2020-07-01T08:54:13.962Z</time>
      </trkpt>
      <trkpt lat="48.586208" lon="16.650389">
        <ele>215.019676</ele>
        <time>2020-07-01T08:54:15.967Z</time>
      </trkpt>
      <trkpt lat="48.586116" lon="16.650321">
        <ele>215.069614</ele>
        <time>2020-07-01T08:54:17.978Z</time>
      </trkpt>
      <trkpt lat="48.586020" lon="16.650253">
        <ele>215.121312</ele>
        <time>2020-07-01T08:54:20.011Z</time>
      </trkpt>
      <trkpt lat="48.585918" lon="16.650191">
        <ele>215.174922</ele>
        <time>2020-07-01T08:54:21.961Z</time>
      </trkpt>
      <trkpt lat="48.585822" lon="16.650126">
        <ele>215.226217</ele>
        <time>2020-07-01T08:54:23.978Z</time>
      </trkpt>
      <trkpt lat="48.585725" lon="16.650053">
        <ele>215.279056</ele>
        <time>2020-07-01T08:54:25.968Z</time>
      </trkpt>
      <trkpt lat="48.585620" lon="16.649966">
        <ele>215.337445</ele>
        <time>2020-07-01T08:54:27.951Z</time>
      </trkpt>
      <trkpt lat="48.585525" lon="16.649880">
        <ele>215.391443</ele>
        <time>2020-07-01T08:54:29.967Z</time>
      </trkpt>
      <trkpt lat="48.585414" lon="16.649781">
        <ele>215.439513</ele>
        <time>2020-07-01T08:54:32.980Z</time>
      </trkpt>
      <trkpt lat="48.585306" lon="16.649675">
        <ele>215.439513</ele>
        <time>2020-07-01T08:54:36.006Z</time>
      </trkpt>
      <trkpt lat="48.585193" lon="16.649560">
        <ele>215.439513</ele>
        <time>2020-07-01T08:54:38.993Z</time>
      </trkpt>
      <trkpt lat="48.585114" lon="16.649475">
        <ele>215.439513</ele>
        <time>2020-07-01T08:54:40.997Z</time>
      </trkpt>
      <trkpt lat="48.585038" lon="16.649384">
        <ele>215.439513</ele>
        <time>2020-07-01T08:54:42.958Z</time>
      </trkpt>
      <trkpt lat="48.584965" lon="16.649291">
        <ele>215.439513</ele>
        <time>2020-07-01T08:54:44.964Z</time>
      </trkpt>
      <trkpt lat="48.584892" lon="16.649196">
        <ele>215.439513</ele>
        <time>2020-07-01T08:54:46.979Z</time>
      </trkpt>
      <trkpt lat="48.584824" lon="16.649096">
        <ele>215.439513</ele>
        <time>2020-07-01T08:54:48.987Z</time>
      </trkpt>
      <trkpt lat="48.584761" lon="16.648993">
        <ele>215.439513</ele>
        <time>2020-07-01T08:54:50.959Z</time>
      </trkpt>
      <trkpt lat="48.584697" lon="16.648892">
        <ele>215.439513</ele>
        <time>2020-07-01T08:54:52.990Z</time>
      </trkpt>
      <trkpt lat="48.584631" lon="16.648791">
        <ele>215.439513</ele>
        <time>2020-07-01T08:54:54.958Z</time>
      </trkpt>
      <trkpt lat="48.584560" lon="16.648699">
        <ele>215.439513</ele>
        <time>2020-07-01T08:54:56.950Z</time>
      </trkpt>
      <trkpt lat="48.584461" lon="16.648723">
        <ele>215.439513</ele>
        <time>2020-07-01T08:54:58.984Z</time>
      </trkpt>
      <trkpt lat="48.584363" lon="16.648811">
        <ele>215.439513</ele>
        <time>2020-07-01T08:55:00.961Z</time>
      </trkpt>
      <trkpt lat="48.584274" lon="16.648907">
        <ele>215.439513</ele>
        <time>2020-07-01T08:55:02.997Z</time>
      </trkpt>
      <trkpt lat="48.584180" lon="16.649000">
        <ele>215.439513</ele>
        <time>2020-07-01T08:55:04.978Z</time>
      </trkpt>
      <trkpt lat="48.584090" lon="16.649084">
        <ele>215.439513</ele>
        <time>2020-07-01T08:55:06.958Z</time>
      </trkpt>
      <trkpt lat="48.583974" lon="16.649102">
        <ele>215.439513</ele>
        <time>2020-07-01T08:55:09.963Z</time>
      </trkpt>
      <trkpt lat="48.583969" lon="16.649090">
        <ele>215.439513</ele>
        <time>2020-07-01T08:55:58.612Z</time>
      </trkpt>
    </trkseg>
  </trk>
</gpx>